<?xml version='1.0' encoding='UTF-8'?><gpx version="1.1" creator="JPX - https://github.com/jenetics/jpx" xmlns="http://www.topografix.com/GPX/1/1"><trk><trkseg><trkpt lat="45.13158347469256" lon="13.733647277704137"><ele>3.9999999999999996</ele><time>2026-05-01T09:37:58.001Z</time></trkpt><trkpt lat="45.131702719962895" lon="13.73368166735168"><ele>4.0</ele><time>2026-05-01T09:38:01.001Z</time></trkpt><trkpt lat="45.13165140744393" lon="13.733752641857766"><ele>4.0</ele><time>2026-05-01T09:38:31.001Z</time></trkpt><trkpt lat="45.13159720073854" lon="13.733853332979681"><ele>4.0</ele><time>2026-05-01T09:38:34.001Z</time></trkpt><trkpt lat="45.13157110853506" lon="13.733939851933851"><ele>3.9999999999999996</ele><time>2026-05-01T09:38:36Z</time></trkpt><trkpt lat="45.131540155872926" lon="13.734036012645605"><ele>4.0</ele><time>2026-05-01T09:38:38Z</time></trkpt><trkpt lat="45.13154075810845" lon="13.73414915610291"><ele>3.9999999999999996</ele><time>2026-05-01T09:38:40Z</time></trkpt><trkpt lat="45.13154336081667" lon="13.7342606222309"><ele>4.0</ele><time>2026-05-01T09:38:42Z</time></trkpt><trkpt lat="45.13153806948168" lon="13.73437692449787"><ele>4.0</ele><time>2026-05-01T09:38:44Z</time></trkpt><trkpt lat="45.13151943704063" lon="13.734534175960942"><ele>4.0</ele><time>2026-05-01T09:38:46Z</time></trkpt><trkpt lat="45.13151589115251" lon="13.73462519749185"><ele>3.9999999999999996</ele><time>2026-05-01T09:38:47Z</time></trkpt><trkpt lat="45.131500397214594" lon="13.734769825687254"><ele>4.0</ele><time>2026-05-01T09:38:49Z</time></trkpt><trkpt lat="45.13147828676896" lon="13.734924515245986"><ele>4.0</ele><time>2026-05-01T09:38:51Z</time></trkpt><trkpt lat="45.13143070409009" lon="13.735081205880409"><ele>4.0</ele><time>2026-05-01T09:38:53Z</time></trkpt><trkpt lat="45.131387621326645" lon="13.73523031974989"><ele>4.0</ele><time>2026-05-01T09:38:55Z</time></trkpt><trkpt lat="45.131344096332995" lon="13.735374456000546"><ele>4.0</ele><time>2026-05-01T09:38:57Z</time></trkpt><trkpt lat="45.131297432933124" lon="13.73554284366005"><ele>3.4999999999999996</ele><time>2026-05-01T09:38:59Z</time></trkpt><trkpt lat="45.13127348457387" lon="13.73563435745355"><ele>3.0</ele><time>2026-05-01T09:39:00Z</time></trkpt><trkpt lat="45.13125060839167" lon="13.735723379164451"><ele>2.5</ele><time>2026-05-01T09:39:01Z</time></trkpt><trkpt lat="45.13122709341315" lon="13.735812995346823"><ele>2.0</ele><time>2026-05-01T09:39:02Z</time></trkpt><trkpt lat="45.13120707234851" lon="13.735899176600125"><ele>1.5</ele><time>2026-05-01T09:39:03Z</time></trkpt><trkpt lat="45.13116164514341" lon="13.736066624152295"><ele>1.0</ele><time>2026-05-01T09:39:05Z</time></trkpt><trkpt lat="45.131135461998014" lon="13.736160719756628"><ele>2.0</ele><time>2026-05-01T09:39:06Z</time></trkpt><trkpt lat="45.1311085014629" lon="13.736257628933577"><ele>3.0</ele><time>2026-05-01T09:39:07Z</time></trkpt><trkpt lat="45.13107829745836" lon="13.736357895995969"><ele>4.0</ele><time>2026-05-01T09:39:08Z</time></trkpt><trkpt lat="45.1310489393575" lon="13.736462706398482"><ele>5.0</ele><time>2026-05-01T09:39:09Z</time></trkpt><trkpt lat="45.131020540512864" lon="13.736566158560976"><ele>6.000000000000001</ele><time>2026-05-01T09:39:10Z</time></trkpt><trkpt lat="45.13099232427395" lon="13.736666698806209"><ele>7.0</ele><time>2026-05-01T09:39:11Z</time></trkpt><trkpt lat="45.13095961347181" lon="13.736767217869794"><ele>7.0</ele><time>2026-05-01T09:39:12Z</time></trkpt><trkpt lat="45.13092876234709" lon="13.736866992059417"><ele>7.0</ele><time>2026-05-01T09:39:13Z</time></trkpt><trkpt lat="45.13090382775514" lon="13.736950657421648"><ele>7.0</ele><time>2026-05-01T09:39:14Z</time></trkpt><trkpt lat="45.130871033437835" lon="13.737045358280893"><ele>7.0</ele><time>2026-05-01T09:39:15Z</time></trkpt><trkpt lat="45.130836766007945" lon="13.73713735000292"><ele>7.0</ele><time>2026-05-01T09:39:16Z</time></trkpt><trkpt lat="45.1308002357762" lon="13.737224780427551"><ele>7.0</ele><time>2026-05-01T09:39:17Z</time></trkpt><trkpt lat="45.13075936635343" lon="13.73730783576724"><ele>7.0</ele><time>2026-05-01T09:39:18Z</time></trkpt><trkpt lat="45.13071848467759" lon="13.73738757255093"><ele>6.666666666666667</ele><time>2026-05-01T09:39:19Z</time></trkpt><trkpt lat="45.1306697772465" lon="13.737467755712249"><ele>6.333333333333334</ele><time>2026-05-01T09:39:20Z</time></trkpt><trkpt lat="45.13061620421742" lon="13.737543960254975"><ele>6.0</ele><time>2026-05-01T09:39:21Z</time></trkpt><trkpt lat="45.13055980843676" lon="13.737625299124353"><ele>5.666666666666667</ele><time>2026-05-01T09:39:22Z</time></trkpt><trkpt lat="45.13050591336791" lon="13.737712790834916"><ele>5.333333333333334</ele><time>2026-05-01T09:39:23Z</time></trkpt><trkpt lat="45.13045715309156" lon="13.737791270932172"><ele>5.0</ele><time>2026-05-01T09:39:24Z</time></trkpt><trkpt lat="45.13041146513242" lon="13.73786156766876"><ele>5.833333333333334</ele><time>2026-05-01T09:39:25Z</time></trkpt><trkpt lat="45.130367416205566" lon="13.737929662894006"><ele>6.666666666666667</ele><time>2026-05-01T09:39:26Z</time></trkpt><trkpt lat="45.13032436866107" lon="13.737994803016525"><ele>7.5</ele><time>2026-05-01T09:39:27Z</time></trkpt><trkpt lat="45.13025946123272" lon="13.73811877093363"><ele>8.333333333333334</ele><time>2026-05-01T09:39:29Z</time></trkpt><trkpt lat="45.1301842351511" lon="13.738275571563637"><ele>9.166666666666668</ele><time>2026-05-01T09:39:31Z</time></trkpt><trkpt lat="45.13013085506899" lon="13.73835188873267"><ele>10.0</ele><time>2026-05-01T09:39:32Z</time></trkpt><trkpt lat="45.130073967391944" lon="13.738423393190766"><ele>10.0</ele><time>2026-05-01T09:39:33Z</time></trkpt><trkpt lat="45.13001523421646" lon="13.738506665021445"><ele>10.0</ele><time>2026-05-01T09:39:34Z</time></trkpt><trkpt lat="45.12995572981087" lon="13.738598523703528"><ele>10.0</ele><time>2026-05-01T09:39:35Z</time></trkpt><trkpt lat="45.129899001952275" lon="13.73869935185914"><ele>10.0</ele><time>2026-05-01T09:39:36Z</time></trkpt><trkpt lat="45.12983148600234" lon="13.738801063174504"><ele>10.0</ele><time>2026-05-01T09:39:37Z</time></trkpt><trkpt lat="45.129765101666834" lon="13.73890623109737"><ele>10.0</ele><time>2026-05-01T09:39:38Z</time></trkpt><trkpt lat="45.129698272300864" lon="13.739011653836503"><ele>10.0</ele><time>2026-05-01T09:39:39Z</time></trkpt><trkpt lat="45.12963220774489" lon="13.739115659293844"><ele>10.0</ele><time>2026-05-01T09:39:40Z</time></trkpt><trkpt lat="45.12956862582206" lon="13.739223258664289"><ele>10.0</ele><time>2026-05-01T09:39:41Z</time></trkpt><trkpt lat="45.1295028803789" lon="13.739334400628703"><ele>10.0</ele><time>2026-05-01T09:39:42Z</time></trkpt><trkpt lat="45.12943215559459" lon="13.739446508818355"><ele>10.0</ele><time>2026-05-01T09:39:43Z</time></trkpt><trkpt lat="45.12936183609407" lon="13.739561031237903"><ele>10.0</ele><time>2026-05-01T09:39:44Z</time></trkpt><trkpt lat="45.1292955295561" lon="13.739684783208181"><ele>10.0</ele><time>2026-05-01T09:39:45Z</time></trkpt><trkpt lat="45.12923375305371" lon="13.739817073430691"><ele>10.0</ele><time>2026-05-01T09:39:46.001Z</time></trkpt><trkpt lat="45.12917670049502" lon="13.73995416256005"><ele>10.0</ele><time>2026-05-01T09:39:47.001Z</time></trkpt><trkpt lat="45.129133769576235" lon="13.74010163811267"><ele>10.6</ele><time>2026-05-01T09:39:48.001Z</time></trkpt><trkpt lat="45.12909726816175" lon="13.740241955201808"><ele>11.2</ele><time>2026-05-01T09:39:49.001Z</time></trkpt><trkpt lat="45.12907703974015" lon="13.74037469298592"><ele>11.8</ele><time>2026-05-01T09:39:50.001Z</time></trkpt><trkpt lat="45.12906114825951" lon="13.740495951722835"><ele>12.4</ele><time>2026-05-01T09:39:51.001Z</time></trkpt><trkpt lat="45.1290545299976" lon="13.740614546961542"><ele>13.0</ele><time>2026-05-01T09:39:52.001Z</time></trkpt><trkpt lat="45.12904997586192" lon="13.740739675831568"><ele>15.4</ele><time>2026-05-01T09:39:53.001Z</time></trkpt><trkpt lat="45.1290427234401" lon="13.740871621779188"><ele>17.8</ele><time>2026-05-01T09:39:54.001Z</time></trkpt><trkpt lat="45.12903456123362" lon="13.741004515718103"><ele>20.2</ele><time>2026-05-01T09:39:55.001Z</time></trkpt><trkpt lat="45.12902253046299" lon="13.741145153831402"><ele>22.6</ele><time>2026-05-01T09:39:56.001Z</time></trkpt><trkpt lat="45.12900881478416" lon="13.741288150954817"><ele>25.0</ele><time>2026-05-01T09:39:57.001Z</time></trkpt><trkpt lat="45.12899813715264" lon="13.741435706687207"><ele>25.75</ele><time>2026-05-01T09:39:58.001Z</time></trkpt><trkpt lat="45.12898854840639" lon="13.741592622375714"><ele>26.5</ele><time>2026-05-01T09:39:59.001Z</time></trkpt><trkpt lat="45.12897949539341" lon="13.741753645767451"><ele>27.25</ele><time>2026-05-01T09:40:00.001Z</time></trkpt><trkpt lat="45.128968262430284" lon="13.741916743153773"><ele>28.0</ele><time>2026-05-01T09:40:01.001Z</time></trkpt><trkpt lat="45.12896312798909" lon="13.74208632142441"><ele>28.0</ele><time>2026-05-01T09:40:02.001Z</time></trkpt><trkpt lat="45.12896352011637" lon="13.742258775181094"><ele>28.0</ele><time>2026-05-01T09:40:03.001Z</time></trkpt><trkpt lat="45.128957361118694" lon="13.742424025427036"><ele>28.0</ele><time>2026-05-01T09:40:04.001Z</time></trkpt><trkpt lat="45.12895002728022" lon="13.742597659039983"><ele>28.0</ele><time>2026-05-01T09:40:05.001Z</time></trkpt><trkpt lat="45.12893534230261" lon="13.742770783091968"><ele>27.799999999999997</ele><time>2026-05-01T09:40:06.001Z</time></trkpt><trkpt lat="45.12891153788698" lon="13.742940500587665"><ele>27.599999999999998</ele><time>2026-05-01T09:40:07.001Z</time></trkpt><trkpt lat="45.1288821959688" lon="13.743095700942431"><ele>27.400000000000002</ele><time>2026-05-01T09:40:08.001Z</time></trkpt><trkpt lat="45.12884709809816" lon="13.74323143444092"><ele>27.200000000000003</ele><time>2026-05-01T09:40:09.001Z</time></trkpt><trkpt lat="45.12880717471244" lon="13.743351774914784"><ele>27.0</ele><time>2026-05-01T09:40:10.001Z</time></trkpt><trkpt lat="45.12876067776252" lon="13.74344127081291"><ele>27.0</ele><time>2026-05-01T09:40:11.001Z</time></trkpt><trkpt lat="45.128713438558364" lon="13.743502726476333"><ele>27.0</ele><time>2026-05-01T09:40:12.001Z</time></trkpt><trkpt lat="45.12863977576322" lon="13.743604239606244"><ele>27.0</ele><time>2026-05-01T09:40:14.001Z</time></trkpt><trkpt lat="45.12861513041021" lon="13.743714699454252"><ele>27.0</ele><time>2026-05-01T09:40:16.001Z</time></trkpt><trkpt lat="45.12857856002984" lon="13.743873437221916"><ele>27.0</ele><time>2026-05-01T09:40:26.001Z</time></trkpt><trkpt lat="45.12852215586157" lon="13.743942937187468"><ele>27.0</ele><time>2026-05-01T09:40:27.001Z</time></trkpt><trkpt lat="45.1284666325289" lon="13.743985201466936"><ele>26.8</ele><time>2026-05-01T09:40:28.001Z</time></trkpt><trkpt lat="45.12834970708242" lon="13.744082275031928"><ele>26.6</ele><time>2026-05-01T09:40:30.001Z</time></trkpt><trkpt lat="45.12827697833375" lon="13.744150433635015"><ele>26.400000000000002</ele><time>2026-05-01T09:40:31.001Z</time></trkpt><trkpt lat="45.12819802912313" lon="13.744226800287983"><ele>26.200000000000003</ele><time>2026-05-01T09:40:32.001Z</time></trkpt><trkpt lat="45.12811179081021" lon="13.744312263251947"><ele>26.0</ele><time>2026-05-01T09:40:33.001Z</time></trkpt><trkpt lat="45.128025863898266" lon="13.744393502504998"><ele>26.0</ele><time>2026-05-01T09:40:34.001Z</time></trkpt><trkpt lat="45.12793392829238" lon="13.744482168885586"><ele>26.0</ele><time>2026-05-01T09:40:35.001Z</time></trkpt><trkpt lat="45.12783180514618" lon="13.744582902314404"><ele>26.0</ele><time>2026-05-01T09:40:36.001Z</time></trkpt><trkpt lat="45.12772696691862" lon="13.744690901610532"><ele>26.0</ele><time>2026-05-01T09:40:37.001Z</time></trkpt><trkpt lat="45.127618586393424" lon="13.744799321073494"><ele>26.0</ele><time>2026-05-01T09:40:38.001Z</time></trkpt><trkpt lat="45.1275062999539" lon="13.74491394425605"><ele>26.0</ele><time>2026-05-01T09:40:39Z</time></trkpt><trkpt lat="45.12740791536525" lon="13.745033485091149"><ele>26.0</ele><time>2026-05-01T09:40:40Z</time></trkpt><trkpt lat="45.127315869898865" lon="13.745171331199549"><ele>26.0</ele><time>2026-05-01T09:40:41Z</time></trkpt><trkpt lat="45.12723695677295" lon="13.745330059786857"><ele>34.75</ele><time>2026-05-01T09:40:42Z</time></trkpt><trkpt lat="45.12716540367548" lon="13.745499014219769"><ele>43.5</ele><time>2026-05-01T09:40:43Z</time></trkpt><trkpt lat="45.127107630470604" lon="13.74567543328933"><ele>52.25</ele><time>2026-05-01T09:40:44Z</time></trkpt><trkpt lat="45.12708188540923" lon="13.74587218000858"><ele>61.0</ele><time>2026-05-01T09:40:45Z</time></trkpt><trkpt lat="45.12707050047727" lon="13.746080497689539"><ele>61.25</ele><time>2026-05-01T09:40:46Z</time></trkpt><trkpt lat="45.127056803874325" lon="13.746281051302176"><ele>61.5</ele><time>2026-05-01T09:40:47Z</time></trkpt><trkpt lat="45.12703278200765" lon="13.746480618839087"><ele>61.75</ele><time>2026-05-01T09:40:48Z</time></trkpt><trkpt lat="45.12700211964231" lon="13.746680825715828"><ele>62.0</ele><time>2026-05-01T09:40:49Z</time></trkpt><trkpt lat="45.12698402765197" lon="13.746881130388338"><ele>63.333333333333336</ele><time>2026-05-01T09:40:50Z</time></trkpt><trkpt lat="45.126990570722924" lon="13.747093702903419"><ele>64.66666666666667</ele><time>2026-05-01T09:40:51Z</time></trkpt><trkpt lat="45.12700615989205" lon="13.74731046892956"><ele>66.0</ele><time>2026-05-01T09:40:52Z</time></trkpt><trkpt lat="45.12703216351869" lon="13.747529052962143"><ele>67.0</ele><time>2026-05-01T09:40:53Z</time></trkpt><trkpt lat="45.12707272298219" lon="13.747732063310098"><ele>68.0</ele><time>2026-05-01T09:40:54Z</time></trkpt><trkpt lat="45.12711913211749" lon="13.747926541969488"><ele>69.0</ele><time>2026-05-01T09:40:55Z</time></trkpt><trkpt lat="45.127157873519764" lon="13.748107481122823"><ele>70.0</ele><time>2026-05-01T09:40:56Z</time></trkpt><trkpt lat="45.127176295337534" lon="13.748297633210347"><ele>70.0</ele><time>2026-05-01T09:40:57Z</time></trkpt><trkpt lat="45.127165475407224" lon="13.748487444835641"><ele>70.0</ele><time>2026-05-01T09:40:58Z</time></trkpt><trkpt lat="45.12712716419157" lon="13.748668003740406"><ele>70.0</ele><time>2026-05-01T09:40:59Z</time></trkpt><trkpt lat="45.12706911617697" lon="13.748835468726183"><ele>70.0</ele><time>2026-05-01T09:41:00Z</time></trkpt><trkpt lat="45.12698761143841" lon="13.748995260358656"><ele>67.0</ele><time>2026-05-01T09:41:01Z</time></trkpt><trkpt lat="45.126892243542336" lon="13.749131295531882"><ele>64.0</ele><time>2026-05-01T09:41:02Z</time></trkpt><trkpt lat="45.12677790857901" lon="13.749243507459397"><ele>61.0</ele><time>2026-05-01T09:41:03Z</time></trkpt><trkpt lat="45.12665373841034" lon="13.749345744591913"><ele>58.0</ele><time>2026-05-01T09:41:04Z</time></trkpt><trkpt lat="45.126525312484915" lon="13.74944217280805"><ele>58.0</ele><time>2026-05-01T09:41:05Z</time></trkpt><trkpt lat="45.12639396164942" lon="13.749536146121498"><ele>58.0</ele><time>2026-05-01T09:41:06Z</time></trkpt><trkpt lat="45.12626554705958" lon="13.749636419171134"><ele>58.0</ele><time>2026-05-01T09:41:07Z</time></trkpt><trkpt lat="45.12613554629724" lon="13.749742675089568"><ele>58.0</ele><time>2026-05-01T09:41:08Z</time></trkpt><trkpt lat="45.12600435120325" lon="13.749845403532527"><ele>58.0</ele><time>2026-05-01T09:41:09Z</time></trkpt><trkpt lat="45.125872413064414" lon="13.74994172109357"><ele>58.0</ele><time>2026-05-01T09:41:10Z</time></trkpt><trkpt lat="45.12574567440857" lon="13.750033054985913"><ele>58.0</ele><time>2026-05-01T09:41:11Z</time></trkpt><trkpt lat="45.12561004475572" lon="13.750130851495737"><ele>58.0</ele><time>2026-05-01T09:41:12Z</time></trkpt><trkpt lat="45.12548244725734" lon="13.750226583251047"><ele>59.5</ele><time>2026-05-01T09:41:13Z</time></trkpt><trkpt lat="45.1253558787741" lon="13.75032515065199"><ele>61.0</ele><time>2026-05-01T09:41:14Z</time></trkpt><trkpt lat="45.125232943364374" lon="13.750441683056364"><ele>62.5</ele><time>2026-05-01T09:41:15Z</time></trkpt><trkpt lat="45.12512078593804" lon="13.75057420016986"><ele>64.0</ele><time>2026-05-01T09:41:16Z</time></trkpt><trkpt lat="45.125021502525534" lon="13.750726597936868"><ele>64.0</ele><time>2026-05-01T09:41:17Z</time></trkpt><trkpt lat="45.12492768182621" lon="13.750885295156595"><ele>64.0</ele><time>2026-05-01T09:41:18Z</time></trkpt><trkpt lat="45.1248401867484" lon="13.751054039483773"><ele>64.0</ele><time>2026-05-01T09:41:19Z</time></trkpt><trkpt lat="45.12476794558415" lon="13.75122932498402"><ele>64.0</ele><time>2026-05-01T09:41:20Z</time></trkpt><trkpt lat="45.124705467364215" lon="13.751418655984997"><ele>67.75</ele><time>2026-05-01T09:41:21Z</time></trkpt><trkpt lat="45.124647482104045" lon="13.751604032084597"><ele>71.5</ele><time>2026-05-01T09:41:22Z</time></trkpt><trkpt lat="45.12459103849753" lon="13.75178765463419"><ele>75.25</ele><time>2026-05-01T09:41:23Z</time></trkpt><trkpt lat="45.12452881561465" lon="13.751960843331922"><ele>79.0</ele><time>2026-05-01T09:41:24Z</time></trkpt><trkpt lat="45.12445714043748" lon="13.752122834602373"><ele>79.0</ele><time>2026-05-01T09:41:25Z</time></trkpt><trkpt lat="45.12438249885945" lon="13.752280158631786"><ele>79.0</ele><time>2026-05-01T09:41:26Z</time></trkpt><trkpt lat="45.1243011715857" lon="13.752430318679796"><ele>79.0</ele><time>2026-05-01T09:41:27Z</time></trkpt><trkpt lat="45.12421064963249" lon="13.752572406883477"><ele>79.0</ele><time>2026-05-01T09:41:28Z</time></trkpt><trkpt lat="45.1241125611863" lon="13.752704287522688"><ele>79.5</ele><time>2026-05-01T09:41:29Z</time></trkpt><trkpt lat="45.12401535710318" lon="13.75283168739231"><ele>80.0</ele><time>2026-05-01T09:41:30Z</time></trkpt><trkpt lat="45.123914219843506" lon="13.75294874200432"><ele>80.5</ele><time>2026-05-01T09:41:31Z</time></trkpt><trkpt lat="45.12380707699217" lon="13.753051866314918"><ele>81.0</ele><time>2026-05-01T09:41:32Z</time></trkpt><trkpt lat="45.12369809562365" lon="13.753144169913009"><ele>81.0</ele><time>2026-05-01T09:41:33Z</time></trkpt><trkpt lat="45.12358715249264" lon="13.75322985159968"><ele>81.0</ele><time>2026-05-01T09:41:34Z</time></trkpt><trkpt lat="45.12347321692916" lon="13.75330873912257"><ele>81.0</ele><time>2026-05-01T09:41:35Z</time></trkpt><trkpt lat="45.12335136272648" lon="13.75337492829242"><ele>81.0</ele><time>2026-05-01T09:41:36Z</time></trkpt><trkpt lat="45.123226561652466" lon="13.753432542789408"><ele>79.75</ele><time>2026-05-01T09:41:37Z</time></trkpt><trkpt lat="45.123101987831134" lon="13.753492639557235"><ele>78.5</ele><time>2026-05-01T09:41:38Z</time></trkpt><trkpt lat="45.12297482040568" lon="13.753551809078784"><ele>77.25</ele><time>2026-05-01T09:41:39Z</time></trkpt><trkpt lat="45.122845185002525" lon="13.75361091142785"><ele>76.0</ele><time>2026-05-01T09:41:40Z</time></trkpt><trkpt lat="45.122716574781016" lon="13.75366872588014"><ele>76.0</ele><time>2026-05-01T09:41:41Z</time></trkpt><trkpt lat="45.122588696883795" lon="13.753730581781523"><ele>76.0</ele><time>2026-05-01T09:41:42Z</time></trkpt><trkpt lat="45.12246043495403" lon="13.753791363682074"><ele>76.0</ele><time>2026-05-01T09:41:43Z</time></trkpt><trkpt lat="45.12232800489815" lon="13.753851804732776"><ele>76.0</ele><time>2026-05-01T09:41:44Z</time></trkpt><trkpt lat="45.122193269142436" lon="13.753907055536931"><ele>81.0</ele><time>2026-05-01T09:41:45Z</time></trkpt><trkpt lat="45.122056564442175" lon="13.753964014487327"><ele>86.0</ele><time>2026-05-01T09:41:46Z</time></trkpt><trkpt lat="45.121920088533265" lon="13.754035823496412"><ele>91.0</ele><time>2026-05-01T09:41:47Z</time></trkpt><trkpt lat="45.121786567811796" lon="13.754127511052031"><ele>96.0</ele><time>2026-05-01T09:41:48Z</time></trkpt><trkpt lat="45.12166195644452" lon="13.754231480970475"><ele>97.0</ele><time>2026-05-01T09:41:49Z</time></trkpt><trkpt lat="45.121533794139026" lon="13.754340587489793"><ele>98.0</ele><time>2026-05-01T09:41:50Z</time></trkpt><trkpt lat="45.1214058954322" lon="13.754442883162309"><ele>99.0</ele><time>2026-05-01T09:41:51Z</time></trkpt><trkpt lat="45.121271704776895" lon="13.754541625903027"><ele>100.0</ele><time>2026-05-01T09:41:52.001Z</time></trkpt><trkpt lat="45.12114106480776" lon="13.754642566986332"><ele>100.0</ele><time>2026-05-01T09:41:53.001Z</time></trkpt><trkpt lat="45.121008265178936" lon="13.754744795682056"><ele>100.0</ele><time>2026-05-01T09:41:54.001Z</time></trkpt><trkpt lat="45.12087829959747" lon="13.754853449470534"><ele>100.0</ele><time>2026-05-01T09:41:55.001Z</time></trkpt><trkpt lat="45.12075152515595" lon="13.7549747581318"><ele>104.25</ele><time>2026-05-01T09:41:56.001Z</time></trkpt><trkpt lat="45.12064024076692" lon="13.755106086875516"><ele>108.5</ele><time>2026-05-01T09:41:57.001Z</time></trkpt><trkpt lat="45.12052873642427" lon="13.755252375941168"><ele>112.75</ele><time>2026-05-01T09:41:58.001Z</time></trkpt><trkpt lat="45.12042498534821" lon="13.755404291586014"><ele>117.0</ele><time>2026-05-01T09:41:59.001Z</time></trkpt><trkpt lat="45.12032491968654" lon="13.755569608458275"><ele>117.0</ele><time>2026-05-01T09:42:00.001Z</time></trkpt><trkpt lat="45.120233047793" lon="13.755739886234487"><ele>117.0</ele><time>2026-05-01T09:42:01.001Z</time></trkpt><trkpt lat="45.12014737617236" lon="13.755915080873297"><ele>117.0</ele><time>2026-05-01T09:42:02.001Z</time></trkpt><trkpt lat="45.12006615705698" lon="13.756092339822562"><ele>115.0</ele><time>2026-05-01T09:42:03.001Z</time></trkpt><trkpt lat="45.11998758317674" lon="13.756264173336355"><ele>113.0</ele><time>2026-05-01T09:42:04.001Z</time></trkpt><trkpt lat="45.119908803016294" lon="13.756439407672309"><ele>111.0</ele><time>2026-05-01T09:42:05.001Z</time></trkpt><trkpt lat="45.119847813773426" lon="13.756618196858808"><ele>109.0</ele><time>2026-05-01T09:42:06.001Z</time></trkpt><trkpt lat="45.11980044327419" lon="13.756807514253104"><ele>118.0</ele><time>2026-05-01T09:42:07.001Z</time></trkpt><trkpt lat="45.11976881221581" lon="13.757004904331827"><ele>127.0</ele><time>2026-05-01T09:42:08.001Z</time></trkpt><trkpt lat="45.119738644046116" lon="13.757208199589602"><ele>136.0</ele><time>2026-05-01T09:42:09.001Z</time></trkpt><trkpt lat="45.11971034283908" lon="13.757404706097867"><ele>145.0</ele><time>2026-05-01T09:42:10.001Z</time></trkpt><trkpt lat="45.119696080205344" lon="13.757604261657287"><ele>146.5</ele><time>2026-05-01T09:42:11.001Z</time></trkpt><trkpt lat="45.11970036422515" lon="13.757806138712656"><ele>148.0</ele><time>2026-05-01T09:42:12.001Z</time></trkpt><trkpt lat="45.11972252685566" lon="13.758006218214884"><ele>149.5</ele><time>2026-05-01T09:42:13.001Z</time></trkpt><trkpt lat="45.11975127661848" lon="13.758203259904775"><ele>151.0</ele><time>2026-05-01T09:42:14.001Z</time></trkpt><trkpt lat="45.119771584209765" lon="13.75840273968977"><ele>150.75</ele><time>2026-05-01T09:42:15.001Z</time></trkpt><trkpt lat="45.11978737189435" lon="13.758599287274176"><ele>150.5</ele><time>2026-05-01T09:42:16.001Z</time></trkpt><trkpt lat="45.11979602371904" lon="13.758792807889087"><ele>150.25</ele><time>2026-05-01T09:42:17.001Z</time></trkpt><trkpt lat="45.11979224842104" lon="13.758981517111994"><ele>150.0</ele><time>2026-05-01T09:42:18.001Z</time></trkpt><trkpt lat="45.11977079727117" lon="13.759163970809723"><ele>150.0</ele><time>2026-05-01T09:42:19.001Z</time></trkpt><trkpt lat="45.119721196360864" lon="13.759336180998444"><ele>150.0</ele><time>2026-05-01T09:42:20.001Z</time></trkpt><trkpt lat="45.119628879762836" lon="13.759490841791019"><ele>150.0</ele><time>2026-05-01T09:42:21.001Z</time></trkpt><trkpt lat="45.11953924296896" lon="13.759640161615787"><ele>150.0</ele><time>2026-05-01T09:42:22.001Z</time></trkpt><trkpt lat="45.119440478269816" lon="13.759788580155734"><ele>145.33333333333334</ele><time>2026-05-01T09:42:23.001Z</time></trkpt><trkpt lat="45.11933547013908" lon="13.759939057598176"><ele>140.66666666666669</ele><time>2026-05-01T09:42:24.001Z</time></trkpt><trkpt lat="45.11922442161684" lon="13.760086622743632"><ele>136.0</ele><time>2026-05-01T09:42:25.001Z</time></trkpt><trkpt lat="45.119116908107735" lon="13.760237729700584"><ele>142.0</ele><time>2026-05-01T09:42:26.001Z</time></trkpt><trkpt lat="45.11900692197459" lon="13.760398774315345"><ele>148.0</ele><time>2026-05-01T09:42:27.001Z</time></trkpt><trkpt lat="45.11890117333445" lon="13.760567237142556"><ele>154.0</ele><time>2026-05-01T09:42:28.001Z</time></trkpt><trkpt lat="45.118802580291536" lon="13.760747663473751"><ele>154.0</ele><time>2026-05-01T09:42:29.001Z</time></trkpt><trkpt lat="45.118719968098716" lon="13.760938208480336"><ele>154.0</ele><time>2026-05-01T09:42:30.001Z</time></trkpt><trkpt lat="45.11863930108331" lon="13.761130941527888"><ele>154.0</ele><time>2026-05-01T09:42:31.001Z</time></trkpt><trkpt lat="45.11856858923874" lon="13.761323758259175"><ele>152.0</ele><time>2026-05-01T09:42:32.001Z</time></trkpt><trkpt lat="45.11850902318277" lon="13.761520750511474"><ele>150.0</ele><time>2026-05-01T09:42:33.001Z</time></trkpt><trkpt lat="45.11845842181751" lon="13.761725039649162"><ele>148.0</ele><time>2026-05-01T09:42:34.001Z</time></trkpt><trkpt lat="45.11841107573455" lon="13.761932897444872"><ele>145.66666666666669</ele><time>2026-05-01T09:42:35.001Z</time></trkpt><trkpt lat="45.118365300792796" lon="13.762141620676706"><ele>143.33333333333334</ele><time>2026-05-01T09:42:36.001Z</time></trkpt><trkpt lat="45.118317337711865" lon="13.762351485205862"><ele>141.0</ele><time>2026-05-01T09:42:37.001Z</time></trkpt><trkpt lat="45.1182686335347" lon="13.762562010393314"><ele>144.0</ele><time>2026-05-01T09:42:38.001Z</time></trkpt><trkpt lat="45.11821688154188" lon="13.762770963272992"><ele>147.0</ele><time>2026-05-01T09:42:39.001Z</time></trkpt><trkpt lat="45.11816618914196" lon="13.762983221388444"><ele>150.0</ele><time>2026-05-01T09:42:40.001Z</time></trkpt><trkpt lat="45.118118464653655" lon="13.763196665338302"><ele>150.0</ele><time>2026-05-01T09:42:41.001Z</time></trkpt><trkpt lat="45.11807345369846" lon="13.763403034856523"><ele>150.0</ele><time>2026-05-01T09:42:42Z</time></trkpt><trkpt lat="45.118026953853224" lon="13.763607575963297"><ele>150.0</ele><time>2026-05-01T09:42:43Z</time></trkpt><trkpt lat="45.11797908933617" lon="13.763793459949168"><ele>150.0</ele><time>2026-05-01T09:42:44Z</time></trkpt><trkpt lat="45.11792636657528" lon="13.763964836502502"><ele>150.0</ele><time>2026-05-01T09:42:45Z</time></trkpt><trkpt lat="45.117871987757546" lon="13.764132920455307"><ele>150.0</ele><time>2026-05-01T09:42:46Z</time></trkpt><trkpt lat="45.11781826846449" lon="13.76430076073916"><ele>150.0</ele><time>2026-05-01T09:42:47Z</time></trkpt><trkpt lat="45.117762422423546" lon="13.764467365290221"><ele>150.0</ele><time>2026-05-01T09:42:48Z</time></trkpt><trkpt lat="45.117701518270025" lon="13.76463568539825"><ele>151.25</ele><time>2026-05-01T09:42:49Z</time></trkpt><trkpt lat="45.11763993053173" lon="13.764809302885883"><ele>152.5</ele><time>2026-05-01T09:42:50Z</time></trkpt><trkpt lat="45.11758000030994" lon="13.764984817666662"><ele>153.75</ele><time>2026-05-01T09:42:51Z</time></trkpt><trkpt lat="45.11752101743353" lon="13.765164442555502"><ele>155.0</ele><time>2026-05-01T09:42:52Z</time></trkpt><trkpt lat="45.117461255214636" lon="13.765346598790378"><ele>157.5</ele><time>2026-05-01T09:42:53Z</time></trkpt><trkpt lat="45.11739997694172" lon="13.765530159985442"><ele>160.0</ele><time>2026-05-01T09:42:54Z</time></trkpt><trkpt lat="45.11733510660541" lon="13.765712536174673"><ele>162.5</ele><time>2026-05-01T09:42:55Z</time></trkpt><trkpt lat="45.117267496642995" lon="13.765892695858392"><ele>165.0</ele><time>2026-05-01T09:42:56Z</time></trkpt><trkpt lat="45.11718729646047" lon="13.766069093177036"><ele>166.33333333333334</ele><time>2026-05-01T09:42:57Z</time></trkpt><trkpt lat="45.11709382688906" lon="13.76623287819471"><ele>167.66666666666669</ele><time>2026-05-01T09:42:58Z</time></trkpt><trkpt lat="45.116989175997425" lon="13.766385174517428"><ele>169.0</ele><time>2026-05-01T09:42:59Z</time></trkpt><trkpt lat="45.11687349922269" lon="13.766529315133809"><ele>169.0</ele><time>2026-05-01T09:43:00Z</time></trkpt><trkpt lat="45.11675313372316" lon="13.766655114818589"><ele>169.0</ele><time>2026-05-01T09:43:01Z</time></trkpt><trkpt lat="45.11661807991371" lon="13.766761883125392"><ele>169.0</ele><time>2026-05-01T09:43:02Z</time></trkpt><trkpt lat="45.11648763834216" lon="13.766851570517902"><ele>169.0</ele><time>2026-05-01T09:43:03Z</time></trkpt><trkpt lat="45.11633871518868" lon="13.766938907681581"><ele>170.33333333333334</ele><time>2026-05-01T09:43:04Z</time></trkpt><trkpt lat="45.11618977874" lon="13.767003496271467"><ele>171.66666666666666</ele><time>2026-05-01T09:43:05Z</time></trkpt><trkpt lat="45.116034390921264" lon="13.767049707270328"><ele>173.0</ele><time>2026-05-01T09:43:06Z</time></trkpt><trkpt lat="45.11587618592834" lon="13.76707864266883"><ele>172.66666666666666</ele><time>2026-05-01T09:43:07Z</time></trkpt><trkpt lat="45.11571473881249" lon="13.767100069847464"><ele>172.33333333333334</ele><time>2026-05-01T09:43:08Z</time></trkpt><trkpt lat="45.115550197554576" lon="13.767120558007393"><ele>172.0</ele><time>2026-05-01T09:43:09Z</time></trkpt><trkpt lat="45.115395733277694" lon="13.767142617081035"><ele>172.0</ele><time>2026-05-01T09:43:10Z</time></trkpt><trkpt lat="45.115237382264944" lon="13.76716566408063"><ele>172.0</ele><time>2026-05-01T09:43:11Z</time></trkpt><trkpt lat="45.115084928568464" lon="13.767179669005241"><ele>172.0</ele><time>2026-05-01T09:43:12Z</time></trkpt><trkpt lat="45.11494399959313" lon="13.767193121075628"><ele>171.0</ele><time>2026-05-01T09:43:13Z</time></trkpt><trkpt lat="45.11480987476064" lon="13.767207558583591"><ele>170.0</ele><time>2026-05-01T09:43:14Z</time></trkpt><trkpt lat="45.114678685852176" lon="13.767223805893904"><ele>169.0</ele><time>2026-05-01T09:43:15Z</time></trkpt><trkpt lat="45.114550212483564" lon="13.767241836870092"><ele>168.0</ele><time>2026-05-01T09:43:16Z</time></trkpt><trkpt lat="45.114430420452805" lon="13.767256390758641"><ele>168.0</ele><time>2026-05-01T09:43:17Z</time></trkpt><trkpt lat="45.114314286768845" lon="13.767270736905113"><ele>168.0</ele><time>2026-05-01T09:43:18Z</time></trkpt><trkpt lat="45.114206005167304" lon="13.767283276323957"><ele>168.0</ele><time>2026-05-01T09:43:19Z</time></trkpt><trkpt lat="45.114111559538884" lon="13.7672947807384"><ele>168.0</ele><time>2026-05-01T09:43:20Z</time></trkpt><trkpt lat="45.114031667608224" lon="13.767302671674884"><ele>168.0</ele><time>2026-05-01T09:43:21Z</time></trkpt><trkpt lat="45.113959571259194" lon="13.767308072947662"><ele>168.16666666666666</ele><time>2026-05-01T09:43:22Z</time></trkpt><trkpt lat="45.11385787178547" lon="13.76729084303421"><ele>168.33333333333334</ele><time>2026-05-01T09:43:24Z</time></trkpt><trkpt lat="45.113792212423334" lon="13.767299266899702"><ele>168.5</ele><time>2026-05-01T09:43:27Z</time></trkpt><trkpt lat="45.113710664852256" lon="13.767351915591979"><ele>168.66666666666669</ele><time>2026-05-01T09:45:23Z</time></trkpt><trkpt lat="45.11359490594538" lon="13.767368086650984"><ele>168.83333333333334</ele><time>2026-05-01T09:45:25Z</time></trkpt><trkpt lat="45.11352641439952" lon="13.767371677811932"><ele>169.0</ele><time>2026-05-01T09:45:26Z</time></trkpt><trkpt lat="45.1134466523844" lon="13.767378864143614"><ele>169.0</ele><time>2026-05-01T09:45:27Z</time></trkpt><trkpt lat="45.11335654555878" lon="13.767390736670942"><ele>169.0</ele><time>2026-05-01T09:45:28Z</time></trkpt><trkpt lat="45.113267914267624" lon="13.767404917779317"><ele>169.0</ele><time>2026-05-01T09:45:29Z</time></trkpt><trkpt lat="45.113174972175116" lon="13.767408964028048"><ele>169.0</ele><time>2026-05-01T09:45:30Z</time></trkpt><trkpt lat="45.11307426024683" lon="13.767421636880268"><ele>169.0</ele><time>2026-05-01T09:45:31Z</time></trkpt><trkpt lat="45.11296868602844" lon="13.767436575690162"><ele>169.75</ele><time>2026-05-01T09:45:32Z</time></trkpt><trkpt lat="45.11285921148905" lon="13.767449776782472"><ele>170.5</ele><time>2026-05-01T09:45:33Z</time></trkpt><trkpt lat="45.11274466360568" lon="13.767461887067421"><ele>171.25</ele><time>2026-05-01T09:45:34Z</time></trkpt><trkpt lat="45.11262871282153" lon="13.767475963334778"><ele>172.0</ele><time>2026-05-01T09:45:35Z</time></trkpt><trkpt lat="45.11250694231118" lon="13.767491688166528"><ele>172.75</ele><time>2026-05-01T09:45:36Z</time></trkpt><trkpt lat="45.11238408600857" lon="13.767506403711188"><ele>173.5</ele><time>2026-05-01T09:45:37Z</time></trkpt><trkpt lat="45.11226428633032" lon="13.767521958812848"><ele>174.25</ele><time>2026-05-01T09:45:38Z</time></trkpt><trkpt lat="45.112144632479335" lon="13.767539356216053"><ele>175.0</ele><time>2026-05-01T09:45:39Z</time></trkpt><trkpt lat="45.11202038179004" lon="13.767556850086093"><ele>175.0</ele><time>2026-05-01T09:45:40Z</time></trkpt><trkpt lat="45.11189648162704" lon="13.767573979883744"><ele>175.0</ele><time>2026-05-01T09:45:41Z</time></trkpt><trkpt lat="45.11177310323211" lon="13.767591672348933"><ele>175.0</ele><time>2026-05-01T09:45:42Z</time></trkpt><trkpt lat="45.11165082488009" lon="13.767606451304092"><ele>175.0</ele><time>2026-05-01T09:45:43Z</time></trkpt><trkpt lat="45.11152718440289" lon="13.767620626235399"><ele>175.0</ele><time>2026-05-01T09:45:44Z</time></trkpt><trkpt lat="45.11140186630858" lon="13.767635084056723"><ele>175.0</ele><time>2026-05-01T09:45:45Z</time></trkpt><trkpt lat="45.11127597122033" lon="13.76764966639528"><ele>175.0</ele><time>2026-05-01T09:45:46Z</time></trkpt><trkpt lat="45.111148803478045" lon="13.767665993339685"><ele>175.0</ele><time>2026-05-01T09:45:47Z</time></trkpt><trkpt lat="45.11102093861202" lon="13.767679772312373"><ele>175.75</ele><time>2026-05-01T09:45:48Z</time></trkpt><trkpt lat="45.110890387304494" lon="13.76769621553035"><ele>176.5</ele><time>2026-05-01T09:45:49Z</time></trkpt><trkpt lat="45.110759102171826" lon="13.767710880628323"><ele>177.25</ele><time>2026-05-01T09:45:50Z</time></trkpt><trkpt lat="45.11062626384255" lon="13.767725825999635"><ele>178.0</ele><time>2026-05-01T09:45:51Z</time></trkpt><trkpt lat="45.110493922512035" lon="13.767742271016106"><ele>178.0</ele><time>2026-05-01T09:45:52Z</time></trkpt><trkpt lat="45.11036363226958" lon="13.767761110382066"><ele>178.0</ele><time>2026-05-01T09:45:53Z</time></trkpt><trkpt lat="45.110243205325965" lon="13.767771865463121"><ele>178.0</ele><time>2026-05-01T09:45:54Z</time></trkpt><trkpt lat="45.110132421087705" lon="13.767783946729647"><ele>178.0</ele><time>2026-05-01T09:45:55Z</time></trkpt><trkpt lat="45.11002995246638" lon="13.767794293251342"><ele>178.0</ele><time>2026-05-01T09:45:56Z</time></trkpt><trkpt lat="45.109928098932485" lon="13.767806585516352"><ele>178.0</ele><time>2026-05-01T09:45:57Z</time></trkpt><trkpt lat="45.10982941724945" lon="13.767816074415313"><ele>178.0</ele><time>2026-05-01T09:45:58Z</time></trkpt><trkpt lat="45.109739132410226" lon="13.767826242431623"><ele>178.0</ele><time>2026-05-01T09:45:59Z</time></trkpt><trkpt lat="45.109651653498155" lon="13.767827487777698"><ele>178.0</ele><time>2026-05-01T09:46:00Z</time></trkpt><trkpt lat="45.109573715920384" lon="13.767802135129493"><ele>178.0</ele><time>2026-05-01T09:46:01Z</time></trkpt><trkpt lat="45.10950928517998" lon="13.767752579334083"><ele>178.0</ele><time>2026-05-01T09:46:02.001Z</time></trkpt><trkpt lat="45.109467057534985" lon="13.767666023407502"><ele>178.0</ele><time>2026-05-01T09:46:03.001Z</time></trkpt><trkpt lat="45.10944758810392" lon="13.767543705044602"><ele>178.0</ele><time>2026-05-01T09:46:04.001Z</time></trkpt><trkpt lat="45.10945800140774" lon="13.76740439466834"><ele>178.0</ele><time>2026-05-01T09:46:05.001Z</time></trkpt><trkpt lat="45.109491246761024" lon="13.767264001691494"><ele>178.0</ele><time>2026-05-01T09:46:06.001Z</time></trkpt><trkpt lat="45.10950934080768" lon="13.767121196524954"><ele>177.5</ele><time>2026-05-01T09:46:07.001Z</time></trkpt><trkpt lat="45.10954245947567" lon="13.766993233722577"><ele>177.0</ele><time>2026-05-01T09:46:08.001Z</time></trkpt><trkpt lat="45.109564515740516" lon="13.766873625639281"><ele>176.5</ele><time>2026-05-01T09:46:09.001Z</time></trkpt><trkpt lat="45.10957524735339" lon="13.766752908856622"><ele>176.0</ele><time>2026-05-01T09:46:10.001Z</time></trkpt><trkpt lat="45.10957204809337" lon="13.76663416781078"><ele>175.5</ele><time>2026-05-01T09:46:11.001Z</time></trkpt><trkpt lat="45.10955221898459" lon="13.766505201537809"><ele>175.0</ele><time>2026-05-01T09:46:12.001Z</time></trkpt><trkpt lat="45.10950941835235" lon="13.766377201152016"><ele>174.25</ele><time>2026-05-01T09:46:13.001Z</time></trkpt><trkpt lat="45.10944376880809" lon="13.766257434862853"><ele>173.5</ele><time>2026-05-01T09:46:14.001Z</time></trkpt><trkpt lat="45.10935272715579" lon="13.766152298677081"><ele>172.75</ele><time>2026-05-01T09:46:15.001Z</time></trkpt><trkpt lat="45.10925152914402" lon="13.766073519766383"><ele>172.0</ele><time>2026-05-01T09:46:16.001Z</time></trkpt><trkpt lat="45.1091349085426" lon="13.766027817508181"><ele>172.0</ele><time>2026-05-01T09:46:17.001Z</time></trkpt><trkpt lat="45.10900802649209" lon="13.76602094862413"><ele>172.0</ele><time>2026-05-01T09:46:18.001Z</time></trkpt><trkpt lat="45.10888170504629" lon="13.766030658369827"><ele>172.0</ele><time>2026-05-01T09:46:19.001Z</time></trkpt><trkpt lat="45.108765274283826" lon="13.766035731810573"><ele>172.0</ele><time>2026-05-01T09:46:20.001Z</time></trkpt><trkpt lat="45.108657195247396" lon="13.76602966421956"><ele>171.6</ele><time>2026-05-01T09:46:21.001Z</time></trkpt><trkpt lat="45.10856483431082" lon="13.76601157093425"><ele>171.2</ele><time>2026-05-01T09:46:22.001Z</time></trkpt><trkpt lat="45.108483009713815" lon="13.76598204686084"><ele>170.8</ele><time>2026-05-01T09:46:23.001Z</time></trkpt><trkpt lat="45.10841743801455" lon="13.765941557796996"><ele>170.4</ele><time>2026-05-01T09:46:24.001Z</time></trkpt><trkpt lat="45.108356049042435" lon="13.765801259046086"><ele>170.0</ele><time>2026-05-01T09:46:26.001Z</time></trkpt><trkpt lat="45.10833425580724" lon="13.765677795353508"><ele>170.0</ele><time>2026-05-01T09:46:27.001Z</time></trkpt><trkpt lat="45.10832707562355" lon="13.765527237110119"><ele>170.0</ele><time>2026-05-01T09:46:28.001Z</time></trkpt><trkpt lat="45.10833343149307" lon="13.765382617649655"><ele>170.0</ele><time>2026-05-01T09:46:29.001Z</time></trkpt><trkpt lat="45.10834770355805" lon="13.765218345339607"><ele>170.0</ele><time>2026-05-01T09:46:30.001Z</time></trkpt><trkpt lat="45.1083460016897" lon="13.765053309674634"><ele>170.0</ele><time>2026-05-01T09:46:31.001Z</time></trkpt><trkpt lat="45.10834423816805" lon="13.764875341751374"><ele>170.0</ele><time>2026-05-01T09:46:32.001Z</time></trkpt><trkpt lat="45.10834434198008" lon="13.764707412869255"><ele>170.0</ele><time>2026-05-01T09:46:33.001Z</time></trkpt><trkpt lat="45.10834255937668" lon="13.764536736660181"><ele>170.0</ele><time>2026-05-01T09:46:34.001Z</time></trkpt><trkpt lat="45.10834481659173" lon="13.76434371465668"><ele>170.0</ele><time>2026-05-01T09:46:35.001Z</time></trkpt><trkpt lat="45.108344487771944" lon="13.764154672392227"><ele>169.5</ele><time>2026-05-01T09:46:36.001Z</time></trkpt><trkpt lat="45.10834274462754" lon="13.763954629435746"><ele>169.0</ele><time>2026-05-01T09:46:37.001Z</time></trkpt><trkpt lat="45.10834072922567" lon="13.763750355715878"><ele>168.5</ele><time>2026-05-01T09:46:38.001Z</time></trkpt><trkpt lat="45.108340576164736" lon="13.763538095479282"><ele>168.0</ele><time>2026-05-01T09:46:39.001Z</time></trkpt><trkpt lat="45.10834421594732" lon="13.763322139966961"><ele>167.0</ele><time>2026-05-01T09:46:40.001Z</time></trkpt><trkpt lat="45.10834206914511" lon="13.763106808973623"><ele>166.0</ele><time>2026-05-01T09:46:41.001Z</time></trkpt><trkpt lat="45.10834228647575" lon="13.762885834072167"><ele>165.0</ele><time>2026-05-01T09:46:42.001Z</time></trkpt><trkpt lat="45.10834266840226" lon="13.76266060577582"><ele>163.33333333333334</ele><time>2026-05-01T09:46:43.001Z</time></trkpt><trkpt lat="45.1083406386655" lon="13.762431766285339"><ele>161.66666666666669</ele><time>2026-05-01T09:46:44Z</time></trkpt><trkpt lat="45.10834081847701" lon="13.762202753283908"><ele>160.0</ele><time>2026-05-01T09:46:45Z</time></trkpt><trkpt lat="45.10834367773578" lon="13.761975228508234"><ele>160.0</ele><time>2026-05-01T09:46:46Z</time></trkpt><trkpt lat="45.10834763734888" lon="13.761746523938173"><ele>160.0</ele><time>2026-05-01T09:46:47Z</time></trkpt><trkpt lat="45.108353160825615" lon="13.761524118533961"><ele>160.0</ele><time>2026-05-01T09:46:48Z</time></trkpt><trkpt lat="45.108351264881705" lon="13.761300012426164"><ele>160.0</ele><time>2026-05-01T09:46:49Z</time></trkpt><trkpt lat="45.108349219990075" lon="13.76106605800613"><ele>160.0</ele><time>2026-05-01T09:46:50Z</time></trkpt><trkpt lat="45.10834839789424" lon="13.76083115715346"><ele>160.0</ele><time>2026-05-01T09:46:51Z</time></trkpt><trkpt lat="45.10834463255639" lon="13.760594098682013"><ele>160.66666666666669</ele><time>2026-05-01T09:46:52Z</time></trkpt><trkpt lat="45.1083360689244" lon="13.760354594227483"><ele>161.33333333333334</ele><time>2026-05-01T09:46:53Z</time></trkpt><trkpt lat="45.108318098753" lon="13.760114487760823"><ele>162.0</ele><time>2026-05-01T09:46:54Z</time></trkpt><trkpt lat="45.1082927798174" lon="13.75987608228756"><ele>162.66666666666666</ele><time>2026-05-01T09:46:55Z</time></trkpt><trkpt lat="45.10826279984948" lon="13.759639414909376"><ele>163.33333333333331</ele><time>2026-05-01T09:46:56Z</time></trkpt><trkpt lat="45.1082257305094" lon="13.75940510972447"><ele>164.0</ele><time>2026-05-01T09:46:57Z</time></trkpt><trkpt lat="45.10818170286171" lon="13.75917153156455"><ele>161.66666666666666</ele><time>2026-05-01T09:46:58Z</time></trkpt><trkpt lat="45.108133812967004" lon="13.758944935269781"><ele>159.33333333333334</ele><time>2026-05-01T09:46:59Z</time></trkpt><trkpt lat="45.108080137629194" lon="13.758717434819275"><ele>157.0</ele><time>2026-05-01T09:47:00Z</time></trkpt><trkpt lat="45.10802478515057" lon="13.758494405520441"><ele>157.0</ele><time>2026-05-01T09:47:01Z</time></trkpt><trkpt lat="45.10796286593351" lon="13.758275250006854"><ele>157.0</ele><time>2026-05-01T09:47:02Z</time></trkpt><trkpt lat="45.107896963508615" lon="13.758058633745842"><ele>157.0</ele><time>2026-05-01T09:47:03Z</time></trkpt><trkpt lat="45.10782976411085" lon="13.757844402911774"><ele>158.66666666666669</ele><time>2026-05-01T09:47:04Z</time></trkpt><trkpt lat="45.10776538218461" lon="13.757637257304072"><ele>160.33333333333334</ele><time>2026-05-01T09:47:05Z</time></trkpt><trkpt lat="45.107700779754566" lon="13.757428523906684"><ele>162.0</ele><time>2026-05-01T09:47:06Z</time></trkpt><trkpt lat="45.10764048159739" lon="13.757219735476848"><ele>162.0</ele><time>2026-05-01T09:47:07Z</time></trkpt><trkpt lat="45.10757957216128" lon="13.757012489122904"><ele>162.0</ele><time>2026-05-01T09:47:08Z</time></trkpt><trkpt lat="45.10751642644287" lon="13.756811335987738"><ele>162.0</ele><time>2026-05-01T09:47:09Z</time></trkpt><trkpt lat="45.10745224262033" lon="13.756610920731914"><ele>162.66666666666666</ele><time>2026-05-01T09:47:10Z</time></trkpt><trkpt lat="45.107390383114485" lon="13.756414107171043"><ele>163.33333333333331</ele><time>2026-05-01T09:47:11Z</time></trkpt><trkpt lat="45.107331051355644" lon="13.756214571186435"><ele>164.0</ele><time>2026-05-01T09:47:12Z</time></trkpt><trkpt lat="45.10726473527182" lon="13.756010362928258"><ele>166.0</ele><time>2026-05-01T09:47:13Z</time></trkpt><trkpt lat="45.10719992604564" lon="13.755809873645118"><ele>168.0</ele><time>2026-05-01T09:47:14Z</time></trkpt><trkpt lat="45.10713174751313" lon="13.755603641918489"><ele>170.0</ele><time>2026-05-01T09:47:15Z</time></trkpt><trkpt lat="45.107062266415824" lon="13.75540065549677"><ele>170.33333333333331</ele><time>2026-05-01T09:47:16Z</time></trkpt><trkpt lat="45.10699423400175" lon="13.75519150287067"><ele>170.66666666666666</ele><time>2026-05-01T09:47:17Z</time></trkpt><trkpt lat="45.106930294195934" lon="13.754978730861701"><ele>171.0</ele><time>2026-05-01T09:47:18Z</time></trkpt><trkpt lat="45.10686791275878" lon="13.754763014932387"><ele>171.0</ele><time>2026-05-01T09:47:19Z</time></trkpt><trkpt lat="45.10680949715371" lon="13.754542154647158"><ele>171.0</ele><time>2026-05-01T09:47:20Z</time></trkpt><trkpt lat="45.10675498557815" lon="13.754320361519294"><ele>171.0</ele><time>2026-05-01T09:47:21Z</time></trkpt><trkpt lat="45.106707018691104" lon="13.754090057160246"><ele>172.33333333333334</ele><time>2026-05-01T09:47:22Z</time></trkpt><trkpt lat="45.10667045063075" lon="13.753858368970969"><ele>173.66666666666669</ele><time>2026-05-01T09:47:23Z</time></trkpt><trkpt lat="45.10664554793802" lon="13.753619439788624"><ele>175.0</ele><time>2026-05-01T09:47:24Z</time></trkpt><trkpt lat="45.10662766656961" lon="13.753383168388716"><ele>176.0</ele><time>2026-05-01T09:47:25Z</time></trkpt><trkpt lat="45.10661871419377" lon="13.75313321895934"><ele>177.0</ele><time>2026-05-01T09:47:26Z</time></trkpt><trkpt lat="45.10660546828094" lon="13.752891709823917"><ele>178.0</ele><time>2026-05-01T09:47:27Z</time></trkpt><trkpt lat="45.10659079905893" lon="13.752649253612255"><ele>176.66666666666669</ele><time>2026-05-01T09:47:28Z</time></trkpt><trkpt lat="45.10657637555942" lon="13.752399053075068"><ele>175.33333333333334</ele><time>2026-05-01T09:47:29Z</time></trkpt><trkpt lat="45.10656561423431" lon="13.752150940466013"><ele>174.0</ele><time>2026-05-01T09:47:30Z</time></trkpt><trkpt lat="45.10655325807421" lon="13.751919535622676"><ele>174.0</ele><time>2026-05-01T09:47:31Z</time></trkpt><trkpt lat="45.10654108076593" lon="13.75169715071492"><ele>174.0</ele><time>2026-05-01T09:47:32Z</time></trkpt><trkpt lat="45.106531163787125" lon="13.751482397450985"><ele>174.0</ele><time>2026-05-01T09:47:33Z</time></trkpt><trkpt lat="45.10651867538282" lon="13.751274893568127"><ele>174.0</ele><time>2026-05-01T09:47:34Z</time></trkpt><trkpt lat="45.10650617371253" lon="13.751071333663207"><ele>174.0</ele><time>2026-05-01T09:47:35Z</time></trkpt><trkpt lat="45.1064893740593" lon="13.750876368723985"><ele>174.0</ele><time>2026-05-01T09:47:36Z</time></trkpt><trkpt lat="45.10647058790087" lon="13.750699157413807"><ele>174.0</ele><time>2026-05-01T09:47:37Z</time></trkpt><trkpt lat="45.10646303019498" lon="13.75053964644937"><ele>174.6</ele><time>2026-05-01T09:47:38Z</time></trkpt><trkpt lat="45.106466887467725" lon="13.750396686566539"><ele>175.2</ele><time>2026-05-01T09:47:39Z</time></trkpt><trkpt lat="45.10647251845281" lon="13.7502679942281"><ele>175.79999999999998</ele><time>2026-05-01T09:47:40Z</time></trkpt><trkpt lat="45.10646963113291" lon="13.750163729607499"><ele>176.39999999999998</ele><time>2026-05-01T09:47:41Z</time></trkpt><trkpt lat="45.10638178461407" lon="13.750043228336326"><ele>177.0</ele><time>2026-05-01T09:47:43Z</time></trkpt><trkpt lat="45.106285678888355" lon="13.750005992745994"><ele>177.0</ele><time>2026-05-01T09:47:45Z</time></trkpt><trkpt lat="45.10622981795025" lon="13.749886074416203"><ele>177.0</ele><time>2026-05-01T09:47:47Z</time></trkpt><trkpt lat="45.1061945405212" lon="13.74972633840436"><ele>177.0</ele><time>2026-05-01T09:47:49Z</time></trkpt><trkpt lat="45.106181503819606" lon="13.749620699124828"><ele>177.0</ele><time>2026-05-01T09:47:50Z</time></trkpt><trkpt lat="45.10616600879283" lon="13.749509520751358"><ele>177.0</ele><time>2026-05-01T09:47:51Z</time></trkpt><trkpt lat="45.10615465024122" lon="13.749412163666115"><ele>177.0</ele><time>2026-05-01T09:47:52Z</time></trkpt><trkpt lat="45.106129507464715" lon="13.749242450371218"><ele>176.0</ele><time>2026-05-01T09:47:54Z</time></trkpt><trkpt lat="45.10611680579753" lon="13.749087124351034"><ele>175.0</ele><time>2026-05-01T09:47:56Z</time></trkpt><trkpt lat="45.10609922765771" lon="13.748945848223324"><ele>174.0</ele><time>2026-05-01T09:47:58Z</time></trkpt><trkpt lat="45.10609019993718" lon="13.748811144845883"><ele>173.0</ele><time>2026-05-01T09:48:00Z</time></trkpt><trkpt lat="45.10607015419126" lon="13.748678967580158"><ele>172.0</ele><time>2026-05-01T09:48:02Z</time></trkpt><trkpt lat="45.10602238496351" lon="13.748533636204122"><ele>172.0</ele><time>2026-05-01T09:48:04Z</time></trkpt><trkpt lat="45.105959036966176" lon="13.748420233736367"><ele>172.0</ele><time>2026-05-01T09:48:06Z</time></trkpt><trkpt lat="45.10589465438546" lon="13.748404052206556"><ele>172.0</ele><time>2026-05-01T09:48:08.001Z</time></trkpt><trkpt lat="45.105961217155226" lon="13.748411072600843"><ele>172.0</ele><time>2026-05-01T09:48:16.001Z</time></trkpt><trkpt lat="45.106013180111546" lon="13.748531194493777"><ele>172.0</ele><time>2026-05-01T09:48:18.001Z</time></trkpt><trkpt lat="45.10607259660419" lon="13.748668787062435"><ele>172.0</ele><time>2026-05-01T09:48:20.001Z</time></trkpt><trkpt lat="45.10609338620552" lon="13.748810897559434"><ele>172.0</ele><time>2026-05-01T09:48:22.001Z</time></trkpt><trkpt lat="45.10610563774807" lon="13.748967922955872"><ele>172.0</ele><time>2026-05-01T09:48:24.001Z</time></trkpt><trkpt lat="45.10612789706596" lon="13.749140551187743"><ele>172.0</ele><time>2026-05-01T09:48:26.001Z</time></trkpt><trkpt lat="45.106139770029216" lon="13.749236485741145"><ele>172.0</ele><time>2026-05-01T09:48:27.001Z</time></trkpt><trkpt lat="45.1061512343041" lon="13.749339295555624"><ele>172.0</ele><time>2026-05-01T09:48:28.001Z</time></trkpt><trkpt lat="45.106164139089074" lon="13.749441115188608"><ele>172.83333333333334</ele><time>2026-05-01T09:48:29.001Z</time></trkpt><trkpt lat="45.106177942065884" lon="13.749542465279967"><ele>173.66666666666669</ele><time>2026-05-01T09:48:30.001Z</time></trkpt><trkpt lat="45.106192573350626" lon="13.74963714767533"><ele>174.5</ele><time>2026-05-01T09:48:31.001Z</time></trkpt><trkpt lat="45.1062031455759" lon="13.749733188665129"><ele>175.33333333333334</ele><time>2026-05-01T09:48:32.001Z</time></trkpt><trkpt lat="45.1062068828423" lon="13.749903112812806"><ele>176.16666666666666</ele><time>2026-05-01T09:48:34.001Z</time></trkpt><trkpt lat="45.106186494941966" lon="13.749992343417263"><ele>177.0</ele><time>2026-05-01T09:48:35.001Z</time></trkpt><trkpt lat="45.106148470776944" lon="13.75008471151093"><ele>177.0</ele><time>2026-05-01T09:48:36.001Z</time></trkpt><trkpt lat="45.10609705971582" lon="13.750177770377395"><ele>177.0</ele><time>2026-05-01T09:48:37.001Z</time></trkpt><trkpt lat="45.106042388659574" lon="13.750262247722883"><ele>177.0</ele><time>2026-05-01T09:48:38.001Z</time></trkpt><trkpt lat="45.105976013453784" lon="13.750331734522264"><ele>177.0</ele><time>2026-05-01T09:48:39Z</time></trkpt><trkpt lat="45.10590320038386" lon="13.750397325168104"><ele>177.0</ele><time>2026-05-01T09:48:40Z</time></trkpt><trkpt lat="45.10583560102008" lon="13.750472247097276"><ele>177.0</ele><time>2026-05-01T09:48:41Z</time></trkpt><trkpt lat="45.10577483123761" lon="13.750565690253211"><ele>177.6</ele><time>2026-05-01T09:48:42Z</time></trkpt><trkpt lat="45.1057137432832" lon="13.750666255687756"><ele>178.2</ele><time>2026-05-01T09:48:43Z</time></trkpt><trkpt lat="45.10563851482239" lon="13.750736154789813"><ele>178.8</ele><time>2026-05-01T09:48:44Z</time></trkpt><trkpt lat="45.10554981630195" lon="13.750766736470421"><ele>179.4</ele><time>2026-05-01T09:48:45Z</time></trkpt><trkpt lat="45.105451237976105" lon="13.750774670171552"><ele>180.0</ele><time>2026-05-01T09:48:46Z</time></trkpt><trkpt lat="45.105342263353954" lon="13.750778025914556"><ele>180.0</ele><time>2026-05-01T09:48:47Z</time></trkpt><trkpt lat="45.10523084337608" lon="13.750795639271706"><ele>180.0</ele><time>2026-05-01T09:48:48Z</time></trkpt><trkpt lat="45.10512069767722" lon="13.750815888551038"><ele>180.0</ele><time>2026-05-01T09:48:49Z</time></trkpt><trkpt lat="45.10500849420851" lon="13.750839508981912"><ele>180.0</ele><time>2026-05-01T09:48:50Z</time></trkpt><trkpt lat="45.10490177906014" lon="13.750859734488825"><ele>180.0</ele><time>2026-05-01T09:48:51Z</time></trkpt><trkpt lat="45.104804070283386" lon="13.75087214295334"><ele>180.0</ele><time>2026-05-01T09:48:52Z</time></trkpt><trkpt lat="45.10469888305485" lon="13.75087058765913"><ele>180.0</ele><time>2026-05-01T09:48:53Z</time></trkpt><trkpt lat="45.10458711833627" lon="13.750848168762401"><ele>180.0</ele><time>2026-05-01T09:48:54Z</time></trkpt><trkpt lat="45.10447891349764" lon="13.7507961980183"><ele>180.0</ele><time>2026-05-01T09:48:55Z</time></trkpt><trkpt lat="45.10437821424007" lon="13.750732768999997"><ele>180.0</ele><time>2026-05-01T09:48:56Z</time></trkpt><trkpt lat="45.104279288200395" lon="13.750680073140604"><ele>180.0</ele><time>2026-05-01T09:48:57Z</time></trkpt><trkpt lat="45.10417627955973" lon="13.750648144813756"><ele>180.0</ele><time>2026-05-01T09:48:58Z</time></trkpt><trkpt lat="45.10406892153961" lon="13.750609663166141"><ele>180.0</ele><time>2026-05-01T09:48:59Z</time></trkpt><trkpt lat="45.10397571866231" lon="13.750567590626463"><ele>180.0</ele><time>2026-05-01T09:49:00Z</time></trkpt><trkpt lat="45.10387521051888" lon="13.750507351562032"><ele>180.0</ele><time>2026-05-01T09:49:01Z</time></trkpt><trkpt lat="45.1037810111973" lon="13.750440399418304"><ele>180.0</ele><time>2026-05-01T09:49:02Z</time></trkpt><trkpt lat="45.10368262696075" lon="13.750354063068887"><ele>180.0</ele><time>2026-05-01T09:49:03Z</time></trkpt><trkpt lat="45.103590126121716" lon="13.750266887973769"><ele>180.0</ele><time>2026-05-01T09:49:04Z</time></trkpt><trkpt lat="45.10350742078638" lon="13.750178051046646"><ele>180.0</ele><time>2026-05-01T09:49:05Z</time></trkpt><trkpt lat="45.103434360549954" lon="13.750091140259572"><ele>180.0</ele><time>2026-05-01T09:49:06Z</time></trkpt><trkpt lat="45.10337350458069" lon="13.750001083123635"><ele>180.0</ele><time>2026-05-01T09:49:07Z</time></trkpt><trkpt lat="45.103317495065276" lon="13.749906305089144"><ele>180.0</ele><time>2026-05-01T09:49:08Z</time></trkpt><trkpt lat="45.10327381031071" lon="13.749795208143773"><ele>180.0</ele><time>2026-05-01T09:49:09Z</time></trkpt><trkpt lat="45.10320563261453" lon="13.749739611527865"><ele>180.0</ele><time>2026-05-01T09:49:10Z</time></trkpt><trkpt lat="45.1031714156844" lon="13.749629657602435"><ele>180.0</ele><time>2026-05-01T09:49:11Z</time></trkpt><trkpt lat="45.10307745147149" lon="13.749507809456018"><ele>180.16666666666666</ele><time>2026-05-01T09:49:13Z</time></trkpt><trkpt lat="45.103019975418704" lon="13.749419598412654"><ele>180.33333333333334</ele><time>2026-05-01T09:49:14Z</time></trkpt><trkpt lat="45.102964323461094" lon="13.749333276729963"><ele>180.5</ele><time>2026-05-01T09:49:15Z</time></trkpt><trkpt lat="45.10290793475765" lon="13.74925793677782"><ele>180.66666666666669</ele><time>2026-05-01T09:49:16Z</time></trkpt><trkpt lat="45.102836720512705" lon="13.749232255232682"><ele>180.83333333333334</ele><time>2026-05-01T09:49:17Z</time></trkpt><trkpt lat="45.102746118782576" lon="13.74923123804011"><ele>181.0</ele><time>2026-05-01T09:49:18Z</time></trkpt><trkpt lat="45.10265046884045" lon="13.749238154021395"><ele>180.20000000000002</ele><time>2026-05-01T09:49:19Z</time></trkpt><trkpt lat="45.10256233207892" lon="13.749224617969581"><ele>179.4</ele><time>2026-05-01T09:49:20Z</time></trkpt><trkpt lat="45.10247300977109" lon="13.749213678854431"><ele>178.6</ele><time>2026-05-01T09:49:21Z</time></trkpt><trkpt lat="45.10238018766658" lon="13.749204975231313"><ele>177.8</ele><time>2026-05-01T09:49:22Z</time></trkpt><trkpt lat="45.10228561597432" lon="13.749208471849824"><ele>177.0</ele><time>2026-05-01T09:49:23Z</time></trkpt><trkpt lat="45.10218932902965" lon="13.749224580229447"><ele>177.0</ele><time>2026-05-01T09:49:24Z</time></trkpt><trkpt lat="45.10210041397519" lon="13.749243005598494"><ele>177.0</ele><time>2026-05-01T09:49:25Z</time></trkpt><trkpt lat="45.10201615817446" lon="13.74925441979468"><ele>177.0</ele><time>2026-05-01T09:49:26Z</time></trkpt><trkpt lat="45.101938634020165" lon="13.749270023365014"><ele>177.0</ele><time>2026-05-01T09:49:27Z</time></trkpt><trkpt lat="45.10185485576918" lon="13.749286172969724"><ele>177.0</ele><time>2026-05-01T09:49:28Z</time></trkpt><trkpt lat="45.101767322576436" lon="13.749302788240524"><ele>177.0</ele><time>2026-05-01T09:49:29Z</time></trkpt><trkpt lat="45.101679650378244" lon="13.749321886531975"><ele>177.0</ele><time>2026-05-01T09:49:30Z</time></trkpt><trkpt lat="45.10159681561818" lon="13.749341799597746"><ele>177.0</ele><time>2026-05-01T09:49:31Z</time></trkpt><trkpt lat="45.10152247808285" lon="13.749369977477437"><ele>177.0</ele><time>2026-05-01T09:49:32Z</time></trkpt><trkpt lat="45.10144975851885" lon="13.749390267062292"><ele>177.0</ele><time>2026-05-01T09:49:33Z</time></trkpt><trkpt lat="45.10138006940278" lon="13.749416404144897"><ele>177.0</ele><time>2026-05-01T09:49:34Z</time></trkpt><trkpt lat="45.10130670108493" lon="13.749450052064763"><ele>177.0</ele><time>2026-05-01T09:49:35Z</time></trkpt><trkpt lat="45.10122277059556" lon="13.749512272167435"><ele>177.5</ele><time>2026-05-01T09:49:36Z</time></trkpt><trkpt lat="45.1011460290497" lon="13.749560201495168"><ele>178.0</ele><time>2026-05-01T09:49:37Z</time></trkpt><trkpt lat="45.101074961047104" lon="13.749614863627073"><ele>178.5</ele><time>2026-05-01T09:49:38Z</time></trkpt><trkpt lat="45.1010176148162" lon="13.749664184843459"><ele>179.0</ele><time>2026-05-01T09:49:39Z</time></trkpt><trkpt lat="45.1009623074425" lon="13.749728130230835"><ele>179.5</ele><time>2026-05-01T09:49:40Z</time></trkpt><trkpt lat="45.10089604385485" lon="13.749796393794645"><ele>180.0</ele><time>2026-05-01T09:49:41Z</time></trkpt><trkpt lat="45.10082893823777" lon="13.74985903154266"><ele>180.0</ele><time>2026-05-01T09:49:42Z</time></trkpt><trkpt lat="45.10076383946933" lon="13.749904443827809"><ele>180.0</ele><time>2026-05-01T09:49:43Z</time></trkpt><trkpt lat="45.10070361062784" lon="13.749941933371801"><ele>180.0</ele><time>2026-05-01T09:49:44Z</time></trkpt><trkpt lat="45.10065333436898" lon="13.749996910635657"><ele>180.0</ele><time>2026-05-01T09:49:45Z</time></trkpt><trkpt lat="45.10061097574503" lon="13.750071944537801"><ele>180.0</ele><time>2026-05-01T09:49:46Z</time></trkpt><trkpt lat="45.10057456605787" lon="13.750154827771718"><ele>180.0</ele><time>2026-05-01T09:49:47Z</time></trkpt><trkpt lat="45.10053679585227" lon="13.750245880044398"><ele>180.0</ele><time>2026-05-01T09:49:48Z</time></trkpt><trkpt lat="45.10050055882424" lon="13.750331571073202"><ele>179.0</ele><time>2026-05-01T09:49:49Z</time></trkpt><trkpt lat="45.10046195787446" lon="13.750428808115881"><ele>178.0</ele><time>2026-05-01T09:49:50Z</time></trkpt><trkpt lat="45.1004247802264" lon="13.75053310307483"><ele>177.0</ele><time>2026-05-01T09:49:51Z</time></trkpt><trkpt lat="45.100387527263265" lon="13.750636952974093"><ele>176.0</ele><time>2026-05-01T09:49:52Z</time></trkpt><trkpt lat="45.10035360268378" lon="13.750747867283376"><ele>175.0</ele><time>2026-05-01T09:49:53Z</time></trkpt><trkpt lat="45.10033303065295" lon="13.750852391381883"><ele>174.0</ele><time>2026-05-01T09:49:54Z</time></trkpt><trkpt lat="45.100323292409875" lon="13.750950276018195"><ele>174.16666666666666</ele><time>2026-05-01T09:49:55Z</time></trkpt><trkpt lat="45.10031163936636" lon="13.751063159091844"><ele>174.33333333333334</ele><time>2026-05-01T09:49:56Z</time></trkpt><trkpt lat="45.10030653708252" lon="13.751166220112182"><ele>174.5</ele><time>2026-05-01T09:49:57Z</time></trkpt><trkpt lat="45.10030517066591" lon="13.751273724462626"><ele>174.66666666666669</ele><time>2026-05-01T09:49:58Z</time></trkpt><trkpt lat="45.10030091241957" lon="13.75139291478695"><ele>174.83333333333334</ele><time>2026-05-01T09:49:59Z</time></trkpt><trkpt lat="45.10028643497566" lon="13.751524505593476"><ele>175.0</ele><time>2026-05-01T09:50:00Z</time></trkpt><trkpt lat="45.10026523861248" lon="13.751646135290448"><ele>175.0</ele><time>2026-05-01T09:50:01Z</time></trkpt><trkpt lat="45.10024258957924" lon="13.751776334792075"><ele>175.0</ele><time>2026-05-01T09:50:02Z</time></trkpt><trkpt lat="45.10021754331587" lon="13.75191188062216"><ele>175.0</ele><time>2026-05-01T09:50:03Z</time></trkpt><trkpt lat="45.100192879091395" lon="13.752050150011012"><ele>175.0</ele><time>2026-05-01T09:50:03.999Z</time></trkpt><trkpt lat="45.10016751240615" lon="13.752175517985004"><ele>175.0</ele><time>2026-05-01T09:50:04.999Z</time></trkpt><trkpt lat="45.100143616890826" lon="13.752300925535845"><ele>175.0</ele><time>2026-05-01T09:50:05.999Z</time></trkpt><trkpt lat="45.10012354203791" lon="13.752421512932546"><ele>175.0</ele><time>2026-05-01T09:50:06.999Z</time></trkpt><trkpt lat="45.10010306925939" lon="13.752543901132261"><ele>175.0</ele><time>2026-05-01T09:50:07.999Z</time></trkpt><trkpt lat="45.10008171551265" lon="13.752658854390663"><ele>175.0</ele><time>2026-05-01T09:50:08.999Z</time></trkpt><trkpt lat="45.100062747615844" lon="13.752761824734758"><ele>175.0</ele><time>2026-05-01T09:50:09.999Z</time></trkpt><trkpt lat="45.100050869959276" lon="13.752852271707438"><ele>175.0</ele><time>2026-05-01T09:50:10.999Z</time></trkpt><trkpt lat="45.10004054314155" lon="13.753009735565145"><ele>174.75</ele><time>2026-05-01T09:50:12.999Z</time></trkpt><trkpt lat="45.10003433603629" lon="13.753165884167224"><ele>174.5</ele><time>2026-05-01T09:50:15.001Z</time></trkpt><trkpt lat="45.100041162455106" lon="13.753337307719228"><ele>174.25</ele><time>2026-05-01T09:50:17.001Z</time></trkpt><trkpt lat="45.10003094175976" lon="13.75350081180423"><ele>174.0</ele><time>2026-05-01T09:50:19.001Z</time></trkpt><trkpt lat="45.100011524633366" lon="13.753675846509289"><ele>174.0</ele><time>2026-05-01T09:50:21.001Z</time></trkpt><trkpt lat="45.10000010950909" lon="13.753767112899858"><ele>174.0</ele><time>2026-05-01T09:50:22.001Z</time></trkpt><trkpt lat="45.09998222369618" lon="13.753871373840587"><ele>174.0</ele><time>2026-05-01T09:50:23.001Z</time></trkpt><trkpt lat="45.09996811808303" lon="13.753978949813048"><ele>174.0</ele><time>2026-05-01T09:50:24.001Z</time></trkpt><trkpt lat="45.09994716083904" lon="13.754081102822063"><ele>174.0</ele><time>2026-05-01T09:50:25.001Z</time></trkpt><trkpt lat="45.09991548820407" lon="13.754170850873061"><ele>174.0</ele><time>2026-05-01T09:50:26.001Z</time></trkpt><trkpt lat="45.09988400226156" lon="13.754275933968025"><ele>174.0</ele><time>2026-05-01T09:50:27.001Z</time></trkpt><trkpt lat="45.09984516925268" lon="13.754370044419687"><ele>173.16666666666666</ele><time>2026-05-01T09:50:28.001Z</time></trkpt><trkpt lat="45.09980447344449" lon="13.754465161116004"><ele>172.33333333333334</ele><time>2026-05-01T09:50:29.001Z</time></trkpt><trkpt lat="45.09976841463539" lon="13.754569136181692"><ele>171.5</ele><time>2026-05-01T09:50:30.001Z</time></trkpt><trkpt lat="45.0997403430667" lon="13.754675369410073"><ele>170.66666666666669</ele><time>2026-05-01T09:50:31.001Z</time></trkpt><trkpt lat="45.09971727734626" lon="13.754784073125208"><ele>169.83333333333334</ele><time>2026-05-01T09:50:32Z</time></trkpt><trkpt lat="45.099698217563486" lon="13.754902911173762"><ele>169.0</ele><time>2026-05-01T09:50:33Z</time></trkpt><trkpt lat="45.09967775986757" lon="13.755017131289293"><ele>169.0</ele><time>2026-05-01T09:50:34Z</time></trkpt><trkpt lat="45.099650182712466" lon="13.755116635855432"><ele>169.0</ele><time>2026-05-01T09:50:35Z</time></trkpt><trkpt lat="45.099615144879245" lon="13.755204788634266"><ele>169.0</ele><time>2026-05-01T09:50:36Z</time></trkpt><trkpt lat="45.099576897701" lon="13.755294726980425"><ele>169.0</ele><time>2026-05-01T09:50:37Z</time></trkpt><trkpt lat="45.09954543398395" lon="13.755385739905503"><ele>169.0</ele><time>2026-05-01T09:50:38Z</time></trkpt><trkpt lat="45.09951677293739" lon="13.755480581943331"><ele>169.0</ele><time>2026-05-01T09:50:39Z</time></trkpt><trkpt lat="45.09948412335242" lon="13.755570652154383"><ele>169.0</ele><time>2026-05-01T09:50:40Z</time></trkpt><trkpt lat="45.09943691527001" lon="13.755643406118292"><ele>169.0</ele><time>2026-05-01T09:50:41Z</time></trkpt><trkpt lat="45.0993670596592" lon="13.75570377790424"><ele>169.0</ele><time>2026-05-01T09:50:42Z</time></trkpt><trkpt lat="45.09929121643822" lon="13.755734597317836"><ele>169.0</ele><time>2026-05-01T09:50:43Z</time></trkpt><trkpt lat="45.09921448591423" lon="13.755752540917651"><ele>169.0</ele><time>2026-05-01T09:50:44Z</time></trkpt><trkpt lat="45.09914791930434" lon="13.755770299233735"><ele>169.0</ele><time>2026-05-01T09:50:45Z</time></trkpt><trkpt lat="45.09907683605813" lon="13.75578677306476"><ele>169.0</ele><time>2026-05-01T09:50:46Z</time></trkpt><trkpt lat="45.0990033572688" lon="13.75579334062073"><ele>169.0</ele><time>2026-05-01T09:50:47Z</time></trkpt><trkpt lat="45.0989339657425" lon="13.755783070990411"><ele>169.0</ele><time>2026-05-01T09:50:48Z</time></trkpt><trkpt lat="45.09885989079311" lon="13.755750543126052"><ele>169.0</ele><time>2026-05-01T09:50:49Z</time></trkpt><trkpt lat="45.09878501601881" lon="13.75569833804846"><ele>169.0</ele><time>2026-05-01T09:50:50Z</time></trkpt><trkpt lat="45.098706189022856" lon="13.755640132494014"><ele>169.0</ele><time>2026-05-01T09:50:51Z</time></trkpt><trkpt lat="45.09862623246846" lon="13.75559620802026"><ele>169.0</ele><time>2026-05-01T09:50:52Z</time></trkpt><trkpt lat="45.09853880630545" lon="13.755564472281634"><ele>169.0</ele><time>2026-05-01T09:50:53Z</time></trkpt><trkpt lat="45.09845959097056" lon="13.755543351889113"><ele>169.0</ele><time>2026-05-01T09:50:54Z</time></trkpt><trkpt lat="45.09838107960514" lon="13.755512207265719"><ele>169.0</ele><time>2026-05-01T09:50:55Z</time></trkpt><trkpt lat="45.09831204616284" lon="13.75545419904933"><ele>169.0</ele><time>2026-05-01T09:50:56Z</time></trkpt><trkpt lat="45.09825224141215" lon="13.755376719387636"><ele>169.0</ele><time>2026-05-01T09:50:57Z</time></trkpt><trkpt lat="45.09820339689765" lon="13.755296022267913"><ele>169.0</ele><time>2026-05-01T09:50:58Z</time></trkpt><trkpt lat="45.09814432936647" lon="13.755241676684737"><ele>169.16666666666669</ele><time>2026-05-01T09:50:59Z</time></trkpt><trkpt lat="45.09805633006174" lon="13.75521610899732"><ele>169.33333333333334</ele><time>2026-05-01T09:51:00Z</time></trkpt><trkpt lat="45.09797654120018" lon="13.755213690173035"><ele>169.5</ele><time>2026-05-01T09:51:01Z</time></trkpt><trkpt lat="45.09789417960357" lon="13.755211679212394"><ele>169.66666666666666</ele><time>2026-05-01T09:51:02Z</time></trkpt><trkpt lat="45.09780816337885" lon="13.755228168258013"><ele>169.83333333333331</ele><time>2026-05-01T09:51:03Z</time></trkpt><trkpt lat="45.09772158993034" lon="13.755253187811867"><ele>170.0</ele><time>2026-05-01T09:51:04Z</time></trkpt><trkpt lat="45.0976437108136" lon="13.755265440650682"><ele>170.0</ele><time>2026-05-01T09:51:05Z</time></trkpt><trkpt lat="45.09755700604491" lon="13.755253917759749"><ele>170.0</ele><time>2026-05-01T09:51:06Z</time></trkpt><trkpt lat="45.097477099606486" lon="13.755218498336331"><ele>170.0</ele><time>2026-05-01T09:51:07Z</time></trkpt><trkpt lat="45.09739194677141" lon="13.755168157995769"><ele>170.0</ele><time>2026-05-01T09:51:08Z</time></trkpt><trkpt lat="45.0973046264014" lon="13.75512202983124"><ele>170.0</ele><time>2026-05-01T09:51:09Z</time></trkpt><trkpt lat="45.09721150569167" lon="13.755084429960101"><ele>170.6</ele><time>2026-05-01T09:51:10Z</time></trkpt><trkpt lat="45.09711754664548" lon="13.75505013921195"><ele>171.2</ele><time>2026-05-01T09:51:11Z</time></trkpt><trkpt lat="45.097031198510045" lon="13.755025177400944"><ele>171.8</ele><time>2026-05-01T09:51:12Z</time></trkpt><trkpt lat="45.096944511631136" lon="13.75499554333197"><ele>172.4</ele><time>2026-05-01T09:51:13Z</time></trkpt><trkpt lat="45.09685913465641" lon="13.754979367316308"><ele>173.0</ele><time>2026-05-01T09:51:14Z</time></trkpt><trkpt lat="45.09676846542135" lon="13.75496341679972"><ele>173.0</ele><time>2026-05-01T09:51:15Z</time></trkpt><trkpt lat="45.09667365625362" lon="13.754964707835452"><ele>173.0</ele><time>2026-05-01T09:51:16Z</time></trkpt><trkpt lat="45.096583402468525" lon="13.754959999478306"><ele>173.0</ele><time>2026-05-01T09:51:17Z</time></trkpt><trkpt lat="45.09648963919792" lon="13.754948851410402"><ele>173.0</ele><time>2026-05-01T09:51:18Z</time></trkpt><trkpt lat="45.09640385997156" lon="13.754925402739612"><ele>173.0</ele><time>2026-05-01T09:51:19Z</time></trkpt><trkpt lat="45.09632821067027" lon="13.754902918957088"><ele>173.0</ele><time>2026-05-01T09:51:20Z</time></trkpt><trkpt lat="45.09625421174263" lon="13.754880553917463"><ele>172.66666666666666</ele><time>2026-05-01T09:51:21Z</time></trkpt><trkpt lat="45.096174402813354" lon="13.75488442224698"><ele>172.33333333333331</ele><time>2026-05-01T09:51:22Z</time></trkpt><trkpt lat="45.096100124659095" lon="13.754928290167442"><ele>172.0</ele><time>2026-05-01T09:51:23Z</time></trkpt><trkpt lat="45.096041485015036" lon="13.755011543323059"><ele>171.66666666666666</ele><time>2026-05-01T09:51:24Z</time></trkpt><trkpt lat="45.09597366185228" lon="13.75508472946306"><ele>171.33333333333334</ele><time>2026-05-01T09:51:25Z</time></trkpt><trkpt lat="45.09590916987106" lon="13.75513974073814"><ele>171.0</ele><time>2026-05-01T09:51:26Z</time></trkpt><trkpt lat="45.09584336843117" lon="13.755191289708996"><ele>170.66666666666666</ele><time>2026-05-01T09:51:27Z</time></trkpt><trkpt lat="45.09576343466962" lon="13.755221240698665"><ele>170.33333333333334</ele><time>2026-05-01T09:51:28Z</time></trkpt><trkpt lat="45.09567462271082" lon="13.755233821435214"><ele>170.0</ele><time>2026-05-01T09:51:29Z</time></trkpt><trkpt lat="45.095583215209274" lon="13.755252292990901"><ele>169.66666666666669</ele><time>2026-05-01T09:51:30Z</time></trkpt><trkpt lat="45.09548640390195" lon="13.755267037919465"><ele>169.33333333333334</ele><time>2026-05-01T09:51:31Z</time></trkpt><trkpt lat="45.09540112771041" lon="13.755279420834512"><ele>169.0</ele><time>2026-05-01T09:51:32Z</time></trkpt><trkpt lat="45.09532144866496" lon="13.755277236136008"><ele>169.2</ele><time>2026-05-01T09:51:33Z</time></trkpt><trkpt lat="45.09522935371646" lon="13.755251755705173"><ele>169.39999999999998</ele><time>2026-05-01T09:51:34Z</time></trkpt><trkpt lat="45.09512502354728" lon="13.755220984320902"><ele>169.6</ele><time>2026-05-01T09:51:35Z</time></trkpt><trkpt lat="45.09502659389998" lon="13.755199022040753"><ele>169.8</ele><time>2026-05-01T09:51:36Z</time></trkpt><trkpt lat="45.094942158749866" lon="13.755186408508985"><ele>170.0</ele><time>2026-05-01T09:51:37Z</time></trkpt><trkpt lat="45.094856623391635" lon="13.755172831552933"><ele>170.33333333333331</ele><time>2026-05-01T09:51:38Z</time></trkpt><trkpt lat="45.09476583528963" lon="13.75517748582999"><ele>170.66666666666666</ele><time>2026-05-01T09:51:39Z</time></trkpt><trkpt lat="45.09468200389965" lon="13.755220241417867"><ele>171.0</ele><time>2026-05-01T09:51:40Z</time></trkpt><trkpt lat="45.094605551959106" lon="13.755271880964985"><ele>171.33333333333334</ele><time>2026-05-01T09:51:41Z</time></trkpt><trkpt lat="45.094522786815766" lon="13.755327029639925"><ele>171.66666666666669</ele><time>2026-05-01T09:51:42Z</time></trkpt><trkpt lat="45.09443962253462" lon="13.75538541747475"><ele>172.0</ele><time>2026-05-01T09:51:43Z</time></trkpt><trkpt lat="45.0943666783938" lon="13.755417826996988"><ele>171.0</ele><time>2026-05-01T09:51:44Z</time></trkpt><trkpt lat="45.09430215585185" lon="13.755429523453355"><ele>170.0</ele><time>2026-05-01T09:51:45Z</time></trkpt><trkpt lat="45.09421722502663" lon="13.755434021846412"><ele>169.0</ele><time>2026-05-01T09:51:46Z</time></trkpt><trkpt lat="45.094128234496445" lon="13.755419353487106"><ele>168.0</ele><time>2026-05-01T09:51:47Z</time></trkpt><trkpt lat="45.094035459756455" lon="13.755390064218265"><ele>167.0</ele><time>2026-05-01T09:51:48Z</time></trkpt><trkpt lat="45.09394717294098" lon="13.755349278763896"><ele>166.0</ele><time>2026-05-01T09:51:49Z</time></trkpt><trkpt lat="45.09385628127874" lon="13.755307413842923"><ele>166.0</ele><time>2026-05-01T09:51:50Z</time></trkpt><trkpt lat="45.093766904816206" lon="13.75527159263029"><ele>166.0</ele><time>2026-05-01T09:51:51Z</time></trkpt><trkpt lat="45.09367010116555" lon="13.75523477646131"><ele>166.0</ele><time>2026-05-01T09:51:52Z</time></trkpt><trkpt lat="45.09357367017526" lon="13.755202663008305"><ele>166.0</ele><time>2026-05-01T09:51:53Z</time></trkpt><trkpt lat="45.09347670311257" lon="13.755169248605181"><ele>166.0</ele><time>2026-05-01T09:51:53.999Z</time></trkpt><trkpt lat="45.093381962676986" lon="13.755130957032637"><ele>166.0</ele><time>2026-05-01T09:51:54.999Z</time></trkpt><trkpt lat="45.09328774258697" lon="13.755093689923227"><ele>166.0</ele><time>2026-05-01T09:51:55.999Z</time></trkpt><trkpt lat="45.093194019264004" lon="13.755056032234425"><ele>166.0</ele><time>2026-05-01T09:51:56.999Z</time></trkpt><trkpt lat="45.093105420572606" lon="13.755016300566412"><ele>166.0</ele><time>2026-05-01T09:51:57.999Z</time></trkpt><trkpt lat="45.09301124641634" lon="13.754980057886565"><ele>166.0</ele><time>2026-05-01T09:51:58.999Z</time></trkpt><trkpt lat="45.09292091687042" lon="13.754941596812927"><ele>166.0</ele><time>2026-05-01T09:51:59.999Z</time></trkpt><trkpt lat="45.09282702818252" lon="13.75490892765855"><ele>166.0</ele><time>2026-05-01T09:52:00.999Z</time></trkpt><trkpt lat="45.09273119336175" lon="13.754869020361742"><ele>166.0</ele><time>2026-05-01T09:52:01.999Z</time></trkpt><trkpt lat="45.09263677893648" lon="13.75482954059295"><ele>166.0</ele><time>2026-05-01T09:52:02.999Z</time></trkpt><trkpt lat="45.092544136578745" lon="13.754785293570407"><ele>166.0</ele><time>2026-05-01T09:52:03.999Z</time></trkpt><trkpt lat="45.092457029609825" lon="13.7547310793446"><ele>165.66666666666669</ele><time>2026-05-01T09:52:04.999Z</time></trkpt><trkpt lat="45.09237096971395" lon="13.754687443301506"><ele>165.33333333333334</ele><time>2026-05-01T09:52:05.999Z</time></trkpt><trkpt lat="45.092288913962086" lon="13.754659460398235"><ele>165.0</ele><time>2026-05-01T09:52:06.999Z</time></trkpt><trkpt lat="45.09221456641964" lon="13.754640617487906"><ele>164.66666666666666</ele><time>2026-05-01T09:52:07.999Z</time></trkpt><trkpt lat="45.09214667928475" lon="13.754618176403646"><ele>164.33333333333331</ele><time>2026-05-01T09:52:08.999Z</time></trkpt><trkpt lat="45.092081264472554" lon="13.754609843011808"><ele>164.0</ele><time>2026-05-01T09:52:09.999Z</time></trkpt><trkpt lat="45.09201904361933" lon="13.754630085756617"><ele>164.0</ele><time>2026-05-01T09:52:10.999Z</time></trkpt><trkpt lat="45.09194823855273" lon="13.754664418790519"><ele>164.0</ele><time>2026-05-01T09:52:11.999Z</time></trkpt><trkpt lat="45.091873365319046" lon="13.754698153341357"><ele>164.0</ele><time>2026-05-01T09:52:12.999Z</time></trkpt><trkpt lat="45.0918023610424" lon="13.754742832628938"><ele>164.0</ele><time>2026-05-01T09:52:13.999Z</time></trkpt><trkpt lat="45.091727147344706" lon="13.75478289875501"><ele>164.0</ele><time>2026-05-01T09:52:14.999Z</time></trkpt><trkpt lat="45.091649491752825" lon="13.75480458447361"><ele>164.0</ele><time>2026-05-01T09:52:15.999Z</time></trkpt><trkpt lat="45.09156632318823" lon="13.75481078967055"><ele>163.66666666666666</ele><time>2026-05-01T09:52:16.999Z</time></trkpt><trkpt lat="45.09148460405153" lon="13.754815044191727"><ele>163.33333333333331</ele><time>2026-05-01T09:52:17.999Z</time></trkpt><trkpt lat="45.09140448791597" lon="13.754816020390518"><ele>163.0</ele><time>2026-05-01T09:52:18.999Z</time></trkpt><trkpt lat="45.091325087100344" lon="13.754827428146166"><ele>162.66666666666666</ele><time>2026-05-01T09:52:20Z</time></trkpt><trkpt lat="45.091253841853806" lon="13.754862651814463"><ele>162.33333333333334</ele><time>2026-05-01T09:52:21Z</time></trkpt><trkpt lat="45.09118178280326" lon="13.754909987146386"><ele>162.0</ele><time>2026-05-01T09:52:22Z</time></trkpt><trkpt lat="45.091106886271376" lon="13.754947168669743"><ele>162.0</ele><time>2026-05-01T09:52:23Z</time></trkpt><trkpt lat="45.091026068868054" lon="13.754964001222543"><ele>162.0</ele><time>2026-05-01T09:52:24Z</time></trkpt><trkpt lat="45.09093791830724" lon="13.754965275956362"><ele>162.0</ele><time>2026-05-01T09:52:25Z</time></trkpt><trkpt lat="45.09085012458733" lon="13.754952144979617"><ele>162.0</ele><time>2026-05-01T09:52:26Z</time></trkpt><trkpt lat="45.090779113590216" lon="13.754933579029531"><ele>162.0</ele><time>2026-05-01T09:52:27Z</time></trkpt><trkpt lat="45.090695445408144" lon="13.754914320767242"><ele>162.0</ele><time>2026-05-01T09:52:28Z</time></trkpt><trkpt lat="45.0906093546384" lon="13.75489335783173"><ele>161.5</ele><time>2026-05-01T09:52:29Z</time></trkpt><trkpt lat="45.090520643756776" lon="13.754878761473428"><ele>161.0</ele><time>2026-05-01T09:52:30Z</time></trkpt><trkpt lat="45.09043622754516" lon="13.754882733519196"><ele>160.5</ele><time>2026-05-01T09:52:31Z</time></trkpt><trkpt lat="45.09035628470377" lon="13.754906998795462"><ele>160.0</ele><time>2026-05-01T09:52:32Z</time></trkpt><trkpt lat="45.09028312436494" lon="13.754947428133443"><ele>159.5</ele><time>2026-05-01T09:52:33Z</time></trkpt><trkpt lat="45.09021348998812" lon="13.75499283547687"><ele>159.0</ele><time>2026-05-01T09:52:34Z</time></trkpt><trkpt lat="45.09014973897221" lon="13.755033552723193"><ele>159.0</ele><time>2026-05-01T09:52:35Z</time></trkpt><trkpt lat="45.09009157662822" lon="13.755067778618757"><ele>159.0</ele><time>2026-05-01T09:52:36Z</time></trkpt><trkpt lat="45.089993984951285" lon="13.755142958493755"><ele>159.0</ele><time>2026-05-01T09:52:38Z</time></trkpt><trkpt lat="45.08994236408317" lon="13.755210105540181"><ele>159.0</ele><time>2026-05-01T09:52:39Z</time></trkpt><trkpt lat="45.08986098281383" lon="13.755314684926432"><ele>159.0</ele><time>2026-05-01T09:52:41Z</time></trkpt><trkpt lat="45.08979488791765" lon="13.755341273507607"><ele>159.0</ele><time>2026-05-01T09:52:42Z</time></trkpt><trkpt lat="45.089720389275165" lon="13.755337014489992"><ele>158.83333333333334</ele><time>2026-05-01T09:52:43Z</time></trkpt><trkpt lat="45.08963322660482" lon="13.755327737254637"><ele>158.66666666666666</ele><time>2026-05-01T09:52:44Z</time></trkpt><trkpt lat="45.089546272147466" lon="13.755339714681863"><ele>158.5</ele><time>2026-05-01T09:52:45Z</time></trkpt><trkpt lat="45.089466880677215" lon="13.7553810358439"><ele>158.33333333333331</ele><time>2026-05-01T09:52:46Z</time></trkpt><trkpt lat="45.089397218146225" lon="13.75542911097383"><ele>158.16666666666666</ele><time>2026-05-01T09:52:47Z</time></trkpt><trkpt lat="45.08933534450948" lon="13.755473035418033"><ele>158.0</ele><time>2026-05-01T09:52:48Z</time></trkpt><trkpt lat="45.08920679455283" lon="13.75550772779802"><ele>158.00000000000003</ele><time>2026-05-01T09:52:50Z</time></trkpt><trkpt lat="45.08913182241035" lon="13.755485924676623"><ele>158.0</ele><time>2026-05-01T09:52:51Z</time></trkpt><trkpt lat="45.08906744788227" lon="13.755456134041829"><ele>158.0</ele><time>2026-05-01T09:52:52Z</time></trkpt><trkpt lat="45.08899381608669" lon="13.755440194448886"><ele>158.0</ele><time>2026-05-01T09:52:53Z</time></trkpt><trkpt lat="45.08892312849702" lon="13.755442572060106"><ele>158.0</ele><time>2026-05-01T09:52:54Z</time></trkpt><trkpt lat="45.088852336579414" lon="13.755450795204887"><ele>158.00000000000003</ele><time>2026-05-01T09:52:55Z</time></trkpt><trkpt lat="45.088779328737736" lon="13.75544801756291"><ele>158.0</ele><time>2026-05-01T09:52:56Z</time></trkpt><trkpt lat="45.0887091350935" lon="13.755436099099846"><ele>157.2857142857143</ele><time>2026-05-01T09:52:57Z</time></trkpt><trkpt lat="45.08863936209883" lon="13.755442181841785"><ele>156.57142857142858</ele><time>2026-05-01T09:52:58Z</time></trkpt><trkpt lat="45.08856945015189" lon="13.755459021468624"><ele>155.85714285714286</ele><time>2026-05-01T09:52:59Z</time></trkpt><trkpt lat="45.08849943268861" lon="13.75548592092069"><ele>155.14285714285717</ele><time>2026-05-01T09:53:00Z</time></trkpt><trkpt lat="45.088427276900426" lon="13.755524854621163"><ele>154.42857142857144</ele><time>2026-05-01T09:53:01Z</time></trkpt><trkpt lat="45.088362114560105" lon="13.75558364654055"><ele>153.71428571428572</ele><time>2026-05-01T09:53:02Z</time></trkpt><trkpt lat="45.0882909115513" lon="13.755630272466654"><ele>153.0</ele><time>2026-05-01T09:53:03Z</time></trkpt><trkpt lat="45.088217451170834" lon="13.755662160291683"><ele>152.33333333333334</ele><time>2026-05-01T09:53:04Z</time></trkpt><trkpt lat="45.08814972448029" lon="13.755701145271523"><ele>151.66666666666666</ele><time>2026-05-01T09:53:05Z</time></trkpt><trkpt lat="45.08808406465246" lon="13.75576088270691"><ele>151.0</ele><time>2026-05-01T09:53:06Z</time></trkpt><trkpt lat="45.0880176541441" lon="13.755838586409526"><ele>150.33333333333331</ele><time>2026-05-01T09:53:07Z</time></trkpt><trkpt lat="45.08794958047692" lon="13.755905920909925"><ele>149.66666666666666</ele><time>2026-05-01T09:53:08Z</time></trkpt><trkpt lat="45.08788311551734" lon="13.755947259270458"><ele>149.0</ele><time>2026-05-01T09:53:09Z</time></trkpt><trkpt lat="45.087812655988174" lon="13.75596991177643"><ele>149.0</ele><time>2026-05-01T09:53:10Z</time></trkpt><trkpt lat="45.08772780690749" lon="13.756000258416694"><ele>149.0</ele><time>2026-05-01T09:53:11Z</time></trkpt><trkpt lat="45.08764163064577" lon="13.756034295060086"><ele>149.0</ele><time>2026-05-01T09:53:12Z</time></trkpt><trkpt lat="45.087553149036864" lon="13.756084678976581"><ele>149.0</ele><time>2026-05-01T09:53:13Z</time></trkpt><trkpt lat="45.08747162862177" lon="13.756149005192164"><ele>149.0</ele><time>2026-05-01T09:53:14Z</time></trkpt><trkpt lat="45.08739337679732" lon="13.756207926673877"><ele>148.83333333333331</ele><time>2026-05-01T09:53:15Z</time></trkpt><trkpt lat="45.08731307567418" lon="13.756262797885615"><ele>148.66666666666666</ele><time>2026-05-01T09:53:16Z</time></trkpt><trkpt lat="45.087229467516345" lon="13.756314500171706"><ele>148.5</ele><time>2026-05-01T09:53:17Z</time></trkpt><trkpt lat="45.08714738575422" lon="13.756360280095208"><ele>148.33333333333334</ele><time>2026-05-01T09:53:18Z</time></trkpt><trkpt lat="45.08706688411864" lon="13.756395797736898"><ele>148.16666666666669</ele><time>2026-05-01T09:53:19Z</time></trkpt><trkpt lat="45.086990019778405" lon="13.756424996154399"><ele>148.0</ele><time>2026-05-01T09:53:20Z</time></trkpt><trkpt lat="45.08691420343871" lon="13.756455807423059"><ele>148.0</ele><time>2026-05-01T09:53:21Z</time></trkpt><trkpt lat="45.086847454467026" lon="13.756485630998453"><ele>148.0</ele><time>2026-05-01T09:53:22Z</time></trkpt><trkpt lat="45.08677472249318" lon="13.756516563217184"><ele>148.0</ele><time>2026-05-01T09:53:23Z</time></trkpt><trkpt lat="45.086697885234614" lon="13.756547541937035"><ele>148.0</ele><time>2026-05-01T09:53:24Z</time></trkpt><trkpt lat="45.0866122562052" lon="13.756590745337261"><ele>148.0</ele><time>2026-05-01T09:53:25Z</time></trkpt><trkpt lat="45.08653618576567" lon="13.75663660085638"><ele>148.0</ele><time>2026-05-01T09:53:26Z</time></trkpt><trkpt lat="45.08646516283539" lon="13.756678371893777"><ele>147.66666666666669</ele><time>2026-05-01T09:53:27Z</time></trkpt><trkpt lat="45.08639583786827" lon="13.75669518139468"><ele>147.33333333333334</ele><time>2026-05-01T09:53:28Z</time></trkpt><trkpt lat="45.08631380950319" lon="13.756686038002556"><ele>147.0</ele><time>2026-05-01T09:53:29Z</time></trkpt><trkpt lat="45.08622859906762" lon="13.756676145514493"><ele>146.66666666666666</ele><time>2026-05-01T09:53:30Z</time></trkpt><trkpt lat="45.0861519424371" lon="13.756681865897724"><ele>146.33333333333331</ele><time>2026-05-01T09:53:31Z</time></trkpt><trkpt lat="45.08607938314639" lon="13.756693299653364"><ele>146.0</ele><time>2026-05-01T09:53:32Z</time></trkpt><trkpt lat="45.08601081738242" lon="13.756715280271328"><ele>146.0</ele><time>2026-05-01T09:53:33Z</time></trkpt><trkpt lat="45.08594439084312" lon="13.756753312128215"><ele>146.0</ele><time>2026-05-01T09:53:34Z</time></trkpt><trkpt lat="45.085879740987075" lon="13.756790673473777"><ele>146.0</ele><time>2026-05-01T09:53:35Z</time></trkpt><trkpt lat="45.08580781790415" lon="13.75681423183141"><ele>146.0</ele><time>2026-05-01T09:53:36Z</time></trkpt><trkpt lat="45.08573815174649" lon="13.75684641786669"><ele>146.0</ele><time>2026-05-01T09:53:37Z</time></trkpt><trkpt lat="45.08567397131612" lon="13.756890607640782"><ele>146.0</ele><time>2026-05-01T09:53:38Z</time></trkpt><trkpt lat="45.0856149321653" lon="13.756934447347806"><ele>146.0</ele><time>2026-05-01T09:53:39Z</time></trkpt><trkpt lat="45.08550701485001" lon="13.757016882999821"><ele>145.2</ele><time>2026-05-01T09:53:41Z</time></trkpt><trkpt lat="45.08545274808349" lon="13.757065604304994"><ele>144.39999999999998</ele><time>2026-05-01T09:53:42Z</time></trkpt><trkpt lat="45.08536910338145" lon="13.757167745258398"><ele>143.6</ele><time>2026-05-01T09:53:44Z</time></trkpt><trkpt lat="45.08528615108895" lon="13.757229860314572"><ele>142.79999999999998</ele><time>2026-05-01T09:53:46Z</time></trkpt><trkpt lat="45.08518591614196" lon="13.757289948810595"><ele>142.0</ele><time>2026-05-01T09:53:48Z</time></trkpt><trkpt lat="45.08510322376399" lon="13.757378875460937"><ele>142.0</ele><time>2026-05-01T09:53:50Z</time></trkpt><trkpt lat="45.08501920615719" lon="13.757402463424334"><ele>142.0</ele><time>2026-05-01T09:53:51.999Z</time></trkpt><trkpt lat="45.084936133052366" lon="13.757386021027303"><ele>142.0</ele><time>2026-05-01T09:53:53.999Z</time></trkpt><trkpt lat="45.084871064367086" lon="13.757377536013609"><ele>142.0</ele><time>2026-05-01T09:53:56.999Z</time></trkpt><trkpt lat="45.08482398071505" lon="13.75730304879793"><ele>142.0</ele><time>2026-05-01T09:55:10Z</time></trkpt><trkpt lat="45.08489300475037" lon="13.757114012113089"><ele>142.0</ele><time>2026-05-01T09:55:12Z</time></trkpt><trkpt lat="45.08491247155694" lon="13.756966469196266"><ele>142.0</ele><time>2026-05-01T09:55:14Z</time></trkpt><trkpt lat="45.08493413144116" lon="13.756795820301571"><ele>142.0</ele><time>2026-05-01T09:55:16Z</time></trkpt><trkpt lat="45.084944378602266" lon="13.756679285158112"><ele>142.0</ele><time>2026-05-01T09:55:18Z</time></trkpt><trkpt lat="45.0849353574539" lon="13.756575954983521"><ele>142.0</ele><time>2026-05-01T09:55:20Z</time></trkpt><trkpt lat="45.08490608177464" lon="13.756435524930087"><ele>141.4</ele><time>2026-05-01T09:55:22Z</time></trkpt><trkpt lat="45.08488208539026" lon="13.756302494663998"><ele>140.79999999999998</ele><time>2026-05-01T09:55:24Z</time></trkpt><trkpt lat="45.084857411889196" lon="13.756176595736592"><ele>140.2</ele><time>2026-05-01T09:55:26Z</time></trkpt><trkpt lat="45.08479490978984" lon="13.756110066555546"><ele>139.6</ele><time>2026-05-01T09:55:28Z</time></trkpt><trkpt lat="45.08468094478443" lon="13.756112149732498"><ele>139.0</ele><time>2026-05-01T09:55:30Z</time></trkpt><trkpt lat="45.08457846338918" lon="13.756095801015677"><ele>139.0</ele><time>2026-05-01T09:55:32Z</time></trkpt><trkpt lat="45.08446789052888" lon="13.756047380558082"><ele>139.0</ele><time>2026-05-01T09:55:34Z</time></trkpt><trkpt lat="45.0844019866479" lon="13.756046430574589"><ele>139.0</ele><time>2026-05-01T09:55:35Z</time></trkpt><trkpt lat="45.08433431731734" lon="13.756043539031962"><ele>139.0</ele><time>2026-05-01T09:55:36Z</time></trkpt><trkpt lat="45.08427117466518" lon="13.756030515295512"><ele>139.0</ele><time>2026-05-01T09:55:37Z</time></trkpt><trkpt lat="45.084208331486906" lon="13.756010579796103"><ele>139.0</ele><time>2026-05-01T09:55:38Z</time></trkpt><trkpt lat="45.08414901580858" lon="13.755972744696818"><ele>139.0</ele><time>2026-05-01T09:55:39Z</time></trkpt><trkpt lat="45.08408808116393" lon="13.755926660691413"><ele>139.5</ele><time>2026-05-01T09:55:40Z</time></trkpt><trkpt lat="45.084039217367305" lon="13.755865413910517"><ele>140.0</ele><time>2026-05-01T09:55:41Z</time></trkpt><trkpt lat="45.0839635707694" lon="13.755736883484484"><ele>140.5</ele><time>2026-05-01T09:55:43Z</time></trkpt><trkpt lat="45.08388990629845" lon="13.755628990410711"><ele>141.0</ele><time>2026-05-01T09:55:45Z</time></trkpt><trkpt lat="45.083836036524694" lon="13.755579020790838"><ele>141.5</ele><time>2026-05-01T09:55:46Z</time></trkpt><trkpt lat="45.08377937640793" lon="13.75552525046745"><ele>142.0</ele><time>2026-05-01T09:55:47Z</time></trkpt><trkpt lat="45.08370711095604" lon="13.755400414467404"><ele>142.0</ele><time>2026-05-01T09:55:49Z</time></trkpt><trkpt lat="45.083661784713144" lon="13.755268993681852"><ele>142.0</ele><time>2026-05-01T09:55:51Z</time></trkpt><trkpt lat="45.0835476225539" lon="13.755175177992577"><ele>142.0</ele><time>2026-05-01T09:55:53Z</time></trkpt><trkpt lat="45.08344197198298" lon="13.755121592373577"><ele>142.0</ele><time>2026-05-01T09:55:55Z</time></trkpt><trkpt lat="45.083336231702354" lon="13.755096891054981"><ele>142.6</ele><time>2026-05-01T09:55:56.999Z</time></trkpt><trkpt lat="45.083226931800915" lon="13.755085574117084"><ele>143.2</ele><time>2026-05-01T09:55:58.999Z</time></trkpt><trkpt lat="45.08310871443417" lon="13.755048493968967"><ele>143.8</ele><time>2026-05-01T09:56:00.999Z</time></trkpt><trkpt lat="45.083016009604314" lon="13.754999270154231"><ele>144.4</ele><time>2026-05-01T09:56:02.999Z</time></trkpt><trkpt lat="45.08293318304193" lon="13.754966558201074"><ele>145.0</ele><time>2026-05-01T09:56:04.999Z</time></trkpt><trkpt lat="45.082861389348054" lon="13.754937393658373"><ele>145.0</ele><time>2026-05-01T09:56:06.999Z</time></trkpt><trkpt lat="45.08279751658548" lon="13.75491804833903"><ele>145.0</ele><time>2026-05-01T09:56:08.999Z</time></trkpt><trkpt lat="45.082718980156734" lon="13.754845493854775"><ele>145.0</ele><time>2026-05-01T09:56:10.999Z</time></trkpt><trkpt lat="45.08264718876363" lon="13.754778987477156"><ele>145.0</ele><time>2026-05-01T09:56:12.999Z</time></trkpt><trkpt lat="45.082567873133385" lon="13.754676252628084"><ele>145.0</ele><time>2026-05-01T09:56:14.999Z</time></trkpt><trkpt lat="45.082490347683795" lon="13.754572579982643"><ele>145.6</ele><time>2026-05-01T09:56:16.999Z</time></trkpt><trkpt lat="45.08240322611473" lon="13.754495461249755"><ele>146.2</ele><time>2026-05-01T09:56:18.999Z</time></trkpt><trkpt lat="45.08233306990164" lon="13.754408571530044"><ele>146.8</ele><time>2026-05-01T09:56:20.999Z</time></trkpt><trkpt lat="45.08222810624487" lon="13.754324480604279"><ele>147.4</ele><time>2026-05-01T09:56:22.999Z</time></trkpt><trkpt lat="45.08213776923545" lon="13.754210046415562"><ele>148.0</ele><time>2026-05-01T09:56:24.999Z</time></trkpt><trkpt lat="45.08205551584549" lon="13.754085563610268"><ele>148.0</ele><time>2026-05-01T09:56:26.999Z</time></trkpt><trkpt lat="45.08197987657854" lon="13.753976172975387"><ele>148.0</ele><time>2026-05-01T09:56:28.999Z</time></trkpt><trkpt lat="45.08190859936187" lon="13.753839212442882"><ele>148.0</ele><time>2026-05-01T09:56:31Z</time></trkpt><trkpt lat="45.08184064170971" lon="13.75371068431611"><ele>148.0</ele><time>2026-05-01T09:56:33Z</time></trkpt><trkpt lat="45.08176779160628" lon="13.753592178297394"><ele>147.5</ele><time>2026-05-01T09:56:35Z</time></trkpt><trkpt lat="45.081682386139256" lon="13.753480704202909"><ele>147.0</ele><time>2026-05-01T09:56:37Z</time></trkpt><trkpt lat="45.08158483594987" lon="13.753384561842573"><ele>146.5</ele><time>2026-05-01T09:56:39Z</time></trkpt><trkpt lat="45.08148421950233" lon="13.753290512315658"><ele>146.0</ele><time>2026-05-01T09:56:41Z</time></trkpt><trkpt lat="45.08139108166236" lon="13.753204305539088"><ele>146.83333333333331</ele><time>2026-05-01T09:56:43Z</time></trkpt><trkpt lat="45.08130376609531" lon="13.753120215415613"><ele>147.66666666666666</ele><time>2026-05-01T09:56:45Z</time></trkpt><trkpt lat="45.08121662185878" lon="13.753058660826747"><ele>148.5</ele><time>2026-05-01T09:56:47Z</time></trkpt><trkpt lat="45.08115593948558" lon="13.753007062455357"><ele>149.33333333333334</ele><time>2026-05-01T09:56:49Z</time></trkpt><trkpt lat="45.081096483747366" lon="13.752940412283476"><ele>150.16666666666669</ele><time>2026-05-01T09:56:52Z</time></trkpt><trkpt lat="45.081009633976926" lon="13.752886532507558"><ele>151.0</ele><time>2026-05-01T09:56:54Z</time></trkpt><trkpt lat="45.08093591321459" lon="13.752839594580605"><ele>151.0</ele><time>2026-05-01T09:56:56Z</time></trkpt><trkpt lat="45.080866749416856" lon="13.752795056853211"><ele>151.0</ele><time>2026-05-01T09:56:58Z</time></trkpt><trkpt lat="45.08079661624261" lon="13.752741212476769"><ele>151.0</ele><time>2026-05-01T09:57:00Z</time></trkpt><trkpt lat="45.0807198354639" lon="13.752703041148315"><ele>151.0</ele><time>2026-05-01T09:57:02Z</time></trkpt><trkpt lat="45.08065266124154" lon="13.752687681531752"><ele>151.0</ele><time>2026-05-01T09:57:04Z</time></trkpt><trkpt lat="45.08057794315498" lon="13.752629855388413"><ele>151.0</ele><time>2026-05-01T09:57:06Z</time></trkpt><trkpt lat="45.08051356328835" lon="13.7525711247243"><ele>151.0</ele><time>2026-05-01T09:57:08Z</time></trkpt><trkpt lat="45.080445039718015" lon="13.75252205370471"><ele>151.0</ele><time>2026-05-01T09:57:10Z</time></trkpt><trkpt lat="45.080348216634036" lon="13.752538175241613"><ele>151.0</ele><time>2026-05-01T09:57:13Z</time></trkpt><trkpt lat="45.080278068633625" lon="13.752574629748269"><ele>151.0</ele><time>2026-05-01T09:57:15Z</time></trkpt><trkpt lat="45.080193817436815" lon="13.752606036207945"><ele>151.0</ele><time>2026-05-01T09:57:17Z</time></trkpt><trkpt lat="45.08013065647225" lon="13.752618719632439"><ele>151.0</ele><time>2026-05-01T09:57:20Z</time></trkpt><trkpt lat="45.080202126200206" lon="13.752586611922393"><ele>151.0</ele><time>2026-05-01T09:58:21.999Z</time></trkpt><trkpt lat="45.080287275147576" lon="13.75255801633891"><ele>151.0</ele><time>2026-05-01T09:58:24.999Z</time></trkpt><trkpt lat="45.08036902327549" lon="13.75251153469214"><ele>151.0</ele><time>2026-05-01T09:58:27.999Z</time></trkpt><trkpt lat="45.080452797300396" lon="13.752502131271495"><ele>151.0</ele><time>2026-05-01T09:58:30.999Z</time></trkpt><trkpt lat="45.080519994191434" lon="13.752534097762192"><ele>151.0</ele><time>2026-05-01T09:58:33.999Z</time></trkpt><trkpt lat="45.080574249054635" lon="13.752598145469431"><ele>151.0</ele><time>2026-05-01T09:58:36Z</time></trkpt><trkpt lat="45.080631136669666" lon="13.752641466881766"><ele>151.00000000000003</ele><time>2026-05-01T09:58:39Z</time></trkpt><trkpt lat="45.080699751772514" lon="13.752681726937677"><ele>151.0</ele><time>2026-05-01T09:58:42Z</time></trkpt><trkpt lat="45.080767061106165" lon="13.75269844783333"><ele>151.0</ele><time>2026-05-01T09:59:22Z</time></trkpt><trkpt lat="45.08083095107615" lon="13.752732361951441"><ele>151.0</ele><time>2026-05-01T09:59:25Z</time></trkpt><trkpt lat="45.08088856947052" lon="13.752777012692357"><ele>151.0</ele><time>2026-05-01T09:59:52Z</time></trkpt><trkpt lat="45.080965263265796" lon="13.752824084030799"><ele>151.00000000000003</ele><time>2026-05-01T09:59:54Z</time></trkpt><trkpt lat="45.08103269155594" lon="13.752872442148032"><ele>151.0</ele><time>2026-05-01T09:59:55.999Z</time></trkpt><trkpt lat="45.081105815603145" lon="13.752918656799354"><ele>151.00000000000003</ele><time>2026-05-01T09:59:58.999Z</time></trkpt><trkpt lat="45.08116098052537" lon="13.752982163769133"><ele>151.0</ele><time>2026-05-01T10:00:02.999Z</time></trkpt><trkpt lat="45.0812229961683" lon="13.753018262883975"><ele>151.0</ele><time>2026-05-01T10:00:30.999Z</time></trkpt><trkpt lat="45.081285674060744" lon="13.753042322214771"><ele>151.0</ele><time>2026-05-01T10:00:36.999Z</time></trkpt><trkpt lat="45.08121558018125" lon="13.753063855372325"><ele>151.0</ele><time>2026-05-01T10:01:40Z</time></trkpt><trkpt lat="45.08115431439358" lon="13.752988955040546"><ele>151.00000000000003</ele><time>2026-05-01T10:01:43Z</time></trkpt><trkpt lat="45.08108444498174" lon="13.75291881408377"><ele>151.0</ele><time>2026-05-01T10:01:45Z</time></trkpt><trkpt lat="45.08102280486913" lon="13.752886603366786"><ele>151.00000000000003</ele><time>2026-05-01T10:01:48Z</time></trkpt><trkpt lat="45.080950092432595" lon="13.752838890936447"><ele>151.0</ele><time>2026-05-01T10:01:52Z</time></trkpt><trkpt lat="45.08087486969875" lon="13.752803945645189"><ele>151.0</ele><time>2026-05-01T10:01:56Z</time></trkpt><trkpt lat="45.08085535576045" lon="13.752718450979335"><ele>151.0</ele><time>2026-05-01T10:02:05.999Z</time></trkpt><trkpt lat="45.08091942327454" lon="13.752689244897939"><ele>151.0</ele><time>2026-05-01T10:02:11.999Z</time></trkpt><trkpt lat="45.08099209721426" lon="13.752648569241693"><ele>151.00000000000003</ele><time>2026-05-01T10:02:14.999Z</time></trkpt><trkpt lat="45.08106261507616" lon="13.752615358557595"><ele>151.0</ele><time>2026-05-01T10:02:17.999Z</time></trkpt><trkpt lat="45.08111404089275" lon="13.752552996711369"><ele>150.83333333333334</ele><time>2026-05-01T10:02:20.999Z</time></trkpt><trkpt lat="45.08112494423151" lon="13.752462992905098"><ele>150.66666666666669</ele><time>2026-05-01T10:02:22.999Z</time></trkpt><trkpt lat="45.08115110342339" lon="13.752317518076671"><ele>150.5</ele><time>2026-05-01T10:02:24.999Z</time></trkpt><trkpt lat="45.081177739708686" lon="13.752212892153947"><ele>150.33333333333334</ele><time>2026-05-01T10:02:26.999Z</time></trkpt><trkpt lat="45.08119671545135" lon="13.752120250139903"><ele>150.16666666666666</ele><time>2026-05-01T10:02:28.999Z</time></trkpt><trkpt lat="45.08123008595501" lon="13.752024860714485"><ele>150.0</ele><time>2026-05-01T10:02:30.999Z</time></trkpt><trkpt lat="45.08125276356017" lon="13.751899626068518"><ele>150.0</ele><time>2026-05-01T10:02:32.999Z</time></trkpt><trkpt lat="45.08126833251977" lon="13.751790309852334"><ele>150.0</ele><time>2026-05-01T10:02:34.999Z</time></trkpt><trkpt lat="45.08127995808813" lon="13.751689193573903"><ele>150.0</ele><time>2026-05-01T10:02:36.999Z</time></trkpt><trkpt lat="45.08127495954627" lon="13.751594713126407"><ele>150.0</ele><time>2026-05-01T10:02:39.999Z</time></trkpt><trkpt lat="45.08132704153615" lon="13.751473210912504"><ele>150.0</ele><time>2026-05-01T10:02:41.999Z</time></trkpt><trkpt lat="45.08139528420306" lon="13.7513816993923"><ele>150.0</ele><time>2026-05-01T10:02:43.999Z</time></trkpt><trkpt lat="45.081445935372074" lon="13.751308278121817"><ele>150.0</ele><time>2026-05-01T10:02:45.999Z</time></trkpt><trkpt lat="45.08146934278224" lon="13.751185645081595"><ele>150.0</ele><time>2026-05-01T10:02:48Z</time></trkpt><trkpt lat="45.081488716232364" lon="13.751074534533348"><ele>150.0</ele><time>2026-05-01T10:02:50Z</time></trkpt><trkpt lat="45.08149251238016" lon="13.75098002239715"><ele>150.0</ele><time>2026-05-01T10:02:53Z</time></trkpt><trkpt lat="45.08148329160848" lon="13.75088485609332"><ele>150.0</ele><time>2026-05-01T10:02:55Z</time></trkpt><trkpt lat="45.081482546997826" lon="13.750741271117752"><ele>150.0</ele><time>2026-05-01T10:02:59Z</time></trkpt><trkpt lat="45.081489031550056" lon="13.750632656164688"><ele>150.33333333333334</ele><time>2026-05-01T10:03:02Z</time></trkpt><trkpt lat="45.08150131756171" lon="13.750540533065307"><ele>150.66666666666666</ele><time>2026-05-01T10:03:04Z</time></trkpt><trkpt lat="45.08155187072841" lon="13.750459425956516"><ele>151.0</ele><time>2026-05-01T10:03:07Z</time></trkpt><trkpt lat="45.081562321275975" lon="13.750354419685918"><ele>151.33333333333331</ele><time>2026-05-01T10:03:10Z</time></trkpt><trkpt lat="45.081539431292796" lon="13.750268963144356"><ele>151.66666666666666</ele><time>2026-05-01T10:03:12Z</time></trkpt><trkpt lat="45.08150195280075" lon="13.7501357136951"><ele>152.0</ele><time>2026-05-01T10:03:15Z</time></trkpt><trkpt lat="45.08149309500613" lon="13.750022561776056"><ele>152.0</ele><time>2026-05-01T10:03:17Z</time></trkpt><trkpt lat="45.08149916459593" lon="13.749910488789935"><ele>152.0</ele><time>2026-05-01T10:03:19Z</time></trkpt><trkpt lat="45.08146389219133" lon="13.749785368889658"><ele>152.0</ele><time>2026-05-01T10:03:22Z</time></trkpt><trkpt lat="45.08144678939218" lon="13.749670083264343"><ele>152.0</ele><time>2026-05-01T10:03:25Z</time></trkpt><trkpt lat="45.08142022658268" lon="13.749566769455448"><ele>152.0</ele><time>2026-05-01T10:04:15.999Z</time></trkpt><trkpt lat="45.0813947177103" lon="13.749438908521553"><ele>152.0</ele><time>2026-05-01T10:04:18.999Z</time></trkpt><trkpt lat="45.081361521100334" lon="13.749345763016514"><ele>151.57142857142856</ele><time>2026-05-01T10:04:21.999Z</time></trkpt><trkpt lat="45.08134518935142" lon="13.749245758249435"><ele>151.14285714285717</ele><time>2026-05-01T10:04:23.999Z</time></trkpt><trkpt lat="45.08134799041144" lon="13.749151363445403"><ele>150.71428571428572</ele><time>2026-05-01T10:04:25.999Z</time></trkpt><trkpt lat="45.08136889699029" lon="13.749027692517233"><ele>150.28571428571428</ele><time>2026-05-01T10:04:28.999Z</time></trkpt><trkpt lat="45.081381437405874" lon="13.748936794523875"><ele>149.85714285714283</ele><time>2026-05-01T10:04:30.999Z</time></trkpt><trkpt lat="45.08139068452421" lon="13.748844464205975"><ele>149.42857142857142</ele><time>2026-05-01T10:04:32.999Z</time></trkpt><trkpt lat="45.081395429863726" lon="13.748718782159001"><ele>149.0</ele><time>2026-05-01T10:04:34.999Z</time></trkpt><trkpt lat="45.08140284981602" lon="13.748605008957167"><ele>147.83333333333331</ele><time>2026-05-01T10:04:36.999Z</time></trkpt><trkpt lat="45.08137729996283" lon="13.7484666896428"><ele>146.66666666666666</ele><time>2026-05-01T10:04:38.999Z</time></trkpt><trkpt lat="45.08136583207151" lon="13.748341940265064"><ele>145.5</ele><time>2026-05-01T10:04:40.999Z</time></trkpt><trkpt lat="45.08133407153753" lon="13.748212028584186"><ele>144.33333333333334</ele><time>2026-05-01T10:04:42.999Z</time></trkpt><trkpt lat="45.08129262896099" lon="13.74812253732834"><ele>143.16666666666669</ele><time>2026-05-01T10:04:44.999Z</time></trkpt><trkpt lat="45.081243241036475" lon="13.748056962506631"><ele>142.0</ele><time>2026-05-01T10:04:46.999Z</time></trkpt><trkpt lat="45.0811734164977" lon="13.74800574582313"><ele>142.0</ele><time>2026-05-01T10:04:48.999Z</time></trkpt><trkpt lat="45.08110222005112" lon="13.747962887211466"><ele>142.0</ele><time>2026-05-01T10:04:50.999Z</time></trkpt><trkpt lat="45.081039445479185" lon="13.747891516394507"><ele>142.0</ele><time>2026-05-01T10:04:52.999Z</time></trkpt><trkpt lat="45.08098087999628" lon="13.747838329639155"><ele>142.0</ele><time>2026-05-01T10:04:55Z</time></trkpt><trkpt lat="45.08092581945861" lon="13.747778629432405"><ele>142.0</ele><time>2026-05-01T10:04:57Z</time></trkpt><trkpt lat="45.08086711726144" lon="13.74771670255718"><ele>142.0</ele><time>2026-05-01T10:04:59Z</time></trkpt><trkpt lat="45.08079346785592" lon="13.747651605132239"><ele>141.33333333333334</ele><time>2026-05-01T10:05:01Z</time></trkpt><trkpt lat="45.08072555274815" lon="13.747611054418417"><ele>140.66666666666669</ele><time>2026-05-01T10:05:03Z</time></trkpt><trkpt lat="45.08066617949735" lon="13.747557947964482"><ele>140.0</ele><time>2026-05-01T10:05:05Z</time></trkpt><trkpt lat="45.08060244370203" lon="13.747515568954565"><ele>139.33333333333334</ele><time>2026-05-01T10:05:07Z</time></trkpt><trkpt lat="45.08056189363548" lon="13.747436807106743"><ele>138.66666666666666</ele><time>2026-05-01T10:05:10Z</time></trkpt><trkpt lat="45.08056348723651" lon="13.74733247540328"><ele>138.0</ele><time>2026-05-01T10:05:12Z</time></trkpt><trkpt lat="45.08056641428673" lon="13.74720128995735"><ele>138.0</ele><time>2026-05-01T10:05:15Z</time></trkpt><trkpt lat="45.0805813196833" lon="13.747088720081289"><ele>138.0</ele><time>2026-05-01T10:05:17Z</time></trkpt><trkpt lat="45.08059153828197" lon="13.74699479505037"><ele>138.0</ele><time>2026-05-01T10:05:19Z</time></trkpt><trkpt lat="45.08057270347065" lon="13.746902602709417"><ele>138.0</ele><time>2026-05-01T10:05:21Z</time></trkpt><trkpt lat="45.08048459325837" lon="13.746886370174055"><ele>138.0</ele><time>2026-05-01T10:05:24Z</time></trkpt><trkpt lat="45.080399591602806" lon="13.746879007669436"><ele>138.0</ele><time>2026-05-01T10:05:26Z</time></trkpt><trkpt lat="45.080310812199066" lon="13.746861180208192"><ele>136.6</ele><time>2026-05-01T10:05:28Z</time></trkpt><trkpt lat="45.08019859485209" lon="13.746842610088652"><ele>135.20000000000002</ele><time>2026-05-01T10:05:30Z</time></trkpt><trkpt lat="45.080107688888425" lon="13.746821512488559"><ele>133.8</ele><time>2026-05-01T10:05:32Z</time></trkpt><trkpt lat="45.079996760654424" lon="13.746797994131374"><ele>132.4</ele><time>2026-05-01T10:05:34Z</time></trkpt><trkpt lat="45.07987457511847" lon="13.74679153687369"><ele>131.0</ele><time>2026-05-01T10:05:36Z</time></trkpt><trkpt lat="45.07975338236623" lon="13.746766318532167"><ele>130.8</ele><time>2026-05-01T10:05:38Z</time></trkpt><trkpt lat="45.07964513522897" lon="13.746738246348611"><ele>130.6</ele><time>2026-05-01T10:05:40Z</time></trkpt><trkpt lat="45.079541244854006" lon="13.74671234365053"><ele>130.4</ele><time>2026-05-01T10:05:42Z</time></trkpt><trkpt lat="45.07943433122258" lon="13.746693490596337"><ele>130.2</ele><time>2026-05-01T10:05:44Z</time></trkpt><trkpt lat="45.07934679477377" lon="13.746741198141608"><ele>130.0</ele><time>2026-05-01T10:05:46Z</time></trkpt><trkpt lat="45.07928792006274" lon="13.74684024064129"><ele>130.0</ele><time>2026-05-01T10:05:48Z</time></trkpt><trkpt lat="45.07920741597483" lon="13.746855835620677"><ele>130.0</ele><time>2026-05-01T10:05:50Z</time></trkpt><trkpt lat="45.079122174807104" lon="13.746801953411717"><ele>130.0</ele><time>2026-05-01T10:05:52Z</time></trkpt><trkpt lat="45.07902913769235" lon="13.746791733222143"><ele>130.0</ele><time>2026-05-01T10:05:54Z</time></trkpt><trkpt lat="45.07893187452173" lon="13.746785014191541"><ele>130.0</ele><time>2026-05-01T10:05:56Z</time></trkpt><trkpt lat="45.0788368180025" lon="13.74679474891879"><ele>129.66666666666669</ele><time>2026-05-01T10:05:58Z</time></trkpt><trkpt lat="45.07875647975907" lon="13.746866614773792"><ele>129.33333333333334</ele><time>2026-05-01T10:06:00Z</time></trkpt><trkpt lat="45.078724620369414" lon="13.74697876170788"><ele>129.0</ele><time>2026-05-01T10:06:02Z</time></trkpt><trkpt lat="45.07867850908387" lon="13.747087138128732"><ele>128.66666666666666</ele><time>2026-05-01T10:06:04Z</time></trkpt><trkpt lat="45.078589067359324" lon="13.747100748821797"><ele>128.33333333333331</ele><time>2026-05-01T10:06:06Z</time></trkpt><trkpt lat="45.07850414940808" lon="13.747064940728242"><ele>128.0</ele><time>2026-05-01T10:06:08Z</time></trkpt><trkpt lat="45.07840213649009" lon="13.74704747538631"><ele>128.6</ele><time>2026-05-01T10:06:10Z</time></trkpt><trkpt lat="45.07830184803127" lon="13.747034917430991"><ele>129.20000000000002</ele><time>2026-05-01T10:06:11.999Z</time></trkpt><trkpt lat="45.078197357593446" lon="13.74702777418272"><ele>129.8</ele><time>2026-05-01T10:06:13.999Z</time></trkpt><trkpt lat="45.07809892180869" lon="13.747019270468268"><ele>130.4</ele><time>2026-05-01T10:06:15.999Z</time></trkpt><trkpt lat="45.077992806009796" lon="13.747006222452345"><ele>131.0</ele><time>2026-05-01T10:06:17.999Z</time></trkpt><trkpt lat="45.07789267906274" lon="13.746995109301615"><ele>131.0</ele><time>2026-05-01T10:06:19.999Z</time></trkpt><trkpt lat="45.07778208964443" lon="13.746982390381062"><ele>131.0</ele><time>2026-05-01T10:06:21.999Z</time></trkpt><trkpt lat="45.07767377208352" lon="13.74697000706512"><ele>131.0</ele><time>2026-05-01T10:06:23.999Z</time></trkpt><trkpt lat="45.07756305413187" lon="13.746958085379246"><ele>131.0</ele><time>2026-05-01T10:06:25.999Z</time></trkpt><trkpt lat="45.077455498324305" lon="13.746964623221299"><ele>131.0</ele><time>2026-05-01T10:06:27.999Z</time></trkpt><trkpt lat="45.077360504141666" lon="13.746989379541498"><ele>131.2</ele><time>2026-05-01T10:06:29.999Z</time></trkpt><trkpt lat="45.077258615204805" lon="13.747009989302418"><ele>131.39999999999998</ele><time>2026-05-01T10:06:31.999Z</time></trkpt><trkpt lat="45.07716945079604" lon="13.74700846289595"><ele>131.6</ele><time>2026-05-01T10:06:33.999Z</time></trkpt><trkpt lat="45.07708085204327" lon="13.746978409464683"><ele>131.79999999999998</ele><time>2026-05-01T10:06:35.999Z</time></trkpt><trkpt lat="45.07699224773137" lon="13.746949802984744"><ele>132.0</ele><time>2026-05-01T10:06:37.999Z</time></trkpt><trkpt lat="45.07689895935479" lon="13.746918566122417"><ele>132.0</ele><time>2026-05-01T10:06:39.999Z</time></trkpt><trkpt lat="45.07679906049608" lon="13.746885909303945"><ele>132.0</ele><time>2026-05-01T10:06:41.999Z</time></trkpt><trkpt lat="45.076700799799696" lon="13.746850908948474"><ele>132.0</ele><time>2026-05-01T10:06:43.999Z</time></trkpt><trkpt lat="45.07660216042741" lon="13.746818800656772"><ele>132.0</ele><time>2026-05-01T10:06:45.999Z</time></trkpt><trkpt lat="45.07651297404428" lon="13.746779505915518"><ele>132.0</ele><time>2026-05-01T10:06:47.999Z</time></trkpt><trkpt lat="45.07641562091441" lon="13.746742960390705"><ele>132.33333333333334</ele><time>2026-05-01T10:06:49.999Z</time></trkpt><trkpt lat="45.076319157655895" lon="13.746704011718933"><ele>132.66666666666666</ele><time>2026-05-01T10:06:51.999Z</time></trkpt><trkpt lat="45.07623368500693" lon="13.74666635695455"><ele>133.0</ele><time>2026-05-01T10:06:53.999Z</time></trkpt><trkpt lat="45.076141574833315" lon="13.746629458463024"><ele>133.33333333333331</ele><time>2026-05-01T10:06:55.999Z</time></trkpt><trkpt lat="45.076063633534346" lon="13.746603859563034"><ele>133.66666666666666</ele><time>2026-05-01T10:06:57.999Z</time></trkpt><trkpt lat="45.07599724601723" lon="13.746652568644445"><ele>134.0</ele><time>2026-05-01T10:07:00Z</time></trkpt><trkpt lat="45.075993887954944" lon="13.746779524087756"><ele>134.2</ele><time>2026-05-01T10:07:02Z</time></trkpt><trkpt lat="45.075995224818385" lon="13.746922507334991"><ele>134.4</ele><time>2026-05-01T10:07:04Z</time></trkpt><trkpt lat="45.07598544248353" lon="13.74705800848053"><ele>134.6</ele><time>2026-05-01T10:07:06Z</time></trkpt><trkpt lat="45.075985889897616" lon="13.747189879942107"><ele>134.8</ele><time>2026-05-01T10:07:08Z</time></trkpt><trkpt lat="45.07598067874993" lon="13.747343353583098"><ele>135.0</ele><time>2026-05-01T10:07:10Z</time></trkpt><trkpt lat="45.07597640261125" lon="13.747496357878457"><ele>135.0</ele><time>2026-05-01T10:07:12Z</time></trkpt><trkpt lat="45.075981456699246" lon="13.747640570293582"><ele>135.0</ele><time>2026-05-01T10:07:14Z</time></trkpt><trkpt lat="45.075983302417775" lon="13.747777454200785"><ele>135.0</ele><time>2026-05-01T10:07:16Z</time></trkpt><trkpt lat="45.07599212150342" lon="13.7479193516912"><ele>135.0</ele><time>2026-05-01T10:07:18Z</time></trkpt><trkpt lat="45.076002090554084" lon="13.748067308229839"><ele>135.0</ele><time>2026-05-01T10:07:20Z</time></trkpt><trkpt lat="45.076005885207046" lon="13.748211580245103"><ele>135.6</ele><time>2026-05-01T10:07:22Z</time></trkpt><trkpt lat="45.07599618437597" lon="13.748351915435592"><ele>136.2</ele><time>2026-05-01T10:07:24Z</time></trkpt><trkpt lat="45.07599116671789" lon="13.748495992703573"><ele>136.8</ele><time>2026-05-01T10:07:26Z</time></trkpt><trkpt lat="45.07597731967383" lon="13.748639020751687"><ele>137.4</ele><time>2026-05-01T10:07:28Z</time></trkpt><trkpt lat="45.07594731336997" lon="13.748767918908563"><ele>138.0</ele><time>2026-05-01T10:07:30Z</time></trkpt><trkpt lat="45.075903926614004" lon="13.74887401976612"><ele>138.16666666666666</ele><time>2026-05-01T10:07:32Z</time></trkpt><trkpt lat="45.07585248710655" lon="13.74892955991463"><ele>138.33333333333334</ele><time>2026-05-01T10:07:34Z</time></trkpt><trkpt lat="45.07577605501847" lon="13.74896580891965"><ele>138.5</ele><time>2026-05-01T10:07:36Z</time></trkpt><trkpt lat="45.075679513171224" lon="13.748973057915308"><ele>138.66666666666669</ele><time>2026-05-01T10:07:38Z</time></trkpt><trkpt lat="45.07558227890015" lon="13.748977554892976"><ele>138.83333333333334</ele><time>2026-05-01T10:07:40Z</time></trkpt><trkpt lat="45.07549319986776" lon="13.748955289861389"><ele>139.0</ele><time>2026-05-01T10:07:42Z</time></trkpt><trkpt lat="45.07540510741067" lon="13.748918722953226"><ele>138.4</ele><time>2026-05-01T10:07:44Z</time></trkpt><trkpt lat="45.075320940102266" lon="13.748865491031625"><ele>137.8</ele><time>2026-05-01T10:07:46Z</time></trkpt><trkpt lat="45.07524624264199" lon="13.748779471896121"><ele>137.2</ele><time>2026-05-01T10:07:48Z</time></trkpt><trkpt lat="45.07517242706533" lon="13.74870456042783"><ele>136.6</ele><time>2026-05-01T10:07:50Z</time></trkpt><trkpt lat="45.07507398998916" lon="13.74866950867044"><ele>136.0</ele><time>2026-05-01T10:07:52Z</time></trkpt><trkpt lat="45.074974067346716" lon="13.748722119590632"><ele>136.16666666666669</ele><time>2026-05-01T10:07:54Z</time></trkpt><trkpt lat="45.074914109595234" lon="13.748767951777351"><ele>136.33333333333334</ele><time>2026-05-01T10:07:55Z</time></trkpt><trkpt lat="45.074838174372495" lon="13.748816062656115"><ele>136.5</ele><time>2026-05-01T10:07:56Z</time></trkpt><trkpt lat="45.07477553745656" lon="13.748853695676843"><ele>136.66666666666666</ele><time>2026-05-01T10:07:57Z</time></trkpt><trkpt lat="45.074713094719066" lon="13.748883934644248"><ele>136.83333333333331</ele><time>2026-05-01T10:07:58Z</time></trkpt><trkpt lat="45.07465373517164" lon="13.748913749368478"><ele>137.0</ele><time>2026-05-01T10:07:59Z</time></trkpt><trkpt lat="45.074534377388666" lon="13.748946573912688"><ele>137.0</ele><time>2026-05-01T10:08:01Z</time></trkpt><trkpt lat="45.07442764471349" lon="13.748967521938885"><ele>137.0</ele><time>2026-05-01T10:08:03Z</time></trkpt><trkpt lat="45.074334762657266" lon="13.749019272846251"><ele>137.0</ele><time>2026-05-01T10:08:05Z</time></trkpt><trkpt lat="45.07423365226197" lon="13.749108693045475"><ele>137.0</ele><time>2026-05-01T10:08:07Z</time></trkpt><trkpt lat="45.074131480077405" lon="13.749160988490038"><ele>137.0</ele><time>2026-05-01T10:08:09Z</time></trkpt><trkpt lat="45.07403028947171" lon="13.749221884061017"><ele>137.4</ele><time>2026-05-01T10:08:11Z</time></trkpt><trkpt lat="45.07395115534853" lon="13.749323245519317"><ele>137.79999999999998</ele><time>2026-05-01T10:08:13Z</time></trkpt><trkpt lat="45.07387278878408" lon="13.749414586036885"><ele>138.2</ele><time>2026-05-01T10:08:15Z</time></trkpt><trkpt lat="45.073807759292" lon="13.749501534989683"><ele>138.6</ele><time>2026-05-01T10:08:16.999Z</time></trkpt><trkpt lat="45.073762596102505" lon="13.749631214581951"><ele>139.0</ele><time>2026-05-01T10:08:18.999Z</time></trkpt><trkpt lat="45.073732924316296" lon="13.74976164913175"><ele>139.16666666666669</ele><time>2026-05-01T10:08:20.999Z</time></trkpt><trkpt lat="45.073713947535886" lon="13.749873905414352"><ele>139.33333333333334</ele><time>2026-05-01T10:08:22.999Z</time></trkpt><trkpt lat="45.07371453206935" lon="13.750004118913068"><ele>139.5</ele><time>2026-05-01T10:08:24.999Z</time></trkpt><trkpt lat="45.073699347066096" lon="13.750142937346759"><ele>139.66666666666666</ele><time>2026-05-01T10:08:26.999Z</time></trkpt><trkpt lat="45.07366485644055" lon="13.750242674453634"><ele>139.83333333333331</ele><time>2026-05-01T10:08:28.999Z</time></trkpt><trkpt lat="45.07365499610423" lon="13.750334227368992"><ele>140.0</ele><time>2026-05-01T10:08:32.999Z</time></trkpt><trkpt lat="45.0735767772628" lon="13.750232740219376"><ele>140.0</ele><time>2026-05-01T10:08:37.999Z</time></trkpt><trkpt lat="45.073545657462645" lon="13.75015184140637"><ele>140.0</ele><time>2026-05-01T10:08:38.999Z</time></trkpt><trkpt lat="45.0735180736093" lon="13.750067554124653"><ele>140.0</ele><time>2026-05-01T10:08:39.999Z</time></trkpt><trkpt lat="45.07347905804658" lon="13.7499846519846"><ele>140.0</ele><time>2026-05-01T10:08:40.999Z</time></trkpt><trkpt lat="45.07342833165984" lon="13.74990572191694"><ele>140.0</ele><time>2026-05-01T10:08:41.999Z</time></trkpt><trkpt lat="45.07336663260088" lon="13.749822038613202"><ele>140.0</ele><time>2026-05-01T10:08:42.999Z</time></trkpt><trkpt lat="45.073294363744154" lon="13.749734027565525"><ele>139.0</ele><time>2026-05-01T10:08:43.999Z</time></trkpt><trkpt lat="45.07320992319164" lon="13.749640883899513"><ele>138.0</ele><time>2026-05-01T10:08:44.999Z</time></trkpt><trkpt lat="45.07314086151505" lon="13.749560171346275"><ele>137.0</ele><time>2026-05-01T10:08:45.999Z</time></trkpt><trkpt lat="45.07308405978211" lon="13.749487421475077"><ele>136.0</ele><time>2026-05-01T10:08:46.999Z</time></trkpt><trkpt lat="45.07302843385677" lon="13.749405362312855"><ele>135.0</ele><time>2026-05-01T10:08:47.999Z</time></trkpt><trkpt lat="45.0729885165148" lon="13.749308637021528"><ele>134.0</ele><time>2026-05-01T10:08:48.999Z</time></trkpt><trkpt lat="45.07295919362121" lon="13.749192414756171"><ele>134.0</ele><time>2026-05-01T10:08:49.999Z</time></trkpt><trkpt lat="45.07292557782423" lon="13.74907537260953"><ele>134.0</ele><time>2026-05-01T10:08:50.999Z</time></trkpt><trkpt lat="45.07289457958908" lon="13.748963860141982"><ele>134.0</ele><time>2026-05-01T10:08:51.999Z</time></trkpt><trkpt lat="45.07286833905671" lon="13.748851577851442"><ele>134.0</ele><time>2026-05-01T10:08:52.999Z</time></trkpt><trkpt lat="45.07284460484211" lon="13.748746285489823"><ele>134.0</ele><time>2026-05-01T10:08:53.999Z</time></trkpt><trkpt lat="45.07282831842748" lon="13.748659302750116"><ele>134.0</ele><time>2026-05-01T10:08:54.999Z</time></trkpt><trkpt lat="45.07281149172612" lon="13.748567370529804"><ele>133.85714285714286</ele><time>2026-05-01T10:08:55.999Z</time></trkpt><trkpt lat="45.07279451406386" lon="13.748474897054342"><ele>133.71428571428572</ele><time>2026-05-01T10:08:56.999Z</time></trkpt><trkpt lat="45.07278436987086" lon="13.748374917150924"><ele>133.57142857142856</ele><time>2026-05-01T10:08:57.999Z</time></trkpt><trkpt lat="45.072783590812755" lon="13.748274605821754"><ele>133.42857142857144</ele><time>2026-05-01T10:08:58.999Z</time></trkpt><trkpt lat="45.0727890303437" lon="13.748168733066805"><ele>133.28571428571428</ele><time>2026-05-01T10:08:59.999Z</time></trkpt><trkpt lat="45.072787814960904" lon="13.748071254947062"><ele>133.14285714285714</ele><time>2026-05-01T10:09:00.999Z</time></trkpt><trkpt lat="45.072772044242235" lon="13.7479607229525"><ele>133.0</ele><time>2026-05-01T10:09:01.999Z</time></trkpt><trkpt lat="45.072739360509544" lon="13.747852032688096"><ele>133.0</ele><time>2026-05-01T10:09:02.999Z</time></trkpt><trkpt lat="45.07270970372717" lon="13.74775804018235"><ele>133.0</ele><time>2026-05-01T10:09:03.999Z</time></trkpt><trkpt lat="45.07268091934777" lon="13.74765574710273"><ele>133.0</ele><time>2026-05-01T10:09:04.999Z</time></trkpt><trkpt lat="45.07265892597955" lon="13.747553735480992"><ele>133.0</ele><time>2026-05-01T10:09:06Z</time></trkpt><trkpt lat="45.07264258031601" lon="13.747448238471803"><ele>133.0</ele><time>2026-05-01T10:09:07Z</time></trkpt><trkpt lat="45.07262491643693" lon="13.747329234259142"><ele>133.0</ele><time>2026-05-01T10:09:08Z</time></trkpt><trkpt lat="45.07260605068409" lon="13.74720628222869"><ele>133.0</ele><time>2026-05-01T10:09:09Z</time></trkpt><trkpt lat="45.0725880214159" lon="13.747093418061478"><ele>133.0</ele><time>2026-05-01T10:09:10Z</time></trkpt><trkpt lat="45.072572883215365" lon="13.746991930722677"><ele>133.0</ele><time>2026-05-01T10:09:11Z</time></trkpt><trkpt lat="45.07255970595255" lon="13.746894248061253"><ele>133.0</ele><time>2026-05-01T10:09:12Z</time></trkpt><trkpt lat="45.072540092999084" lon="13.746793885265834"><ele>133.0</ele><time>2026-05-01T10:09:13Z</time></trkpt><trkpt lat="45.07251434136759" lon="13.746692609983974"><ele>133.0</ele><time>2026-05-01T10:09:14Z</time></trkpt><trkpt lat="45.07248033530287" lon="13.746596606873213"><ele>133.0</ele><time>2026-05-01T10:09:15Z</time></trkpt><trkpt lat="45.072444135641454" lon="13.74650963928023"><ele>133.0</ele><time>2026-05-01T10:09:16Z</time></trkpt><trkpt lat="45.072405773062926" lon="13.746424200420105"><ele>133.0</ele><time>2026-05-01T10:09:17Z</time></trkpt><trkpt lat="45.07237349880922" lon="13.746337137248458"><ele>133.0</ele><time>2026-05-01T10:09:18Z</time></trkpt><trkpt lat="45.07234200622181" lon="13.7462565814729"><ele>133.0</ele><time>2026-05-01T10:09:19Z</time></trkpt><trkpt lat="45.072304078733794" lon="13.746176650204283"><ele>133.0</ele><time>2026-05-01T10:09:20Z</time></trkpt><trkpt lat="45.07224681296191" lon="13.74609740032411"><ele>133.0</ele><time>2026-05-01T10:09:21Z</time></trkpt><trkpt lat="45.072190348302136" lon="13.746034103193539"><ele>133.20000000000002</ele><time>2026-05-01T10:09:22Z</time></trkpt><trkpt lat="45.07209563594654" lon="13.745922662878334"><ele>133.4</ele><time>2026-05-01T10:09:24Z</time></trkpt><trkpt lat="45.0720308081312" lon="13.745763661660709"><ele>133.60000000000002</ele><time>2026-05-01T10:09:26Z</time></trkpt><trkpt lat="45.07201304415991" lon="13.745664035232537"><ele>133.8</ele><time>2026-05-01T10:09:27Z</time></trkpt><trkpt lat="45.07199975909411" lon="13.745563462642695"><ele>134.0</ele><time>2026-05-01T10:09:28Z</time></trkpt><trkpt lat="45.07198901928149" lon="13.745465356928468"><ele>134.0</ele><time>2026-05-01T10:09:29Z</time></trkpt><trkpt lat="45.07197098498046" lon="13.745371135419346"><ele>134.0</ele><time>2026-05-01T10:09:30Z</time></trkpt><trkpt lat="45.07194055085452" lon="13.745279092772188"><ele>134.0</ele><time>2026-05-01T10:09:31Z</time></trkpt><trkpt lat="45.07190508646648" lon="13.745187991873408"><ele>134.0</ele><time>2026-05-01T10:09:32Z</time></trkpt><trkpt lat="45.0718703238985" lon="13.745098684421187"><ele>134.0</ele><time>2026-05-01T10:09:33Z</time></trkpt><trkpt lat="45.071831415575836" lon="13.745006314785334"><ele>134.0</ele><time>2026-05-01T10:09:34Z</time></trkpt><trkpt lat="45.07179509867442" lon="13.744906957292459"><ele>134.0</ele><time>2026-05-01T10:09:35Z</time></trkpt><trkpt lat="45.07176781171123" lon="13.744809089024505"><ele>134.0</ele><time>2026-05-01T10:09:36Z</time></trkpt><trkpt lat="45.071739285871764" lon="13.744710765288369"><ele>134.0</ele><time>2026-05-01T10:09:37Z</time></trkpt><trkpt lat="45.07171170317284" lon="13.74462406134654"><ele>134.0</ele><time>2026-05-01T10:09:38Z</time></trkpt><trkpt lat="45.07168437925964" lon="13.744539236239005"><ele>134.0</ele><time>2026-05-01T10:09:39Z</time></trkpt><trkpt lat="45.07166431208475" lon="13.744442387913491"><ele>134.0</ele><time>2026-05-01T10:09:40Z</time></trkpt><trkpt lat="45.07164995882637" lon="13.744330700443783"><ele>134.0</ele><time>2026-05-01T10:09:41Z</time></trkpt><trkpt lat="45.071634225035396" lon="13.744209415926074"><ele>134.0</ele><time>2026-05-01T10:09:42Z</time></trkpt><trkpt lat="45.071620251652654" lon="13.744090623243869"><ele>134.0</ele><time>2026-05-01T10:09:43Z</time></trkpt><trkpt lat="45.07160845964118" lon="13.743972140138421"><ele>134.0</ele><time>2026-05-01T10:09:44Z</time></trkpt><trkpt lat="45.071596365195866" lon="13.743849249401329"><ele>134.0</ele><time>2026-05-01T10:09:45Z</time></trkpt><trkpt lat="45.07157870914926" lon="13.743732911175348"><ele>134.0</ele><time>2026-05-01T10:09:46Z</time></trkpt><trkpt lat="45.07156038758069" lon="13.74362817361335"><ele>134.0</ele><time>2026-05-01T10:09:47Z</time></trkpt><trkpt lat="45.07153571638279" lon="13.743515862796409"><ele>134.0</ele><time>2026-05-01T10:09:48Z</time></trkpt><trkpt lat="45.07151057058376" lon="13.743401153808573"><ele>134.33333333333331</ele><time>2026-05-01T10:09:49Z</time></trkpt><trkpt lat="45.071497219829915" lon="13.743290704628306"><ele>134.66666666666666</ele><time>2026-05-01T10:09:50Z</time></trkpt><trkpt lat="45.07148489285455" lon="13.743176878290122"><ele>135.0</ele><time>2026-05-01T10:09:51Z</time></trkpt><trkpt lat="45.07147298417819" lon="13.743060992917384"><ele>135.33333333333334</ele><time>2026-05-01T10:09:52Z</time></trkpt><trkpt lat="45.07145250057973" lon="13.742952562216258"><ele>135.66666666666669</ele><time>2026-05-01T10:09:53Z</time></trkpt><trkpt lat="45.07142753076135" lon="13.742854423143525"><ele>136.0</ele><time>2026-05-01T10:09:54Z</time></trkpt><trkpt lat="45.07141119970923" lon="13.742754538167851"><ele>135.66666666666669</ele><time>2026-05-01T10:09:55Z</time></trkpt><trkpt lat="45.07141146993857" lon="13.742651763051239"><ele>135.33333333333334</ele><time>2026-05-01T10:09:56Z</time></trkpt><trkpt lat="45.07141932745223" lon="13.742550361866607"><ele>135.0</ele><time>2026-05-01T10:09:57Z</time></trkpt><trkpt lat="45.07143191241785" lon="13.742454880589174"><ele>134.66666666666666</ele><time>2026-05-01T10:09:58Z</time></trkpt><trkpt lat="45.071455040186976" lon="13.742293687663095"><ele>134.33333333333331</ele><time>2026-05-01T10:10:00Z</time></trkpt><trkpt lat="45.071467321634" lon="13.742198530665684"><ele>134.0</ele><time>2026-05-01T10:10:01Z</time></trkpt><trkpt lat="45.07147989975145" lon="13.74209631710494"><ele>134.0</ele><time>2026-05-01T10:10:02Z</time></trkpt><trkpt lat="45.07148699124099" lon="13.74198611809638"><ele>134.0</ele><time>2026-05-01T10:10:03Z</time></trkpt><trkpt lat="45.071486942623444" lon="13.74187463419326"><ele>134.0</ele><time>2026-05-01T10:10:04Z</time></trkpt><trkpt lat="45.07148083968162" lon="13.741763500320303"><ele>134.0</ele><time>2026-05-01T10:10:05Z</time></trkpt><trkpt lat="45.07147259289799" lon="13.741662453634902"><ele>134.0</ele><time>2026-05-01T10:10:06Z</time></trkpt><trkpt lat="45.071463822794364" lon="13.741572439956501"><ele>134.0</ele><time>2026-05-01T10:10:07Z</time></trkpt><trkpt lat="45.071448939258914" lon="13.741421433512581"><ele>133.6</ele><time>2026-05-01T10:10:09Z</time></trkpt><trkpt lat="45.07144078540325" lon="13.741249729647478"><ele>133.2</ele><time>2026-05-01T10:10:11Z</time></trkpt><trkpt lat="45.07144383130702" lon="13.741156043845914"><ele>132.79999999999998</ele><time>2026-05-01T10:10:12Z</time></trkpt><trkpt lat="45.07145560264969" lon="13.741065810623953"><ele>132.4</ele><time>2026-05-01T10:10:13Z</time></trkpt><trkpt lat="45.071478162258785" lon="13.740911494464422"><ele>132.0</ele><time>2026-05-01T10:10:15Z</time></trkpt><trkpt lat="45.07144263973388" lon="13.740742248822444"><ele>132.0</ele><time>2026-05-01T10:10:17Z</time></trkpt><trkpt lat="45.07142201016663" lon="13.740646401414775"><ele>132.0</ele><time>2026-05-01T10:10:18Z</time></trkpt><trkpt lat="45.07139244305604" lon="13.740477414702497"><ele>132.0</ele><time>2026-05-01T10:10:20Z</time></trkpt><trkpt lat="45.07138544377354" lon="13.740377363401612"><ele>132.0</ele><time>2026-05-01T10:10:21Z</time></trkpt><trkpt lat="45.07138066595212" lon="13.740269118037933"><ele>132.0</ele><time>2026-05-01T10:10:22Z</time></trkpt><trkpt lat="45.071382680086074" lon="13.74016549604067"><ele>132.0</ele><time>2026-05-01T10:10:23Z</time></trkpt><trkpt lat="45.07139096900406" lon="13.740066131457537"><ele>131.5</ele><time>2026-05-01T10:10:24Z</time></trkpt><trkpt lat="45.071398365728534" lon="13.739977470590217"><ele>131.0</ele><time>2026-05-01T10:10:25Z</time></trkpt><trkpt lat="45.071411943475084" lon="13.73981091519924"><ele>130.5</ele><time>2026-05-01T10:10:27Z</time></trkpt><trkpt lat="45.07141010340426" lon="13.739711842016984"><ele>130.0</ele><time>2026-05-01T10:10:28Z</time></trkpt><trkpt lat="45.07140077055884" lon="13.739619750735391"><ele>129.5</ele><time>2026-05-01T10:10:29Z</time></trkpt><trkpt lat="45.071365238050994" lon="13.73946268799025"><ele>129.0</ele><time>2026-05-01T10:10:31Z</time></trkpt><trkpt lat="45.07131527504517" lon="13.739305785865843"><ele>128.5</ele><time>2026-05-01T10:10:32.999Z</time></trkpt><trkpt lat="45.071282894219294" lon="13.739219183477294"><ele>128.0</ele><time>2026-05-01T10:10:33.999Z</time></trkpt><trkpt lat="45.071239131460175" lon="13.739132893991671"><ele>127.5</ele><time>2026-05-01T10:10:34.999Z</time></trkpt><trkpt lat="45.071191874029964" lon="13.739041757258233"><ele>127.0</ele><time>2026-05-01T10:10:35.999Z</time></trkpt><trkpt lat="45.0711527887898" lon="13.738955689115322"><ele>126.5</ele><time>2026-05-01T10:10:36.999Z</time></trkpt><trkpt lat="45.071092632258086" lon="13.738799238711797"><ele>126.0</ele><time>2026-05-01T10:10:38.999Z</time></trkpt><trkpt lat="45.0710547417467" lon="13.73871569166853"><ele>126.0</ele><time>2026-05-01T10:10:39.999Z</time></trkpt><trkpt lat="45.071018563745284" lon="13.738630060589879"><ele>126.0</ele><time>2026-05-01T10:10:40.999Z</time></trkpt><trkpt lat="45.07098452763039" lon="13.738552082004052"><ele>126.0</ele><time>2026-05-01T10:10:41.999Z</time></trkpt><trkpt lat="45.070920367126895" lon="13.738401943990711"><ele>126.0</ele><time>2026-05-01T10:10:43.999Z</time></trkpt><trkpt lat="45.070862840228244" lon="13.738237038779808"><ele>126.0</ele><time>2026-05-01T10:10:45.999Z</time></trkpt><trkpt lat="45.070831241745815" lon="13.738140329251257"><ele>125.71428571428572</ele><time>2026-05-01T10:10:46.999Z</time></trkpt><trkpt lat="45.07080353737143" lon="13.73804790991991"><ele>125.42857142857143</ele><time>2026-05-01T10:10:47.999Z</time></trkpt><trkpt lat="45.07077041716569" lon="13.737965116476266"><ele>125.14285714285714</ele><time>2026-05-01T10:10:48.999Z</time></trkpt><trkpt lat="45.07073085814547" lon="13.737888062579893"><ele>124.85714285714286</ele><time>2026-05-01T10:10:49.999Z</time></trkpt><trkpt lat="45.07069638933807" lon="13.737810350197474"><ele>124.57142857142858</ele><time>2026-05-01T10:10:50.999Z</time></trkpt><trkpt lat="45.07065678845617" lon="13.737724178808868"><ele>124.28571428571429</ele><time>2026-05-01T10:10:51.999Z</time></trkpt><trkpt lat="45.07061222795757" lon="13.737647011352783"><ele>124.0</ele><time>2026-05-01T10:10:52.999Z</time></trkpt><trkpt lat="45.070561167950466" lon="13.737570215371663"><ele>123.33333333333334</ele><time>2026-05-01T10:10:53.999Z</time></trkpt><trkpt lat="45.070512358307525" lon="13.73748639705208"><ele>122.66666666666667</ele><time>2026-05-01T10:10:54.999Z</time></trkpt><trkpt lat="45.07046016577582" lon="13.737409710429201"><ele>122.0</ele><time>2026-05-01T10:10:55.999Z</time></trkpt><trkpt lat="45.070402672834064" lon="13.737336888138794"><ele>121.33333333333334</ele><time>2026-05-01T10:10:56.999Z</time></trkpt><trkpt lat="45.070342972057105" lon="13.737273015579401"><ele>120.66666666666667</ele><time>2026-05-01T10:10:57.999Z</time></trkpt><trkpt lat="45.070282478625174" lon="13.737210398876194"><ele>120.0</ele><time>2026-05-01T10:10:58.999Z</time></trkpt><trkpt lat="45.070229701493794" lon="13.737140201179438"><ele>120.0</ele><time>2026-05-01T10:10:59.999Z</time></trkpt><trkpt lat="45.07018760285446" lon="13.73706471200998"><ele>120.0</ele><time>2026-05-01T10:11:00.999Z</time></trkpt><trkpt lat="45.07013907732617" lon="13.736985900586955"><ele>120.0</ele><time>2026-05-01T10:11:01.999Z</time></trkpt><trkpt lat="45.07009146111915" lon="13.73689764026807"><ele>120.0</ele><time>2026-05-01T10:11:02.999Z</time></trkpt><trkpt lat="45.07004770173128" lon="13.736812277201683"><ele>120.0</ele><time>2026-05-01T10:11:03.999Z</time></trkpt><trkpt lat="45.070010288324845" lon="13.73673882571123"><ele>120.0</ele><time>2026-05-01T10:11:04.999Z</time></trkpt><trkpt lat="45.06992048619899" lon="13.736593515070094"><ele>119.42857142857143</ele><time>2026-05-01T10:11:06.999Z</time></trkpt><trkpt lat="45.06986191468248" lon="13.736513726532028"><ele>118.85714285714286</ele><time>2026-05-01T10:11:07.999Z</time></trkpt><trkpt lat="45.069808540396544" lon="13.736446112171542"><ele>118.28571428571429</ele><time>2026-05-01T10:11:08.999Z</time></trkpt><trkpt lat="45.06975050126409" lon="13.736379309729077"><ele>117.71428571428572</ele><time>2026-05-01T10:11:09.999Z</time></trkpt><trkpt lat="45.06970039875124" lon="13.736313240149613"><ele>117.14285714285714</ele><time>2026-05-01T10:11:11Z</time></trkpt><trkpt lat="45.06964900530844" lon="13.736240641669147"><ele>116.57142857142858</ele><time>2026-05-01T10:11:12Z</time></trkpt><trkpt lat="45.06960373488801" lon="13.736173317369676"><ele>116.00000000000001</ele><time>2026-05-01T10:11:13Z</time></trkpt><trkpt lat="45.06955303584685" lon="13.7361136843443"><ele>115.66666666666666</ele><time>2026-05-01T10:11:14Z</time></trkpt><trkpt lat="45.0694492996038" lon="13.73601186993002"><ele>115.33333333333333</ele><time>2026-05-01T10:11:16Z</time></trkpt><trkpt lat="45.06939296848252" lon="13.735962368684504"><ele>115.0</ele><time>2026-05-01T10:11:17Z</time></trkpt><trkpt lat="45.06933379458819" lon="13.73591482928586"><ele>114.66666666666666</ele><time>2026-05-01T10:11:18Z</time></trkpt><trkpt lat="45.0692694133367" lon="13.735860984066205"><ele>114.33333333333333</ele><time>2026-05-01T10:11:19Z</time></trkpt><trkpt lat="45.06921151997099" lon="13.735803344283084"><ele>114.0</ele><time>2026-05-01T10:11:20Z</time></trkpt><trkpt lat="45.06916041931625" lon="13.735736889628132"><ele>114.0</ele><time>2026-05-01T10:11:21Z</time></trkpt><trkpt lat="45.06911403679414" lon="13.7356579465364"><ele>113.99999999999999</ele><time>2026-05-01T10:11:22Z</time></trkpt><trkpt lat="45.06907290386785" lon="13.735582413944227"><ele>114.0</ele><time>2026-05-01T10:11:23Z</time></trkpt><trkpt lat="45.069021988185305" lon="13.735499712460406"><ele>114.0</ele><time>2026-05-01T10:11:24Z</time></trkpt><trkpt lat="45.06896794333671" lon="13.73542475139274"><ele>113.99999999999999</ele><time>2026-05-01T10:11:25Z</time></trkpt><trkpt lat="45.068914976088294" lon="13.73536181870941"><ele>114.0</ele><time>2026-05-01T10:11:26Z</time></trkpt><trkpt lat="45.06886919779044" lon="13.735297395656298"><ele>114.0</ele><time>2026-05-01T10:11:27Z</time></trkpt><trkpt lat="45.068815803519996" lon="13.735227824620337"><ele>113.0</ele><time>2026-05-01T10:11:28Z</time></trkpt><trkpt lat="45.06875901216601" lon="13.73516769418934"><ele>111.99999999999999</ele><time>2026-05-01T10:11:29Z</time></trkpt><trkpt lat="45.06870706172888" lon="13.73510345267318"><ele>111.0</ele><time>2026-05-01T10:11:30Z</time></trkpt><trkpt lat="45.06865981064587" lon="13.735026000327267"><ele>110.0</ele><time>2026-05-01T10:11:31Z</time></trkpt><trkpt lat="45.06860654531713" lon="13.734946226737843"><ele>109.0</ele><time>2026-05-01T10:11:32Z</time></trkpt><trkpt lat="45.068554961973454" lon="13.734872952586917"><ele>108.0</ele><time>2026-05-01T10:11:33Z</time></trkpt><trkpt lat="45.06850018900547" lon="13.734801092913559"><ele>107.0</ele><time>2026-05-01T10:11:34Z</time></trkpt><trkpt lat="45.06845237571211" lon="13.734738486571587"><ele>107.0</ele><time>2026-05-01T10:11:35Z</time></trkpt><trkpt lat="45.06839656622174" lon="13.734676071064978"><ele>106.99999999999999</ele><time>2026-05-01T10:11:36Z</time></trkpt><trkpt lat="45.068338426428504" lon="13.734608038307872"><ele>106.99999999999999</ele><time>2026-05-01T10:11:37Z</time></trkpt><trkpt lat="45.06828474943059" lon="13.73454228779115"><ele>107.0</ele><time>2026-05-01T10:11:38Z</time></trkpt><trkpt lat="45.068198522405304" lon="13.734434020840453"><ele>107.0</ele><time>2026-05-01T10:11:40Z</time></trkpt><trkpt lat="45.06815384967195" lon="13.734277439035324"><ele>106.0</ele><time>2026-05-01T10:11:42Z</time></trkpt><trkpt lat="45.068136504907976" lon="13.734180416271228"><ele>104.99999999999999</ele><time>2026-05-01T10:11:43Z</time></trkpt><trkpt lat="45.06810366995293" lon="13.734019919415962"><ele>104.0</ele><time>2026-05-01T10:11:45Z</time></trkpt><trkpt lat="45.06802021291671" lon="13.733870127361223"><ele>103.0</ele><time>2026-05-01T10:11:47Z</time></trkpt><trkpt lat="45.06797028315203" lon="13.733811978636227"><ele>102.0</ele><time>2026-05-01T10:11:48Z</time></trkpt><trkpt lat="45.067919309584575" lon="13.733757570369342"><ele>102.0</ele><time>2026-05-01T10:11:49Z</time></trkpt><trkpt lat="45.067830281174494" lon="13.73362763543189"><ele>102.0</ele><time>2026-05-01T10:11:51Z</time></trkpt><trkpt lat="45.067786723902984" lon="13.733559631901791"><ele>102.0</ele><time>2026-05-01T10:11:52Z</time></trkpt><trkpt lat="45.067742006338946" lon="13.733479308803995"><ele>102.0</ele><time>2026-05-01T10:11:53Z</time></trkpt><trkpt lat="45.067686984113955" lon="13.733399860707312"><ele>102.0</ele><time>2026-05-01T10:11:54Z</time></trkpt><trkpt lat="45.067632276686204" lon="13.733340269010544"><ele>102.0</ele><time>2026-05-01T10:11:55Z</time></trkpt><trkpt lat="45.06758319693375" lon="13.733280510747145"><ele>102.0</ele><time>2026-05-01T10:11:56Z</time></trkpt><trkpt lat="45.06753352994895" lon="13.733214144723254"><ele>102.0</ele><time>2026-05-01T10:11:57Z</time></trkpt><trkpt lat="45.06747444012309" lon="13.73314905776258"><ele>102.0</ele><time>2026-05-01T10:11:58Z</time></trkpt><trkpt lat="45.06741234287194" lon="13.733092485389749"><ele>102.0</ele><time>2026-05-01T10:11:59Z</time></trkpt><trkpt lat="45.06735060079893" lon="13.733037503324015"><ele>102.0</ele><time>2026-05-01T10:12:00Z</time></trkpt><trkpt lat="45.067288368669594" lon="13.732988771342477"><ele>102.0</ele><time>2026-05-01T10:12:01Z</time></trkpt><trkpt lat="45.06722619022946" lon="13.732951284468363"><ele>102.0</ele><time>2026-05-01T10:12:02Z</time></trkpt><trkpt lat="45.06716341686967" lon="13.732902871252568"><ele>101.5</ele><time>2026-05-01T10:12:03Z</time></trkpt><trkpt lat="45.06709955729517" lon="13.732843019209657"><ele>101.0</ele><time>2026-05-01T10:12:04Z</time></trkpt><trkpt lat="45.06703880485542" lon="13.732793715553962"><ele>100.5</ele><time>2026-05-01T10:12:05Z</time></trkpt><trkpt lat="45.06693158074901" lon="13.732711818394355"><ele>100.0</ele><time>2026-05-01T10:12:07Z</time></trkpt><trkpt lat="45.066873548843844" lon="13.732662375783907"><ele>99.5</ele><time>2026-05-01T10:12:08Z</time></trkpt><trkpt lat="45.06682217108472" lon="13.732606312783238"><ele>99.0</ele><time>2026-05-01T10:12:09Z</time></trkpt><trkpt lat="45.066771836517034" lon="13.732546157867185"><ele>98.80000000000001</ele><time>2026-05-01T10:12:10Z</time></trkpt><trkpt lat="45.066691125431426" lon="13.732421356063114"><ele>98.60000000000001</ele><time>2026-05-01T10:12:12Z</time></trkpt><trkpt lat="45.06662974182533" lon="13.732264276441848"><ele>98.4</ele><time>2026-05-01T10:12:14Z</time></trkpt><trkpt lat="45.06660514560693" lon="13.732171703237649"><ele>98.2</ele><time>2026-05-01T10:12:15Z</time></trkpt><trkpt lat="45.06657733074073" lon="13.73207471588517"><ele>98.0</ele><time>2026-05-01T10:12:16Z</time></trkpt><trkpt lat="45.066550854178736" lon="13.731982540550877"><ele>97.66666666666666</ele><time>2026-05-01T10:12:17Z</time></trkpt><trkpt lat="45.06652753156701" lon="13.731897619910592"><ele>97.33333333333333</ele><time>2026-05-01T10:12:18Z</time></trkpt><trkpt lat="45.06648974986467" lon="13.731735126220043"><ele>97.0</ele><time>2026-05-01T10:12:20Z</time></trkpt><trkpt lat="45.066470058424585" lon="13.73164993663321"><ele>96.66666666666666</ele><time>2026-05-01T10:12:21Z</time></trkpt><trkpt lat="45.066440222920896" lon="13.731560414260242"><ele>96.33333333333333</ele><time>2026-05-01T10:12:22Z</time></trkpt><trkpt lat="45.06641385469074" lon="13.731473404465765"><ele>96.0</ele><time>2026-05-01T10:12:23Z</time></trkpt><trkpt lat="45.06638669911858" lon="13.731389846438088"><ele>95.8</ele><time>2026-05-01T10:12:24Z</time></trkpt><trkpt lat="45.06631708757838" lon="13.731237238204073"><ele>95.6</ele><time>2026-05-01T10:12:26Z</time></trkpt><trkpt lat="45.06623730392645" lon="13.731131872152474"><ele>95.4</ele><time>2026-05-01T10:12:28Z</time></trkpt><trkpt lat="45.06617306395482" lon="13.731003512670322"><ele>95.2</ele><time>2026-05-01T10:12:30Z</time></trkpt><trkpt lat="45.06615057739756" lon="13.730914941994326"><ele>95.0</ele><time>2026-05-01T10:12:31Z</time></trkpt><trkpt lat="45.06612704928201" lon="13.73082529638798"><ele>94.83333333333334</ele><time>2026-05-01T10:12:32Z</time></trkpt><trkpt lat="45.06609723203677" lon="13.730738810752605"><ele>94.66666666666667</ele><time>2026-05-01T10:12:33Z</time></trkpt><trkpt lat="45.06606499234616" lon="13.730647558811516"><ele>94.5</ele><time>2026-05-01T10:12:34Z</time></trkpt><trkpt lat="45.06603600648196" lon="13.730568093156977"><ele>94.33333333333333</ele><time>2026-05-01T10:12:35Z</time></trkpt><trkpt lat="45.06599849848058" lon="13.730495280168999"><ele>94.16666666666666</ele><time>2026-05-01T10:12:36Z</time></trkpt><trkpt lat="45.06591096393246" lon="13.730373611597283"><ele>94.0</ele><time>2026-05-01T10:12:38Z</time></trkpt><trkpt lat="45.06585533622607" lon="13.73030528717079"><ele>94.0</ele><time>2026-05-01T10:12:39Z</time></trkpt><trkpt lat="45.0658030386332" lon="13.730230148563418"><ele>94.0</ele><time>2026-05-01T10:12:40Z</time></trkpt><trkpt lat="45.065739245516305" lon="13.730153166801227"><ele>94.0</ele><time>2026-05-01T10:12:41Z</time></trkpt><trkpt lat="45.065685198130915" lon="13.73009484623655"><ele>94.0</ele><time>2026-05-01T10:12:41.999Z</time></trkpt><trkpt lat="45.06562554741849" lon="13.730034184656102"><ele>94.0</ele><time>2026-05-01T10:12:42.999Z</time></trkpt><trkpt lat="45.06556794006237" lon="13.729969184815648"><ele>94.0</ele><time>2026-05-01T10:12:43.999Z</time></trkpt><trkpt lat="45.06550955151145" lon="13.729900261974015"><ele>94.0</ele><time>2026-05-01T10:12:44.999Z</time></trkpt><trkpt lat="45.06544848792448" lon="13.729828347814848"><ele>93.0</ele><time>2026-05-01T10:12:45.999Z</time></trkpt><trkpt lat="45.06539313800122" lon="13.729758011361278"><ele>92.0</ele><time>2026-05-01T10:12:46.999Z</time></trkpt><trkpt lat="45.065330992975085" lon="13.729689343602042"><ele>91.0</ele><time>2026-05-01T10:12:47.999Z</time></trkpt><trkpt lat="45.0652777397834" lon="13.729622257125847"><ele>90.0</ele><time>2026-05-01T10:12:48.999Z</time></trkpt><trkpt lat="45.06523584964595" lon="13.729540896187697"><ele>89.0</ele><time>2026-05-01T10:12:49.999Z</time></trkpt><trkpt lat="45.06519435056055" lon="13.729468161409654"><ele>88.0</ele><time>2026-05-01T10:12:50.999Z</time></trkpt><trkpt lat="45.06513708330907" lon="13.729413599939843"><ele>87.0</ele><time>2026-05-01T10:12:51.999Z</time></trkpt><trkpt lat="45.06506515958045" lon="13.72936859772888"><ele>86.85714285714286</ele><time>2026-05-01T10:12:52.999Z</time></trkpt><trkpt lat="45.064991378677355" lon="13.729319497832899"><ele>86.71428571428572</ele><time>2026-05-01T10:12:53.999Z</time></trkpt><trkpt lat="45.0649227788245" lon="13.729265324483997"><ele>86.57142857142858</ele><time>2026-05-01T10:12:54.999Z</time></trkpt><trkpt lat="45.06486071759148" lon="13.729221697658527"><ele>86.42857142857143</ele><time>2026-05-01T10:12:55.999Z</time></trkpt><trkpt lat="45.06479713103757" lon="13.729178356499753"><ele>86.28571428571429</ele><time>2026-05-01T10:12:56.999Z</time></trkpt><trkpt lat="45.064737351606816" lon="13.729123514196754"><ele>86.14285714285715</ele><time>2026-05-01T10:12:57.999Z</time></trkpt><trkpt lat="45.06468212561353" lon="13.729056274946837"><ele>86.0</ele><time>2026-05-01T10:12:58.999Z</time></trkpt><trkpt lat="45.064630128166804" lon="13.728981890273145"><ele>85.28571428571429</ele><time>2026-05-01T10:12:59.999Z</time></trkpt><trkpt lat="45.06457822290043" lon="13.72890166842891"><ele>84.57142857142857</ele><time>2026-05-01T10:13:00.999Z</time></trkpt><trkpt lat="45.06453966753471" lon="13.728817672813822"><ele>83.85714285714286</ele><time>2026-05-01T10:13:01.999Z</time></trkpt><trkpt lat="45.064497044556646" lon="13.728738205989314"><ele>83.14285714285714</ele><time>2026-05-01T10:13:02.999Z</time></trkpt><trkpt lat="45.064456056896105" lon="13.72864923476045"><ele>82.42857142857143</ele><time>2026-05-01T10:13:03.999Z</time></trkpt><trkpt lat="45.06441841623734" lon="13.728559747566626"><ele>81.71428571428572</ele><time>2026-05-01T10:13:04.999Z</time></trkpt><trkpt lat="45.06438383342164" lon="13.72847193991942"><ele>81.0</ele><time>2026-05-01T10:13:05.999Z</time></trkpt><trkpt lat="45.06435289797957" lon="13.728385795192507"><ele>80.66666666666667</ele><time>2026-05-01T10:13:06.999Z</time></trkpt><trkpt lat="45.06431604601419" lon="13.728305513867602"><ele>80.33333333333333</ele><time>2026-05-01T10:13:07.999Z</time></trkpt><trkpt lat="45.06427716429469" lon="13.728222394056207"><ele>80.0</ele><time>2026-05-01T10:13:08.999Z</time></trkpt><trkpt lat="45.06421709529366" lon="13.728078904236854"><ele>79.66666666666666</ele><time>2026-05-01T10:13:10.999Z</time></trkpt><trkpt lat="45.064169321009615" lon="13.727932002524945"><ele>79.33333333333333</ele><time>2026-05-01T10:13:12.999Z</time></trkpt><trkpt lat="45.064138383506396" lon="13.72785320045732"><ele>79.0</ele><time>2026-05-01T10:13:13.999Z</time></trkpt><trkpt lat="45.06410113844851" lon="13.727709847820943"><ele>78.83333333333333</ele><time>2026-05-01T10:13:15.999Z</time></trkpt><trkpt lat="45.064092259084845" lon="13.727614575843115"><ele>78.66666666666666</ele><time>2026-05-01T10:13:17Z</time></trkpt><trkpt lat="45.06408718963553" lon="13.727502515202724"><ele>78.5</ele><time>2026-05-01T10:13:18Z</time></trkpt><trkpt lat="45.0640933913749" lon="13.727393732775045"><ele>78.33333333333333</ele><time>2026-05-01T10:13:19Z</time></trkpt><trkpt lat="45.06409687456894" lon="13.727290478827264"><ele>78.16666666666667</ele><time>2026-05-01T10:13:20Z</time></trkpt><trkpt lat="45.06410335434064" lon="13.727177729421363"><ele>78.0</ele><time>2026-05-01T10:13:21Z</time></trkpt><trkpt lat="45.06412036095647" lon="13.72706010627495"><ele>78.0</ele><time>2026-05-01T10:13:22Z</time></trkpt><trkpt lat="45.06413495148999" lon="13.726934648188893"><ele>78.0</ele><time>2026-05-01T10:13:23Z</time></trkpt><trkpt lat="45.06415133412223" lon="13.726818773472658"><ele>78.0</ele><time>2026-05-01T10:13:24Z</time></trkpt><trkpt lat="45.06417822998206" lon="13.726702010884432"><ele>78.0</ele><time>2026-05-01T10:13:25Z</time></trkpt><trkpt lat="45.06420450597059" lon="13.726596430696778"><ele>78.0</ele><time>2026-05-01T10:13:26Z</time></trkpt><trkpt lat="45.06423433199771" lon="13.726475963257515"><ele>78.0</ele><time>2026-05-01T10:13:27Z</time></trkpt><trkpt lat="45.06426796119593" lon="13.726353853959807"><ele>78.0</ele><time>2026-05-01T10:13:28Z</time></trkpt><trkpt lat="45.06429744776493" lon="13.726226874607182"><ele>78.0</ele><time>2026-05-01T10:13:29Z</time></trkpt><trkpt lat="45.06431876533969" lon="13.726096843607305"><ele>78.0</ele><time>2026-05-01T10:13:30Z</time></trkpt><trkpt lat="45.06433688580543" lon="13.725962057210573"><ele>78.0</ele><time>2026-05-01T10:13:31Z</time></trkpt><trkpt lat="45.06434956626959" lon="13.72583777893928"><ele>78.0</ele><time>2026-05-01T10:13:32Z</time></trkpt><trkpt lat="45.064367321463926" lon="13.725712322803115"><ele>77.4</ele><time>2026-05-01T10:13:33Z</time></trkpt><trkpt lat="45.06438628124345" lon="13.725588144040755"><ele>76.8</ele><time>2026-05-01T10:13:34Z</time></trkpt><trkpt lat="45.06440713119187" lon="13.72546017703805"><ele>76.2</ele><time>2026-05-01T10:13:35Z</time></trkpt><trkpt lat="45.06442777251747" lon="13.725339237878584"><ele>75.6</ele><time>2026-05-01T10:13:36Z</time></trkpt><trkpt lat="45.064438550865994" lon="13.725211966488205"><ele>75.0</ele><time>2026-05-01T10:13:37Z</time></trkpt><trkpt lat="45.064444505426174" lon="13.725081623911713"><ele>75.0</ele><time>2026-05-01T10:13:38Z</time></trkpt><trkpt lat="45.064439008950465" lon="13.72494829987619"><ele>75.0</ele><time>2026-05-01T10:13:39Z</time></trkpt><trkpt lat="45.06442902594216" lon="13.72482261622209"><ele>75.0</ele><time>2026-05-01T10:13:40Z</time></trkpt><trkpt lat="45.06441168525994" lon="13.72470189730167"><ele>75.0</ele><time>2026-05-01T10:13:41Z</time></trkpt><trkpt lat="45.064394429363624" lon="13.724581922729735"><ele>75.0</ele><time>2026-05-01T10:13:42Z</time></trkpt><trkpt lat="45.06438258955597" lon="13.724472846932722"><ele>75.0</ele><time>2026-05-01T10:13:43Z</time></trkpt><trkpt lat="45.06435247244606" lon="13.72433730445796"><ele>75.0</ele><time>2026-05-01T10:13:45Z</time></trkpt><trkpt lat="45.064309541086146" lon="13.724210290737412"><ele>75.0</ele><time>2026-05-01T10:13:47Z</time></trkpt><trkpt lat="45.0642352355118" lon="13.724075994346473"><ele>75.0</ele><time>2026-05-01T10:13:49Z</time></trkpt><trkpt lat="45.06418192921105" lon="13.724017989505642"><ele>75.0</ele><time>2026-05-01T10:13:50Z</time></trkpt><trkpt lat="45.06412794135311" lon="13.723962498495776"><ele>75.0</ele><time>2026-05-01T10:13:51Z</time></trkpt><trkpt lat="45.06405408705812" lon="13.723822963917838"><ele>74.5</ele><time>2026-05-01T10:13:53Z</time></trkpt><trkpt lat="45.06400432605565" lon="13.723694074076771"><ele>74.0</ele><time>2026-05-01T10:13:55Z</time></trkpt><trkpt lat="45.063975538324804" lon="13.72361372483165"><ele>73.5</ele><time>2026-05-01T10:13:57Z</time></trkpt><trkpt lat="45.063891701728295" lon="13.723575885679782"><ele>73.0</ele><time>2026-05-01T10:14:18Z</time></trkpt><trkpt lat="45.06382186537189" lon="13.723595470847227"><ele>72.5</ele><time>2026-05-01T10:14:21Z</time></trkpt><trkpt lat="45.06376139429183" lon="13.723636420721974"><ele>72.0</ele><time>2026-05-01T10:14:23Z</time></trkpt><trkpt lat="45.063690023741295" lon="13.72365100239904"><ele>72.0</ele><time>2026-05-01T10:14:25Z</time></trkpt><trkpt lat="45.06358336326949" lon="13.723680078617427"><ele>72.0</ele><time>2026-05-01T10:14:27Z</time></trkpt><trkpt lat="45.06351950488786" lon="13.723696867626147"><ele>72.0</ele><time>2026-05-01T10:14:28Z</time></trkpt><trkpt lat="45.06344539014409" lon="13.723722196398848"><ele>72.0</ele><time>2026-05-01T10:14:29Z</time></trkpt><trkpt lat="45.063362053845296" lon="13.723721865803075"><ele>72.0</ele><time>2026-05-01T10:14:30Z</time></trkpt><trkpt lat="45.063271113525715" lon="13.72370905162036"><ele>72.0</ele><time>2026-05-01T10:14:31Z</time></trkpt><trkpt lat="45.06319387733518" lon="13.723694309145433"><ele>72.0</ele><time>2026-05-01T10:14:32Z</time></trkpt><trkpt lat="45.06312567355675" lon="13.723683806400608"><ele>72.0</ele><time>2026-05-01T10:14:33Z</time></trkpt><trkpt lat="45.06304219734838" lon="13.723647228909098"><ele>72.0</ele><time>2026-05-01T10:14:34Z</time></trkpt><trkpt lat="45.06294971805163" lon="13.723584641950822"><ele>72.0</ele><time>2026-05-01T10:14:35Z</time></trkpt><trkpt lat="45.06284929775618" lon="13.723528622798954"><ele>72.0</ele><time>2026-05-01T10:14:36Z</time></trkpt><trkpt lat="45.06275553496849" lon="13.723464424196557"><ele>72.0</ele><time>2026-05-01T10:14:37Z</time></trkpt><trkpt lat="45.062681491720696" lon="13.72340426029685"><ele>72.0</ele><time>2026-05-01T10:14:38Z</time></trkpt><trkpt lat="45.06260138302485" lon="13.723335783100659"><ele>72.0</ele><time>2026-05-01T10:14:39Z</time></trkpt><trkpt lat="45.06252963748172" lon="13.723236395380239"><ele>72.0</ele><time>2026-05-01T10:14:40Z</time></trkpt><trkpt lat="45.06245978641802" lon="13.723134805340255"><ele>72.0</ele><time>2026-05-01T10:14:41Z</time></trkpt><trkpt lat="45.06239644626381" lon="13.723055880772659"><ele>71.83333333333333</ele><time>2026-05-01T10:14:42Z</time></trkpt><trkpt lat="45.06234445277139" lon="13.72297913327963"><ele>71.66666666666667</ele><time>2026-05-01T10:14:42.999Z</time></trkpt><trkpt lat="45.06229864652445" lon="13.722905540893837"><ele>71.5</ele><time>2026-05-01T10:14:43.999Z</time></trkpt><trkpt lat="45.06221614819872" lon="13.722792645241668"><ele>71.33333333333334</ele><time>2026-05-01T10:14:45.999Z</time></trkpt><trkpt lat="45.062152317772195" lon="13.722679785589728"><ele>71.16666666666667</ele><time>2026-05-01T10:14:47.999Z</time></trkpt><trkpt lat="45.06210186008135" lon="13.722596455943169"><ele>71.0</ele><time>2026-05-01T10:14:49.999Z</time></trkpt><trkpt lat="45.062024604611615" lon="13.72252754914124"><ele>71.0</ele><time>2026-05-01T10:19:27.999Z</time></trkpt><trkpt lat="45.06194080616706" lon="13.722420372096797"><ele>71.0</ele><time>2026-05-01T10:19:29.999Z</time></trkpt><trkpt lat="45.0618955140283" lon="13.72235662503185"><ele>71.0</ele><time>2026-05-01T10:19:30.999Z</time></trkpt><trkpt lat="45.061848933232866" lon="13.72227838558205"><ele>71.0</ele><time>2026-05-01T10:19:31.999Z</time></trkpt><trkpt lat="45.06179946951872" lon="13.72219739395791"><ele>71.0</ele><time>2026-05-01T10:19:32.999Z</time></trkpt><trkpt lat="45.061746651920046" lon="13.722119313017066"><ele>71.0</ele><time>2026-05-01T10:19:34Z</time></trkpt><trkpt lat="45.061690646185895" lon="13.722044714148797"><ele>71.0</ele><time>2026-05-01T10:19:35Z</time></trkpt><trkpt lat="45.06163357815776" lon="13.721970178102113"><ele>71.0</ele><time>2026-05-01T10:19:36Z</time></trkpt><trkpt lat="45.06157526774874" lon="13.721886394365972"><ele>71.0</ele><time>2026-05-01T10:19:37Z</time></trkpt><trkpt lat="45.061513371353044" lon="13.721797856043159"><ele>71.0</ele><time>2026-05-01T10:19:38Z</time></trkpt><trkpt lat="45.06144017996522" lon="13.721698532682142"><ele>71.0</ele><time>2026-05-01T10:19:39Z</time></trkpt><trkpt lat="45.061366687519914" lon="13.721594911841514"><ele>70.39999999999999</ele><time>2026-05-01T10:19:40Z</time></trkpt><trkpt lat="45.06130118327082" lon="13.721494331115938"><ele>69.8</ele><time>2026-05-01T10:19:41Z</time></trkpt><trkpt lat="45.06124250240555" lon="13.7214019274508"><ele>69.19999999999999</ele><time>2026-05-01T10:19:42Z</time></trkpt><trkpt lat="45.0611892117472" lon="13.721304966046215"><ele>68.6</ele><time>2026-05-01T10:19:43Z</time></trkpt><trkpt lat="45.0611357449763" lon="13.721201656373005"><ele>68.0</ele><time>2026-05-01T10:19:44Z</time></trkpt><trkpt lat="45.0610905247874" lon="13.721094848749186"><ele>67.6</ele><time>2026-05-01T10:19:45Z</time></trkpt><trkpt lat="45.06105407318213" lon="13.720982956231568"><ele>67.19999999999999</ele><time>2026-05-01T10:19:46Z</time></trkpt><trkpt lat="45.06102978241859" lon="13.720859529356634"><ele>66.8</ele><time>2026-05-01T10:19:47Z</time></trkpt><trkpt lat="45.06102276101283" lon="13.720724162733077"><ele>66.39999999999999</ele><time>2026-05-01T10:19:48Z</time></trkpt><trkpt lat="45.06102648733544" lon="13.720584430346427"><ele>66.0</ele><time>2026-05-01T10:19:49Z</time></trkpt><trkpt lat="45.061032127138624" lon="13.720439667571005"><ele>66.0</ele><time>2026-05-01T10:19:50Z</time></trkpt><trkpt lat="45.0610417099328" lon="13.720290743968787"><ele>66.0</ele><time>2026-05-01T10:19:51Z</time></trkpt><trkpt lat="45.06104660253304" lon="13.720140966697894"><ele>66.0</ele><time>2026-05-01T10:19:52Z</time></trkpt><trkpt lat="45.061047353689226" lon="13.719989197762127"><ele>66.0</ele><time>2026-05-01T10:19:53Z</time></trkpt><trkpt lat="45.06104277724384" lon="13.719834973405025"><ele>66.0</ele><time>2026-05-01T10:19:54Z</time></trkpt><trkpt lat="45.06103383708828" lon="13.719683053642864"><ele>66.0</ele><time>2026-05-01T10:19:55Z</time></trkpt><trkpt lat="45.06102434677574" lon="13.719529442028671"><ele>66.0</ele><time>2026-05-01T10:19:56Z</time></trkpt><trkpt lat="45.06101214363201" lon="13.719377437369856"><ele>66.0</ele><time>2026-05-01T10:19:57Z</time></trkpt><trkpt lat="45.06101111800948" lon="13.719221443913094"><ele>66.0</ele><time>2026-05-01T10:19:58Z</time></trkpt><trkpt lat="45.0610118951291" lon="13.719069386596567"><ele>66.0</ele><time>2026-05-01T10:19:59Z</time></trkpt><trkpt lat="45.0610147707319" lon="13.718921467798756"><ele>65.6</ele><time>2026-05-01T10:20:00Z</time></trkpt><trkpt lat="45.06102349791236" lon="13.718771029592604"><ele>65.19999999999999</ele><time>2026-05-01T10:20:01Z</time></trkpt><trkpt lat="45.061030607244184" lon="13.718619664898842"><ele>64.80000000000001</ele><time>2026-05-01T10:20:02Z</time></trkpt><trkpt lat="45.06102922232953" lon="13.718481676536939"><ele>64.4</ele><time>2026-05-01T10:20:03Z</time></trkpt><trkpt lat="45.06101429709774" lon="13.7183576781972"><ele>64.0</ele><time>2026-05-01T10:20:04Z</time></trkpt><trkpt lat="45.06098151588718" lon="13.718221830874544"><ele>64.0</ele><time>2026-05-01T10:20:05Z</time></trkpt><trkpt lat="45.06092966047525" lon="13.718094485658165"><ele>64.0</ele><time>2026-05-01T10:20:06Z</time></trkpt><trkpt lat="45.0608695023876" lon="13.717961145830703"><ele>64.0</ele><time>2026-05-01T10:20:07Z</time></trkpt><trkpt lat="45.06081995547004" lon="13.717818739421453"><ele>64.0</ele><time>2026-05-01T10:20:08Z</time></trkpt><trkpt lat="45.06078135890798" lon="13.717688824035667"><ele>64.0</ele><time>2026-05-01T10:20:09Z</time></trkpt><trkpt lat="45.06074865922587" lon="13.717571217228896"><ele>64.0</ele><time>2026-05-01T10:20:10Z</time></trkpt><trkpt lat="45.06071215628986" lon="13.717439441476317"><ele>64.0</ele><time>2026-05-01T10:20:11Z</time></trkpt><trkpt lat="45.06067868152717" lon="13.717300350428756"><ele>64.0</ele><time>2026-05-01T10:20:12Z</time></trkpt><trkpt lat="45.060645750857006" lon="13.717160919816715"><ele>64.0</ele><time>2026-05-01T10:20:13Z</time></trkpt><trkpt lat="45.060612543719394" lon="13.717022009303783"><ele>64.0</ele><time>2026-05-01T10:20:14Z</time></trkpt><trkpt lat="45.060577707553776" lon="13.716887092830307"><ele>64.5</ele><time>2026-05-01T10:20:15Z</time></trkpt><trkpt lat="45.06054640000708" lon="13.716758820941747"><ele>65.0</ele><time>2026-05-01T10:20:16Z</time></trkpt><trkpt lat="45.06052434213775" lon="13.716644864112412"><ele>65.5</ele><time>2026-05-01T10:20:17Z</time></trkpt><trkpt lat="45.060504533569684" lon="13.716542509900744"><ele>66.0</ele><time>2026-05-01T10:20:18Z</time></trkpt><trkpt lat="45.060488706347854" lon="13.716438169672994"><ele>66.5</ele><time>2026-05-01T10:20:19Z</time></trkpt><trkpt lat="45.06047422640393" lon="13.716341476066011"><ele>67.0</ele><time>2026-05-01T10:20:20Z</time></trkpt><trkpt lat="45.06046182154976" lon="13.716248675300692"><ele>67.0</ele><time>2026-05-01T10:20:21Z</time></trkpt><trkpt lat="45.0604551227165" lon="13.716111683989421"><ele>67.0</ele><time>2026-05-01T10:20:23Z</time></trkpt><trkpt lat="45.060464192721504" lon="13.71601826912183"><ele>67.0</ele><time>2026-05-01T10:20:27Z</time></trkpt><trkpt lat="45.060426158769545" lon="13.715931064242163"><ele>67.0</ele><time>2026-05-01T10:20:42Z</time></trkpt><trkpt lat="45.060426540228434" lon="13.715787986455792"><ele>67.0</ele><time>2026-05-01T10:20:44Z</time></trkpt><trkpt lat="45.0604006345515" lon="13.715628886298395"><ele>67.66666666666666</ele><time>2026-05-01T10:20:46Z</time></trkpt><trkpt lat="45.06038533639606" lon="13.71553574766763"><ele>68.33333333333333</ele><time>2026-05-01T10:20:47Z</time></trkpt><trkpt lat="45.060367947405894" lon="13.715437847149621"><ele>69.0</ele><time>2026-05-01T10:20:48Z</time></trkpt><trkpt lat="45.06035283631933" lon="13.715347126865243"><ele>69.66666666666667</ele><time>2026-05-01T10:20:49Z</time></trkpt><trkpt lat="45.06032609569638" lon="13.715178174636733"><ele>70.33333333333334</ele><time>2026-05-01T10:20:51Z</time></trkpt><trkpt lat="45.06028906670547" lon="13.715022457544183"><ele>71.0</ele><time>2026-05-01T10:20:53Z</time></trkpt><trkpt lat="45.06025721193674" lon="13.714887062191385"><ele>71.2</ele><time>2026-05-01T10:20:55Z</time></trkpt><trkpt lat="45.06023635424986" lon="13.71478995833266"><ele>71.39999999999999</ele><time>2026-05-01T10:20:57Z</time></trkpt><trkpt lat="45.06014494710666" lon="13.714811570755648"><ele>71.6</ele><time>2026-05-01T10:21:00.999Z</time></trkpt><trkpt lat="45.0600491075644" lon="13.71489992649512"><ele>71.8</ele><time>2026-05-01T10:21:02.999Z</time></trkpt><trkpt lat="45.05994145803239" lon="13.714928273573097"><ele>72.0</ele><time>2026-05-01T10:21:04.999Z</time></trkpt><trkpt lat="45.059869224498264" lon="13.714949852882942"><ele>72.28571428571429</ele><time>2026-05-01T10:21:05.999Z</time></trkpt><trkpt lat="45.059799406108226" lon="13.714975804378293"><ele>72.57142857142857</ele><time>2026-05-01T10:21:06.999Z</time></trkpt><trkpt lat="45.05973071581991" lon="13.714998446876285"><ele>72.85714285714286</ele><time>2026-05-01T10:21:07.999Z</time></trkpt><trkpt lat="45.05966361758717" lon="13.71501538032589"><ele>73.14285714285714</ele><time>2026-05-01T10:21:08.999Z</time></trkpt><trkpt lat="45.05959781713362" lon="13.715038543447493"><ele>73.42857142857143</ele><time>2026-05-01T10:21:09.999Z</time></trkpt><trkpt lat="45.05953566919835" lon="13.71505573061365"><ele>73.71428571428572</ele><time>2026-05-01T10:21:10.999Z</time></trkpt><trkpt lat="45.05947229851669" lon="13.715069123844147"><ele>74.0</ele><time>2026-05-01T10:21:11.999Z</time></trkpt><trkpt lat="45.05935739919141" lon="13.715071024083167"><ele>74.0</ele><time>2026-05-01T10:21:13.999Z</time></trkpt><trkpt lat="45.05927017073743" lon="13.715073993168494"><ele>74.0</ele><time>2026-05-01T10:21:15.999Z</time></trkpt><trkpt lat="45.05915872010448" lon="13.715112306295497"><ele>74.0</ele><time>2026-05-01T10:21:17.999Z</time></trkpt><trkpt lat="45.0590542618304" lon="13.715149714703994"><ele>74.0</ele><time>2026-05-01T10:21:19.999Z</time></trkpt><trkpt lat="45.05895149523648" lon="13.71516128756369"><ele>74.0</ele><time>2026-05-01T10:21:21.999Z</time></trkpt><trkpt lat="45.058862795569176" lon="13.715129408572153"><ele>73.5</ele><time>2026-05-01T10:21:23.999Z</time></trkpt><trkpt lat="45.05878581318987" lon="13.715135320758082"><ele>73.0</ele><time>2026-05-01T10:21:25.999Z</time></trkpt><trkpt lat="45.058707232010576" lon="13.715165295569271"><ele>72.5</ele><time>2026-05-01T10:21:27.999Z</time></trkpt><trkpt lat="45.05862133599275" lon="13.715175405945457"><ele>72.0</ele><time>2026-05-01T10:21:29.999Z</time></trkpt><trkpt lat="45.05855330158034" lon="13.715174450581681"><ele>71.5</ele><time>2026-05-01T10:21:31.999Z</time></trkpt><trkpt lat="45.05847401979385" lon="13.715187051619461"><ele>71.0</ele><time>2026-05-01T10:21:33.999Z</time></trkpt><trkpt lat="45.05838413863076" lon="13.715242696452831"><ele>70.2</ele><time>2026-05-01T10:21:35.999Z</time></trkpt><trkpt lat="45.05829142612341" lon="13.71531156648113"><ele>69.39999999999999</ele><time>2026-05-01T10:21:37.999Z</time></trkpt><trkpt lat="45.05819188260705" lon="13.715324057385502"><ele>68.6</ele><time>2026-05-01T10:21:40Z</time></trkpt><trkpt lat="45.0580993366355" lon="13.715339024100842"><ele>67.8</ele><time>2026-05-01T10:21:42Z</time></trkpt><trkpt lat="45.058013855754744" lon="13.715389169500247"><ele>67.0</ele><time>2026-05-01T10:21:44Z</time></trkpt><trkpt lat="45.05791960462956" lon="13.715431840100045"><ele>66.2</ele><time>2026-05-01T10:21:46Z</time></trkpt><trkpt lat="45.05782151733486" lon="13.715435678660002"><ele>65.4</ele><time>2026-05-01T10:21:48Z</time></trkpt><trkpt lat="45.057736658933564" lon="13.71543301762974"><ele>64.6</ele><time>2026-05-01T10:21:50Z</time></trkpt><trkpt lat="45.05762993754307" lon="13.715423904558014"><ele>63.8</ele><time>2026-05-01T10:21:52Z</time></trkpt><trkpt lat="45.057528181589234" lon="13.715407299780795"><ele>63.0</ele><time>2026-05-01T10:21:54Z</time></trkpt><trkpt lat="45.057430239146115" lon="13.71539533939966"><ele>62.2</ele><time>2026-05-01T10:21:56Z</time></trkpt><trkpt lat="45.05732781625812" lon="13.71537991488986"><ele>61.4</ele><time>2026-05-01T10:21:58Z</time></trkpt><trkpt lat="45.0572199558604" lon="13.715368499699794"><ele>60.60000000000001</ele><time>2026-05-01T10:22:00Z</time></trkpt><trkpt lat="45.057132749983616" lon="13.715406709645684"><ele>59.800000000000004</ele><time>2026-05-01T10:22:02Z</time></trkpt><trkpt lat="45.05710293509105" lon="13.715537453649686"><ele>59.0</ele><time>2026-05-01T10:22:04Z</time></trkpt><trkpt lat="45.057086255452546" lon="13.715682082668108"><ele>59.00000000000001</ele><time>2026-05-01T10:22:06Z</time></trkpt><trkpt lat="45.05700714411908" lon="13.715725377967845"><ele>59.0</ele><time>2026-05-01T10:22:08Z</time></trkpt><trkpt lat="45.05693186757845" lon="13.71567234349239"><ele>59.0</ele><time>2026-05-01T10:22:10Z</time></trkpt><trkpt lat="45.05686332956514" lon="13.715635693319063"><ele>59.0</ele><time>2026-05-01T10:22:12Z</time></trkpt><trkpt lat="45.05679207348997" lon="13.715621857408204"><ele>59.00000000000001</ele><time>2026-05-01T10:22:14Z</time></trkpt><trkpt lat="45.05671173814116" lon="13.71559201400262"><ele>59.0</ele><time>2026-05-01T10:22:17Z</time></trkpt><trkpt lat="45.05680519912202" lon="13.71562130578963"><ele>59.00000000000001</ele><time>2026-05-01T10:23:06.999Z</time></trkpt><trkpt lat="45.05687011867401" lon="13.715633143134335"><ele>59.0</ele><time>2026-05-01T10:23:08.999Z</time></trkpt><trkpt lat="45.05693704381951" lon="13.715660061356903"><ele>59.0</ele><time>2026-05-01T10:23:10.999Z</time></trkpt><trkpt lat="45.057046741674995" lon="13.715694137624533"><ele>59.0</ele><time>2026-05-01T10:23:12.999Z</time></trkpt><trkpt lat="45.057097773126124" lon="13.715763968706355"><ele>59.00000000000001</ele><time>2026-05-01T10:23:15.999Z</time></trkpt><trkpt lat="45.057088297520146" lon="13.715861534584658"><ele>59.0</ele><time>2026-05-01T10:23:18.999Z</time></trkpt><trkpt lat="45.05707655962767" lon="13.71600043497904"><ele>59.16666666666667</ele><time>2026-05-01T10:24:01Z</time></trkpt><trkpt lat="45.05707317682175" lon="13.716110765000574"><ele>59.333333333333336</ele><time>2026-05-01T10:24:03Z</time></trkpt><trkpt lat="45.05708900698383" lon="13.716213000353914"><ele>59.5</ele><time>2026-05-01T10:24:06Z</time></trkpt><trkpt lat="45.05706301879625" lon="13.71631185397679"><ele>59.66666666666667</ele><time>2026-05-01T10:24:08Z</time></trkpt><trkpt lat="45.05702076390092" lon="13.716421175765882"><ele>59.833333333333336</ele><time>2026-05-01T10:24:11Z</time></trkpt><trkpt lat="45.05698186888902" lon="13.716540868891856"><ele>60.0</ele><time>2026-05-01T10:24:13Z</time></trkpt><trkpt lat="45.056943760205485" lon="13.716664947207338"><ele>60.0</ele><time>2026-05-01T10:24:15Z</time></trkpt><trkpt lat="45.056915564282704" lon="13.716762438531443"><ele>60.0</ele><time>2026-05-01T10:24:17Z</time></trkpt><trkpt lat="45.056882107567375" lon="13.71686515314264"><ele>60.0</ele><time>2026-05-01T10:24:19Z</time></trkpt><trkpt lat="45.056856176286736" lon="13.716984081854658"><ele>60.0</ele><time>2026-05-01T10:24:21Z</time></trkpt><trkpt lat="45.05684686600158" lon="13.71707656397101"><ele>60.0</ele><time>2026-05-01T10:24:23Z</time></trkpt><trkpt lat="45.05682582033568" lon="13.71716353354405"><ele>60.0</ele><time>2026-05-01T10:24:25Z</time></trkpt><trkpt lat="45.05678681693825" lon="13.717252741893619"><ele>60.0</ele><time>2026-05-01T10:24:27Z</time></trkpt><trkpt lat="45.05673242186784" lon="13.717323081321872"><ele>59.8</ele><time>2026-05-01T10:24:29Z</time></trkpt><trkpt lat="45.05666207428195" lon="13.717405250948195"><ele>59.6</ele><time>2026-05-01T10:24:32Z</time></trkpt><trkpt lat="45.0566470261064" lon="13.71752906735288"><ele>59.400000000000006</ele><time>2026-05-01T10:24:34Z</time></trkpt><trkpt lat="45.05660520207608" lon="13.717642634675295"><ele>59.2</ele><time>2026-05-01T10:24:36Z</time></trkpt><trkpt lat="45.05654599258416" lon="13.717742845169559"><ele>59.0</ele><time>2026-05-01T10:24:38Z</time></trkpt><trkpt lat="45.05648081678677" lon="13.71784544856478"><ele>59.50000000000001</ele><time>2026-05-01T10:24:40Z</time></trkpt><trkpt lat="45.05643893376136" lon="13.717950690983779"><ele>60.0</ele><time>2026-05-01T10:24:42Z</time></trkpt><trkpt lat="45.0564197339122" lon="13.718079813247183"><ele>60.5</ele><time>2026-05-01T10:24:44Z</time></trkpt><trkpt lat="45.056419608903326" lon="13.718219456179723"><ele>61.0</ele><time>2026-05-01T10:24:46Z</time></trkpt><trkpt lat="45.056425400868484" lon="13.718346299087049"><ele>61.50000000000001</ele><time>2026-05-01T10:24:48Z</time></trkpt><trkpt lat="45.0564332588863" lon="13.718457554316597"><ele>62.0</ele><time>2026-05-01T10:24:50Z</time></trkpt><trkpt lat="45.05645732288222" lon="13.718570315815498"><ele>62.0</ele><time>2026-05-01T10:24:52Z</time></trkpt><trkpt lat="45.05650381495673" lon="13.718683835857853"><ele>62.0</ele><time>2026-05-01T10:24:54Z</time></trkpt><trkpt lat="45.05650947935034" lon="13.718818806184398"><ele>62.0</ele><time>2026-05-01T10:24:56Z</time></trkpt><trkpt lat="45.056512967097404" lon="13.718941474278662"><ele>62.0</ele><time>2026-05-01T10:24:58Z</time></trkpt><trkpt lat="45.05651737995706" lon="13.719062261884774"><ele>62.0</ele><time>2026-05-01T10:25:00Z</time></trkpt><trkpt lat="45.05651596847177" lon="13.719195911943768"><ele>62.00000000000001</ele><time>2026-05-01T10:25:02Z</time></trkpt><trkpt lat="45.05650867820091" lon="13.71932610483932"><ele>62.0</ele><time>2026-05-01T10:25:04Z</time></trkpt><trkpt lat="45.056496056170126" lon="13.719458656271977"><ele>62.0</ele><time>2026-05-01T10:25:06Z</time></trkpt><trkpt lat="45.056491446580964" lon="13.719577577495214"><ele>62.0</ele><time>2026-05-01T10:25:08Z</time></trkpt><trkpt lat="45.05647855897454" lon="13.71968361711367"><ele>62.00000000000001</ele><time>2026-05-01T10:25:10Z</time></trkpt><trkpt lat="45.05648246203773" lon="13.719803829326715"><ele>62.0</ele><time>2026-05-01T10:25:11.999Z</time></trkpt><trkpt lat="45.05647202962249" lon="13.71990297530451"><ele>61.6</ele><time>2026-05-01T10:25:14.999Z</time></trkpt><trkpt lat="45.056401827764596" lon="13.71992547714552"><ele>61.2</ele><time>2026-05-01T10:25:17.999Z</time></trkpt><trkpt lat="45.056318314117625" lon="13.719876937194249"><ele>60.8</ele><time>2026-05-01T10:25:19.999Z</time></trkpt><trkpt lat="45.05620789676714" lon="13.719885816805677"><ele>60.4</ele><time>2026-05-01T10:25:21.999Z</time></trkpt><trkpt lat="45.05608990650623" lon="13.719884694466728"><ele>60.0</ele><time>2026-05-01T10:25:23.999Z</time></trkpt><trkpt lat="45.0559859617967" lon="13.719873258170466"><ele>60.0</ele><time>2026-05-01T10:25:25.999Z</time></trkpt><trkpt lat="45.05589420856775" lon="13.71989217497536"><ele>60.0</ele><time>2026-05-01T10:25:27.999Z</time></trkpt><trkpt lat="45.05580767866269" lon="13.719940430107979"><ele>60.0</ele><time>2026-05-01T10:25:29.999Z</time></trkpt><trkpt lat="45.055705623585105" lon="13.719893315426898"><ele>60.0</ele><time>2026-05-01T10:25:31.999Z</time></trkpt><trkpt lat="45.055594175463966" lon="13.719871330847104"><ele>60.0</ele><time>2026-05-01T10:25:33.999Z</time></trkpt><trkpt lat="45.055479641549994" lon="13.719901909338839"><ele>59.0</ele><time>2026-05-01T10:25:35.999Z</time></trkpt><trkpt lat="45.05535274051265" lon="13.719921832129378"><ele>58.0</ele><time>2026-05-01T10:25:37.999Z</time></trkpt><trkpt lat="45.05522303133828" lon="13.719911824088177"><ele>57.0</ele><time>2026-05-01T10:25:39.999Z</time></trkpt><trkpt lat="45.055155374631354" lon="13.719904917457312"><ele>56.0</ele><time>2026-05-01T10:25:40.999Z</time></trkpt><trkpt lat="45.05504151937227" lon="13.719860390466499"><ele>55.0</ele><time>2026-05-01T10:25:42.999Z</time></trkpt><trkpt lat="45.05497955055826" lon="13.719826335173343"><ele>54.99999999999999</ele><time>2026-05-01T10:25:43.999Z</time></trkpt><trkpt lat="45.05490832207719" lon="13.719791500717388"><ele>55.0</ele><time>2026-05-01T10:25:44.999Z</time></trkpt><trkpt lat="45.0548345409731" lon="13.719753734485503"><ele>55.0</ele><time>2026-05-01T10:25:45.999Z</time></trkpt><trkpt lat="45.054754426540406" lon="13.719713332821664"><ele>55.0</ele><time>2026-05-01T10:25:46.999Z</time></trkpt><trkpt lat="45.05468005638923" lon="13.719682193646497"><ele>54.99999999999999</ele><time>2026-05-01T10:25:47.999Z</time></trkpt><trkpt lat="45.05461008191719" lon="13.719650430378893"><ele>55.0</ele><time>2026-05-01T10:25:48.999Z</time></trkpt><trkpt lat="45.05454491843881" lon="13.719621327348728"><ele>55.0</ele><time>2026-05-01T10:25:49.999Z</time></trkpt><trkpt lat="45.05444203686279" lon="13.719565498738147"><ele>55.0</ele><time>2026-05-01T10:25:52Z</time></trkpt><trkpt lat="45.05435701348789" lon="13.719468020642186"><ele>55.0</ele><time>2026-05-01T10:25:54Z</time></trkpt><trkpt lat="45.05426052674168" lon="13.719396594259191"><ele>55.0</ele><time>2026-05-01T10:25:56Z</time></trkpt><trkpt lat="45.05413765062672" lon="13.71935960831774"><ele>56.166666666666664</ele><time>2026-05-01T10:25:58Z</time></trkpt><trkpt lat="45.05407683018353" lon="13.719328256235997"><ele>57.33333333333333</ele><time>2026-05-01T10:25:59Z</time></trkpt><trkpt lat="45.054018347115864" lon="13.719289936595045"><ele>58.5</ele><time>2026-05-01T10:26:00Z</time></trkpt><trkpt lat="45.05396031334711" lon="13.719253863454039"><ele>59.66666666666667</ele><time>2026-05-01T10:26:01Z</time></trkpt><trkpt lat="45.05385099577874" lon="13.71917877809808"><ele>60.833333333333336</ele><time>2026-05-01T10:26:03Z</time></trkpt><trkpt lat="45.05374051339807" lon="13.719098543917335"><ele>62.0</ele><time>2026-05-01T10:26:05Z</time></trkpt><trkpt lat="45.05368413167777" lon="13.719054678861191"><ele>62.0</ele><time>2026-05-01T10:26:06Z</time></trkpt><trkpt lat="45.05357849658132" lon="13.718975375962463"><ele>62.0</ele><time>2026-05-01T10:26:08Z</time></trkpt><trkpt lat="45.053492991175915" lon="13.718904163890212"><ele>62.0</ele><time>2026-05-01T10:26:10Z</time></trkpt><trkpt lat="45.05340184559764" lon="13.718793206938711"><ele>62.0</ele><time>2026-05-01T10:26:12Z</time></trkpt><trkpt lat="45.05335421430058" lon="13.718733024038206"><ele>62.0</ele><time>2026-05-01T10:26:13Z</time></trkpt><trkpt lat="45.05330350443899" lon="13.718672179575497"><ele>62.57142857142858</ele><time>2026-05-01T10:26:14Z</time></trkpt><trkpt lat="45.053245686532435" lon="13.718608526751684"><ele>63.14285714285715</ele><time>2026-05-01T10:26:15Z</time></trkpt><trkpt lat="45.05318171222625" lon="13.718552848223135"><ele>63.714285714285715</ele><time>2026-05-01T10:26:16Z</time></trkpt><trkpt lat="45.05311616953015" lon="13.718499313324905"><ele>64.28571428571429</ele><time>2026-05-01T10:26:17Z</time></trkpt><trkpt lat="45.05305744862192" lon="13.71844108868656"><ele>64.85714285714286</ele><time>2026-05-01T10:26:18Z</time></trkpt><trkpt lat="45.05299823256518" lon="13.718383787796698"><ele>65.42857142857143</ele><time>2026-05-01T10:26:19Z</time></trkpt><trkpt lat="45.052936759219236" lon="13.71832865506168"><ele>66.0</ele><time>2026-05-01T10:26:20Z</time></trkpt><trkpt lat="45.05287495264909" lon="13.718268051300761"><ele>66.0</ele><time>2026-05-01T10:26:21Z</time></trkpt><trkpt lat="45.05281150685492" lon="13.718209470118206"><ele>66.0</ele><time>2026-05-01T10:26:22Z</time></trkpt><trkpt lat="45.05274919140494" lon="13.718152107093506"><ele>66.0</ele><time>2026-05-01T10:26:23Z</time></trkpt><trkpt lat="45.05268979154875" lon="13.718088252119307"><ele>66.0</ele><time>2026-05-01T10:26:24Z</time></trkpt><trkpt lat="45.052638049764745" lon="13.718017030432327"><ele>66.0</ele><time>2026-05-01T10:26:25Z</time></trkpt><trkpt lat="45.052603664146254" lon="13.717940762345183"><ele>66.0</ele><time>2026-05-01T10:26:26Z</time></trkpt><trkpt lat="45.05257962865883" lon="13.717847667166986"><ele>66.0</ele><time>2026-05-01T10:26:27Z</time></trkpt><trkpt lat="45.05255809349045" lon="13.717665501129197"><ele>66.5</ele><time>2026-05-01T10:26:29Z</time></trkpt><trkpt lat="45.05252700033933" lon="13.71756362724837"><ele>67.0</ele><time>2026-05-01T10:26:30Z</time></trkpt><trkpt lat="45.052482217812454" lon="13.717471034876029"><ele>67.5</ele><time>2026-05-01T10:26:31Z</time></trkpt><trkpt lat="45.052432991725844" lon="13.717376371298853"><ele>68.0</ele><time>2026-05-01T10:26:32Z</time></trkpt><trkpt lat="45.0523915863284" lon="13.71727754421652"><ele>68.5</ele><time>2026-05-01T10:26:33Z</time></trkpt><trkpt lat="45.05235862645811" lon="13.717185224310132"><ele>69.0</ele><time>2026-05-01T10:26:34Z</time></trkpt><trkpt lat="45.05232826247047" lon="13.717104194948991"><ele>69.33333333333333</ele><time>2026-05-01T10:26:35Z</time></trkpt><trkpt lat="45.05228489805658" lon="13.716967936705943"><ele>69.66666666666667</ele><time>2026-05-01T10:26:37Z</time></trkpt><trkpt lat="45.052253441448336" lon="13.716878746825278"><ele>70.0</ele><time>2026-05-01T10:26:39Z</time></trkpt><trkpt lat="45.05219332954126" lon="13.716815428260107"><ele>70.33333333333334</ele><time>2026-05-01T10:26:46Z</time></trkpt><trkpt lat="45.0521322673187" lon="13.716740899783568"><ele>70.66666666666667</ele><time>2026-05-01T10:26:47Z</time></trkpt><trkpt lat="45.05206920866908" lon="13.71667706051697"><ele>71.0</ele><time>2026-05-01T10:26:48Z</time></trkpt><trkpt lat="45.05200856422504" lon="13.716598934554877"><ele>71.0</ele><time>2026-05-01T10:26:49Z</time></trkpt><trkpt lat="45.05194010440519" lon="13.716504626428673"><ele>71.0</ele><time>2026-05-01T10:26:50Z</time></trkpt><trkpt lat="45.0518641540139" lon="13.716402188586931"><ele>71.0</ele><time>2026-05-01T10:26:51Z</time></trkpt><trkpt lat="45.05178729234567" lon="13.716307263791132"><ele>71.0</ele><time>2026-05-01T10:26:52Z</time></trkpt><trkpt lat="45.051705487201076" lon="13.716212760098903"><ele>71.0</ele><time>2026-05-01T10:26:53Z</time></trkpt><trkpt lat="45.05162444176339" lon="13.716111974715064"><ele>70.2</ele><time>2026-05-01T10:26:54Z</time></trkpt><trkpt lat="45.051540876834686" lon="13.71600590469017"><ele>69.39999999999999</ele><time>2026-05-01T10:26:55Z</time></trkpt><trkpt lat="45.051463959077125" lon="13.71589723938264"><ele>68.6</ele><time>2026-05-01T10:26:56Z</time></trkpt><trkpt lat="45.05138692731718" lon="13.715801049241733"><ele>67.8</ele><time>2026-05-01T10:26:57Z</time></trkpt><trkpt lat="45.051315049368405" lon="13.715713370781664"><ele>67.0</ele><time>2026-05-01T10:26:58Z</time></trkpt><trkpt lat="45.05124422504266" lon="13.715626495597144"><ele>67.0</ele><time>2026-05-01T10:26:59Z</time></trkpt><trkpt lat="45.05116754945974" lon="13.71551056105195"><ele>67.0</ele><time>2026-05-01T10:27:00Z</time></trkpt><trkpt lat="45.05109581226912" lon="13.71537003359737"><ele>67.0</ele><time>2026-05-01T10:27:01Z</time></trkpt><trkpt lat="45.05103453986657" lon="13.71522751010579"><ele>67.0</ele><time>2026-05-01T10:27:02Z</time></trkpt><trkpt lat="45.05098168439503" lon="13.715086966744183"><ele>65.8</ele><time>2026-05-01T10:27:03Z</time></trkpt><trkpt lat="45.05093066892327" lon="13.714948237854754"><ele>64.6</ele><time>2026-05-01T10:27:04Z</time></trkpt><trkpt lat="45.05087517504535" lon="13.714813777080941"><ele>63.39999999999999</ele><time>2026-05-01T10:27:05Z</time></trkpt><trkpt lat="45.05080936959002" lon="13.714693295987518"><ele>62.199999999999996</ele><time>2026-05-01T10:27:06Z</time></trkpt><trkpt lat="45.050746277379616" lon="13.714575569189769"><ele>61.0</ele><time>2026-05-01T10:27:07Z</time></trkpt><trkpt lat="45.05069472453441" lon="13.714450449943419"><ele>59.599999999999994</ele><time>2026-05-01T10:27:08Z</time></trkpt><trkpt lat="45.05065330308278" lon="13.714316729937618"><ele>58.199999999999996</ele><time>2026-05-01T10:27:09Z</time></trkpt><trkpt lat="45.05062157860195" lon="13.714184103732412"><ele>56.800000000000004</ele><time>2026-05-01T10:27:10Z</time></trkpt><trkpt lat="45.05060449756963" lon="13.714064141007672"><ele>55.400000000000006</ele><time>2026-05-01T10:27:11Z</time></trkpt><trkpt lat="45.05060243368265" lon="13.713952008203556"><ele>54.0</ele><time>2026-05-01T10:27:12Z</time></trkpt><trkpt lat="45.05059609974603" lon="13.713834454287161"><ele>54.0</ele><time>2026-05-01T10:27:13Z</time></trkpt><trkpt lat="45.050589557352446" lon="13.713716453534634"><ele>54.0</ele><time>2026-05-01T10:27:14Z</time></trkpt><trkpt lat="45.050581982330904" lon="13.71360405464991"><ele>54.0</ele><time>2026-05-01T10:27:15Z</time></trkpt><trkpt lat="45.05055665678641" lon="13.71349666157316"><ele>54.0</ele><time>2026-05-01T10:27:16Z</time></trkpt><trkpt lat="45.05051833893237" lon="13.713396075818155"><ele>54.0</ele><time>2026-05-01T10:27:17Z</time></trkpt><trkpt lat="45.05047162601833" lon="13.71328492375406"><ele>54.0</ele><time>2026-05-01T10:27:18Z</time></trkpt><trkpt lat="45.050422454104854" lon="13.713175812045577"><ele>53.666666666666664</ele><time>2026-05-01T10:27:19Z</time></trkpt><trkpt lat="45.05037532045449" lon="13.713069373917861"><ele>53.33333333333333</ele><time>2026-05-01T10:27:20Z</time></trkpt><trkpt lat="45.050322114474305" lon="13.712963901698792"><ele>53.0</ele><time>2026-05-01T10:27:21Z</time></trkpt><trkpt lat="45.05026595517735" lon="13.712851230871529"><ele>52.666666666666664</ele><time>2026-05-01T10:27:22Z</time></trkpt><trkpt lat="45.05021605294366" lon="13.712749674499992"><ele>52.33333333333333</ele><time>2026-05-01T10:27:23Z</time></trkpt><trkpt lat="45.050175852382225" lon="13.712653439596409"><ele>52.0</ele><time>2026-05-01T10:27:24Z</time></trkpt><trkpt lat="45.05014329166815" lon="13.712557075548068"><ele>52.0</ele><time>2026-05-01T10:27:25Z</time></trkpt><trkpt lat="45.050118405007055" lon="13.712472182992688"><ele>52.0</ele><time>2026-05-01T10:27:26Z</time></trkpt><trkpt lat="45.050080924369475" lon="13.712390883139697"><ele>52.0</ele><time>2026-05-01T10:27:27Z</time></trkpt><trkpt lat="45.050029943305205" lon="13.712321807347225"><ele>52.0</ele><time>2026-05-01T10:27:28Z</time></trkpt><trkpt lat="45.049966824632875" lon="13.71226345634699"><ele>52.0</ele><time>2026-05-01T10:27:29Z</time></trkpt><trkpt lat="45.0498963163444" lon="13.712214758027939"><ele>52.0</ele><time>2026-05-01T10:27:30Z</time></trkpt><trkpt lat="45.04982073125047" lon="13.71218036495125"><ele>52.0</ele><time>2026-05-01T10:27:31Z</time></trkpt><trkpt lat="45.049747209990606" lon="13.712144641852834"><ele>51.857142857142854</ele><time>2026-05-01T10:27:32Z</time></trkpt><trkpt lat="45.049686643071524" lon="13.712090045465109"><ele>51.714285714285715</ele><time>2026-05-01T10:27:33Z</time></trkpt><trkpt lat="45.04963503868822" lon="13.712021897004185"><ele>51.57142857142857</ele><time>2026-05-01T10:27:34Z</time></trkpt><trkpt lat="45.04958160846479" lon="13.711943921442126"><ele>51.42857142857143</ele><time>2026-05-01T10:27:35Z</time></trkpt><trkpt lat="45.0495298360698" lon="13.7118731347494"><ele>51.28571428571429</ele><time>2026-05-01T10:27:36Z</time></trkpt><trkpt lat="45.04947533801692" lon="13.71180862957068"><ele>51.142857142857146</ele><time>2026-05-01T10:27:36.999Z</time></trkpt><trkpt lat="45.049416514831336" lon="13.711742863884702"><ele>51.0</ele><time>2026-05-01T10:27:37.999Z</time></trkpt><trkpt lat="45.049354875683356" lon="13.711672100204693"><ele>51.0</ele><time>2026-05-01T10:27:38.999Z</time></trkpt><trkpt lat="45.049285530573414" lon="13.711597936174897"><ele>51.0</ele><time>2026-05-01T10:27:39.999Z</time></trkpt><trkpt lat="45.049211899554486" lon="13.711533300625042"><ele>51.0</ele><time>2026-05-01T10:27:40.999Z</time></trkpt><trkpt lat="45.04913149228125" lon="13.711466092296531"><ele>51.0</ele><time>2026-05-01T10:27:41.999Z</time></trkpt><trkpt lat="45.04904745670446" lon="13.711406450127175"><ele>51.0</ele><time>2026-05-01T10:27:42.999Z</time></trkpt><trkpt lat="45.04896430651018" lon="13.711361591352642"><ele>50.199999999999996</ele><time>2026-05-01T10:27:43.999Z</time></trkpt><trkpt lat="45.04887743135152" lon="13.711325485550738"><ele>49.4</ele><time>2026-05-01T10:27:44.999Z</time></trkpt><trkpt lat="45.04879100449977" lon="13.71129352964226"><ele>48.6</ele><time>2026-05-01T10:27:45.999Z</time></trkpt><trkpt lat="45.04869920832526" lon="13.711252631284882"><ele>47.8</ele><time>2026-05-01T10:27:46.999Z</time></trkpt><trkpt lat="45.04860080890133" lon="13.711200019174331"><ele>47.0</ele><time>2026-05-01T10:27:47.999Z</time></trkpt><trkpt lat="45.048511804204324" lon="13.71113790173016"><ele>47.0</ele><time>2026-05-01T10:27:48.999Z</time></trkpt><trkpt lat="45.04843576075795" lon="13.711071368268124"><ele>47.0</ele><time>2026-05-01T10:27:49.999Z</time></trkpt><trkpt lat="45.04835666086448" lon="13.710998943181709"><ele>47.0</ele><time>2026-05-01T10:27:50.999Z</time></trkpt><trkpt lat="45.048292754397565" lon="13.710938337277787"><ele>47.0</ele><time>2026-05-01T10:27:51.999Z</time></trkpt><trkpt lat="45.048227260393126" lon="13.710886367995839"><ele>47.0</ele><time>2026-05-01T10:27:52.999Z</time></trkpt><trkpt lat="45.04816165892185" lon="13.710850643764031"><ele>47.0</ele><time>2026-05-01T10:27:53.999Z</time></trkpt><trkpt lat="45.048087396470905" lon="13.710831402338036"><ele>47.14285714285714</ele><time>2026-05-01T10:27:54.999Z</time></trkpt><trkpt lat="45.0480145286196" lon="13.710832722115333"><ele>47.285714285714285</ele><time>2026-05-01T10:27:55.999Z</time></trkpt><trkpt lat="45.04794599420721" lon="13.710856584055852"><ele>47.42857142857143</ele><time>2026-05-01T10:27:57Z</time></trkpt><trkpt lat="45.047879460756455" lon="13.71090688983538"><ele>47.57142857142857</ele><time>2026-05-01T10:27:58Z</time></trkpt><trkpt lat="45.04781587484879" lon="13.710967680563263"><ele>47.714285714285715</ele><time>2026-05-01T10:27:59Z</time></trkpt><trkpt lat="45.04776460719805" lon="13.711042532713744"><ele>47.857142857142854</ele><time>2026-05-01T10:28:00Z</time></trkpt><trkpt lat="45.04771814979983" lon="13.71112700643008"><ele>48.0</ele><time>2026-05-01T10:28:01Z</time></trkpt><trkpt lat="45.047685245817625" lon="13.711222319120816"><ele>48.0</ele><time>2026-05-01T10:28:02Z</time></trkpt><trkpt lat="45.047662466421556" lon="13.711331148662957"><ele>48.0</ele><time>2026-05-01T10:28:03Z</time></trkpt><trkpt lat="45.0476557569927" lon="13.711452731283828"><ele>48.0</ele><time>2026-05-01T10:28:04Z</time></trkpt><trkpt lat="45.0476553784343" lon="13.711573130959053"><ele>48.0</ele><time>2026-05-01T10:28:05Z</time></trkpt><trkpt lat="45.0476474733517" lon="13.711702948474022"><ele>48.0</ele><time>2026-05-01T10:28:06Z</time></trkpt><trkpt lat="45.04763608809106" lon="13.711816654583318"><ele>48.0</ele><time>2026-05-01T10:28:07Z</time></trkpt><trkpt lat="45.04761145154287" lon="13.711918498626114"><ele>47.857142857142854</ele><time>2026-05-01T10:28:08Z</time></trkpt><trkpt lat="45.047581025112535" lon="13.712007623940117"><ele>47.714285714285715</ele><time>2026-05-01T10:28:09Z</time></trkpt><trkpt lat="45.047538406530016" lon="13.712093377131483"><ele>47.57142857142857</ele><time>2026-05-01T10:28:10Z</time></trkpt><trkpt lat="45.047481798648796" lon="13.712155980270223"><ele>47.42857142857143</ele><time>2026-05-01T10:28:11Z</time></trkpt><trkpt lat="45.047408457006895" lon="13.712202001123371"><ele>47.285714285714285</ele><time>2026-05-01T10:28:12Z</time></trkpt><trkpt lat="45.047334874586895" lon="13.71222900530527"><ele>47.14285714285714</ele><time>2026-05-01T10:28:13Z</time></trkpt><trkpt lat="45.04725829151749" lon="13.71223482685201"><ele>47.0</ele><time>2026-05-01T10:28:14Z</time></trkpt><trkpt lat="45.047180301920534" lon="13.71222182363537"><ele>47.0</ele><time>2026-05-01T10:28:15Z</time></trkpt><trkpt lat="45.04709930221033" lon="13.712193418709962"><ele>47.0</ele><time>2026-05-01T10:28:16Z</time></trkpt><trkpt lat="45.04701824357947" lon="13.712158176223065"><ele>47.0</ele><time>2026-05-01T10:28:17Z</time></trkpt><trkpt lat="45.046937568131305" lon="13.712124553477588"><ele>47.0</ele><time>2026-05-01T10:28:18Z</time></trkpt><trkpt lat="45.046850509883875" lon="13.712097370941622"><ele>47.0</ele><time>2026-05-01T10:28:19Z</time></trkpt><trkpt lat="45.04676107729085" lon="13.712067513260642"><ele>47.0</ele><time>2026-05-01T10:28:20Z</time></trkpt><trkpt lat="45.04667520708304" lon="13.712035688463908"><ele>47.83333333333333</ele><time>2026-05-01T10:28:21Z</time></trkpt><trkpt lat="45.0465948903009" lon="13.712010661001722"><ele>48.666666666666664</ele><time>2026-05-01T10:28:22Z</time></trkpt><trkpt lat="45.04651415129674" lon="13.712001308062982"><ele>49.5</ele><time>2026-05-01T10:28:23Z</time></trkpt><trkpt lat="45.04642824685855" lon="13.712011448584136"><ele>50.33333333333333</ele><time>2026-05-01T10:28:24Z</time></trkpt><trkpt lat="45.046342935897506" lon="13.712037016687901"><ele>51.166666666666664</ele><time>2026-05-01T10:28:25Z</time></trkpt><trkpt lat="45.04626380498457" lon="13.712077060149461"><ele>52.0</ele><time>2026-05-01T10:28:26Z</time></trkpt><trkpt lat="45.04618483702933" lon="13.712123478614561"><ele>52.0</ele><time>2026-05-01T10:28:27Z</time></trkpt><trkpt lat="45.04609854684054" lon="13.71216077378906"><ele>52.0</ele><time>2026-05-01T10:28:28Z</time></trkpt><trkpt lat="45.04600557539858" lon="13.712205569687322"><ele>52.0</ele><time>2026-05-01T10:28:29Z</time></trkpt><trkpt lat="45.0459132260793" lon="13.712265972770307"><ele>52.0</ele><time>2026-05-01T10:28:30Z</time></trkpt><trkpt lat="45.04582332450725" lon="13.712323336939102"><ele>52.0</ele><time>2026-05-01T10:28:31Z</time></trkpt><trkpt lat="45.04572820457081" lon="13.712376094742355"><ele>52.2</ele><time>2026-05-01T10:28:32Z</time></trkpt><trkpt lat="45.045630074818405" lon="13.712423898512132"><ele>52.400000000000006</ele><time>2026-05-01T10:28:33Z</time></trkpt><trkpt lat="45.04553218625691" lon="13.712470433809887"><ele>52.599999999999994</ele><time>2026-05-01T10:28:34Z</time></trkpt><trkpt lat="45.045436396060595" lon="13.712512076801962"><ele>52.8</ele><time>2026-05-01T10:28:35Z</time></trkpt><trkpt lat="45.045340254406895" lon="13.712556931907894"><ele>53.0</ele><time>2026-05-01T10:28:36Z</time></trkpt><trkpt lat="45.045242253084254" lon="13.712608432560712"><ele>53.0</ele><time>2026-05-01T10:28:37Z</time></trkpt><trkpt lat="45.04514426780762" lon="13.712649802467293"><ele>53.0</ele><time>2026-05-01T10:28:38Z</time></trkpt><trkpt lat="45.045052860152424" lon="13.712676489133642"><ele>53.0</ele><time>2026-05-01T10:28:39Z</time></trkpt><trkpt lat="45.044955365919385" lon="13.712696090169256"><ele>53.0</ele><time>2026-05-01T10:28:40Z</time></trkpt><trkpt lat="45.0448568551486" lon="13.712709866747183"><ele>53.0</ele><time>2026-05-01T10:28:41Z</time></trkpt><trkpt lat="45.04475645745117" lon="13.712720734059316"><ele>52.8</ele><time>2026-05-01T10:28:42Z</time></trkpt><trkpt lat="45.04465658126399" lon="13.712731750292784"><ele>52.599999999999994</ele><time>2026-05-01T10:28:43Z</time></trkpt><trkpt lat="45.04455760750461" lon="13.712746336390056"><ele>52.400000000000006</ele><time>2026-05-01T10:28:44Z</time></trkpt><trkpt lat="45.044459094786156" lon="13.712771471279572"><ele>52.2</ele><time>2026-05-01T10:28:45Z</time></trkpt><trkpt lat="45.044369553283175" lon="13.712804896967958"><ele>52.0</ele><time>2026-05-01T10:28:46Z</time></trkpt><trkpt lat="45.044274557342824" lon="13.712827399497709"><ele>52.166666666666664</ele><time>2026-05-01T10:28:47Z</time></trkpt><trkpt lat="45.044189638673984" lon="13.712839903686234"><ele>52.33333333333333</ele><time>2026-05-01T10:28:48Z</time></trkpt><trkpt lat="45.044106065260266" lon="13.712845278525327"><ele>52.5</ele><time>2026-05-01T10:28:49Z</time></trkpt><trkpt lat="45.04402481174674" lon="13.7128428264155"><ele>52.66666666666667</ele><time>2026-05-01T10:28:50Z</time></trkpt><trkpt lat="45.04394784115463" lon="13.712808713486691"><ele>52.833333333333336</ele><time>2026-05-01T10:28:51Z</time></trkpt><trkpt lat="45.04386787168982" lon="13.712747392306595"><ele>53.0</ele><time>2026-05-01T10:28:52Z</time></trkpt><trkpt lat="45.04378802678052" lon="13.712680806233003"><ele>52.66666666666667</ele><time>2026-05-01T10:28:53Z</time></trkpt><trkpt lat="45.043701565357644" lon="13.712624926125885"><ele>52.333333333333336</ele><time>2026-05-01T10:28:54Z</time></trkpt><trkpt lat="45.043617934003585" lon="13.712586282458863"><ele>52.0</ele><time>2026-05-01T10:28:55Z</time></trkpt><trkpt lat="45.043542720043334" lon="13.712555129604567"><ele>51.66666666666667</ele><time>2026-05-01T10:28:56Z</time></trkpt><trkpt lat="45.04347295767375" lon="13.712513803018936"><ele>51.333333333333336</ele><time>2026-05-01T10:28:57Z</time></trkpt><trkpt lat="45.043405270116125" lon="13.712470245601164"><ele>51.0</ele><time>2026-05-01T10:28:58Z</time></trkpt><trkpt lat="45.04333716191032" lon="13.712438714355093"><ele>50.833333333333336</ele><time>2026-05-01T10:28:59Z</time></trkpt><trkpt lat="45.04327272596779" lon="13.712415371875178"><ele>50.66666666666667</ele><time>2026-05-01T10:29:00Z</time></trkpt><trkpt lat="45.043195899108866" lon="13.712408938266371"><ele>50.5</ele><time>2026-05-01T10:29:01Z</time></trkpt><trkpt lat="45.04311511526766" lon="13.712410331507"><ele>50.333333333333336</ele><time>2026-05-01T10:29:02Z</time></trkpt><trkpt lat="45.04303325246526" lon="13.712420147173226"><ele>50.16666666666667</ele><time>2026-05-01T10:29:03Z</time></trkpt><trkpt lat="45.042946290625906" lon="13.712425853194084"><ele>50.0</ele><time>2026-05-01T10:29:04Z</time></trkpt><trkpt lat="45.04286778542021" lon="13.712430855989423"><ele>50.00000000000001</ele><time>2026-05-01T10:29:05Z</time></trkpt><trkpt lat="45.04279362931089" lon="13.712440037350497"><ele>50.0</ele><time>2026-05-01T10:29:06Z</time></trkpt><trkpt lat="45.04270486201186" lon="13.712450268022357"><ele>50.0</ele><time>2026-05-01T10:29:07Z</time></trkpt><trkpt lat="45.042618481438815" lon="13.71245838399699"><ele>50.0</ele><time>2026-05-01T10:29:08Z</time></trkpt><trkpt lat="45.04252479133399" lon="13.712470847569843"><ele>50.00000000000001</ele><time>2026-05-01T10:29:09Z</time></trkpt><trkpt lat="45.04243197986794" lon="13.712498234337659"><ele>50.0</ele><time>2026-05-01T10:29:10Z</time></trkpt><trkpt lat="45.04234806472077" lon="13.712534297038973"><ele>49.0</ele><time>2026-05-01T10:29:11Z</time></trkpt><trkpt lat="45.04225423485247" lon="13.71257363297006"><ele>48.0</ele><time>2026-05-01T10:29:12Z</time></trkpt><trkpt lat="45.042159454708624" lon="13.712605221423864"><ele>47.0</ele><time>2026-05-01T10:29:13Z</time></trkpt><trkpt lat="45.0420606297306" lon="13.712634451273694"><ele>46.0</ele><time>2026-05-01T10:29:14Z</time></trkpt><trkpt lat="45.04196718970605" lon="13.712659537152273"><ele>45.0</ele><time>2026-05-01T10:29:15Z</time></trkpt><trkpt lat="45.04188577491356" lon="13.712693441818903"><ele>45.0</ele><time>2026-05-01T10:29:16Z</time></trkpt><trkpt lat="45.04180737675083" lon="13.71272842787146"><ele>45.0</ele><time>2026-05-01T10:29:17Z</time></trkpt><trkpt lat="45.04172561447057" lon="13.712754006451078"><ele>45.0</ele><time>2026-05-01T10:29:18Z</time></trkpt><trkpt lat="45.041640150924" lon="13.71277635249122"><ele>45.0</ele><time>2026-05-01T10:29:19Z</time></trkpt><trkpt lat="45.04155413128977" lon="13.712797281995956"><ele>45.0</ele><time>2026-05-01T10:29:20Z</time></trkpt><trkpt lat="45.0414711033368" lon="13.712819446574214"><ele>45.0</ele><time>2026-05-01T10:29:21Z</time></trkpt><trkpt lat="45.04139146126191" lon="13.7128362869641"><ele>44.5</ele><time>2026-05-01T10:29:22Z</time></trkpt><trkpt lat="45.041317645261714" lon="13.712850662031158"><ele>44.0</ele><time>2026-05-01T10:29:23Z</time></trkpt><trkpt lat="45.04124591437453" lon="13.712876371300144"><ele>43.5</ele><time>2026-05-01T10:29:24Z</time></trkpt><trkpt lat="45.04117336354339" lon="13.712909835894315"><ele>43.0</ele><time>2026-05-01T10:29:25Z</time></trkpt><trkpt lat="45.04110126332729" lon="13.712932032451565"><ele>42.5</ele><time>2026-05-01T10:29:26Z</time></trkpt><trkpt lat="45.04103371286474" lon="13.71294960719096"><ele>42.0</ele><time>2026-05-01T10:29:27Z</time></trkpt><trkpt lat="45.040951323190335" lon="13.71296977430701"><ele>42.0</ele><time>2026-05-01T10:29:28Z</time></trkpt><trkpt lat="45.04087454357155" lon="13.712965489249706"><ele>42.0</ele><time>2026-05-01T10:29:29Z</time></trkpt><trkpt lat="45.040792466722316" lon="13.712961596541248"><ele>42.0</ele><time>2026-05-01T10:29:30Z</time></trkpt><trkpt lat="45.04072019569406" lon="13.712947258531797"><ele>42.0</ele><time>2026-05-01T10:29:31Z</time></trkpt><trkpt lat="45.04064808947154" lon="13.71292435643275"><ele>42.0</ele><time>2026-05-01T10:29:32Z</time></trkpt><trkpt lat="45.04056960399823" lon="13.712902174332832"><ele>42.0</ele><time>2026-05-01T10:29:33Z</time></trkpt><trkpt lat="45.04049543099949" lon="13.712884297238835"><ele>41.333333333333336</ele><time>2026-05-01T10:29:34Z</time></trkpt><trkpt lat="45.040426066666384" lon="13.712860885824941"><ele>40.666666666666664</ele><time>2026-05-01T10:29:35Z</time></trkpt><trkpt lat="45.0403586043528" lon="13.71282708454937"><ele>40.0</ele><time>2026-05-01T10:29:36Z</time></trkpt><trkpt lat="45.0402917273733" lon="13.712804596268123"><ele>39.33333333333333</ele><time>2026-05-01T10:29:37Z</time></trkpt><trkpt lat="45.0402250178956" lon="13.712787692032913"><ele>38.666666666666664</ele><time>2026-05-01T10:29:38Z</time></trkpt><trkpt lat="45.04011766549076" lon="13.712752515739071"><ele>38.0</ele><time>2026-05-01T10:29:40Z</time></trkpt><trkpt lat="45.040033016587785" lon="13.712664981386135"><ele>37.857142857142854</ele><time>2026-05-01T10:29:42Z</time></trkpt><trkpt lat="45.039991794406355" lon="13.712584233983758"><ele>37.714285714285715</ele><time>2026-05-01T10:29:43Z</time></trkpt><trkpt lat="45.039942863823384" lon="13.71250326634597"><ele>37.57142857142857</ele><time>2026-05-01T10:29:44Z</time></trkpt><trkpt lat="45.03988979236415" lon="13.712448959462975"><ele>37.42857142857143</ele><time>2026-05-01T10:29:45Z</time></trkpt><trkpt lat="45.03982173408761" lon="13.712415553482298"><ele>37.285714285714285</ele><time>2026-05-01T10:29:46Z</time></trkpt><trkpt lat="45.039743178056995" lon="13.712391668659224"><ele>37.142857142857146</ele><time>2026-05-01T10:29:47Z</time></trkpt><trkpt lat="45.039663603455125" lon="13.71237303398581"><ele>37.0</ele><time>2026-05-01T10:29:48Z</time></trkpt><trkpt lat="45.039586101776145" lon="13.712363497121526"><ele>36.42857142857143</ele><time>2026-05-01T10:29:49Z</time></trkpt><trkpt lat="45.03951834559675" lon="13.712354525431273"><ele>35.857142857142854</ele><time>2026-05-01T10:29:50Z</time></trkpt><trkpt lat="45.039450317797005" lon="13.712336681817261"><ele>35.285714285714285</ele><time>2026-05-01T10:29:51Z</time></trkpt><trkpt lat="45.0393860084331" lon="13.712314659503246"><ele>34.714285714285715</ele><time>2026-05-01T10:29:52Z</time></trkpt><trkpt lat="45.03931549934523" lon="13.712284396358116"><ele>34.142857142857146</ele><time>2026-05-01T10:29:52.999Z</time></trkpt><trkpt lat="45.03924998074246" lon="13.71225363454169"><ele>33.57142857142857</ele><time>2026-05-01T10:29:53.999Z</time></trkpt><trkpt lat="45.03917935938021" lon="13.7122203331448"><ele>33.0</ele><time>2026-05-01T10:29:54.999Z</time></trkpt><trkpt lat="45.03910611133781" lon="13.71219037256001"><ele>32.333333333333336</ele><time>2026-05-01T10:29:55.999Z</time></trkpt><trkpt lat="45.039034872676424" lon="13.712156071067874"><ele>31.666666666666664</ele><time>2026-05-01T10:29:56.999Z</time></trkpt><trkpt lat="45.03896152676215" lon="13.712126533666323"><ele>31.0</ele><time>2026-05-01T10:29:57.999Z</time></trkpt><trkpt lat="45.03888788560751" lon="13.71210743151064"><ele>30.333333333333332</ele><time>2026-05-01T10:29:58.999Z</time></trkpt><trkpt lat="45.038808095400455" lon="13.712087679764181"><ele>29.666666666666664</ele><time>2026-05-01T10:29:59.999Z</time></trkpt><trkpt lat="45.03872446100092" lon="13.71207374449522"><ele>29.0</ele><time>2026-05-01T10:30:00.999Z</time></trkpt><trkpt lat="45.03864173713291" lon="13.712061317422847"><ele>28.999999999999996</ele><time>2026-05-01T10:30:01.999Z</time></trkpt><trkpt lat="45.03855881794553" lon="13.712046794751771"><ele>29.0</ele><time>2026-05-01T10:30:03Z</time></trkpt><trkpt lat="45.03847676805447" lon="13.712033694448104"><ele>29.0</ele><time>2026-05-01T10:30:04Z</time></trkpt><trkpt lat="45.03839426232331" lon="13.71202787618855"><ele>29.0</ele><time>2026-05-01T10:30:05Z</time></trkpt><trkpt lat="45.03831310594783" lon="13.712026376741257"><ele>28.999999999999996</ele><time>2026-05-01T10:30:06Z</time></trkpt><trkpt lat="45.03823263084586" lon="13.712016945689832"><ele>29.0</ele><time>2026-05-01T10:30:07Z</time></trkpt><trkpt lat="45.03815702419924" lon="13.712004878659908"><ele>28.833333333333332</ele><time>2026-05-01T10:30:08Z</time></trkpt><trkpt lat="45.03808468214701" lon="13.711965643098148"><ele>28.666666666666664</ele><time>2026-05-01T10:30:09Z</time></trkpt><trkpt lat="45.03800869716233" lon="13.711933576429194"><ele>28.5</ele><time>2026-05-01T10:30:10Z</time></trkpt><trkpt lat="45.037931585093034" lon="13.711889777973347"><ele>28.333333333333336</ele><time>2026-05-01T10:30:11Z</time></trkpt><trkpt lat="45.037853262235465" lon="13.711835716440353"><ele>28.166666666666668</ele><time>2026-05-01T10:30:12Z</time></trkpt><trkpt lat="45.03777598982967" lon="13.711787705534372"><ele>28.0</ele><time>2026-05-01T10:30:13Z</time></trkpt><trkpt lat="45.03770331062865" lon="13.711741928385493"><ele>28.333333333333336</ele><time>2026-05-01T10:30:14Z</time></trkpt><trkpt lat="45.03762465617575" lon="13.711710020298712"><ele>28.666666666666668</ele><time>2026-05-01T10:30:15Z</time></trkpt><trkpt lat="45.03755083323789" lon="13.71168068114489"><ele>29.0</ele><time>2026-05-01T10:30:16Z</time></trkpt><trkpt lat="45.03748241488197" lon="13.711679107837542"><ele>29.333333333333336</ele><time>2026-05-01T10:30:17Z</time></trkpt><trkpt lat="45.03741028116795" lon="13.711701404967855"><ele>29.666666666666668</ele><time>2026-05-01T10:30:18Z</time></trkpt><trkpt lat="45.03733757667392" lon="13.711744315827369"><ele>30.0</ele><time>2026-05-01T10:30:19Z</time></trkpt><trkpt lat="45.037261754874564" lon="13.71179419472193"><ele>30.0</ele><time>2026-05-01T10:30:20Z</time></trkpt><trkpt lat="45.037194782305654" lon="13.711831479322038"><ele>30.0</ele><time>2026-05-01T10:30:21Z</time></trkpt><trkpt lat="45.037116136949095" lon="13.711870364093068"><ele>30.0</ele><time>2026-05-01T10:30:22Z</time></trkpt><trkpt lat="45.03704511480419" lon="13.711903317130052"><ele>30.0</ele><time>2026-05-01T10:30:23Z</time></trkpt><trkpt lat="45.036975783785444" lon="13.711931207460077"><ele>30.0</ele><time>2026-05-01T10:30:24Z</time></trkpt><trkpt lat="45.03689392745015" lon="13.711941660855311"><ele>30.0</ele><time>2026-05-01T10:30:25Z</time></trkpt><trkpt lat="45.03681123852743" lon="13.711934731997582"><ele>30.0</ele><time>2026-05-01T10:30:26Z</time></trkpt><trkpt lat="45.03673259401745" lon="13.711922042832699"><ele>30.0</ele><time>2026-05-01T10:30:27Z</time></trkpt><trkpt lat="45.03664397175189" lon="13.711919068866472"><ele>30.0</ele><time>2026-05-01T10:30:28Z</time></trkpt><trkpt lat="45.036547313524935" lon="13.711916945173172"><ele>30.0</ele><time>2026-05-01T10:30:29Z</time></trkpt><trkpt lat="45.03645429491539" lon="13.711905565987246"><ele>30.0</ele><time>2026-05-01T10:30:30Z</time></trkpt><trkpt lat="45.03637525838685" lon="13.711898627159217"><ele>30.0</ele><time>2026-05-01T10:30:31Z</time></trkpt><trkpt lat="45.03628643309457" lon="13.711902875604274"><ele>30.0</ele><time>2026-05-01T10:30:32Z</time></trkpt><trkpt lat="45.03619866968866" lon="13.71191100365908"><ele>30.0</ele><time>2026-05-01T10:30:33Z</time></trkpt><trkpt lat="45.036112271173806" lon="13.71193243551745"><ele>30.0</ele><time>2026-05-01T10:30:34Z</time></trkpt><trkpt lat="45.03602411987573" lon="13.711961462783398"><ele>30.0</ele><time>2026-05-01T10:30:35Z</time></trkpt><trkpt lat="45.035936479368104" lon="13.712003827604427"><ele>30.0</ele><time>2026-05-01T10:30:36Z</time></trkpt><trkpt lat="45.035855116564" lon="13.71205511057916"><ele>30.0</ele><time>2026-05-01T10:30:37Z</time></trkpt><trkpt lat="45.035770727697376" lon="13.712104228116"><ele>30.166666666666668</ele><time>2026-05-01T10:30:38Z</time></trkpt><trkpt lat="45.03569404163508" lon="13.71215204680979"><ele>30.333333333333336</ele><time>2026-05-01T10:30:39Z</time></trkpt><trkpt lat="45.035623571912005" lon="13.712219688782431"><ele>30.5</ele><time>2026-05-01T10:30:40Z</time></trkpt><trkpt lat="45.035555210796986" lon="13.71227616508505"><ele>30.666666666666668</ele><time>2026-05-01T10:30:41Z</time></trkpt><trkpt lat="45.03548855890813" lon="13.71231301386185"><ele>30.833333333333336</ele><time>2026-05-01T10:30:42Z</time></trkpt><trkpt lat="45.035414578622046" lon="13.712345961699148"><ele>31.0</ele><time>2026-05-01T10:30:43Z</time></trkpt><trkpt lat="45.03532864130262" lon="13.71236787797032"><ele>31.000000000000004</ele><time>2026-05-01T10:30:44Z</time></trkpt><trkpt lat="45.03524737795158" lon="13.712394442831018"><ele>31.0</ele><time>2026-05-01T10:30:45Z</time></trkpt><trkpt lat="45.03517624731315" lon="13.712447781557634"><ele>31.0</ele><time>2026-05-01T10:30:46Z</time></trkpt><trkpt lat="45.03511731898357" lon="13.712512244607964"><ele>31.0</ele><time>2026-05-01T10:30:47Z</time></trkpt><trkpt lat="45.0350642418266" lon="13.712577457628843"><ele>31.000000000000004</ele><time>2026-05-01T10:30:48Z</time></trkpt><trkpt lat="45.03500263621581" lon="13.712622689770043"><ele>31.0</ele><time>2026-05-01T10:30:49Z</time></trkpt><trkpt lat="45.03492673402385" lon="13.712646757164954"><ele>30.666666666666668</ele><time>2026-05-01T10:30:50Z</time></trkpt><trkpt lat="45.03484353843185" lon="13.712667275748204"><ele>30.333333333333336</ele><time>2026-05-01T10:30:51Z</time></trkpt><trkpt lat="45.03475764364949" lon="13.712680584670887"><ele>30.0</ele><time>2026-05-01T10:30:52Z</time></trkpt><trkpt lat="45.03466888383599" lon="13.71268186367148"><ele>29.666666666666664</ele><time>2026-05-01T10:30:53Z</time></trkpt><trkpt lat="45.03457708629884" lon="13.712679820595893"><ele>29.333333333333332</ele><time>2026-05-01T10:30:54Z</time></trkpt><trkpt lat="45.03448402578922" lon="13.712669139976526"><ele>29.0</ele><time>2026-05-01T10:30:55Z</time></trkpt><trkpt lat="45.0343931727244" lon="13.712666172213554"><ele>29.0</ele><time>2026-05-01T10:30:56Z</time></trkpt><trkpt lat="45.03430317257996" lon="13.71266671197458"><ele>29.0</ele><time>2026-05-01T10:30:57Z</time></trkpt><trkpt lat="45.03420729694297" lon="13.71268113755116"><ele>29.0</ele><time>2026-05-01T10:30:58Z</time></trkpt><trkpt lat="45.034114476946925" lon="13.712689305738724"><ele>29.0</ele><time>2026-05-01T10:30:59Z</time></trkpt><trkpt lat="45.03402536576204" lon="13.712680151715952"><ele>29.0</ele><time>2026-05-01T10:31:00Z</time></trkpt><trkpt lat="45.0339331144192" lon="13.712671384763384"><ele>28.499999999999996</ele><time>2026-05-01T10:31:01Z</time></trkpt><trkpt lat="45.03383999743507" lon="13.712675101702043"><ele>28.0</ele><time>2026-05-01T10:31:02Z</time></trkpt><trkpt lat="45.03375282695529" lon="13.712695379021048"><ele>27.5</ele><time>2026-05-01T10:31:03Z</time></trkpt><trkpt lat="45.03366671673921" lon="13.712730838317926"><ele>27.0</ele><time>2026-05-01T10:31:04Z</time></trkpt><trkpt lat="45.03358358244776" lon="13.712767342915601"><ele>26.499999999999996</ele><time>2026-05-01T10:31:05Z</time></trkpt><trkpt lat="45.03350119236642" lon="13.712807160449607"><ele>26.0</ele><time>2026-05-01T10:31:06Z</time></trkpt><trkpt lat="45.03341027755569" lon="13.712848504961286"><ele>25.833333333333332</ele><time>2026-05-01T10:31:07Z</time></trkpt><trkpt lat="45.033326264657724" lon="13.712896013680853"><ele>25.666666666666664</ele><time>2026-05-01T10:31:08Z</time></trkpt><trkpt lat="45.03324955303497" lon="13.71293516497901"><ele>25.5</ele><time>2026-05-01T10:31:09Z</time></trkpt><trkpt lat="45.033172121314415" lon="13.712961536912445"><ele>25.333333333333336</ele><time>2026-05-01T10:31:10Z</time></trkpt><trkpt lat="45.03309558038179" lon="13.712981820565448"><ele>25.166666666666668</ele><time>2026-05-01T10:31:11Z</time></trkpt><trkpt lat="45.03302163382294" lon="13.712997926396369"><ele>25.0</ele><time>2026-05-01T10:31:12Z</time></trkpt><trkpt lat="45.03295612518541" lon="13.713009827804267"><ele>24.8</ele><time>2026-05-01T10:31:13Z</time></trkpt><trkpt lat="45.0328887902553" lon="13.712995514422408"><ele>24.6</ele><time>2026-05-01T10:31:14Z</time></trkpt><trkpt lat="45.032819516335735" lon="13.712962696872975"><ele>24.4</ele><time>2026-05-01T10:31:15Z</time></trkpt><trkpt lat="45.032712504220484" lon="13.712832063099787"><ele>24.2</ele><time>2026-05-01T10:31:17Z</time></trkpt><trkpt lat="45.03266320686494" lon="13.712647497590472"><ele>24.0</ele><time>2026-05-01T10:31:19Z</time></trkpt><trkpt lat="45.03265046848812" lon="13.71252893737044"><ele>24.0</ele><time>2026-05-01T10:31:20Z</time></trkpt><trkpt lat="45.032638041416796" lon="13.712420697929204"><ele>24.0</ele><time>2026-05-01T10:31:21Z</time></trkpt><trkpt lat="45.03262093291797" lon="13.712319997819751"><ele>24.0</ele><time>2026-05-01T10:31:22Z</time></trkpt><trkpt lat="45.03259446820278" lon="13.712220688228001"><ele>24.0</ele><time>2026-05-01T10:31:23Z</time></trkpt><trkpt lat="45.03255050870251" lon="13.712127247353193"><ele>24.0</ele><time>2026-05-01T10:31:24Z</time></trkpt><trkpt lat="45.0324938211301" lon="13.712043124694803"><ele>24.0</ele><time>2026-05-01T10:31:25Z</time></trkpt><trkpt lat="45.03243582288564" lon="13.711961568375095"><ele>23.666666666666668</ele><time>2026-05-01T10:31:26Z</time></trkpt><trkpt lat="45.03237280852803" lon="13.711877862427428"><ele>23.333333333333332</ele><time>2026-05-01T10:31:27Z</time></trkpt><trkpt lat="45.03230488895161" lon="13.711802461899522"><ele>23.0</ele><time>2026-05-01T10:31:28Z</time></trkpt><trkpt lat="45.03222824482992" lon="13.71173423076701"><ele>22.666666666666664</ele><time>2026-05-01T10:31:29Z</time></trkpt><trkpt lat="45.032154238624315" lon="13.711669718645298"><ele>22.333333333333332</ele><time>2026-05-01T10:31:30Z</time></trkpt><trkpt lat="45.032094777639934" lon="13.711607396654129"><ele>22.0</ele><time>2026-05-01T10:31:31Z</time></trkpt><trkpt lat="45.03204551246568" lon="13.711542556136521"><ele>22.0</ele><time>2026-05-01T10:31:32Z</time></trkpt><trkpt lat="45.031997008606375" lon="13.711473055282816"><ele>22.0</ele><time>2026-05-01T10:31:33Z</time></trkpt><trkpt lat="45.03194556702631" lon="13.711409525338357"><ele>22.0</ele><time>2026-05-01T10:31:34Z</time></trkpt><trkpt lat="45.03185996874117" lon="13.711324020274976"><ele>22.0</ele><time>2026-05-01T10:31:36Z</time></trkpt><trkpt lat="45.03176758586157" lon="13.711344567031562"><ele>22.0</ele><time>2026-05-01T10:31:38Z</time></trkpt><trkpt lat="45.031709296419756" lon="13.711474601349403"><ele>22.0</ele><time>2026-05-01T10:31:40Z</time></trkpt><trkpt lat="45.03169020842294" lon="13.711564456407453"><ele>22.0</ele><time>2026-05-01T10:31:41Z</time></trkpt><trkpt lat="45.031670641544636" lon="13.711669382729802"><ele>22.0</ele><time>2026-05-01T10:31:42Z</time></trkpt><trkpt lat="45.03165115721898" lon="13.71177162916637"><ele>22.0</ele><time>2026-05-01T10:31:43Z</time></trkpt><trkpt lat="45.031624899084726" lon="13.711868137848437"><ele>22.0</ele><time>2026-05-01T10:31:44Z</time></trkpt><trkpt lat="45.03159681590278" lon="13.711964399992528"><ele>22.0</ele><time>2026-05-01T10:31:45Z</time></trkpt><trkpt lat="45.03156736330817" lon="13.712069353355366"><ele>22.0</ele><time>2026-05-01T10:31:46Z</time></trkpt><trkpt lat="45.03154501919561" lon="13.712170399146162"><ele>22.0</ele><time>2026-05-01T10:31:47Z</time></trkpt><trkpt lat="45.03152523119649" lon="13.712255071198559"><ele>22.0</ele><time>2026-05-01T10:31:48Z</time></trkpt><trkpt lat="45.03150946733514" lon="13.712348316417577"><ele>22.0</ele><time>2026-05-01T10:31:49Z</time></trkpt><trkpt lat="45.03149321069062" lon="13.712444623268402"><ele>22.0</ele><time>2026-05-01T10:31:50Z</time></trkpt><trkpt lat="45.03145946244912" lon="13.71253433233259"><ele>22.0</ele><time>2026-05-01T10:31:51Z</time></trkpt><trkpt lat="45.03141337747418" lon="13.712622512678225"><ele>22.0</ele><time>2026-05-01T10:31:52Z</time></trkpt><trkpt lat="45.03137298103333" lon="13.712717302140044"><ele>22.0</ele><time>2026-05-01T10:31:53Z</time></trkpt><trkpt lat="45.031347113769044" lon="13.712811984840918"><ele>22.6</ele><time>2026-05-01T10:31:54Z</time></trkpt><trkpt lat="45.03131065507837" lon="13.712971850780583"><ele>23.200000000000003</ele><time>2026-05-01T10:31:56Z</time></trkpt><trkpt lat="45.031279060171684" lon="13.713109007100698"><ele>23.8</ele><time>2026-05-01T10:31:58Z</time></trkpt><trkpt lat="45.031242764799835" lon="13.713243144658193"><ele>24.4</ele><time>2026-05-01T10:32:00Z</time></trkpt><trkpt lat="45.03121252260562" lon="13.71336614480086"><ele>25.0</ele><time>2026-05-01T10:32:02Z</time></trkpt><trkpt lat="45.031184829485966" lon="13.713478320224882"><ele>25.666666666666668</ele><time>2026-05-01T10:32:04Z</time></trkpt><trkpt lat="45.0311567424888" lon="13.713599893854505"><ele>26.333333333333336</ele><time>2026-05-01T10:32:06Z</time></trkpt><trkpt lat="45.03110518463722" lon="13.71370140312136"><ele>27.0</ele><time>2026-05-01T10:32:08Z</time></trkpt><trkpt lat="45.0310427005143" lon="13.713722362672934"><ele>27.666666666666664</ele><time>2026-05-01T10:32:10Z</time></trkpt><trkpt lat="45.03097117807616" lon="13.713691179062629"><ele>28.333333333333332</ele><time>2026-05-01T10:32:12Z</time></trkpt><trkpt lat="45.030915071048355" lon="13.713640104097854"><ele>29.0</ele><time>2026-05-01T10:32:13Z</time></trkpt><trkpt lat="45.03085868587119" lon="13.713589642819075"><ele>27.999999999999996</ele><time>2026-05-01T10:32:14Z</time></trkpt><trkpt lat="45.030764776571914" lon="13.713539443095925"><ele>27.0</ele><time>2026-05-01T10:32:16Z</time></trkpt><trkpt lat="45.03065734128557" lon="13.713487490525617"><ele>26.0</ele><time>2026-05-01T10:32:18Z</time></trkpt><trkpt lat="45.030598992772056" lon="13.713446428660218"><ele>25.0</ele><time>2026-05-01T10:32:19Z</time></trkpt><trkpt lat="45.03053602179408" lon="13.713404867101241"><ele>24.0</ele><time>2026-05-01T10:32:20Z</time></trkpt><trkpt lat="45.03047145219307" lon="13.713366243742948"><ele>23.0</ele><time>2026-05-01T10:32:21Z</time></trkpt><trkpt lat="45.030377029827456" lon="13.713304248575058"><ele>23.0</ele><time>2026-05-01T10:32:23Z</time></trkpt><trkpt lat="45.030306045369734" lon="13.713265083416095"><ele>23.0</ele><time>2026-05-01T10:32:25Z</time></trkpt><trkpt lat="45.03023479474723" lon="13.713212519192187"><ele>23.0</ele><time>2026-05-01T10:32:27Z</time></trkpt><trkpt lat="45.03014514105926" lon="13.713159008635163"><ele>23.0</ele><time>2026-05-01T10:32:29Z</time></trkpt><trkpt lat="45.03007815493223" lon="13.713132090367386"><ele>23.0</ele><time>2026-05-01T10:32:31Z</time></trkpt><trkpt lat="45.03015417301122" lon="13.71314256753388"><ele>23.0</ele><time>2026-05-01T10:32:45Z</time></trkpt><trkpt lat="45.030224946879216" lon="13.713182317073448"><ele>23.0</ele><time>2026-05-01T10:32:46Z</time></trkpt><trkpt lat="45.03029878616369" lon="13.713220575105979"><ele>23.0</ele><time>2026-05-01T10:32:47Z</time></trkpt><trkpt lat="45.030380927868826" lon="13.71327026217114"><ele>23.0</ele><time>2026-05-01T10:32:48Z</time></trkpt><trkpt lat="45.030467324549335" lon="13.713322761781681"><ele>23.0</ele><time>2026-05-01T10:32:49Z</time></trkpt><trkpt lat="45.03053143907008" lon="13.713364178731084"><ele>23.0</ele><time>2026-05-01T10:32:50Z</time></trkpt><trkpt lat="45.03059813284846" lon="13.713406427382782"><ele>23.0</ele><time>2026-05-01T10:32:51Z</time></trkpt><trkpt lat="45.0306579143931" lon="13.713443207660465"><ele>23.0</ele><time>2026-05-01T10:32:52Z</time></trkpt><trkpt lat="45.030760075423146" lon="13.71349622393808"><ele>23.0</ele><time>2026-05-01T10:32:54Z</time></trkpt><trkpt lat="45.030846620305596" lon="13.71354580548411"><ele>23.0</ele><time>2026-05-01T10:32:56Z</time></trkpt><trkpt lat="45.030915478672284" lon="13.713615677867423"><ele>23.0</ele><time>2026-05-01T10:32:58Z</time></trkpt><trkpt lat="45.03095815047222" lon="13.713701217643607"><ele>23.0</ele><time>2026-05-01T10:33:01Z</time></trkpt><trkpt lat="45.030893746408026" lon="13.713781022945648"><ele>23.0</ele><time>2026-05-01T10:33:04Z</time></trkpt><trkpt lat="45.03078262963706" lon="13.713796747649257"><ele>23.4</ele><time>2026-05-01T10:33:06Z</time></trkpt><trkpt lat="45.03068285389108" lon="13.713848859194638"><ele>23.799999999999997</ele><time>2026-05-01T10:33:08Z</time></trkpt><trkpt lat="45.030605999768824" lon="13.713960992793991"><ele>24.2</ele><time>2026-05-01T10:33:10Z</time></trkpt><trkpt lat="45.03054763102206" lon="13.714103592435935"><ele>24.6</ele><time>2026-05-01T10:33:12Z</time></trkpt><trkpt lat="45.03049735243277" lon="13.714177152629173"><ele>25.0</ele><time>2026-05-01T10:33:13Z</time></trkpt><trkpt lat="45.030446654512" lon="13.714244528904986"><ele>25.000000000000004</ele><time>2026-05-01T10:33:14Z</time></trkpt><trkpt lat="45.03040757233542" lon="13.714328795524686"><ele>25.0</ele><time>2026-05-01T10:33:15Z</time></trkpt><trkpt lat="45.03037494674233" lon="13.714419094423242"><ele>25.0</ele><time>2026-05-01T10:33:16Z</time></trkpt><trkpt lat="45.030345445197355" lon="13.71450329312155"><ele>25.0</ele><time>2026-05-01T10:33:17Z</time></trkpt><trkpt lat="45.03027229399698" lon="13.714606891286389"><ele>25.000000000000004</ele><time>2026-05-01T10:33:19Z</time></trkpt><trkpt lat="45.03019448537892" lon="13.714699982181427"><ele>25.0</ele><time>2026-05-01T10:33:21Z</time></trkpt><trkpt lat="45.03015087161891" lon="13.714765369549625"><ele>25.4</ele><time>2026-05-01T10:33:22Z</time></trkpt><trkpt lat="45.03008025620885" lon="13.714872292231686"><ele>25.8</ele><time>2026-05-01T10:33:24Z</time></trkpt><trkpt lat="45.02998668026436" lon="13.71492106150412"><ele>26.200000000000003</ele><time>2026-05-01T10:33:26Z</time></trkpt><trkpt lat="45.02988333069828" lon="13.71488606973221"><ele>26.6</ele><time>2026-05-01T10:33:28Z</time></trkpt><trkpt lat="45.02979628127284" lon="13.714955325917504"><ele>27.0</ele><time>2026-05-01T10:33:30Z</time></trkpt><trkpt lat="45.02974680410363" lon="13.71512206886298"><ele>26.666666666666668</ele><time>2026-05-01T10:33:32Z</time></trkpt><trkpt lat="45.02971876857941" lon="13.715210742179295"><ele>26.333333333333336</ele><time>2026-05-01T10:33:33Z</time></trkpt><trkpt lat="45.02969256686531" lon="13.715307318920626"><ele>26.0</ele><time>2026-05-01T10:33:34Z</time></trkpt><trkpt lat="45.029666827529226" lon="13.715395028470049"><ele>25.666666666666668</ele><time>2026-05-01T10:33:35Z</time></trkpt><trkpt lat="45.029633786292976" lon="13.715484527644604"><ele>25.333333333333336</ele><time>2026-05-01T10:33:36Z</time></trkpt><trkpt lat="45.02960557706156" lon="13.715565972859157"><ele>25.0</ele><time>2026-05-01T10:33:37Z</time></trkpt><trkpt lat="45.02958561472475" lon="13.715741389264789"><ele>25.000000000000004</ele><time>2026-05-01T10:33:39Z</time></trkpt><trkpt lat="45.02958965930865" lon="13.715834651649685"><ele>25.0</ele><time>2026-05-01T10:33:40Z</time></trkpt><trkpt lat="45.029588411282326" lon="13.715928642935248"><ele>25.0</ele><time>2026-05-01T10:33:41Z</time></trkpt><trkpt lat="45.029583172128994" lon="13.716020230964489"><ele>25.0</ele><time>2026-05-01T10:33:42Z</time></trkpt><trkpt lat="45.02955992737009" lon="13.71618766012905"><ele>25.000000000000004</ele><time>2026-05-01T10:33:44Z</time></trkpt><trkpt lat="45.0295340096416" lon="13.71632958617473"><ele>25.0</ele><time>2026-05-01T10:33:46Z</time></trkpt><trkpt lat="45.02949882873291" lon="13.716441862191566"><ele>25.8</ele><time>2026-05-01T10:33:48Z</time></trkpt><trkpt lat="45.02945001577131" lon="13.716560026032038"><ele>26.6</ele><time>2026-05-01T10:33:50Z</time></trkpt><trkpt lat="45.02939101173344" lon="13.716716549967268"><ele>27.4</ele><time>2026-05-01T10:33:52Z</time></trkpt><trkpt lat="45.02934775630118" lon="13.716789198866316"><ele>28.2</ele><time>2026-05-01T10:33:53Z</time></trkpt><trkpt lat="45.029264894870934" lon="13.716914772800536"><ele>29.0</ele><time>2026-05-01T10:33:55Z</time></trkpt><trkpt lat="45.029190850586204" lon="13.716949012895281"><ele>30.0</ele><time>2026-05-01T10:33:56Z</time></trkpt><trkpt lat="45.02906510193619" lon="13.717002292150696"><ele>31.0</ele><time>2026-05-01T10:33:58Z</time></trkpt><trkpt lat="45.0289887882098" lon="13.717038876727665"><ele>32.0</ele><time>2026-05-01T10:33:59Z</time></trkpt><trkpt lat="45.02889079703803" lon="13.717081743062021"><ele>33.0</ele><time>2026-05-01T10:34:00Z</time></trkpt><trkpt lat="45.028796152259325" lon="13.717127512155443"><ele>34.0</ele><time>2026-05-01T10:34:01Z</time></trkpt><trkpt lat="45.02870683037175" lon="13.717177458064096"><ele>34.0</ele><time>2026-05-01T10:34:02Z</time></trkpt><trkpt lat="45.02862858570241" lon="13.717231854834845"><ele>34.0</ele><time>2026-05-01T10:34:03Z</time></trkpt><trkpt lat="45.02855308091135" lon="13.7172682452859"><ele>34.0</ele><time>2026-05-01T10:34:04Z</time></trkpt><trkpt lat="45.02847782888453" lon="13.71730210123119"><ele>34.0</ele><time>2026-05-01T10:34:05Z</time></trkpt><trkpt lat="45.02840419035084" lon="13.717356700660543"><ele>34.0</ele><time>2026-05-01T10:34:06Z</time></trkpt><trkpt lat="45.02833983252399" lon="13.717426035174801"><ele>34.0</ele><time>2026-05-01T10:34:07Z</time></trkpt><trkpt lat="45.02827384820199" lon="13.717516756708763"><ele>34.0</ele><time>2026-05-01T10:34:08Z</time></trkpt><trkpt lat="45.028210266118634" lon="13.717616859788524"><ele>34.0</ele><time>2026-05-01T10:34:09Z</time></trkpt><trkpt lat="45.02815031540657" lon="13.71769684916124"><ele>34.0</ele><time>2026-05-01T10:34:10Z</time></trkpt><trkpt lat="45.02808904093094" lon="13.717755196340493"><ele>34.0</ele><time>2026-05-01T10:34:11Z</time></trkpt><trkpt lat="45.02803407645028" lon="13.717799885048873"><ele>34.0</ele><time>2026-05-01T10:34:12Z</time></trkpt><trkpt lat="45.02794460963581" lon="13.717882507639358"><ele>34.0</ele><time>2026-05-01T10:34:14Z</time></trkpt><trkpt lat="45.02785602658992" lon="13.717993938481168"><ele>34.0</ele><time>2026-05-01T10:34:16.001Z</time></trkpt><trkpt lat="45.027806958886856" lon="13.718059019093747"><ele>34.0</ele><time>2026-05-01T10:34:17.001Z</time></trkpt><trkpt lat="45.02775750025699" lon="13.71811815452634"><ele>34.0</ele><time>2026-05-01T10:34:18.001Z</time></trkpt><trkpt lat="45.027664012197086" lon="13.718225421324766"><ele>34.0</ele><time>2026-05-01T10:34:20.001Z</time></trkpt><trkpt lat="45.02757874507131" lon="13.718341711410163"><ele>34.0</ele><time>2026-05-01T10:34:22.001Z</time></trkpt><trkpt lat="45.02753139782129" lon="13.718415901983773"><ele>34.0</ele><time>2026-05-01T10:34:23.001Z</time></trkpt><trkpt lat="45.02747514141148" lon="13.718497391937676"><ele>34.5</ele><time>2026-05-01T10:34:24.001Z</time></trkpt><trkpt lat="45.02742466660469" lon="13.718582461837705"><ele>35.0</ele><time>2026-05-01T10:34:25.001Z</time></trkpt><trkpt lat="45.027380691714754" lon="13.718679307076703"><ele>35.5</ele><time>2026-05-01T10:34:26.001Z</time></trkpt><trkpt lat="45.027332580921204" lon="13.718801681438277"><ele>36.0</ele><time>2026-05-01T10:34:27.001Z</time></trkpt><trkpt lat="45.02728998232463" lon="13.718908586078756"><ele>36.5</ele><time>2026-05-01T10:34:28.001Z</time></trkpt><trkpt lat="45.02724756635373" lon="13.719008109620946"><ele>37.0</ele><time>2026-05-01T10:34:29.001Z</time></trkpt><trkpt lat="45.02720281689083" lon="13.719102986166137"><ele>37.0</ele><time>2026-05-01T10:34:30.001Z</time></trkpt><trkpt lat="45.02715238434821" lon="13.719187622315173"><ele>37.0</ele><time>2026-05-01T10:34:31Z</time></trkpt><trkpt lat="45.02709835191701" lon="13.719249649351102"><ele>37.0</ele><time>2026-05-01T10:34:32Z</time></trkpt><trkpt lat="45.027041576453556" lon="13.719295446072802"><ele>37.0</ele><time>2026-05-01T10:34:33Z</time></trkpt><trkpt lat="45.02698409634779" lon="13.719347868027487"><ele>37.0</ele><time>2026-05-01T10:34:34Z</time></trkpt><trkpt lat="45.026934134846265" lon="13.719419697145202"><ele>37.0</ele><time>2026-05-01T10:34:35Z</time></trkpt><trkpt lat="45.02689969229915" lon="13.719504759227334"><ele>37.0</ele><time>2026-05-01T10:34:36Z</time></trkpt><trkpt lat="45.026874420360286" lon="13.719592146976996"><ele>37.285714285714285</ele><time>2026-05-01T10:34:37Z</time></trkpt><trkpt lat="45.026856724116236" lon="13.71968961938275"><ele>37.57142857142857</ele><time>2026-05-01T10:34:38Z</time></trkpt><trkpt lat="45.02685559787327" lon="13.719792114965808"><ele>37.85714285714286</ele><time>2026-05-01T10:34:39Z</time></trkpt><trkpt lat="45.02686517894229" lon="13.719898220472851"><ele>38.14285714285714</ele><time>2026-05-01T10:34:40Z</time></trkpt><trkpt lat="45.02687584699742" lon="13.719995849973097"><ele>38.42857142857142</ele><time>2026-05-01T10:34:41Z</time></trkpt><trkpt lat="45.02685773988956" lon="13.720088064379846"><ele>38.714285714285715</ele><time>2026-05-01T10:34:42Z</time></trkpt><trkpt lat="45.02681518577753" lon="13.72015966276526"><ele>39.0</ele><time>2026-05-01T10:34:43Z</time></trkpt><trkpt lat="45.02676590209938" lon="13.720238004761754"><ele>39.666666666666664</ele><time>2026-05-01T10:34:44Z</time></trkpt><trkpt lat="45.02673390805526" lon="13.72033644427489"><ele>40.333333333333336</ele><time>2026-05-01T10:34:45Z</time></trkpt><trkpt lat="45.02673142035876" lon="13.720447795329871"><ele>41.0</ele><time>2026-05-01T10:34:46Z</time></trkpt><trkpt lat="45.02673557412099" lon="13.720568033405483"><ele>41.66666666666667</ele><time>2026-05-01T10:34:47Z</time></trkpt><trkpt lat="45.0267258721851" lon="13.720687331738239"><ele>42.333333333333336</ele><time>2026-05-01T10:34:48Z</time></trkpt><trkpt lat="45.026708243592175" lon="13.720803239786699"><ele>43.0</ele><time>2026-05-01T10:34:49Z</time></trkpt><trkpt lat="45.026692377560224" lon="13.720923250210975"><ele>43.0</ele><time>2026-05-01T10:34:50Z</time></trkpt><trkpt lat="45.0266781057326" lon="13.721037454026774"><ele>43.0</ele><time>2026-05-01T10:34:51Z</time></trkpt><trkpt lat="45.02665894594517" lon="13.721149535539045"><ele>43.0</ele><time>2026-05-01T10:34:52Z</time></trkpt><trkpt lat="45.02663453378003" lon="13.72126399337982"><ele>43.0</ele><time>2026-05-01T10:34:53Z</time></trkpt><trkpt lat="45.02660662627558" lon="13.721380259710756"><ele>43.0</ele><time>2026-05-01T10:34:54Z</time></trkpt><trkpt lat="45.0265693763277" lon="13.721498324798256"><ele>43.0</ele><time>2026-05-01T10:34:55Z</time></trkpt><trkpt lat="45.026527772963405" lon="13.721621181594179"><ele>43.2</ele><time>2026-05-01T10:34:56Z</time></trkpt><trkpt lat="45.02648560088051" lon="13.721739191538104"><ele>43.4</ele><time>2026-05-01T10:34:57Z</time></trkpt><trkpt lat="45.026436928342584" lon="13.721854624264664"><ele>43.6</ele><time>2026-05-01T10:34:58Z</time></trkpt><trkpt lat="45.02638387558126" lon="13.721966647461493"><ele>43.800000000000004</ele><time>2026-05-01T10:34:59Z</time></trkpt><trkpt lat="45.02632984666026" lon="13.722065310701293"><ele>44.0</ele><time>2026-05-01T10:35:00Z</time></trkpt><trkpt lat="45.02627398218484" lon="13.72215593688363"><ele>44.0</ele><time>2026-05-01T10:35:01Z</time></trkpt><trkpt lat="45.02621836861059" lon="13.72225140954152"><ele>44.0</ele><time>2026-05-01T10:35:02Z</time></trkpt><trkpt lat="45.02617002003226" lon="13.722333110017637"><ele>44.0</ele><time>2026-05-01T10:35:03Z</time></trkpt><trkpt lat="45.02612014879574" lon="13.72241017523762"><ele>44.0</ele><time>2026-05-01T10:35:04Z</time></trkpt><trkpt lat="45.026067112950514" lon="13.722491521837267"><ele>44.0</ele><time>2026-05-01T10:35:05Z</time></trkpt><trkpt lat="45.026024355710305" lon="13.72257224702307"><ele>44.0</ele><time>2026-05-01T10:35:06Z</time></trkpt><trkpt lat="45.02598996323946" lon="13.722652589255373"><ele>44.0</ele><time>2026-05-01T10:35:07Z</time></trkpt><trkpt lat="45.025954701271495" lon="13.722728391692106"><ele>44.0</ele><time>2026-05-01T10:35:08Z</time></trkpt><trkpt lat="45.0259265196422" lon="13.722809367213193"><ele>44.0</ele><time>2026-05-01T10:35:09Z</time></trkpt><trkpt lat="45.02589942643164" lon="13.722898600241015"><ele>44.0</ele><time>2026-05-01T10:35:10Z</time></trkpt><trkpt lat="45.02587435091332" lon="13.7229865549689"><ele>44.0</ele><time>2026-05-01T10:35:11Z</time></trkpt><trkpt lat="45.02586243870151" lon="13.723074642673822"><ele>44.0</ele><time>2026-05-01T10:35:12Z</time></trkpt><trkpt lat="45.0258095331534" lon="13.723241088385361"><ele>43.83333333333333</ele><time>2026-05-01T10:35:14Z</time></trkpt><trkpt lat="45.025763888296886" lon="13.723317851529288"><ele>43.666666666666664</ele><time>2026-05-01T10:35:15Z</time></trkpt><trkpt lat="45.02571114612564" lon="13.723405172327567"><ele>43.5</ele><time>2026-05-01T10:35:16Z</time></trkpt><trkpt lat="45.02566326205528" lon="13.723506823246717"><ele>43.333333333333336</ele><time>2026-05-01T10:35:17Z</time></trkpt><trkpt lat="45.02562108943032" lon="13.723619203752737"><ele>43.16666666666667</ele><time>2026-05-01T10:35:18Z</time></trkpt><trkpt lat="45.02558916470971" lon="13.723738407768934"><ele>43.0</ele><time>2026-05-01T10:35:19Z</time></trkpt><trkpt lat="45.02555672334103" lon="13.72385436654307"><ele>43.0</ele><time>2026-05-01T10:35:20Z</time></trkpt><trkpt lat="45.02551987079301" lon="13.72397204046446"><ele>43.0</ele><time>2026-05-01T10:35:21Z</time></trkpt><trkpt lat="45.02548015611572" lon="13.72409477509573"><ele>43.0</ele><time>2026-05-01T10:35:22Z</time></trkpt><trkpt lat="45.025444840098395" lon="13.724211815977222"><ele>43.0</ele><time>2026-05-01T10:35:23Z</time></trkpt><trkpt lat="45.02540124238211" lon="13.724344758233002"><ele>43.0</ele><time>2026-05-01T10:35:24Z</time></trkpt><trkpt lat="45.025360455880126" lon="13.724487009841756"><ele>42.0</ele><time>2026-05-01T10:35:25Z</time></trkpt><trkpt lat="45.02532527032342" lon="13.72461712558446"><ele>41.0</ele><time>2026-05-01T10:35:26Z</time></trkpt><trkpt lat="45.025289187708225" lon="13.724743886998143"><ele>40.0</ele><time>2026-05-01T10:35:27Z</time></trkpt><trkpt lat="45.02524948460107" lon="13.724875251725432"><ele>39.0</ele><time>2026-05-01T10:35:28Z</time></trkpt><trkpt lat="45.025213353448116" lon="13.724998690717396"><ele>38.0</ele><time>2026-05-01T10:35:29Z</time></trkpt><trkpt lat="45.02517733786665" lon="13.725110583262344"><ele>38.0</ele><time>2026-05-01T10:35:30Z</time></trkpt><trkpt lat="45.02512949135688" lon="13.725212237940756"><ele>38.0</ele><time>2026-05-01T10:35:31Z</time></trkpt><trkpt lat="45.02507942743515" lon="13.725318631771728"><ele>38.0</ele><time>2026-05-01T10:35:32Z</time></trkpt><trkpt lat="45.02504113099134" lon="13.725424201020916"><ele>38.0</ele><time>2026-05-01T10:35:33Z</time></trkpt><trkpt lat="45.0250032260912" lon="13.7255206316037"><ele>38.0</ele><time>2026-05-01T10:35:34Z</time></trkpt><trkpt lat="45.02495560998111" lon="13.725616684679528"><ele>38.0</ele><time>2026-05-01T10:35:35Z</time></trkpt><trkpt lat="45.02490532129873" lon="13.725709888698102"><ele>39.0</ele><time>2026-05-01T10:35:36Z</time></trkpt><trkpt lat="45.02484896328729" lon="13.7258115939825"><ele>40.0</ele><time>2026-05-01T10:35:37Z</time></trkpt><trkpt lat="45.0248062231983" lon="13.725908498813368"><ele>41.0</ele><time>2026-05-01T10:35:38Z</time></trkpt><trkpt lat="45.024773407092816" lon="13.726005216488153"><ele>42.0</ele><time>2026-05-01T10:35:39Z</time></trkpt><trkpt lat="45.02473745665017" lon="13.726092025984178"><ele>43.0</ele><time>2026-05-01T10:35:40Z</time></trkpt><trkpt lat="45.02468978722565" lon="13.726178194974308"><ele>44.0</ele><time>2026-05-01T10:35:41Z</time></trkpt><trkpt lat="45.024648824303995" lon="13.726257075763295"><ele>44.0</ele><time>2026-05-01T10:35:42Z</time></trkpt><trkpt lat="45.024626596038686" lon="13.726353111816286"><ele>44.0</ele><time>2026-05-01T10:35:43Z</time></trkpt><trkpt lat="45.024620900070715" lon="13.726461614703517"><ele>44.0</ele><time>2026-05-01T10:35:44Z</time></trkpt><trkpt lat="45.02461745109474" lon="13.726577533747893"><ele>44.0</ele><time>2026-05-01T10:35:45Z</time></trkpt><trkpt lat="45.024606009356916" lon="13.726697400860152"><ele>44.0</ele><time>2026-05-01T10:35:46Z</time></trkpt><trkpt lat="45.02458599694294" lon="13.726799608651046"><ele>44.0</ele><time>2026-05-01T10:35:47Z</time></trkpt><trkpt lat="45.02457559778687" lon="13.726909861614912"><ele>44.285714285714285</ele><time>2026-05-01T10:35:48Z</time></trkpt><trkpt lat="45.024578326783164" lon="13.727019443272088"><ele>44.57142857142857</ele><time>2026-05-01T10:35:49Z</time></trkpt><trkpt lat="45.024597166588826" lon="13.727123220401406"><ele>44.85714285714286</ele><time>2026-05-01T10:35:50Z</time></trkpt><trkpt lat="45.024615107331414" lon="13.727213876420059"><ele>45.14285714285714</ele><time>2026-05-01T10:35:51Z</time></trkpt><trkpt lat="45.02461874252195" lon="13.727302984004758"><ele>45.42857142857142</ele><time>2026-05-01T10:35:52Z</time></trkpt><trkpt lat="45.02460750953774" lon="13.727409460651527"><ele>45.714285714285715</ele><time>2026-05-01T10:35:53Z</time></trkpt><trkpt lat="45.024594610486844" lon="13.727517004489515"><ele>46.0</ele><time>2026-05-01T10:35:54Z</time></trkpt><trkpt lat="45.02457252311231" lon="13.727623338512482"><ele>45.16666666666667</ele><time>2026-05-01T10:35:55Z</time></trkpt><trkpt lat="45.02453546187848" lon="13.727733704203827"><ele>44.333333333333336</ele><time>2026-05-01T10:35:56Z</time></trkpt><trkpt lat="45.02450232094101" lon="13.727841883722464"><ele>43.5</ele><time>2026-05-01T10:35:57Z</time></trkpt><trkpt lat="45.02447209986339" lon="13.72795172168016"><ele>42.666666666666664</ele><time>2026-05-01T10:35:58Z</time></trkpt><trkpt lat="45.02445447768308" lon="13.728056735682378"><ele>41.83333333333333</ele><time>2026-05-01T10:35:59Z</time></trkpt><trkpt lat="45.02443780920585" lon="13.728170385881947"><ele>41.0</ele><time>2026-05-01T10:36:00Z</time></trkpt><trkpt lat="45.024422665247386" lon="13.728283514347304"><ele>41.0</ele><time>2026-05-01T10:36:01Z</time></trkpt><trkpt lat="45.02439849646977" lon="13.728397569188857"><ele>41.0</ele><time>2026-05-01T10:36:02Z</time></trkpt><trkpt lat="45.024370360951515" lon="13.728508871291526"><ele>41.0</ele><time>2026-05-01T10:36:03Z</time></trkpt><trkpt lat="45.0243372909427" lon="13.728617140414425"><ele>41.0</ele><time>2026-05-01T10:36:04Z</time></trkpt><trkpt lat="45.024297876624416" lon="13.72871485354171"><ele>41.0</ele><time>2026-05-01T10:36:05Z</time></trkpt><trkpt lat="45.024272968429344" lon="13.728827244786881"><ele>41.0</ele><time>2026-05-01T10:36:06Z</time></trkpt><trkpt lat="45.02425785374469" lon="13.728942193666485"><ele>40.5</ele><time>2026-05-01T10:36:07Z</time></trkpt><trkpt lat="45.02424759930229" lon="13.72906332418257"><ele>40.0</ele><time>2026-05-01T10:36:08Z</time></trkpt><trkpt lat="45.02423287206339" lon="13.729182063214358"><ele>39.5</ele><time>2026-05-01T10:36:09Z</time></trkpt><trkpt lat="45.02420974260565" lon="13.729302212488168"><ele>39.0</ele><time>2026-05-01T10:36:10Z</time></trkpt><trkpt lat="45.02418151359011" lon="13.729420585210631"><ele>38.5</ele><time>2026-05-01T10:36:11Z</time></trkpt><trkpt lat="45.0241511198301" lon="13.72953159338837"><ele>38.0</ele><time>2026-05-01T10:36:12Z</time></trkpt><trkpt lat="45.024117947706166" lon="13.729646039362947"><ele>38.0</ele><time>2026-05-01T10:36:13Z</time></trkpt><trkpt lat="45.02408187395944" lon="13.729762261049821"><ele>38.0</ele><time>2026-05-01T10:36:14Z</time></trkpt><trkpt lat="45.02404959131185" lon="13.7298625410363"><ele>38.0</ele><time>2026-05-01T10:36:15Z</time></trkpt><trkpt lat="45.02401330238904" lon="13.729965572113155"><ele>38.0</ele><time>2026-05-01T10:36:16Z</time></trkpt><trkpt lat="45.02396998989823" lon="13.730053403146545"><ele>38.0</ele><time>2026-05-01T10:36:17Z</time></trkpt><trkpt lat="45.0239092619706" lon="13.730138348787772"><ele>38.0</ele><time>2026-05-01T10:36:18Z</time></trkpt><trkpt lat="45.02383889702215" lon="13.730211385729332"><ele>37.166666666666664</ele><time>2026-05-01T10:36:19Z</time></trkpt><trkpt lat="45.023766769330024" lon="13.730279323030429"><ele>36.33333333333333</ele><time>2026-05-01T10:36:19.999Z</time></trkpt><trkpt lat="45.02370807522782" lon="13.730347945001938"><ele>35.5</ele><time>2026-05-01T10:36:21.001Z</time></trkpt><trkpt lat="45.02365431275326" lon="13.730415996272448"><ele>34.666666666666664</ele><time>2026-05-01T10:36:22.001Z</time></trkpt><trkpt lat="45.02359879836349" lon="13.730483165493593"><ele>33.833333333333336</ele><time>2026-05-01T10:36:23.001Z</time></trkpt><trkpt lat="45.02354860843277" lon="13.730553634617108"><ele>33.0</ele><time>2026-05-01T10:36:24.001Z</time></trkpt><trkpt lat="45.02350637428372" lon="13.73064114993305"><ele>33.0</ele><time>2026-05-01T10:36:25.001Z</time></trkpt><trkpt lat="45.02340747172067" lon="13.730763848227785"><ele>33.0</ele><time>2026-05-01T10:36:27.001Z</time></trkpt><trkpt lat="45.02333714526848" lon="13.730799661290984"><ele>33.0</ele><time>2026-05-01T10:36:28.001Z</time></trkpt><trkpt lat="45.023264200748265" lon="13.730837425266213"><ele>33.0</ele><time>2026-05-01T10:36:29.001Z</time></trkpt><trkpt lat="45.02319091125957" lon="13.730871507278996"><ele>33.0</ele><time>2026-05-01T10:36:30.001Z</time></trkpt><trkpt lat="45.0231206649342" lon="13.730890494163994"><ele>33.0</ele><time>2026-05-01T10:36:31.001Z</time></trkpt><trkpt lat="45.02304423835793" lon="13.730902088791197"><ele>33.5</ele><time>2026-05-01T10:36:32.001Z</time></trkpt><trkpt lat="45.02296322431443" lon="13.730918190187142"><ele>34.0</ele><time>2026-05-01T10:36:33.001Z</time></trkpt><trkpt lat="45.02288403153013" lon="13.730937376324954"><ele>34.5</ele><time>2026-05-01T10:36:34.001Z</time></trkpt><trkpt lat="45.02280831557414" lon="13.730955132139654"><ele>35.0</ele><time>2026-05-01T10:36:35Z</time></trkpt><trkpt lat="45.022737352290534" lon="13.730972928773037"><ele>35.5</ele><time>2026-05-01T10:36:36Z</time></trkpt><trkpt lat="45.022672336996834" lon="13.730992524284698"><ele>36.0</ele><time>2026-05-01T10:36:37Z</time></trkpt><trkpt lat="45.02256609229223" lon="13.731046521277376"><ele>36.2</ele><time>2026-05-01T10:36:39Z</time></trkpt><trkpt lat="45.02248098625443" lon="13.731082084071481"><ele>36.400000000000006</ele><time>2026-05-01T10:36:41Z</time></trkpt><trkpt lat="45.02239189159563" lon="13.731078202079381"><ele>36.6</ele><time>2026-05-01T10:36:43Z</time></trkpt><trkpt lat="45.02228848270665" lon="13.731064772044242"><ele>36.800000000000004</ele><time>2026-05-01T10:36:45Z</time></trkpt><trkpt lat="45.02219460843131" lon="13.731100148393732"><ele>37.0</ele><time>2026-05-01T10:36:47Z</time></trkpt><trkpt lat="45.02213649233638" lon="13.731206242476677"><ele>37.0</ele><time>2026-05-01T10:36:49Z</time></trkpt><trkpt lat="45.02211380282912" lon="13.731312987313704"><ele>37.0</ele><time>2026-05-01T10:36:51Z</time></trkpt><trkpt lat="45.022090053457816" lon="13.731424078103627"><ele>37.0</ele><time>2026-05-01T10:36:53Z</time></trkpt><trkpt lat="45.022048512502444" lon="13.731537430059648"><ele>37.0</ele><time>2026-05-01T10:36:55Z</time></trkpt><trkpt lat="45.022004275920395" lon="13.731632672722837"><ele>37.0</ele><time>2026-05-01T10:36:57Z</time></trkpt><trkpt lat="45.02194706371608" lon="13.73173958362648"><ele>37.0</ele><time>2026-05-01T10:36:59Z</time></trkpt><trkpt lat="45.02190004697133" lon="13.731862682441028"><ele>36.66666666666667</ele><time>2026-05-01T10:37:01Z</time></trkpt><trkpt lat="45.02187073921035" lon="13.732007304853429"><ele>36.333333333333336</ele><time>2026-05-01T10:37:03Z</time></trkpt><trkpt lat="45.02184926174835" lon="13.732136869807864"><ele>36.0</ele><time>2026-05-01T10:37:05Z</time></trkpt><trkpt lat="45.02183768146732" lon="13.732254992798673"><ele>35.666666666666664</ele><time>2026-05-01T10:37:07Z</time></trkpt><trkpt lat="45.021827782450174" lon="13.73236663218814"><ele>35.33333333333333</ele><time>2026-05-01T10:37:09Z</time></trkpt><trkpt lat="45.0218029758711" lon="13.732479202849813"><ele>35.0</ele><time>2026-05-01T10:37:11Z</time></trkpt><trkpt lat="45.021752997884256" lon="13.732565692174205"><ele>35.0</ele><time>2026-05-01T10:37:13Z</time></trkpt><trkpt lat="45.02169347428691" lon="13.732625355637573"><ele>35.0</ele><time>2026-05-01T10:37:15Z</time></trkpt><trkpt lat="45.02163090039354" lon="13.73268489389234"><ele>35.0</ele><time>2026-05-01T10:37:17Z</time></trkpt><trkpt lat="45.02156397189107" lon="13.732773270316505"><ele>35.0</ele><time>2026-05-01T10:37:19Z</time></trkpt><trkpt lat="45.021511463959314" lon="13.732854987799959"><ele>35.0</ele><time>2026-05-01T10:37:21Z</time></trkpt><trkpt lat="45.02144327044143" lon="13.732916583680606"><ele>35.0</ele><time>2026-05-01T10:37:23Z</time></trkpt><trkpt lat="45.02136298844343" lon="13.732968768821298"><ele>35.0</ele><time>2026-05-01T10:37:25Z</time></trkpt><trkpt lat="45.021290536466196" lon="13.733025294391696"><ele>35.0</ele><time>2026-05-01T10:37:27Z</time></trkpt><trkpt lat="45.02121755707406" lon="13.733103285734368"><ele>35.0</ele><time>2026-05-01T10:37:29Z</time></trkpt><trkpt lat="45.02113832914006" lon="13.733168290801716"><ele>35.0</ele><time>2026-05-01T10:37:31Z</time></trkpt><trkpt lat="45.02106584512712" lon="13.733191261541121"><ele>35.0</ele><time>2026-05-01T10:37:33Z</time></trkpt><trkpt lat="45.02099234807639" lon="13.7331886866051"><ele>35.0</ele><time>2026-05-01T10:37:35Z</time></trkpt><trkpt lat="45.02092887127768" lon="13.733180515590208"><ele>35.0</ele><time>2026-05-01T10:37:37Z</time></trkpt><trkpt lat="45.020857220779256" lon="13.733156186232291"><ele>35.0</ele><time>2026-05-01T10:37:39Z</time></trkpt><trkpt lat="45.02078113082435" lon="13.733147981739231"><ele>35.0</ele><time>2026-05-01T10:37:41Z</time></trkpt><trkpt lat="45.020679654807786" lon="13.73315456331905"><ele>35.0</ele><time>2026-05-01T10:37:43Z</time></trkpt><trkpt lat="45.02059159425747" lon="13.733159384324239"><ele>35.0</ele><time>2026-05-01T10:37:45Z</time></trkpt><trkpt lat="45.02049973369138" lon="13.733155334217368"><ele>35.0</ele><time>2026-05-01T10:37:47Z</time></trkpt><trkpt lat="45.020408783449575" lon="13.733132401875169"><ele>34.33333333333333</ele><time>2026-05-01T10:37:49Z</time></trkpt><trkpt lat="45.020330904793234" lon="13.733102997980344"><ele>33.666666666666664</ele><time>2026-05-01T10:37:51Z</time></trkpt><trkpt lat="45.02025013622521" lon="13.73308673099855"><ele>33.0</ele><time>2026-05-01T10:37:53Z</time></trkpt><trkpt lat="45.02018240519752" lon="13.733080705893407"><ele>32.333333333333336</ele><time>2026-05-01T10:37:55Z</time></trkpt><trkpt lat="45.02010830016671" lon="13.733070650411921"><ele>31.666666666666668</ele><time>2026-05-01T10:37:59Z</time></trkpt><trkpt lat="45.02002205054704" lon="13.733020581722752"><ele>31.0</ele><time>2026-05-01T10:38:03Z</time></trkpt><trkpt lat="45.019987565358186" lon="13.732941037462753"><ele>31.000000000000004</ele><time>2026-05-01T10:38:04Z</time></trkpt><trkpt lat="45.01995296247732" lon="13.732839818832888"><ele>31.0</ele><time>2026-05-01T10:38:05Z</time></trkpt><trkpt lat="45.019918350312274" lon="13.732751903685534"><ele>31.0</ele><time>2026-05-01T10:38:06Z</time></trkpt><trkpt lat="45.01988449330974" lon="13.732638634123392"><ele>31.0</ele><time>2026-05-01T10:38:07Z</time></trkpt><trkpt lat="45.01984155680352" lon="13.732513955129273"><ele>31.000000000000004</ele><time>2026-05-01T10:38:08Z</time></trkpt><trkpt lat="45.019792041107" lon="13.732388392249298"><ele>31.0</ele><time>2026-05-01T10:38:09Z</time></trkpt><trkpt lat="45.0197381354246" lon="13.732271967190895"><ele>31.6</ele><time>2026-05-01T10:38:10Z</time></trkpt><trkpt lat="45.019690451846984" lon="13.732144922038499"><ele>32.2</ele><time>2026-05-01T10:38:11Z</time></trkpt><trkpt lat="45.019652703829" lon="13.73200752010267"><ele>32.8</ele><time>2026-05-01T10:38:12Z</time></trkpt><trkpt lat="45.01961908806518" lon="13.731869236639682"><ele>33.4</ele><time>2026-05-01T10:38:13Z</time></trkpt><trkpt lat="45.01958371192618" lon="13.731721140068032"><ele>34.0</ele><time>2026-05-01T10:38:13.999Z</time></trkpt><trkpt lat="45.0195566208863" lon="13.731566086945437"><ele>34.2</ele><time>2026-05-01T10:38:14.999Z</time></trkpt><trkpt lat="45.01954116312924" lon="13.731414044361626"><ele>34.4</ele><time>2026-05-01T10:38:15.999Z</time></trkpt><trkpt lat="45.019534538599125" lon="13.73126328267835"><ele>34.6</ele><time>2026-05-01T10:38:16.999Z</time></trkpt><trkpt lat="45.019535040459246" lon="13.731110884083005"><ele>34.8</ele><time>2026-05-01T10:38:17.999Z</time></trkpt><trkpt lat="45.01954122044139" lon="13.730949093979751"><ele>35.0</ele><time>2026-05-01T10:38:18.999Z</time></trkpt><trkpt lat="45.019549638327305" lon="13.730785210005951"><ele>35.0</ele><time>2026-05-01T10:38:19.999Z</time></trkpt><trkpt lat="45.019560668523496" lon="13.730624415971725"><ele>35.0</ele><time>2026-05-01T10:38:20.999Z</time></trkpt><trkpt lat="45.01957185882322" lon="13.730465776058308"><ele>35.0</ele><time>2026-05-01T10:38:21.999Z</time></trkpt><trkpt lat="45.019584706999595" lon="13.730299807026196"><ele>35.0</ele><time>2026-05-01T10:38:22.999Z</time></trkpt><trkpt lat="45.01959738512813" lon="13.730128760681335"><ele>35.25</ele><time>2026-05-01T10:38:23.999Z</time></trkpt><trkpt lat="45.01960817278497" lon="13.729956748571388"><ele>35.5</ele><time>2026-05-01T10:38:24.999Z</time></trkpt><trkpt lat="45.01961660982154" lon="13.729791473013561"><ele>35.75</ele><time>2026-05-01T10:38:25.999Z</time></trkpt><trkpt lat="45.01962745546222" lon="13.729632207069912"><ele>36.0</ele><time>2026-05-01T10:38:27Z</time></trkpt><trkpt lat="45.01964240905778" lon="13.729460927347878"><ele>35.5</ele><time>2026-05-01T10:38:28Z</time></trkpt><trkpt lat="45.01965411352223" lon="13.729292390518626"><ele>35.0</ele><time>2026-05-01T10:38:29Z</time></trkpt><trkpt lat="45.01966566908202" lon="13.729120020356884"><ele>34.5</ele><time>2026-05-01T10:38:30Z</time></trkpt><trkpt lat="45.01967293033624" lon="13.728947843319883"><ele>34.0</ele><time>2026-05-01T10:38:31Z</time></trkpt><trkpt lat="45.019682987407045" lon="13.728775086728715"><ele>34.0</ele><time>2026-05-01T10:38:32Z</time></trkpt><trkpt lat="45.01969202255244" lon="13.72860607316112"><ele>34.0</ele><time>2026-05-01T10:38:33Z</time></trkpt><trkpt lat="45.01970402959033" lon="13.728437411288434"><ele>34.0</ele><time>2026-05-01T10:38:34Z</time></trkpt><trkpt lat="45.019716932997014" lon="13.728262552067566"><ele>34.0</ele><time>2026-05-01T10:38:35Z</time></trkpt><trkpt lat="45.01973072436423" lon="13.728087182134338"><ele>33.75</ele><time>2026-05-01T10:38:36Z</time></trkpt><trkpt lat="45.01974639179986" lon="13.727913075539044"><ele>33.5</ele><time>2026-05-01T10:38:37Z</time></trkpt><trkpt lat="45.019761197714665" lon="13.72773992124741"><ele>33.25</ele><time>2026-05-01T10:38:38Z</time></trkpt><trkpt lat="45.019774259920005" lon="13.727572794932092"><ele>33.0</ele><time>2026-05-01T10:38:39Z</time></trkpt><trkpt lat="45.01978519491065" lon="13.72740516813193"><ele>32.75</ele><time>2026-05-01T10:38:40Z</time></trkpt><trkpt lat="45.019799270866876" lon="13.727238042325382"><ele>32.5</ele><time>2026-05-01T10:38:41Z</time></trkpt><trkpt lat="45.01981553826167" lon="13.727074830284625"><ele>32.25</ele><time>2026-05-01T10:38:42Z</time></trkpt><trkpt lat="45.019831297681854" lon="13.726908284616126"><ele>32.0</ele><time>2026-05-01T10:38:43Z</time></trkpt><trkpt lat="45.01984660324606" lon="13.726735706118152"><ele>31.75</ele><time>2026-05-01T10:38:44Z</time></trkpt><trkpt lat="45.01986294797604" lon="13.726562816587977"><ele>31.5</ele><time>2026-05-01T10:38:45Z</time></trkpt><trkpt lat="45.01987952754829" lon="13.726395735589419"><ele>31.25</ele><time>2026-05-01T10:38:46Z</time></trkpt><trkpt lat="45.019900138516554" lon="13.726231267110371"><ele>31.0</ele><time>2026-05-01T10:38:47Z</time></trkpt><trkpt lat="45.01991625481421" lon="13.72606909952593"><ele>31.200000000000003</ele><time>2026-05-01T10:38:48Z</time></trkpt><trkpt lat="45.019940394278706" lon="13.725904747964673"><ele>31.400000000000002</ele><time>2026-05-01T10:38:49Z</time></trkpt><trkpt lat="45.019968656781124" lon="13.725737186815628"><ele>31.6</ele><time>2026-05-01T10:38:50Z</time></trkpt><trkpt lat="45.019949291582385" lon="13.725635772235275"><ele>31.8</ele><time>2026-05-01T10:38:51Z</time></trkpt><trkpt lat="45.01996596543128" lon="13.725484376688653"><ele>32.0</ele><time>2026-05-01T10:38:52Z</time></trkpt><trkpt lat="45.01997138879109" lon="13.725361418307576"><ele>31.999999999999996</ele><time>2026-05-01T10:38:53Z</time></trkpt><trkpt lat="45.01998250054027" lon="13.725248590233296"><ele>32.0</ele><time>2026-05-01T10:38:54Z</time></trkpt><trkpt lat="45.01999977627194" lon="13.725147531168805"><ele>32.0</ele><time>2026-05-01T10:38:55Z</time></trkpt><trkpt lat="45.01994228820013" lon="13.725007054209128"><ele>32.0</ele><time>2026-05-01T10:38:57Z</time></trkpt><trkpt lat="45.01987293767151" lon="13.724995988262773"><ele>31.999999999999996</ele><time>2026-05-01T10:38:58Z</time></trkpt><trkpt lat="45.0197777846684" lon="13.724992333005526"><ele>32.0</ele><time>2026-05-01T10:38:59Z</time></trkpt><trkpt lat="45.01967832687689" lon="13.724968531783633"><ele>32.6</ele><time>2026-05-01T10:39:00Z</time></trkpt><trkpt lat="45.019564705095306" lon="13.72493612135592"><ele>33.2</ele><time>2026-05-01T10:39:01Z</time></trkpt><trkpt lat="45.01946704931146" lon="13.724910124697724"><ele>33.8</ele><time>2026-05-01T10:39:02Z</time></trkpt><trkpt lat="45.01938226502389" lon="13.724913570531958"><ele>34.4</ele><time>2026-05-01T10:39:03Z</time></trkpt><trkpt lat="45.019296535685626" lon="13.72495641859376"><ele>35.0</ele><time>2026-05-01T10:39:04Z</time></trkpt><trkpt lat="45.01922299546034" lon="13.72504866113521"><ele>35.0</ele><time>2026-05-01T10:39:05Z</time></trkpt><trkpt lat="45.01916270905098" lon="13.725176326313422"><ele>35.0</ele><time>2026-05-01T10:39:06Z</time></trkpt><trkpt lat="45.01909994601059" lon="13.725304743140095"><ele>35.0</ele><time>2026-05-01T10:39:07Z</time></trkpt><trkpt lat="45.01902990247739" lon="13.725419842511355"><ele>35.0</ele><time>2026-05-01T10:39:08Z</time></trkpt><trkpt lat="45.01895994146729" lon="13.72555144078628"><ele>35.0</ele><time>2026-05-01T10:39:09Z</time></trkpt><trkpt lat="45.0188947075504" lon="13.725685855054037"><ele>35.6</ele><time>2026-05-01T10:39:10Z</time></trkpt><trkpt lat="45.01882361056401" lon="13.725808144121473"><ele>36.2</ele><time>2026-05-01T10:39:11Z</time></trkpt><trkpt lat="45.018740414571056" lon="13.725899897802835"><ele>36.8</ele><time>2026-05-01T10:39:12Z</time></trkpt><trkpt lat="45.01865031796975" lon="13.725982846699228"><ele>37.4</ele><time>2026-05-01T10:39:13Z</time></trkpt><trkpt lat="45.01855153344576" lon="13.726058525220585"><ele>38.0</ele><time>2026-05-01T10:39:14Z</time></trkpt><trkpt lat="45.01844999611173" lon="13.726120835658705"><ele>38.0</ele><time>2026-05-01T10:39:15Z</time></trkpt><trkpt lat="45.01834836556287" lon="13.72617498446561"><ele>38.0</ele><time>2026-05-01T10:39:16Z</time></trkpt><trkpt lat="45.01824699097715" lon="13.726236662151525"><ele>38.0</ele><time>2026-05-01T10:39:17Z</time></trkpt><trkpt lat="45.01814596506365" lon="13.726296741208817"><ele>38.0</ele><time>2026-05-01T10:39:18Z</time></trkpt><trkpt lat="45.01804557124988" lon="13.726359099597556"><ele>38.0</ele><time>2026-05-01T10:39:19Z</time></trkpt><trkpt lat="45.01794249020397" lon="13.72642006520088"><ele>39.599999999999994</ele><time>2026-05-01T10:39:20Z</time></trkpt><trkpt lat="45.017839721913646" lon="13.726481650263464"><ele>41.199999999999996</ele><time>2026-05-01T10:39:21Z</time></trkpt><trkpt lat="45.01773851035944" lon="13.726541653827551"><ele>42.8</ele><time>2026-05-01T10:39:22Z</time></trkpt><trkpt lat="45.01764573485723" lon="13.72660928328544"><ele>44.4</ele><time>2026-05-01T10:39:23Z</time></trkpt><trkpt lat="45.01756389982297" lon="13.726697800339558"><ele>46.0</ele><time>2026-05-01T10:39:24Z</time></trkpt><trkpt lat="45.017483692113714" lon="13.72680041129828"><ele>46.75</ele><time>2026-05-01T10:39:25Z</time></trkpt><trkpt lat="45.017406421061224" lon="13.726913571880361"><ele>47.5</ele><time>2026-05-01T10:39:26Z</time></trkpt><trkpt lat="45.01732935509418" lon="13.727025661640491"><ele>48.25</ele><time>2026-05-01T10:39:27Z</time></trkpt><trkpt lat="45.01724909611526" lon="13.727142048382564"><ele>49.0</ele><time>2026-05-01T10:39:28Z</time></trkpt><trkpt lat="45.01717253450137" lon="13.727267049272681"><ele>49.0</ele><time>2026-05-01T10:39:29Z</time></trkpt><trkpt lat="45.01710392459292" lon="13.727376977372538"><ele>49.0</ele><time>2026-05-01T10:39:30Z</time></trkpt><trkpt lat="45.01702124989773" lon="13.727486498451363"><ele>49.0</ele><time>2026-05-01T10:39:31Z</time></trkpt><trkpt lat="45.01693243479512" lon="13.727584296677446"><ele>49.0</ele><time>2026-05-01T10:39:32Z</time></trkpt><trkpt lat="45.01683732504662" lon="13.727659554797743"><ele>49.0</ele><time>2026-05-01T10:39:33Z</time></trkpt><trkpt lat="45.016735915128464" lon="13.727730042964085"><ele>48.25</ele><time>2026-05-01T10:39:34Z</time></trkpt><trkpt lat="45.016631234971236" lon="13.727804708979916"><ele>47.5</ele><time>2026-05-01T10:39:35Z</time></trkpt><trkpt lat="45.01652530402713" lon="13.72788134416271"><ele>46.75</ele><time>2026-05-01T10:39:36Z</time></trkpt><trkpt lat="45.01641158023586" lon="13.727961484565437"><ele>46.0</ele><time>2026-05-01T10:39:37Z</time></trkpt><trkpt lat="45.01629099929013" lon="13.72804302181424"><ele>46.0</ele><time>2026-05-01T10:39:38Z</time></trkpt><trkpt lat="45.016170954403464" lon="13.728129514808082"><ele>46.0</ele><time>2026-05-01T10:39:39Z</time></trkpt><trkpt lat="45.016058019590105" lon="13.728215449364306"><ele>46.0</ele><time>2026-05-01T10:39:40Z</time></trkpt><trkpt lat="45.01594148411734" lon="13.728290960297022"><ele>46.0</ele><time>2026-05-01T10:39:41Z</time></trkpt><trkpt lat="45.015818369856284" lon="13.728379158127362"><ele>45.75</ele><time>2026-05-01T10:39:42Z</time></trkpt><trkpt lat="45.01569178703689" lon="13.728466507508646"><ele>45.5</ele><time>2026-05-01T10:39:43Z</time></trkpt><trkpt lat="45.015566604610335" lon="13.728550439550775"><ele>45.25</ele><time>2026-05-01T10:39:44Z</time></trkpt><trkpt lat="45.01545088947" lon="13.728628742776031"><ele>45.0</ele><time>2026-05-01T10:39:45Z</time></trkpt><trkpt lat="45.01533818700605" lon="13.728710971856223"><ele>44.5</ele><time>2026-05-01T10:39:46Z</time></trkpt><trkpt lat="45.01522160230269" lon="13.728786377610444"><ele>44.0</ele><time>2026-05-01T10:39:47Z</time></trkpt><trkpt lat="45.0151078696904" lon="13.728873014835594"><ele>43.5</ele><time>2026-05-01T10:39:48Z</time></trkpt><trkpt lat="45.01499432813618" lon="13.728970921835156"><ele>43.0</ele><time>2026-05-01T10:39:49Z</time></trkpt><trkpt lat="45.01488461940926" lon="13.72908661501312"><ele>43.0</ele><time>2026-05-01T10:39:50Z</time></trkpt><trkpt lat="45.01478153074596" lon="13.72921574456739"><ele>43.0</ele><time>2026-05-01T10:39:51Z</time></trkpt><trkpt lat="45.01468041488613" lon="13.729356352419021"><ele>43.0</ele><time>2026-05-01T10:39:52Z</time></trkpt><trkpt lat="45.01458122148357" lon="13.729508257988927"><ele>43.0</ele><time>2026-05-01T10:39:53Z</time></trkpt><trkpt lat="45.01449033234744" lon="13.72966713256522"><ele>44.0</ele><time>2026-05-01T10:39:54Z</time></trkpt><trkpt lat="45.0143910858486" lon="13.729832893228556"><ele>45.0</ele><time>2026-05-01T10:39:55Z</time></trkpt><trkpt lat="45.01429364015528" lon="13.729992014320041"><ele>46.0</ele><time>2026-05-01T10:39:56Z</time></trkpt><trkpt lat="45.0141891886689" lon="13.730161323687739"><ele>44.5</ele><time>2026-05-01T10:39:57Z</time></trkpt><trkpt lat="45.01408704309852" lon="13.730328912054135"><ele>43.0</ele><time>2026-05-01T10:39:58Z</time></trkpt><trkpt lat="45.01399189672738" lon="13.730488442690582"><ele>41.5</ele><time>2026-05-01T10:39:59Z</time></trkpt><trkpt lat="45.01389824755379" lon="13.730645596465411"><ele>40.0</ele><time>2026-05-01T10:40:00Z</time></trkpt><trkpt lat="45.013807858723816" lon="13.730801923352955"><ele>40.0</ele><time>2026-05-01T10:40:01Z</time></trkpt><trkpt lat="45.01371807583474" lon="13.730955722188234"><ele>40.0</ele><time>2026-05-01T10:40:01.999Z</time></trkpt><trkpt lat="45.013623912762895" lon="13.731112896549513"><ele>40.0</ele><time>2026-05-01T10:40:02.999Z</time></trkpt><trkpt lat="45.013527794145226" lon="13.73126436599613"><ele>40.0</ele><time>2026-05-01T10:40:03.999Z</time></trkpt><trkpt lat="45.01343497767659" lon="13.73142288814297"><ele>39.5</ele><time>2026-05-01T10:40:04.999Z</time></trkpt><trkpt lat="45.013336572571106" lon="13.731579139472291"><ele>39.0</ele><time>2026-05-01T10:40:05.999Z</time></trkpt><trkpt lat="45.013232768126606" lon="13.731729078678983"><ele>38.5</ele><time>2026-05-01T10:40:06.999Z</time></trkpt><trkpt lat="45.013118682150555" lon="13.731863003607263"><ele>38.0</ele><time>2026-05-01T10:40:07.999Z</time></trkpt><trkpt lat="45.012993714336346" lon="13.731979151930686"><ele>37.5</ele><time>2026-05-01T10:40:08.999Z</time></trkpt><trkpt lat="45.012871022281146" lon="13.732077258139965"><ele>37.0</ele><time>2026-05-01T10:40:09.999Z</time></trkpt><trkpt lat="45.01275103585288" lon="13.73215886194213"><ele>36.5</ele><time>2026-05-01T10:40:10.999Z</time></trkpt><trkpt lat="45.01264638273004" lon="13.732228386683893"><ele>36.0</ele><time>2026-05-01T10:40:11.999Z</time></trkpt><trkpt lat="45.01255487177289" lon="13.732292860566263"><ele>36.833333333333336</ele><time>2026-05-01T10:40:12.999Z</time></trkpt><trkpt lat="45.01247273964042" lon="13.732354130873738"><ele>37.666666666666664</ele><time>2026-05-01T10:40:13.999Z</time></trkpt><trkpt lat="45.012393161100505" lon="13.732419882016199"><ele>38.5</ele><time>2026-05-01T10:40:14.999Z</time></trkpt><trkpt lat="45.012319052460704" lon="13.732483984391502"><ele>39.33333333333333</ele><time>2026-05-01T10:40:15.999Z</time></trkpt><trkpt lat="45.012246660135105" lon="13.732552076235029"><ele>40.166666666666664</ele><time>2026-05-01T10:40:16.999Z</time></trkpt><trkpt lat="45.01216634057095" lon="13.732610061258034"><ele>41.0</ele><time>2026-05-01T10:40:17.999Z</time></trkpt><trkpt lat="45.01207645763664" lon="13.73266962319672"><ele>40.199999999999996</ele><time>2026-05-01T10:40:18.999Z</time></trkpt><trkpt lat="45.0119819882922" lon="13.732737944704766"><ele>39.4</ele><time>2026-05-01T10:40:19.999Z</time></trkpt><trkpt lat="45.01189785500838" lon="13.732812382492588"><ele>38.6</ele><time>2026-05-01T10:40:20.999Z</time></trkpt><trkpt lat="45.01182579596062" lon="13.732874091648156"><ele>37.8</ele><time>2026-05-01T10:40:21.999Z</time></trkpt><trkpt lat="45.01174614991447" lon="13.73293221171978"><ele>37.0</ele><time>2026-05-01T10:40:22.999Z</time></trkpt><trkpt lat="45.01166038459365" lon="13.732977875081277"><ele>38.25</ele><time>2026-05-01T10:40:23.999Z</time></trkpt><trkpt lat="45.01156335666608" lon="13.73302480220516"><ele>39.5</ele><time>2026-05-01T10:40:24.999Z</time></trkpt><trkpt lat="45.0114464280737" lon="13.733073428928545"><ele>40.75</ele><time>2026-05-01T10:40:25.999Z</time></trkpt><trkpt lat="45.01131605291459" lon="13.733128357282439"><ele>42.0</ele><time>2026-05-01T10:40:26.999Z</time></trkpt><trkpt lat="45.011195731143445" lon="13.733174839816227"><ele>42.0</ele><time>2026-05-01T10:40:27.999Z</time></trkpt><trkpt lat="45.01109947809713" lon="13.733216256692282"><ele>42.0</ele><time>2026-05-01T10:40:28.999Z</time></trkpt><trkpt lat="45.01099686736759" lon="13.73326670674765"><ele>42.0</ele><time>2026-05-01T10:40:29.999Z</time></trkpt><trkpt lat="45.01089186011398" lon="13.733314032970346"><ele>42.0</ele><time>2026-05-01T10:40:30.999Z</time></trkpt><trkpt lat="45.01079411111609" lon="13.733354641658451"><ele>42.0</ele><time>2026-05-01T10:40:31.999Z</time></trkpt><trkpt lat="45.01069422826566" lon="13.733396923150611"><ele>41.8</ele><time>2026-05-01T10:40:33Z</time></trkpt><trkpt lat="45.010596287014515" lon="13.733439578166276"><ele>41.6</ele><time>2026-05-01T10:40:34Z</time></trkpt><trkpt lat="45.010500306830416" lon="13.733481903981161"><ele>41.4</ele><time>2026-05-01T10:40:35Z</time></trkpt><trkpt lat="45.01040876213999" lon="13.733524011938172"><ele>41.199999999999996</ele><time>2026-05-01T10:40:36Z</time></trkpt><trkpt lat="45.010318687444695" lon="13.733562025713194"><ele>41.0</ele><time>2026-05-01T10:40:37Z</time></trkpt><trkpt lat="45.010233376187536" lon="13.733597075192659"><ele>41.4</ele><time>2026-05-01T10:40:38Z</time></trkpt><trkpt lat="45.01014704635512" lon="13.733637486321921"><ele>41.8</ele><time>2026-05-01T10:40:39Z</time></trkpt><trkpt lat="45.010059916217884" lon="13.73367363477462"><ele>42.199999999999996</ele><time>2026-05-01T10:40:40Z</time></trkpt><trkpt lat="45.0099776627817" lon="13.733708344271554"><ele>42.599999999999994</ele><time>2026-05-01T10:40:41Z</time></trkpt><trkpt lat="45.0098898323148" lon="13.733746062327429"><ele>43.0</ele><time>2026-05-01T10:40:42Z</time></trkpt><trkpt lat="45.00980222124873" lon="13.733781784979733"><ele>43.66666666666667</ele><time>2026-05-01T10:40:43Z</time></trkpt><trkpt lat="45.009713335547865" lon="13.733822233268624"><ele>44.333333333333336</ele><time>2026-05-01T10:40:44Z</time></trkpt><trkpt lat="45.0096341794207" lon="13.73386248295306"><ele>45.0</ele><time>2026-05-01T10:40:45Z</time></trkpt><trkpt lat="45.009556794151266" lon="13.73390700609912"><ele>45.666666666666664</ele><time>2026-05-01T10:40:46Z</time></trkpt><trkpt lat="45.00947550807886" lon="13.733968397080707"><ele>46.33333333333333</ele><time>2026-05-01T10:40:47Z</time></trkpt><trkpt lat="45.00940407096269" lon="13.734042028142946"><ele>47.0</ele><time>2026-05-01T10:40:48Z</time></trkpt><trkpt lat="45.00932695146151" lon="13.734129213705787"><ele>47.0</ele><time>2026-05-01T10:40:49Z</time></trkpt><trkpt lat="45.00925596761642" lon="13.734212726166568"><ele>47.0</ele><time>2026-05-01T10:40:50Z</time></trkpt><trkpt lat="45.00918598322112" lon="13.734292602159716"><ele>47.0</ele><time>2026-05-01T10:40:51Z</time></trkpt><trkpt lat="45.00911706571614" lon="13.734359714612923"><ele>47.0</ele><time>2026-05-01T10:40:52Z</time></trkpt><trkpt lat="45.00904471452088" lon="13.734436708505493"><ele>47.0</ele><time>2026-05-01T10:40:53Z</time></trkpt><trkpt lat="45.0089738779497" lon="13.73451781383811"><ele>47.0</ele><time>2026-05-01T10:40:54Z</time></trkpt><trkpt lat="45.008900642131444" lon="13.734599750962994"><ele>47.5</ele><time>2026-05-01T10:40:55Z</time></trkpt><trkpt lat="45.00882679612697" lon="13.734679797431193"><ele>48.0</ele><time>2026-05-01T10:40:56Z</time></trkpt><trkpt lat="45.00875664801401" lon="13.734753276395143"><ele>48.5</ele><time>2026-05-01T10:40:57Z</time></trkpt><trkpt lat="45.00869429663673" lon="13.734822136986518"><ele>49.0</ele><time>2026-05-01T10:40:58Z</time></trkpt><trkpt lat="45.00863118386001" lon="13.73489059439067"><ele>49.50000000000001</ele><time>2026-05-01T10:40:59Z</time></trkpt><trkpt lat="45.00856626250964" lon="13.734963235967163"><ele>50.0</ele><time>2026-05-01T10:41:00Z</time></trkpt><trkpt lat="45.00850241773692" lon="13.73502801925855"><ele>50.00000000000001</ele><time>2026-05-01T10:41:01Z</time></trkpt><trkpt lat="45.00843331912297" lon="13.7350982223267"><ele>50.0</ele><time>2026-05-01T10:41:02Z</time></trkpt><trkpt lat="45.00837117823628" lon="13.735163460767708"><ele>50.0</ele><time>2026-05-01T10:41:03Z</time></trkpt><trkpt lat="45.008308197315515" lon="13.735228406502328"><ele>50.0</ele><time>2026-05-01T10:41:04Z</time></trkpt><trkpt lat="45.008251970486945" lon="13.73529489466296"><ele>50.00000000000001</ele><time>2026-05-01T10:41:05Z</time></trkpt><trkpt lat="45.008200354349505" lon="13.735363598074319"><ele>50.0</ele><time>2026-05-01T10:41:06Z</time></trkpt><trkpt lat="45.00814631558174" lon="13.735434001442137"><ele>50.50000000000001</ele><time>2026-05-01T10:41:07Z</time></trkpt><trkpt lat="45.00810093268863" lon="13.735510625363148"><ele>51.0</ele><time>2026-05-01T10:41:08Z</time></trkpt><trkpt lat="45.00803736619262" lon="13.73565236060193"><ele>51.5</ele><time>2026-05-01T10:41:10Z</time></trkpt><trkpt lat="45.007976042788755" lon="13.735799244921997"><ele>52.0</ele><time>2026-05-01T10:41:12Z</time></trkpt><trkpt lat="45.007945886263464" lon="13.73587776214932"><ele>52.50000000000001</ele><time>2026-05-01T10:41:13Z</time></trkpt><trkpt lat="45.007917671695076" lon="13.735962488678565"><ele>53.0</ele><time>2026-05-01T10:41:14Z</time></trkpt><trkpt lat="45.00788822568586" lon="13.736044359350172"><ele>53.00000000000001</ele><time>2026-05-01T10:41:15Z</time></trkpt><trkpt lat="45.00785510216156" lon="13.736127806760274"><ele>53.0</ele><time>2026-05-01T10:41:16Z</time></trkpt><trkpt lat="45.007816906660395" lon="13.736209720378259"><ele>53.0</ele><time>2026-05-01T10:41:17Z</time></trkpt><trkpt lat="45.007782266106034" lon="13.736299896618352"><ele>53.0</ele><time>2026-05-01T10:41:18Z</time></trkpt><trkpt lat="45.007749014556495" lon="13.736394215603132"><ele>53.00000000000001</ele><time>2026-05-01T10:41:19Z</time></trkpt><trkpt lat="45.00770880709438" lon="13.736509034465536"><ele>53.0</ele><time>2026-05-01T10:41:20Z</time></trkpt><trkpt lat="45.007667341325394" lon="13.736625813680826"><ele>53.00000000000001</ele><time>2026-05-01T10:41:21Z</time></trkpt><trkpt lat="45.00762465609348" lon="13.736735589427884"><ele>53.0</ele><time>2026-05-01T10:41:22Z</time></trkpt><trkpt lat="45.007583059148985" lon="13.736846927912884"><ele>53.0</ele><time>2026-05-01T10:41:23Z</time></trkpt><trkpt lat="45.00754778223695" lon="13.736954883638836"><ele>53.0</ele><time>2026-05-01T10:41:24Z</time></trkpt><trkpt lat="45.00751174877135" lon="13.737057580171006"><ele>53.00000000000001</ele><time>2026-05-01T10:41:25Z</time></trkpt><trkpt lat="45.00746818487229" lon="13.737159168847018"><ele>53.0</ele><time>2026-05-01T10:41:26Z</time></trkpt><trkpt lat="45.00743363052513" lon="13.737256914401906"><ele>53.66666666666667</ele><time>2026-05-01T10:41:27Z</time></trkpt><trkpt lat="45.007396386209194" lon="13.73736394870945"><ele>54.333333333333336</ele><time>2026-05-01T10:41:28Z</time></trkpt><trkpt lat="45.00736108879162" lon="13.73746803353556"><ele>55.0</ele><time>2026-05-01T10:41:29Z</time></trkpt><trkpt lat="45.007320984885325" lon="13.737585051393085"><ele>55.66666666666667</ele><time>2026-05-01T10:41:30Z</time></trkpt><trkpt lat="45.00728719815286" lon="13.737685547144613"><ele>56.333333333333336</ele><time>2026-05-01T10:41:31Z</time></trkpt><trkpt lat="45.00725018458535" lon="13.737783746629507"><ele>57.0</ele><time>2026-05-01T10:41:32Z</time></trkpt><trkpt lat="45.007208040131715" lon="13.737889820154637"><ele>57.0</ele><time>2026-05-01T10:41:33Z</time></trkpt><trkpt lat="45.00716855970429" lon="13.737987300208266"><ele>56.99999999999999</ele><time>2026-05-01T10:41:34Z</time></trkpt><trkpt lat="45.00713434141224" lon="13.738079714062568"><ele>57.0</ele><time>2026-05-01T10:41:35Z</time></trkpt><trkpt lat="45.00709661285364" lon="13.738159986275722"><ele>57.0</ele><time>2026-05-01T10:41:36Z</time></trkpt><trkpt lat="45.00705475614399" lon="13.738249810225184"><ele>56.99999999999999</ele><time>2026-05-01T10:41:37Z</time></trkpt><trkpt lat="45.00702003120459" lon="13.738340087336393"><ele>57.0</ele><time>2026-05-01T10:41:38Z</time></trkpt><trkpt lat="45.006983397481065" lon="13.738428365888193"><ele>57.0</ele><time>2026-05-01T10:41:39Z</time></trkpt><trkpt lat="45.00695173244226" lon="13.738516208854362"><ele>56.5</ele><time>2026-05-01T10:41:40Z</time></trkpt><trkpt lat="45.006925412729835" lon="13.738613455965917"><ele>56.0</ele><time>2026-05-01T10:41:41Z</time></trkpt><trkpt lat="45.00688234213165" lon="13.738710114946937"><ele>55.5</ele><time>2026-05-01T10:41:42Z</time></trkpt><trkpt lat="45.006847023326706" lon="13.738797997145328"><ele>55.0</ele><time>2026-05-01T10:41:43Z</time></trkpt><trkpt lat="45.00681067337271" lon="13.7388899725041"><ele>54.5</ele><time>2026-05-01T10:41:44Z</time></trkpt><trkpt lat="45.00676541707881" lon="13.738980611041969"><ele>54.0</ele><time>2026-05-01T10:41:45Z</time></trkpt><trkpt lat="45.00673025979501" lon="13.739068053213526"><ele>54.0</ele><time>2026-05-01T10:41:46Z</time></trkpt><trkpt lat="45.00669898290952" lon="13.739153740330403"><ele>54.0</ele><time>2026-05-01T10:41:47Z</time></trkpt><trkpt lat="45.006663162947895" lon="13.73925257807877"><ele>54.0</ele><time>2026-05-01T10:41:48Z</time></trkpt><trkpt lat="45.00662294505564" lon="13.739349281031583"><ele>54.0</ele><time>2026-05-01T10:41:49Z</time></trkpt><trkpt lat="45.00658999059752" lon="13.73943893380786"><ele>54.0</ele><time>2026-05-01T10:41:50Z</time></trkpt><trkpt lat="45.0065572668745" lon="13.73954262006465"><ele>54.0</ele><time>2026-05-01T10:41:51Z</time></trkpt><trkpt lat="45.006524977996925" lon="13.739636831918126"><ele>53.833333333333336</ele><time>2026-05-01T10:41:52Z</time></trkpt><trkpt lat="45.00648699738245" lon="13.73973259597104"><ele>53.66666666666667</ele><time>2026-05-01T10:41:53Z</time></trkpt><trkpt lat="45.00644420715507" lon="13.739851858353589"><ele>53.5</ele><time>2026-05-01T10:41:54Z</time></trkpt><trkpt lat="45.00640634616047" lon="13.739949829048365"><ele>53.333333333333336</ele><time>2026-05-01T10:41:55Z</time></trkpt><trkpt lat="45.006363593199005" lon="13.740046949114479"><ele>53.16666666666667</ele><time>2026-05-01T10:41:56Z</time></trkpt><trkpt lat="45.00632889138165" lon="13.740152489970722"><ele>53.0</ele><time>2026-05-01T10:41:57Z</time></trkpt><trkpt lat="45.006291827714065" lon="13.740254953887643"><ele>53.00000000000001</ele><time>2026-05-01T10:41:58Z</time></trkpt><trkpt lat="45.006252701809224" lon="13.740344307717175"><ele>53.0</ele><time>2026-05-01T10:41:59Z</time></trkpt><trkpt lat="45.006221996681234" lon="13.740435357575484"><ele>53.0</ele><time>2026-05-01T10:42:00Z</time></trkpt><trkpt lat="45.006185163371896" lon="13.740522823289922"><ele>53.0</ele><time>2026-05-01T10:42:01Z</time></trkpt><trkpt lat="45.0061482787477" lon="13.740611216127867"><ele>53.00000000000001</ele><time>2026-05-01T10:42:01.999Z</time></trkpt><trkpt lat="45.00610220016299" lon="13.740753451835426"><ele>53.0</ele><time>2026-05-01T10:42:03.999Z</time></trkpt><trkpt lat="45.00603949171252" lon="13.740906817751162"><ele>53.0</ele><time>2026-05-01T10:42:05.999Z</time></trkpt><trkpt lat="45.00600772096453" lon="13.740985556995994"><ele>53.0</ele><time>2026-05-01T10:42:06.999Z</time></trkpt><trkpt lat="45.00597280357005" lon="13.741068279419503"><ele>53.0</ele><time>2026-05-01T10:42:07.999Z</time></trkpt><trkpt lat="45.00593511746675" lon="13.741150983516395"><ele>53.0</ele><time>2026-05-01T10:42:08.999Z</time></trkpt><trkpt lat="45.00589766528831" lon="13.741243814702745"><ele>53.0</ele><time>2026-05-01T10:42:09.999Z</time></trkpt><trkpt lat="45.00585670561568" lon="13.741334752547964"><ele>53.0</ele><time>2026-05-01T10:42:10.999Z</time></trkpt><trkpt lat="45.0058166094595" lon="13.741422591696494"><ele>53.0</ele><time>2026-05-01T10:42:11.999Z</time></trkpt><trkpt lat="45.005773617138736" lon="13.741513149942204"><ele>53.00000000000001</ele><time>2026-05-01T10:42:12.999Z</time></trkpt><trkpt lat="45.00573028533433" lon="13.741608913255929"><ele>53.0</ele><time>2026-05-01T10:42:13.999Z</time></trkpt><trkpt lat="45.005686044093395" lon="13.741705299788686"><ele>53.0</ele><time>2026-05-01T10:42:14.999Z</time></trkpt><trkpt lat="45.00564232731066" lon="13.741798588895904"><ele>53.0</ele><time>2026-05-01T10:42:15.999Z</time></trkpt><trkpt lat="45.0056042405681" lon="13.741883294517853"><ele>53.00000000000001</ele><time>2026-05-01T10:42:16.999Z</time></trkpt><trkpt lat="45.005562745773915" lon="13.741976265373744"><ele>53.0</ele><time>2026-05-01T10:42:17.999Z</time></trkpt><trkpt lat="45.005518352601555" lon="13.74207020732207"><ele>53.00000000000001</ele><time>2026-05-01T10:42:18.999Z</time></trkpt><trkpt lat="45.00548360690924" lon="13.742163566950941"><ele>53.0</ele><time>2026-05-01T10:42:19.999Z</time></trkpt><trkpt lat="45.0054444883301" lon="13.742243540727095"><ele>53.0</ele><time>2026-05-01T10:42:20.999Z</time></trkpt><trkpt lat="45.00540795706163" lon="13.742320981436398"><ele>53.0</ele><time>2026-05-01T10:42:21.999Z</time></trkpt><trkpt lat="45.00537112855201" lon="13.742406117853783"><ele>53.00000000000001</ele><time>2026-05-01T10:42:22.999Z</time></trkpt><trkpt lat="45.00530872772546" lon="13.742552805902363"><ele>53.0</ele><time>2026-05-01T10:42:24.999Z</time></trkpt><trkpt lat="45.00526490625444" lon="13.74263565862025"><ele>52.50000000000001</ele><time>2026-05-01T10:42:25.999Z</time></trkpt><trkpt lat="45.00521969884803" lon="13.742734861234222"><ele>52.0</ele><time>2026-05-01T10:42:26.999Z</time></trkpt><trkpt lat="45.00517147168434" lon="13.742831067104575"><ele>51.5</ele><time>2026-05-01T10:42:27.999Z</time></trkpt><trkpt lat="45.00512102438939" lon="13.742927969222782"><ele>51.0</ele><time>2026-05-01T10:42:28.999Z</time></trkpt><trkpt lat="45.00508271775593" lon="13.743005570726966"><ele>50.50000000000001</ele><time>2026-05-01T10:42:29.999Z</time></trkpt><trkpt lat="45.00504378003206" lon="13.743082302257367"><ele>50.0</ele><time>2026-05-01T10:42:30.999Z</time></trkpt><trkpt lat="45.00500905230495" lon="13.743164224779228"><ele>50.0</ele><time>2026-05-01T10:42:31.999Z</time></trkpt><trkpt lat="45.004948480254896" lon="13.743300499042618"><ele>50.0</ele><time>2026-05-01T10:42:33.999Z</time></trkpt><trkpt lat="45.00491182509215" lon="13.743379831916052"><ele>50.0</ele><time>2026-05-01T10:42:34.999Z</time></trkpt><trkpt lat="45.00485410957095" lon="13.743506307179015"><ele>50.0</ele><time>2026-05-01T10:42:36.999Z</time></trkpt><trkpt lat="45.00477401033073" lon="13.74355744677366"><ele>50.0</ele><time>2026-05-01T10:42:39Z</time></trkpt><trkpt lat="45.00466142134188" lon="13.743485801355593"><ele>50.00000000000001</ele><time>2026-05-01T10:42:41Z</time></trkpt><trkpt lat="45.00460649867816" lon="13.743442096690075"><ele>50.0</ele><time>2026-05-01T10:42:42Z</time></trkpt><trkpt lat="45.00448683947244" lon="13.74340105024516"><ele>50.0</ele><time>2026-05-01T10:42:44Z</time></trkpt><trkpt lat="45.00442482115219" lon="13.743372717105737"><ele>50.0</ele><time>2026-05-01T10:42:45Z</time></trkpt><trkpt lat="45.00435606231436" lon="13.7433488990894"><ele>50.00000000000001</ele><time>2026-05-01T10:42:46Z</time></trkpt><trkpt lat="45.004294233205734" lon="13.743324038803314"><ele>50.0</ele><time>2026-05-01T10:42:47Z</time></trkpt><trkpt lat="45.00423121340298" lon="13.743304849172535"><ele>50.00000000000001</ele><time>2026-05-01T10:42:48Z</time></trkpt><trkpt lat="45.00416124404372" lon="13.743284887801524"><ele>50.0</ele><time>2026-05-01T10:42:49Z</time></trkpt><trkpt lat="45.004094253574266" lon="13.743257509959747"><ele>50.0</ele><time>2026-05-01T10:42:50Z</time></trkpt><trkpt lat="45.00401530034354" lon="13.74322867533072"><ele>50.0</ele><time>2026-05-01T10:42:51Z</time></trkpt><trkpt lat="45.00393901338189" lon="13.743198209438761"><ele>50.0</ele><time>2026-05-01T10:42:52Z</time></trkpt><trkpt lat="45.00387602613814" lon="13.743175490493897"><ele>50.00000000000001</ele><time>2026-05-01T10:42:53Z</time></trkpt><trkpt lat="45.0038045375925" lon="13.74314493990175"><ele>50.0</ele><time>2026-05-01T10:42:54Z</time></trkpt><trkpt lat="45.00373689624176" lon="13.743118371807597"><ele>50.00000000000001</ele><time>2026-05-01T10:42:55Z</time></trkpt><trkpt lat="45.00366740984074" lon="13.743087136619431"><ele>50.0</ele><time>2026-05-01T10:42:56Z</time></trkpt><trkpt lat="45.00359983236647" lon="13.743058975269856"><ele>50.0</ele><time>2026-05-01T10:42:57Z</time></trkpt><trkpt lat="45.00353020433413" lon="13.743033282550728"><ele>50.0</ele><time>2026-05-01T10:42:58Z</time></trkpt><trkpt lat="45.0034636377953" lon="13.743005323828104"><ele>50.00000000000001</ele><time>2026-05-01T10:42:59Z</time></trkpt><trkpt lat="45.00335561357465" lon="13.742954903351423"><ele>50.0</ele><time>2026-05-01T10:43:01Z</time></trkpt><trkpt lat="45.003280897316664" lon="13.742913501616687"><ele>50.00000000000001</ele><time>2026-05-01T10:43:03Z</time></trkpt><trkpt lat="45.00321583206416" lon="13.742874348810908"><ele>50.0</ele><time>2026-05-01T10:44:19.999Z</time></trkpt><trkpt lat="45.00315266828972" lon="13.74284170670257"><ele>50.0</ele><time>2026-05-01T10:44:27.999Z</time></trkpt><trkpt lat="45.00307370067135" lon="13.7427967787651"><ele>50.0</ele><time>2026-05-01T10:44:29.999Z</time></trkpt><trkpt lat="45.00300035169015" lon="13.742766225432677"><ele>50.0</ele><time>2026-05-01T10:44:31.999Z</time></trkpt><trkpt lat="45.00294154451732" lon="13.742726861743305"><ele>50.00000000000001</ele><time>2026-05-01T10:44:33.999Z</time></trkpt><trkpt lat="45.00286388665756" lon="13.742684269673598"><ele>50.0</ele><time>2026-05-01T10:44:36.999Z</time></trkpt><trkpt lat="45.00279801081874" lon="13.742655964007076"><ele>50.00000000000001</ele><time>2026-05-01T10:44:39.999Z</time></trkpt><trkpt lat="45.00272418284384" lon="13.74261884431584"><ele>50.0</ele><time>2026-05-01T10:44:41.999Z</time></trkpt><trkpt lat="45.002645480840194" lon="13.742567293336492"><ele>50.0</ele><time>2026-05-01T10:44:43.999Z</time></trkpt><trkpt lat="45.002566861191454" lon="13.742503660809321"><ele>50.0</ele><time>2026-05-01T10:44:46Z</time></trkpt><trkpt lat="45.00248553153777" lon="13.742454767971608"><ele>50.00000000000001</ele><time>2026-05-01T10:44:48Z</time></trkpt><trkpt lat="45.00240311617876" lon="13.742421182772011"><ele>50.0</ele><time>2026-05-01T10:44:50Z</time></trkpt><trkpt lat="45.002325827925524" lon="13.742380315449669"><ele>49.50000000000001</ele><time>2026-05-01T10:44:52Z</time></trkpt><trkpt lat="45.00225183048371" lon="13.742343374868081"><ele>49.0</ele><time>2026-05-01T10:44:54Z</time></trkpt><trkpt lat="45.00218514735815" lon="13.742298061942481"><ele>48.5</ele><time>2026-05-01T10:44:56Z</time></trkpt><trkpt lat="45.00211873489351" lon="13.742267153320615"><ele>48.0</ele><time>2026-05-01T10:44:58Z</time></trkpt><trkpt lat="45.002040105426644" lon="13.742216556647149"><ele>47.5</ele><time>2026-05-01T10:45:01Z</time></trkpt><trkpt lat="45.00196057539427" lon="13.74217033540105"><ele>47.0</ele><time>2026-05-01T10:45:03Z</time></trkpt><trkpt lat="45.00188526896318" lon="13.742126274026889"><ele>47.0</ele><time>2026-05-01T10:45:05Z</time></trkpt><trkpt lat="45.00180752383315" lon="13.742085193767537"><ele>47.0</ele><time>2026-05-01T10:45:07Z</time></trkpt><trkpt lat="45.001745963315805" lon="13.742051524835414"><ele>47.0</ele><time>2026-05-01T10:45:09Z</time></trkpt><trkpt lat="45.00167593701194" lon="13.742003299213213"><ele>47.0</ele><time>2026-05-01T10:45:11Z</time></trkpt><trkpt lat="45.00159780085369" lon="13.741971529275773"><ele>47.0</ele><time>2026-05-01T10:45:13Z</time></trkpt><trkpt lat="45.00152276121254" lon="13.741925128541434"><ele>47.0</ele><time>2026-05-01T10:45:15Z</time></trkpt><trkpt lat="45.00144605636599" lon="13.74188019425134"><ele>45.8</ele><time>2026-05-01T10:45:17Z</time></trkpt><trkpt lat="45.001368511691304" lon="13.741837796218583"><ele>44.6</ele><time>2026-05-01T10:45:19Z</time></trkpt><trkpt lat="45.00128217007849" lon="13.741792559611376"><ele>43.4</ele><time>2026-05-01T10:45:21Z</time></trkpt><trkpt lat="45.00117575727689" lon="13.741735007105657"><ele>42.199999999999996</ele><time>2026-05-01T10:45:23Z</time></trkpt><trkpt lat="45.00108140636731" lon="13.741685241713984"><ele>41.0</ele><time>2026-05-01T10:45:25Z</time></trkpt><trkpt lat="45.00098104383052" lon="13.741638101207169"><ele>41.0</ele><time>2026-05-01T10:45:27Z</time></trkpt><trkpt lat="45.00088521539359" lon="13.741577975304311"><ele>41.0</ele><time>2026-05-01T10:45:29Z</time></trkpt><trkpt lat="45.00078725807711" lon="13.741524911525902"><ele>41.0</ele><time>2026-05-01T10:45:31Z</time></trkpt><trkpt lat="45.000681694055565" lon="13.74146273290971"><ele>41.0</ele><time>2026-05-01T10:45:33Z</time></trkpt><trkpt lat="45.000584795282585" lon="13.741411532090886"><ele>41.0</ele><time>2026-05-01T10:45:35Z</time></trkpt><trkpt lat="45.00048879991864" lon="13.741362992090329"><ele>40.0</ele><time>2026-05-01T10:45:37Z</time></trkpt><trkpt lat="45.00040825395755" lon="13.741333120651227"><ele>39.0</ele><time>2026-05-01T10:45:39Z</time></trkpt><trkpt lat="45.00030947793012" lon="13.74126498271479"><ele>38.0</ele><time>2026-05-01T10:45:41Z</time></trkpt><trkpt lat="45.00022072756767" lon="13.741208038016834"><ele>37.0</ele><time>2026-05-01T10:45:43Z</time></trkpt><trkpt lat="45.000124379355874" lon="13.741160504432887"><ele>36.0</ele><time>2026-05-01T10:45:45Z</time></trkpt><trkpt lat="45.000024157398514" lon="13.74109330302524"><ele>36.2</ele><time>2026-05-01T10:45:47Z</time></trkpt><trkpt lat="44.99992947499549" lon="13.741044285243047"><ele>36.400000000000006</ele><time>2026-05-01T10:45:49Z</time></trkpt><trkpt lat="44.99983049750392" lon="13.740985930607117"><ele>36.6</ele><time>2026-05-01T10:45:51Z</time></trkpt><trkpt lat="44.99972658644449" lon="13.74092415586366"><ele>36.800000000000004</ele><time>2026-05-01T10:45:53Z</time></trkpt><trkpt lat="44.99961882375754" lon="13.740865068985045"><ele>37.0</ele><time>2026-05-01T10:45:55Z</time></trkpt><trkpt lat="44.99952197887488" lon="13.740818734733963"><ele>37.0</ele><time>2026-05-01T10:45:57Z</time></trkpt><trkpt lat="44.999432350181735" lon="13.74076811056761"><ele>37.0</ele><time>2026-05-01T10:45:59Z</time></trkpt><trkpt lat="44.999331092587575" lon="13.74070685126986"><ele>37.0</ele><time>2026-05-01T10:46:01Z</time></trkpt><trkpt lat="44.99923880983077" lon="13.740655600430431"><ele>37.0</ele><time>2026-05-01T10:46:03Z</time></trkpt><trkpt lat="44.99914105565174" lon="13.74060221613416"><ele>37.0</ele><time>2026-05-01T10:46:05Z</time></trkpt><trkpt lat="44.99905551682411" lon="13.740555964393678"><ele>36.2</ele><time>2026-05-01T10:46:07Z</time></trkpt><trkpt lat="44.99896545726795" lon="13.74049997139179"><ele>35.400000000000006</ele><time>2026-05-01T10:46:08.999Z</time></trkpt><trkpt lat="44.99887456900805" lon="13.740445599970627"><ele>34.599999999999994</ele><time>2026-05-01T10:46:10.999Z</time></trkpt><trkpt lat="44.998774110636646" lon="13.740388151515125"><ele>33.8</ele><time>2026-05-01T10:46:12.999Z</time></trkpt><trkpt lat="44.99867784630981" lon="13.740338022283996"><ele>33.0</ele><time>2026-05-01T10:46:14.999Z</time></trkpt><trkpt lat="44.99858653914066" lon="13.740294434104955"><ele>33.0</ele><time>2026-05-01T10:46:16.999Z</time></trkpt><trkpt lat="44.99850337601354" lon="13.740238474114502"><ele>33.0</ele><time>2026-05-01T10:46:18.999Z</time></trkpt><trkpt lat="44.998413520521886" lon="13.740181854866"><ele>33.0</ele><time>2026-05-01T10:46:20.999Z</time></trkpt><trkpt lat="44.99831025711279" lon="13.740125792696997"><ele>33.0</ele><time>2026-05-01T10:46:22.999Z</time></trkpt><trkpt lat="44.99821134443253" lon="13.740071518316514"><ele>33.0</ele><time>2026-05-01T10:46:24.999Z</time></trkpt><trkpt lat="44.998109347981064" lon="13.740025406911046"><ele>32.4</ele><time>2026-05-01T10:46:26.999Z</time></trkpt><trkpt lat="44.99802825959167" lon="13.739976999825679"><ele>31.799999999999997</ele><time>2026-05-01T10:46:28.999Z</time></trkpt><trkpt lat="44.99793201252428" lon="13.739911975908752"><ele>31.2</ele><time>2026-05-01T10:46:30.999Z</time></trkpt><trkpt lat="44.99783680596563" lon="13.739855923340839"><ele>30.6</ele><time>2026-05-01T10:46:32.999Z</time></trkpt><trkpt lat="44.997749609910606" lon="13.7397966073441"><ele>30.0</ele><time>2026-05-01T10:46:34.999Z</time></trkpt><trkpt lat="44.99764592563212" lon="13.739758520147442"><ele>30.0</ele><time>2026-05-01T10:46:36.999Z</time></trkpt><trkpt lat="44.99754917080923" lon="13.739696621872877"><ele>30.0</ele><time>2026-05-01T10:46:38.999Z</time></trkpt><trkpt lat="44.99744813403243" lon="13.7396374128702"><ele>30.0</ele><time>2026-05-01T10:46:40.999Z</time></trkpt><trkpt lat="44.99734953728825" lon="13.739578696939144"><ele>30.0</ele><time>2026-05-01T10:46:42.999Z</time></trkpt><trkpt lat="44.997248049906496" lon="13.73953540113159"><ele>30.0</ele><time>2026-05-01T10:46:44.999Z</time></trkpt><trkpt lat="44.99716174800099" lon="13.739481459487271"><ele>29.8</ele><time>2026-05-01T10:46:46.999Z</time></trkpt><trkpt lat="44.9970613602731" lon="13.739421476853932"><ele>29.6</ele><time>2026-05-01T10:46:48.999Z</time></trkpt><trkpt lat="44.99696911588542" lon="13.739370212410128"><ele>29.4</ele><time>2026-05-01T10:46:51Z</time></trkpt><trkpt lat="44.99687108134926" lon="13.739319570862293"><ele>29.2</ele><time>2026-05-01T10:46:53Z</time></trkpt><trkpt lat="44.99676480131006" lon="13.739260086064348"><ele>29.0</ele><time>2026-05-01T10:46:55Z</time></trkpt><trkpt lat="44.99665722152004" lon="13.739201408345043"><ele>28.25</ele><time>2026-05-01T10:46:57Z</time></trkpt><trkpt lat="44.99655488052083" lon="13.73913883394794"><ele>27.5</ele><time>2026-05-01T10:46:59Z</time></trkpt><trkpt lat="44.99644280967869" lon="13.739080845227303"><ele>26.75</ele><time>2026-05-01T10:47:01Z</time></trkpt><trkpt lat="44.99633835502905" lon="13.739022749951168"><ele>26.0</ele><time>2026-05-01T10:47:03Z</time></trkpt><trkpt lat="44.99623412910747" lon="13.738969324635319"><ele>26.0</ele><time>2026-05-01T10:47:05Z</time></trkpt><trkpt lat="44.99612786237421" lon="13.738914077184369"><ele>26.0</ele><time>2026-05-01T10:47:07Z</time></trkpt><trkpt lat="44.99603108186974" lon="13.738853777832253"><ele>26.0</ele><time>2026-05-01T10:47:09Z</time></trkpt><trkpt lat="44.99592889980006" lon="13.73879297512669"><ele>26.0</ele><time>2026-05-01T10:47:11Z</time></trkpt><trkpt lat="44.99583074894182" lon="13.738744757026371"><ele>26.0</ele><time>2026-05-01T10:47:13Z</time></trkpt><trkpt lat="44.99574231244515" lon="13.738693173427196"><ele>25.0</ele><time>2026-05-01T10:47:15Z</time></trkpt><trkpt lat="44.995642828625876" lon="13.738638726122746"><ele>24.0</ele><time>2026-05-01T10:47:17Z</time></trkpt><trkpt lat="44.99555352413582" lon="13.738576912429085"><ele>23.0</ele><time>2026-05-01T10:47:19Z</time></trkpt><trkpt lat="44.99545594370367" lon="13.738520472714791"><ele>22.0</ele><time>2026-05-01T10:47:21Z</time></trkpt><trkpt lat="44.995369971005566" lon="13.738477981993961"><ele>21.0</ele><time>2026-05-01T10:47:23Z</time></trkpt><trkpt lat="44.99529459320638" lon="13.73844535412993"><ele>21.0</ele><time>2026-05-01T10:47:25Z</time></trkpt><trkpt lat="44.995226255243466" lon="13.7384263880209"><ele>21.0</ele><time>2026-05-01T10:47:28Z</time></trkpt><trkpt lat="44.99514907494164" lon="13.738386494825182"><ele>21.0</ele><time>2026-05-01T10:47:31Z</time></trkpt><trkpt lat="44.99506427032733" lon="13.738327659888697"><ele>21.0</ele><time>2026-05-01T10:47:33Z</time></trkpt><trkpt lat="44.99495952890423" lon="13.738259272139524"><ele>21.0</ele><time>2026-05-01T10:47:35Z</time></trkpt><trkpt lat="44.9948989332728" lon="13.73822546734007"><ele>21.0</ele><time>2026-05-01T10:47:36Z</time></trkpt><trkpt lat="44.99483586914998" lon="13.73818949025946"><ele>20.2</ele><time>2026-05-01T10:47:37Z</time></trkpt><trkpt lat="44.994776071217515" lon="13.738140445815294"><ele>19.400000000000002</ele><time>2026-05-01T10:47:38Z</time></trkpt><trkpt lat="44.99467252558235" lon="13.738039634545958"><ele>18.6</ele><time>2026-05-01T10:47:40Z</time></trkpt><trkpt lat="44.99455892228376" lon="13.737966437155801"><ele>17.8</ele><time>2026-05-01T10:47:42Z</time></trkpt><trkpt lat="44.99443989066978" lon="13.737971242725957"><ele>17.0</ele><time>2026-05-01T10:47:44Z</time></trkpt><trkpt lat="44.99432947593511" lon="13.738018823204532"><ele>17.0</ele><time>2026-05-01T10:47:46Z</time></trkpt><trkpt lat="44.994234812255335" lon="13.738038014292094"><ele>17.0</ele><time>2026-05-01T10:47:48Z</time></trkpt><trkpt lat="44.99417028739581" lon="13.737955683969897"><ele>17.0</ele><time>2026-05-01T10:47:50Z</time></trkpt><trkpt lat="44.99409413809195" lon="13.737813746671222"><ele>17.0</ele><time>2026-05-01T10:47:52Z</time></trkpt><trkpt lat="44.99404125903276" lon="13.73773654477798"><ele>17.0</ele><time>2026-05-01T10:47:53Z</time></trkpt><trkpt lat="44.99398724803419" lon="13.737665950416451"><ele>15.666666666666668</ele><time>2026-05-01T10:47:54Z</time></trkpt><trkpt lat="44.993929561079476" lon="13.737598294840437"><ele>14.333333333333334</ele><time>2026-05-01T10:47:55Z</time></trkpt><trkpt lat="44.99388011810652" lon="13.737533197639616"><ele>13.0</ele><time>2026-05-01T10:47:56Z</time></trkpt><trkpt lat="44.99383144011578" lon="13.737463661370304"><ele>11.666666666666668</ele><time>2026-05-01T10:47:57Z</time></trkpt><trkpt lat="44.99377126320859" lon="13.737388298924676"><ele>10.333333333333334</ele><time>2026-05-01T10:47:58Z</time></trkpt><trkpt lat="44.99371431043087" lon="13.73731322242741"><ele>9.0</ele><time>2026-05-01T10:47:59Z</time></trkpt><trkpt lat="44.993653763641454" lon="13.737232755821703"><ele>9.000000000000002</ele><time>2026-05-01T10:48:00Z</time></trkpt><trkpt lat="44.99359697289354" lon="13.737165705986268"><ele>9.0</ele><time>2026-05-01T10:48:01Z</time></trkpt><trkpt lat="44.99354603838537" lon="13.737095465222028"><ele>9.0</ele><time>2026-05-01T10:48:02Z</time></trkpt><trkpt lat="44.99349597367671" lon="13.73702432549131"><ele>9.0</ele><time>2026-05-01T10:48:02.999Z</time></trkpt><trkpt lat="44.99344501971026" lon="13.736951084910448"><ele>9.0</ele><time>2026-05-01T10:48:03.999Z</time></trkpt><trkpt lat="44.99339758341011" lon="13.736879194882384"><ele>9.000000000000002</ele><time>2026-05-01T10:48:04.999Z</time></trkpt><trkpt lat="44.993351064119445" lon="13.736812936152681"><ele>9.0</ele><time>2026-05-01T10:48:05.999Z</time></trkpt><trkpt lat="44.99330665409321" lon="13.736749752727997"><ele>8.5</ele><time>2026-05-01T10:48:06.999Z</time></trkpt><trkpt lat="44.99326037132449" lon="13.736682011791661"><ele>8.0</ele><time>2026-05-01T10:48:07.999Z</time></trkpt><trkpt lat="44.99321538303497" lon="13.736613650161734"><ele>7.5</ele><time>2026-05-01T10:48:08.999Z</time></trkpt><trkpt lat="44.9931753026302" lon="13.736542613350352"><ele>7.0</ele><time>2026-05-01T10:48:09.999Z</time></trkpt><trkpt lat="44.99313401403339" lon="13.736471882378153"><ele>6.5</ele><time>2026-05-01T10:48:10.999Z</time></trkpt><trkpt lat="44.99304429702037" lon="13.736361256863805"><ele>6.0</ele><time>2026-05-01T10:48:12.999Z</time></trkpt><trkpt lat="44.992967861647" lon="13.7362429118881"><ele>6.0</ele><time>2026-05-01T10:48:14.999Z</time></trkpt><trkpt lat="44.992882924752365" lon="13.736180093838689"><ele>6.0</ele><time>2026-05-01T10:48:16.999Z</time></trkpt><trkpt lat="44.99279272944912" lon="13.736216471774128"><ele>6.0</ele><time>2026-05-01T10:48:18.999Z</time></trkpt><trkpt lat="44.9927103871536" lon="13.736270337637517"><ele>6.0</ele><time>2026-05-01T10:48:20.999Z</time></trkpt><trkpt lat="44.99262615409567" lon="13.736308748126538"><ele>6.0</ele><time>2026-05-01T10:48:22.999Z</time></trkpt><trkpt lat="44.992542615861396" lon="13.73634754203123"><ele>5.833333333333333</ele><time>2026-05-01T10:48:24.999Z</time></trkpt><trkpt lat="44.992461331830995" lon="13.736394055581565"><ele>5.666666666666667</ele><time>2026-05-01T10:48:26.999Z</time></trkpt><trkpt lat="44.992355248981966" lon="13.736461668839706"><ele>5.5</ele><time>2026-05-01T10:48:28.999Z</time></trkpt><trkpt lat="44.9922916119591" lon="13.736507938470632"><ele>5.333333333333334</ele><time>2026-05-01T10:48:29.999Z</time></trkpt><trkpt lat="44.992232589866866" lon="13.736540754624334"><ele>5.166666666666667</ele><time>2026-05-01T10:48:30.999Z</time></trkpt><trkpt lat="44.992171184838114" lon="13.736582601129374"><ele>5.0</ele><time>2026-05-01T10:48:31.999Z</time></trkpt><trkpt lat="44.99210854398059" lon="13.73660886430222"><ele>5.0</ele><time>2026-05-01T10:48:32.999Z</time></trkpt><trkpt lat="44.992043556635174" lon="13.7366416405923"><ele>5.0</ele><time>2026-05-01T10:48:33.999Z</time></trkpt><trkpt lat="44.99193464102414" lon="13.736704314028435"><ele>5.0</ele><time>2026-05-01T10:48:35.999Z</time></trkpt><trkpt lat="44.991844517024354" lon="13.736741234568745"><ele>5.0</ele><time>2026-05-01T10:48:37.999Z</time></trkpt><trkpt lat="44.99176207474344" lon="13.736776836357304"><ele>5.0</ele><time>2026-05-01T10:48:39.999Z</time></trkpt><trkpt lat="44.991677070117376" lon="13.736814137314616"><ele>5.0</ele><time>2026-05-01T10:48:41.999Z</time></trkpt><trkpt lat="44.99159221426357" lon="13.736851301520757"><ele>5.0</ele><time>2026-05-01T10:48:43.999Z</time></trkpt><trkpt lat="44.99151066403429" lon="13.736904952942137"><ele>5.0</ele><time>2026-05-01T10:48:45.999Z</time></trkpt><trkpt lat="44.99142718126162" lon="13.736938371800322"><ele>5.0</ele><time>2026-05-01T10:48:47.999Z</time></trkpt><trkpt lat="44.99134117199707" lon="13.736955864910417"><ele>5.0</ele><time>2026-05-01T10:48:49.999Z</time></trkpt><trkpt lat="44.99127894685143" lon="13.736977704963694"><ele>5.0</ele><time>2026-05-01T10:48:51.999Z</time></trkpt><trkpt lat="44.991189391269955" lon="13.736990342504505"><ele>5.0</ele><time>2026-05-01T10:48:54.999Z</time></trkpt><trkpt lat="44.99110009550763" lon="13.736981602251422"><ele>5.0</ele><time>2026-05-01T10:48:58Z</time></trkpt><trkpt lat="44.99100682613493" lon="13.73698302861959"><ele>5.0</ele><time>2026-05-01T10:49:01Z</time></trkpt><trkpt lat="44.99093422610268" lon="13.736966968153958"><ele>5.0</ele><time>2026-05-01T10:49:03Z</time></trkpt><trkpt lat="44.99086106962732" lon="13.736958501937464"><ele>5.0</ele><time>2026-05-01T10:49:05Z</time></trkpt><trkpt lat="44.99078454816458" lon="13.73694897545405"><ele>5.0</ele><time>2026-05-01T10:49:07Z</time></trkpt><trkpt lat="44.99071672382982" lon="13.736926161868201"><ele>5.0</ele><time>2026-05-01T10:49:09Z</time></trkpt><trkpt lat="44.99063298995063" lon="13.736893170639481"><ele>5.0</ele><time>2026-05-01T10:49:11Z</time></trkpt><trkpt lat="44.99055756404577" lon="13.736840201632328"><ele>5.0</ele><time>2026-05-01T10:49:13Z</time></trkpt><trkpt lat="44.99045887368868" lon="13.736795003263731"><ele>5.0</ele><time>2026-05-01T10:49:15Z</time></trkpt><trkpt lat="44.990393965240806" lon="13.736766199663531"><ele>5.0</ele><time>2026-05-01T10:49:16Z</time></trkpt><trkpt lat="44.990289240099024" lon="13.736706777324946"><ele>5.2</ele><time>2026-05-01T10:49:18Z</time></trkpt><trkpt lat="44.99018414856373" lon="13.736655183637257"><ele>5.4</ele><time>2026-05-01T10:49:20Z</time></trkpt><trkpt lat="44.99008782117388" lon="13.736598255999585"><ele>5.6</ele><time>2026-05-01T10:49:22Z</time></trkpt><trkpt lat="44.98998911145624" lon="13.736523532160396"><ele>5.8</ele><time>2026-05-01T10:49:24Z</time></trkpt><trkpt lat="44.98988363194919" lon="13.736453463469429"><ele>6.0</ele><time>2026-05-01T10:49:26Z</time></trkpt><trkpt lat="44.989766659584" lon="13.736392954195184"><ele>6.0</ele><time>2026-05-01T10:49:28Z</time></trkpt><trkpt lat="44.98966183544957" lon="13.73631828708809"><ele>6.0</ele><time>2026-05-01T10:49:30Z</time></trkpt><trkpt lat="44.989570181648176" lon="13.736244244349844"><ele>6.0</ele><time>2026-05-01T10:49:32Z</time></trkpt><trkpt lat="44.98946013545425" lon="13.736172047860826"><ele>6.0</ele><time>2026-05-01T10:49:34Z</time></trkpt><trkpt lat="44.98934867380829" lon="13.736120696297766"><ele>6.25</ele><time>2026-05-01T10:49:36Z</time></trkpt><trkpt lat="44.98925128423493" lon="13.73605097597501"><ele>6.5</ele><time>2026-05-01T10:49:38Z</time></trkpt><trkpt lat="44.989128369287926" lon="13.73598461651523"><ele>6.75</ele><time>2026-05-01T10:49:40Z</time></trkpt><trkpt lat="44.98902786931405" lon="13.735916344353258"><ele>7.0</ele><time>2026-05-01T10:49:42Z</time></trkpt><trkpt lat="44.98892938625794" lon="13.735845454912127"><ele>7.0</ele><time>2026-05-01T10:49:44Z</time></trkpt><trkpt lat="44.98883062658925" lon="13.73578282367463"><ele>6.999999999999999</ele><time>2026-05-01T10:49:46Z</time></trkpt><trkpt lat="44.98873115589508" lon="13.735733261356367"><ele>6.999999999999999</ele><time>2026-05-01T10:49:48Z</time></trkpt><trkpt lat="44.98864527389209" lon="13.735692016581417"><ele>7.0</ele><time>2026-05-01T10:49:50Z</time></trkpt><trkpt lat="44.98857078267414" lon="13.735647527556619"><ele>7.0</ele><time>2026-05-01T10:49:52Z</time></trkpt><trkpt lat="44.988503131126976" lon="13.735561931124503"><ele>7.0</ele><time>2026-05-01T10:49:55Z</time></trkpt><trkpt lat="44.98847485261378" lon="13.73545931398181"><ele>7.0</ele><time>2026-05-01T10:49:58Z</time></trkpt><trkpt lat="44.988412695070416" lon="13.73549260524221"><ele>7.0</ele><time>2026-05-01T10:51:47Z</time></trkpt><trkpt lat="44.988454248433236" lon="13.735424051021303"><ele>7.0</ele><time>2026-05-01T10:52:28.999Z</time></trkpt><trkpt lat="44.98843024531098" lon="13.735513929605634"><ele>7.0</ele><time>2026-05-01T10:53:03.999Z</time></trkpt><trkpt lat="44.98846528621231" lon="13.735423781103409"><ele>7.0</ele><time>2026-05-01T10:53:26Z</time></trkpt><trkpt lat="44.98847184388148" lon="13.73551782591133"><ele>7.0</ele><time>2026-05-01T10:56:11Z</time></trkpt><trkpt lat="44.988456479170786" lon="13.735405705055847"><ele>7.0</ele><time>2026-05-01T11:00:55.999Z</time></trkpt><trkpt lat="44.9884209977904" lon="13.735491416394236"><ele>7.0</ele><time>2026-05-01T11:01:26.999Z</time></trkpt><trkpt lat="44.98838881405112" lon="13.735577472556272"><ele>7.0</ele><time>2026-05-01T11:01:37.999Z</time></trkpt><trkpt lat="44.988437540558984" lon="13.735500393973064"><ele>7.0</ele><time>2026-05-01T11:01:49.999Z</time></trkpt><trkpt lat="44.98850865982739" lon="13.735477866678236"><ele>7.0</ele><time>2026-05-01T11:19:09Z</time></trkpt><trkpt lat="44.9884902131567" lon="13.735568016712046"><ele>7.0</ele><time>2026-05-01T11:19:14Z</time></trkpt><trkpt lat="44.988416691708444" lon="13.735547619649592"><ele>7.0</ele><time>2026-05-01T11:19:24Z</time></trkpt><trkpt lat="44.988331882977974" lon="13.735540159138178"><ele>6.6</ele><time>2026-05-01T11:19:26Z</time></trkpt><trkpt lat="44.98824177403587" lon="13.73554664348771"><ele>6.199999999999999</ele><time>2026-05-01T11:19:28Z</time></trkpt><trkpt lat="44.9881250550937" lon="13.735520180074037"><ele>5.8</ele><time>2026-05-01T11:19:30Z</time></trkpt><trkpt lat="44.988052745082534" lon="13.735508467163971"><ele>5.4</ele><time>2026-05-01T11:19:31Z</time></trkpt><trkpt lat="44.987936422388756" lon="13.73551716626571"><ele>5.0</ele><time>2026-05-01T11:19:33Z</time></trkpt><trkpt lat="44.987872516660524" lon="13.735530750097366"><ele>5.0</ele><time>2026-05-01T11:19:34Z</time></trkpt><trkpt lat="44.98780883862151" lon="13.735548392701748"><ele>5.0</ele><time>2026-05-01T11:19:35Z</time></trkpt><trkpt lat="44.98768591526871" lon="13.735582973581009"><ele>5.0</ele><time>2026-05-01T11:19:37Z</time></trkpt><trkpt lat="44.98762086507891" lon="13.735609350688676"><ele>5.0</ele><time>2026-05-01T11:19:38Z</time></trkpt><trkpt lat="44.98750533683077" lon="13.735661405933307"><ele>5.0</ele><time>2026-05-01T11:19:40Z</time></trkpt><trkpt lat="44.98744246779201" lon="13.735700478556508"><ele>5.0</ele><time>2026-05-01T11:19:41Z</time></trkpt><trkpt lat="44.987384474667735" lon="13.735740617022204"><ele>5.0</ele><time>2026-05-01T11:19:42Z</time></trkpt><trkpt lat="44.987321008726674" lon="13.735783055722825"><ele>5.0</ele><time>2026-05-01T11:19:43Z</time></trkpt><trkpt lat="44.987260741002565" lon="13.735828527126442"><ele>5.0</ele><time>2026-05-01T11:19:44Z</time></trkpt><trkpt lat="44.98720153054015" lon="13.73587799632825"><ele>5.0</ele><time>2026-05-01T11:19:45Z</time></trkpt><trkpt lat="44.98714578995485" lon="13.735921860778697"><ele>5.0</ele><time>2026-05-01T11:19:46Z</time></trkpt><trkpt lat="44.98705343856823" lon="13.736016980568136"><ele>5.0</ele><time>2026-05-01T11:19:48Z</time></trkpt><trkpt lat="44.9869525017026" lon="13.736121751259075"><ele>5.0</ele><time>2026-05-01T11:19:50Z</time></trkpt><trkpt lat="44.98689914528424" lon="13.736223375672633"><ele>5.0</ele><time>2026-05-01T11:19:52Z</time></trkpt><trkpt lat="44.98683252180035" lon="13.736329251665873"><ele>5.0</ele><time>2026-05-01T11:19:54Z</time></trkpt><trkpt lat="44.98676586782683" lon="13.736446026542932"><ele>5.0</ele><time>2026-05-01T11:19:56Z</time></trkpt><trkpt lat="44.9867134624736" lon="13.736562678151268"><ele>5.0</ele><time>2026-05-01T11:19:58Z</time></trkpt><trkpt lat="44.986669944758006" lon="13.736668445592707"><ele>5.166666666666667</ele><time>2026-05-01T11:20:00Z</time></trkpt><trkpt lat="44.98663627970429" lon="13.736775240052575"><ele>5.333333333333334</ele><time>2026-05-01T11:20:02Z</time></trkpt><trkpt lat="44.986598369715125" lon="13.736859852163347"><ele>5.5</ele><time>2026-05-01T11:20:05Z</time></trkpt><trkpt lat="44.986556333447034" lon="13.736946526097677"><ele>5.666666666666667</ele><time>2026-05-01T11:20:08.999Z</time></trkpt><trkpt lat="44.986534377443185" lon="13.737031787371254"><ele>5.833333333333333</ele><time>2026-05-01T11:20:11.999Z</time></trkpt><trkpt lat="44.98655710634327" lon="13.737133249692452"><ele>6.0</ele><time>2026-05-01T11:20:14.999Z</time></trkpt><trkpt lat="44.98663143899593" lon="13.737212666182025"><ele>5.6</ele><time>2026-05-01T11:20:17.999Z</time></trkpt><trkpt lat="44.98670686690425" lon="13.737274599072515"><ele>5.199999999999999</ele><time>2026-05-01T11:20:19.999Z</time></trkpt><trkpt lat="44.98678891856594" lon="13.737339050155905"><ele>4.800000000000001</ele><time>2026-05-01T11:20:21.999Z</time></trkpt><trkpt lat="44.986869743395076" lon="13.737413524739143"><ele>4.4</ele><time>2026-05-01T11:20:23.999Z</time></trkpt><trkpt lat="44.98696015413663" lon="13.737501748981492"><ele>4.0</ele><time>2026-05-01T11:20:26.001Z</time></trkpt><trkpt lat="44.98706308996861" lon="13.737582491743641"><ele>4.0</ele><time>2026-05-01T11:20:28.001Z</time></trkpt><trkpt lat="44.987120763540446" lon="13.737643152103828"><ele>3.9999999999999996</ele><time>2026-05-01T11:20:29.001Z</time></trkpt><trkpt lat="44.987178071790495" lon="13.737700632578433"><ele>4.0</ele><time>2026-05-01T11:20:30.001Z</time></trkpt><trkpt lat="44.98723466303919" lon="13.737751645239022"><ele>4.0</ele><time>2026-05-01T11:20:31.001Z</time></trkpt><trkpt lat="44.98729410581412" lon="13.737807820147978"><ele>3.9999999999999996</ele><time>2026-05-01T11:20:32.001Z</time></trkpt><trkpt lat="44.98735024827277" lon="13.737872410369741"><ele>4.0</ele><time>2026-05-01T11:20:33.001Z</time></trkpt><trkpt lat="44.987411394824626" lon="13.737946267887878"><ele>4.0</ele><time>2026-05-01T11:20:34.001Z</time></trkpt><trkpt lat="44.987471798003796" lon="13.738009636918623"><ele>4.142857142857142</ele><time>2026-05-01T11:20:35.001Z</time></trkpt><trkpt lat="44.98753551799792" lon="13.738074240046107"><ele>4.285714285714286</ele><time>2026-05-01T11:20:36.001Z</time></trkpt><trkpt lat="44.98760208965469" lon="13.738138876625726"><ele>4.428571428571429</ele><time>2026-05-01T11:20:37.001Z</time></trkpt><trkpt lat="44.987669957060774" lon="13.738205557169607"><ele>4.571428571428571</ele><time>2026-05-01T11:20:38.001Z</time></trkpt><trkpt lat="44.98772625725321" lon="13.738261416514613"><ele>4.714285714285714</ele><time>2026-05-01T11:20:39.001Z</time></trkpt><trkpt lat="44.98778177593068" lon="13.73831342395302"><ele>4.857142857142857</ele><time>2026-05-01T11:20:40.001Z</time></trkpt><trkpt lat="44.98783772015344" lon="13.73837215891061"><ele>5.0</ele><time>2026-05-01T11:20:41.001Z</time></trkpt><trkpt lat="44.987897148135836" lon="13.738430514661987"><ele>5.0</ele><time>2026-05-01T11:20:42.001Z</time></trkpt><trkpt lat="44.98795787639223" lon="13.738491658826197"><ele>5.0</ele><time>2026-05-01T11:20:43.001Z</time></trkpt><trkpt lat="44.9880179346847" lon="13.738551781328004"><ele>5.0</ele><time>2026-05-01T11:20:44.001Z</time></trkpt><trkpt lat="44.988081015948495" lon="13.738618156998111"><ele>5.0</ele><time>2026-05-01T11:20:45.001Z</time></trkpt><trkpt lat="44.988145226091895" lon="13.738679591806285"><ele>5.0</ele><time>2026-05-01T11:20:46.001Z</time></trkpt><trkpt lat="44.98820919266047" lon="13.738740412044937"><ele>5.0</ele><time>2026-05-01T11:20:47.001Z</time></trkpt><trkpt lat="44.98827563850024" lon="13.738804651943402"><ele>5.0</ele><time>2026-05-01T11:20:48Z</time></trkpt><trkpt lat="44.98834287855718" lon="13.738861079077315"><ele>5.0</ele><time>2026-05-01T11:20:49Z</time></trkpt><trkpt lat="44.98840782935639" lon="13.738919322960099"><ele>5.0</ele><time>2026-05-01T11:20:50Z</time></trkpt><trkpt lat="44.98847412821769" lon="13.738979475783697"><ele>5.0</ele><time>2026-05-01T11:20:51Z</time></trkpt><trkpt lat="44.98852814947735" lon="13.739043260366472"><ele>5.0</ele><time>2026-05-01T11:20:52Z</time></trkpt><trkpt lat="44.98862633468135" lon="13.73915078240754"><ele>5.0</ele><time>2026-05-01T11:20:54Z</time></trkpt><trkpt lat="44.988679654009374" lon="13.739203779977943"><ele>5.0</ele><time>2026-05-01T11:20:55Z</time></trkpt><trkpt lat="44.98877283059794" lon="13.739290902722294"><ele>5.0</ele><time>2026-05-01T11:20:57Z</time></trkpt><trkpt lat="44.98885946506923" lon="13.739366969178036"><ele>5.0</ele><time>2026-05-01T11:20:59Z</time></trkpt><trkpt lat="44.98893804871033" lon="13.739447012711894"><ele>5.0</ele><time>2026-05-01T11:21:01Z</time></trkpt><trkpt lat="44.989013993536304" lon="13.73952626904498"><ele>5.0</ele><time>2026-05-01T11:21:03Z</time></trkpt><trkpt lat="44.98907685114414" lon="13.739589130558082"><ele>5.0</ele><time>2026-05-01T11:21:05Z</time></trkpt><trkpt lat="44.98914165450087" lon="13.739662055567084"><ele>5.0</ele><time>2026-05-01T11:21:07Z</time></trkpt><trkpt lat="44.98920718029655" lon="13.739727631222431"><ele>5.0</ele><time>2026-05-01T11:21:09Z</time></trkpt><trkpt lat="44.98926964786211" lon="13.739784524369314"><ele>5.0</ele><time>2026-05-01T11:21:11Z</time></trkpt><trkpt lat="44.98932508296939" lon="13.739838828575069"><ele>5.0</ele><time>2026-05-01T11:21:13Z</time></trkpt><trkpt lat="44.98941569290001" lon="13.739924899097181"><ele>5.0</ele><time>2026-05-01T11:21:15Z</time></trkpt><trkpt lat="44.989473178108085" lon="13.739964422870795"><ele>5.333333333333334</ele><time>2026-05-01T11:21:16Z</time></trkpt><trkpt lat="44.98954251197275" lon="13.740012473331246"><ele>5.666666666666667</ele><time>2026-05-01T11:21:17Z</time></trkpt><trkpt lat="44.98961705187946" lon="13.740082474910164"><ele>6.0</ele><time>2026-05-01T11:21:18Z</time></trkpt><trkpt lat="44.98968102830654" lon="13.740153313944639"><ele>6.333333333333334</ele><time>2026-05-01T11:21:19Z</time></trkpt><trkpt lat="44.98973561349564" lon="13.740211923933034"><ele>6.666666666666667</ele><time>2026-05-01T11:21:20Z</time></trkpt><trkpt lat="44.98981060207888" lon="13.74028545140143"><ele>7.0</ele><time>2026-05-01T11:21:21Z</time></trkpt><trkpt lat="44.9898783909578" lon="13.74035662801824"><ele>7.000000000000001</ele><time>2026-05-01T11:21:22Z</time></trkpt><trkpt lat="44.98994801064237" lon="13.740437185461964"><ele>7.0</ele><time>2026-05-01T11:21:23Z</time></trkpt><trkpt lat="44.99001523198879" lon="13.740502495261818"><ele>7.0</ele><time>2026-05-01T11:21:24Z</time></trkpt><trkpt lat="44.99009161317187" lon="13.74056777487414"><ele>7.0</ele><time>2026-05-01T11:21:25Z</time></trkpt><trkpt lat="44.99016717511288" lon="13.74063334141217"><ele>7.000000000000001</ele><time>2026-05-01T11:21:26Z</time></trkpt><trkpt lat="44.99024555314072" lon="13.740698800118652"><ele>7.0</ele><time>2026-05-01T11:21:27Z</time></trkpt><trkpt lat="44.9903243927136" lon="13.740769180189139"><ele>7.3999999999999995</ele><time>2026-05-01T11:21:28Z</time></trkpt><trkpt lat="44.9903951175033" lon="13.740847980743798"><ele>7.799999999999999</ele><time>2026-05-01T11:21:29Z</time></trkpt><trkpt lat="44.99047272972656" lon="13.740936527065069"><ele>8.2</ele><time>2026-05-01T11:21:30Z</time></trkpt><trkpt lat="44.99055280107787" lon="13.741020985991485"><ele>8.6</ele><time>2026-05-01T11:21:31Z</time></trkpt><trkpt lat="44.99063535012847" lon="13.74111372057803"><ele>9.0</ele><time>2026-05-01T11:21:32Z</time></trkpt><trkpt lat="44.99071486617388" lon="13.741203589797012"><ele>9.0</ele><time>2026-05-01T11:21:33Z</time></trkpt><trkpt lat="44.99079922103967" lon="13.741283424694384"><ele>9.0</ele><time>2026-05-01T11:21:34Z</time></trkpt><trkpt lat="44.99088103453555" lon="13.741359128742525"><ele>9.0</ele><time>2026-05-01T11:21:35Z</time></trkpt><trkpt lat="44.99096302013497" lon="13.74144031199012"><ele>9.0</ele><time>2026-05-01T11:21:36Z</time></trkpt><trkpt lat="44.991044334385556" lon="13.741520583890393"><ele>9.0</ele><time>2026-05-01T11:21:37Z</time></trkpt><trkpt lat="44.99112409480603" lon="13.741597156700433"><ele>9.833333333333334</ele><time>2026-05-01T11:21:38Z</time></trkpt><trkpt lat="44.99120203040623" lon="13.741673653286993"><ele>10.666666666666668</ele><time>2026-05-01T11:21:39Z</time></trkpt><trkpt lat="44.99127090300195" lon="13.741741495237621"><ele>11.5</ele><time>2026-05-01T11:21:40Z</time></trkpt><trkpt lat="44.99133313999978" lon="13.741802648432426"><ele>12.333333333333334</ele><time>2026-05-01T11:21:41Z</time></trkpt><trkpt lat="44.991393268108794" lon="13.741857171198248"><ele>13.166666666666668</ele><time>2026-05-01T11:21:42Z</time></trkpt><trkpt lat="44.99146261366543" lon="13.741983818645517"><ele>14.0</ele><time>2026-05-01T11:21:44Z</time></trkpt><trkpt lat="44.991446459454814" lon="13.742076899475851"><ele>14.6</ele><time>2026-05-01T11:21:45Z</time></trkpt><trkpt lat="44.991391248724405" lon="13.742175913324896"><ele>15.2</ele><time>2026-05-01T11:21:46Z</time></trkpt><trkpt lat="44.99132606309859" lon="13.742290279182045"><ele>15.799999999999999</ele><time>2026-05-01T11:21:46.999Z</time></trkpt><trkpt lat="44.99127377801667" lon="13.74241055268742"><ele>16.4</ele><time>2026-05-01T11:21:47.999Z</time></trkpt><trkpt lat="44.991222054285544" lon="13.742529892180219"><ele>17.0</ele><time>2026-05-01T11:21:48.999Z</time></trkpt><trkpt lat="44.99117145089505" lon="13.742641976489388"><ele>17.0</ele><time>2026-05-01T11:21:49.999Z</time></trkpt><trkpt lat="44.99112642239463" lon="13.742742966932944"><ele>17.0</ele><time>2026-05-01T11:21:50.999Z</time></trkpt><trkpt lat="44.99109581796494" lon="13.74283934680049"><ele>17.0</ele><time>2026-05-01T11:21:51.999Z</time></trkpt><trkpt lat="44.991103225432404" lon="13.742938084454702"><ele>17.0</ele><time>2026-05-01T11:21:52.999Z</time></trkpt><trkpt lat="44.99114576180132" lon="13.743026859516272"><ele>17.0</ele><time>2026-05-01T11:21:53.999Z</time></trkpt><trkpt lat="44.99122157731943" lon="13.74307763511894"><ele>17.0</ele><time>2026-05-01T11:21:54.999Z</time></trkpt><trkpt lat="44.99128624464771" lon="13.743138853419032"><ele>17.0</ele><time>2026-05-01T11:21:55.999Z</time></trkpt><trkpt lat="44.99135162078721" lon="13.743203143245337"><ele>17.0</ele><time>2026-05-01T11:21:56.999Z</time></trkpt><trkpt lat="44.99141822891101" lon="13.743262158010086"><ele>17.0</ele><time>2026-05-01T11:21:57.999Z</time></trkpt><trkpt lat="44.991475125541804" lon="13.743316865081626"><ele>17.0</ele><time>2026-05-01T11:21:58.999Z</time></trkpt><trkpt lat="44.99152823486359" lon="13.743369046907175"><ele>17.0</ele><time>2026-05-01T11:21:59.999Z</time></trkpt><trkpt lat="44.99161333904905" lon="13.743450478831358"><ele>17.0</ele><time>2026-05-01T11:22:01.999Z</time></trkpt><trkpt lat="44.99165581153476" lon="13.743585125392054"><ele>17.0</ele><time>2026-05-01T11:22:03.999Z</time></trkpt><trkpt lat="44.99161011333821" lon="13.743763419425404"><ele>17.0</ele><time>2026-05-01T11:22:05.999Z</time></trkpt><trkpt lat="44.99158298373217" lon="13.743866208647157"><ele>17.0</ele><time>2026-05-01T11:22:06.999Z</time></trkpt><trkpt lat="44.991566050171635" lon="13.743974937491778"><ele>17.0</ele><time>2026-05-01T11:22:07.999Z</time></trkpt><trkpt lat="44.99154255138764" lon="13.744090779326502"><ele>17.0</ele><time>2026-05-01T11:22:08.999Z</time></trkpt><trkpt lat="44.99151011896022" lon="13.744211317677099"><ele>17.0</ele><time>2026-05-01T11:22:09.999Z</time></trkpt><trkpt lat="44.99146598293771" lon="13.744312499380992"><ele>17.0</ele><time>2026-05-01T11:22:10.999Z</time></trkpt><trkpt lat="44.99141303598615" lon="13.744417871847169"><ele>17.0</ele><time>2026-05-01T11:22:11.999Z</time></trkpt><trkpt lat="44.991360641927365" lon="13.744525774640618"><ele>17.0</ele><time>2026-05-01T11:22:12.999Z</time></trkpt><trkpt lat="44.99131402148114" lon="13.744625232093396"><ele>17.0</ele><time>2026-05-01T11:22:13.999Z</time></trkpt><trkpt lat="44.99125587303448" lon="13.74473910249242"><ele>17.4</ele><time>2026-05-01T11:22:14.999Z</time></trkpt><trkpt lat="44.991192679074615" lon="13.744861448081682"><ele>17.799999999999997</ele><time>2026-05-01T11:22:15.999Z</time></trkpt><trkpt lat="44.9911321560918" lon="13.744968712571819"><ele>18.2</ele><time>2026-05-01T11:22:16.999Z</time></trkpt><trkpt lat="44.991075267027774" lon="13.745080581721297"><ele>18.599999999999998</ele><time>2026-05-01T11:22:17.999Z</time></trkpt><trkpt lat="44.991013883564314" lon="13.745207874136991"><ele>19.0</ele><time>2026-05-01T11:22:18.999Z</time></trkpt><trkpt lat="44.99095463072629" lon="13.74532712976034"><ele>19.2</ele><time>2026-05-01T11:22:19.999Z</time></trkpt><trkpt lat="44.99089518946802" lon="13.745450540032559"><ele>19.4</ele><time>2026-05-01T11:22:20.999Z</time></trkpt><trkpt lat="44.99083743538152" lon="13.745580828765654"><ele>19.6</ele><time>2026-05-01T11:22:21.999Z</time></trkpt><trkpt lat="44.990778011913264" lon="13.745718374797915"><ele>19.8</ele><time>2026-05-01T11:22:22.999Z</time></trkpt><trkpt lat="44.990715954570526" lon="13.74586413426022"><ele>20.0</ele><time>2026-05-01T11:22:23.999Z</time></trkpt><trkpt lat="44.990648832984974" lon="13.74601293893329"><ele>20.5</ele><time>2026-05-01T11:22:24.999Z</time></trkpt><trkpt lat="44.99057385328205" lon="13.746173319733646"><ele>21.0</ele><time>2026-05-01T11:22:25.999Z</time></trkpt><trkpt lat="44.990511044581574" lon="13.746344743847475"><ele>21.5</ele><time>2026-05-01T11:22:26.999Z</time></trkpt><trkpt lat="44.99045918284602" lon="13.746533632369848"><ele>22.0</ele><time>2026-05-01T11:22:27.999Z</time></trkpt><trkpt lat="44.990415152528335" lon="13.746744118361619"><ele>23.0</ele><time>2026-05-01T11:22:28.999Z</time></trkpt><trkpt lat="44.99035686272753" lon="13.746966629672064"><ele>24.0</ele><time>2026-05-01T11:22:29.999Z</time></trkpt><trkpt lat="44.99028811484719" lon="13.747221373919086"><ele>25.0</ele><time>2026-05-01T11:22:31Z</time></trkpt><trkpt lat="44.99020255458847" lon="13.747514427066289"><ele>24.333333333333336</ele><time>2026-05-01T11:22:32Z</time></trkpt><trkpt lat="44.9901156159687" lon="13.747792556917629"><ele>23.666666666666668</ele><time>2026-05-01T11:22:33Z</time></trkpt><trkpt lat="44.990049390390965" lon="13.748035937888178"><ele>23.0</ele><time>2026-05-01T11:22:34Z</time></trkpt><trkpt lat="44.989993701499955" lon="13.748268200362531"><ele>22.666666666666668</ele><time>2026-05-01T11:22:35Z</time></trkpt><trkpt lat="44.98993991669068" lon="13.74847986566251"><ele>22.333333333333332</ele><time>2026-05-01T11:22:36Z</time></trkpt><trkpt lat="44.98988966137954" lon="13.748672772717875"><ele>22.0</ele><time>2026-05-01T11:22:37Z</time></trkpt><trkpt lat="44.98983929769571" lon="13.748870805383516"><ele>22.0</ele><time>2026-05-01T11:22:38Z</time></trkpt><trkpt lat="44.989792862747144" lon="13.749061484856899"><ele>22.0</ele><time>2026-05-01T11:22:39Z</time></trkpt><trkpt lat="44.989750261891416" lon="13.749236807332043"><ele>22.0</ele><time>2026-05-01T11:22:40Z</time></trkpt><trkpt lat="44.98970965817961" lon="13.749400920184106"><ele>22.0</ele><time>2026-05-01T11:22:41Z</time></trkpt><trkpt lat="44.98967127571239" lon="13.74957034040087"><ele>22.0</ele><time>2026-05-01T11:22:42Z</time></trkpt><trkpt lat="44.98963390643127" lon="13.74973109196908"><ele>22.0</ele><time>2026-05-01T11:22:43Z</time></trkpt><trkpt lat="44.98960033797666" lon="13.74988985826525"><ele>22.0</ele><time>2026-05-01T11:22:44Z</time></trkpt><trkpt lat="44.98956883767708" lon="13.750055707620904"><ele>22.0</ele><time>2026-05-01T11:22:45Z</time></trkpt><trkpt lat="44.9895292684739" lon="13.750225254128955"><ele>22.5</ele><time>2026-05-01T11:22:46Z</time></trkpt><trkpt lat="44.989492455992284" lon="13.750394137793634"><ele>23.0</ele><time>2026-05-01T11:22:47Z</time></trkpt><trkpt lat="44.9894586635116" lon="13.750557614428006"><ele>23.5</ele><time>2026-05-01T11:22:48Z</time></trkpt><trkpt lat="44.98942380061184" lon="13.750726821833542"><ele>24.0</ele><time>2026-05-01T11:22:49Z</time></trkpt><trkpt lat="44.989388019412914" lon="13.750895050882143"><ele>23.5</ele><time>2026-05-01T11:22:50Z</time></trkpt><trkpt lat="44.989357699755246" lon="13.751053286078182"><ele>23.0</ele><time>2026-05-01T11:22:51Z</time></trkpt><trkpt lat="44.98932395055969" lon="13.751213551801566"><ele>22.5</ele><time>2026-05-01T11:22:52Z</time></trkpt><trkpt lat="44.98928751048399" lon="13.751375644305044"><ele>22.0</ele><time>2026-05-01T11:22:53Z</time></trkpt><trkpt lat="44.9892509380606" lon="13.751536637138159"><ele>22.0</ele><time>2026-05-01T11:22:54Z</time></trkpt><trkpt lat="44.9892177294693" lon="13.751685070195686"><ele>22.0</ele><time>2026-05-01T11:22:55Z</time></trkpt><trkpt lat="44.98918651124157" lon="13.751831857713826"><ele>22.0</ele><time>2026-05-01T11:22:56Z</time></trkpt><trkpt lat="44.98915489090536" lon="13.751972879467237"><ele>22.0</ele><time>2026-05-01T11:22:57Z</time></trkpt><trkpt lat="44.98912354163076" lon="13.752120023430225"><ele>22.0</ele><time>2026-05-01T11:22:58Z</time></trkpt><trkpt lat="44.98908960809697" lon="13.752275620711591"><ele>21.0</ele><time>2026-05-01T11:22:59Z</time></trkpt><trkpt lat="44.9890547229903" lon="13.752431563828356"><ele>20.0</ele><time>2026-05-01T11:23:00Z</time></trkpt><trkpt lat="44.98902110694363" lon="13.752594147299744"><ele>19.0</ele><time>2026-05-01T11:23:01Z</time></trkpt><trkpt lat="44.988987331856755" lon="13.752748514965203"><ele>18.0</ele><time>2026-05-01T11:23:02Z</time></trkpt><trkpt lat="44.98895452128149" lon="13.752898900264183"><ele>17.6</ele><time>2026-05-01T11:23:03Z</time></trkpt><trkpt lat="44.98892261663785" lon="13.753042629331924"><ele>17.200000000000003</ele><time>2026-05-01T11:23:04Z</time></trkpt><trkpt lat="44.98889024812829" lon="13.75318569704341"><ele>16.8</ele><time>2026-05-01T11:23:05Z</time></trkpt><trkpt lat="44.98886192733673" lon="13.7533198936149"><ele>16.400000000000002</ele><time>2026-05-01T11:23:06Z</time></trkpt><trkpt lat="44.9888331421136" lon="13.753449064135564"><ele>16.0</ele><time>2026-05-01T11:23:07Z</time></trkpt><trkpt lat="44.9888056087463" lon="13.753572127213934"><ele>15.999999999999998</ele><time>2026-05-01T11:23:08Z</time></trkpt><trkpt lat="44.98878416730477" lon="13.753685235848423"><ele>16.0</ele><time>2026-05-01T11:23:09Z</time></trkpt><trkpt lat="44.988759644209544" lon="13.75379374378527"><ele>16.0</ele><time>2026-05-01T11:23:10Z</time></trkpt><trkpt lat="44.98873977243575" lon="13.7538924566393"><ele>16.0</ele><time>2026-05-01T11:23:11Z</time></trkpt><trkpt lat="44.98872040633571" lon="13.753982655076944"><ele>15.999999999999998</ele><time>2026-05-01T11:23:12Z</time></trkpt><trkpt lat="44.98870147902096" lon="13.754088977278457"><ele>16.0</ele><time>2026-05-01T11:23:13Z</time></trkpt><trkpt lat="44.98868278567118" lon="13.75419676151891"><ele>16.0</ele><time>2026-05-01T11:23:14Z</time></trkpt><trkpt lat="44.98866388195136" lon="13.754295235701228"><ele>16.0</ele><time>2026-05-01T11:23:15Z</time></trkpt><trkpt lat="44.988631467111055" lon="13.754451158989848"><ele>16.0</ele><time>2026-05-01T11:23:17Z</time></trkpt><trkpt lat="44.98860578815725" lon="13.754590180097296"><ele>16.0</ele><time>2026-05-01T11:23:19Z</time></trkpt><trkpt lat="44.98857795249532" lon="13.75473575844633"><ele>16.0</ele><time>2026-05-01T11:23:21Z</time></trkpt><trkpt lat="44.988543936045524" lon="13.754891483702384"><ele>15.600000000000001</ele><time>2026-05-01T11:23:23Z</time></trkpt><trkpt lat="44.98852508528331" lon="13.755036789974424"><ele>15.200000000000001</ele><time>2026-05-01T11:23:25Z</time></trkpt><trkpt lat="44.98850702243479" lon="13.755165403632882"><ele>14.799999999999999</ele><time>2026-05-01T11:23:27Z</time></trkpt><trkpt lat="44.98847571085619" lon="13.755297968871936"><ele>14.399999999999999</ele><time>2026-05-01T11:23:29Z</time></trkpt><trkpt lat="44.9884339046306" lon="13.755419304070777"><ele>14.0</ele><time>2026-05-01T11:23:31Z</time></trkpt><trkpt lat="44.988389751496484" lon="13.755512896142566"><ele>13.000000000000002</ele><time>2026-05-01T11:23:32.999Z</time></trkpt><trkpt lat="44.98832287065645" lon="13.755573574827023"><ele>12.0</ele><time>2026-05-01T11:23:34.999Z</time></trkpt><trkpt lat="44.98825315117081" lon="13.755609029705118"><ele>11.0</ele><time>2026-05-01T11:23:36.999Z</time></trkpt><trkpt lat="44.98819202382006" lon="13.755688053912571"><ele>10.0</ele><time>2026-05-01T11:23:38.999Z</time></trkpt><trkpt lat="44.9881699867373" lon="13.755820999555548"><ele>9.0</ele><time>2026-05-01T11:23:40.999Z</time></trkpt><trkpt lat="44.9881909472766" lon="13.755942024746123"><ele>8.0</ele><time>2026-05-01T11:23:42.999Z</time></trkpt><trkpt lat="44.98821147746958" lon="13.756056171658422"><ele>7.666666666666666</ele><time>2026-05-01T11:23:44.999Z</time></trkpt><trkpt lat="44.98816652603467" lon="13.75620695212963"><ele>7.333333333333333</ele><time>2026-05-01T11:23:46.999Z</time></trkpt><trkpt lat="44.98812958028605" lon="13.756309938828718"><ele>7.0</ele><time>2026-05-01T11:23:47.999Z</time></trkpt><trkpt lat="44.988092421082506" lon="13.75642526094688"><ele>6.666666666666666</ele><time>2026-05-01T11:23:48.999Z</time></trkpt><trkpt lat="44.98804954959795" lon="13.756525308360018"><ele>6.333333333333333</ele><time>2026-05-01T11:23:49.999Z</time></trkpt><trkpt lat="44.98801292061677" lon="13.756622351519376"><ele>6.0</ele><time>2026-05-01T11:23:50.999Z</time></trkpt><trkpt lat="44.98796977191981" lon="13.756734649193456"><ele>6.0</ele><time>2026-05-01T11:23:51.999Z</time></trkpt><trkpt lat="44.98792635828874" lon="13.756841458807575"><ele>6.0</ele><time>2026-05-01T11:23:52.999Z</time></trkpt><trkpt lat="44.98788444501355" lon="13.756947752417384"><ele>6.0</ele><time>2026-05-01T11:23:53.999Z</time></trkpt><trkpt lat="44.987838788501556" lon="13.757050343323181"><ele>6.0</ele><time>2026-05-01T11:23:54.999Z</time></trkpt><trkpt lat="44.98780084596433" lon="13.757136895841505"><ele>6.0</ele><time>2026-05-01T11:23:55.999Z</time></trkpt><trkpt lat="44.987768252710445" lon="13.75722812159357"><ele>6.0</ele><time>2026-05-01T11:23:56.999Z</time></trkpt><trkpt lat="44.98773074535235" lon="13.757304495830079"><ele>5.857142857142857</ele><time>2026-05-01T11:23:57.999Z</time></trkpt><trkpt lat="44.9876916913227" lon="13.757381307866119"><ele>5.714285714285714</ele><time>2026-05-01T11:23:58.999Z</time></trkpt><trkpt lat="44.98765049616415" lon="13.757454836580928"><ele>5.571428571428571</ele><time>2026-05-01T11:23:59.999Z</time></trkpt><trkpt lat="44.987610408251385" lon="13.757531459334675"><ele>5.428571428571429</ele><time>2026-05-01T11:24:00.999Z</time></trkpt><trkpt lat="44.9875663090854" lon="13.757611584800683"><ele>5.285714285714286</ele><time>2026-05-01T11:24:01.999Z</time></trkpt><trkpt lat="44.98752070838589" lon="13.757700652018766"><ele>5.142857142857142</ele><time>2026-05-01T11:24:02.999Z</time></trkpt><trkpt lat="44.98747370781241" lon="13.757778812998271"><ele>5.0</ele><time>2026-05-01T11:24:03.999Z</time></trkpt><trkpt lat="44.98743130271183" lon="13.757876176882812"><ele>5.0</ele><time>2026-05-01T11:24:04.999Z</time></trkpt><trkpt lat="44.98738546713149" lon="13.757966119901022"><ele>5.0</ele><time>2026-05-01T11:24:05.999Z</time></trkpt><trkpt lat="44.98732956615675" lon="13.758058433034867"><ele>5.0</ele><time>2026-05-01T11:24:06.999Z</time></trkpt><trkpt lat="44.98728611220793" lon="13.758151761012591"><ele>5.0</ele><time>2026-05-01T11:24:07.999Z</time></trkpt><trkpt lat="44.987245676639766" lon="13.758256643506868"><ele>5.0</ele><time>2026-05-01T11:24:08.999Z</time></trkpt><trkpt lat="44.98721182238376" lon="13.758353591293945"><ele>5.0</ele><time>2026-05-01T11:24:09.999Z</time></trkpt><trkpt lat="44.98718461652547" lon="13.7584562689721"><ele>5.166666666666667</ele><time>2026-05-01T11:24:10.999Z</time></trkpt><trkpt lat="44.98715830532297" lon="13.758554687262592"><ele>5.333333333333334</ele><time>2026-05-01T11:24:11.999Z</time></trkpt><trkpt lat="44.987131990658135" lon="13.758653687540779"><ele>5.5</ele><time>2026-05-01T11:24:12.999Z</time></trkpt><trkpt lat="44.98710222589722" lon="13.758764460384324"><ele>5.666666666666667</ele><time>2026-05-01T11:24:13.999Z</time></trkpt><trkpt lat="44.98706582878686" lon="13.75886165941436"><ele>5.833333333333333</ele><time>2026-05-01T11:24:14.999Z</time></trkpt><trkpt lat="44.98703221074012" lon="13.758949253001022"><ele>6.0</ele><time>2026-05-01T11:24:15.999Z</time></trkpt><trkpt lat="44.98699791973194" lon="13.759050354272363"><ele>6.0</ele><time>2026-05-01T11:24:16.999Z</time></trkpt><trkpt lat="44.986963125429575" lon="13.759155917512173"><ele>6.0</ele><time>2026-05-01T11:24:17.999Z</time></trkpt><trkpt lat="44.98693236715194" lon="13.759270289558469"><ele>6.0</ele><time>2026-05-01T11:24:18.999Z</time></trkpt><trkpt lat="44.98690927020123" lon="13.759390860387548"><ele>6.0</ele><time>2026-05-01T11:24:19.999Z</time></trkpt><trkpt lat="44.986883895294554" lon="13.759500771666984"><ele>6.0</ele><time>2026-05-01T11:24:20.999Z</time></trkpt><trkpt lat="44.98685418404235" lon="13.75960676566715"><ele>6.0</ele><time>2026-05-01T11:24:21.999Z</time></trkpt><trkpt lat="44.98682071777845" lon="13.759714074361531"><ele>6.333333333333333</ele><time>2026-05-01T11:24:22.999Z</time></trkpt><trkpt lat="44.98678425625458" lon="13.759815458926914"><ele>6.666666666666666</ele><time>2026-05-01T11:24:23.999Z</time></trkpt><trkpt lat="44.98674947112901" lon="13.759922118871012"><ele>7.0</ele><time>2026-05-01T11:24:24.999Z</time></trkpt><trkpt lat="44.986711568430714" lon="13.760028705639884"><ele>7.333333333333333</ele><time>2026-05-01T11:24:25.999Z</time></trkpt><trkpt lat="44.986681778927526" lon="13.760138985019118"><ele>7.666666666666666</ele><time>2026-05-01T11:24:26.999Z</time></trkpt><trkpt lat="44.98665183638686" lon="13.760244065333767"><ele>8.0</ele><time>2026-05-01T11:24:27.999Z</time></trkpt><trkpt lat="44.98662016967095" lon="13.760339250679268"><ele>7.333333333333333</ele><time>2026-05-01T11:24:28.999Z</time></trkpt><trkpt lat="44.98658744170249" lon="13.760438451070842"><ele>6.666666666666666</ele><time>2026-05-01T11:24:29.999Z</time></trkpt><trkpt lat="44.98655669206332" lon="13.760529584827713"><ele>6.0</ele><time>2026-05-01T11:24:30.999Z</time></trkpt><trkpt lat="44.98652418707663" lon="13.76062823179214"><ele>5.333333333333333</ele><time>2026-05-01T11:24:31.999Z</time></trkpt><trkpt lat="44.98649512066509" lon="13.760727024370285"><ele>4.666666666666666</ele><time>2026-05-01T11:24:32.999Z</time></trkpt><trkpt lat="44.98646614739565" lon="13.76083654609082"><ele>4.0</ele><time>2026-05-01T11:24:33.999Z</time></trkpt><trkpt lat="44.986440001970315" lon="13.760946518951183"><ele>4.428571428571429</ele><time>2026-05-01T11:24:34.999Z</time></trkpt><trkpt lat="44.98641470155557" lon="13.761058414492277"><ele>4.857142857142857</ele><time>2026-05-01T11:24:35.999Z</time></trkpt><trkpt lat="44.986402349530955" lon="13.761157929468165"><ele>5.285714285714286</ele><time>2026-05-01T11:24:37Z</time></trkpt><trkpt lat="44.986375240357965" lon="13.761254597574366"><ele>5.714285714285714</ele><time>2026-05-01T11:24:38Z</time></trkpt><trkpt lat="44.98634948602427" lon="13.761352878497352"><ele>6.142857142857142</ele><time>2026-05-01T11:24:39Z</time></trkpt><trkpt lat="44.986330894267624" lon="13.76144657975239"><ele>6.571428571428571</ele><time>2026-05-01T11:24:40Z</time></trkpt><trkpt lat="44.98630977808161" lon="13.761549384111026"><ele>7.0</ele><time>2026-05-01T11:24:41Z</time></trkpt><trkpt lat="44.98628953420977" lon="13.761647029360388"><ele>7.0</ele><time>2026-05-01T11:24:42Z</time></trkpt><trkpt lat="44.98627745642073" lon="13.761743807552248"><ele>7.0</ele><time>2026-05-01T11:24:43Z</time></trkpt><trkpt lat="44.98626413259248" lon="13.761838055622363"><ele>7.0</ele><time>2026-05-01T11:24:44Z</time></trkpt><trkpt lat="44.98624968676596" lon="13.761936925860995"><ele>7.0</ele><time>2026-05-01T11:24:45Z</time></trkpt><trkpt lat="44.98623191333765" lon="13.762043034584808"><ele>7.0</ele><time>2026-05-01T11:24:46Z</time></trkpt><trkpt lat="44.986209928385186" lon="13.762149385123505"><ele>7.0</ele><time>2026-05-01T11:24:47Z</time></trkpt><trkpt lat="44.986191401073526" lon="13.76225952852537"><ele>7.0</ele><time>2026-05-01T11:24:48Z</time></trkpt><trkpt lat="44.98617165968007" lon="13.762368525385362"><ele>7.000000000000001</ele><time>2026-05-01T11:24:49Z</time></trkpt><trkpt lat="44.986156638582614" lon="13.76247556915309"><ele>7.0</ele><time>2026-05-01T11:24:50Z</time></trkpt><trkpt lat="44.986144085212906" lon="13.762583861173418"><ele>7.0</ele><time>2026-05-01T11:24:51Z</time></trkpt><trkpt lat="44.98614443405319" lon="13.762690495016278"><ele>7.0</ele><time>2026-05-01T11:24:52Z</time></trkpt><trkpt lat="44.98613824757969" lon="13.762807405980578"><ele>7.000000000000001</ele><time>2026-05-01T11:24:53Z</time></trkpt><trkpt lat="44.98613522566711" lon="13.762923393217282"><ele>7.0</ele><time>2026-05-01T11:24:54Z</time></trkpt><trkpt lat="44.986143290520914" lon="13.763032003211144"><ele>6.666666666666667</ele><time>2026-05-01T11:24:55Z</time></trkpt><trkpt lat="44.986154957809674" lon="13.763144954701911"><ele>6.333333333333334</ele><time>2026-05-01T11:24:56Z</time></trkpt><trkpt lat="44.98616725187734" lon="13.76324660396009"><ele>6.0</ele><time>2026-05-01T11:24:57Z</time></trkpt><trkpt lat="44.98618515050628" lon="13.763353478103875"><ele>5.666666666666667</ele><time>2026-05-01T11:24:58Z</time></trkpt><trkpt lat="44.98619448666374" lon="13.763467499871231"><ele>5.333333333333334</ele><time>2026-05-01T11:24:59Z</time></trkpt><trkpt lat="44.986189801940256" lon="13.763581912944371"><ele>5.0</ele><time>2026-05-01T11:25:00Z</time></trkpt><trkpt lat="44.98618148763838" lon="13.763688446011821"><ele>5.0</ele><time>2026-05-01T11:25:01Z</time></trkpt><trkpt lat="44.98617167425024" lon="13.763785195764985"><ele>5.0</ele><time>2026-05-01T11:25:02Z</time></trkpt><trkpt lat="44.98614674067822" lon="13.763959372224074"><ele>5.0</ele><time>2026-05-01T11:25:04Z</time></trkpt><trkpt lat="44.986112279792394" lon="13.764045376769467"><ele>5.0</ele><time>2026-05-01T11:25:05Z</time></trkpt><trkpt lat="44.98606481867331" lon="13.764131349976788"><ele>5.0</ele><time>2026-05-01T11:25:06Z</time></trkpt><trkpt lat="44.9860158280949" lon="13.764197471358132"><ele>5.0</ele><time>2026-05-01T11:25:07Z</time></trkpt><trkpt lat="44.98591737368851" lon="13.764295746434177"><ele>4.833333333333334</ele><time>2026-05-01T11:25:09Z</time></trkpt><trkpt lat="44.98581972869273" lon="13.764337325291976"><ele>4.666666666666667</ele><time>2026-05-01T11:25:11Z</time></trkpt><trkpt lat="44.985765451203505" lon="13.764414725098131"><ele>4.5</ele><time>2026-05-01T11:25:13Z</time></trkpt><trkpt lat="44.98573512820501" lon="13.76453189603295"><ele>4.333333333333333</ele><time>2026-05-01T11:25:15Z</time></trkpt><trkpt lat="44.98569469478567" lon="13.764622683496636"><ele>4.166666666666666</ele><time>2026-05-01T11:25:17Z</time></trkpt><trkpt lat="44.98567142091247" lon="13.764732290970496"><ele>4.0</ele><time>2026-05-01T11:25:19Z</time></trkpt><trkpt lat="44.98564476391247" lon="13.764832612386341"><ele>4.714285714285714</ele><time>2026-05-01T11:25:20.999Z</time></trkpt><trkpt lat="44.98559980356703" lon="13.764947527342438"><ele>5.428571428571429</ele><time>2026-05-01T11:25:23.999Z</time></trkpt><trkpt lat="44.9855655136601" lon="13.765032727618074"><ele>6.142857142857143</ele><time>2026-05-01T11:25:26.999Z</time></trkpt><trkpt lat="44.985522911097455" lon="13.765113548505058"><ele>6.857142857142858</ele><time>2026-05-01T11:25:29.999Z</time></trkpt><trkpt lat="44.985516461651095" lon="13.765225517682456"><ele>7.571428571428571</ele><time>2026-05-01T11:25:31.999Z</time></trkpt><trkpt lat="44.985501115294994" lon="13.765314057333292"><ele>8.285714285714286</ele><time>2026-05-01T11:25:33.999Z</time></trkpt><trkpt lat="44.98548875279506" lon="13.765407016363064"><ele>9.0</ele><time>2026-05-01T11:25:35.999Z</time></trkpt><trkpt lat="44.985485858419416" lon="13.765545303626071"><ele>9.666666666666666</ele><time>2026-05-01T11:25:38.999Z</time></trkpt><trkpt lat="44.98549339094124" lon="13.765639711396785"><ele>10.333333333333332</ele><time>2026-05-01T11:25:40.999Z</time></trkpt><trkpt lat="44.98551636894008" lon="13.765767706746141"><ele>11.0</ele><time>2026-05-01T11:25:43.999Z</time></trkpt><trkpt lat="44.98553671981128" lon="13.765854763135263"><ele>11.666666666666666</ele><time>2026-05-01T11:25:45.999Z</time></trkpt><trkpt lat="44.98556819653088" lon="13.765954817022392"><ele>12.333333333333332</ele><time>2026-05-01T11:25:47.999Z</time></trkpt><trkpt lat="44.98557799119" lon="13.766045820046314"><ele>13.0</ele><time>2026-05-01T11:25:49.999Z</time></trkpt><trkpt lat="44.9855456088414" lon="13.766153441585113"><ele>13.499999999999998</ele><time>2026-05-01T11:25:51.999Z</time></trkpt><trkpt lat="44.98553019821615" lon="13.766255906863222"><ele>14.0</ele><time>2026-05-01T11:25:53.999Z</time></trkpt><trkpt lat="44.98551094162818" lon="13.766343924639674"><ele>14.5</ele><time>2026-05-01T11:25:55.999Z</time></trkpt><trkpt lat="44.98549131259098" lon="13.766459795376543"><ele>15.0</ele><time>2026-05-01T11:25:57.999Z</time></trkpt><trkpt lat="44.98549364524145" lon="13.766587858919939"><ele>15.499999999999998</ele><time>2026-05-01T11:25:59.999Z</time></trkpt><trkpt lat="44.98549537249306" lon="13.766725329241119"><ele>16.0</ele><time>2026-05-01T11:26:02.999Z</time></trkpt><trkpt lat="44.985533916867766" lon="13.766806007298465"><ele>16.333333333333332</ele><time>2026-05-01T11:26:04.999Z</time></trkpt><trkpt lat="44.98561765660577" lon="13.766868474576535"><ele>16.666666666666664</ele><time>2026-05-01T11:26:07.999Z</time></trkpt><trkpt lat="44.98563692373582" lon="13.76696254996852"><ele>17.0</ele><time>2026-05-01T11:26:09.999Z</time></trkpt><trkpt lat="44.98561714744608" lon="13.767061509492848"><ele>17.333333333333332</ele><time>2026-05-01T11:26:11.999Z</time></trkpt><trkpt lat="44.98559510530518" lon="13.767149612181157"><ele>17.666666666666668</ele><time>2026-05-01T11:26:16.999Z</time></trkpt><trkpt lat="44.98555257299262" lon="13.767293209056916"><ele>18.0</ele><time>2026-05-01T11:26:18.999Z</time></trkpt><trkpt lat="44.985530054672" lon="13.767376857646957"><ele>18.000000000000004</ele><time>2026-05-01T11:26:20.999Z</time></trkpt><trkpt lat="44.985502623190705" lon="13.767467934388154"><ele>18.0</ele><time>2026-05-01T11:26:22.999Z</time></trkpt><trkpt lat="44.985463833894755" lon="13.767554862434181"><ele>18.0</ele><time>2026-05-01T11:26:25.999Z</time></trkpt><trkpt lat="44.985437780302036" lon="13.76763826476096"><ele>18.0</ele><time>2026-05-01T11:26:28.999Z</time></trkpt><trkpt lat="44.98540659631814" lon="13.767726634043068"><ele>18.0</ele><time>2026-05-01T11:26:31.998Z</time></trkpt><trkpt lat="44.98539961774704" lon="13.767815342876483"><ele>18.000000000000004</ele><time>2026-05-01T11:26:33.998Z</time></trkpt><trkpt lat="44.98538310897943" lon="13.767913928830344"><ele>18.0</ele><time>2026-05-01T11:26:35.998Z</time></trkpt><trkpt lat="44.98535671885264" lon="13.768028319649748"><ele>18.42857142857143</ele><time>2026-05-01T11:26:38.998Z</time></trkpt><trkpt lat="44.98533789252874" lon="13.768121845823165"><ele>18.857142857142858</ele><time>2026-05-01T11:26:40.998Z</time></trkpt><trkpt lat="44.98531038057167" lon="13.76820238258035"><ele>19.285714285714285</ele><time>2026-05-01T11:26:43Z</time></trkpt><trkpt lat="44.98528561747303" lon="13.768291700839491"><ele>19.714285714285715</ele><time>2026-05-01T11:26:45Z</time></trkpt><trkpt lat="44.98525161181187" lon="13.768407105237616"><ele>20.142857142857142</ele><time>2026-05-01T11:26:48Z</time></trkpt><trkpt lat="44.985219333397986" lon="13.768487602659363"><ele>20.571428571428573</ele><time>2026-05-01T11:26:50Z</time></trkpt><trkpt lat="44.985192022432045" lon="13.768579245144826"><ele>21.0</ele><time>2026-05-01T11:26:52Z</time></trkpt><trkpt lat="44.98517959477169" lon="13.768670376380483"><ele>21.333333333333332</ele><time>2026-05-01T11:26:54Z</time></trkpt><trkpt lat="44.985160309632306" lon="13.768755643781866"><ele>21.666666666666668</ele><time>2026-05-01T11:26:56Z</time></trkpt><trkpt lat="44.98512980477026" lon="13.768881685029314"><ele>22.0</ele><time>2026-05-01T11:26:59Z</time></trkpt><trkpt lat="44.98510157228788" lon="13.769001846641675"><ele>22.333333333333336</ele><time>2026-05-01T11:27:02Z</time></trkpt><trkpt lat="44.985063004452606" lon="13.769113716482428"><ele>22.666666666666668</ele><time>2026-05-01T11:27:05Z</time></trkpt><trkpt lat="44.98502987897541" lon="13.76922670102417"><ele>23.0</ele><time>2026-05-01T11:27:08Z</time></trkpt><trkpt lat="44.98498504317994" lon="13.769350456691972"><ele>23.833333333333336</ele><time>2026-05-01T11:27:10.999Z</time></trkpt><trkpt lat="44.98496662189673" lon="13.769440500092124"><ele>24.666666666666668</ele><time>2026-05-01T11:27:12.999Z</time></trkpt><trkpt lat="44.9849504233139" lon="13.769566966221086"><ele>25.5</ele><time>2026-05-01T11:27:15.999Z</time></trkpt><trkpt lat="44.98491597042996" lon="13.769687136098845"><ele>26.333333333333336</ele><time>2026-05-01T11:27:18.999Z</time></trkpt><trkpt lat="44.98487258831767" lon="13.769789222052045"><ele>27.166666666666668</ele><time>2026-05-01T11:27:21.999Z</time></trkpt><trkpt lat="44.98485698947861" lon="13.769876875677387"><ele>28.0</ele><time>2026-05-01T11:27:26.999Z</time></trkpt><trkpt lat="44.984827431639474" lon="13.769986594915002"><ele>28.0</ele><time>2026-05-01T11:28:06.999Z</time></trkpt><trkpt lat="44.984813442822606" lon="13.770075219952295"><ele>27.999999999999996</ele><time>2026-05-01T11:28:07.999Z</time></trkpt><trkpt lat="44.984768996602895" lon="13.770201509035111"><ele>27.999999999999996</ele><time>2026-05-01T11:28:09.999Z</time></trkpt><trkpt lat="44.98467248526388" lon="13.770301183788137"><ele>28.0</ele><time>2026-05-01T11:28:11.999Z</time></trkpt><trkpt lat="44.984586165266535" lon="13.770402879279649"><ele>28.0</ele><time>2026-05-01T11:28:13.999Z</time></trkpt><trkpt lat="44.98453290883188" lon="13.770557136792918"><ele>28.799999999999997</ele><time>2026-05-01T11:28:15.999Z</time></trkpt><trkpt lat="44.9844940579311" lon="13.770689948607123"><ele>29.599999999999998</ele><time>2026-05-01T11:28:17.999Z</time></trkpt><trkpt lat="44.98446076563092" lon="13.77082429217396"><ele>30.400000000000002</ele><time>2026-05-01T11:28:19.999Z</time></trkpt><trkpt lat="44.98443311510664" lon="13.770977712539974"><ele>31.200000000000003</ele><time>2026-05-01T11:28:21.999Z</time></trkpt><trkpt lat="44.984423954895" lon="13.771067986336714"><ele>32.0</ele><time>2026-05-01T11:28:22.999Z</time></trkpt><trkpt lat="44.984395104878935" lon="13.771222104987576"><ele>32.25</ele><time>2026-05-01T11:28:24.999Z</time></trkpt><trkpt lat="44.98437063694045" lon="13.771370166329806"><ele>32.5</ele><time>2026-05-01T11:28:26.998Z</time></trkpt><trkpt lat="44.9843256975006" lon="13.771522057485333"><ele>32.75</ele><time>2026-05-01T11:28:28.998Z</time></trkpt><trkpt lat="44.98427861253767" lon="13.771662885789079"><ele>33.0</ele><time>2026-05-01T11:28:30.998Z</time></trkpt><trkpt lat="44.98421929899365" lon="13.77181922428313"><ele>33.166666666666664</ele><time>2026-05-01T11:28:32.998Z</time></trkpt><trkpt lat="44.98419040011883" lon="13.771903265677478"><ele>33.333333333333336</ele><time>2026-05-01T11:28:33.998Z</time></trkpt><trkpt lat="44.984163089780246" lon="13.771985965253512"><ele>33.5</ele><time>2026-05-01T11:28:34.998Z</time></trkpt><trkpt lat="44.98414055649341" lon="13.772070853605998"><ele>33.66666666666667</ele><time>2026-05-01T11:28:35.998Z</time></trkpt><trkpt lat="44.98410163108351" lon="13.772223880961477"><ele>33.833333333333336</ele><time>2026-05-01T11:28:37.998Z</time></trkpt><trkpt lat="44.98406828801109" lon="13.772346527144936"><ele>34.0</ele><time>2026-05-01T11:28:39.998Z</time></trkpt><trkpt lat="44.98402271875023" lon="13.772446375448123"><ele>33.4</ele><time>2026-05-01T11:28:41.998Z</time></trkpt><trkpt lat="44.98399971895659" lon="13.772540955828417"><ele>32.8</ele><time>2026-05-01T11:28:43.998Z</time></trkpt><trkpt lat="44.98398067172464" lon="13.772649234666575"><ele>32.2</ele><time>2026-05-01T11:28:45.998Z</time></trkpt><trkpt lat="44.98395283795675" lon="13.772776372394437"><ele>31.6</ele><time>2026-05-01T11:28:48.999Z</time></trkpt><trkpt lat="44.98391155719023" lon="13.772890314001465"><ele>31.0</ele><time>2026-05-01T11:28:50.999Z</time></trkpt><trkpt lat="44.98387058944476" lon="13.773044285126975"><ele>30.8</ele><time>2026-05-01T11:28:52.999Z</time></trkpt><trkpt lat="44.98383168762737" lon="13.773210584499157"><ele>30.6</ele><time>2026-05-01T11:28:54.999Z</time></trkpt><trkpt lat="44.98379368461157" lon="13.773363801331357"><ele>30.4</ele><time>2026-05-01T11:28:56.999Z</time></trkpt><trkpt lat="44.98376389993304" lon="13.77349407945808"><ele>30.2</ele><time>2026-05-01T11:28:59Z</time></trkpt><trkpt lat="44.983736942697135" lon="13.773646078976856"><ele>30.0</ele><time>2026-05-01T11:29:01Z</time></trkpt><trkpt lat="44.983721825783995" lon="13.773784399416149"><ele>30.0</ele><time>2026-05-01T11:29:03Z</time></trkpt><trkpt lat="44.98369115422726" lon="13.77391461739283"><ele>30.0</ele><time>2026-05-01T11:29:05Z</time></trkpt><trkpt lat="44.98366265774002" lon="13.774042498446597"><ele>30.0</ele><time>2026-05-01T11:29:07Z</time></trkpt><trkpt lat="44.98362640474787" lon="13.77414451500579"><ele>30.0</ele><time>2026-05-01T11:29:09Z</time></trkpt><trkpt lat="44.98358527196889" lon="13.774273269147601"><ele>30.0</ele><time>2026-05-01T11:29:11.999Z</time></trkpt><trkpt lat="44.98353528360441" lon="13.774381810197326"><ele>30.0</ele><time>2026-05-01T11:29:13.999Z</time></trkpt><trkpt lat="44.98347593613742" lon="13.77452425940339"><ele>30.0</ele><time>2026-05-01T11:29:15.999Z</time></trkpt><trkpt lat="44.98344116027422" lon="13.774601509144155"><ele>30.0</ele><time>2026-05-01T11:29:16.999Z</time></trkpt><trkpt lat="44.98340579078149" lon="13.774685700085131"><ele>30.0</ele><time>2026-05-01T11:29:17.999Z</time></trkpt><trkpt lat="44.98337395995052" lon="13.77477281938644"><ele>30.0</ele><time>2026-05-01T11:29:18.999Z</time></trkpt><trkpt lat="44.98334524986355" lon="13.774860155728025"><ele>30.0</ele><time>2026-05-01T11:29:19.999Z</time></trkpt><trkpt lat="44.983313511347426" lon="13.774949114438574"><ele>30.0</ele><time>2026-05-01T11:29:20.999Z</time></trkpt><trkpt lat="44.983283631876944" lon="13.775033542432208"><ele>30.0</ele><time>2026-05-01T11:29:21.999Z</time></trkpt><trkpt lat="44.983254724581464" lon="13.775114592037221"><ele>30.0</ele><time>2026-05-01T11:29:22.999Z</time></trkpt><trkpt lat="44.983201649085345" lon="13.775258426077242"><ele>30.0</ele><time>2026-05-01T11:29:24.999Z</time></trkpt><trkpt lat="44.98317080725017" lon="13.775385195395778"><ele>30.0</ele><time>2026-05-01T11:29:26.999Z</time></trkpt><trkpt lat="44.98314487319062" lon="13.775518885467834"><ele>30.0</ele><time>2026-05-01T11:29:28.999Z</time></trkpt><trkpt lat="44.98312404700633" lon="13.77565985139385"><ele>30.0</ele><time>2026-05-01T11:29:30.999Z</time></trkpt><trkpt lat="44.983113989101405" lon="13.775835154110737"><ele>30.0</ele><time>2026-05-01T11:29:32.999Z</time></trkpt><trkpt lat="44.983101891412886" lon="13.775930046445193"><ele>30.0</ele><time>2026-05-01T11:29:33.999Z</time></trkpt><trkpt lat="44.983084147670326" lon="13.77601713919439"><ele>30.0</ele><time>2026-05-01T11:29:34.999Z</time></trkpt><trkpt lat="44.983019614347356" lon="13.776131837571777"><ele>30.0</ele><time>2026-05-01T11:29:36.999Z</time></trkpt><trkpt lat="44.982945722370054" lon="13.776215622920862"><ele>30.0</ele><time>2026-05-01T11:29:38.999Z</time></trkpt><trkpt lat="44.98285608976429" lon="13.776302359300576"><ele>30.0</ele><time>2026-05-01T11:29:40.999Z</time></trkpt><trkpt lat="44.982786148667515" lon="13.776350669729867"><ele>30.0</ele><time>2026-05-01T11:29:41.999Z</time></trkpt><trkpt lat="44.98270621158318" lon="13.776421461249114"><ele>30.0</ele><time>2026-05-01T11:29:42.999Z</time></trkpt><trkpt lat="44.98263658517303" lon="13.77652044373297"><ele>30.0</ele><time>2026-05-01T11:29:43.999Z</time></trkpt><trkpt lat="44.98257269465282" lon="13.77662477599985"><ele>30.0</ele><time>2026-05-01T11:29:44.999Z</time></trkpt><trkpt lat="44.9825020212465" lon="13.776736369081847"><ele>30.0</ele><time>2026-05-01T11:29:45.999Z</time></trkpt><trkpt lat="44.98243379406824" lon="13.776860333373955"><ele>30.0</ele><time>2026-05-01T11:29:46.999Z</time></trkpt><trkpt lat="44.98237655812869" lon="13.777007601056638"><ele>30.0</ele><time>2026-05-01T11:29:47.999Z</time></trkpt><trkpt lat="44.982333797575315" lon="13.777173165423932"><ele>30.25</ele><time>2026-05-01T11:29:48.999Z</time></trkpt><trkpt lat="44.982297018906664" lon="13.777336877791571"><ele>30.5</ele><time>2026-05-01T11:29:49.999Z</time></trkpt><trkpt lat="44.98225907994488" lon="13.777512805085966"><ele>30.75</ele><time>2026-05-01T11:29:50.999Z</time></trkpt><trkpt lat="44.982214810797316" lon="13.777696377203771"><ele>31.0</ele><time>2026-05-01T11:29:51.999Z</time></trkpt><trkpt lat="44.982169648186655" lon="13.777886351098795"><ele>31.5</ele><time>2026-05-01T11:29:52.999Z</time></trkpt><trkpt lat="44.98212418132033" lon="13.778078723229921"><ele>32.0</ele><time>2026-05-01T11:29:53.999Z</time></trkpt><trkpt lat="44.98207787827411" lon="13.77827249118283"><ele>32.5</ele><time>2026-05-01T11:29:54.999Z</time></trkpt><trkpt lat="44.9820279611901" lon="13.778465981697757"><ele>33.0</ele><time>2026-05-01T11:29:55.999Z</time></trkpt><trkpt lat="44.98197170483611" lon="13.778659273874862"><ele>33.75</ele><time>2026-05-01T11:29:56.999Z</time></trkpt><trkpt lat="44.98191226701348" lon="13.778847727570602"><ele>34.5</ele><time>2026-05-01T11:29:57.999Z</time></trkpt><trkpt lat="44.981836599182145" lon="13.779028340356863"><ele>35.25</ele><time>2026-05-01T11:29:58.999Z</time></trkpt><trkpt lat="44.98175694242046" lon="13.779202458716874"><ele>36.0</ele><time>2026-05-01T11:29:59.999Z</time></trkpt><trkpt lat="44.9816699012001" lon="13.779370229372272"><ele>36.333333333333336</ele><time>2026-05-01T11:30:00.999Z</time></trkpt><trkpt lat="44.98158548683326" lon="13.779538778829128"><ele>36.66666666666667</ele><time>2026-05-01T11:30:01.999Z</time></trkpt><trkpt lat="44.98150116066981" lon="13.779718866606062"><ele>37.0</ele><time>2026-05-01T11:30:02.999Z</time></trkpt><trkpt lat="44.981429142339366" lon="13.779912752986936"><ele>37.0</ele><time>2026-05-01T11:30:03.999Z</time></trkpt><trkpt lat="44.98135890768755" lon="13.780112619718023"><ele>37.0</ele><time>2026-05-01T11:30:04.999Z</time></trkpt><trkpt lat="44.981302386863" lon="13.780320182486715"><ele>37.0</ele><time>2026-05-01T11:30:05.999Z</time></trkpt><trkpt lat="44.98127589685536" lon="13.780540735038894"><ele>37.25</ele><time>2026-05-01T11:30:06.999Z</time></trkpt><trkpt lat="44.9812646893116" lon="13.780765580482653"><ele>37.5</ele><time>2026-05-01T11:30:07.999Z</time></trkpt><trkpt lat="44.98124049652227" lon="13.78096530948724"><ele>37.75</ele><time>2026-05-01T11:30:08.999Z</time></trkpt><trkpt lat="44.98120114528033" lon="13.781158875805426"><ele>38.0</ele><time>2026-05-01T11:30:09.999Z</time></trkpt><trkpt lat="44.981148763904926" lon="13.781345798127703"><ele>38.0</ele><time>2026-05-01T11:30:10.999Z</time></trkpt><trkpt lat="44.98109429327261" lon="13.781529229045915"><ele>38.0</ele><time>2026-05-01T11:30:11.999Z</time></trkpt><trkpt lat="44.98104383955264" lon="13.781708813372983"><ele>38.0</ele><time>2026-05-01T11:30:12.999Z</time></trkpt><trkpt lat="44.98100850587859" lon="13.781893846782996"><ele>38.0</ele><time>2026-05-01T11:30:13.999Z</time></trkpt><trkpt lat="44.980987159296" lon="13.782078944703617"><ele>38.5</ele><time>2026-05-01T11:30:14.999Z</time></trkpt><trkpt lat="44.980980494502575" lon="13.782258030742662"><ele>39.0</ele><time>2026-05-01T11:30:15.999Z</time></trkpt><trkpt lat="44.98098856761335" lon="13.782431237994105"><ele>39.5</ele><time>2026-05-01T11:30:16.999Z</time></trkpt><trkpt lat="44.981015464696746" lon="13.782588476619104"><ele>40.0</ele><time>2026-05-01T11:30:17.999Z</time></trkpt><trkpt lat="44.98106299303371" lon="13.782714023382896"><ele>40.5</ele><time>2026-05-01T11:30:18.999Z</time></trkpt><trkpt lat="44.98111350772213" lon="13.782817281064675"><ele>41.0</ele><time>2026-05-01T11:30:19.999Z</time></trkpt><trkpt lat="44.98116228989875" lon="13.782886063777667"><ele>41.5</ele><time>2026-05-01T11:30:20.999Z</time></trkpt><trkpt lat="44.98123545990688" lon="13.783004462221687"><ele>42.0</ele><time>2026-05-01T11:30:22.999Z</time></trkpt><trkpt lat="44.98126640919376" lon="13.783094951891313"><ele>42.5</ele><time>2026-05-01T11:30:24.999Z</time></trkpt><trkpt lat="44.981313415769186" lon="13.783189739509686"><ele>43.0</ele><time>2026-05-01T11:31:12.999Z</time></trkpt><trkpt lat="44.9813728451138" lon="13.783321391525872"><ele>43.0</ele><time>2026-05-01T11:31:14.999Z</time></trkpt><trkpt lat="44.98139189308169" lon="13.783445981969452"><ele>43.0</ele><time>2026-05-01T11:31:16.999Z</time></trkpt><trkpt lat="44.98142172883482" lon="13.783598075195778"><ele>43.0</ele><time>2026-05-01T11:31:18.999Z</time></trkpt><trkpt lat="44.98144188086456" lon="13.783698797831544"><ele>43.0</ele><time>2026-05-01T11:31:19.999Z</time></trkpt><trkpt lat="44.98146224850276" lon="13.783815739243492"><ele>43.0</ele><time>2026-05-01T11:31:20.999Z</time></trkpt><trkpt lat="44.981484452200824" lon="13.783933513066511"><ele>43.0</ele><time>2026-05-01T11:31:21.999Z</time></trkpt><trkpt lat="44.981513822023814" lon="13.784064987585186"><ele>43.599999999999994</ele><time>2026-05-01T11:31:22.999Z</time></trkpt><trkpt lat="44.98154576933289" lon="13.784191858617744"><ele>44.199999999999996</ele><time>2026-05-01T11:31:23.999Z</time></trkpt><trkpt lat="44.981585455078786" lon="13.78432753589602"><ele>44.8</ele><time>2026-05-01T11:31:24.999Z</time></trkpt><trkpt lat="44.98163209862459" lon="13.784461292796369"><ele>45.4</ele><time>2026-05-01T11:31:25.999Z</time></trkpt><trkpt lat="44.98167904398921" lon="13.784600781427994"><ele>46.0</ele><time>2026-05-01T11:31:26.999Z</time></trkpt><trkpt lat="44.98171882318841" lon="13.784745596965248"><ele>46.25</ele><time>2026-05-01T11:31:27.999Z</time></trkpt><trkpt lat="44.9817456600513" lon="13.784907802832228"><ele>46.5</ele><time>2026-05-01T11:31:28.999Z</time></trkpt><trkpt lat="44.981746728001234" lon="13.785081930454869"><ele>46.75</ele><time>2026-05-01T11:31:29.999Z</time></trkpt><trkpt lat="44.981727751574546" lon="13.785261479586044"><ele>47.0</ele><time>2026-05-01T11:31:30.999Z</time></trkpt><trkpt lat="44.981700337648874" lon="13.785428579596084"><ele>47.5</ele><time>2026-05-01T11:31:31.999Z</time></trkpt><trkpt lat="44.98166949457298" lon="13.785587078545493"><ele>48.0</ele><time>2026-05-01T11:31:32.999Z</time></trkpt><trkpt lat="44.98163484254368" lon="13.78574529607476"><ele>48.5</ele><time>2026-05-01T11:31:33.999Z</time></trkpt><trkpt lat="44.981583257574776" lon="13.785893766622815"><ele>49.0</ele><time>2026-05-01T11:31:34.999Z</time></trkpt><trkpt lat="44.98152278813946" lon="13.786027427619056"><ele>49.6</ele><time>2026-05-01T11:31:35.999Z</time></trkpt><trkpt lat="44.9814640477865" lon="13.786156660694688"><ele>50.2</ele><time>2026-05-01T11:31:36.999Z</time></trkpt><trkpt lat="44.98140891311926" lon="13.786283777019506"><ele>50.800000000000004</ele><time>2026-05-01T11:31:37.999Z</time></trkpt><trkpt lat="44.9813621406404" lon="13.786430336862036"><ele>51.400000000000006</ele><time>2026-05-01T11:31:38.999Z</time></trkpt><trkpt lat="44.98133726736789" lon="13.786592759107739"><ele>52.0</ele><time>2026-05-01T11:31:39.999Z</time></trkpt><trkpt lat="44.98135556131743" lon="13.786766193972667"><ele>52.0</ele><time>2026-05-01T11:31:40.999Z</time></trkpt><trkpt lat="44.98141752304124" lon="13.786944867037025"><ele>52.0</ele><time>2026-05-01T11:31:41.999Z</time></trkpt><trkpt lat="44.98150940269567" lon="13.787114108385554"><ele>52.0</ele><time>2026-05-01T11:31:42.999Z</time></trkpt><trkpt lat="44.98160652256051" lon="13.787264930154825"><ele>52.0</ele><time>2026-05-01T11:31:43.999Z</time></trkpt><trkpt lat="44.98169080518723" lon="13.787431416483912"><ele>52.0</ele><time>2026-05-01T11:31:44.999Z</time></trkpt><trkpt lat="44.981758863357115" lon="13.78762477289566"><ele>52.0</ele><time>2026-05-01T11:31:45.999Z</time></trkpt><trkpt lat="44.98181305699277" lon="13.787830003997712"><ele>52.0</ele><time>2026-05-01T11:31:46.999Z</time></trkpt><trkpt lat="44.981846659316645" lon="13.78803823175193"><ele>52.5</ele><time>2026-05-01T11:31:47.999Z</time></trkpt><trkpt lat="44.98187634525758" lon="13.788234804267612"><ele>53.0</ele><time>2026-05-01T11:31:48.999Z</time></trkpt><trkpt lat="44.9819135687265" lon="13.788423087534351"><ele>53.5</ele><time>2026-05-01T11:31:49.999Z</time></trkpt><trkpt lat="44.981973525952625" lon="13.788594071839844"><ele>54.0</ele><time>2026-05-01T11:31:50.999Z</time></trkpt><trkpt lat="44.98206374744123" lon="13.788751987154054"><ele>54.0</ele><time>2026-05-01T11:31:51.999Z</time></trkpt><trkpt lat="44.982178827621084" lon="13.788878935888542"><ele>54.0</ele><time>2026-05-01T11:31:52.999Z</time></trkpt><trkpt lat="44.98231188729002" lon="13.788975489126011"><ele>54.0</ele><time>2026-05-01T11:31:53.999Z</time></trkpt><trkpt lat="44.982453291575084" lon="13.789045285130221"><ele>54.0</ele><time>2026-05-01T11:31:54.999Z</time></trkpt><trkpt lat="44.98259309427795" lon="13.789122356770694"><ele>54.0</ele><time>2026-05-01T11:31:55.999Z</time></trkpt><trkpt lat="44.982735875189555" lon="13.789211085537854"><ele>54.0</ele><time>2026-05-01T11:31:56.999Z</time></trkpt><trkpt lat="44.98288040550682" lon="13.78930350259858"><ele>54.0</ele><time>2026-05-01T11:31:57.999Z</time></trkpt><trkpt lat="44.98302601961045" lon="13.789398774126365"><ele>54.66666666666667</ele><time>2026-05-01T11:31:58.999Z</time></trkpt><trkpt lat="44.98317109395715" lon="13.789499859135478"><ele>55.333333333333336</ele><time>2026-05-01T11:31:59.999Z</time></trkpt><trkpt lat="44.98330965345313" lon="13.789596526197757"><ele>56.0</ele><time>2026-05-01T11:32:00.999Z</time></trkpt><trkpt lat="44.98344135260775" lon="13.789691443632407"><ele>56.0</ele><time>2026-05-01T11:32:01.999Z</time></trkpt><trkpt lat="44.98356943820607" lon="13.789781334559997"><ele>56.0</ele><time>2026-05-01T11:32:02.999Z</time></trkpt><trkpt lat="44.98369787681128" lon="13.789866443805577"><ele>56.0</ele><time>2026-05-01T11:32:03.999Z</time></trkpt><trkpt lat="44.9838208354176" lon="13.789947418502818"><ele>56.0</ele><time>2026-05-01T11:32:04.999Z</time></trkpt><trkpt lat="44.98393578462111" lon="13.790018365968423"><ele>56.0</ele><time>2026-05-01T11:32:05.999Z</time></trkpt><trkpt lat="44.98404688910377" lon="13.790090719100906"><ele>56.0</ele><time>2026-05-01T11:32:06.999Z</time></trkpt><trkpt lat="44.984160821018584" lon="13.79016594352642"><ele>56.0</ele><time>2026-05-01T11:32:07.999Z</time></trkpt><trkpt lat="44.98427337955406" lon="13.790238765694452"><ele>56.0</ele><time>2026-05-01T11:32:08.999Z</time></trkpt><trkpt lat="44.98437612066311" lon="13.790301152295537"><ele>56.199999999999996</ele><time>2026-05-01T11:32:09.999Z</time></trkpt><trkpt lat="44.98446299500134" lon="13.790369699668098"><ele>56.39999999999999</ele><time>2026-05-01T11:32:10.999Z</time></trkpt><trkpt lat="44.98452644797689" lon="13.790464606734561"><ele>56.6</ele><time>2026-05-01T11:32:11.999Z</time></trkpt><trkpt lat="44.98454980338652" lon="13.790588271131757"><ele>56.8</ele><time>2026-05-01T11:32:12.999Z</time></trkpt><trkpt lat="44.9845297687921" lon="13.79072537962382"><ele>57.0</ele><time>2026-05-01T11:32:13.999Z</time></trkpt><trkpt lat="44.98448255038802" lon="13.790862698728805"><ele>57.0</ele><time>2026-05-01T11:32:14.999Z</time></trkpt><trkpt lat="44.98444580146458" lon="13.791006235356347"><ele>57.0</ele><time>2026-05-01T11:32:15.999Z</time></trkpt><trkpt lat="44.98443500465106" lon="13.791156177692395"><ele>57.0</ele><time>2026-05-01T11:32:16.999Z</time></trkpt><trkpt lat="44.98446117876474" lon="13.791305743493334"><ele>57.0</ele><time>2026-05-01T11:32:17.999Z</time></trkpt><trkpt lat="44.98451898071915" lon="13.791462163167338"><ele>57.0</ele><time>2026-05-01T11:32:18.999Z</time></trkpt><trkpt lat="44.98458188819857" lon="13.791647998800242"><ele>57.66666666666667</ele><time>2026-05-01T11:32:19.999Z</time></trkpt><trkpt lat="44.98463270409757" lon="13.791852800480159"><ele>58.333333333333336</ele><time>2026-05-01T11:32:20.999Z</time></trkpt><trkpt lat="44.984679456134124" lon="13.792051197187961"><ele>59.0</ele><time>2026-05-01T11:32:21.999Z</time></trkpt><trkpt lat="44.98474454996135" lon="13.792259369498305"><ele>59.0</ele><time>2026-05-01T11:32:22.999Z</time></trkpt><trkpt lat="44.984814067763544" lon="13.792480680620425"><ele>59.0</ele><time>2026-05-01T11:32:23.999Z</time></trkpt><trkpt lat="44.98487452509886" lon="13.792670468141594"><ele>59.0</ele><time>2026-05-01T11:32:24.999Z</time></trkpt><trkpt lat="44.98493121639958" lon="13.79284021080642"><ele>59.0</ele><time>2026-05-01T11:32:25.999Z</time></trkpt><trkpt lat="44.98498611606448" lon="13.79300689870593"><ele>59.0</ele><time>2026-05-01T11:32:26.999Z</time></trkpt><trkpt lat="44.98504013288338" lon="13.793179948175865"><ele>59.0</ele><time>2026-05-01T11:32:27.999Z</time></trkpt><trkpt lat="44.985096663895774" lon="13.793352075184222"><ele>59.0</ele><time>2026-05-01T11:32:28.999Z</time></trkpt><trkpt lat="44.985153421907576" lon="13.793512481807227"><ele>59.25</ele><time>2026-05-01T11:32:29.999Z</time></trkpt><trkpt lat="44.98521415679062" lon="13.793669079143015"><ele>59.5</ele><time>2026-05-01T11:32:30.999Z</time></trkpt><trkpt lat="44.98528279667361" lon="13.793829012009008"><ele>59.75</ele><time>2026-05-01T11:32:31.999Z</time></trkpt><trkpt lat="44.98535182546949" lon="13.793994823950984"><ele>60.0</ele><time>2026-05-01T11:32:32.999Z</time></trkpt><trkpt lat="44.98541769970756" lon="13.794162279026237"><ele>60.0</ele><time>2026-05-01T11:32:33.999Z</time></trkpt><trkpt lat="44.98548304157799" lon="13.794326242982745"><ele>60.0</ele><time>2026-05-01T11:32:34.999Z</time></trkpt><trkpt lat="44.98554109974225" lon="13.794482461320152"><ele>60.0</ele><time>2026-05-01T11:32:35.999Z</time></trkpt><trkpt lat="44.985595886538945" lon="13.794637998599335"><ele>60.0</ele><time>2026-05-01T11:32:36.999Z</time></trkpt><trkpt lat="44.985645328101725" lon="13.794799515816054"><ele>60.25</ele><time>2026-05-01T11:32:37.999Z</time></trkpt><trkpt lat="44.98568940644668" lon="13.794963299014247"><ele>60.5</ele><time>2026-05-01T11:32:38.998Z</time></trkpt><trkpt lat="44.98573871207777" lon="13.795129551693991"><ele>60.75</ele><time>2026-05-01T11:32:39.998Z</time></trkpt><trkpt lat="44.98579015581891" lon="13.795292875960568"><ele>61.0</ele><time>2026-05-01T11:32:40.998Z</time></trkpt><trkpt lat="44.98585225310437" lon="13.795451425880861"><ele>61.5</ele><time>2026-05-01T11:32:41.998Z</time></trkpt><trkpt lat="44.985927418782516" lon="13.795597133558747"><ele>62.0</ele><time>2026-05-01T11:32:42.998Z</time></trkpt><trkpt lat="44.98601147300646" lon="13.795727570717395"><ele>62.5</ele><time>2026-05-01T11:32:43.998Z</time></trkpt><trkpt lat="44.98609438165055" lon="13.795856186532433"><ele>63.0</ele><time>2026-05-01T11:32:44.998Z</time></trkpt><trkpt lat="44.9861750685763" lon="13.795977659474506"><ele>63.25</ele><time>2026-05-01T11:32:45.998Z</time></trkpt><trkpt lat="44.98626038612551" lon="13.796094091590755"><ele>63.5</ele><time>2026-05-01T11:32:46.998Z</time></trkpt><trkpt lat="44.98635468453895" lon="13.796199037969371"><ele>63.75</ele><time>2026-05-01T11:32:47.998Z</time></trkpt><trkpt lat="44.986450773769484" lon="13.796289376353009"><ele>64.0</ele><time>2026-05-01T11:32:48.998Z</time></trkpt><trkpt lat="44.98655053321261" lon="13.79636524652091"><ele>64.0</ele><time>2026-05-01T11:32:49.998Z</time></trkpt><trkpt lat="44.98665529610652" lon="13.79642167320163"><ele>64.0</ele><time>2026-05-01T11:32:50.998Z</time></trkpt><trkpt lat="44.98675056747931" lon="13.79644656470073"><ele>64.0</ele><time>2026-05-01T11:32:51.998Z</time></trkpt><trkpt lat="44.98684076759362" lon="13.796478825288274"><ele>64.0</ele><time>2026-05-01T11:32:52.998Z</time></trkpt><trkpt lat="44.9869344338859" lon="13.796533580361013"><ele>64.0</ele><time>2026-05-01T11:32:53.998Z</time></trkpt><trkpt lat="44.98703311890188" lon="13.796596384638068"><ele>64.0</ele><time>2026-05-01T11:32:54.998Z</time></trkpt><trkpt lat="44.9871326203727" lon="13.796660938098498"><ele>64.0</ele><time>2026-05-01T11:32:55.998Z</time></trkpt><trkpt lat="44.98723124957987" lon="13.7967287268857"><ele>64.0</ele><time>2026-05-01T11:32:56.998Z</time></trkpt><trkpt lat="44.98732875610579" lon="13.79680329510843"><ele>64.0</ele><time>2026-05-01T11:32:57.998Z</time></trkpt><trkpt lat="44.98742227781187" lon="13.796879007764586"><ele>64.0</ele><time>2026-05-01T11:32:58.998Z</time></trkpt><trkpt lat="44.98751496000972" lon="13.79695079649607"><ele>64.0</ele><time>2026-05-01T11:32:59.998Z</time></trkpt><trkpt lat="44.98761308352133" lon="13.797027170446151"><ele>64.0</ele><time>2026-05-01T11:33:00.999Z</time></trkpt><trkpt lat="44.98770183002311" lon="13.797106257113647"><ele>64.0</ele><time>2026-05-01T11:33:01.999Z</time></trkpt><trkpt lat="44.98778144556909" lon="13.797188748123434"><ele>64.0</ele><time>2026-05-01T11:33:02.999Z</time></trkpt><trkpt lat="44.98783586486109" lon="13.797303186614693"><ele>64.0</ele><time>2026-05-01T11:33:03.999Z</time></trkpt><trkpt lat="44.98784186281651" lon="13.797456867444424"><ele>64.0</ele><time>2026-05-01T11:33:04.999Z</time></trkpt><trkpt lat="44.98780589290408" lon="13.797623429544078"><ele>64.0</ele><time>2026-05-01T11:33:05.999Z</time></trkpt><trkpt lat="44.98776005677643" lon="13.797769907710947"><ele>64.0</ele><time>2026-05-01T11:33:06.999Z</time></trkpt><trkpt lat="44.98773724384325" lon="13.797895555487887"><ele>64.0</ele><time>2026-05-01T11:33:07.999Z</time></trkpt><trkpt lat="44.987753494181874" lon="13.798019466632644"><ele>64.0</ele><time>2026-05-01T11:33:08.999Z</time></trkpt><trkpt lat="44.987811807195634" lon="13.798121835224403"><ele>64.5</ele><time>2026-05-01T11:33:09.999Z</time></trkpt><trkpt lat="44.98790632553811" lon="13.79817770219249"><ele>65.0</ele><time>2026-05-01T11:33:10.999Z</time></trkpt><trkpt lat="44.988021103483426" lon="13.79821022126051"><ele>65.5</ele><time>2026-05-01T11:33:11.999Z</time></trkpt><trkpt lat="44.98814157454239" lon="13.798257329376554"><ele>66.0</ele><time>2026-05-01T11:33:12.999Z</time></trkpt><trkpt lat="44.98826574141934" lon="13.798317980079375"><ele>66.0</ele><time>2026-05-01T11:33:13.999Z</time></trkpt><trkpt lat="44.98838216936303" lon="13.798380247243854"><ele>66.0</ele><time>2026-05-01T11:33:14.999Z</time></trkpt><trkpt lat="44.98849245300905" lon="13.798438612949314"><ele>66.0</ele><time>2026-05-01T11:33:15.999Z</time></trkpt><trkpt lat="44.98860568427263" lon="13.798495055537675"><ele>66.0</ele><time>2026-05-01T11:33:16.999Z</time></trkpt><trkpt lat="44.988716366807274" lon="13.798553690928498"><ele>66.75</ele><time>2026-05-01T11:33:17.999Z</time></trkpt><trkpt lat="44.98882894494298" lon="13.798613208271048"><ele>67.5</ele><time>2026-05-01T11:33:18.999Z</time></trkpt><trkpt lat="44.98894829146027" lon="13.798676503610443"><ele>68.25</ele><time>2026-05-01T11:33:19.999Z</time></trkpt><trkpt lat="44.98906724027" lon="13.798744665464152"><ele>69.0</ele><time>2026-05-01T11:33:20.999Z</time></trkpt><trkpt lat="44.98918462505196" lon="13.798818944132984"><ele>69.0</ele><time>2026-05-01T11:33:21.999Z</time></trkpt><trkpt lat="44.98929708834213" lon="13.798893643691464"><ele>69.0</ele><time>2026-05-01T11:33:22.999Z</time></trkpt><trkpt lat="44.989409432939006" lon="13.798979245438433"><ele>69.0</ele><time>2026-05-01T11:33:23.999Z</time></trkpt><trkpt lat="44.989520735125836" lon="13.79906961812561"><ele>69.0</ele><time>2026-05-01T11:33:24.999Z</time></trkpt><trkpt lat="44.989620059584844" lon="13.799160808935616"><ele>69.0</ele><time>2026-05-01T11:33:25.999Z</time></trkpt><trkpt lat="44.98970740569994" lon="13.799281686782834"><ele>69.0</ele><time>2026-05-01T11:33:26.999Z</time></trkpt><trkpt lat="44.98977060957373" lon="13.799447629701303"><ele>69.0</ele><time>2026-05-01T11:33:27.999Z</time></trkpt><trkpt lat="44.98981315003008" lon="13.799636726957868"><ele>69.0</ele><time>2026-05-01T11:33:28.999Z</time></trkpt><trkpt lat="44.989845750766385" lon="13.79983710365854"><ele>69.0</ele><time>2026-05-01T11:33:29.999Z</time></trkpt><trkpt lat="44.989885441146235" lon="13.800044201870248"><ele>69.0</ele><time>2026-05-01T11:33:30.999Z</time></trkpt><trkpt lat="44.98994114665545" lon="13.80024402625537"><ele>69.0</ele><time>2026-05-01T11:33:31.999Z</time></trkpt><trkpt lat="44.9900191820363" lon="13.800432119054415"><ele>70.0</ele><time>2026-05-01T11:33:32.999Z</time></trkpt><trkpt lat="44.9901084594462" lon="13.800618190587395"><ele>71.0</ele><time>2026-05-01T11:33:33.999Z</time></trkpt><trkpt lat="44.99019189829541" lon="13.80081718808689"><ele>72.0</ele><time>2026-05-01T11:33:34.999Z</time></trkpt><trkpt lat="44.990261873583556" lon="13.801017590374322"><ele>72.25</ele><time>2026-05-01T11:33:35.999Z</time></trkpt><trkpt lat="44.99032047074649" lon="13.80121564217327"><ele>72.5</ele><time>2026-05-01T11:33:36.999Z</time></trkpt><trkpt lat="44.990376533097745" lon="13.801409417040855"><ele>72.75</ele><time>2026-05-01T11:33:37.999Z</time></trkpt><trkpt lat="44.99043265581679" lon="13.801599218926787"><ele>73.0</ele><time>2026-05-01T11:33:38.999Z</time></trkpt><trkpt lat="44.99048616960117" lon="13.80178532172782"><ele>73.5</ele><time>2026-05-01T11:33:39.999Z</time></trkpt><trkpt lat="44.99054035551234" lon="13.801966004015892"><ele>74.0</ele><time>2026-05-01T11:33:40.999Z</time></trkpt><trkpt lat="44.99059971784399" lon="13.802144253222082"><ele>74.5</ele><time>2026-05-01T11:33:41.999Z</time></trkpt><trkpt lat="44.99065544006" lon="13.8023059625473"><ele>75.0</ele><time>2026-05-01T11:33:42.999Z</time></trkpt><trkpt lat="44.9907152845942" lon="13.802467858757902"><ele>75.0</ele><time>2026-05-01T11:33:43.999Z</time></trkpt><trkpt lat="44.990777833054786" lon="13.80263026994763"><ele>75.0</ele><time>2026-05-01T11:33:44.999Z</time></trkpt><trkpt lat="44.990838491360726" lon="13.80277408685384"><ele>75.0</ele><time>2026-05-01T11:33:45.999Z</time></trkpt><trkpt lat="44.990894219416276" lon="13.802917721073875"><ele>75.0</ele><time>2026-05-01T11:33:46.999Z</time></trkpt><trkpt lat="44.99094737193985" lon="13.80306019117396"><ele>75.25</ele><time>2026-05-01T11:33:47.999Z</time></trkpt><trkpt lat="44.991004900347946" lon="13.803193999628881"><ele>75.5</ele><time>2026-05-01T11:33:48.999Z</time></trkpt><trkpt lat="44.991075978330535" lon="13.803312597360204"><ele>75.75</ele><time>2026-05-01T11:33:49.999Z</time></trkpt><trkpt lat="44.99117185174507" lon="13.803402940138293"><ele>76.0</ele><time>2026-05-01T11:33:50.999Z</time></trkpt><trkpt lat="44.9912856039141" lon="13.803447697998292"><ele>76.0</ele><time>2026-05-01T11:33:51.999Z</time></trkpt><trkpt lat="44.991401588011676" lon="13.80348463596796"><ele>76.0</ele><time>2026-05-01T11:33:52.999Z</time></trkpt><trkpt lat="44.99152041672999" lon="13.803534396753516"><ele>76.0</ele><time>2026-05-01T11:33:53.999Z</time></trkpt><trkpt lat="44.991640779227936" lon="13.803590713761235"><ele>76.0</ele><time>2026-05-01T11:33:54.999Z</time></trkpt><trkpt lat="44.991750416902356" lon="13.803645004150097"><ele>76.2</ele><time>2026-05-01T11:33:55.999Z</time></trkpt><trkpt lat="44.991858325108204" lon="13.803707943269"><ele>76.39999999999999</ele><time>2026-05-01T11:33:56.999Z</time></trkpt><trkpt lat="44.99196023174257" lon="13.8037628623964"><ele>76.6</ele><time>2026-05-01T11:33:57.999Z</time></trkpt><trkpt lat="44.992054324831045" lon="13.80380107515924"><ele>76.8</ele><time>2026-05-01T11:33:58.999Z</time></trkpt><trkpt lat="44.99214617479513" lon="13.803829467631338"><ele>77.0</ele><time>2026-05-01T11:33:59.999Z</time></trkpt><trkpt lat="44.99222753849319" lon="13.803849532544067"><ele>77.0</ele><time>2026-05-01T11:34:00.999Z</time></trkpt><trkpt lat="44.992293309794114" lon="13.803895596606099"><ele>77.0</ele><time>2026-05-01T11:34:01.999Z</time></trkpt><trkpt lat="44.99233905362315" lon="13.80401179066197"><ele>77.0</ele><time>2026-05-01T11:34:02.999Z</time></trkpt><trkpt lat="44.99233059320584" lon="13.804143548669018"><ele>77.0</ele><time>2026-05-01T11:34:03.999Z</time></trkpt><trkpt lat="44.99229768660147" lon="13.80427232240724"><ele>77.0</ele><time>2026-05-01T11:34:04.999Z</time></trkpt><trkpt lat="44.99225831632653" lon="13.804403622425113"><ele>77.4</ele><time>2026-05-01T11:34:05.999Z</time></trkpt><trkpt lat="44.99223002016415" lon="13.804541282791606"><ele>77.80000000000001</ele><time>2026-05-01T11:34:06.999Z</time></trkpt><trkpt lat="44.99219905763604" lon="13.80467619932791"><ele>78.2</ele><time>2026-05-01T11:34:07.999Z</time></trkpt><trkpt lat="44.992165001627605" lon="13.804812462412299"><ele>78.60000000000001</ele><time>2026-05-01T11:34:08.999Z</time></trkpt><trkpt lat="44.992130980635544" lon="13.80493446205454"><ele>79.0</ele><time>2026-05-01T11:34:09.999Z</time></trkpt><trkpt lat="44.99209016256925" lon="13.805059982739852"><ele>79.6</ele><time>2026-05-01T11:34:10.999Z</time></trkpt><trkpt lat="44.992063209874345" lon="13.805193796739102"><ele>80.2</ele><time>2026-05-01T11:34:11.999Z</time></trkpt><trkpt lat="44.99207003893442" lon="13.805331988166182"><ele>80.8</ele><time>2026-05-01T11:34:12.999Z</time></trkpt><trkpt lat="44.99210584916722" lon="13.80546729561524"><ele>81.39999999999999</ele><time>2026-05-01T11:34:13.999Z</time></trkpt><trkpt lat="44.99216337030748" lon="13.805594778422751"><ele>82.0</ele><time>2026-05-01T11:34:14.999Z</time></trkpt><trkpt lat="44.99222549745728" lon="13.805715644921552"><ele>82.0</ele><time>2026-05-01T11:34:15.999Z</time></trkpt><trkpt lat="44.99227535419542" lon="13.805832558361816"><ele>82.0</ele><time>2026-05-01T11:34:16.999Z</time></trkpt><trkpt lat="44.992311782379346" lon="13.805936425035046"><ele>82.0</ele><time>2026-05-01T11:34:17.999Z</time></trkpt><trkpt lat="44.992309721813584" lon="13.806037867088913"><ele>82.0</ele><time>2026-05-01T11:34:18.999Z</time></trkpt><trkpt lat="44.99231061126816" lon="13.806131318114508"><ele>82.0</ele><time>2026-05-01T11:34:19.999Z</time></trkpt><trkpt lat="44.992330573861395" lon="13.806217747817742"><ele>82.0</ele><time>2026-05-01T11:34:20.999Z</time></trkpt><trkpt lat="44.99237909147051" lon="13.806289858224565"><ele>82.19999999999999</ele><time>2026-05-01T11:34:21.999Z</time></trkpt><trkpt lat="44.99245101621551" lon="13.806319956137596"><ele>82.4</ele><time>2026-05-01T11:34:22.999Z</time></trkpt><trkpt lat="44.99253578690415" lon="13.806302653764734"><ele>82.6</ele><time>2026-05-01T11:34:23.999Z</time></trkpt><trkpt lat="44.99261965620162" lon="13.806242963958349"><ele>82.80000000000001</ele><time>2026-05-01T11:34:24.999Z</time></trkpt><trkpt lat="44.99270975637759" lon="13.806177549865856"><ele>83.0</ele><time>2026-05-01T11:34:25.999Z</time></trkpt><trkpt lat="44.99280569541324" lon="13.8061125641271"><ele>83.0</ele><time>2026-05-01T11:34:26.999Z</time></trkpt><trkpt lat="44.99290634816366" lon="13.806053934974479"><ele>83.0</ele><time>2026-05-01T11:34:27.999Z</time></trkpt><trkpt lat="44.99300705928632" lon="13.805992605574339"><ele>83.0</ele><time>2026-05-01T11:34:28.999Z</time></trkpt><trkpt lat="44.99310857815666" lon="13.805933752986299"><ele>83.0</ele><time>2026-05-01T11:34:29.999Z</time></trkpt><trkpt lat="44.993215661514945" lon="13.805884035286104"><ele>83.0</ele><time>2026-05-01T11:34:30.999Z</time></trkpt><trkpt lat="44.99332893566484" lon="13.805851961284588"><ele>83.4</ele><time>2026-05-01T11:34:31.999Z</time></trkpt><trkpt lat="44.99343674906342" lon="13.805825206611726"><ele>83.80000000000001</ele><time>2026-05-01T11:34:32.999Z</time></trkpt><trkpt lat="44.99353927140528" lon="13.805791756103131"><ele>84.2</ele><time>2026-05-01T11:34:33.999Z</time></trkpt><trkpt lat="44.99364431739771" lon="13.805755992060147"><ele>84.6</ele><time>2026-05-01T11:34:34.999Z</time></trkpt><trkpt lat="44.993749032110195" lon="13.805712149557985"><ele>85.0</ele><time>2026-05-01T11:34:35.999Z</time></trkpt><trkpt lat="44.993843118036565" lon="13.805644758662176"><ele>85.0</ele><time>2026-05-01T11:34:36.999Z</time></trkpt><trkpt lat="44.993934629474325" lon="13.805567159457466"><ele>85.0</ele><time>2026-05-01T11:34:37.999Z</time></trkpt><trkpt lat="44.99402956592045" lon="13.805488195079347"><ele>85.0</ele><time>2026-05-01T11:34:38.999Z</time></trkpt><trkpt lat="44.994128363507386" lon="13.805407284907547"><ele>85.0</ele><time>2026-05-01T11:34:39.999Z</time></trkpt><trkpt lat="44.99422421524367" lon="13.805330990077712"><ele>85.0</ele><time>2026-05-01T11:34:40.999Z</time></trkpt><trkpt lat="44.99431795835113" lon="13.805263266464435"><ele>84.2</ele><time>2026-05-01T11:34:41.999Z</time></trkpt><trkpt lat="44.99441126085933" lon="13.805198988674181"><ele>83.4</ele><time>2026-05-01T11:34:42.999Z</time></trkpt><trkpt lat="44.99450597339351" lon="13.805137446501725"><ele>82.6</ele><time>2026-05-01T11:34:43.999Z</time></trkpt><trkpt lat="44.99459757129288" lon="13.805084674933386"><ele>81.8</ele><time>2026-05-01T11:34:44.999Z</time></trkpt><trkpt lat="44.99468473461504" lon="13.805031725867652"><ele>81.0</ele><time>2026-05-01T11:34:45.999Z</time></trkpt><trkpt lat="44.994775993698276" lon="13.804976181549394"><ele>80.83333333333333</ele><time>2026-05-01T11:34:46.999Z</time></trkpt><trkpt lat="44.99486568361461" lon="13.804929946983235"><ele>80.66666666666667</ele><time>2026-05-01T11:34:47.999Z</time></trkpt><trkpt lat="44.994950575759994" lon="13.804894187087191"><ele>80.5</ele><time>2026-05-01T11:34:48.999Z</time></trkpt><trkpt lat="44.995033612543565" lon="13.804866843715931"><ele>80.33333333333334</ele><time>2026-05-01T11:34:49.999Z</time></trkpt><trkpt lat="44.995110618483196" lon="13.804841018258706"><ele>80.16666666666667</ele><time>2026-05-01T11:34:50.999Z</time></trkpt><trkpt lat="44.99517835727906" lon="13.804819237230792"><ele>80.0</ele><time>2026-05-01T11:34:51.998Z</time></trkpt><trkpt lat="44.995289010554984" lon="13.804901844476236"><ele>79.4</ele><time>2026-05-01T11:34:53.998Z</time></trkpt><trkpt lat="44.99530891135925" lon="13.805020886327211"><ele>78.8</ele><time>2026-05-01T11:34:54.998Z</time></trkpt><trkpt lat="44.995308163718455" lon="13.805158872843979"><ele>78.2</ele><time>2026-05-01T11:34:55.998Z</time></trkpt><trkpt lat="44.995314007486144" lon="13.805300526042567"><ele>77.6</ele><time>2026-05-01T11:34:56.998Z</time></trkpt><trkpt lat="44.99533095960559" lon="13.805438942897492"><ele>77.0</ele><time>2026-05-01T11:34:57.998Z</time></trkpt><trkpt lat="44.99534682354725" lon="13.805584503808674"><ele>77.0</ele><time>2026-05-01T11:34:58.998Z</time></trkpt><trkpt lat="44.995355722181856" lon="13.805736839298744"><ele>77.0</ele><time>2026-05-01T11:34:59.998Z</time></trkpt><trkpt lat="44.995357076057566" lon="13.805892169935941"><ele>77.0</ele><time>2026-05-01T11:35:00.998Z</time></trkpt><trkpt lat="44.995349867146665" lon="13.806032806490565"><ele>77.0</ele><time>2026-05-01T11:35:01.998Z</time></trkpt><trkpt lat="44.99534595558283" lon="13.80616765446328"><ele>77.0</ele><time>2026-05-01T11:35:02.998Z</time></trkpt><trkpt lat="44.9953398667022" lon="13.806290953283122"><ele>77.8</ele><time>2026-05-01T11:35:03.998Z</time></trkpt><trkpt lat="44.99532761384021" lon="13.806428922797878"><ele>78.6</ele><time>2026-05-01T11:35:04.998Z</time></trkpt><trkpt lat="44.99530955305886" lon="13.806573252495438"><ele>79.39999999999999</ele><time>2026-05-01T11:35:05.998Z</time></trkpt><trkpt lat="44.99529362466606" lon="13.806722392152118"><ele>80.2</ele><time>2026-05-01T11:35:06.999Z</time></trkpt><trkpt lat="44.995283852968186" lon="13.806873062975981"><ele>81.0</ele><time>2026-05-01T11:35:07.999Z</time></trkpt><trkpt lat="44.99527331017614" lon="13.8070259441211"><ele>81.8</ele><time>2026-05-01T11:35:08.999Z</time></trkpt><trkpt lat="44.99526958249656" lon="13.807174274702739"><ele>82.6</ele><time>2026-05-01T11:35:09.999Z</time></trkpt><trkpt lat="44.99528341605003" lon="13.807304524530362"><ele>83.4</ele><time>2026-05-01T11:35:10.999Z</time></trkpt><trkpt lat="44.99531811081337" lon="13.807432265880477"><ele>84.2</ele><time>2026-05-01T11:35:11.999Z</time></trkpt><trkpt lat="44.99535582044404" lon="13.807550357894362"><ele>85.0</ele><time>2026-05-01T11:35:12.999Z</time></trkpt><trkpt lat="44.99538854253769" lon="13.807656015878859"><ele>85.5</ele><time>2026-05-01T11:35:13.999Z</time></trkpt><trkpt lat="44.995425779527366" lon="13.80775631657772"><ele>86.0</ele><time>2026-05-01T11:35:14.999Z</time></trkpt><trkpt lat="44.99548176866913" lon="13.807824385344503"><ele>86.5</ele><time>2026-05-01T11:35:15.999Z</time></trkpt><trkpt lat="44.99556454748411" lon="13.807844732458731"><ele>87.0</ele><time>2026-05-01T11:35:16.999Z</time></trkpt><trkpt lat="44.995653878722656" lon="13.807819575132095"><ele>87.5</ele><time>2026-05-01T11:35:17.999Z</time></trkpt><trkpt lat="44.99572993433193" lon="13.807802846962028"><ele>88.0</ele><time>2026-05-01T11:35:18.999Z</time></trkpt><trkpt lat="44.995800879916956" lon="13.807829142752354"><ele>87.0</ele><time>2026-05-01T11:35:19.999Z</time></trkpt><trkpt lat="44.995860801567744" lon="13.807912452540767"><ele>86.0</ele><time>2026-05-01T11:35:20.999Z</time></trkpt><trkpt lat="44.99589279058807" lon="13.808036364050476"><ele>85.0</ele><time>2026-05-01T11:35:21.999Z</time></trkpt><trkpt lat="44.995903369978706" lon="13.808181182856933"><ele>84.0</ele><time>2026-05-01T11:35:22.999Z</time></trkpt><trkpt lat="44.99590395306197" lon="13.808328690383723"><ele>83.0</ele><time>2026-05-01T11:35:23.999Z</time></trkpt><trkpt lat="44.99590394238268" lon="13.808455231480238"><ele>83.80000000000001</ele><time>2026-05-01T11:35:24.999Z</time></trkpt><trkpt lat="44.99592716581415" lon="13.808573754300479"><ele>84.6</ele><time>2026-05-01T11:35:25.999Z</time></trkpt><trkpt lat="44.99597144298706" lon="13.8087046788181"><ele>85.4</ele><time>2026-05-01T11:35:26.999Z</time></trkpt><trkpt lat="44.996014971841916" lon="13.8088408947252"><ele>86.19999999999999</ele><time>2026-05-01T11:35:27.999Z</time></trkpt><trkpt lat="44.99605361804522" lon="13.808984784216873"><ele>87.0</ele><time>2026-05-01T11:35:28.999Z</time></trkpt><trkpt lat="44.99610340668009" lon="13.809122365585312"><ele>87.0</ele><time>2026-05-01T11:35:29.999Z</time></trkpt><trkpt lat="44.996173781672866" lon="13.809243528190349"><ele>87.0</ele><time>2026-05-01T11:35:30.999Z</time></trkpt><trkpt lat="44.996245393593675" lon="13.809348201851064"><ele>87.0</ele><time>2026-05-01T11:35:31.999Z</time></trkpt><trkpt lat="44.9963172741637" lon="13.809459459401014"><ele>87.0</ele><time>2026-05-01T11:35:32.999Z</time></trkpt><trkpt lat="44.996391852419634" lon="13.809577331164547"><ele>87.0</ele><time>2026-05-01T11:35:33.999Z</time></trkpt><trkpt lat="44.996467585651246" lon="13.809703031161819"><ele>87.25</ele><time>2026-05-01T11:35:34.999Z</time></trkpt><trkpt lat="44.99654637180379" lon="13.809827403344281"><ele>87.5</ele><time>2026-05-01T11:35:35.999Z</time></trkpt><trkpt lat="44.9966310484566" lon="13.809946867042353"><ele>87.75</ele><time>2026-05-01T11:35:36.999Z</time></trkpt><trkpt lat="44.996720209950404" lon="13.810068038006836"><ele>88.0</ele><time>2026-05-01T11:35:37.999Z</time></trkpt><trkpt lat="44.99680951278948" lon="13.810187651578534"><ele>88.5</ele><time>2026-05-01T11:35:38.999Z</time></trkpt><trkpt lat="44.996899228424084" lon="13.810310988248249"><ele>89.0</ele><time>2026-05-01T11:35:39.999Z</time></trkpt><trkpt lat="44.99697602664053" lon="13.810450936793298"><ele>89.5</ele><time>2026-05-01T11:35:40.999Z</time></trkpt><trkpt lat="44.99703695189575" lon="13.810609415867816"><ele>90.0</ele><time>2026-05-01T11:35:41.999Z</time></trkpt><trkpt lat="44.997071177179485" lon="13.810781152522715"><ele>90.0</ele><time>2026-05-01T11:35:42.999Z</time></trkpt><trkpt lat="44.9970948157362" lon="13.810967360068423"><ele>90.0</ele><time>2026-05-01T11:35:43.999Z</time></trkpt><trkpt lat="44.99712312762171" lon="13.81115155324956"><ele>90.0</ele><time>2026-05-01T11:35:44.999Z</time></trkpt><trkpt lat="44.99716652706652" lon="13.811330868222838"><ele>90.0</ele><time>2026-05-01T11:35:45.999Z</time></trkpt><trkpt lat="44.9972187949837" lon="13.811501940163273"><ele>90.5</ele><time>2026-05-01T11:35:46.999Z</time></trkpt><trkpt lat="44.997283861102105" lon="13.811667695832636"><ele>91.0</ele><time>2026-05-01T11:35:47.999Z</time></trkpt><trkpt lat="44.997351676275244" lon="13.81183315322528"><ele>91.5</ele><time>2026-05-01T11:35:48.999Z</time></trkpt><trkpt lat="44.99740690515448" lon="13.812007262669601"><ele>92.0</ele><time>2026-05-01T11:35:49.999Z</time></trkpt><trkpt lat="44.99745354315598" lon="13.812189302216655"><ele>92.5</ele><time>2026-05-01T11:35:50.999Z</time></trkpt><trkpt lat="44.99748922642824" lon="13.81237524613833"><ele>93.0</ele><time>2026-05-01T11:35:51.999Z</time></trkpt><trkpt lat="44.99752380133749" lon="13.812556583531428"><ele>93.5</ele><time>2026-05-01T11:35:52.999Z</time></trkpt><trkpt lat="44.9975567071267" lon="13.812739146633497"><ele>94.0</ele><time>2026-05-01T11:35:53.999Z</time></trkpt><trkpt lat="44.99759172617171" lon="13.812919503240837"><ele>94.5</ele><time>2026-05-01T11:35:54.999Z</time></trkpt><trkpt lat="44.99762790356131" lon="13.81310397013625"><ele>95.0</ele><time>2026-05-01T11:35:55.999Z</time></trkpt><trkpt lat="44.997650129591314" lon="13.813296557447181"><ele>95.5</ele><time>2026-05-01T11:35:56.999Z</time></trkpt><trkpt lat="44.99765155547956" lon="13.813491834919496"><ele>96.0</ele><time>2026-05-01T11:35:57.999Z</time></trkpt><trkpt lat="44.99765817303902" lon="13.813668401149583"><ele>96.75</ele><time>2026-05-01T11:35:58.999Z</time></trkpt><trkpt lat="44.997704950369716" lon="13.813830383887527"><ele>97.5</ele><time>2026-05-01T11:35:59.999Z</time></trkpt><trkpt lat="44.99778674116981" lon="13.813985031959886"><ele>98.25</ele><time>2026-05-01T11:36:00.999Z</time></trkpt><trkpt lat="44.99787378215843" lon="13.814144587811064"><ele>99.0</ele><time>2026-05-01T11:36:01.999Z</time></trkpt><trkpt lat="44.997942446624236" lon="13.814317396311697"><ele>99.75</ele><time>2026-05-01T11:36:02.999Z</time></trkpt><trkpt lat="44.99800277939723" lon="13.814501075720857"><ele>100.5</ele><time>2026-05-01T11:36:03.999Z</time></trkpt><trkpt lat="44.99807145420477" lon="13.81467923545325"><ele>101.25</ele><time>2026-05-01T11:36:04.999Z</time></trkpt><trkpt lat="44.99814943779221" lon="13.814845554549487"><ele>102.0</ele><time>2026-05-01T11:36:05.999Z</time></trkpt><trkpt lat="44.99823236772389" lon="13.81501082224063"><ele>102.5</ele><time>2026-05-01T11:36:06.999Z</time></trkpt><trkpt lat="44.99830508952711" lon="13.815185731995378"><ele>103.0</ele><time>2026-05-01T11:36:07.999Z</time></trkpt><trkpt lat="44.99837846494348" lon="13.815361799330462"><ele>103.5</ele><time>2026-05-01T11:36:08.999Z</time></trkpt><trkpt lat="44.998467499381064" lon="13.81552260097944"><ele>104.0</ele><time>2026-05-01T11:36:09.999Z</time></trkpt><trkpt lat="44.99857520536615" lon="13.815650690480636"><ele>104.25</ele><time>2026-05-01T11:36:10.999Z</time></trkpt><trkpt lat="44.998686839609945" lon="13.815756736155532"><ele>104.5</ele><time>2026-05-01T11:36:11.999Z</time></trkpt><trkpt lat="44.99877862394059" lon="13.815869293725697"><ele>104.75</ele><time>2026-05-01T11:36:12.999Z</time></trkpt><trkpt lat="44.9988412295515" lon="13.816024198510043"><ele>105.0</ele><time>2026-05-01T11:36:13.999Z</time></trkpt><trkpt lat="44.99887006302227" lon="13.816210850879601"><ele>105.5</ele><time>2026-05-01T11:36:14.999Z</time></trkpt><trkpt lat="44.99887732636565" lon="13.816403951599062"><ele>106.0</ele><time>2026-05-01T11:36:15.999Z</time></trkpt><trkpt lat="44.99889421654382" lon="13.816590423452872"><ele>106.5</ele><time>2026-05-01T11:36:16.999Z</time></trkpt><trkpt lat="44.99892796979114" lon="13.816769553703152"><ele>107.0</ele><time>2026-05-01T11:36:17.999Z</time></trkpt><trkpt lat="44.99897252063374" lon="13.816945505196552"><ele>107.5</ele><time>2026-05-01T11:36:18.999Z</time></trkpt><trkpt lat="44.99902747213051" lon="13.81711613035019"><ele>108.0</ele><time>2026-05-01T11:36:19.999Z</time></trkpt><trkpt lat="44.999087409203575" lon="13.817281820681677"><ele>108.5</ele><time>2026-05-01T11:36:20.999Z</time></trkpt><trkpt lat="44.99915100223423" lon="13.817440398416801"><ele>109.0</ele><time>2026-05-01T11:36:21.999Z</time></trkpt><trkpt lat="44.99921278654581" lon="13.817585758338533"><ele>109.4</ele><time>2026-05-01T11:36:22.999Z</time></trkpt><trkpt lat="44.99926754645892" lon="13.817720198904873"><ele>109.80000000000001</ele><time>2026-05-01T11:36:23.999Z</time></trkpt><trkpt lat="44.99932201249345" lon="13.817840869372223"><ele>110.19999999999999</ele><time>2026-05-01T11:36:24.999Z</time></trkpt><trkpt lat="44.99937332447537" lon="13.817949980312246"><ele>110.6</ele><time>2026-05-01T11:36:25.999Z</time></trkpt><trkpt lat="44.99941648869574" lon="13.818047762916885"><ele>111.0</ele><time>2026-05-01T11:36:26.999Z</time></trkpt><trkpt lat="44.99945366281931" lon="13.81813923298083"><ele>111.0</ele><time>2026-05-01T11:36:27.999Z</time></trkpt><trkpt lat="44.99951486082343" lon="13.818283113413617"><ele>111.0</ele><time>2026-05-01T11:36:29.999Z</time></trkpt><trkpt lat="44.99956007369513" lon="13.818395524971121"><ele>111.0</ele><time>2026-05-01T11:36:31.999Z</time></trkpt><trkpt lat="44.999564442237244" lon="13.818507852120716"><ele>111.0</ele><time>2026-05-01T11:36:34.999Z</time></trkpt><trkpt lat="44.99950105882797" lon="13.818603942181463"><ele>111.0</ele><time>2026-05-01T11:36:37.999Z</time></trkpt><trkpt lat="44.99943239415749" lon="13.818654040043263"><ele>111.4</ele><time>2026-05-01T11:36:38.999Z</time></trkpt><trkpt lat="44.99937900132406" lon="13.81871282512341"><ele>111.8</ele><time>2026-05-01T11:36:39.999Z</time></trkpt><trkpt lat="44.99932781722587" lon="13.81877520914969"><ele>112.20000000000002</ele><time>2026-05-01T11:36:40.999Z</time></trkpt><trkpt lat="44.999251813456645" lon="13.81885612871081"><ele>112.60000000000001</ele><time>2026-05-01T11:36:41.999Z</time></trkpt><trkpt lat="44.999166554906" lon="13.818949605018203"><ele>113.0</ele><time>2026-05-01T11:36:42.999Z</time></trkpt><trkpt lat="44.9990684184834" lon="13.819055559060654"><ele>113.0</ele><time>2026-05-01T11:36:43.999Z</time></trkpt><trkpt lat="44.99896710439671" lon="13.819166316859523"><ele>113.0</ele><time>2026-05-01T11:36:44.999Z</time></trkpt><trkpt lat="44.99884185087534" lon="13.819295406627472"><ele>113.0</ele><time>2026-05-01T11:36:45.999Z</time></trkpt><trkpt lat="44.998699330310956" lon="13.81944027299794"><ele>114.0</ele><time>2026-05-01T11:36:46.999Z</time></trkpt><trkpt lat="44.99856018881624" lon="13.819585476634185"><ele>115.0</ele><time>2026-05-01T11:36:47.999Z</time></trkpt><trkpt lat="44.99841408302509" lon="13.819740961244968"><ele>116.0</ele><time>2026-05-01T11:36:48.999Z</time></trkpt><trkpt lat="44.99825989112372" lon="13.819903178542459"><ele>116.0</ele><time>2026-05-01T11:36:49.999Z</time></trkpt><trkpt lat="44.998104917423845" lon="13.820061520956944"><ele>116.0</ele><time>2026-05-01T11:36:50.999Z</time></trkpt><trkpt lat="44.997958459503906" lon="13.820209384163357"><ele>116.0</ele><time>2026-05-01T11:36:51.999Z</time></trkpt><trkpt lat="44.99780979265059" lon="13.820365091326126"><ele>117.33333333333333</ele><time>2026-05-01T11:36:52.999Z</time></trkpt><trkpt lat="44.99765780133222" lon="13.82052055340943"><ele>118.66666666666666</ele><time>2026-05-01T11:36:53.999Z</time></trkpt><trkpt lat="44.9975066039539" lon="13.820676638242112"><ele>120.0</ele><time>2026-05-01T11:36:54.999Z</time></trkpt><trkpt lat="44.99735792116697" lon="13.82083382498064"><ele>121.33333333333334</ele><time>2026-05-01T11:36:55.999Z</time></trkpt><trkpt lat="44.99720429577375" lon="13.82099130070161"><ele>122.66666666666667</ele><time>2026-05-01T11:36:56.999Z</time></trkpt><trkpt lat="44.997051175220605" lon="13.821154164091265"><ele>124.0</ele><time>2026-05-01T11:36:57.999Z</time></trkpt><trkpt lat="44.99689710046694" lon="13.82131145404798"><ele>124.0</ele><time>2026-05-01T11:36:58.999Z</time></trkpt><trkpt lat="44.99674351097177" lon="13.821463369679545"><ele>124.0</ele><time>2026-05-01T11:36:59.999Z</time></trkpt><trkpt lat="44.996588796077084" lon="13.821622432335047"><ele>124.0</ele><time>2026-05-01T11:37:00.999Z</time></trkpt><trkpt lat="44.99643516901365" lon="13.821784972403472"><ele>124.0</ele><time>2026-05-01T11:37:01.999Z</time></trkpt><trkpt lat="44.996282080219245" lon="13.821946242570773"><ele>124.0</ele><time>2026-05-01T11:37:02.999Z</time></trkpt><trkpt lat="44.99613072697986" lon="13.822105556355625"><ele>124.0</ele><time>2026-05-01T11:37:03.999Z</time></trkpt><trkpt lat="44.99597460786541" lon="13.822267603488415"><ele>124.0</ele><time>2026-05-01T11:37:04.999Z</time></trkpt><trkpt lat="44.99581745774806" lon="13.822425648635802"><ele>124.0</ele><time>2026-05-01T11:37:05.999Z</time></trkpt><trkpt lat="44.99566169603301" lon="13.822586204740134"><ele>124.0</ele><time>2026-05-01T11:37:06.999Z</time></trkpt><trkpt lat="44.99550872164208" lon="13.822743637886763"><ele>124.66666666666667</ele><time>2026-05-01T11:37:07.999Z</time></trkpt><trkpt lat="44.99535426094481" lon="13.822906003123883"><ele>125.33333333333334</ele><time>2026-05-01T11:37:08.999Z</time></trkpt><trkpt lat="44.99519891996778" lon="13.823068948998008"><ele>126.0</ele><time>2026-05-01T11:37:09.998Z</time></trkpt><trkpt lat="44.99504663061361" lon="13.823223024220606"><ele>126.0</ele><time>2026-05-01T11:37:10.998Z</time></trkpt><trkpt lat="44.99489123602598" lon="13.823380451875858"><ele>126.0</ele><time>2026-05-01T11:37:11.998Z</time></trkpt><trkpt lat="44.9947404882787" lon="13.823529087310868"><ele>126.0</ele><time>2026-05-01T11:37:13Z</time></trkpt><trkpt lat="44.99458717492855" lon="13.823692768479406"><ele>127.0</ele><time>2026-05-01T11:37:14Z</time></trkpt><trkpt lat="44.99443551298327" lon="13.82385388943682"><ele>128.0</ele><time>2026-05-01T11:37:15Z</time></trkpt><trkpt lat="44.99428365851259" lon="13.824011937126592"><ele>129.0</ele><time>2026-05-01T11:37:16Z</time></trkpt><trkpt lat="44.99413152318086" lon="13.824171828510146"><ele>130.0</ele><time>2026-05-01T11:37:17Z</time></trkpt><trkpt lat="44.99397868990812" lon="13.824330827878743"><ele>131.0</ele><time>2026-05-01T11:37:18Z</time></trkpt><trkpt lat="44.99382553689525" lon="13.824491550825332"><ele>132.0</ele><time>2026-05-01T11:37:19Z</time></trkpt><trkpt lat="44.99367316098897" lon="13.824653577251448"><ele>132.0</ele><time>2026-05-01T11:37:20Z</time></trkpt><trkpt lat="44.9935208773858" lon="13.824805194861003"><ele>132.0</ele><time>2026-05-01T11:37:21Z</time></trkpt><trkpt lat="44.993368364124564" lon="13.82496694001934"><ele>132.0</ele><time>2026-05-01T11:37:22Z</time></trkpt><trkpt lat="44.993218032303396" lon="13.825122060545835"><ele>132.66666666666666</ele><time>2026-05-01T11:37:23Z</time></trkpt><trkpt lat="44.99306544285323" lon="13.825281330136734"><ele>133.33333333333331</ele><time>2026-05-01T11:37:24Z</time></trkpt><trkpt lat="44.992912924773904" lon="13.825434499156861"><ele>134.0</ele><time>2026-05-01T11:37:25Z</time></trkpt><trkpt lat="44.99275999758774" lon="13.825589363381177"><ele>134.0</ele><time>2026-05-01T11:37:26Z</time></trkpt><trkpt lat="44.99260793772927" lon="13.825752334871881"><ele>134.0</ele><time>2026-05-01T11:37:27Z</time></trkpt><trkpt lat="44.99245639047256" lon="13.825918559897618"><ele>134.0</ele><time>2026-05-01T11:37:28Z</time></trkpt><trkpt lat="44.99229931283299" lon="13.82607999234913"><ele>134.66666666666666</ele><time>2026-05-01T11:37:29Z</time></trkpt><trkpt lat="44.99213647815501" lon="13.826238990396037"><ele>135.33333333333334</ele><time>2026-05-01T11:37:30Z</time></trkpt><trkpt lat="44.99197219286655" lon="13.826398236514866"><ele>136.0</ele><time>2026-05-01T11:37:31Z</time></trkpt><trkpt lat="44.99180720586751" lon="13.82655816776172"><ele>136.33333333333334</ele><time>2026-05-01T11:37:32Z</time></trkpt><trkpt lat="44.99164252992667" lon="13.826723025152523"><ele>136.66666666666666</ele><time>2026-05-01T11:37:33Z</time></trkpt><trkpt lat="44.99147830070384" lon="13.826885703084882"><ele>137.0</ele><time>2026-05-01T11:37:34Z</time></trkpt><trkpt lat="44.991306222959466" lon="13.827048471254209"><ele>137.0</ele><time>2026-05-01T11:37:35Z</time></trkpt><trkpt lat="44.99114477453596" lon="13.827209388694317"><ele>137.0</ele><time>2026-05-01T11:37:36Z</time></trkpt><trkpt lat="44.990976130089685" lon="13.82737106356651"><ele>137.0</ele><time>2026-05-01T11:37:37Z</time></trkpt><trkpt lat="44.990797398564936" lon="13.827532865034732"><ele>138.66666666666666</ele><time>2026-05-01T11:37:38Z</time></trkpt><trkpt lat="44.99061837464168" lon="13.82768175806768"><ele>140.33333333333334</ele><time>2026-05-01T11:37:39Z</time></trkpt><trkpt lat="44.99046322292878" lon="13.82783027081165"><ele>142.0</ele><time>2026-05-01T11:37:40Z</time></trkpt><trkpt lat="44.99029669388004" lon="13.82797583297745"><ele>142.0</ele><time>2026-05-01T11:37:41Z</time></trkpt><trkpt lat="44.99012900760591" lon="13.82812071998951"><ele>142.0</ele><time>2026-05-01T11:37:42Z</time></trkpt><trkpt lat="44.989964403745994" lon="13.828272146170491"><ele>142.0</ele><time>2026-05-01T11:37:43Z</time></trkpt><trkpt lat="44.98979883353967" lon="13.828420266406178"><ele>142.33333333333334</ele><time>2026-05-01T11:37:44Z</time></trkpt><trkpt lat="44.98963277306968" lon="13.828564603632802"><ele>142.66666666666666</ele><time>2026-05-01T11:37:45Z</time></trkpt><trkpt lat="44.98946808775732" lon="13.828709883454396"><ele>143.0</ele><time>2026-05-01T11:37:46Z</time></trkpt><trkpt lat="44.98930403748962" lon="13.828856904486331"><ele>141.33333333333331</ele><time>2026-05-01T11:37:46.999Z</time></trkpt><trkpt lat="44.9891375207298" lon="13.829003431598911"><ele>139.66666666666666</ele><time>2026-05-01T11:37:47.999Z</time></trkpt><trkpt lat="44.98897324044671" lon="13.829151224601864"><ele>138.0</ele><time>2026-05-01T11:37:48.999Z</time></trkpt><trkpt lat="44.98880920903371" lon="13.829302298514213"><ele>137.66666666666666</ele><time>2026-05-01T11:37:49.999Z</time></trkpt><trkpt lat="44.988640227879124" lon="13.829448273351659"><ele>137.33333333333331</ele><time>2026-05-01T11:37:50.999Z</time></trkpt><trkpt lat="44.98847049365226" lon="13.829592289597885"><ele>137.0</ele><time>2026-05-01T11:37:51.999Z</time></trkpt><trkpt lat="44.98830456679082" lon="13.829736621337403"><ele>137.0</ele><time>2026-05-01T11:37:52.999Z</time></trkpt><trkpt lat="44.98813536031608" lon="13.829881215979619"><ele>137.0</ele><time>2026-05-01T11:37:53.999Z</time></trkpt><trkpt lat="44.98796894978656" lon="13.83002804415111"><ele>137.0</ele><time>2026-05-01T11:37:54.999Z</time></trkpt><trkpt lat="44.98780398673287" lon="13.830178638231828"><ele>137.33333333333331</ele><time>2026-05-01T11:37:55.999Z</time></trkpt><trkpt lat="44.9876406956474" lon="13.830328221288557"><ele>137.66666666666666</ele><time>2026-05-01T11:37:56.999Z</time></trkpt><trkpt lat="44.98747125306264" lon="13.830475511393772"><ele>138.0</ele><time>2026-05-01T11:37:57.999Z</time></trkpt><trkpt lat="44.987306014504654" lon="13.830616855603672"><ele>138.0</ele><time>2026-05-01T11:37:58.999Z</time></trkpt><trkpt lat="44.987135424357064" lon="13.83075767279055"><ele>138.0</ele><time>2026-05-01T11:37:59.999Z</time></trkpt><trkpt lat="44.98696538943929" lon="13.830889271033605"><ele>138.0</ele><time>2026-05-01T11:38:00.999Z</time></trkpt><trkpt lat="44.98679233777147" lon="13.83101080169021"><ele>139.33333333333334</ele><time>2026-05-01T11:38:01.999Z</time></trkpt><trkpt lat="44.98662012889718" lon="13.831128027029623"><ele>140.66666666666669</ele><time>2026-05-01T11:38:02.999Z</time></trkpt><trkpt lat="44.986445838345176" lon="13.831240755041843"><ele>142.0</ele><time>2026-05-01T11:38:03.999Z</time></trkpt><trkpt lat="44.986270001867545" lon="13.831342912875916"><ele>142.0</ele><time>2026-05-01T11:38:04.999Z</time></trkpt><trkpt lat="44.98609223976833" lon="13.831445542486586"><ele>142.0</ele><time>2026-05-01T11:38:05.999Z</time></trkpt><trkpt lat="44.985916727080195" lon="13.831555363167672"><ele>142.0</ele><time>2026-05-01T11:38:06.999Z</time></trkpt><trkpt lat="44.985743985872205" lon="13.83166607515139"><ele>142.66666666666669</ele><time>2026-05-01T11:38:07.999Z</time></trkpt><trkpt lat="44.98556936279349" lon="13.831778917800614"><ele>143.33333333333334</ele><time>2026-05-01T11:38:08.999Z</time></trkpt><trkpt lat="44.985396440283935" lon="13.831897597279678"><ele>144.0</ele><time>2026-05-01T11:38:09.999Z</time></trkpt><trkpt lat="44.98522199592484" lon="13.83201521132034"><ele>144.0</ele><time>2026-05-01T11:38:10.999Z</time></trkpt><trkpt lat="44.98505138601181" lon="13.832128869480432"><ele>144.0</ele><time>2026-05-01T11:38:11.999Z</time></trkpt><trkpt lat="44.984879527125166" lon="13.832247467609085"><ele>144.0</ele><time>2026-05-01T11:38:12.999Z</time></trkpt><trkpt lat="44.98470975363978" lon="13.832368981932724"><ele>143.33333333333334</ele><time>2026-05-01T11:38:13.999Z</time></trkpt><trkpt lat="44.98454301049088" lon="13.832494713425632"><ele>142.66666666666669</ele><time>2026-05-01T11:38:14.999Z</time></trkpt><trkpt lat="44.98437574531444" lon="13.832627258404777"><ele>142.0</ele><time>2026-05-01T11:38:15.999Z</time></trkpt><trkpt lat="44.98421545884337" lon="13.83277099046052"><ele>141.0</ele><time>2026-05-01T11:38:16.999Z</time></trkpt><trkpt lat="44.98406005788187" lon="13.832927300599241"><ele>140.0</ele><time>2026-05-01T11:38:17.999Z</time></trkpt><trkpt lat="44.9839058768199" lon="13.833092897354806"><ele>139.0</ele><time>2026-05-01T11:38:18.999Z</time></trkpt><trkpt lat="44.983755484149725" lon="13.833263623811824"><ele>139.0</ele><time>2026-05-01T11:38:19.999Z</time></trkpt><trkpt lat="44.98361062492345" lon="13.833440049214975"><ele>139.0</ele><time>2026-05-01T11:38:20.999Z</time></trkpt><trkpt lat="44.98346536360094" lon="13.833625719844958"><ele>139.0</ele><time>2026-05-01T11:38:21.999Z</time></trkpt><trkpt lat="44.9833189266104" lon="13.833812560149745"><ele>139.0</ele><time>2026-05-01T11:38:22.999Z</time></trkpt><trkpt lat="44.98317904366509" lon="13.834000508682745"><ele>139.0</ele><time>2026-05-01T11:38:23.999Z</time></trkpt><trkpt lat="44.98303620750617" lon="13.834187783493384"><ele>139.0</ele><time>2026-05-01T11:38:24.999Z</time></trkpt><trkpt lat="44.98289398517711" lon="13.834371905240358"><ele>139.66666666666669</ele><time>2026-05-01T11:38:25.999Z</time></trkpt><trkpt lat="44.98275476866239" lon="13.834553167507325"><ele>140.33333333333334</ele><time>2026-05-01T11:38:26.999Z</time></trkpt><trkpt lat="44.98261743151939" lon="13.83473154575363"><ele>141.0</ele><time>2026-05-01T11:38:27.999Z</time></trkpt><trkpt lat="44.982473602369396" lon="13.834909575967279"><ele>141.0</ele><time>2026-05-01T11:38:28.999Z</time></trkpt><trkpt lat="44.9823277662528" lon="13.83509244670293"><ele>141.0</ele><time>2026-05-01T11:38:29.999Z</time></trkpt><trkpt lat="44.98218725922697" lon="13.835277988709638"><ele>141.0</ele><time>2026-05-01T11:38:30.999Z</time></trkpt><trkpt lat="44.982043888024776" lon="13.835463770838238"><ele>141.0</ele><time>2026-05-01T11:38:31.999Z</time></trkpt><trkpt lat="44.98190030383796" lon="13.83564319393074"><ele>141.0</ele><time>2026-05-01T11:38:32.999Z</time></trkpt><trkpt lat="44.98176089760727" lon="13.83582574717604"><ele>141.0</ele><time>2026-05-01T11:38:33.999Z</time></trkpt><trkpt lat="44.981620401786955" lon="13.836010693108193"><ele>140.33333333333334</ele><time>2026-05-01T11:38:34.999Z</time></trkpt><trkpt lat="44.9814841020747" lon="13.836187955519865"><ele>139.66666666666669</ele><time>2026-05-01T11:38:35.999Z</time></trkpt><trkpt lat="44.98134290714935" lon="13.836360644014725"><ele>139.0</ele><time>2026-05-01T11:38:36.999Z</time></trkpt><trkpt lat="44.98120131761218" lon="13.836531239759886"><ele>139.0</ele><time>2026-05-01T11:38:37.999Z</time></trkpt><trkpt lat="44.981051554788" lon="13.836693397538026"><ele>139.0</ele><time>2026-05-01T11:38:38.999Z</time></trkpt><trkpt lat="44.98089724434698" lon="13.8368444707333"><ele>139.0</ele><time>2026-05-01T11:38:39.999Z</time></trkpt><trkpt lat="44.98073797432228" lon="13.836998662549899"><ele>138.33333333333334</ele><time>2026-05-01T11:38:40.999Z</time></trkpt><trkpt lat="44.98058309161668" lon="13.837149606835714"><ele>137.66666666666666</ele><time>2026-05-01T11:38:41.999Z</time></trkpt><trkpt lat="44.98042975957626" lon="13.83730394715721"><ele>137.0</ele><time>2026-05-01T11:38:42.999Z</time></trkpt><trkpt lat="44.98027749411805" lon="13.837462499652405"><ele>137.0</ele><time>2026-05-01T11:38:43.999Z</time></trkpt><trkpt lat="44.98012235393162" lon="13.83762069159749"><ele>137.0</ele><time>2026-05-01T11:38:44.999Z</time></trkpt><trkpt lat="44.979972909899686" lon="13.83778279575196"><ele>137.0</ele><time>2026-05-01T11:38:45.999Z</time></trkpt><trkpt lat="44.97981537712531" lon="13.837933946565709"><ele>136.0</ele><time>2026-05-01T11:38:46.999Z</time></trkpt><trkpt lat="44.97966977917445" lon="13.838102377182725"><ele>135.0</ele><time>2026-05-01T11:38:47.999Z</time></trkpt><trkpt lat="44.97952435017583" lon="13.8382638590942"><ele>134.0</ele><time>2026-05-01T11:38:48.999Z</time></trkpt><trkpt lat="44.97937800890682" lon="13.838422489102896"><ele>134.33333333333331</ele><time>2026-05-01T11:38:49.999Z</time></trkpt><trkpt lat="44.97923318520308" lon="13.838581002532173"><ele>134.66666666666666</ele><time>2026-05-01T11:38:50.999Z</time></trkpt><trkpt lat="44.97908680236839" lon="13.838746982123544"><ele>135.0</ele><time>2026-05-01T11:38:51.999Z</time></trkpt><trkpt lat="44.9789451847922" lon="13.838903932443797"><ele>136.0</ele><time>2026-05-01T11:38:52.999Z</time></trkpt><trkpt lat="44.97880016267001" lon="13.839058767578724"><ele>137.0</ele><time>2026-05-01T11:38:53.999Z</time></trkpt><trkpt lat="44.978657466997" lon="13.83921049974675"><ele>138.0</ele><time>2026-05-01T11:38:54.999Z</time></trkpt><trkpt lat="44.97851390152089" lon="13.839359299785045"><ele>138.0</ele><time>2026-05-01T11:38:55.999Z</time></trkpt><trkpt lat="44.978374929785915" lon="13.839516490531862"><ele>138.0</ele><time>2026-05-01T11:38:56.999Z</time></trkpt><trkpt lat="44.9782319035121" lon="13.839668698652773"><ele>138.0</ele><time>2026-05-01T11:38:57.999Z</time></trkpt><trkpt lat="44.97808879906356" lon="13.839820307265779"><ele>138.0</ele><time>2026-05-01T11:38:58.999Z</time></trkpt><trkpt lat="44.97794394713927" lon="13.83997189834659"><ele>138.0</ele><time>2026-05-01T11:38:59.999Z</time></trkpt><trkpt lat="44.97779919732072" lon="13.840123668154893"><ele>138.0</ele><time>2026-05-01T11:39:00.999Z</time></trkpt><trkpt lat="44.9776577070082" lon="13.840285453915657"><ele>136.33333333333334</ele><time>2026-05-01T11:39:01.999Z</time></trkpt><trkpt lat="44.977507897866296" lon="13.840446027747372"><ele>134.66666666666669</ele><time>2026-05-01T11:39:02.999Z</time></trkpt><trkpt lat="44.97735521641185" lon="13.840610855680566"><ele>133.0</ele><time>2026-05-01T11:39:03.999Z</time></trkpt><trkpt lat="44.97720639098225" lon="13.840771657295992"><ele>133.0</ele><time>2026-05-01T11:39:04.999Z</time></trkpt><trkpt lat="44.9770578881442" lon="13.840933208446412"><ele>133.0</ele><time>2026-05-01T11:39:05.999Z</time></trkpt><trkpt lat="44.9769121368601" lon="13.84109502105233"><ele>133.0</ele><time>2026-05-01T11:39:06.999Z</time></trkpt><trkpt lat="44.976775607881876" lon="13.841247705588142"><ele>134.66666666666669</ele><time>2026-05-01T11:39:07.999Z</time></trkpt><trkpt lat="44.97664910718663" lon="13.841387521204142"><ele>136.33333333333334</ele><time>2026-05-01T11:39:08.999Z</time></trkpt><trkpt lat="44.97651493667919" lon="13.841536273365401"><ele>138.0</ele><time>2026-05-01T11:39:09.999Z</time></trkpt><trkpt lat="44.97638024816805" lon="13.841683955500374"><ele>138.0</ele><time>2026-05-01T11:39:10.999Z</time></trkpt><trkpt lat="44.97624376626518" lon="13.841827202414306"><ele>138.0</ele><time>2026-05-01T11:39:11.999Z</time></trkpt><trkpt lat="44.9761042454814" lon="13.841974721714996"><ele>138.0</ele><time>2026-05-01T11:39:12.999Z</time></trkpt><trkpt lat="44.97596693290068" lon="13.842121877774208"><ele>138.0</ele><time>2026-05-01T11:39:13.999Z</time></trkpt><trkpt lat="44.97583238845032" lon="13.842270239730409"><ele>138.0</ele><time>2026-05-01T11:39:14.999Z</time></trkpt><trkpt lat="44.97569699210353" lon="13.842418934535335"><ele>138.0</ele><time>2026-05-01T11:39:15.999Z</time></trkpt><trkpt lat="44.97556724622832" lon="13.842566744699154"><ele>137.66666666666666</ele><time>2026-05-01T11:39:16.999Z</time></trkpt><trkpt lat="44.97544610581411" lon="13.842704462024303"><ele>137.33333333333331</ele><time>2026-05-01T11:39:17.999Z</time></trkpt><trkpt lat="44.97532027254937" lon="13.8428395014334"><ele>137.0</ele><time>2026-05-01T11:39:19Z</time></trkpt><trkpt lat="44.975189512168214" lon="13.842969446452805"><ele>137.0</ele><time>2026-05-01T11:39:20Z</time></trkpt><trkpt lat="44.97505481024054" lon="13.84310723000814"><ele>137.0</ele><time>2026-05-01T11:39:21Z</time></trkpt><trkpt lat="44.97491905639918" lon="13.843250327797708"><ele>137.0</ele><time>2026-05-01T11:39:22Z</time></trkpt><trkpt lat="44.97478628140255" lon="13.843401550195813"><ele>136.66666666666666</ele><time>2026-05-01T11:39:23Z</time></trkpt><trkpt lat="44.97466023639415" lon="13.843547380344072"><ele>136.33333333333334</ele><time>2026-05-01T11:39:24Z</time></trkpt><trkpt lat="44.97454544204574" lon="13.843686484342983"><ele>136.0</ele><time>2026-05-01T11:39:25Z</time></trkpt><trkpt lat="44.9744446611269" lon="13.843828595190622"><ele>136.0</ele><time>2026-05-01T11:39:26Z</time></trkpt><trkpt lat="44.97436155698053" lon="13.843968159992498"><ele>136.0</ele><time>2026-05-01T11:39:27Z</time></trkpt><trkpt lat="44.97429055771454" lon="13.844099837074754"><ele>136.0</ele><time>2026-05-01T11:39:28Z</time></trkpt><trkpt lat="44.97423608497727" lon="13.844216033175709"><ele>136.0</ele><time>2026-05-01T11:39:29Z</time></trkpt><trkpt lat="44.9742003706781" lon="13.844328236979136"><ele>136.0</ele><time>2026-05-01T11:39:30Z</time></trkpt><trkpt lat="44.97417903603025" lon="13.844440947778653"><ele>136.2</ele><time>2026-05-01T11:39:31Z</time></trkpt><trkpt lat="44.9741647625134" lon="13.844537865790318"><ele>136.39999999999998</ele><time>2026-05-01T11:39:32Z</time></trkpt><trkpt lat="44.974128030897326" lon="13.844623497035712"><ele>136.6</ele><time>2026-05-01T11:39:33Z</time></trkpt><trkpt lat="44.97404681489896" lon="13.844690040073568"><ele>136.79999999999998</ele><time>2026-05-01T11:39:34Z</time></trkpt><trkpt lat="44.973936641231326" lon="13.844726626358115"><ele>137.0</ele><time>2026-05-01T11:39:35Z</time></trkpt><trkpt lat="44.97382522112132" lon="13.844744697081925"><ele>137.0</ele><time>2026-05-01T11:39:36Z</time></trkpt><trkpt lat="44.97372430779074" lon="13.844760943760354"><ele>137.0</ele><time>2026-05-01T11:39:37Z</time></trkpt><trkpt lat="44.973613645267406" lon="13.844792845572378"><ele>137.0</ele><time>2026-05-01T11:39:38Z</time></trkpt><trkpt lat="44.9734917344131" lon="13.844847410118824"><ele>137.0</ele><time>2026-05-01T11:39:39Z</time></trkpt><trkpt lat="44.973359671659466" lon="13.84491425501325"><ele>137.0</ele><time>2026-05-01T11:39:40Z</time></trkpt><trkpt lat="44.97322528611077" lon="13.845001999623598"><ele>137.0</ele><time>2026-05-01T11:39:41Z</time></trkpt><trkpt lat="44.97309189817007" lon="13.84509258735317"><ele>137.0</ele><time>2026-05-01T11:39:42Z</time></trkpt><trkpt lat="44.97294811993057" lon="13.845179262557448"><ele>137.0</ele><time>2026-05-01T11:39:43Z</time></trkpt><trkpt lat="44.97279948446011" lon="13.84526919777167"><ele>137.0</ele><time>2026-05-01T11:39:44Z</time></trkpt><trkpt lat="44.972642831597305" lon="13.845355817627205"><ele>137.0</ele><time>2026-05-01T11:39:45Z</time></trkpt><trkpt lat="44.97249403764883" lon="13.845440046309648"><ele>137.33333333333331</ele><time>2026-05-01T11:39:46Z</time></trkpt><trkpt lat="44.97234177057764" lon="13.845515479048368"><ele>137.66666666666666</ele><time>2026-05-01T11:39:47Z</time></trkpt><trkpt lat="44.97218439493066" lon="13.845580415403022"><ele>138.0</ele><time>2026-05-01T11:39:48Z</time></trkpt><trkpt lat="44.9720197431581" lon="13.845644060816689"><ele>138.0</ele><time>2026-05-01T11:39:49Z</time></trkpt><trkpt lat="44.97185331139113" lon="13.84570005848621"><ele>138.0</ele><time>2026-05-01T11:39:50Z</time></trkpt><trkpt lat="44.971685543394194" lon="13.84575004544258"><ele>138.0</ele><time>2026-05-01T11:39:51Z</time></trkpt><trkpt lat="44.97151481017277" lon="13.845795410222818"><ele>136.66666666666666</ele><time>2026-05-01T11:39:52Z</time></trkpt><trkpt lat="44.97134675162691" lon="13.845840567718191"><ele>135.33333333333331</ele><time>2026-05-01T11:39:53Z</time></trkpt><trkpt lat="44.97118099242272" lon="13.845885796320594"><ele>134.0</ele><time>2026-05-01T11:39:54Z</time></trkpt><trkpt lat="44.97101345136826" lon="13.845932214986444"><ele>133.33333333333331</ele><time>2026-05-01T11:39:55Z</time></trkpt><trkpt lat="44.97084488890333" lon="13.845976860012934"><ele>132.66666666666666</ele><time>2026-05-01T11:39:56Z</time></trkpt><trkpt lat="44.97067499609765" lon="13.846022649732646"><ele>132.0</ele><time>2026-05-01T11:39:57Z</time></trkpt><trkpt lat="44.9705021897899" lon="13.84607065527178"><ele>132.0</ele><time>2026-05-01T11:39:58Z</time></trkpt><trkpt lat="44.970327064258726" lon="13.846117450099625"><ele>132.0</ele><time>2026-05-01T11:39:59Z</time></trkpt><trkpt lat="44.9701517492168" lon="13.846166335396138"><ele>132.0</ele><time>2026-05-01T11:40:00Z</time></trkpt><trkpt lat="44.969974779283675" lon="13.846209527247918"><ele>132.0</ele><time>2026-05-01T11:40:01Z</time></trkpt><trkpt lat="44.96980161994253" lon="13.846260422222805"><ele>132.0</ele><time>2026-05-01T11:40:02Z</time></trkpt><trkpt lat="44.96964764898201" lon="13.846306998004135"><ele>132.0</ele><time>2026-05-01T11:40:03Z</time></trkpt><trkpt lat="44.969494335837815" lon="13.846350334581134"><ele>132.0</ele><time>2026-05-01T11:40:04Z</time></trkpt><trkpt lat="44.969343628608506" lon="13.846392938013622"><ele>132.0</ele><time>2026-05-01T11:40:05Z</time></trkpt><trkpt lat="44.96919833027908" lon="13.846432406553713"><ele>132.0</ele><time>2026-05-01T11:40:06Z</time></trkpt><trkpt lat="44.969057773104105" lon="13.84647506105181"><ele>132.0</ele><time>2026-05-01T11:40:07Z</time></trkpt><trkpt lat="44.968922469748115" lon="13.846512904717944"><ele>132.25</ele><time>2026-05-01T11:40:08Z</time></trkpt><trkpt lat="44.96879496746065" lon="13.84654641085588"><ele>132.5</ele><time>2026-05-01T11:40:09Z</time></trkpt><trkpt lat="44.968668707603655" lon="13.846577475129791"><ele>132.75</ele><time>2026-05-01T11:40:10Z</time></trkpt><trkpt lat="44.96854698569336" lon="13.846611406755018"><ele>133.0</ele><time>2026-05-01T11:40:10.999Z</time></trkpt><trkpt lat="44.96843362603163" lon="13.846646387225272"><ele>132.20000000000002</ele><time>2026-05-01T11:40:11.999Z</time></trkpt><trkpt lat="44.96832321101525" lon="13.846676415557555"><ele>131.4</ele><time>2026-05-01T11:40:12.999Z</time></trkpt><trkpt lat="44.968223383580664" lon="13.8466993546695"><ele>130.60000000000002</ele><time>2026-05-01T11:40:13.999Z</time></trkpt><trkpt lat="44.96813292263086" lon="13.846712854594195"><ele>129.8</ele><time>2026-05-01T11:40:14.999Z</time></trkpt><trkpt lat="44.96804503734683" lon="13.846723204832143"><ele>129.0</ele><time>2026-05-01T11:40:15.999Z</time></trkpt><trkpt lat="44.967963253094524" lon="13.846724217466734"><ele>128.99999999999997</ele><time>2026-05-01T11:40:16.999Z</time></trkpt><trkpt lat="44.967892577235546" lon="13.846716203921277"><ele>129.0</ele><time>2026-05-01T11:40:17.999Z</time></trkpt><trkpt lat="44.96782759547036" lon="13.846695066543266"><ele>129.0</ele><time>2026-05-01T11:40:18.999Z</time></trkpt><trkpt lat="44.96777004124076" lon="13.84665732158227"><ele>129.0</ele><time>2026-05-01T11:40:19.999Z</time></trkpt><trkpt lat="44.96770603325997" lon="13.84661431038702"><ele>129.0</ele><time>2026-05-01T11:40:20.999Z</time></trkpt><trkpt lat="44.96763783200623" lon="13.84659324992547"><ele>128.99999999999997</ele><time>2026-05-01T11:40:21.999Z</time></trkpt><trkpt lat="44.96757343335506" lon="13.846601372834172"><ele>129.0</ele><time>2026-05-01T11:40:22.999Z</time></trkpt><trkpt lat="44.96750743262834" lon="13.846634056912668"><ele>128.2</ele><time>2026-05-01T11:40:23.999Z</time></trkpt><trkpt lat="44.96742665772539" lon="13.846672410447221"><ele>127.4</ele><time>2026-05-01T11:40:24.999Z</time></trkpt><trkpt lat="44.96734082011197" lon="13.84669159622105"><ele>126.6</ele><time>2026-05-01T11:40:25.999Z</time></trkpt><trkpt lat="44.96725187963487" lon="13.846677440336945"><ele>125.8</ele><time>2026-05-01T11:40:26.999Z</time></trkpt><trkpt lat="44.96715861057258" lon="13.846644877703524"><ele>125.0</ele><time>2026-05-01T11:40:27.999Z</time></trkpt><trkpt lat="44.9670559729034" lon="13.846607383544029"><ele>125.0</ele><time>2026-05-01T11:40:28.999Z</time></trkpt><trkpt lat="44.966945955000995" lon="13.846573560176111"><ele>125.0</ele><time>2026-05-01T11:40:29.999Z</time></trkpt><trkpt lat="44.966828755332" lon="13.846544786231599"><ele>125.0</ele><time>2026-05-01T11:40:30.999Z</time></trkpt><trkpt lat="44.96670661764349" lon="13.846514750016397"><ele>125.0</ele><time>2026-05-01T11:40:31.999Z</time></trkpt><trkpt lat="44.96658849985405" lon="13.846478817408789"><ele>125.0</ele><time>2026-05-01T11:40:32.999Z</time></trkpt><trkpt lat="44.9664690911655" lon="13.846445476311061"><ele>125.0</ele><time>2026-05-01T11:40:33.999Z</time></trkpt><trkpt lat="44.96634192764548" lon="13.84641052448724"><ele>125.0</ele><time>2026-05-01T11:40:34.999Z</time></trkpt><trkpt lat="44.96621039078752" lon="13.846376111376413"><ele>125.0</ele><time>2026-05-01T11:40:35.999Z</time></trkpt><trkpt lat="44.96607304440829" lon="13.846337442365604"><ele>125.0</ele><time>2026-05-01T11:40:36.999Z</time></trkpt><trkpt lat="44.965938548728396" lon="13.846298572606345"><ele>125.0</ele><time>2026-05-01T11:40:37.999Z</time></trkpt><trkpt lat="44.96580112052379" lon="13.84625777389255"><ele>125.0</ele><time>2026-05-01T11:40:38.999Z</time></trkpt><trkpt lat="44.96566315974668" lon="13.846218985568726"><ele>125.0</ele><time>2026-05-01T11:40:39.999Z</time></trkpt><trkpt lat="44.9655268637384" lon="13.846180788879042"><ele>125.25</ele><time>2026-05-01T11:40:40.999Z</time></trkpt><trkpt lat="44.96539440443715" lon="13.846144162911102"><ele>125.5</ele><time>2026-05-01T11:40:41.999Z</time></trkpt><trkpt lat="44.96525820718526" lon="13.846105407282911"><ele>125.75</ele><time>2026-05-01T11:40:42.999Z</time></trkpt><trkpt lat="44.965119588504145" lon="13.846064462689545"><ele>126.0</ele><time>2026-05-01T11:40:43.999Z</time></trkpt><trkpt lat="44.964979934037444" lon="13.84602302554346"><ele>126.0</ele><time>2026-05-01T11:40:44.999Z</time></trkpt><trkpt lat="44.964837260925115" lon="13.845984337068433"><ele>126.0</ele><time>2026-05-01T11:40:45.999Z</time></trkpt><trkpt lat="44.96469628766814" lon="13.845944975421014"><ele>126.0</ele><time>2026-05-01T11:40:46.999Z</time></trkpt><trkpt lat="44.96455541109936" lon="13.845906178094316"><ele>126.0</ele><time>2026-05-01T11:40:47.999Z</time></trkpt><trkpt lat="44.96441556467296" lon="13.84586283823657"><ele>126.0</ele><time>2026-05-01T11:40:48.999Z</time></trkpt><trkpt lat="44.96427310479055" lon="13.845820120165115"><ele>126.0</ele><time>2026-05-01T11:40:49.999Z</time></trkpt><trkpt lat="44.964131195078174" lon="13.845778135578108"><ele>126.0</ele><time>2026-05-01T11:40:50.999Z</time></trkpt><trkpt lat="44.963983880916324" lon="13.845737146797397"><ele>126.0</ele><time>2026-05-01T11:40:51.999Z</time></trkpt><trkpt lat="44.963833358405026" lon="13.845691234532442"><ele>125.33333333333334</ele><time>2026-05-01T11:40:52.999Z</time></trkpt><trkpt lat="44.96368675786292" lon="13.84565231684205"><ele>124.66666666666667</ele><time>2026-05-01T11:40:53.999Z</time></trkpt><trkpt lat="44.96353742596365" lon="13.845609841808576"><ele>124.0</ele><time>2026-05-01T11:40:54.999Z</time></trkpt><trkpt lat="44.96338630312932" lon="13.845565366552414"><ele>124.33333333333334</ele><time>2026-05-01T11:40:55.999Z</time></trkpt><trkpt lat="44.963235917588165" lon="13.845520948893215"><ele>124.66666666666666</ele><time>2026-05-01T11:40:56.999Z</time></trkpt><trkpt lat="44.96309006447226" lon="13.845477834737663"><ele>125.0</ele><time>2026-05-01T11:40:57.999Z</time></trkpt><trkpt lat="44.96294304163229" lon="13.84543544903954"><ele>125.0</ele><time>2026-05-01T11:40:58.999Z</time></trkpt><trkpt lat="44.96280777310982" lon="13.845396102049335"><ele>125.0</ele><time>2026-05-01T11:40:59.999Z</time></trkpt><trkpt lat="44.962677222358614" lon="13.845356378556462"><ele>125.0</ele><time>2026-05-01T11:41:00.999Z</time></trkpt><trkpt lat="44.96255183535101" lon="13.845320876224873"><ele>125.0</ele><time>2026-05-01T11:41:01.999Z</time></trkpt><trkpt lat="44.96243140751391" lon="13.84528570246996"><ele>125.25</ele><time>2026-05-01T11:41:02.999Z</time></trkpt><trkpt lat="44.962312253461135" lon="13.845254673620945"><ele>125.5</ele><time>2026-05-01T11:41:03.999Z</time></trkpt><trkpt lat="44.96218915792602" lon="13.845220875820651"><ele>125.75</ele><time>2026-05-01T11:41:04.999Z</time></trkpt><trkpt lat="44.96207123354022" lon="13.845187120280965"><ele>126.0</ele><time>2026-05-01T11:41:05.999Z</time></trkpt><trkpt lat="44.96195026636673" lon="13.845154880056752"><ele>125.5</ele><time>2026-05-01T11:41:06.999Z</time></trkpt><trkpt lat="44.96183318795894" lon="13.845119473621873"><ele>125.0</ele><time>2026-05-01T11:41:07.999Z</time></trkpt><trkpt lat="44.96171651521508" lon="13.845086714098992"><ele>124.5</ele><time>2026-05-01T11:41:08.999Z</time></trkpt><trkpt lat="44.96159991663679" lon="13.84505081606154"><ele>124.0</ele><time>2026-05-01T11:41:09.999Z</time></trkpt><trkpt lat="44.96148065276916" lon="13.845019491262944"><ele>124.0</ele><time>2026-05-01T11:41:10.999Z</time></trkpt><trkpt lat="44.961366556680474" lon="13.844984375138855"><ele>124.0</ele><time>2026-05-01T11:41:11.999Z</time></trkpt><trkpt lat="44.96125270956714" lon="13.84494696938422"><ele>124.0</ele><time>2026-05-01T11:41:12.999Z</time></trkpt><trkpt lat="44.96113449302016" lon="13.84491623098422"><ele>124.0</ele><time>2026-05-01T11:41:13.999Z</time></trkpt><trkpt lat="44.961015909344226" lon="13.844884150076558"><ele>124.0</ele><time>2026-05-01T11:41:14.999Z</time></trkpt><trkpt lat="44.96089690087133" lon="13.844850610731504"><ele>124.0</ele><time>2026-05-01T11:41:15.999Z</time></trkpt><trkpt lat="44.96077973925277" lon="13.84481451648716"><ele>124.0</ele><time>2026-05-01T11:41:16.999Z</time></trkpt><trkpt lat="44.960667383663214" lon="13.844779336527614"><ele>124.0</ele><time>2026-05-01T11:41:17.999Z</time></trkpt><trkpt lat="44.96055563698447" lon="13.844749210035934"><ele>124.5</ele><time>2026-05-01T11:41:18.999Z</time></trkpt><trkpt lat="44.96043806766498" lon="13.844716748275813"><ele>125.0</ele><time>2026-05-01T11:41:19.999Z</time></trkpt><trkpt lat="44.9603199725644" lon="13.844681442734794"><ele>125.5</ele><time>2026-05-01T11:41:20.999Z</time></trkpt><trkpt lat="44.960201098141106" lon="13.844646276631774"><ele>126.0</ele><time>2026-05-01T11:41:21.999Z</time></trkpt><trkpt lat="44.96008484913898" lon="13.844617530826365"><ele>126.0</ele><time>2026-05-01T11:41:22.999Z</time></trkpt><trkpt lat="44.959968000270365" lon="13.844581021431974"><ele>126.0</ele><time>2026-05-01T11:41:24Z</time></trkpt><trkpt lat="44.959849990570675" lon="13.844544713960504"><ele>126.0</ele><time>2026-05-01T11:41:25Z</time></trkpt><trkpt lat="44.9597341796268" lon="13.844513083459352"><ele>126.0</ele><time>2026-05-01T11:41:26Z</time></trkpt><trkpt lat="44.95961569092289" lon="13.84447926047889"><ele>126.0</ele><time>2026-05-01T11:41:27Z</time></trkpt><trkpt lat="44.9594971158596" lon="13.844443010609966"><ele>126.0</ele><time>2026-05-01T11:41:28Z</time></trkpt><trkpt lat="44.959377777996785" lon="13.84441036287044"><ele>126.0</ele><time>2026-05-01T11:41:29Z</time></trkpt><trkpt lat="44.95925602124528" lon="13.844379212423675"><ele>126.0</ele><time>2026-05-01T11:41:30Z</time></trkpt><trkpt lat="44.95913583034454" lon="13.844345043162791"><ele>126.0</ele><time>2026-05-01T11:41:31Z</time></trkpt><trkpt lat="44.959013776947316" lon="13.844320766997493"><ele>126.0</ele><time>2026-05-01T11:41:32Z</time></trkpt><trkpt lat="44.958882523015895" lon="13.844316338510996"><ele>126.0</ele><time>2026-05-01T11:41:33Z</time></trkpt><trkpt lat="44.95874761174933" lon="13.84431673114696"><ele>126.0</ele><time>2026-05-01T11:41:34Z</time></trkpt><trkpt lat="44.95861202564054" lon="13.844339746611555"><ele>126.0</ele><time>2026-05-01T11:41:35Z</time></trkpt><trkpt lat="44.9584782822258" lon="13.844361806845685"><ele>126.0</ele><time>2026-05-01T11:41:36Z</time></trkpt><trkpt lat="44.95834467886668" lon="13.844405593862604"><ele>126.0</ele><time>2026-05-01T11:41:37Z</time></trkpt><trkpt lat="44.958217290014375" lon="13.844376143038602"><ele>126.0</ele><time>2026-05-01T11:41:38Z</time></trkpt><trkpt lat="44.95809333090981" lon="13.844423084073618"><ele>125.75</ele><time>2026-05-01T11:41:39Z</time></trkpt><trkpt lat="44.95796959257787" lon="13.844487024299122"><ele>125.5</ele><time>2026-05-01T11:41:40Z</time></trkpt><trkpt lat="44.957845803407956" lon="13.844559373546645"><ele>125.25</ele><time>2026-05-01T11:41:41Z</time></trkpt><trkpt lat="44.957736620093385" lon="13.844628556066278"><ele>125.0</ele><time>2026-05-01T11:41:42Z</time></trkpt><trkpt lat="44.95763334460604" lon="13.844705425599617"><ele>125.2</ele><time>2026-05-01T11:41:43Z</time></trkpt><trkpt lat="44.95753524013072" lon="13.844792801601724"><ele>125.4</ele><time>2026-05-01T11:41:44Z</time></trkpt><trkpt lat="44.95743975588201" lon="13.844880866745449"><ele>125.6</ele><time>2026-05-01T11:41:45Z</time></trkpt><trkpt lat="44.95734847114244" lon="13.844974072527005"><ele>125.8</ele><time>2026-05-01T11:41:46Z</time></trkpt><trkpt lat="44.95726754321868" lon="13.845070537687981"><ele>126.0</ele><time>2026-05-01T11:41:47Z</time></trkpt><trkpt lat="44.95719959711918" lon="13.845159898387422"><ele>126.0</ele><time>2026-05-01T11:41:48Z</time></trkpt><trkpt lat="44.95712835582949" lon="13.845255394646172"><ele>126.0</ele><time>2026-05-01T11:41:49Z</time></trkpt><trkpt lat="44.95705994932287" lon="13.845364202949114"><ele>126.0</ele><time>2026-05-01T11:41:50Z</time></trkpt><trkpt lat="44.957007540142286" lon="13.845456755038864"><ele>126.0</ele><time>2026-05-01T11:41:51Z</time></trkpt><trkpt lat="44.956969530155675" lon="13.845538695591449"><ele>126.0</ele><time>2026-05-01T11:41:52Z</time></trkpt><trkpt lat="44.95690821284939" lon="13.845651895459"><ele>126.0</ele><time>2026-05-01T11:41:53Z</time></trkpt><trkpt lat="44.95682234627888" lon="13.845777227058681"><ele>126.0</ele><time>2026-05-01T11:41:54Z</time></trkpt><trkpt lat="44.95673625874438" lon="13.845926813521757"><ele>126.0</ele><time>2026-05-01T11:41:55Z</time></trkpt><trkpt lat="44.95665369817044" lon="13.846072666533452"><ele>126.0</ele><time>2026-05-01T11:41:56Z</time></trkpt><trkpt lat="44.95656773257567" lon="13.846223344866624"><ele>126.25</ele><time>2026-05-01T11:41:57Z</time></trkpt><trkpt lat="44.95647919006806" lon="13.846378895158889"><ele>126.5</ele><time>2026-05-01T11:41:58Z</time></trkpt><trkpt lat="44.95639035334687" lon="13.846528833521962"><ele>126.75</ele><time>2026-05-01T11:41:59Z</time></trkpt><trkpt lat="44.95630262916315" lon="13.846677741950417"><ele>127.0</ele><time>2026-05-01T11:42:00Z</time></trkpt><trkpt lat="44.95621909836456" lon="13.846819440616574"><ele>127.25</ele><time>2026-05-01T11:42:01Z</time></trkpt><trkpt lat="44.95613515658498" lon="13.846961048899788"><ele>127.5</ele><time>2026-05-01T11:42:02Z</time></trkpt><trkpt lat="44.95604793561708" lon="13.84710761186943"><ele>127.75</ele><time>2026-05-01T11:42:03Z</time></trkpt><trkpt lat="44.955962262426034" lon="13.847256332749927"><ele>128.0</ele><time>2026-05-01T11:42:04Z</time></trkpt><trkpt lat="44.9558746500291" lon="13.847408131281778"><ele>127.75</ele><time>2026-05-01T11:42:05Z</time></trkpt><trkpt lat="44.95579035327479" lon="13.847561980531646"><ele>127.5</ele><time>2026-05-01T11:42:06Z</time></trkpt><trkpt lat="44.955704670105284" lon="13.847709919931887"><ele>127.25</ele><time>2026-05-01T11:42:07Z</time></trkpt><trkpt lat="44.9556196282784" lon="13.847852965706007"><ele>127.0</ele><time>2026-05-01T11:42:08Z</time></trkpt><trkpt lat="44.9555352064922" lon="13.84800050361018"><ele>127.0</ele><time>2026-05-01T11:42:09Z</time></trkpt><trkpt lat="44.95544838558488" lon="13.848145687333977"><ele>127.0</ele><time>2026-05-01T11:42:10Z</time></trkpt><trkpt lat="44.95536456314262" lon="13.84829449236027"><ele>127.0</ele><time>2026-05-01T11:42:11Z</time></trkpt><trkpt lat="44.955278195595795" lon="13.848445330487392"><ele>127.0</ele><time>2026-05-01T11:42:12Z</time></trkpt><trkpt lat="44.955190695741095" lon="13.848591505249512"><ele>126.75</ele><time>2026-05-01T11:42:13Z</time></trkpt><trkpt lat="44.95510236798681" lon="13.848743778385828"><ele>126.5</ele><time>2026-05-01T11:42:14Z</time></trkpt><trkpt lat="44.95501475360738" lon="13.848893578551117"><ele>126.25</ele><time>2026-05-01T11:42:15Z</time></trkpt><trkpt lat="44.95492976022108" lon="13.849046546566212"><ele>126.0</ele><time>2026-05-01T11:42:16Z</time></trkpt><trkpt lat="44.95484530877065" lon="13.849197948672664"><ele>125.5</ele><time>2026-05-01T11:42:17Z</time></trkpt><trkpt lat="44.954755538188444" lon="13.849351406067319"><ele>125.0</ele><time>2026-05-01T11:42:18Z</time></trkpt><trkpt lat="44.95466353650365" lon="13.849509964565607"><ele>124.5</ele><time>2026-05-01T11:42:19Z</time></trkpt><trkpt lat="44.95456900215555" lon="13.849670363371452"><ele>124.0</ele><time>2026-05-01T11:42:20Z</time></trkpt><trkpt lat="44.9544718153392" lon="13.849830916717549"><ele>124.0</ele><time>2026-05-01T11:42:21Z</time></trkpt><trkpt lat="44.95437627863811" lon="13.849995108153848"><ele>124.0</ele><time>2026-05-01T11:42:21.999Z</time></trkpt><trkpt lat="44.954280282314244" lon="13.85016202574668"><ele>124.0</ele><time>2026-05-01T11:42:22.999Z</time></trkpt><trkpt lat="44.954184284540716" lon="13.850327117547364"><ele>123.66666666666667</ele><time>2026-05-01T11:42:23.999Z</time></trkpt><trkpt lat="44.954083499264506" lon="13.850497407739743"><ele>123.33333333333334</ele><time>2026-05-01T11:42:24.999Z</time></trkpt><trkpt lat="44.953989581413396" lon="13.850660005735941"><ele>123.0</ele><time>2026-05-01T11:42:25.999Z</time></trkpt><trkpt lat="44.95389492626497" lon="13.85082549099281"><ele>122.75</ele><time>2026-05-01T11:42:26.999Z</time></trkpt><trkpt lat="44.953800942886055" lon="13.850991766279671"><ele>122.5</ele><time>2026-05-01T11:42:27.999Z</time></trkpt><trkpt lat="44.953706125475556" lon="13.851155544559598"><ele>122.25</ele><time>2026-05-01T11:42:28.999Z</time></trkpt><trkpt lat="44.95361310601318" lon="13.851317745216743"><ele>122.0</ele><time>2026-05-01T11:42:29.999Z</time></trkpt><trkpt lat="44.95351459701046" lon="13.851481360715608"><ele>122.0</ele><time>2026-05-01T11:42:30.999Z</time></trkpt><trkpt lat="44.953419915390015" lon="13.851644022997435"><ele>122.0</ele><time>2026-05-01T11:42:31.999Z</time></trkpt><trkpt lat="44.95332464186697" lon="13.851806878861577"><ele>122.0</ele><time>2026-05-01T11:42:32.999Z</time></trkpt><trkpt lat="44.95322832159497" lon="13.8519722296848"><ele>122.0</ele><time>2026-05-01T11:42:33.999Z</time></trkpt><trkpt lat="44.95312569700944" lon="13.852136902384284"><ele>122.0</ele><time>2026-05-01T11:42:34.999Z</time></trkpt><trkpt lat="44.95302604078002" lon="13.852295185828893"><ele>122.0</ele><time>2026-05-01T11:42:35.999Z</time></trkpt><trkpt lat="44.952930775536345" lon="13.852444327846689"><ele>122.0</ele><time>2026-05-01T11:42:36.999Z</time></trkpt><trkpt lat="44.95283860630035" lon="13.852577095792707"><ele>121.8</ele><time>2026-05-01T11:42:37.999Z</time></trkpt><trkpt lat="44.95274292204697" lon="13.852687578803563"><ele>121.6</ele><time>2026-05-01T11:42:38.999Z</time></trkpt><trkpt lat="44.952652061026626" lon="13.852770331117435"><ele>121.39999999999999</ele><time>2026-05-01T11:42:39.999Z</time></trkpt><trkpt lat="44.95256052579361" lon="13.852830366204882"><ele>121.19999999999999</ele><time>2026-05-01T11:42:40.999Z</time></trkpt><trkpt lat="44.95246940923929" lon="13.852868402432293"><ele>121.0</ele><time>2026-05-01T11:42:41.999Z</time></trkpt><trkpt lat="44.95238148115573" lon="13.852874388191905"><ele>121.00000000000001</ele><time>2026-05-01T11:42:42.999Z</time></trkpt><trkpt lat="44.952308490312376" lon="13.85291946960114"><ele>121.0</ele><time>2026-05-01T11:42:43.999Z</time></trkpt><trkpt lat="44.952262691161465" lon="13.853010457703238"><ele>121.0</ele><time>2026-05-01T11:42:44.999Z</time></trkpt><trkpt lat="44.95222605898856" lon="13.85312515692448"><ele>121.0</ele><time>2026-05-01T11:42:45.999Z</time></trkpt><trkpt lat="44.95217119211032" lon="13.853223420304724"><ele>121.00000000000001</ele><time>2026-05-01T11:42:46.999Z</time></trkpt><trkpt lat="44.95209406728934" lon="13.853292874809858"><ele>121.0</ele><time>2026-05-01T11:42:47.999Z</time></trkpt><trkpt lat="44.9520053217606" lon="13.853351411808605"><ele>121.0</ele><time>2026-05-01T11:42:48.999Z</time></trkpt><trkpt lat="44.95190987051056" lon="13.853410067229328"><ele>121.0</ele><time>2026-05-01T11:42:49.999Z</time></trkpt><trkpt lat="44.95180896809301" lon="13.853464543891883"><ele>121.0</ele><time>2026-05-01T11:42:50.999Z</time></trkpt><trkpt lat="44.95169423474804" lon="13.8535195235029"><ele>121.0</ele><time>2026-05-01T11:42:51.999Z</time></trkpt><trkpt lat="44.95156429957586" lon="13.853572624475083"><ele>120.5</ele><time>2026-05-01T11:42:52.999Z</time></trkpt><trkpt lat="44.951427703497565" lon="13.853618235508897"><ele>120.0</ele><time>2026-05-01T11:42:53.999Z</time></trkpt><trkpt lat="44.95129388035635" lon="13.853652318565779"><ele>119.5</ele><time>2026-05-01T11:42:54.999Z</time></trkpt><trkpt lat="44.95115272645269" lon="13.85367300850283"><ele>119.0</ele><time>2026-05-01T11:42:55.999Z</time></trkpt><trkpt lat="44.95100786667389" lon="13.853687291554952"><ele>119.33333333333333</ele><time>2026-05-01T11:42:56.999Z</time></trkpt><trkpt lat="44.950858028033046" lon="13.853694604188036"><ele>119.66666666666666</ele><time>2026-05-01T11:42:57.999Z</time></trkpt><trkpt lat="44.9507017715305" lon="13.85369817947763"><ele>120.0</ele><time>2026-05-01T11:42:58.999Z</time></trkpt><trkpt lat="44.950541707483" lon="13.853695726023993"><ele>120.0</ele><time>2026-05-01T11:42:59.999Z</time></trkpt><trkpt lat="44.950378782096905" lon="13.853691918336601"><ele>120.0</ele><time>2026-05-01T11:43:00.999Z</time></trkpt><trkpt lat="44.950215361421705" lon="13.853689546405946"><ele>120.0</ele><time>2026-05-01T11:43:01.999Z</time></trkpt><trkpt lat="44.950044375671574" lon="13.853688100619069"><ele>120.66666666666666</ele><time>2026-05-01T11:43:02.999Z</time></trkpt><trkpt lat="44.949871204587225" lon="13.853683154173655"><ele>121.33333333333333</ele><time>2026-05-01T11:43:03.999Z</time></trkpt><trkpt lat="44.94969277964989" lon="13.853680229455232"><ele>122.0</ele><time>2026-05-01T11:43:04.999Z</time></trkpt><trkpt lat="44.949510046330275" lon="13.853676656058237"><ele>122.0</ele><time>2026-05-01T11:43:05.999Z</time></trkpt><trkpt lat="44.949320310490336" lon="13.853674107256825"><ele>122.0</ele><time>2026-05-01T11:43:06.999Z</time></trkpt><trkpt lat="44.9491252977465" lon="13.853669130865034"><ele>122.0</ele><time>2026-05-01T11:43:07.999Z</time></trkpt><trkpt lat="44.9489278477243" lon="13.853667890133337"><ele>122.0</ele><time>2026-05-01T11:43:08.999Z</time></trkpt><trkpt lat="44.94873163328621" lon="13.853665719096014"><ele>122.0</ele><time>2026-05-01T11:43:09.999Z</time></trkpt><trkpt lat="44.94854215108179" lon="13.853666735234917"><ele>122.0</ele><time>2026-05-01T11:43:10.999Z</time></trkpt><trkpt lat="44.94834752299072" lon="13.85365896226844"><ele>120.33333333333333</ele><time>2026-05-01T11:43:11.999Z</time></trkpt><trkpt lat="44.948150046447395" lon="13.853653564975797"><ele>118.66666666666666</ele><time>2026-05-01T11:43:12.999Z</time></trkpt><trkpt lat="44.947948070283815" lon="13.853646860650013"><ele>117.0</ele><time>2026-05-01T11:43:13.999Z</time></trkpt><trkpt lat="44.94774712507658" lon="13.85364466342876"><ele>117.0</ele><time>2026-05-01T11:43:14.999Z</time></trkpt><trkpt lat="44.947544095375555" lon="13.853641226678283"><ele>117.0</ele><time>2026-05-01T11:43:15.999Z</time></trkpt><trkpt lat="44.94733635898857" lon="13.853636169333752"><ele>117.0</ele><time>2026-05-01T11:43:16.999Z</time></trkpt><trkpt lat="44.94712882903531" lon="13.85362925806474"><ele>117.33333333333334</ele><time>2026-05-01T11:43:17.999Z</time></trkpt><trkpt lat="44.94692092721761" lon="13.853620210090469"><ele>117.66666666666667</ele><time>2026-05-01T11:43:18.999Z</time></trkpt><trkpt lat="44.94670968064874" lon="13.853618276440702"><ele>118.0</ele><time>2026-05-01T11:43:19.999Z</time></trkpt><trkpt lat="44.94649699965863" lon="13.853617446142811"><ele>117.66666666666667</ele><time>2026-05-01T11:43:20.999Z</time></trkpt><trkpt lat="44.946282820052666" lon="13.853613249105655"><ele>117.33333333333334</ele><time>2026-05-01T11:43:21.999Z</time></trkpt><trkpt lat="44.94606995566133" lon="13.853611610110312"><ele>117.0</ele><time>2026-05-01T11:43:22.999Z</time></trkpt><trkpt lat="44.945857333852" lon="13.853605117093643"><ele>117.0</ele><time>2026-05-01T11:43:23.999Z</time></trkpt><trkpt lat="44.94564394955249" lon="13.853599597627023"><ele>117.0</ele><time>2026-05-01T11:43:24.999Z</time></trkpt><trkpt lat="44.94542852983065" lon="13.853602337336019"><ele>117.0</ele><time>2026-05-01T11:43:25.999Z</time></trkpt><trkpt lat="44.9452140266335" lon="13.853597603990984"><ele>116.33333333333334</ele><time>2026-05-01T11:43:26.999Z</time></trkpt><trkpt lat="44.94500607865585" lon="13.85359234761393"><ele>115.66666666666667</ele><time>2026-05-01T11:43:27.999Z</time></trkpt><trkpt lat="44.94480820628916" lon="13.853580905459552"><ele>115.0</ele><time>2026-05-01T11:43:28.999Z</time></trkpt><trkpt lat="44.944603411062175" lon="13.853569564857773"><ele>115.0</ele><time>2026-05-01T11:43:30Z</time></trkpt><trkpt lat="44.94439937785112" lon="13.853555285822816"><ele>115.0</ele><time>2026-05-01T11:43:31Z</time></trkpt><trkpt lat="44.94419495222086" lon="13.853534056418221"><ele>115.0</ele><time>2026-05-01T11:43:32Z</time></trkpt><trkpt lat="44.94399222449595" lon="13.853503396323264"><ele>114.33333333333334</ele><time>2026-05-01T11:43:33Z</time></trkpt><trkpt lat="44.94378425995153" lon="13.853473265584677"><ele>113.66666666666666</ele><time>2026-05-01T11:43:34Z</time></trkpt><trkpt lat="44.943577070204135" lon="13.853449329484928"><ele>113.0</ele><time>2026-05-01T11:43:35Z</time></trkpt><trkpt lat="44.9433702999564" lon="13.853422195687747"><ele>112.33333333333333</ele><time>2026-05-01T11:43:36Z</time></trkpt><trkpt lat="44.94316377661664" lon="13.853399600616747"><ele>111.66666666666666</ele><time>2026-05-01T11:43:37Z</time></trkpt><trkpt lat="44.9429522099916" lon="13.853367035848693"><ele>111.0</ele><time>2026-05-01T11:43:38Z</time></trkpt><trkpt lat="44.94274435520577" lon="13.853342892710835"><ele>109.33333333333334</ele><time>2026-05-01T11:43:39Z</time></trkpt><trkpt lat="44.9425384521671" lon="13.853320944048575"><ele>107.66666666666667</ele><time>2026-05-01T11:43:40Z</time></trkpt><trkpt lat="44.94232491309017" lon="13.853295347950526"><ele>106.0</ele><time>2026-05-01T11:43:41Z</time></trkpt><trkpt lat="44.942115175136294" lon="13.853267805639732"><ele>106.0</ele><time>2026-05-01T11:43:42Z</time></trkpt><trkpt lat="44.94190720596734" lon="13.85324207140777"><ele>106.0</ele><time>2026-05-01T11:43:43Z</time></trkpt><trkpt lat="44.94170036937039" lon="13.853215742376632"><ele>106.0</ele><time>2026-05-01T11:43:44Z</time></trkpt><trkpt lat="44.941496983410545" lon="13.8531881599579"><ele>104.66666666666667</ele><time>2026-05-01T11:43:45Z</time></trkpt><trkpt lat="44.94129224935524" lon="13.853158728482155"><ele>103.33333333333334</ele><time>2026-05-01T11:43:46Z</time></trkpt><trkpt lat="44.941087253614285" lon="13.85313043553014"><ele>102.0</ele><time>2026-05-01T11:43:47Z</time></trkpt><trkpt lat="44.94088365020177" lon="13.85310223848107"><ele>101.0</ele><time>2026-05-01T11:43:48Z</time></trkpt><trkpt lat="44.940676780810996" lon="13.853073000950781"><ele>100.0</ele><time>2026-05-01T11:43:49Z</time></trkpt><trkpt lat="44.940470458801364" lon="13.85304870088804"><ele>99.0</ele><time>2026-05-01T11:43:50Z</time></trkpt><trkpt lat="44.94026627079651" lon="13.853018051245666"><ele>99.0</ele><time>2026-05-01T11:43:51Z</time></trkpt><trkpt lat="44.94006127722569" lon="13.852989677472246"><ele>99.0</ele><time>2026-05-01T11:43:52Z</time></trkpt><trkpt lat="44.93985525407794" lon="13.852961620579096"><ele>99.0</ele><time>2026-05-01T11:43:53Z</time></trkpt><trkpt lat="44.93964779806505" lon="13.852932612385095"><ele>97.66666666666667</ele><time>2026-05-01T11:43:54Z</time></trkpt><trkpt lat="44.93945199390239" lon="13.852904826113138"><ele>96.33333333333334</ele><time>2026-05-01T11:43:55Z</time></trkpt><trkpt lat="44.939265995953484" lon="13.852881185826206"><ele>95.0</ele><time>2026-05-01T11:43:56Z</time></trkpt><trkpt lat="44.93908712851577" lon="13.852859987497308"><ele>94.66666666666667</ele><time>2026-05-01T11:43:57Z</time></trkpt><trkpt lat="44.938902397118085" lon="13.852838001466194"><ele>94.33333333333333</ele><time>2026-05-01T11:43:58Z</time></trkpt><trkpt lat="44.938711875581596" lon="13.852815176649871"><ele>94.0</ele><time>2026-05-01T11:43:59Z</time></trkpt><trkpt lat="44.93851835866865" lon="13.852787407252894"><ele>93.0</ele><time>2026-05-01T11:44:00Z</time></trkpt><trkpt lat="44.938321653169396" lon="13.852763396343338"><ele>92.0</ele><time>2026-05-01T11:44:01Z</time></trkpt><trkpt lat="44.93812573256193" lon="13.852737204047608"><ele>91.0</ele><time>2026-05-01T11:44:02Z</time></trkpt><trkpt lat="44.937929037909214" lon="13.85271307476093"><ele>91.0</ele><time>2026-05-01T11:44:03Z</time></trkpt><trkpt lat="44.93773326932491" lon="13.852684179873691"><ele>91.0</ele><time>2026-05-01T11:44:04Z</time></trkpt><trkpt lat="44.93753551397905" lon="13.852658205885906"><ele>91.0</ele><time>2026-05-01T11:44:05Z</time></trkpt><trkpt lat="44.937333797303666" lon="13.852631326595796"><ele>89.0</ele><time>2026-05-01T11:44:06Z</time></trkpt><trkpt lat="44.937132685813474" lon="13.852602217512608"><ele>87.0</ele><time>2026-05-01T11:44:07Z</time></trkpt><trkpt lat="44.93693590934212" lon="13.852576233692885"><ele>85.0</ele><time>2026-05-01T11:44:08Z</time></trkpt><trkpt lat="44.93673766978243" lon="13.852548701060567"><ele>84.0</ele><time>2026-05-01T11:44:09Z</time></trkpt><trkpt lat="44.93654257707429" lon="13.852523409686707"><ele>83.0</ele><time>2026-05-01T11:44:10Z</time></trkpt><trkpt lat="44.93635245064882" lon="13.85249886373245"><ele>82.0</ele><time>2026-05-01T11:44:11Z</time></trkpt><trkpt lat="44.936175504462476" lon="13.852473903031271"><ele>82.0</ele><time>2026-05-01T11:44:12Z</time></trkpt><trkpt lat="44.936002029064895" lon="13.852451738424026"><ele>82.0</ele><time>2026-05-01T11:44:13Z</time></trkpt><trkpt lat="44.935821703560386" lon="13.852427375583341"><ele>82.0</ele><time>2026-05-01T11:44:14Z</time></trkpt><trkpt lat="44.9356347528835" lon="13.852403533150618"><ele>82.0</ele><time>2026-05-01T11:44:15Z</time></trkpt><trkpt lat="44.93544461149076" lon="13.852380360842353"><ele>82.0</ele><time>2026-05-01T11:44:16Z</time></trkpt><trkpt lat="44.935252920185675" lon="13.85235658812844"><ele>82.0</ele><time>2026-05-01T11:44:17Z</time></trkpt><trkpt lat="44.93506334941782" lon="13.852324048846695"><ele>79.33333333333333</ele><time>2026-05-01T11:44:18Z</time></trkpt><trkpt lat="44.934868719780056" lon="13.852299668959796"><ele>76.66666666666667</ele><time>2026-05-01T11:44:19Z</time></trkpt><trkpt lat="44.93466774882985" lon="13.8522704502687"><ele>74.0</ele><time>2026-05-01T11:44:20Z</time></trkpt><trkpt lat="44.934471406155396" lon="13.85224705742585"><ele>74.0</ele><time>2026-05-01T11:44:21Z</time></trkpt><trkpt lat="44.93427562854914" lon="13.852222297665488"><ele>74.0</ele><time>2026-05-01T11:44:22Z</time></trkpt><trkpt lat="44.93407860273438" lon="13.8521968002792"><ele>74.0</ele><time>2026-05-01T11:44:23Z</time></trkpt><trkpt lat="44.933885260117286" lon="13.852173815262253"><ele>73.33333333333334</ele><time>2026-05-01T11:44:24Z</time></trkpt><trkpt lat="44.93369020512431" lon="13.852147661875692"><ele>72.66666666666667</ele><time>2026-05-01T11:44:25Z</time></trkpt><trkpt lat="44.93349641057286" lon="13.852121052104788"><ele>72.0</ele><time>2026-05-01T11:44:26Z</time></trkpt><trkpt lat="44.93330996254051" lon="13.852093652178285"><ele>71.33333333333333</ele><time>2026-05-01T11:44:27Z</time></trkpt><trkpt lat="44.93309376903022" lon="13.852066313537774"><ele>70.66666666666666</ele><time>2026-05-01T11:44:28Z</time></trkpt><trkpt lat="44.93289780823993" lon="13.852042700879284"><ele>70.0</ele><time>2026-05-01T11:44:29Z</time></trkpt><trkpt lat="44.93270171844337" lon="13.852020825026763"><ele>69.33333333333333</ele><time>2026-05-01T11:44:30Z</time></trkpt><trkpt lat="44.93251176447219" lon="13.852001315257935"><ele>68.66666666666667</ele><time>2026-05-01T11:44:31Z</time></trkpt><trkpt lat="44.93232240428011" lon="13.85197320662327"><ele>68.0</ele><time>2026-05-01T11:44:31.999Z</time></trkpt><trkpt lat="44.932129981540136" lon="13.851944720797169"><ele>68.0</ele><time>2026-05-01T11:44:32.999Z</time></trkpt><trkpt lat="44.93194111923563" lon="13.851923046988983"><ele>68.0</ele><time>2026-05-01T11:44:33.999Z</time></trkpt><trkpt lat="44.93175228267332" lon="13.851899865969763"><ele>68.0</ele><time>2026-05-01T11:44:34.999Z</time></trkpt><trkpt lat="44.931559569797344" lon="13.851874340073485"><ele>67.0</ele><time>2026-05-01T11:44:35.999Z</time></trkpt><trkpt lat="44.93137674663574" lon="13.851853438411778"><ele>66.0</ele><time>2026-05-01T11:44:36.999Z</time></trkpt><trkpt lat="44.93120631492488" lon="13.85183319748515"><ele>65.0</ele><time>2026-05-01T11:44:37.999Z</time></trkpt><trkpt lat="44.931026564047656" lon="13.851816773740474"><ele>65.0</ele><time>2026-05-01T11:44:38.999Z</time></trkpt><trkpt lat="44.93084417636835" lon="13.8517896350528"><ele>65.0</ele><time>2026-05-01T11:44:39.999Z</time></trkpt><trkpt lat="44.93065944640486" lon="13.8517588168624"><ele>65.0</ele><time>2026-05-01T11:44:40.999Z</time></trkpt><trkpt lat="44.93047384554716" lon="13.851733683610856"><ele>65.0</ele><time>2026-05-01T11:44:41.999Z</time></trkpt><trkpt lat="44.93028919716445" lon="13.851708544175457"><ele>65.0</ele><time>2026-05-01T11:44:42.999Z</time></trkpt><trkpt lat="44.93011494543026" lon="13.851688849699984"><ele>65.0</ele><time>2026-05-01T11:44:43.999Z</time></trkpt><trkpt lat="44.929945737456414" lon="13.851667211692746"><ele>64.66666666666667</ele><time>2026-05-01T11:44:44.999Z</time></trkpt><trkpt lat="44.929770203602565" lon="13.851645373474911"><ele>64.33333333333333</ele><time>2026-05-01T11:44:45.999Z</time></trkpt><trkpt lat="44.929594563191095" lon="13.851621118159253"><ele>64.0</ele><time>2026-05-01T11:44:46.999Z</time></trkpt><trkpt lat="44.92942712929063" lon="13.851597917829416"><ele>64.0</ele><time>2026-05-01T11:44:47.999Z</time></trkpt><trkpt lat="44.929270791868525" lon="13.85157557181215"><ele>64.0</ele><time>2026-05-01T11:44:48.999Z</time></trkpt><trkpt lat="44.92912856126901" lon="13.851560027568196"><ele>64.0</ele><time>2026-05-01T11:44:49.999Z</time></trkpt><trkpt lat="44.92899171884626" lon="13.85154033473452"><ele>64.0</ele><time>2026-05-01T11:44:50.999Z</time></trkpt><trkpt lat="44.928859559541976" lon="13.851524103015926"><ele>64.0</ele><time>2026-05-01T11:44:51.999Z</time></trkpt><trkpt lat="44.92872745535271" lon="13.85150931763293"><ele>64.0</ele><time>2026-05-01T11:44:52.999Z</time></trkpt><trkpt lat="44.92858965861214" lon="13.851492080192532"><ele>64.0</ele><time>2026-05-01T11:44:53.999Z</time></trkpt><trkpt lat="44.92844825117358" lon="13.8514697007346"><ele>64.0</ele><time>2026-05-01T11:44:54.999Z</time></trkpt><trkpt lat="44.92831095091382" lon="13.851448195938652"><ele>62.75</ele><time>2026-05-01T11:44:55.999Z</time></trkpt><trkpt lat="44.92817024656478" lon="13.851428281116956"><ele>61.5</ele><time>2026-05-01T11:44:56.999Z</time></trkpt><trkpt lat="44.92802417634394" lon="13.85140960023632"><ele>60.25</ele><time>2026-05-01T11:44:57.999Z</time></trkpt><trkpt lat="44.92787676160828" lon="13.851389802694632"><ele>59.0</ele><time>2026-05-01T11:44:58.999Z</time></trkpt><trkpt lat="44.927725865550045" lon="13.85137300700976"><ele>59.0</ele><time>2026-05-01T11:44:59.999Z</time></trkpt><trkpt lat="44.92757196016552" lon="13.851352388908765"><ele>59.0</ele><time>2026-05-01T11:45:00.999Z</time></trkpt><trkpt lat="44.92742039573853" lon="13.851331807047034"><ele>59.0</ele><time>2026-05-01T11:45:01.999Z</time></trkpt><trkpt lat="44.927270420041616" lon="13.851315618311691"><ele>58.66666666666667</ele><time>2026-05-01T11:45:02.999Z</time></trkpt><trkpt lat="44.927117688615375" lon="13.851297362422017"><ele>58.33333333333333</ele><time>2026-05-01T11:45:03.999Z</time></trkpt><trkpt lat="44.92696097928918" lon="13.851275921459026"><ele>58.0</ele><time>2026-05-01T11:45:04.999Z</time></trkpt><trkpt lat="44.926805567663166" lon="13.851252890722863"><ele>57.666666666666664</ele><time>2026-05-01T11:45:05.999Z</time></trkpt><trkpt lat="44.92664747141613" lon="13.851234663279687"><ele>57.33333333333333</ele><time>2026-05-01T11:45:06.999Z</time></trkpt><trkpt lat="44.926489470181494" lon="13.851214030760017"><ele>57.0</ele><time>2026-05-01T11:45:07.999Z</time></trkpt><trkpt lat="44.92633322063639" lon="13.85119679117717"><ele>57.0</ele><time>2026-05-01T11:45:08.999Z</time></trkpt><trkpt lat="44.926181033600514" lon="13.851174659501519"><ele>57.0</ele><time>2026-05-01T11:45:09.999Z</time></trkpt><trkpt lat="44.92603801344837" lon="13.851151083028046"><ele>57.0</ele><time>2026-05-01T11:45:10.999Z</time></trkpt><trkpt lat="44.92588856890903" lon="13.851130973867184"><ele>57.0</ele><time>2026-05-01T11:45:11.999Z</time></trkpt><trkpt lat="44.92573717955191" lon="13.851115102833061"><ele>57.0</ele><time>2026-05-01T11:45:12.999Z</time></trkpt><trkpt lat="44.92558336576563" lon="13.851094801830728"><ele>57.0</ele><time>2026-05-01T11:45:13.999Z</time></trkpt><trkpt lat="44.925428173151275" lon="13.851078378989643"><ele>57.0</ele><time>2026-05-01T11:45:14.999Z</time></trkpt><trkpt lat="44.925276545309664" lon="13.851058156254423"><ele>57.0</ele><time>2026-05-01T11:45:15.999Z</time></trkpt><trkpt lat="44.92513643676175" lon="13.851040335793892"><ele>57.0</ele><time>2026-05-01T11:45:16.999Z</time></trkpt><trkpt lat="44.92499224959433" lon="13.85102070811012"><ele>57.0</ele><time>2026-05-01T11:45:17.999Z</time></trkpt><trkpt lat="44.92485048198224" lon="13.851002028786455"><ele>57.0</ele><time>2026-05-01T11:45:18.999Z</time></trkpt><trkpt lat="44.92470445689372" lon="13.850979755002909"><ele>56.66666666666667</ele><time>2026-05-01T11:45:19.999Z</time></trkpt><trkpt lat="44.924555257087164" lon="13.85096080892689"><ele>56.333333333333336</ele><time>2026-05-01T11:45:20.999Z</time></trkpt><trkpt lat="44.92440399708858" lon="13.850940412585318"><ele>56.0</ele><time>2026-05-01T11:45:21.999Z</time></trkpt><trkpt lat="44.924254999815275" lon="13.850921107114107"><ele>55.5</ele><time>2026-05-01T11:45:22.999Z</time></trkpt><trkpt lat="44.9241066801877" lon="13.850910842658806"><ele>55.0</ele><time>2026-05-01T11:45:23.999Z</time></trkpt><trkpt lat="44.92396374842148" lon="13.850889240718162"><ele>54.5</ele><time>2026-05-01T11:45:24.999Z</time></trkpt><trkpt lat="44.92381922299062" lon="13.850872544216536"><ele>54.0</ele><time>2026-05-01T11:45:25.999Z</time></trkpt><trkpt lat="44.92367070160817" lon="13.850852272508558"><ele>54.0</ele><time>2026-05-01T11:45:26.999Z</time></trkpt><trkpt lat="44.92352488634555" lon="13.850837420207776"><ele>54.0</ele><time>2026-05-01T11:45:27.999Z</time></trkpt><trkpt lat="44.923385019723575" lon="13.850813212425207"><ele>54.0</ele><time>2026-05-01T11:45:28.999Z</time></trkpt><trkpt lat="44.92323909080198" lon="13.85079255768641"><ele>54.0</ele><time>2026-05-01T11:45:29.999Z</time></trkpt><trkpt lat="44.923096622559875" lon="13.850770366980216"><ele>53.25</ele><time>2026-05-01T11:45:30.999Z</time></trkpt><trkpt lat="44.92294672834538" lon="13.850752617150608"><ele>52.5</ele><time>2026-05-01T11:45:31.999Z</time></trkpt><trkpt lat="44.92280011316862" lon="13.850726980645314"><ele>51.75</ele><time>2026-05-01T11:45:32.999Z</time></trkpt><trkpt lat="44.92265185284125" lon="13.850705504583145"><ele>51.0</ele><time>2026-05-01T11:45:33.999Z</time></trkpt><trkpt lat="44.92250124834713" lon="13.850688998119816"><ele>50.5</ele><time>2026-05-01T11:45:34.999Z</time></trkpt><trkpt lat="44.922358748497224" lon="13.85067411271714"><ele>50.0</ele><time>2026-05-01T11:45:36Z</time></trkpt><trkpt lat="44.92221646789278" lon="13.850655775238948"><ele>49.5</ele><time>2026-05-01T11:45:37Z</time></trkpt><trkpt lat="44.922081945682386" lon="13.850634818009238"><ele>49.0</ele><time>2026-05-01T11:45:38Z</time></trkpt><trkpt lat="44.92194222358969" lon="13.850620086347334"><ele>49.0</ele><time>2026-05-01T11:45:39Z</time></trkpt><trkpt lat="44.9218086774819" lon="13.850601074243302"><ele>49.0</ele><time>2026-05-01T11:45:40Z</time></trkpt><trkpt lat="44.92167464529185" lon="13.850581895696015"><ele>49.0</ele><time>2026-05-01T11:45:41Z</time></trkpt><trkpt lat="44.9215378410915" lon="13.85056231860827"><ele>49.0</ele><time>2026-05-01T11:45:42Z</time></trkpt><trkpt lat="44.92139947730498" lon="13.85054425731971"><ele>49.0</ele><time>2026-05-01T11:45:43Z</time></trkpt><trkpt lat="44.921260514298275" lon="13.850524190190832"><ele>49.0</ele><time>2026-05-01T11:45:44Z</time></trkpt><trkpt lat="44.92112441650138" lon="13.850507542490721"><ele>49.0</ele><time>2026-05-01T11:45:45Z</time></trkpt><trkpt lat="44.920989518852956" lon="13.850496210058475"><ele>49.0</ele><time>2026-05-01T11:45:46Z</time></trkpt><trkpt lat="44.920862425073004" lon="13.850483365804378"><ele>49.0</ele><time>2026-05-01T11:45:47Z</time></trkpt><trkpt lat="44.92073262909099" lon="13.850477366449173"><ele>49.0</ele><time>2026-05-01T11:45:48Z</time></trkpt><trkpt lat="44.92059682294743" lon="13.850481423442499"><ele>49.0</ele><time>2026-05-01T11:45:49Z</time></trkpt><trkpt lat="44.9204705839592" lon="13.850480713676316"><ele>49.0</ele><time>2026-05-01T11:45:50Z</time></trkpt><trkpt lat="44.920341183312736" lon="13.850478425625052"><ele>49.0</ele><time>2026-05-01T11:45:51Z</time></trkpt><trkpt lat="44.92020696834807" lon="13.85048338377324"><ele>49.0</ele><time>2026-05-01T11:45:52Z</time></trkpt><trkpt lat="44.92006971655823" lon="13.85048797504122"><ele>49.0</ele><time>2026-05-01T11:45:53Z</time></trkpt><trkpt lat="44.919928878110234" lon="13.850494616777883"><ele>49.0</ele><time>2026-05-01T11:45:54Z</time></trkpt><trkpt lat="44.91978734341454" lon="13.85049740215756"><ele>48.0</ele><time>2026-05-01T11:45:55Z</time></trkpt><trkpt lat="44.9196545084746" lon="13.850498804761207"><ele>47.0</ele><time>2026-05-01T11:45:56Z</time></trkpt><trkpt lat="44.91952406808874" lon="13.850502733606927"><ele>46.0</ele><time>2026-05-01T11:45:57Z</time></trkpt><trkpt lat="44.91940168240892" lon="13.850504023914711"><ele>45.0</ele><time>2026-05-01T11:45:58Z</time></trkpt><trkpt lat="44.91928575593187" lon="13.850508752764755"><ele>44.0</ele><time>2026-05-01T11:45:59Z</time></trkpt><trkpt lat="44.91916530718237" lon="13.850511653190727"><ele>43.0</ele><time>2026-05-01T11:46:00Z</time></trkpt><trkpt lat="44.91904144932273" lon="13.850520149708677"><ele>42.0</ele><time>2026-05-01T11:46:01Z</time></trkpt><trkpt lat="44.91891216587941" lon="13.850517419839067"><ele>41.0</ele><time>2026-05-01T11:46:02Z</time></trkpt><trkpt lat="44.91878799806014" lon="13.85051710973341"><ele>41.0</ele><time>2026-05-01T11:46:03Z</time></trkpt><trkpt lat="44.91866694539689" lon="13.85052118469488"><ele>41.0</ele><time>2026-05-01T11:46:04Z</time></trkpt><trkpt lat="44.91854247983384" lon="13.850527181884228"><ele>41.0</ele><time>2026-05-01T11:46:05Z</time></trkpt><trkpt lat="44.91841650772965" lon="13.850527496798625"><ele>41.0</ele><time>2026-05-01T11:46:06Z</time></trkpt><trkpt lat="44.918285583133105" lon="13.850525025759726"><ele>40.75</ele><time>2026-05-01T11:46:07Z</time></trkpt><trkpt lat="44.918156060296674" lon="13.850517357555374"><ele>40.5</ele><time>2026-05-01T11:46:08Z</time></trkpt><trkpt lat="44.91802113205495" lon="13.850504528990486"><ele>40.25</ele><time>2026-05-01T11:46:09Z</time></trkpt><trkpt lat="44.91788688761157" lon="13.850483733829568"><ele>40.0</ele><time>2026-05-01T11:46:10Z</time></trkpt><trkpt lat="44.91774448074669" lon="13.850455045197563"><ele>40.0</ele><time>2026-05-01T11:46:11Z</time></trkpt><trkpt lat="44.9176029747675" lon="13.850433035707836"><ele>40.0</ele><time>2026-05-01T11:46:12Z</time></trkpt><trkpt lat="44.917468264859494" lon="13.85040446554592"><ele>40.0</ele><time>2026-05-01T11:46:13Z</time></trkpt><trkpt lat="44.917330975796546" lon="13.850371484996128"><ele>40.0</ele><time>2026-05-01T11:46:14Z</time></trkpt><trkpt lat="44.9171902374309" lon="13.850332979013269"><ele>40.75</ele><time>2026-05-01T11:46:15Z</time></trkpt><trkpt lat="44.91704620619244" lon="13.850287030677388"><ele>41.5</ele><time>2026-05-01T11:46:16Z</time></trkpt><trkpt lat="44.91690298308296" lon="13.850238393723345"><ele>42.25</ele><time>2026-05-01T11:46:17Z</time></trkpt><trkpt lat="44.916754198909146" lon="13.85019238114792"><ele>43.0</ele><time>2026-05-01T11:46:18Z</time></trkpt><trkpt lat="44.91660364628705" lon="13.850147479861683"><ele>42.5</ele><time>2026-05-01T11:46:19Z</time></trkpt><trkpt lat="44.9164635874517" lon="13.85010352554063"><ele>42.0</ele><time>2026-05-01T11:46:20Z</time></trkpt><trkpt lat="44.91633080590559" lon="13.850067298547401"><ele>41.5</ele><time>2026-05-01T11:46:21Z</time></trkpt><trkpt lat="44.916194075085926" lon="13.850026053827275"><ele>41.0</ele><time>2026-05-01T11:46:22Z</time></trkpt><trkpt lat="44.91605562826148" lon="13.849979892078563"><ele>41.0</ele><time>2026-05-01T11:46:23Z</time></trkpt><trkpt lat="44.915919465774756" lon="13.849925362827967"><ele>41.0</ele><time>2026-05-01T11:46:24Z</time></trkpt><trkpt lat="44.91579204091237" lon="13.849871130907012"><ele>41.0</ele><time>2026-05-01T11:46:25Z</time></trkpt><trkpt lat="44.915670204591386" lon="13.849828362511994"><ele>41.0</ele><time>2026-05-01T11:46:26Z</time></trkpt><trkpt lat="44.915545392882045" lon="13.849788180988629"><ele>41.5</ele><time>2026-05-01T11:46:27Z</time></trkpt><trkpt lat="44.915428364138464" lon="13.849751939393553"><ele>42.0</ele><time>2026-05-01T11:46:28Z</time></trkpt><trkpt lat="44.91531855795728" lon="13.849717288450702"><ele>42.5</ele><time>2026-05-01T11:46:29Z</time></trkpt><trkpt lat="44.91520740788669" lon="13.849681810552422"><ele>43.0</ele><time>2026-05-01T11:46:30Z</time></trkpt><trkpt lat="44.91508971657794" lon="13.849647050477333"><ele>42.75</ele><time>2026-05-01T11:46:31Z</time></trkpt><trkpt lat="44.914964808570396" lon="13.84960981588282"><ele>42.5</ele><time>2026-05-01T11:46:32Z</time></trkpt><trkpt lat="44.91483509909739" lon="13.849573520011662"><ele>42.25</ele><time>2026-05-01T11:46:33Z</time></trkpt><trkpt lat="44.914699966092485" lon="13.849544103641762"><ele>42.0</ele><time>2026-05-01T11:46:33.999Z</time></trkpt><trkpt lat="44.91456232359048" lon="13.849510935611283"><ele>42.0</ele><time>2026-05-01T11:46:34.999Z</time></trkpt><trkpt lat="44.914422975052226" lon="13.849470417589025"><ele>42.0</ele><time>2026-05-01T11:46:35.999Z</time></trkpt><trkpt lat="44.914281473934736" lon="13.849424972987654"><ele>42.0</ele><time>2026-05-01T11:46:36.999Z</time></trkpt><trkpt lat="44.914140037762785" lon="13.849375578833223"><ele>42.0</ele><time>2026-05-01T11:46:37.999Z</time></trkpt><trkpt lat="44.913998689208384" lon="13.849332690400042"><ele>40.666666666666664</ele><time>2026-05-01T11:46:38.999Z</time></trkpt><trkpt lat="44.913848161335736" lon="13.849288592286719"><ele>39.33333333333333</ele><time>2026-05-01T11:46:39.999Z</time></trkpt><trkpt lat="44.91369823210372" lon="13.849244522873017"><ele>38.0</ele><time>2026-05-01T11:46:40.999Z</time></trkpt><trkpt lat="44.91354102546012" lon="13.849196272047516"><ele>38.0</ele><time>2026-05-01T11:46:41.999Z</time></trkpt><trkpt lat="44.913382400321694" lon="13.849145948192666"><ele>38.0</ele><time>2026-05-01T11:46:42.999Z</time></trkpt><trkpt lat="44.913219462418546" lon="13.849096508395787"><ele>38.0</ele><time>2026-05-01T11:46:43.999Z</time></trkpt><trkpt lat="44.91305332154053" lon="13.849042669342689"><ele>38.0</ele><time>2026-05-01T11:46:44.999Z</time></trkpt><trkpt lat="44.91289113866941" lon="13.848995115430464"><ele>38.0</ele><time>2026-05-01T11:46:45.999Z</time></trkpt><trkpt lat="44.91273228696631" lon="13.848947879835409"><ele>38.0</ele><time>2026-05-01T11:46:46.999Z</time></trkpt><trkpt lat="44.91257097588567" lon="13.848893306116555"><ele>37.33333333333333</ele><time>2026-05-01T11:46:47.999Z</time></trkpt><trkpt lat="44.912406996751464" lon="13.848839128749532"><ele>36.666666666666664</ele><time>2026-05-01T11:46:48.999Z</time></trkpt><trkpt lat="44.91225406579251" lon="13.848789602308239"><ele>36.0</ele><time>2026-05-01T11:46:49.999Z</time></trkpt><trkpt lat="44.91210559409269" lon="13.848745031633596"><ele>36.0</ele><time>2026-05-01T11:46:50.999Z</time></trkpt><trkpt lat="44.91195791507468" lon="13.84869537094932"><ele>36.0</ele><time>2026-05-01T11:46:51.999Z</time></trkpt><trkpt lat="44.911804262304685" lon="13.848650289847726"><ele>36.0</ele><time>2026-05-01T11:46:52.999Z</time></trkpt><trkpt lat="44.91166058027793" lon="13.84860804390913"><ele>36.0</ele><time>2026-05-01T11:46:53.999Z</time></trkpt><trkpt lat="44.91152269761297" lon="13.848565673913695"><ele>36.0</ele><time>2026-05-01T11:46:54.999Z</time></trkpt><trkpt lat="44.9113782284597" lon="13.84852399222006"><ele>36.0</ele><time>2026-05-01T11:46:55.999Z</time></trkpt><trkpt lat="44.91123316590682" lon="13.848474945233795"><ele>36.0</ele><time>2026-05-01T11:46:56.999Z</time></trkpt><trkpt lat="44.91109034554425" lon="13.848432480454997"><ele>35.75</ele><time>2026-05-01T11:46:57.999Z</time></trkpt><trkpt lat="44.910942484509036" lon="13.848386226370486"><ele>35.5</ele><time>2026-05-01T11:46:58.999Z</time></trkpt><trkpt lat="44.91079554569536" lon="13.848339901175391"><ele>35.25</ele><time>2026-05-01T11:46:59.999Z</time></trkpt><trkpt lat="44.91065380703765" lon="13.848298597682511"><ele>35.0</ele><time>2026-05-01T11:47:00.999Z</time></trkpt><trkpt lat="44.91050084659209" lon="13.848248881858673"><ele>35.0</ele><time>2026-05-01T11:47:01.999Z</time></trkpt><trkpt lat="44.91035729429881" lon="13.848202847277054"><ele>35.0</ele><time>2026-05-01T11:47:02.999Z</time></trkpt><trkpt lat="44.910208277792805" lon="13.848155249195218"><ele>35.0</ele><time>2026-05-01T11:47:03.999Z</time></trkpt><trkpt lat="44.91006053418779" lon="13.84810926639444"><ele>34.5</ele><time>2026-05-01T11:47:04.999Z</time></trkpt><trkpt lat="44.909919750779785" lon="13.848065612047817"><ele>34.0</ele><time>2026-05-01T11:47:05.999Z</time></trkpt><trkpt lat="44.909782122963506" lon="13.848021508823193"><ele>33.5</ele><time>2026-05-01T11:47:06.999Z</time></trkpt><trkpt lat="44.90964167259112" lon="13.847977996860765"><ele>33.0</ele><time>2026-05-01T11:47:07.999Z</time></trkpt><trkpt lat="44.90949844355866" lon="13.84793270881287"><ele>33.0</ele><time>2026-05-01T11:47:08.999Z</time></trkpt><trkpt lat="44.909355446971254" lon="13.847885919054455"><ele>33.0</ele><time>2026-05-01T11:47:09.999Z</time></trkpt><trkpt lat="44.90921199782074" lon="13.847838588712063"><ele>33.0</ele><time>2026-05-01T11:47:10.999Z</time></trkpt><trkpt lat="44.90906272235242" lon="13.847791353258197"><ele>33.0</ele><time>2026-05-01T11:47:11.999Z</time></trkpt><trkpt lat="44.9089207626422" lon="13.847745333993581"><ele>32.5</ele><time>2026-05-01T11:47:12.999Z</time></trkpt><trkpt lat="44.90878244345781" lon="13.847704107176972"><ele>32.0</ele><time>2026-05-01T11:47:13.999Z</time></trkpt><trkpt lat="44.90864446594478" lon="13.847664709678678"><ele>31.5</ele><time>2026-05-01T11:47:14.999Z</time></trkpt><trkpt lat="44.90849771376139" lon="13.84762284450394"><ele>31.0</ele><time>2026-05-01T11:47:15.999Z</time></trkpt><trkpt lat="44.90835160646881" lon="13.847577752155294"><ele>30.333333333333336</ele><time>2026-05-01T11:47:16.999Z</time></trkpt><trkpt lat="44.90820312078516" lon="13.847532504581217"><ele>29.666666666666664</ele><time>2026-05-01T11:47:17.999Z</time></trkpt><trkpt lat="44.90805171222768" lon="13.847486299291358"><ele>29.0</ele><time>2026-05-01T11:47:18.999Z</time></trkpt><trkpt lat="44.90790117621047" lon="13.847440762580597"><ele>29.0</ele><time>2026-05-01T11:47:19.999Z</time></trkpt><trkpt lat="44.907750629565875" lon="13.847390098683356"><ele>29.0</ele><time>2026-05-01T11:47:20.999Z</time></trkpt><trkpt lat="44.907598711353415" lon="13.847341955392421"><ele>29.0</ele><time>2026-05-01T11:47:21.999Z</time></trkpt><trkpt lat="44.907449861023494" lon="13.847296464189998"><ele>28.5</ele><time>2026-05-01T11:47:22.999Z</time></trkpt><trkpt lat="44.90730365866105" lon="13.847249912503118"><ele>28.0</ele><time>2026-05-01T11:47:23.999Z</time></trkpt><trkpt lat="44.90716914527414" lon="13.847208088156298"><ele>27.5</ele><time>2026-05-01T11:47:24.999Z</time></trkpt><trkpt lat="44.90703595029682" lon="13.847166739787783"><ele>27.0</ele><time>2026-05-01T11:47:25.999Z</time></trkpt><trkpt lat="44.90689992849299" lon="13.847122337063471"><ele>27.0</ele><time>2026-05-01T11:47:26.999Z</time></trkpt><trkpt lat="44.90677118876232" lon="13.847081168563891"><ele>27.0</ele><time>2026-05-01T11:47:27.999Z</time></trkpt><trkpt lat="44.90663762750539" lon="13.847039756759662"><ele>27.0</ele><time>2026-05-01T11:47:28.999Z</time></trkpt><trkpt lat="44.90650523225116" lon="13.84699880158751"><ele>27.0</ele><time>2026-05-01T11:47:29.999Z</time></trkpt><trkpt lat="44.906377275272725" lon="13.846961736475505"><ele>27.5</ele><time>2026-05-01T11:47:30.999Z</time></trkpt><trkpt lat="44.90626357537303" lon="13.846923568187217"><ele>28.0</ele><time>2026-05-01T11:47:31.999Z</time></trkpt><trkpt lat="44.90614538484866" lon="13.84688854389442"><ele>28.5</ele><time>2026-05-01T11:47:32.999Z</time></trkpt><trkpt lat="44.90603054399891" lon="13.846850353858237"><ele>29.0</ele><time>2026-05-01T11:47:33.999Z</time></trkpt><trkpt lat="44.90591463649607" lon="13.84681646898847"><ele>28.6</ele><time>2026-05-01T11:47:34.999Z</time></trkpt><trkpt lat="44.90580413701157" lon="13.846788660861879"><ele>28.2</ele><time>2026-05-01T11:47:35.999Z</time></trkpt><trkpt lat="44.9057046874956" lon="13.846753853574059"><ele>27.800000000000004</ele><time>2026-05-01T11:47:36.999Z</time></trkpt><trkpt lat="44.90560753365453" lon="13.846723430992473"><ele>27.400000000000002</ele><time>2026-05-01T11:47:37.999Z</time></trkpt><trkpt lat="44.905513916806946" lon="13.84669486323356"><ele>27.0</ele><time>2026-05-01T11:47:38.999Z</time></trkpt><trkpt lat="44.905415505480164" lon="13.846661399792787"><ele>27.0</ele><time>2026-05-01T11:47:39.999Z</time></trkpt><trkpt lat="44.90531531506786" lon="13.846628990915924"><ele>27.000000000000004</ele><time>2026-05-01T11:47:40.999Z</time></trkpt><trkpt lat="44.905214425966086" lon="13.846599259760586"><ele>27.000000000000004</ele><time>2026-05-01T11:47:42Z</time></trkpt><trkpt lat="44.90510877796237" lon="13.846568276465037"><ele>27.0</ele><time>2026-05-01T11:47:43Z</time></trkpt><trkpt lat="44.904999660097495" lon="13.846537654714252"><ele>27.0</ele><time>2026-05-01T11:47:44Z</time></trkpt><trkpt lat="44.90489577072152" lon="13.846506280600094"><ele>26.8</ele><time>2026-05-01T11:47:45Z</time></trkpt><trkpt lat="44.90479735055498" lon="13.846472007275453"><ele>26.6</ele><time>2026-05-01T11:47:46Z</time></trkpt><trkpt lat="44.904699321510215" lon="13.846439925782835"><ele>26.400000000000002</ele><time>2026-05-01T11:47:47Z</time></trkpt><trkpt lat="44.90460971215743" lon="13.846414060994066"><ele>26.200000000000003</ele><time>2026-05-01T11:47:48Z</time></trkpt><trkpt lat="44.9045251465981" lon="13.846388749867879"><ele>26.0</ele><time>2026-05-01T11:47:49Z</time></trkpt><trkpt lat="44.90445023848668" lon="13.846366207256873"><ele>25.999999999999996</ele><time>2026-05-01T11:47:50Z</time></trkpt><trkpt lat="44.90437777426633" lon="13.84634251041419"><ele>26.0</ele><time>2026-05-01T11:47:51Z</time></trkpt><trkpt lat="44.90429765492468" lon="13.84631097604402"><ele>26.0</ele><time>2026-05-01T11:47:52Z</time></trkpt><trkpt lat="44.90422589844989" lon="13.84626924125772"><ele>26.0</ele><time>2026-05-01T11:47:53Z</time></trkpt><trkpt lat="44.904168846328666" lon="13.846201658708306"><ele>25.999999999999996</ele><time>2026-05-01T11:47:54Z</time></trkpt><trkpt lat="44.90411491384649" lon="13.846125437458022"><ele>26.0</ele><time>2026-05-01T11:47:55Z</time></trkpt><trkpt lat="44.9040521395337" lon="13.846061746524468"><ele>26.0</ele><time>2026-05-01T11:47:56Z</time></trkpt><trkpt lat="44.90397116833272" lon="13.846042790839038"><ele>26.0</ele><time>2026-05-01T11:47:57Z</time></trkpt><trkpt lat="44.90389555215666" lon="13.846075953939998"><ele>26.0</ele><time>2026-05-01T11:47:58Z</time></trkpt><trkpt lat="44.903807644462425" lon="13.846149729794114"><ele>26.0</ele><time>2026-05-01T11:48:00Z</time></trkpt><trkpt lat="44.9037356092843" lon="13.846134079320382"><ele>26.0</ele><time>2026-05-01T11:48:07Z</time></trkpt><trkpt lat="44.903617787910164" lon="13.846093922537607"><ele>25.999999999999996</ele><time>2026-05-01T11:48:09Z</time></trkpt><trkpt lat="44.90354554605975" lon="13.846076003105795"><ele>26.0</ele><time>2026-05-01T11:48:10Z</time></trkpt><trkpt lat="44.90346079162989" lon="13.846044072934228"><ele>26.0</ele><time>2026-05-01T11:48:11Z</time></trkpt><trkpt lat="44.903381863456204" lon="13.846019675486781"><ele>26.0</ele><time>2026-05-01T11:48:12Z</time></trkpt><trkpt lat="44.90330298372587" lon="13.845996411746453"><ele>25.999999999999996</ele><time>2026-05-01T11:48:13Z</time></trkpt><trkpt lat="44.90322297739694" lon="13.84596263083726"><ele>26.0</ele><time>2026-05-01T11:48:14Z</time></trkpt><trkpt lat="44.90312888881536" lon="13.84594751075553"><ele>26.75</ele><time>2026-05-01T11:48:15Z</time></trkpt><trkpt lat="44.903022871251544" lon="13.84591206350406"><ele>27.5</ele><time>2026-05-01T11:48:16Z</time></trkpt><trkpt lat="44.90290482481966" lon="13.845873531457535"><ele>28.25</ele><time>2026-05-01T11:48:17Z</time></trkpt><trkpt lat="44.90278009498974" lon="13.84583147728004"><ele>29.0</ele><time>2026-05-01T11:48:18Z</time></trkpt><trkpt lat="44.9026590517425" lon="13.845802817394295"><ele>28.5</ele><time>2026-05-01T11:48:19Z</time></trkpt><trkpt lat="44.90253585069932" lon="13.845773995365631"><ele>28.0</ele><time>2026-05-01T11:48:20Z</time></trkpt><trkpt lat="44.90240680616221" lon="13.84574464179261"><ele>27.5</ele><time>2026-05-01T11:48:21Z</time></trkpt><trkpt lat="44.90227686186236" lon="13.84571467456748"><ele>27.0</ele><time>2026-05-01T11:48:22Z</time></trkpt><trkpt lat="44.90214166959427" lon="13.845683425873107"><ele>27.0</ele><time>2026-05-01T11:48:23Z</time></trkpt><trkpt lat="44.90200369826358" lon="13.84565393837322"><ele>27.0</ele><time>2026-05-01T11:48:24Z</time></trkpt><trkpt lat="44.90186631115068" lon="13.845621268046992"><ele>27.0</ele><time>2026-05-01T11:48:25Z</time></trkpt><trkpt lat="44.901722559891944" lon="13.845599433681729"><ele>27.0</ele><time>2026-05-01T11:48:26Z</time></trkpt><trkpt lat="44.9015761609849" lon="13.84557348025719"><ele>27.0</ele><time>2026-05-01T11:48:27Z</time></trkpt><trkpt lat="44.90143683453239" lon="13.845548395803462"><ele>27.0</ele><time>2026-05-01T11:48:28Z</time></trkpt><trkpt lat="44.901302369853255" lon="13.84552575926491"><ele>27.0</ele><time>2026-05-01T11:48:29Z</time></trkpt><trkpt lat="44.901162531579466" lon="13.845497629026477"><ele>27.0</ele><time>2026-05-01T11:48:30Z</time></trkpt><trkpt lat="44.90102607749751" lon="13.845473977025163"><ele>27.0</ele><time>2026-05-01T11:48:31Z</time></trkpt><trkpt lat="44.90090064362137" lon="13.845453078360478"><ele>27.0</ele><time>2026-05-01T11:48:32Z</time></trkpt><trkpt lat="44.90077007890235" lon="13.845432286812787"><ele>27.0</ele><time>2026-05-01T11:48:33Z</time></trkpt><trkpt lat="44.90063325886166" lon="13.845407531274844"><ele>27.0</ele><time>2026-05-01T11:48:34Z</time></trkpt><trkpt lat="44.900496410065536" lon="13.845383868838583"><ele>27.0</ele><time>2026-05-01T11:48:35Z</time></trkpt><trkpt lat="44.900354109429145" lon="13.845354932440697"><ele>27.0</ele><time>2026-05-01T11:48:35.999Z</time></trkpt><trkpt lat="44.90021933122904" lon="13.845328180317885"><ele>27.0</ele><time>2026-05-01T11:48:36.999Z</time></trkpt><trkpt lat="44.90009392774907" lon="13.845305337453386"><ele>27.0</ele><time>2026-05-01T11:48:37.999Z</time></trkpt><trkpt lat="44.89997575640949" lon="13.845282756476179"><ele>27.25</ele><time>2026-05-01T11:48:38.999Z</time></trkpt><trkpt lat="44.89985765463901" lon="13.845261220926982"><ele>27.5</ele><time>2026-05-01T11:48:39.999Z</time></trkpt><trkpt lat="44.899736090226035" lon="13.845245401187837"><ele>27.75</ele><time>2026-05-01T11:48:40.999Z</time></trkpt><trkpt lat="44.8996097357479" lon="13.845223158354816"><ele>28.0</ele><time>2026-05-01T11:48:41.999Z</time></trkpt><trkpt lat="44.89949052360193" lon="13.845194308980362"><ele>28.0</ele><time>2026-05-01T11:48:42.999Z</time></trkpt><trkpt lat="44.89937812690435" lon="13.845169336717506"><ele>27.999999999999996</ele><time>2026-05-01T11:48:43.999Z</time></trkpt><trkpt lat="44.89928152897198" lon="13.845117205852395"><ele>27.999999999999996</ele><time>2026-05-01T11:48:44.999Z</time></trkpt><trkpt lat="44.89919126434881" lon="13.845044261399067"><ele>28.0</ele><time>2026-05-01T11:48:45.999Z</time></trkpt><trkpt lat="44.899114865273546" lon="13.844960714014688"><ele>28.0</ele><time>2026-05-01T11:48:46.999Z</time></trkpt><trkpt lat="44.8990358926485" lon="13.844885675573112"><ele>27.599999999999998</ele><time>2026-05-01T11:48:47.999Z</time></trkpt><trkpt lat="44.89895775265129" lon="13.844864974862652"><ele>27.199999999999996</ele><time>2026-05-01T11:48:48.999Z</time></trkpt><trkpt lat="44.898869088597266" lon="13.844912251666083"><ele>26.8</ele><time>2026-05-01T11:48:49.999Z</time></trkpt><trkpt lat="44.89878565405023" lon="13.844993718397383"><ele>26.4</ele><time>2026-05-01T11:48:50.999Z</time></trkpt><trkpt lat="44.89869466506139" lon="13.845056011043571"><ele>26.0</ele><time>2026-05-01T11:48:51.999Z</time></trkpt><trkpt lat="44.89858520967515" lon="13.845083901931977"><ele>26.0</ele><time>2026-05-01T11:48:52.999Z</time></trkpt><trkpt lat="44.89846585081622" lon="13.845082882241105"><ele>26.0</ele><time>2026-05-01T11:48:53.999Z</time></trkpt><trkpt lat="44.8983357011261" lon="13.845074576889559"><ele>26.0</ele><time>2026-05-01T11:48:54.999Z</time></trkpt><trkpt lat="44.89820474638974" lon="13.845072744438431"><ele>26.0</ele><time>2026-05-01T11:48:55.999Z</time></trkpt><trkpt lat="44.89807436348602" lon="13.845074172501711"><ele>25.75</ele><time>2026-05-01T11:48:56.999Z</time></trkpt><trkpt lat="44.89793883415484" lon="13.845074800988597"><ele>25.5</ele><time>2026-05-01T11:48:57.999Z</time></trkpt><trkpt lat="44.897802444838135" lon="13.845077056350961"><ele>25.25</ele><time>2026-05-01T11:48:58.999Z</time></trkpt><trkpt lat="44.89766811565431" lon="13.845077907211975"><ele>25.0</ele><time>2026-05-01T11:48:59.999Z</time></trkpt><trkpt lat="44.897533914552675" lon="13.845079960941307"><ele>25.75</ele><time>2026-05-01T11:49:00.999Z</time></trkpt><trkpt lat="44.897394184415035" lon="13.845081283147158"><ele>26.5</ele><time>2026-05-01T11:49:01.999Z</time></trkpt><trkpt lat="44.897248834625046" lon="13.84508061144052"><ele>27.25</ele><time>2026-05-01T11:49:02.999Z</time></trkpt><trkpt lat="44.89710170260497" lon="13.84507967205523"><ele>28.0</ele><time>2026-05-01T11:49:03.999Z</time></trkpt><trkpt lat="44.89695284927199" lon="13.845081892577548"><ele>28.0</ele><time>2026-05-01T11:49:04.999Z</time></trkpt><trkpt lat="44.896807357257856" lon="13.845084352329447"><ele>28.0</ele><time>2026-05-01T11:49:05.999Z</time></trkpt><trkpt lat="44.89666311169324" lon="13.845084179107042"><ele>28.0</ele><time>2026-05-01T11:49:06.999Z</time></trkpt><trkpt lat="44.89652243394481" lon="13.845084765481255"><ele>28.0</ele><time>2026-05-01T11:49:07.999Z</time></trkpt><trkpt lat="44.896389540048666" lon="13.84508474846302"><ele>28.75</ele><time>2026-05-01T11:49:08.999Z</time></trkpt><trkpt lat="44.896252138726325" lon="13.845085114249992"><ele>29.5</ele><time>2026-05-01T11:49:09.999Z</time></trkpt><trkpt lat="44.89611642291205" lon="13.84508438082452"><ele>30.25</ele><time>2026-05-01T11:49:10.999Z</time></trkpt><trkpt lat="44.89598569492394" lon="13.84508674961873"><ele>31.0</ele><time>2026-05-01T11:49:11.999Z</time></trkpt><trkpt lat="44.895860463113316" lon="13.845087561062066"><ele>31.5</ele><time>2026-05-01T11:49:12.999Z</time></trkpt><trkpt lat="44.89573360653173" lon="13.845084587782479"><ele>32.0</ele><time>2026-05-01T11:49:13.999Z</time></trkpt><trkpt lat="44.89560633805098" lon="13.845081368025081"><ele>32.5</ele><time>2026-05-01T11:49:14.999Z</time></trkpt><trkpt lat="44.89547544424582" lon="13.84508331904913"><ele>33.0</ele><time>2026-05-01T11:49:15.999Z</time></trkpt><trkpt lat="44.8953426273794" lon="13.845086491680092"><ele>33.0</ele><time>2026-05-01T11:49:16.999Z</time></trkpt><trkpt lat="44.89520994367704" lon="13.84509185131364"><ele>33.0</ele><time>2026-05-01T11:49:17.999Z</time></trkpt><trkpt lat="44.895074966921584" lon="13.845099429590533"><ele>33.0</ele><time>2026-05-01T11:49:18.999Z</time></trkpt><trkpt lat="44.89493951051871" lon="13.845116485215353"><ele>33.0</ele><time>2026-05-01T11:49:19.999Z</time></trkpt><trkpt lat="44.89480115123712" lon="13.84514390544612"><ele>33.5</ele><time>2026-05-01T11:49:20.999Z</time></trkpt><trkpt lat="44.89466980023962" lon="13.845180601416558"><ele>34.0</ele><time>2026-05-01T11:49:21.999Z</time></trkpt><trkpt lat="44.894545091701694" lon="13.845215394999487"><ele>34.5</ele><time>2026-05-01T11:49:22.999Z</time></trkpt><trkpt lat="44.894416067408955" lon="13.845263602868565"><ele>35.0</ele><time>2026-05-01T11:49:23.999Z</time></trkpt><trkpt lat="44.89428627636473" lon="13.845314344225297"><ele>35.0</ele><time>2026-05-01T11:49:24.999Z</time></trkpt><trkpt lat="44.89415944984045" lon="13.845371032415846"><ele>35.0</ele><time>2026-05-01T11:49:25.999Z</time></trkpt><trkpt lat="44.89403987910224" lon="13.845434135487729"><ele>35.0</ele><time>2026-05-01T11:49:26.999Z</time></trkpt><trkpt lat="44.89391994401542" lon="13.84550034861601"><ele>35.0</ele><time>2026-05-01T11:49:27.999Z</time></trkpt><trkpt lat="44.89380307525036" lon="13.845572712259099"><ele>35.0</ele><time>2026-05-01T11:49:28.999Z</time></trkpt><trkpt lat="44.893691909992356" lon="13.84564136774623"><ele>35.0</ele><time>2026-05-01T11:49:29.999Z</time></trkpt><trkpt lat="44.8935836536616" lon="13.845709678316815"><ele>35.0</ele><time>2026-05-01T11:49:30.999Z</time></trkpt><trkpt lat="44.893481782902384" lon="13.84577207320768"><ele>35.0</ele><time>2026-05-01T11:49:31.999Z</time></trkpt><trkpt lat="44.89338425927823" lon="13.845827128882565"><ele>35.0</ele><time>2026-05-01T11:49:32.999Z</time></trkpt><trkpt lat="44.893294699677156" lon="13.845874550387881"><ele>35.0</ele><time>2026-05-01T11:49:33.999Z</time></trkpt><trkpt lat="44.89320776227272" lon="13.845918266770529"><ele>35.0</ele><time>2026-05-01T11:49:34.999Z</time></trkpt><trkpt lat="44.89312900535614" lon="13.845952366361995"><ele>35.0</ele><time>2026-05-01T11:49:35.999Z</time></trkpt><trkpt lat="44.89305594750814" lon="13.845976362609473"><ele>35.0</ele><time>2026-05-01T11:49:36.999Z</time></trkpt><trkpt lat="44.892985309983914" lon="13.845991954800885"><ele>35.0</ele><time>2026-05-01T11:49:37.999Z</time></trkpt><trkpt lat="44.89291932959055" lon="13.845987097035755"><ele>34.6</ele><time>2026-05-01T11:49:38.999Z</time></trkpt><trkpt lat="44.892806675285165" lon="13.845927867767974"><ele>34.2</ele><time>2026-05-01T11:49:40.999Z</time></trkpt><trkpt lat="44.892694770526425" lon="13.84586438412715"><ele>33.8</ele><time>2026-05-01T11:49:42.999Z</time></trkpt><trkpt lat="44.89263281966406" lon="13.845888226021271"><ele>33.4</ele><time>2026-05-01T11:49:43.999Z</time></trkpt><trkpt lat="44.89256743506745" lon="13.845953794370622"><ele>33.0</ele><time>2026-05-01T11:49:44.999Z</time></trkpt><trkpt lat="44.89251035449664" lon="13.84603018722571"><ele>34.199999999999996</ele><time>2026-05-01T11:49:45.999Z</time></trkpt><trkpt lat="44.89243254429385" lon="13.846082720246972"><ele>35.4</ele><time>2026-05-01T11:49:46.999Z</time></trkpt><trkpt lat="44.89232742225145" lon="13.846095385605567"><ele>36.599999999999994</ele><time>2026-05-01T11:49:48Z</time></trkpt><trkpt lat="44.892222504295816" lon="13.846085093775715"><ele>37.8</ele><time>2026-05-01T11:49:49Z</time></trkpt><trkpt lat="44.892120800256606" lon="13.846066616303125"><ele>39.0</ele><time>2026-05-01T11:49:50Z</time></trkpt><trkpt lat="44.89202864003877" lon="13.846052555722954"><ele>39.0</ele><time>2026-05-01T11:49:51Z</time></trkpt><trkpt lat="44.891946063724006" lon="13.846044282111915"><ele>39.0</ele><time>2026-05-01T11:49:52Z</time></trkpt><trkpt lat="44.891868241419346" lon="13.846038854991425"><ele>39.0</ele><time>2026-05-01T11:49:53Z</time></trkpt><trkpt lat="44.89179113894665" lon="13.846035397526537"><ele>39.0</ele><time>2026-05-01T11:49:54Z</time></trkpt><trkpt lat="44.89171256075722" lon="13.846031672858267"><ele>39.0</ele><time>2026-05-01T11:49:55Z</time></trkpt><trkpt lat="44.89162809909427" lon="13.846031705833433"><ele>39.0</ele><time>2026-05-01T11:49:56Z</time></trkpt><trkpt lat="44.891536685774504" lon="13.846027366845131"><ele>40.0</ele><time>2026-05-01T11:49:57Z</time></trkpt><trkpt lat="44.891442481881136" lon="13.846021216064303"><ele>41.0</ele><time>2026-05-01T11:49:58Z</time></trkpt><trkpt lat="44.891351655395376" lon="13.84601324650415"><ele>42.0</ele><time>2026-05-01T11:49:59Z</time></trkpt><trkpt lat="44.89127001468371" lon="13.84600685978959"><ele>43.0</ele><time>2026-05-01T11:50:00Z</time></trkpt><trkpt lat="44.89119353359795" lon="13.846003137859"><ele>44.0</ele><time>2026-05-01T11:50:01Z</time></trkpt><trkpt lat="44.89111764365627" lon="13.846000037468176"><ele>45.0</ele><time>2026-05-01T11:50:02Z</time></trkpt><trkpt lat="44.89103896712404" lon="13.845997905798496"><ele>45.0</ele><time>2026-05-01T11:50:03Z</time></trkpt><trkpt lat="44.89095848187993" lon="13.845991128347572"><ele>45.0</ele><time>2026-05-01T11:50:04Z</time></trkpt><trkpt lat="44.89087966832795" lon="13.846000297161865"><ele>45.0</ele><time>2026-05-01T11:50:05Z</time></trkpt><trkpt lat="44.89079491898369" lon="13.846022863531736"><ele>45.0</ele><time>2026-05-01T11:50:06Z</time></trkpt><trkpt lat="44.89071195641019" lon="13.846048852839616"><ele>45.0</ele><time>2026-05-01T11:50:07Z</time></trkpt><trkpt lat="44.890632579480304" lon="13.846079190379998"><ele>45.0</ele><time>2026-05-01T11:50:08Z</time></trkpt><trkpt lat="44.89055923475403" lon="13.846119627929358"><ele>43.5</ele><time>2026-05-01T11:50:09Z</time></trkpt><trkpt lat="44.89047882788492" lon="13.846179701194949"><ele>42.0</ele><time>2026-05-01T11:50:10Z</time></trkpt><trkpt lat="44.890407015931146" lon="13.846253217799175"><ele>40.5</ele><time>2026-05-01T11:50:11Z</time></trkpt><trkpt lat="44.89034251698194" lon="13.84632832538534"><ele>39.0</ele><time>2026-05-01T11:50:12Z</time></trkpt><trkpt lat="44.89027730843335" lon="13.846398374927055"><ele>37.5</ele><time>2026-05-01T11:50:13Z</time></trkpt><trkpt lat="44.89021164618352" lon="13.846465623770625"><ele>36.0</ele><time>2026-05-01T11:50:14Z</time></trkpt><trkpt lat="44.890143011070755" lon="13.846534855146372"><ele>34.0</ele><time>2026-05-01T11:50:15Z</time></trkpt><trkpt lat="44.8900698835044" lon="13.84661232757205"><ele>32.0</ele><time>2026-05-01T11:50:16Z</time></trkpt><trkpt lat="44.889987632535664" lon="13.84669338674805"><ele>30.0</ele><time>2026-05-01T11:50:17Z</time></trkpt><trkpt lat="44.88990513156991" lon="13.846779594779193"><ele>28.0</ele><time>2026-05-01T11:50:18Z</time></trkpt><trkpt lat="44.88982143298767" lon="13.84686983819655"><ele>26.0</ele><time>2026-05-01T11:50:19Z</time></trkpt><trkpt lat="44.8897408025228" lon="13.846959061294323"><ele>26.0</ele><time>2026-05-01T11:50:20Z</time></trkpt><trkpt lat="44.889663933495235" lon="13.847041238467845"><ele>26.0</ele><time>2026-05-01T11:50:21Z</time></trkpt><trkpt lat="44.88958371655829" lon="13.847121396679663"><ele>26.0</ele><time>2026-05-01T11:50:22Z</time></trkpt><trkpt lat="44.88950178206429" lon="13.847200741938774"><ele>26.0</ele><time>2026-05-01T11:50:23Z</time></trkpt><trkpt lat="44.889419928735656" lon="13.847282939065197"><ele>26.0</ele><time>2026-05-01T11:50:24Z</time></trkpt><trkpt lat="44.88933344938804" lon="13.847366208003132"><ele>24.400000000000002</ele><time>2026-05-01T11:50:25Z</time></trkpt><trkpt lat="44.889240228012206" lon="13.847438892862652"><ele>22.8</ele><time>2026-05-01T11:50:26Z</time></trkpt><trkpt lat="44.88914397290256" lon="13.84750006930583"><ele>21.200000000000003</ele><time>2026-05-01T11:50:27Z</time></trkpt><trkpt lat="44.88904238732267" lon="13.847549993840168"><ele>19.6</ele><time>2026-05-01T11:50:28Z</time></trkpt><trkpt lat="44.88893941592904" lon="13.847592880465985"><ele>18.0</ele><time>2026-05-01T11:50:29Z</time></trkpt><trkpt lat="44.88883998642898" lon="13.847634677408982"><ele>17.4</ele><time>2026-05-01T11:50:30Z</time></trkpt><trkpt lat="44.888745414945994" lon="13.847676347187784"><ele>16.8</ele><time>2026-05-01T11:50:31Z</time></trkpt><trkpt lat="44.88865147664426" lon="13.847714712341705"><ele>16.2</ele><time>2026-05-01T11:50:32Z</time></trkpt><trkpt lat="44.88856272288875" lon="13.84776640830167"><ele>15.6</ele><time>2026-05-01T11:50:33Z</time></trkpt><trkpt lat="44.888482975760965" lon="13.847838709033665"><ele>15.0</ele><time>2026-05-01T11:50:34Z</time></trkpt><trkpt lat="44.88841328241366" lon="13.847927837480686"><ele>14.166666666666666</ele><time>2026-05-01T11:50:35Z</time></trkpt><trkpt lat="44.888347886122276" lon="13.84801560110985"><ele>13.333333333333334</ele><time>2026-05-01T11:50:36Z</time></trkpt><trkpt lat="44.88829362657432" lon="13.848107418312763"><ele>12.5</ele><time>2026-05-01T11:50:36.999Z</time></trkpt><trkpt lat="44.88823494458475" lon="13.848198087808255"><ele>11.666666666666668</ele><time>2026-05-01T11:50:37.999Z</time></trkpt><trkpt lat="44.888170199852" lon="13.848269507519005"><ele>10.833333333333334</ele><time>2026-05-01T11:50:38.999Z</time></trkpt><trkpt lat="44.8880778496023" lon="13.848307822792373"><ele>10.0</ele><time>2026-05-01T11:50:39.999Z</time></trkpt><trkpt lat="44.887977490838765" lon="13.848286450688025"><ele>10.0</ele><time>2026-05-01T11:50:40.999Z</time></trkpt><trkpt lat="44.887882335359954" lon="13.84822302772347"><ele>10.0</ele><time>2026-05-01T11:50:41.999Z</time></trkpt><trkpt lat="44.88778787090116" lon="13.848182497953799"><ele>10.0</ele><time>2026-05-01T11:50:42.999Z</time></trkpt><trkpt lat="44.887684561301704" lon="13.848171531156272"><ele>10.0</ele><time>2026-05-01T11:50:43.999Z</time></trkpt><trkpt lat="44.88758814837054" lon="13.848189885529562"><ele>10.0</ele><time>2026-05-01T11:50:44.999Z</time></trkpt><trkpt lat="44.88748670197498" lon="13.84823692394638"><ele>9.0</ele><time>2026-05-01T11:50:45.999Z</time></trkpt><trkpt lat="44.88738496037763" lon="13.848308842814971"><ele>8.0</ele><time>2026-05-01T11:50:46.999Z</time></trkpt><trkpt lat="44.88729434785232" lon="13.848374317573125"><ele>7.0</ele><time>2026-05-01T11:50:47.999Z</time></trkpt><trkpt lat="44.88720686555442" lon="13.84842741774907"><ele>6.0</ele><time>2026-05-01T11:50:48.999Z</time></trkpt><trkpt lat="44.887116948764294" lon="13.848479457593658"><ele>5.0</ele><time>2026-05-01T11:50:49.999Z</time></trkpt><trkpt lat="44.88702178337667" lon="13.848533412497606"><ele>4.6</ele><time>2026-05-01T11:50:50.999Z</time></trkpt><trkpt lat="44.886926806581066" lon="13.848587028804747"><ele>4.2</ele><time>2026-05-01T11:50:51.999Z</time></trkpt><trkpt lat="44.886835570604276" lon="13.84864686507461"><ele>3.8</ele><time>2026-05-01T11:50:52.999Z</time></trkpt><trkpt lat="44.88674945778646" lon="13.84870431697733"><ele>3.4</ele><time>2026-05-01T11:50:53.999Z</time></trkpt><trkpt lat="44.88666670025007" lon="13.84875280553696"><ele>3.0</ele><time>2026-05-01T11:50:54.999Z</time></trkpt><trkpt lat="44.886576747533994" lon="13.848806523818537"><ele>3.0</ele><time>2026-05-01T11:50:55.999Z</time></trkpt><trkpt lat="44.88648820712151" lon="13.848869264719946"><ele>3.0</ele><time>2026-05-01T11:50:56.999Z</time></trkpt><trkpt lat="44.886402952968766" lon="13.848942214137294"><ele>3.0</ele><time>2026-05-01T11:50:57.999Z</time></trkpt><trkpt lat="44.8863222605187" lon="13.849019905172922"><ele>3.0</ele><time>2026-05-01T11:50:58.999Z</time></trkpt><trkpt lat="44.886248517313774" lon="13.84909435160168"><ele>3.0</ele><time>2026-05-01T11:50:59.999Z</time></trkpt><trkpt lat="44.886179662373955" lon="13.849168990440965"><ele>3.0</ele><time>2026-05-01T11:51:00.999Z</time></trkpt><trkpt lat="44.88611585439281" lon="13.849249002147285"><ele>3.0</ele><time>2026-05-01T11:51:01.999Z</time></trkpt><trkpt lat="44.886061707165396" lon="13.849327721769676"><ele>3.0</ele><time>2026-05-01T11:51:02.999Z</time></trkpt><trkpt lat="44.886014253417514" lon="13.84940731253286"><ele>3.0</ele><time>2026-05-01T11:51:03.999Z</time></trkpt><trkpt lat="44.88596359446778" lon="13.84949836467346"><ele>3.0</ele><time>2026-05-01T11:51:04.999Z</time></trkpt><trkpt lat="44.88591434477185" lon="13.849592394747155"><ele>3.0</ele><time>2026-05-01T11:51:05.999Z</time></trkpt><trkpt lat="44.88586580104501" lon="13.849695084243438"><ele>3.1428571428571423</ele><time>2026-05-01T11:51:06.999Z</time></trkpt><trkpt lat="44.88582368491496" lon="13.849795391194176"><ele>3.2857142857142856</ele><time>2026-05-01T11:51:07.999Z</time></trkpt><trkpt lat="44.88579054977923" lon="13.84989208629082"><ele>3.4285714285714284</ele><time>2026-05-01T11:51:08.999Z</time></trkpt><trkpt lat="44.885756629896115" lon="13.849986121559269"><ele>3.571428571428571</ele><time>2026-05-01T11:51:09.999Z</time></trkpt><trkpt lat="44.88572153734594" lon="13.850074664246037"><ele>3.714285714285714</ele><time>2026-05-01T11:51:10.999Z</time></trkpt><trkpt lat="44.88567987326897" lon="13.850147759715473"><ele>3.8571428571428568</ele><time>2026-05-01T11:51:11.999Z</time></trkpt><trkpt lat="44.88562764171615" lon="13.85021161046974"><ele>4.0</ele><time>2026-05-01T11:51:12.999Z</time></trkpt><trkpt lat="44.88557070647586" lon="13.850256575572539"><ele>4.800000000000001</ele><time>2026-05-01T11:51:13.999Z</time></trkpt><trkpt lat="44.88551188988959" lon="13.850294618052057"><ele>5.6000000000000005</ele><time>2026-05-01T11:51:14.999Z</time></trkpt><trkpt lat="44.8854380763766" lon="13.850327820043935"><ele>6.4</ele><time>2026-05-01T11:51:15.999Z</time></trkpt><trkpt lat="44.88534801092586" lon="13.850340938024"><ele>7.2</ele><time>2026-05-01T11:51:16.999Z</time></trkpt><trkpt lat="44.88523861819098" lon="13.850319015718703"><ele>8.0</ele><time>2026-05-01T11:51:17.999Z</time></trkpt><trkpt lat="44.88512767407041" lon="13.85029254405303"><ele>9.600000000000001</ele><time>2026-05-01T11:51:18.999Z</time></trkpt><trkpt lat="44.88502924628263" lon="13.850258646708774"><ele>11.200000000000001</ele><time>2026-05-01T11:51:19.999Z</time></trkpt><trkpt lat="44.88492392094894" lon="13.850233941924355"><ele>12.8</ele><time>2026-05-01T11:51:20.999Z</time></trkpt><trkpt lat="44.88481685191092" lon="13.850209330156225"><ele>14.4</ele><time>2026-05-01T11:51:21.999Z</time></trkpt><trkpt lat="44.88470107436183" lon="13.850185849172414"><ele>16.0</ele><time>2026-05-01T11:51:22.999Z</time></trkpt><trkpt lat="44.88458277374832" lon="13.850159902074125"><ele>15.0</ele><time>2026-05-01T11:51:23.999Z</time></trkpt><trkpt lat="44.884458949870016" lon="13.850124597149632"><ele>14.0</ele><time>2026-05-01T11:51:24.999Z</time></trkpt><trkpt lat="44.8843314983762" lon="13.850091864087398"><ele>13.0</ele><time>2026-05-01T11:51:25.999Z</time></trkpt><trkpt lat="44.884200347797346" lon="13.850058534124924"><ele>12.0</ele><time>2026-05-01T11:51:26.999Z</time></trkpt><trkpt lat="44.88406589103359" lon="13.850024866751037"><ele>12.0</ele><time>2026-05-01T11:51:27.999Z</time></trkpt><trkpt lat="44.88392955073417" lon="13.849985639659732"><ele>12.0</ele><time>2026-05-01T11:51:28.999Z</time></trkpt><trkpt lat="44.883791225133464" lon="13.849951600563365"><ele>12.0</ele><time>2026-05-01T11:51:29.999Z</time></trkpt><trkpt lat="44.883654305704184" lon="13.84991976581384"><ele>12.0</ele><time>2026-05-01T11:51:30.999Z</time></trkpt><trkpt lat="44.883514392231575" lon="13.849888643911799"><ele>13.75</ele><time>2026-05-01T11:51:31.999Z</time></trkpt><trkpt lat="44.88336814336213" lon="13.849848742511863"><ele>15.5</ele><time>2026-05-01T11:51:32.999Z</time></trkpt><trkpt lat="44.88321920796696" lon="13.849810160521837"><ele>17.25</ele><time>2026-05-01T11:51:33.999Z</time></trkpt><trkpt lat="44.88308223738558" lon="13.849777852511455"><ele>19.0</ele><time>2026-05-01T11:51:34.999Z</time></trkpt><trkpt lat="44.882943284763485" lon="13.849738776620088"><ele>19.0</ele><time>2026-05-01T11:51:35.999Z</time></trkpt><trkpt lat="44.88280516001631" lon="13.849712319094614"><ele>19.0</ele><time>2026-05-01T11:51:36.999Z</time></trkpt><trkpt lat="44.8826652838274" lon="13.849680414480801"><ele>19.0</ele><time>2026-05-01T11:51:37.999Z</time></trkpt><trkpt lat="44.88252234375198" lon="13.849644854039328"><ele>19.0</ele><time>2026-05-01T11:51:38.999Z</time></trkpt><trkpt lat="44.88237983582597" lon="13.849610251230436"><ele>18.0</ele><time>2026-05-01T11:51:39.999Z</time></trkpt><trkpt lat="44.882237774198416" lon="13.849572964277481"><ele>17.0</ele><time>2026-05-01T11:51:40.999Z</time></trkpt><trkpt lat="44.882095732194024" lon="13.84953702690523"><ele>16.0</ele><time>2026-05-01T11:51:41.999Z</time></trkpt><trkpt lat="44.88195277141998" lon="13.84949910992971"><ele>15.0</ele><time>2026-05-01T11:51:42.999Z</time></trkpt><trkpt lat="44.88181320049786" lon="13.849451197909326"><ele>15.5</ele><time>2026-05-01T11:51:43.999Z</time></trkpt><trkpt lat="44.881671363794894" lon="13.849400651845318"><ele>16.0</ele><time>2026-05-01T11:51:44.999Z</time></trkpt><trkpt lat="44.881531056482956" lon="13.84934624065692"><ele>16.5</ele><time>2026-05-01T11:51:45.999Z</time></trkpt><trkpt lat="44.88139493377608" lon="13.849285989877407"><ele>17.0</ele><time>2026-05-01T11:51:46.999Z</time></trkpt><trkpt lat="44.88126620574604" lon="13.8492219926382"><ele>17.0</ele><time>2026-05-01T11:51:47.999Z</time></trkpt><trkpt lat="44.881146874593476" lon="13.849157274449565"><ele>17.0</ele><time>2026-05-01T11:51:48.999Z</time></trkpt><trkpt lat="44.881025759327564" lon="13.849103427171615"><ele>17.0</ele><time>2026-05-01T11:51:49.999Z</time></trkpt><trkpt lat="44.88090336919349" lon="13.849038631795127"><ele>17.0</ele><time>2026-05-01T11:51:50.999Z</time></trkpt><trkpt lat="44.88078847788833" lon="13.8489711251918"><ele>17.0</ele><time>2026-05-01T11:51:51.999Z</time></trkpt><trkpt lat="44.88066836224446" lon="13.848920896662465"><ele>17.0</ele><time>2026-05-01T11:51:52.999Z</time></trkpt><trkpt lat="44.88054245632491" lon="13.848853080784256"><ele>17.0</ele><time>2026-05-01T11:51:54Z</time></trkpt><trkpt lat="44.88041531620209" lon="13.848785725448016"><ele>17.0</ele><time>2026-05-01T11:51:55Z</time></trkpt><trkpt lat="44.88028989132615" lon="13.848713799428133"><ele>17.0</ele><time>2026-05-01T11:51:56Z</time></trkpt><trkpt lat="44.880162796046896" lon="13.848650331454493"><ele>17.0</ele><time>2026-05-01T11:51:57Z</time></trkpt><trkpt lat="44.88003887230449" lon="13.848594566571089"><ele>17.0</ele><time>2026-05-01T11:51:58Z</time></trkpt><trkpt lat="44.87991361026046" lon="13.848554212345766"><ele>17.0</ele><time>2026-05-01T11:51:59Z</time></trkpt><trkpt lat="44.879782958994454" lon="13.848522042101028"><ele>16.5</ele><time>2026-05-01T11:52:00Z</time></trkpt><trkpt lat="44.87965612021492" lon="13.848494979338422"><ele>16.0</ele><time>2026-05-01T11:52:01Z</time></trkpt><trkpt lat="44.879537143184876" lon="13.848470903345456"><ele>15.5</ele><time>2026-05-01T11:52:02Z</time></trkpt><trkpt lat="44.87942204633378" lon="13.848459069012543"><ele>15.0</ele><time>2026-05-01T11:52:03Z</time></trkpt><trkpt lat="44.879306837845654" lon="13.848444098101774"><ele>15.8</ele><time>2026-05-01T11:52:04Z</time></trkpt><trkpt lat="44.879195471448035" lon="13.84842269643329"><ele>16.6</ele><time>2026-05-01T11:52:05Z</time></trkpt><trkpt lat="44.87909252692697" lon="13.848407329886742"><ele>17.4</ele><time>2026-05-01T11:52:06Z</time></trkpt><trkpt lat="44.878989939061896" lon="13.848403066672455"><ele>18.2</ele><time>2026-05-01T11:52:07Z</time></trkpt><trkpt lat="44.87888774060353" lon="13.848391733482785"><ele>19.0</ele><time>2026-05-01T11:52:08Z</time></trkpt><trkpt lat="44.87879078179126" lon="13.848380096273264"><ele>19.0</ele><time>2026-05-01T11:52:09Z</time></trkpt><trkpt lat="44.87869577896998" lon="13.848381448025766"><ele>19.0</ele><time>2026-05-01T11:52:10Z</time></trkpt><trkpt lat="44.878610800024035" lon="13.848407425896946"><ele>19.0</ele><time>2026-05-01T11:52:11Z</time></trkpt><trkpt lat="44.87853300063036" lon="13.84849480760868"><ele>19.0</ele><time>2026-05-01T11:52:12Z</time></trkpt><trkpt lat="44.8784718366043" lon="13.8486185791119"><ele>19.0</ele><time>2026-05-01T11:52:13Z</time></trkpt><trkpt lat="44.87842574439929" lon="13.848787035318363"><ele>19.333333333333332</ele><time>2026-05-01T11:52:14Z</time></trkpt><trkpt lat="44.87839644324404" lon="13.849011726779054"><ele>19.666666666666668</ele><time>2026-05-01T11:52:15Z</time></trkpt><trkpt lat="44.878384658610045" lon="13.849279319623331"><ele>20.0</ele><time>2026-05-01T11:52:16Z</time></trkpt><trkpt lat="44.87801955181184" lon="13.848670718734986"><ele>20.0</ele><time>2026-05-01T11:52:17Z</time></trkpt><trkpt lat="44.87793840158747" lon="13.848763796649047"><ele>20.0</ele><time>2026-05-01T11:52:18Z</time></trkpt><trkpt lat="44.87785965181971" lon="13.848851834034635"><ele>20.0</ele><time>2026-05-01T11:52:19Z</time></trkpt><trkpt lat="44.87778001348412" lon="13.848931423856484"><ele>20.0</ele><time>2026-05-01T11:52:20Z</time></trkpt><trkpt lat="44.877697266189735" lon="13.849019463782017"><ele>20.0</ele><time>2026-05-01T11:52:21Z</time></trkpt><trkpt lat="44.87761583177513" lon="13.849103137098053"><ele>19.4</ele><time>2026-05-01T11:52:22Z</time></trkpt><trkpt lat="44.87753644672981" lon="13.849186638644971"><ele>18.8</ele><time>2026-05-01T11:52:23Z</time></trkpt><trkpt lat="44.87746068666687" lon="13.849266628073462"><ele>18.2</ele><time>2026-05-01T11:52:24Z</time></trkpt><trkpt lat="44.87737861616651" lon="13.849347932018636"><ele>17.6</ele><time>2026-05-01T11:52:25Z</time></trkpt><trkpt lat="44.877297370121724" lon="13.849435514728263"><ele>17.0</ele><time>2026-05-01T11:52:26Z</time></trkpt><trkpt lat="44.87721488694224" lon="13.849523644380065"><ele>18.8</ele><time>2026-05-01T11:52:27Z</time></trkpt><trkpt lat="44.87713718132366" lon="13.849608141814768"><ele>20.6</ele><time>2026-05-01T11:52:28Z</time></trkpt><trkpt lat="44.87706354706195" lon="13.84970038187137"><ele>22.400000000000002</ele><time>2026-05-01T11:52:29Z</time></trkpt><trkpt lat="44.876999860824675" lon="13.849808540531283"><ele>24.2</ele><time>2026-05-01T11:52:30Z</time></trkpt><trkpt lat="44.876945011828845" lon="13.849915589781997"><ele>26.0</ele><time>2026-05-01T11:52:31Z</time></trkpt><trkpt lat="44.87689730755334" lon="13.850028225499901"><ele>26.6</ele><time>2026-05-01T11:52:32Z</time></trkpt><trkpt lat="44.876854595842474" lon="13.850149960453454"><ele>27.200000000000003</ele><time>2026-05-01T11:52:33Z</time></trkpt><trkpt lat="44.876819362406756" lon="13.85027220935319"><ele>27.799999999999997</ele><time>2026-05-01T11:52:34Z</time></trkpt><trkpt lat="44.87678558597346" lon="13.850402402705749"><ele>28.4</ele><time>2026-05-01T11:52:34.999Z</time></trkpt><trkpt lat="44.876758056953534" lon="13.85054545873194"><ele>29.0</ele><time>2026-05-01T11:52:35.999Z</time></trkpt><trkpt lat="44.87671842374924" lon="13.850671731928198"><ele>26.166666666666664</ele><time>2026-05-01T11:52:36.999Z</time></trkpt><trkpt lat="44.87666519417696" lon="13.850776707635214"><ele>23.333333333333332</ele><time>2026-05-01T11:52:37.999Z</time></trkpt><trkpt lat="44.87660771707279" lon="13.850864894238471"><ele>20.5</ele><time>2026-05-01T11:52:38.999Z</time></trkpt><trkpt lat="44.87655448775169" lon="13.850926668796424"><ele>17.666666666666664</ele><time>2026-05-01T11:52:39.999Z</time></trkpt><trkpt lat="44.87649460628298" lon="13.850954215598929"><ele>14.833333333333332</ele><time>2026-05-01T11:52:40.999Z</time></trkpt><trkpt lat="44.876407660511155" lon="13.85099526903065"><ele>12.0</ele><time>2026-05-01T11:52:42.999Z</time></trkpt><trkpt lat="44.876290129613906" lon="13.850984937987024"><ele>11.833333333333334</ele><time>2026-05-01T11:52:49.999Z</time></trkpt><trkpt lat="44.876223451415655" lon="13.850955029199792"><ele>11.666666666666666</ele><time>2026-05-01T11:52:50.999Z</time></trkpt><trkpt lat="44.87615069830094" lon="13.850912072250365"><ele>11.5</ele><time>2026-05-01T11:52:51.999Z</time></trkpt><trkpt lat="44.87607143780356" lon="13.850850837621026"><ele>11.333333333333332</ele><time>2026-05-01T11:52:52.999Z</time></trkpt><trkpt lat="44.87600109124294" lon="13.850774988418316"><ele>11.166666666666666</ele><time>2026-05-01T11:52:53.999Z</time></trkpt><trkpt lat="44.875925130834595" lon="13.850688690000695"><ele>11.0</ele><time>2026-05-01T11:52:54.999Z</time></trkpt><trkpt lat="44.87584914677928" lon="13.850601887986375"><ele>10.8</ele><time>2026-05-01T11:52:55.999Z</time></trkpt><trkpt lat="44.87576186419153" lon="13.850508228447465"><ele>10.600000000000001</ele><time>2026-05-01T11:52:56.999Z</time></trkpt><trkpt lat="44.87567622278438" lon="13.850407018532678"><ele>10.4</ele><time>2026-05-01T11:52:57.999Z</time></trkpt><trkpt lat="44.87559720545602" lon="13.85032371276008"><ele>10.2</ele><time>2026-05-01T11:52:58.999Z</time></trkpt><trkpt lat="44.87551684665801" lon="13.850238236314318"><ele>10.0</ele><time>2026-05-01T11:52:59.999Z</time></trkpt><trkpt lat="44.87543600857272" lon="13.85014274107377"><ele>10.0</ele><time>2026-05-01T11:53:00.999Z</time></trkpt><trkpt lat="44.87535235068038" lon="13.850057964939648"><ele>10.0</ele><time>2026-05-01T11:53:01.999Z</time></trkpt><trkpt lat="44.875267156055834" lon="13.849968307689206"><ele>10.0</ele><time>2026-05-01T11:53:02.999Z</time></trkpt><trkpt lat="44.87518475370438" lon="13.8498789712738"><ele>10.0</ele><time>2026-05-01T11:53:03.999Z</time></trkpt><trkpt lat="44.87510965854417" lon="13.84979474308641"><ele>10.0</ele><time>2026-05-01T11:53:04.999Z</time></trkpt><trkpt lat="44.87503906203508" lon="13.8497130115008"><ele>10.0</ele><time>2026-05-01T11:53:05.999Z</time></trkpt><trkpt lat="44.874963921743245" lon="13.849630289548669"><ele>10.0</ele><time>2026-05-01T11:53:06.999Z</time></trkpt><trkpt lat="44.87489824710237" lon="13.849558286944632"><ele>10.0</ele><time>2026-05-01T11:53:07.999Z</time></trkpt><trkpt lat="44.87483762586248" lon="13.849457419245967"><ele>10.0</ele><time>2026-05-01T11:53:08.999Z</time></trkpt><trkpt lat="44.87478135920608" lon="13.849375376065508"><ele>10.0</ele><time>2026-05-01T11:53:09.999Z</time></trkpt><trkpt lat="44.874709791203585" lon="13.849305258538728"><ele>10.0</ele><time>2026-05-01T11:53:10.999Z</time></trkpt><trkpt lat="44.87464842700096" lon="13.849265515831329"><ele>10.0</ele><time>2026-05-01T11:53:11.999Z</time></trkpt><trkpt lat="44.87458704352378" lon="13.849234688220596"><ele>10.0</ele><time>2026-05-01T11:53:12.999Z</time></trkpt><trkpt lat="44.87452264598316" lon="13.849255905032763"><ele>10.0</ele><time>2026-05-01T11:53:13.999Z</time></trkpt><trkpt lat="44.874468032368185" lon="13.849328838631688"><ele>10.0</ele><time>2026-05-01T11:53:14.999Z</time></trkpt><trkpt lat="44.87440760001334" lon="13.849367629492317"><ele>10.0</ele><time>2026-05-01T11:53:15.999Z</time></trkpt><trkpt lat="44.87433153918443" lon="13.84934010089244"><ele>10.0</ele><time>2026-05-01T11:53:16.999Z</time></trkpt><trkpt lat="44.874251600165124" lon="13.84930929001634"><ele>10.0</ele><time>2026-05-01T11:53:17.999Z</time></trkpt><trkpt lat="44.87417150866178" lon="13.849301800672652"><ele>9.714285714285714</ele><time>2026-05-01T11:53:18.999Z</time></trkpt><trkpt lat="44.87410150972245" lon="13.849297255128018"><ele>9.428571428571429</ele><time>2026-05-01T11:53:19.999Z</time></trkpt><trkpt lat="44.874035852698064" lon="13.849291384624198"><ele>9.142857142857142</ele><time>2026-05-01T11:53:20.999Z</time></trkpt><trkpt lat="44.873967801348044" lon="13.849290578099211"><ele>8.857142857142858</ele><time>2026-05-01T11:53:21.999Z</time></trkpt><trkpt lat="44.87389449957842" lon="13.849284064786696"><ele>8.571428571428571</ele><time>2026-05-01T11:53:22.999Z</time></trkpt><trkpt lat="44.87381646190789" lon="13.849279520945755"><ele>8.285714285714285</ele><time>2026-05-01T11:53:23.999Z</time></trkpt><trkpt lat="44.87373749567039" lon="13.849278496780721"><ele>8.0</ele><time>2026-05-01T11:53:24.999Z</time></trkpt><trkpt lat="44.87365754103574" lon="13.8492700907268"><ele>8.0</ele><time>2026-05-01T11:53:25.999Z</time></trkpt><trkpt lat="44.87357878763353" lon="13.849254925341032"><ele>8.0</ele><time>2026-05-01T11:53:26.999Z</time></trkpt><trkpt lat="44.8735067675897" lon="13.849251017865187"><ele>8.0</ele><time>2026-05-01T11:53:27.999Z</time></trkpt><trkpt lat="44.87339694091114" lon="13.849256928067314"><ele>8.0</ele><time>2026-05-01T11:53:29.999Z</time></trkpt><trkpt lat="44.873281854606695" lon="13.849239843006886"><ele>8.0</ele><time>2026-05-01T11:53:31.999Z</time></trkpt><trkpt lat="44.87317354754191" lon="13.849215573378576"><ele>8.166666666666666</ele><time>2026-05-01T11:53:33.999Z</time></trkpt><trkpt lat="44.87306346274774" lon="13.849193412467397"><ele>8.333333333333332</ele><time>2026-05-01T11:53:35.999Z</time></trkpt><trkpt lat="44.872979045697214" lon="13.849137110208039"><ele>8.5</ele><time>2026-05-01T11:53:37.999Z</time></trkpt><trkpt lat="44.87292946207334" lon="13.849051270005214"><ele>8.666666666666666</ele><time>2026-05-01T11:53:39.999Z</time></trkpt><trkpt lat="44.87291140335845" lon="13.848953844893009"><ele>8.833333333333334</ele><time>2026-05-01T11:54:56.999Z</time></trkpt><trkpt lat="44.87293540314957" lon="13.84903714027677"><ele>9.0</ele><time>2026-05-01T12:01:18.999Z</time></trkpt><trkpt lat="44.872900783526454" lon="13.848961981288236"><ele>9.0</ele><time>2026-05-01T12:02:42.999Z</time></trkpt><trkpt lat="44.87279382154294" lon="13.84900410127311"><ele>9.0</ele><time>2026-05-01T12:05:05.999Z</time></trkpt><trkpt lat="44.87273038331363" lon="13.848985821450812"><ele>9.0</ele><time>2026-05-01T12:05:06.999Z</time></trkpt><trkpt lat="44.87266841015748" lon="13.848917746006933"><ele>9.0</ele><time>2026-05-01T12:05:07.999Z</time></trkpt><trkpt lat="44.872594803957654" lon="13.848792742230646"><ele>9.0</ele><time>2026-05-01T12:05:08.999Z</time></trkpt><trkpt lat="44.87250075384246" lon="13.848641051577262"><ele>9.0</ele><time>2026-05-01T12:05:09.999Z</time></trkpt><trkpt lat="44.872437888878736" lon="13.84850741078109"><ele>9.0</ele><time>2026-05-01T12:05:10.999Z</time></trkpt><trkpt lat="44.87237831187959" lon="13.848389939340404"><ele>9.0</ele><time>2026-05-01T12:05:11.999Z</time></trkpt><trkpt lat="44.87232610253086" lon="13.848321135117457"><ele>9.0</ele><time>2026-05-01T12:05:12.999Z</time></trkpt><trkpt lat="44.87224456225405" lon="13.848197471072856"><ele>9.0</ele><time>2026-05-01T12:05:14.999Z</time></trkpt><trkpt lat="44.87220551842456" lon="13.848115829188824"><ele>9.0</ele><time>2026-05-01T12:05:15.999Z</time></trkpt><trkpt lat="44.87215181228348" lon="13.848019740295822"><ele>9.0</ele><time>2026-05-01T12:05:16.999Z</time></trkpt><trkpt lat="44.872093569700525" lon="13.847926602059907"><ele>9.0</ele><time>2026-05-01T12:05:17.999Z</time></trkpt><trkpt lat="44.872035261520026" lon="13.84783284675967"><ele>9.0</ele><time>2026-05-01T12:05:18.999Z</time></trkpt><trkpt lat="44.87198959260637" lon="13.847753279207987"><ele>9.0</ele><time>2026-05-01T12:05:19.999Z</time></trkpt><trkpt lat="44.87191771114092" lon="13.847622825762501"><ele>8.8</ele><time>2026-05-01T12:05:21.999Z</time></trkpt><trkpt lat="44.87186595331357" lon="13.847513750610291"><ele>8.600000000000001</ele><time>2026-05-01T12:05:23.999Z</time></trkpt><trkpt lat="44.871827225298766" lon="13.8474296777522"><ele>8.4</ele><time>2026-05-01T12:05:30.999Z</time></trkpt><trkpt lat="44.871925337257906" lon="13.847266070050962"><ele>8.200000000000001</ele><time>2026-05-01T12:05:36.999Z</time></trkpt><trkpt lat="44.87199123877109" lon="13.847229630662747"><ele>8.0</ele><time>2026-05-01T12:05:37.999Z</time></trkpt><trkpt lat="44.87204960900484" lon="13.847178583241902"><ele>7.999999999999999</ele><time>2026-05-01T12:05:38.999Z</time></trkpt><trkpt lat="44.87212565728472" lon="13.847112212372952"><ele>8.0</ele><time>2026-05-01T12:05:39.999Z</time></trkpt><trkpt lat="44.87220341997011" lon="13.847060614388429"><ele>8.0</ele><time>2026-05-01T12:05:40.999Z</time></trkpt><trkpt lat="44.87228701325494" lon="13.847007915104488"><ele>8.0</ele><time>2026-05-01T12:05:41.999Z</time></trkpt><trkpt lat="44.87237231038351" lon="13.846976094464843"><ele>7.999999999999999</ele><time>2026-05-01T12:05:42.999Z</time></trkpt><trkpt lat="44.8724484740845" lon="13.846962122189712"><ele>8.0</ele><time>2026-05-01T12:05:43.999Z</time></trkpt><trkpt lat="44.872507698286654" lon="13.846910565611728"><ele>7.999999999999999</ele><time>2026-05-01T12:05:44.999Z</time></trkpt><trkpt lat="44.87258513099315" lon="13.846831680102675"><ele>8.0</ele><time>2026-05-01T12:05:45.999Z</time></trkpt><trkpt lat="44.87265713355947" lon="13.846781663009713"><ele>8.0</ele><time>2026-05-01T12:05:47.999Z</time></trkpt><trkpt lat="44.87272352486528" lon="13.84673465573184"><ele>8.0</ele><time>2026-05-01T12:06:02.999Z</time></trkpt><trkpt lat="44.87278914635441" lon="13.846688339401531"><ele>7.999999999999999</ele><time>2026-05-01T12:06:04.999Z</time></trkpt><trkpt lat="44.87285654146023" lon="13.846640771235649"><ele>8.0</ele><time>2026-05-01T12:06:06.999Z</time></trkpt><trkpt lat="44.87284355410279" lon="13.846425923456266"><ele>7.833333333333333</ele><time>2026-05-01T12:06:08.999Z</time></trkpt><trkpt lat="44.872810899632675" lon="13.846332880713263"><ele>7.666666666666666</ele><time>2026-05-01T12:06:09.999Z</time></trkpt><trkpt lat="44.87276432630733" lon="13.846247176540091"><ele>7.5</ele><time>2026-05-01T12:06:10.999Z</time></trkpt><trkpt lat="44.872722739107886" lon="13.846168920401222"><ele>7.333333333333334</ele><time>2026-05-01T12:06:11.999Z</time></trkpt><trkpt lat="44.872678050872516" lon="13.84606219081238"><ele>7.166666666666667</ele><time>2026-05-01T12:06:12.999Z</time></trkpt><trkpt lat="44.87264466634894" lon="13.845929004734376"><ele>7.0</ele><time>2026-05-01T12:06:13.999Z</time></trkpt><trkpt lat="44.87259940623958" lon="13.845799776854278"><ele>7.0</ele><time>2026-05-01T12:06:14.999Z</time></trkpt><trkpt lat="44.87255336827201" lon="13.845672186238072"><ele>6.999999999999999</ele><time>2026-05-01T12:06:15.999Z</time></trkpt><trkpt lat="44.8725054421343" lon="13.845533125981133"><ele>6.999999999999999</ele><time>2026-05-01T12:06:16.999Z</time></trkpt><trkpt lat="44.87247064028611" lon="13.845388485888794"><ele>7.0</ele><time>2026-05-01T12:06:17.999Z</time></trkpt><trkpt lat="44.872433316072915" lon="13.845274715073892"><ele>7.0</ele><time>2026-05-01T12:06:18.999Z</time></trkpt><trkpt lat="44.8723944063516" lon="13.845158783844226"><ele>6.199999999999999</ele><time>2026-05-01T12:06:19.999Z</time></trkpt><trkpt lat="44.87235196986448" lon="13.845032285599029"><ele>5.3999999999999995</ele><time>2026-05-01T12:06:20.999Z</time></trkpt><trkpt lat="44.87230861171153" lon="13.844903039888147"><ele>4.6</ele><time>2026-05-01T12:06:21.999Z</time></trkpt><trkpt lat="44.87226510849755" lon="13.844774762424285"><ele>3.8</ele><time>2026-05-01T12:06:22.999Z</time></trkpt><trkpt lat="44.8722198989238" lon="13.844640146540037"><ele>3.0</ele><time>2026-05-01T12:06:23.999Z</time></trkpt><trkpt lat="44.87214819060839" lon="13.844515037852885"><ele>3.0</ele><time>2026-05-01T12:06:24.999Z</time></trkpt><trkpt lat="44.87209949058545" lon="13.84436479334974"><ele>3.0</ele><time>2026-05-01T12:06:25.999Z</time></trkpt><trkpt lat="44.872055781437176" lon="13.844214868392294"><ele>3.0</ele><time>2026-05-01T12:06:26.999Z</time></trkpt><trkpt lat="44.87201393751049" lon="13.844079881577786"><ele>3.0</ele><time>2026-05-01T12:06:27.999Z</time></trkpt><trkpt lat="44.871965460945816" lon="13.843930651971405"><ele>2.25</ele><time>2026-05-01T12:06:28.999Z</time></trkpt><trkpt lat="44.871918269743325" lon="13.843775790432488"><ele>1.5</ele><time>2026-05-01T12:06:29.999Z</time></trkpt><trkpt lat="44.871870574900505" lon="13.843618234754828"><ele>0.75</ele><time>2026-05-01T12:06:30.999Z</time></trkpt><trkpt lat="44.87182059831056" lon="13.843475989115372"><ele>0.0</ele><time>2026-05-01T12:06:31.999Z</time></trkpt><trkpt lat="44.87177362725451" lon="13.843355308432235"><ele>1.0</ele><time>2026-05-01T12:06:32.999Z</time></trkpt><trkpt lat="44.871728006342984" lon="13.84322335167239"><ele>2.0</ele><time>2026-05-01T12:06:33.999Z</time></trkpt><trkpt lat="44.87168317579284" lon="13.843075556159675"><ele>3.0</ele><time>2026-05-01T12:06:34.999Z</time></trkpt><trkpt lat="44.87162641600375" lon="13.842918266263334"><ele>4.0</ele><time>2026-05-01T12:06:36Z</time></trkpt><trkpt lat="44.87156966664759" lon="13.842755057989509"><ele>3.25</ele><time>2026-05-01T12:06:37Z</time></trkpt><trkpt lat="44.87152259673806" lon="13.842601889484756"><ele>2.5</ele><time>2026-05-01T12:06:38Z</time></trkpt><trkpt lat="44.87147133144031" lon="13.842448856617578"><ele>1.75</ele><time>2026-05-01T12:06:39Z</time></trkpt><trkpt lat="44.871433983130714" lon="13.842282635056897"><ele>1.0</ele><time>2026-05-01T12:06:40Z</time></trkpt><trkpt lat="44.871385295437435" lon="13.842129229553542"><ele>1.0</ele><time>2026-05-01T12:06:41Z</time></trkpt><trkpt lat="44.87131962993944" lon="13.842006590140079"><ele>1.0</ele><time>2026-05-01T12:06:42Z</time></trkpt><trkpt lat="44.87125859054761" lon="13.841883870286422"><ele>1.0</ele><time>2026-05-01T12:06:43Z</time></trkpt><trkpt lat="44.871168994790224" lon="13.841782825637864"><ele>1.0</ele><time>2026-05-01T12:06:44Z</time></trkpt><trkpt lat="44.87106359184074" lon="13.841700935794321"><ele>0.8</ele><time>2026-05-01T12:06:45Z</time></trkpt><trkpt lat="44.87095486728939" lon="13.841632967572146"><ele>0.6000000000000001</ele><time>2026-05-01T12:06:46Z</time></trkpt><trkpt lat="44.87085735055602" lon="13.841558145883223"><ele>0.4</ele><time>2026-05-01T12:06:47Z</time></trkpt><trkpt lat="44.87076650814601" lon="13.841486429461234"><ele>0.2</ele><time>2026-05-01T12:06:48Z</time></trkpt><trkpt lat="44.870666778129866" lon="13.841412655481651"><ele>0.0</ele><time>2026-05-01T12:06:49Z</time></trkpt><trkpt lat="44.870562302681215" lon="13.841355737235137"><ele>0.75</ele><time>2026-05-01T12:06:50Z</time></trkpt><trkpt lat="44.870445147311166" lon="13.841335953565464"><ele>1.5</ele><time>2026-05-01T12:06:51Z</time></trkpt><trkpt lat="44.87032647744823" lon="13.841328386218358"><ele>2.25</ele><time>2026-05-01T12:06:52Z</time></trkpt><trkpt lat="44.87020567879" lon="13.841331850310771"><ele>3.0</ele><time>2026-05-01T12:06:53Z</time></trkpt><trkpt lat="44.870092893466854" lon="13.84132912688275"><ele>3.2</ele><time>2026-05-01T12:06:54Z</time></trkpt><trkpt lat="44.869989987600185" lon="13.841325289872"><ele>3.4</ele><time>2026-05-01T12:06:55Z</time></trkpt><trkpt lat="44.86989298382027" lon="13.84131722428708"><ele>3.6000000000000005</ele><time>2026-05-01T12:06:56Z</time></trkpt><trkpt lat="44.869801444544684" lon="13.841335709303824"><ele>3.8000000000000003</ele><time>2026-05-01T12:06:57Z</time></trkpt><trkpt lat="44.86971710551445" lon="13.841353271170918"><ele>4.0</ele><time>2026-05-01T12:06:58Z</time></trkpt><trkpt lat="44.86962744817058" lon="13.841386301091063"><ele>4.0</ele><time>2026-05-01T12:06:59Z</time></trkpt><trkpt lat="44.869534633872945" lon="13.84142948606066"><ele>4.0</ele><time>2026-05-01T12:07:00Z</time></trkpt><trkpt lat="44.869442105762175" lon="13.841487905492452"><ele>4.0</ele><time>2026-05-01T12:07:01Z</time></trkpt><trkpt lat="44.86934836376894" lon="13.841551539528249"><ele>4.0</ele><time>2026-05-01T12:07:02Z</time></trkpt><trkpt lat="44.86925100506116" lon="13.841614761820843"><ele>4.0</ele><time>2026-05-01T12:07:03Z</time></trkpt><trkpt lat="44.86914548180781" lon="13.841656531400833"><ele>3.4000000000000004</ele><time>2026-05-01T12:07:04Z</time></trkpt><trkpt lat="44.86905541526776" lon="13.84171562150275"><ele>2.8000000000000003</ele><time>2026-05-01T12:07:05Z</time></trkpt><trkpt lat="44.86897883842304" lon="13.84177660402332"><ele>2.2</ele><time>2026-05-01T12:07:06Z</time></trkpt><trkpt lat="44.86890041928594" lon="13.84183105990569"><ele>1.6</ele><time>2026-05-01T12:07:07Z</time></trkpt><trkpt lat="44.86881694751518" lon="13.841894952804704"><ele>1.0</ele><time>2026-05-01T12:07:08Z</time></trkpt><trkpt lat="44.86873132306023" lon="13.841956138427168"><ele>2.0</ele><time>2026-05-01T12:07:09Z</time></trkpt><trkpt lat="44.86864804884438" lon="13.842023268860405"><ele>3.0</ele><time>2026-05-01T12:07:10Z</time></trkpt><trkpt lat="44.86857781177018" lon="13.842110911352904"><ele>4.0</ele><time>2026-05-01T12:07:11Z</time></trkpt><trkpt lat="44.86851450057159" lon="13.842209005131421"><ele>5.0</ele><time>2026-05-01T12:07:12Z</time></trkpt><trkpt lat="44.86846618723665" lon="13.842299309149967"><ele>6.000000000000001</ele><time>2026-05-01T12:07:13Z</time></trkpt><trkpt lat="44.86842014209577" lon="13.842384458868478"><ele>7.0</ele><time>2026-05-01T12:07:14Z</time></trkpt><trkpt lat="44.86836844366624" lon="13.842467921405088"><ele>7.000000000000001</ele><time>2026-05-01T12:07:15Z</time></trkpt><trkpt lat="44.868318054672685" lon="13.842555042335686"><ele>7.0</ele><time>2026-05-01T12:07:16Z</time></trkpt><trkpt lat="44.868266333715844" lon="13.842643960232808"><ele>7.0</ele><time>2026-05-01T12:07:17Z</time></trkpt><trkpt lat="44.868215432416534" lon="13.842734227770993"><ele>7.0</ele><time>2026-05-01T12:07:18Z</time></trkpt><trkpt lat="44.86816113518088" lon="13.842820335292098"><ele>7.000000000000001</ele><time>2026-05-01T12:07:19Z</time></trkpt><trkpt lat="44.86810815015117" lon="13.842910691597108"><ele>7.0</ele><time>2026-05-01T12:07:20Z</time></trkpt><trkpt lat="44.86806092907785" lon="13.842999522385467"><ele>7.000000000000001</ele><time>2026-05-01T12:07:21Z</time></trkpt><trkpt lat="44.86801271809719" lon="13.84307959879489"><ele>7.0</ele><time>2026-05-01T12:07:22Z</time></trkpt><trkpt lat="44.86796710736517" lon="13.843156735578436"><ele>7.0</ele><time>2026-05-01T12:07:23Z</time></trkpt><trkpt lat="44.86791763495089" lon="13.843242009328172"><ele>7.0</ele><time>2026-05-01T12:07:24Z</time></trkpt><trkpt lat="44.867860075716614" lon="13.84333364627718"><ele>7.000000000000001</ele><time>2026-05-01T12:07:25Z</time></trkpt><trkpt lat="44.86780945431383" lon="13.843426966558415"><ele>7.0</ele><time>2026-05-01T12:07:26Z</time></trkpt><trkpt lat="44.867751325469094" lon="13.843511790288769"><ele>6.714285714285714</ele><time>2026-05-01T12:07:27Z</time></trkpt><trkpt lat="44.86770514245201" lon="13.843592483827054"><ele>6.428571428571429</ele><time>2026-05-01T12:07:28Z</time></trkpt><trkpt lat="44.86765838058967" lon="13.843668082061225"><ele>6.142857142857142</ele><time>2026-05-01T12:07:29Z</time></trkpt><trkpt lat="44.86761444751136" lon="13.8437399880148"><ele>5.857142857142858</ele><time>2026-05-01T12:07:30Z</time></trkpt><trkpt lat="44.867569093770925" lon="13.843813947165588"><ele>5.571428571428571</ele><time>2026-05-01T12:07:31Z</time></trkpt><trkpt lat="44.86752469044822" lon="13.84389297423832"><ele>5.285714285714286</ele><time>2026-05-01T12:07:32Z</time></trkpt><trkpt lat="44.86747946797311" lon="13.843970421005258"><ele>5.0</ele><time>2026-05-01T12:07:33Z</time></trkpt><trkpt lat="44.86743751645636" lon="13.84404007815362"><ele>5.0</ele><time>2026-05-01T12:07:34Z</time></trkpt><trkpt lat="44.86739125553055" lon="13.844115130295625"><ele>5.0</ele><time>2026-05-01T12:07:35Z</time></trkpt><trkpt lat="44.86735258357269" lon="13.8441888253609"><ele>5.0</ele><time>2026-05-01T12:07:36Z</time></trkpt><trkpt lat="44.86728620265035" lon="13.84431406136258"><ele>5.0</ele><time>2026-05-01T12:07:38Z</time></trkpt><trkpt lat="44.86723384337157" lon="13.844420432707723"><ele>5.0</ele><time>2026-05-01T12:07:39.999Z</time></trkpt><trkpt lat="44.867192291876684" lon="13.844490251658216"><ele>5.0</ele><time>2026-05-01T12:07:41.999Z</time></trkpt><trkpt lat="44.86723720762491" lon="13.844397350930974"><ele>5.0</ele><time>2026-05-01T12:07:45.999Z</time></trkpt><trkpt lat="44.867308210272185" lon="13.844376852785302"><ele>5.0</ele><time>2026-05-01T12:07:47.999Z</time></trkpt><trkpt lat="44.86735668324473" lon="13.844258167217111"><ele>5.0</ele><time>2026-05-01T12:07:49.999Z</time></trkpt><trkpt lat="44.86739365202027" lon="13.844181791492666"><ele>5.0</ele><time>2026-05-01T12:07:50.999Z</time></trkpt><trkpt lat="44.86743341118194" lon="13.84410566548808"><ele>5.0</ele><time>2026-05-01T12:07:51.999Z</time></trkpt><trkpt lat="44.86748018935982" lon="13.844025370703145"><ele>5.0</ele><time>2026-05-01T12:07:52.999Z</time></trkpt><trkpt lat="44.86753565703261" lon="13.84393974019133"><ele>5.0</ele><time>2026-05-01T12:07:53.999Z</time></trkpt><trkpt lat="44.867592221171556" lon="13.843847997331595"><ele>5.0</ele><time>2026-05-01T12:07:54.999Z</time></trkpt><trkpt lat="44.867642544747945" lon="13.843750338347393"><ele>5.0</ele><time>2026-05-01T12:07:55.999Z</time></trkpt><trkpt lat="44.86768020116826" lon="13.843663002148169"><ele>5.0</ele><time>2026-05-01T12:07:56.999Z</time></trkpt><trkpt lat="44.86775154735989" lon="13.843533832851234"><ele>5.0</ele><time>2026-05-01T12:07:58.999Z</time></trkpt><trkpt lat="44.867834685026736" lon="13.843403837532888"><ele>5.333333333333334</ele><time>2026-05-01T12:08:00.999Z</time></trkpt><trkpt lat="44.867892410569105" lon="13.84332170094017"><ele>5.666666666666667</ele><time>2026-05-01T12:08:01.999Z</time></trkpt><trkpt lat="44.86795252791841" lon="13.84323212317184"><ele>6.0</ele><time>2026-05-01T12:08:02.999Z</time></trkpt><trkpt lat="44.868002661763754" lon="13.843145232345202"><ele>6.333333333333334</ele><time>2026-05-01T12:08:03.999Z</time></trkpt><trkpt lat="44.86804690902723" lon="13.843073263154174"><ele>6.666666666666667</ele><time>2026-05-01T12:08:04.999Z</time></trkpt><trkpt lat="44.868116381245024" lon="13.842968019423761"><ele>7.0</ele><time>2026-05-01T12:08:06.999Z</time></trkpt><trkpt lat="44.8681795871188" lon="13.842989717444755"><ele>14.0</ele><time>2026-05-01T12:08:08.999Z</time></trkpt><trkpt lat="44.86850938909303" lon="13.843511789125115"><ele>14.0</ele><time>2026-05-01T12:08:18.999Z</time></trkpt><trkpt lat="44.868472682745704" lon="13.843605875193061"><ele>13.999999999999998</ele><time>2026-05-01T12:08:19.999Z</time></trkpt><trkpt lat="44.86844053396476" lon="13.843688355397974"><ele>13.999999999999998</ele><time>2026-05-01T12:08:20.999Z</time></trkpt><trkpt lat="44.86839044957512" lon="13.843817758643665"><ele>14.0</ele><time>2026-05-01T12:08:22.999Z</time></trkpt><trkpt lat="44.8683595203397" lon="13.843897671213378"><ele>14.0</ele><time>2026-05-01T12:08:24.999Z</time></trkpt><trkpt lat="44.867816521682066" lon="13.843615172076278"><ele>5.0</ele><time>2026-05-01T12:11:05Z</time></trkpt><trkpt lat="44.86787552537033" lon="13.843653155750847"><ele>5.0</ele><time>2026-05-01T12:11:13Z</time></trkpt><trkpt lat="44.8679374927371" lon="13.843691725569776"><ele>5.0</ele><time>2026-05-01T12:11:18Z</time></trkpt><trkpt lat="44.86799574579867" lon="13.84374625807548"><ele>5.0</ele><time>2026-05-01T12:11:23Z</time></trkpt></trkseg><trkseg><trkpt lat="44.867795824956794" lon="13.843540888061526"><ele>5.4</ele><time>2026-05-01T13:25:22.999Z</time></trkpt><trkpt lat="44.86784280257913" lon="13.843421843461396"><ele>5.8</ele><time>2026-05-01T13:25:25.999Z</time></trkpt><trkpt lat="44.86791625541722" lon="13.84328170401587"><ele>6.199999999999999</ele><time>2026-05-01T13:25:27.999Z</time></trkpt><trkpt lat="44.86799220793316" lon="13.843153217802616"><ele>6.6</ele><time>2026-05-01T13:25:29.999Z</time></trkpt><trkpt lat="44.868046305376716" lon="13.843076766550839"><ele>7.0</ele><time>2026-05-01T13:25:31Z</time></trkpt><trkpt lat="44.8681018991658" lon="13.84298828651854"><ele>7.000000000000001</ele><time>2026-05-01T13:25:32Z</time></trkpt><trkpt lat="44.86815895475814" lon="13.84290240878714"><ele>7.0</ele><time>2026-05-01T13:25:33Z</time></trkpt><trkpt lat="44.86821170953677" lon="13.842816601781797"><ele>7.0</ele><time>2026-05-01T13:25:34Z</time></trkpt><trkpt lat="44.868259705535095" lon="13.842729085935833"><ele>7.0</ele><time>2026-05-01T13:25:35Z</time></trkpt><trkpt lat="44.868312902065284" lon="13.842641367789202"><ele>7.000000000000001</ele><time>2026-05-01T13:25:36Z</time></trkpt><trkpt lat="44.86837065406619" lon="13.84254415161012"><ele>7.0</ele><time>2026-05-01T13:25:37Z</time></trkpt><trkpt lat="44.86842953893114" lon="13.842439158140305"><ele>7.0</ele><time>2026-05-01T13:25:38Z</time></trkpt><trkpt lat="44.868493383491945" lon="13.842333012278738"><ele>6.999999999999999</ele><time>2026-05-01T13:25:39Z</time></trkpt><trkpt lat="44.86855912077682" lon="13.84222487737497"><ele>6.999999999999999</ele><time>2026-05-01T13:25:40Z</time></trkpt><trkpt lat="44.86862984429606" lon="13.842120279280497"><ele>7.0</ele><time>2026-05-01T13:25:41Z</time></trkpt><trkpt lat="44.868704938444765" lon="13.842017749485054"><ele>7.0</ele><time>2026-05-01T13:25:42Z</time></trkpt><trkpt lat="44.86877669017695" lon="13.841952015211376"><ele>7.0</ele><time>2026-05-01T13:25:43Z</time></trkpt><trkpt lat="44.86885448195915" lon="13.84190413532736"><ele>6.999999999999999</ele><time>2026-05-01T13:25:44Z</time></trkpt><trkpt lat="44.86893489108837" lon="13.841838474462145"><ele>6.999999999999999</ele><time>2026-05-01T13:25:45Z</time></trkpt><trkpt lat="44.869015161734396" lon="13.841774816024998"><ele>7.0</ele><time>2026-05-01T13:25:46Z</time></trkpt><trkpt lat="44.8690977267925" lon="13.84171843185146"><ele>7.0</ele><time>2026-05-01T13:25:47Z</time></trkpt><trkpt lat="44.8691822921829" lon="13.841671580226834"><ele>6.3999999999999995</ele><time>2026-05-01T13:25:48Z</time></trkpt><trkpt lat="44.869272641504296" lon="13.841613102529305"><ele>5.799999999999999</ele><time>2026-05-01T13:25:49Z</time></trkpt><trkpt lat="44.86935783842088" lon="13.841557341974616"><ele>5.2</ele><time>2026-05-01T13:25:50Z</time></trkpt><trkpt lat="44.86943809498406" lon="13.841506852028663"><ele>4.6</ele><time>2026-05-01T13:25:51Z</time></trkpt><trkpt lat="44.86952258497456" lon="13.841461961422477"><ele>4.0</ele><time>2026-05-01T13:25:52Z</time></trkpt><trkpt lat="44.869612615974276" lon="13.84141072618927"><ele>4.0</ele><time>2026-05-01T13:25:53Z</time></trkpt><trkpt lat="44.869710905351695" lon="13.84137709246408"><ele>4.0</ele><time>2026-05-01T13:25:54Z</time></trkpt><trkpt lat="44.86981667070095" lon="13.841356003309969"><ele>4.0</ele><time>2026-05-01T13:25:55Z</time></trkpt><trkpt lat="44.86991651923765" lon="13.841350441114793"><ele>4.0</ele><time>2026-05-01T13:25:56Z</time></trkpt><trkpt lat="44.870008571174296" lon="13.841346089216252"><ele>4.0</ele><time>2026-05-01T13:25:57Z</time></trkpt><trkpt lat="44.870110004152075" lon="13.841348513973902"><ele>3.8000000000000003</ele><time>2026-05-01T13:25:58Z</time></trkpt><trkpt lat="44.87021526458359" lon="13.841355086891785"><ele>3.6000000000000005</ele><time>2026-05-01T13:25:59Z</time></trkpt><trkpt lat="44.87031979148038" lon="13.841358050095796"><ele>3.4</ele><time>2026-05-01T13:26:00Z</time></trkpt><trkpt lat="44.87042792783497" lon="13.841364894847477"><ele>3.2</ele><time>2026-05-01T13:26:01Z</time></trkpt><trkpt lat="44.87053469225828" lon="13.841389475822217"><ele>3.0</ele><time>2026-05-01T13:26:02Z</time></trkpt><trkpt lat="44.87063469377353" lon="13.84142351229956"><ele>3.0</ele><time>2026-05-01T13:26:03Z</time></trkpt><trkpt lat="44.8707176764781" lon="13.841470002374496"><ele>3.0</ele><time>2026-05-01T13:26:04Z</time></trkpt><trkpt lat="44.87078612430897" lon="13.841525465575877"><ele>3.0</ele><time>2026-05-01T13:26:05Z</time></trkpt><trkpt lat="44.87086085259261" lon="13.841588918378617"><ele>3.0</ele><time>2026-05-01T13:26:06Z</time></trkpt><trkpt lat="44.870941925217586" lon="13.841653580466701"><ele>3.0</ele><time>2026-05-01T13:26:07Z</time></trkpt><trkpt lat="44.871025085645336" lon="13.841723071841795"><ele>3.0</ele><time>2026-05-01T13:26:08Z</time></trkpt><trkpt lat="44.871107325949936" lon="13.84179161276949"><ele>2.6</ele><time>2026-05-01T13:26:09Z</time></trkpt><trkpt lat="44.8711894635401" lon="13.841863919266224"><ele>2.1999999999999997</ele><time>2026-05-01T13:26:10Z</time></trkpt><trkpt lat="44.87126303416025" lon="13.841955725136357"><ele>1.8</ele><time>2026-05-01T13:26:11Z</time></trkpt><trkpt lat="44.87131957844149" lon="13.842068159786994"><ele>1.4</ele><time>2026-05-01T13:26:12Z</time></trkpt><trkpt lat="44.8713605679238" lon="13.842188300060515"><ele>1.0</ele><time>2026-05-01T13:26:13Z</time></trkpt><trkpt lat="44.87139209496205" lon="13.842308930819838"><ele>1.0</ele><time>2026-05-01T13:26:14Z</time></trkpt><trkpt lat="44.871424376284935" lon="13.842423697442827"><ele>1.0</ele><time>2026-05-01T13:26:15Z</time></trkpt><trkpt lat="44.87146675366911" lon="13.842542120845636"><ele>1.0</ele><time>2026-05-01T13:26:16Z</time></trkpt><trkpt lat="44.87151307942868" lon="13.842668948229242"><ele>1.0</ele><time>2026-05-01T13:26:17Z</time></trkpt><trkpt lat="44.87155878138078" lon="13.842802740538568"><ele>1.0</ele><time>2026-05-01T13:26:18Z</time></trkpt><trkpt lat="44.871605891080854" lon="13.842942744885379"><ele>0.8</ele><time>2026-05-01T13:26:19Z</time></trkpt><trkpt lat="44.871652632687514" lon="13.843082956372273"><ele>0.6000000000000001</ele><time>2026-05-01T13:26:20Z</time></trkpt><trkpt lat="44.87170013499447" lon="13.843224616837993"><ele>0.4</ele><time>2026-05-01T13:26:21Z</time></trkpt><trkpt lat="44.87174818844377" lon="13.843361992222732"><ele>0.2</ele><time>2026-05-01T13:26:22Z</time></trkpt><trkpt lat="44.87179685117725" lon="13.843508094413126"><ele>0.0</ele><time>2026-05-01T13:26:23Z</time></trkpt><trkpt lat="44.87184592730731" lon="13.843657291095655"><ele>0.0</ele><time>2026-05-01T13:26:24Z</time></trkpt><trkpt lat="44.87189720721241" lon="13.843809406174714"><ele>0.0</ele><time>2026-05-01T13:26:25Z</time></trkpt><trkpt lat="44.87194679539433" lon="13.843963485851297"><ele>0.0</ele><time>2026-05-01T13:26:26Z</time></trkpt><trkpt lat="44.87199824337115" lon="13.84411484375285"><ele>0.0</ele><time>2026-05-01T13:26:27Z</time></trkpt><trkpt lat="44.87204455174255" lon="13.844247810225754"><ele>0.6</ele><time>2026-05-01T13:26:28Z</time></trkpt><trkpt lat="44.87208879015793" lon="13.844370892268882"><ele>1.2</ele><time>2026-05-01T13:26:29Z</time></trkpt><trkpt lat="44.87213803764284" lon="13.84450767099945"><ele>1.7999999999999998</ele><time>2026-05-01T13:26:30Z</time></trkpt><trkpt lat="44.872184093540774" lon="13.844646511736197"><ele>2.4</ele><time>2026-05-01T13:26:31Z</time></trkpt><trkpt lat="44.87222938742617" lon="13.844781691813825"><ele>3.0</ele><time>2026-05-01T13:26:32Z</time></trkpt><trkpt lat="44.87227358059745" lon="13.844912666365405"><ele>3.0</ele><time>2026-05-01T13:26:32.999Z</time></trkpt><trkpt lat="44.872316813550285" lon="13.845039220455794"><ele>3.0</ele><time>2026-05-01T13:26:33.999Z</time></trkpt><trkpt lat="44.872361079770656" lon="13.845162979597825"><ele>3.0</ele><time>2026-05-01T13:26:34.999Z</time></trkpt><trkpt lat="44.87240155958397" lon="13.845288995036794"><ele>3.0</ele><time>2026-05-01T13:26:35.999Z</time></trkpt><trkpt lat="44.872442331927395" lon="13.845408182785466"><ele>3.0</ele><time>2026-05-01T13:26:36.999Z</time></trkpt><trkpt lat="44.872481664457965" lon="13.845526396930234"><ele>2.5</ele><time>2026-05-01T13:26:37.999Z</time></trkpt><trkpt lat="44.87252005189219" lon="13.845642733340846"><ele>2.0</ele><time>2026-05-01T13:26:38.999Z</time></trkpt><trkpt lat="44.87255933598279" lon="13.845759641574553"><ele>1.5</ele><time>2026-05-01T13:26:39.999Z</time></trkpt><trkpt lat="44.87259689770495" lon="13.845876981670026"><ele>1.0</ele><time>2026-05-01T13:26:40.999Z</time></trkpt><trkpt lat="44.872631036011846" lon="13.845982411741941"><ele>0.5</ele><time>2026-05-01T13:26:41.999Z</time></trkpt><trkpt lat="44.87266152287405" lon="13.846075543371628"><ele>0.0</ele><time>2026-05-01T13:26:42.999Z</time></trkpt><trkpt lat="44.8727000669099" lon="13.846228221351696"><ele>0.0</ele><time>2026-05-01T13:26:44.999Z</time></trkpt><trkpt lat="44.87273607580472" lon="13.846345406388924"><ele>0.0</ele><time>2026-05-01T13:26:46.999Z</time></trkpt><trkpt lat="44.87276534193251" lon="13.846435434685873"><ele>0.0</ele><time>2026-05-01T13:26:48.999Z</time></trkpt><trkpt lat="44.87281281801894" lon="13.846591285348149"><ele>0.0</ele><time>2026-05-01T13:27:10.999Z</time></trkpt><trkpt lat="44.872841459819405" lon="13.846697827813943"><ele>0.0</ele><time>2026-05-01T13:27:11.999Z</time></trkpt><trkpt lat="44.87287510371469" lon="13.846796123373307"><ele>0.0</ele><time>2026-05-01T13:27:12.999Z</time></trkpt><trkpt lat="44.872912090809564" lon="13.846901779246599"><ele>0.6</ele><time>2026-05-01T13:27:13.999Z</time></trkpt><trkpt lat="44.87295176195401" lon="13.847014592448984"><ele>1.2</ele><time>2026-05-01T13:27:14.999Z</time></trkpt><trkpt lat="44.87299566826859" lon="13.84713062486462"><ele>1.7999999999999998</ele><time>2026-05-01T13:27:15.999Z</time></trkpt><trkpt lat="44.87304022951005" lon="13.84724265267224"><ele>2.4</ele><time>2026-05-01T13:27:16.999Z</time></trkpt><trkpt lat="44.87309011913118" lon="13.84736307081108"><ele>3.0</ele><time>2026-05-01T13:27:17.999Z</time></trkpt><trkpt lat="44.87313219742788" lon="13.847481405761586"><ele>3.0</ele><time>2026-05-01T13:27:18.999Z</time></trkpt><trkpt lat="44.87317341109951" lon="13.847598335538267"><ele>3.0</ele><time>2026-05-01T13:27:19.999Z</time></trkpt><trkpt lat="44.87321617923048" lon="13.84771370064496"><ele>3.0</ele><time>2026-05-01T13:27:20.999Z</time></trkpt><trkpt lat="44.873269325450316" lon="13.847825962487626"><ele>3.0</ele><time>2026-05-01T13:27:21.999Z</time></trkpt><trkpt lat="44.87333734808944" lon="13.847927230704663"><ele>3.0</ele><time>2026-05-01T13:27:22.999Z</time></trkpt><trkpt lat="44.87341647532761" lon="13.848013016844554"><ele>3.0</ele><time>2026-05-01T13:27:23.999Z</time></trkpt><trkpt lat="44.87349750537976" lon="13.848091360306121"><ele>3.0</ele><time>2026-05-01T13:27:24.999Z</time></trkpt><trkpt lat="44.87357837433846" lon="13.848167371030726"><ele>3.0</ele><time>2026-05-01T13:27:25.999Z</time></trkpt><trkpt lat="44.873658407672394" lon="13.84824457500913"><ele>3.0</ele><time>2026-05-01T13:27:26.999Z</time></trkpt><trkpt lat="44.87373078862036" lon="13.848308914485177"><ele>3.0</ele><time>2026-05-01T13:27:27.999Z</time></trkpt><trkpt lat="44.8737960689044" lon="13.84835986034149"><ele>3.0</ele><time>2026-05-01T13:27:28.999Z</time></trkpt><trkpt lat="44.87385305633438" lon="13.848406893760925"><ele>3.0</ele><time>2026-05-01T13:27:29.999Z</time></trkpt><trkpt lat="44.8739467135228" lon="13.848492377096735"><ele>3.0</ele><time>2026-05-01T13:27:31.999Z</time></trkpt><trkpt lat="44.874000352187686" lon="13.848563949828891"><ele>3.0</ele><time>2026-05-01T13:27:34.999Z</time></trkpt><trkpt lat="44.874051532757335" lon="13.848624393365068"><ele>3.0</ele><time>2026-05-01T13:27:39Z</time></trkpt><trkpt lat="44.874110848191684" lon="13.848674023444763"><ele>3.0</ele><time>2026-05-01T13:27:42Z</time></trkpt><trkpt lat="44.874163852312606" lon="13.848739087546669"><ele>4.0</ele><time>2026-05-01T13:27:44Z</time></trkpt><trkpt lat="44.87422800275529" lon="13.848861537263234"><ele>5.0</ele><time>2026-05-01T13:27:46Z</time></trkpt><trkpt lat="44.87432101286411" lon="13.848970918867808"><ele>6.000000000000001</ele><time>2026-05-01T13:27:48Z</time></trkpt><trkpt lat="44.87440701516574" lon="13.849050712582322"><ele>7.0</ele><time>2026-05-01T13:27:50Z</time></trkpt><trkpt lat="44.87447364347983" lon="13.849123515921772"><ele>8.0</ele><time>2026-05-01T13:27:52Z</time></trkpt><trkpt lat="44.87452883865694" lon="13.849228050200576"><ele>8.4</ele><time>2026-05-01T13:27:56Z</time></trkpt><trkpt lat="44.87456673597095" lon="13.849362513472148"><ele>8.8</ele><time>2026-05-01T13:27:58Z</time></trkpt><trkpt lat="44.87466112634481" lon="13.849412162462945"><ele>9.2</ele><time>2026-05-01T13:28:00Z</time></trkpt><trkpt lat="44.87476180216704" lon="13.849490147150426"><ele>9.6</ele><time>2026-05-01T13:28:02Z</time></trkpt><trkpt lat="44.874877525058906" lon="13.849535163295023"><ele>10.0</ele><time>2026-05-01T13:28:04Z</time></trkpt><trkpt lat="44.87491674066581" lon="13.84960897058567"><ele>10.0</ele><time>2026-05-01T13:28:05Z</time></trkpt><trkpt lat="44.8749729442422" lon="13.849670354728534"><ele>10.0</ele><time>2026-05-01T13:28:06Z</time></trkpt><trkpt lat="44.87506184834429" lon="13.849724225574908"><ele>10.0</ele><time>2026-05-01T13:28:07Z</time></trkpt><trkpt lat="44.87513122313131" lon="13.849812808953015"><ele>10.0</ele><time>2026-05-01T13:28:08Z</time></trkpt><trkpt lat="44.87520327488559" lon="13.849884635175991"><ele>10.0</ele><time>2026-05-01T13:28:09Z</time></trkpt><trkpt lat="44.87527314371417" lon="13.849960938746348"><ele>10.0</ele><time>2026-05-01T13:28:10Z</time></trkpt><trkpt lat="44.87534598789747" lon="13.85003978537417"><ele>10.0</ele><time>2026-05-01T13:28:11Z</time></trkpt><trkpt lat="44.87541777507191" lon="13.850119649545132"><ele>10.0</ele><time>2026-05-01T13:28:12Z</time></trkpt><trkpt lat="44.87549285424221" lon="13.850194181727927"><ele>10.0</ele><time>2026-05-01T13:28:13Z</time></trkpt><trkpt lat="44.87557951285844" lon="13.850255414387584"><ele>10.0</ele><time>2026-05-01T13:28:14Z</time></trkpt><trkpt lat="44.875672476654415" lon="13.850293822193017"><ele>10.0</ele><time>2026-05-01T13:28:15Z</time></trkpt><trkpt lat="44.875683964681876" lon="13.85045126680127"><ele>10.0</ele><time>2026-05-01T13:28:16Z</time></trkpt><trkpt lat="44.87575128854862" lon="13.85051971882717"><ele>10.0</ele><time>2026-05-01T13:28:17Z</time></trkpt><trkpt lat="44.87581626721035" lon="13.850593225635548"><ele>10.0</ele><time>2026-05-01T13:28:18Z</time></trkpt><trkpt lat="44.875877633421474" lon="13.850659855540375"><ele>10.0</ele><time>2026-05-01T13:28:19Z</time></trkpt><trkpt lat="44.87593942577717" lon="13.85072477065418"><ele>10.0</ele><time>2026-05-01T13:28:20Z</time></trkpt><trkpt lat="44.8759894907216" lon="13.850781347647116"><ele>10.0</ele><time>2026-05-01T13:28:21Z</time></trkpt><trkpt lat="44.87608695053939" lon="13.85089494361021"><ele>10.285714285714285</ele><time>2026-05-01T13:28:23Z</time></trkpt><trkpt lat="44.87613745256075" lon="13.85095864449223"><ele>10.571428571428571</ele><time>2026-05-01T13:28:24Z</time></trkpt><trkpt lat="44.87618613266201" lon="13.851031285791736"><ele>10.857142857142858</ele><time>2026-05-01T13:28:25Z</time></trkpt><trkpt lat="44.876228793738456" lon="13.851112957641075"><ele>11.142857142857142</ele><time>2026-05-01T13:28:26Z</time></trkpt><trkpt lat="44.87627121032318" lon="13.851197934695074"><ele>11.428571428571429</ele><time>2026-05-01T13:28:27Z</time></trkpt><trkpt lat="44.87630846138214" lon="13.85128340778707"><ele>11.714285714285714</ele><time>2026-05-01T13:28:28Z</time></trkpt><trkpt lat="44.87634895612025" lon="13.851370791709178"><ele>12.0</ele><time>2026-05-01T13:28:29Z</time></trkpt><trkpt lat="44.87639177697056" lon="13.85145104856523"><ele>12.0</ele><time>2026-05-01T13:28:30Z</time></trkpt><trkpt lat="44.876435046007195" lon="13.85154512315706"><ele>12.0</ele><time>2026-05-01T13:28:31Z</time></trkpt><trkpt lat="44.87647750843839" lon="13.851644422918428"><ele>12.0</ele><time>2026-05-01T13:28:31.999Z</time></trkpt><trkpt lat="44.87651411677482" lon="13.85174374021116"><ele>12.0</ele><time>2026-05-01T13:28:32.999Z</time></trkpt><trkpt lat="44.87654042583769" lon="13.85186263520874"><ele>12.0</ele><time>2026-05-01T13:28:33.999Z</time></trkpt><trkpt lat="44.87656021558081" lon="13.85197949849063"><ele>12.0</ele><time>2026-05-01T13:28:34.999Z</time></trkpt><trkpt lat="44.876585506419524" lon="13.852099240053104"><ele>11.8</ele><time>2026-05-01T13:28:35.999Z</time></trkpt><trkpt lat="44.876618092235645" lon="13.852224569696387"><ele>11.6</ele><time>2026-05-01T13:28:36.999Z</time></trkpt><trkpt lat="44.87664734216017" lon="13.85234585040173"><ele>11.4</ele><time>2026-05-01T13:28:37.999Z</time></trkpt><trkpt lat="44.8766622976772" lon="13.852475506900873"><ele>11.200000000000001</ele><time>2026-05-01T13:28:38.999Z</time></trkpt><trkpt lat="44.87668119990254" lon="13.852600826624895"><ele>11.0</ele><time>2026-05-01T13:28:39.999Z</time></trkpt><trkpt lat="44.876712522456884" lon="13.852733939151223"><ele>11.0</ele><time>2026-05-01T13:28:40.999Z</time></trkpt><trkpt lat="44.87674994999554" lon="13.852878962056094"><ele>11.0</ele><time>2026-05-01T13:28:41.999Z</time></trkpt><trkpt lat="44.876774530815815" lon="13.852993519478334"><ele>11.0</ele><time>2026-05-01T13:28:42.999Z</time></trkpt><trkpt lat="44.87679394273499" lon="13.853104909323323"><ele>11.0</ele><time>2026-05-01T13:28:43.999Z</time></trkpt><trkpt lat="44.876813983306164" lon="13.853198177341117"><ele>11.0</ele><time>2026-05-01T13:28:44.999Z</time></trkpt><trkpt lat="44.87683616181901" lon="13.853320103308464"><ele>11.0</ele><time>2026-05-01T13:28:45.999Z</time></trkpt><trkpt lat="44.87686319022394" lon="13.853443910481147"><ele>12.5</ele><time>2026-05-01T13:28:46.999Z</time></trkpt><trkpt lat="44.87688821343996" lon="13.853569096984348"><ele>14.0</ele><time>2026-05-01T13:28:47.999Z</time></trkpt><trkpt lat="44.87691466590312" lon="13.853683580439233"><ele>15.5</ele><time>2026-05-01T13:28:48.999Z</time></trkpt><trkpt lat="44.87694338450575" lon="13.853794428301965"><ele>17.0</ele><time>2026-05-01T13:28:49.999Z</time></trkpt><trkpt lat="44.8769680536624" lon="13.853896237829868"><ele>18.5</ele><time>2026-05-01T13:28:50.999Z</time></trkpt><trkpt lat="44.87698564484928" lon="13.853993345532711"><ele>20.0</ele><time>2026-05-01T13:28:51.999Z</time></trkpt><trkpt lat="44.877000134440806" lon="13.854097833109977"><ele>20.0</ele><time>2026-05-01T13:28:52.999Z</time></trkpt><trkpt lat="44.87702271090845" lon="13.854201664167116"><ele>20.0</ele><time>2026-05-01T13:28:53.999Z</time></trkpt><trkpt lat="44.87704402767229" lon="13.854305107967853"><ele>20.0</ele><time>2026-05-01T13:28:54.999Z</time></trkpt><trkpt lat="44.877065438963335" lon="13.854401706299091"><ele>20.0</ele><time>2026-05-01T13:28:55.999Z</time></trkpt><trkpt lat="44.87709858050524" lon="13.854554138295518"><ele>20.0</ele><time>2026-05-01T13:28:57.999Z</time></trkpt><trkpt lat="44.87713016258197" lon="13.854702284428908"><ele>20.0</ele><time>2026-05-01T13:28:59.999Z</time></trkpt><trkpt lat="44.87714903636644" lon="13.854788411025758"><ele>19.142857142857142</ele><time>2026-05-01T13:29:00.999Z</time></trkpt><trkpt lat="44.877172296241774" lon="13.85488860712635"><ele>18.285714285714285</ele><time>2026-05-01T13:29:01.999Z</time></trkpt><trkpt lat="44.87719591466192" lon="13.85500079470412"><ele>17.42857142857143</ele><time>2026-05-01T13:29:02.999Z</time></trkpt><trkpt lat="44.87721777607013" lon="13.855111786977917"><ele>16.57142857142857</ele><time>2026-05-01T13:29:03.999Z</time></trkpt><trkpt lat="44.877235844040925" lon="13.855203356311234"><ele>15.714285714285715</ele><time>2026-05-01T13:29:04.999Z</time></trkpt><trkpt lat="44.87725694302175" lon="13.855295637807108"><ele>14.857142857142858</ele><time>2026-05-01T13:29:05.999Z</time></trkpt><trkpt lat="44.877279013731595" lon="13.855384589149676"><ele>14.0</ele><time>2026-05-01T13:29:06.999Z</time></trkpt><trkpt lat="44.87729691202536" lon="13.855470043153415"><ele>13.2</ele><time>2026-05-01T13:29:07.999Z</time></trkpt><trkpt lat="44.87732515743055" lon="13.855613002941896"><ele>12.399999999999999</ele><time>2026-05-01T13:29:09.999Z</time></trkpt><trkpt lat="44.87735951164684" lon="13.855764748500851"><ele>11.6</ele><time>2026-05-01T13:29:11.999Z</time></trkpt><trkpt lat="44.87738615445751" lon="13.855913618256666"><ele>10.8</ele><time>2026-05-01T13:29:13.999Z</time></trkpt><trkpt lat="44.87741690165581" lon="13.856064596909874"><ele>10.0</ele><time>2026-05-01T13:29:15.999Z</time></trkpt><trkpt lat="44.87745544749816" lon="13.856237768172345"><ele>10.0</ele><time>2026-05-01T13:29:17.999Z</time></trkpt><trkpt lat="44.87747618745165" lon="13.856337030901358"><ele>10.0</ele><time>2026-05-01T13:29:18.999Z</time></trkpt><trkpt lat="44.877500118791204" lon="13.85643725213654"><ele>10.0</ele><time>2026-05-01T13:29:19.999Z</time></trkpt><trkpt lat="44.877517892462585" lon="13.856531941915248"><ele>10.0</ele><time>2026-05-01T13:29:20.999Z</time></trkpt><trkpt lat="44.87754800434183" lon="13.856684012611947"><ele>10.0</ele><time>2026-05-01T13:29:22.999Z</time></trkpt><trkpt lat="44.877582768171116" lon="13.856835801121838"><ele>10.0</ele><time>2026-05-01T13:29:24.999Z</time></trkpt><trkpt lat="44.87761624877929" lon="13.85698579257557"><ele>11.2</ele><time>2026-05-01T13:29:26.999Z</time></trkpt><trkpt lat="44.87764926931091" lon="13.857152509905436"><ele>12.4</ele><time>2026-05-01T13:29:28.999Z</time></trkpt><trkpt lat="44.87768744923966" lon="13.85731697333962"><ele>13.600000000000001</ele><time>2026-05-01T13:29:30.999Z</time></trkpt><trkpt lat="44.87771139806142" lon="13.85740574782846"><ele>14.8</ele><time>2026-05-01T13:29:31.999Z</time></trkpt><trkpt lat="44.87774550660195" lon="13.857566528251638"><ele>16.0</ele><time>2026-05-01T13:29:33.999Z</time></trkpt><trkpt lat="44.877772876056376" lon="13.857716361178726"><ele>15.999999999999998</ele><time>2026-05-01T13:29:35.999Z</time></trkpt><trkpt lat="44.87780764752562" lon="13.8578714340048"><ele>16.0</ele><time>2026-05-01T13:29:37.999Z</time></trkpt><trkpt lat="44.877827069509785" lon="13.857957669037408"><ele>16.0</ele><time>2026-05-01T13:29:38.999Z</time></trkpt><trkpt lat="44.87784498998619" lon="13.858052810191166"><ele>16.0</ele><time>2026-05-01T13:29:39.999Z</time></trkpt><trkpt lat="44.877865914684385" lon="13.858141384878211"><ele>15.999999999999998</ele><time>2026-05-01T13:29:40.999Z</time></trkpt><trkpt lat="44.877900860437414" lon="13.858311043896627"><ele>16.0</ele><time>2026-05-01T13:29:43Z</time></trkpt><trkpt lat="44.877934276807444" lon="13.858478648835357"><ele>16.0</ele><time>2026-05-01T13:29:45Z</time></trkpt><trkpt lat="44.87795140291645" lon="13.858565527811159"><ele>16.0</ele><time>2026-05-01T13:29:46Z</time></trkpt><trkpt lat="44.877968235207106" lon="13.858651811590535"><ele>16.0</ele><time>2026-05-01T13:29:47Z</time></trkpt><trkpt lat="44.87800167169896" lon="13.858814787078476"><ele>16.0</ele><time>2026-05-01T13:29:49Z</time></trkpt><trkpt lat="44.878030784866425" lon="13.858950530871176"><ele>16.0</ele><time>2026-05-01T13:29:51Z</time></trkpt><trkpt lat="44.87806178196956" lon="13.859126131326562"><ele>15.999999999999998</ele><time>2026-05-01T13:29:53Z</time></trkpt><trkpt lat="44.87807768386015" lon="13.859219658386081"><ele>16.0</ele><time>2026-05-01T13:29:54Z</time></trkpt><trkpt lat="44.878094642866294" lon="13.859315753823449"><ele>16.0</ele><time>2026-05-01T13:29:55Z</time></trkpt><trkpt lat="44.878110353853124" lon="13.859415126766091"><ele>16.0</ele><time>2026-05-01T13:29:56Z</time></trkpt><trkpt lat="44.87812886837023" lon="13.859506624538545"><ele>15.999999999999998</ele><time>2026-05-01T13:29:57Z</time></trkpt><trkpt lat="44.878158523062545" lon="13.859651941345925"><ele>16.0</ele><time>2026-05-01T13:29:59Z</time></trkpt><trkpt lat="44.8781832225056" lon="13.859820245347057"><ele>15.666666666666666</ele><time>2026-05-01T13:30:01Z</time></trkpt><trkpt lat="44.87819973577955" lon="13.859908570837595"><ele>15.333333333333332</ele><time>2026-05-01T13:30:02Z</time></trkpt><trkpt lat="44.878231215793114" lon="13.860067965055013"><ele>15.0</ele><time>2026-05-01T13:30:04Z</time></trkpt><trkpt lat="44.87826266518656" lon="13.860223649771743"><ele>14.666666666666668</ele><time>2026-05-01T13:30:06Z</time></trkpt><trkpt lat="44.87827751359737" lon="13.860310947450008"><ele>14.333333333333334</ele><time>2026-05-01T13:30:07Z</time></trkpt><trkpt lat="44.87829407937293" lon="13.860402536272076"><ele>14.0</ele><time>2026-05-01T13:30:08Z</time></trkpt><trkpt lat="44.8783249048133" lon="13.860551788870836"><ele>13.799999999999999</ele><time>2026-05-01T13:30:10Z</time></trkpt><trkpt lat="44.878347671794124" lon="13.860678316707656"><ele>13.599999999999998</ele><time>2026-05-01T13:30:12Z</time></trkpt><trkpt lat="44.87836661277893" lon="13.860807967736873"><ele>13.4</ele><time>2026-05-01T13:30:14Z</time></trkpt><trkpt lat="44.87837843679288" lon="13.860932284143063"><ele>13.2</ele><time>2026-05-01T13:30:16Z</time></trkpt><trkpt lat="44.87837511368468" lon="13.861037848643084"><ele>13.0</ele><time>2026-05-01T13:30:19Z</time></trkpt><trkpt lat="44.87834112513852" lon="13.86117495441457"><ele>13.0</ele><time>2026-05-01T13:30:23Z</time></trkpt><trkpt lat="44.878255384164795" lon="13.86125931570835"><ele>13.0</ele><time>2026-05-01T13:30:25Z</time></trkpt><trkpt lat="44.87823327027793" lon="13.861410581797019"><ele>13.0</ele><time>2026-05-01T13:30:27Z</time></trkpt><trkpt lat="44.878276625255204" lon="13.861485238782967"><ele>13.0</ele><time>2026-05-01T13:30:28Z</time></trkpt><trkpt lat="44.87836611933563" lon="13.861557463849245"><ele>13.0</ele><time>2026-05-01T13:30:30Z</time></trkpt><trkpt lat="44.878474755580484" lon="13.86158030722498"><ele>12.999999999999998</ele><time>2026-05-01T13:30:32Z</time></trkpt><trkpt lat="44.87859465361441" lon="13.861639972186087"><ele>13.0</ele><time>2026-05-01T13:30:34Z</time></trkpt><trkpt lat="44.878638723551504" lon="13.861728700127266"><ele>13.0</ele><time>2026-05-01T13:30:35Z</time></trkpt><trkpt lat="44.878688646840686" lon="13.861808069356687"><ele>13.0</ele><time>2026-05-01T13:30:36Z</time></trkpt><trkpt lat="44.87873214400954" lon="13.861895037891557"><ele>12.999999999999998</ele><time>2026-05-01T13:30:37Z</time></trkpt><trkpt lat="44.87877887014274" lon="13.86199876790629"><ele>13.0</ele><time>2026-05-01T13:30:38Z</time></trkpt><trkpt lat="44.87882360238302" lon="13.862088455904251"><ele>12.999999999999998</ele><time>2026-05-01T13:30:39Z</time></trkpt><trkpt lat="44.87886716426925" lon="13.862165558016"><ele>13.0</ele><time>2026-05-01T13:30:39.999Z</time></trkpt><trkpt lat="44.8789111483241" lon="13.862247232503462"><ele>13.0</ele><time>2026-05-01T13:30:40.999Z</time></trkpt><trkpt lat="44.878959374795414" lon="13.862331699954046"><ele>13.0</ele><time>2026-05-01T13:30:41.999Z</time></trkpt><trkpt lat="44.879010221143155" lon="13.862419389138037"><ele>12.999999999999998</ele><time>2026-05-01T13:30:42.999Z</time></trkpt><trkpt lat="44.879059408302304" lon="13.862509494015304"><ele>13.0</ele><time>2026-05-01T13:30:43.999Z</time></trkpt><trkpt lat="44.87910570985416" lon="13.862585309386427"><ele>12.999999999999998</ele><time>2026-05-01T13:30:44.999Z</time></trkpt><trkpt lat="44.879153659778865" lon="13.86265798177612"><ele>13.0</ele><time>2026-05-01T13:30:45.999Z</time></trkpt><trkpt lat="44.87920371649034" lon="13.86273370611651"><ele>13.0</ele><time>2026-05-01T13:30:46.999Z</time></trkpt><trkpt lat="44.87925775527218" lon="13.86281990573227"><ele>13.0</ele><time>2026-05-01T13:30:47.999Z</time></trkpt><trkpt lat="44.879306409773335" lon="13.862902659742145"><ele>12.999999999999998</ele><time>2026-05-01T13:30:48.999Z</time></trkpt><trkpt lat="44.87936416941473" lon="13.862994889142719"><ele>13.0</ele><time>2026-05-01T13:30:49.999Z</time></trkpt><trkpt lat="44.87941753914612" lon="13.863093164337497"><ele>12.999999999999998</ele><time>2026-05-01T13:30:50.999Z</time></trkpt><trkpt lat="44.879472815026105" lon="13.863191128440837"><ele>13.0</ele><time>2026-05-01T13:30:51.999Z</time></trkpt><trkpt lat="44.87952689841359" lon="13.863280090317595"><ele>13.0</ele><time>2026-05-01T13:30:52.999Z</time></trkpt><trkpt lat="44.87958207645109" lon="13.863370716492387"><ele>13.0</ele><time>2026-05-01T13:30:53.999Z</time></trkpt><trkpt lat="44.87963825996783" lon="13.863461414302902"><ele>12.999999999999998</ele><time>2026-05-01T13:30:54.999Z</time></trkpt><trkpt lat="44.87970295386893" lon="13.863546561010391"><ele>13.0</ele><time>2026-05-01T13:30:55.999Z</time></trkpt><trkpt lat="44.87977275299072" lon="13.863628953454274"><ele>12.999999999999998</ele><time>2026-05-01T13:30:56.999Z</time></trkpt><trkpt lat="44.879864066738605" lon="13.863679769214654"><ele>13.0</ele><time>2026-05-01T13:30:57.999Z</time></trkpt><trkpt lat="44.87990642726195" lon="13.863768090443578"><ele>13.0</ele><time>2026-05-01T13:30:58.999Z</time></trkpt><trkpt lat="44.87996556214956" lon="13.86383563862203"><ele>13.0</ele><time>2026-05-01T13:30:59.999Z</time></trkpt><trkpt lat="44.88001894018755" lon="13.863908852493655"><ele>12.999999999999998</ele><time>2026-05-01T13:31:00.999Z</time></trkpt><trkpt lat="44.88005800992071" lon="13.864018098756054"><ele>13.0</ele><time>2026-05-01T13:31:01.999Z</time></trkpt><trkpt lat="44.88007849020615" lon="13.864145341307662"><ele>13.25</ele><time>2026-05-01T13:31:02.999Z</time></trkpt><trkpt lat="44.88007253255288" lon="13.864291841280322"><ele>13.5</ele><time>2026-05-01T13:31:03.999Z</time></trkpt><trkpt lat="44.880070725018896" lon="13.864428218051305"><ele>13.75</ele><time>2026-05-01T13:31:04.999Z</time></trkpt><trkpt lat="44.87996677187064" lon="13.864563860502974"><ele>14.0</ele><time>2026-05-01T13:31:05.999Z</time></trkpt><trkpt lat="44.8798773728652" lon="13.864672032309187"><ele>14.0</ele><time>2026-05-01T13:31:06.999Z</time></trkpt><trkpt lat="44.879761198733306" lon="13.864758560484418"><ele>14.0</ele><time>2026-05-01T13:31:07.999Z</time></trkpt><trkpt lat="44.87963469210597" lon="13.864842035782084"><ele>14.0</ele><time>2026-05-01T13:31:08.999Z</time></trkpt><trkpt lat="44.87951251114031" lon="13.864926252947974"><ele>14.0</ele><time>2026-05-01T13:31:09.999Z</time></trkpt><trkpt lat="44.87939795597007" lon="13.865009540817443"><ele>14.0</ele><time>2026-05-01T13:31:10.999Z</time></trkpt><trkpt lat="44.87928352543808" lon="13.86509965835537"><ele>14.0</ele><time>2026-05-01T13:31:11.999Z</time></trkpt><trkpt lat="44.87916118528309" lon="13.86519053334254"><ele>14.0</ele><time>2026-05-01T13:31:12.999Z</time></trkpt><trkpt lat="44.87903299809507" lon="13.865282028074533"><ele>14.0</ele><time>2026-05-01T13:31:13.999Z</time></trkpt><trkpt lat="44.87890213320466" lon="13.865378722850851"><ele>14.25</ele><time>2026-05-01T13:31:14.999Z</time></trkpt><trkpt lat="44.87877897148443" lon="13.865485626157458"><ele>14.5</ele><time>2026-05-01T13:31:15.999Z</time></trkpt><trkpt lat="44.87866949716897" lon="13.865616576187751"><ele>14.75</ele><time>2026-05-01T13:31:16.999Z</time></trkpt><trkpt lat="44.87855981890605" lon="13.86575166632994"><ele>15.0</ele><time>2026-05-01T13:31:17.999Z</time></trkpt><trkpt lat="44.87844464456847" lon="13.865875689220289"><ele>15.75</ele><time>2026-05-01T13:31:18.999Z</time></trkpt><trkpt lat="44.87831506319826" lon="13.865975625149154"><ele>16.5</ele><time>2026-05-01T13:31:19.999Z</time></trkpt><trkpt lat="44.87818237813157" lon="13.86606903532756"><ele>17.25</ele><time>2026-05-01T13:31:20.999Z</time></trkpt><trkpt lat="44.8780516012444" lon="13.866163046429154"><ele>18.0</ele><time>2026-05-01T13:31:21.999Z</time></trkpt><trkpt lat="44.877917350996334" lon="13.86625831746103"><ele>18.0</ele><time>2026-05-01T13:31:22.999Z</time></trkpt><trkpt lat="44.877777070883106" lon="13.866355191069276"><ele>18.0</ele><time>2026-05-01T13:31:23.999Z</time></trkpt><trkpt lat="44.87764344898497" lon="13.866449087721403"><ele>18.0</ele><time>2026-05-01T13:31:24.999Z</time></trkpt><trkpt lat="44.877504253426764" lon="13.866545072809249"><ele>18.0</ele><time>2026-05-01T13:31:25.999Z</time></trkpt><trkpt lat="44.87735907406506" lon="13.866640089829092"><ele>18.0</ele><time>2026-05-01T13:31:26.999Z</time></trkpt><trkpt lat="44.877217065192546" lon="13.866733336057619"><ele>18.0</ele><time>2026-05-01T13:31:27.999Z</time></trkpt><trkpt lat="44.87707678753527" lon="13.86682007218966"><ele>19.0</ele><time>2026-05-01T13:31:28.999Z</time></trkpt><trkpt lat="44.87695460076219" lon="13.866892084070315"><ele>20.0</ele><time>2026-05-01T13:31:29.999Z</time></trkpt><trkpt lat="44.87684135723491" lon="13.86694663326382"><ele>21.0</ele><time>2026-05-01T13:31:30.999Z</time></trkpt><trkpt lat="44.87673715992402" lon="13.867003785916465"><ele>22.0</ele><time>2026-05-01T13:31:31.999Z</time></trkpt><trkpt lat="44.876636970572726" lon="13.867055337264679"><ele>22.0</ele><time>2026-05-01T13:31:32.999Z</time></trkpt><trkpt lat="44.87654731326997" lon="13.86709483921143"><ele>22.0</ele><time>2026-05-01T13:31:33.999Z</time></trkpt><trkpt lat="44.876459239666495" lon="13.867108551782309"><ele>22.0</ele><time>2026-05-01T13:31:34.999Z</time></trkpt><trkpt lat="44.87636398604176" lon="13.86710145248922"><ele>22.0</ele><time>2026-05-01T13:31:35.999Z</time></trkpt><trkpt lat="44.87627200079258" lon="13.86705941812543"><ele>22.0</ele><time>2026-05-01T13:31:36.999Z</time></trkpt><trkpt lat="44.8761856310451" lon="13.867018290983049"><ele>22.0</ele><time>2026-05-01T13:31:37.999Z</time></trkpt><trkpt lat="44.876088082097695" lon="13.867036804386032"><ele>22.0</ele><time>2026-05-01T13:31:38.999Z</time></trkpt><trkpt lat="44.875998098042366" lon="13.867126882879683"><ele>22.0</ele><time>2026-05-01T13:31:39.999Z</time></trkpt><trkpt lat="44.87593374118766" lon="13.86725782983195"><ele>22.0</ele><time>2026-05-01T13:31:40.999Z</time></trkpt><trkpt lat="44.87585682947675" lon="13.867362512797671"><ele>22.0</ele><time>2026-05-01T13:31:41.999Z</time></trkpt><trkpt lat="44.87574962754327" lon="13.867406653890733"><ele>22.0</ele><time>2026-05-01T13:31:42.999Z</time></trkpt><trkpt lat="44.87563132030488" lon="13.86742420532202"><ele>22.0</ele><time>2026-05-01T13:31:43.999Z</time></trkpt><trkpt lat="44.87551075253376" lon="13.867444801650494"><ele>22.0</ele><time>2026-05-01T13:31:44.999Z</time></trkpt><trkpt lat="44.8753805379482" lon="13.867477177129066"><ele>22.0</ele><time>2026-05-01T13:31:45.999Z</time></trkpt><trkpt lat="44.87525228406081" lon="13.86751149050881"><ele>22.0</ele><time>2026-05-01T13:31:46.999Z</time></trkpt><trkpt lat="44.87511909379294" lon="13.86754909727604"><ele>22.0</ele><time>2026-05-01T13:31:47.999Z</time></trkpt><trkpt lat="44.87497495276566" lon="13.867599587919205"><ele>22.0</ele><time>2026-05-01T13:31:49Z</time></trkpt><trkpt lat="44.87482009050812" lon="13.867653136755859"><ele>22.0</ele><time>2026-05-01T13:31:50Z</time></trkpt><trkpt lat="44.874655205310425" lon="13.867703854135641"><ele>21.0</ele><time>2026-05-01T13:31:51Z</time></trkpt><trkpt lat="44.87448286644194" lon="13.86775256393279"><ele>20.0</ele><time>2026-05-01T13:31:52Z</time></trkpt><trkpt lat="44.87431542115587" lon="13.867797530089925"><ele>19.0</ele><time>2026-05-01T13:31:53Z</time></trkpt><trkpt lat="44.87414338978205" lon="13.86784508102895"><ele>18.0</ele><time>2026-05-01T13:31:54Z</time></trkpt><trkpt lat="44.87396840783557" lon="13.867893176086545"><ele>17.0</ele><time>2026-05-01T13:31:55Z</time></trkpt><trkpt lat="44.87379464686817" lon="13.867937364290249"><ele>16.0</ele><time>2026-05-01T13:31:56Z</time></trkpt><trkpt lat="44.87362657019374" lon="13.867981424540861"><ele>16.0</ele><time>2026-05-01T13:31:57Z</time></trkpt><trkpt lat="44.87345215369666" lon="13.868026611446847"><ele>16.0</ele><time>2026-05-01T13:31:58Z</time></trkpt><trkpt lat="44.87328085804659" lon="13.86806445858022"><ele>16.0</ele><time>2026-05-01T13:31:59Z</time></trkpt><trkpt lat="44.873105804102806" lon="13.868108024029752"><ele>16.0</ele><time>2026-05-01T13:32:00Z</time></trkpt><trkpt lat="44.87293018922656" lon="13.868148698551584"><ele>16.0</ele><time>2026-05-01T13:32:01Z</time></trkpt><trkpt lat="44.87275533705224" lon="13.868193955606301"><ele>16.0</ele><time>2026-05-01T13:32:02Z</time></trkpt><trkpt lat="44.87260238029605" lon="13.868223596021053"><ele>16.0</ele><time>2026-05-01T13:32:03Z</time></trkpt><trkpt lat="44.872415380804526" lon="13.86828570514314"><ele>16.0</ele><time>2026-05-01T13:32:04Z</time></trkpt><trkpt lat="44.87224658414685" lon="13.868332532084615"><ele>16.0</ele><time>2026-05-01T13:32:05Z</time></trkpt><trkpt lat="44.87208016876954" lon="13.868377322861553"><ele>16.0</ele><time>2026-05-01T13:32:06Z</time></trkpt><trkpt lat="44.87191023260564" lon="13.86842074393655"><ele>16.0</ele><time>2026-05-01T13:32:07Z</time></trkpt><trkpt lat="44.87173772549817" lon="13.868466419433737"><ele>16.0</ele><time>2026-05-01T13:32:08Z</time></trkpt><trkpt lat="44.87156660115964" lon="13.868506550754796"><ele>16.666666666666664</ele><time>2026-05-01T13:32:09Z</time></trkpt><trkpt lat="44.87139257294847" lon="13.868549546376345"><ele>17.333333333333332</ele><time>2026-05-01T13:32:10Z</time></trkpt><trkpt lat="44.87121825283318" lon="13.868593565893537"><ele>18.0</ele><time>2026-05-01T13:32:11Z</time></trkpt><trkpt lat="44.87104520537467" lon="13.868637182598345"><ele>18.333333333333332</ele><time>2026-05-01T13:32:12Z</time></trkpt><trkpt lat="44.87087512380506" lon="13.868685382754764"><ele>18.666666666666664</ele><time>2026-05-01T13:32:13Z</time></trkpt><trkpt lat="44.8707052358981" lon="13.86872821553335"><ele>19.0</ele><time>2026-05-01T13:32:14Z</time></trkpt><trkpt lat="44.87053544317505" lon="13.868768921491961"><ele>19.0</ele><time>2026-05-01T13:32:15Z</time></trkpt><trkpt lat="44.870366951378415" lon="13.86881348025428"><ele>19.0</ele><time>2026-05-01T13:32:16Z</time></trkpt><trkpt lat="44.87019827736759" lon="13.868855115480244"><ele>19.0</ele><time>2026-05-01T13:32:17Z</time></trkpt><trkpt lat="44.87003212386296" lon="13.868894011166692"><ele>19.0</ele><time>2026-05-01T13:32:18Z</time></trkpt><trkpt lat="44.869865798447485" lon="13.868936734666688"><ele>19.0</ele><time>2026-05-01T13:32:19Z</time></trkpt><trkpt lat="44.869702200777986" lon="13.868980985899746"><ele>19.0</ele><time>2026-05-01T13:32:20Z</time></trkpt><trkpt lat="44.86953619494729" lon="13.869025450821745"><ele>19.0</ele><time>2026-05-01T13:32:21Z</time></trkpt><trkpt lat="44.86937119305092" lon="13.869066456649774"><ele>19.0</ele><time>2026-05-01T13:32:22Z</time></trkpt><trkpt lat="44.86920227314569" lon="13.869111252002629"><ele>19.0</ele><time>2026-05-01T13:32:23Z</time></trkpt><trkpt lat="44.86903679416876" lon="13.869152767164667"><ele>18.0</ele><time>2026-05-01T13:32:24Z</time></trkpt><trkpt lat="44.86887498393501" lon="13.869193009328232"><ele>17.0</ele><time>2026-05-01T13:32:25Z</time></trkpt><trkpt lat="44.868725904880776" lon="13.869230150981256"><ele>16.0</ele><time>2026-05-01T13:32:26Z</time></trkpt><trkpt lat="44.868588084047516" lon="13.86926338539195"><ele>16.0</ele><time>2026-05-01T13:32:27Z</time></trkpt><trkpt lat="44.86845479078248" lon="13.869293779315376"><ele>16.0</ele><time>2026-05-01T13:32:28Z</time></trkpt><trkpt lat="44.868323070319285" lon="13.869321622430709"><ele>16.0</ele><time>2026-05-01T13:32:29Z</time></trkpt><trkpt lat="44.86818852613863" lon="13.869345660263235"><ele>16.0</ele><time>2026-05-01T13:32:30Z</time></trkpt><trkpt lat="44.86806312772588" lon="13.869367701404684"><ele>16.0</ele><time>2026-05-01T13:32:31Z</time></trkpt><trkpt lat="44.86794600776471" lon="13.869387797336906"><ele>16.0</ele><time>2026-05-01T13:32:32Z</time></trkpt><trkpt lat="44.8678368630494" lon="13.869403818596172"><ele>16.0</ele><time>2026-05-01T13:32:33Z</time></trkpt><trkpt lat="44.8677357852601" lon="13.869420827375532"><ele>16.0</ele><time>2026-05-01T13:32:34Z</time></trkpt><trkpt lat="44.86764819509377" lon="13.869428402414655"><ele>16.0</ele><time>2026-05-01T13:32:35Z</time></trkpt><trkpt lat="44.86756919529441" lon="13.869406450868519"><ele>15.600000000000001</ele><time>2026-05-01T13:32:36Z</time></trkpt><trkpt lat="44.867499079720126" lon="13.869341110326006"><ele>15.200000000000001</ele><time>2026-05-01T13:32:37Z</time></trkpt><trkpt lat="44.86742758611385" lon="13.86926704099104"><ele>14.799999999999999</ele><time>2026-05-01T13:32:38Z</time></trkpt><trkpt lat="44.867337872486544" lon="13.869253213075687"><ele>14.399999999999999</ele><time>2026-05-01T13:32:39Z</time></trkpt><trkpt lat="44.867245641536336" lon="13.869312329148942"><ele>14.0</ele><time>2026-05-01T13:32:40Z</time></trkpt><trkpt lat="44.86716129854669" lon="13.869409163005756"><ele>13.75</ele><time>2026-05-01T13:32:41Z</time></trkpt><trkpt lat="44.867059895734606" lon="13.869465856165862"><ele>13.5</ele><time>2026-05-01T13:32:41.999Z</time></trkpt><trkpt lat="44.86693943237942" lon="13.869468033373206"><ele>13.25</ele><time>2026-05-01T13:32:42.999Z</time></trkpt><trkpt lat="44.866811564413716" lon="13.869442327723839"><ele>13.0</ele><time>2026-05-01T13:32:43.999Z</time></trkpt><trkpt lat="44.86668437741425" lon="13.869418563947544"><ele>13.5</ele><time>2026-05-01T13:32:44.999Z</time></trkpt><trkpt lat="44.86656229398727" lon="13.869398555361723"><ele>14.0</ele><time>2026-05-01T13:32:45.999Z</time></trkpt><trkpt lat="44.86643139211211" lon="13.869372178540964"><ele>14.5</ele><time>2026-05-01T13:32:46.999Z</time></trkpt><trkpt lat="44.866292945849544" lon="13.869347339012554"><ele>15.0</ele><time>2026-05-01T13:32:47.999Z</time></trkpt><trkpt lat="44.866149341494335" lon="13.869312056646002"><ele>14.0</ele><time>2026-05-01T13:32:48.999Z</time></trkpt><trkpt lat="44.8660020250782" lon="13.869272509594992"><ele>13.0</ele><time>2026-05-01T13:32:49.999Z</time></trkpt><trkpt lat="44.86585192140293" lon="13.869226458460732"><ele>12.0</ele><time>2026-05-01T13:32:50.999Z</time></trkpt><trkpt lat="44.865700101445995" lon="13.869172908994134"><ele>11.666666666666666</ele><time>2026-05-01T13:32:51.999Z</time></trkpt><trkpt lat="44.865544929921896" lon="13.869109503778352"><ele>11.333333333333332</ele><time>2026-05-01T13:32:52.999Z</time></trkpt><trkpt lat="44.86538950674975" lon="13.869042740975717"><ele>11.0</ele><time>2026-05-01T13:32:53.999Z</time></trkpt><trkpt lat="44.86524060546534" lon="13.868968258546714"><ele>11.25</ele><time>2026-05-01T13:32:54.999Z</time></trkpt><trkpt lat="44.86510064059647" lon="13.868887307180092"><ele>11.5</ele><time>2026-05-01T13:32:55.999Z</time></trkpt><trkpt lat="44.86496764202863" lon="13.868807422486174"><ele>11.75</ele><time>2026-05-01T13:32:56.999Z</time></trkpt><trkpt lat="44.86483833898833" lon="13.868721222406275"><ele>12.0</ele><time>2026-05-01T13:32:57.999Z</time></trkpt><trkpt lat="44.86471130509325" lon="13.868634569746877"><ele>12.0</ele><time>2026-05-01T13:32:58.999Z</time></trkpt><trkpt lat="44.86458081380648" lon="13.86853942626097"><ele>12.0</ele><time>2026-05-01T13:32:59.999Z</time></trkpt><trkpt lat="44.864447448291784" lon="13.86843711556691"><ele>12.0</ele><time>2026-05-01T13:33:00.999Z</time></trkpt><trkpt lat="44.86430855272463" lon="13.868321075592897"><ele>11.666666666666666</ele><time>2026-05-01T13:33:01.999Z</time></trkpt><trkpt lat="44.864169644705896" lon="13.868195976838784"><ele>11.333333333333332</ele><time>2026-05-01T13:33:02.999Z</time></trkpt><trkpt lat="44.864033093804615" lon="13.868061937192124"><ele>11.0</ele><time>2026-05-01T13:33:03.999Z</time></trkpt><trkpt lat="44.86389727358658" lon="13.867922630164074"><ele>11.0</ele><time>2026-05-01T13:33:04.999Z</time></trkpt><trkpt lat="44.86376414203997" lon="13.867771640230579"><ele>11.0</ele><time>2026-05-01T13:33:05.999Z</time></trkpt><trkpt lat="44.8636343930049" lon="13.867617035232911"><ele>11.0</ele><time>2026-05-01T13:33:06.999Z</time></trkpt><trkpt lat="44.8635046365605" lon="13.867457357055228"><ele>10.0</ele><time>2026-05-01T13:33:07.999Z</time></trkpt><trkpt lat="44.86337780179326" lon="13.867294123600265"><ele>9.0</ele><time>2026-05-01T13:33:08.999Z</time></trkpt><trkpt lat="44.86325270385483" lon="13.867122584359985"><ele>8.0</ele><time>2026-05-01T13:33:09.999Z</time></trkpt><trkpt lat="44.86313093472142" lon="13.866948421249772"><ele>8.0</ele><time>2026-05-01T13:33:10.999Z</time></trkpt><trkpt lat="44.863011954544525" lon="13.866780099924853"><ele>8.0</ele><time>2026-05-01T13:33:11.999Z</time></trkpt><trkpt lat="44.86290431258705" lon="13.866621188692678"><ele>8.0</ele><time>2026-05-01T13:33:12.999Z</time></trkpt><trkpt lat="44.86279980167469" lon="13.866469001263198"><ele>8.0</ele><time>2026-05-01T13:33:13.999Z</time></trkpt><trkpt lat="44.8626962548412" lon="13.86631248569239"><ele>8.0</ele><time>2026-05-01T13:33:14.999Z</time></trkpt><trkpt lat="44.862597753763154" lon="13.866161508662739"><ele>8.0</ele><time>2026-05-01T13:33:15.999Z</time></trkpt><trkpt lat="44.86250498336732" lon="13.866020504524467"><ele>8.0</ele><time>2026-05-01T13:33:16.999Z</time></trkpt><trkpt lat="44.8624165507744" lon="13.8658886079578"><ele>7.2</ele><time>2026-05-01T13:33:17.999Z</time></trkpt><trkpt lat="44.86233344166478" lon="13.865763030108873"><ele>6.4</ele><time>2026-05-01T13:33:18.999Z</time></trkpt><trkpt lat="44.86226005043598" lon="13.865650253306068"><ele>5.6000000000000005</ele><time>2026-05-01T13:33:19.999Z</time></trkpt><trkpt lat="44.86219384410559" lon="13.865556293676297"><ele>4.800000000000001</ele><time>2026-05-01T13:33:20.999Z</time></trkpt><trkpt lat="44.86213513465265" lon="13.865461254140476"><ele>4.0</ele><time>2026-05-01T13:33:21.999Z</time></trkpt><trkpt lat="44.86208771170444" lon="13.865367159532001"><ele>4.0</ele><time>2026-05-01T13:33:22.999Z</time></trkpt><trkpt lat="44.86204709278117" lon="13.865267770892794"><ele>4.0</ele><time>2026-05-01T13:33:23.999Z</time></trkpt><trkpt lat="44.86201700232292" lon="13.865144780873667"><ele>4.0</ele><time>2026-05-01T13:33:24.999Z</time></trkpt><trkpt lat="44.86200645090588" lon="13.865011833738507"><ele>4.0</ele><time>2026-05-01T13:33:25.999Z</time></trkpt><trkpt lat="44.86199655799772" lon="13.864867485213303"><ele>4.0</ele><time>2026-05-01T13:33:26.999Z</time></trkpt><trkpt lat="44.86196893915899" lon="13.864743422416765"><ele>4.166666666666666</ele><time>2026-05-01T13:33:27.999Z</time></trkpt><trkpt lat="44.86191570889808" lon="13.864644536207763"><ele>4.333333333333333</ele><time>2026-05-01T13:33:28.999Z</time></trkpt><trkpt lat="44.86184926215768" lon="13.864576552576539"><ele>4.5</ele><time>2026-05-01T13:33:29.999Z</time></trkpt><trkpt lat="44.861775807113204" lon="13.864540913758436"><ele>4.666666666666667</ele><time>2026-05-01T13:33:30.999Z</time></trkpt><trkpt lat="44.86169137037068" lon="13.86453310673462"><ele>4.833333333333334</ele><time>2026-05-01T13:33:31.999Z</time></trkpt><trkpt lat="44.861601463507796" lon="13.864555839582223"><ele>5.0</ele><time>2026-05-01T13:33:32.999Z</time></trkpt><trkpt lat="44.86152319386075" lon="13.864621714604992"><ele>5.0</ele><time>2026-05-01T13:33:33.999Z</time></trkpt><trkpt lat="44.86147042973723" lon="13.86470940490007"><ele>5.0</ele><time>2026-05-01T13:33:34.999Z</time></trkpt><trkpt lat="44.8614346786148" lon="13.864820663150113"><ele>5.0</ele><time>2026-05-01T13:33:35.999Z</time></trkpt><trkpt lat="44.86141748746467" lon="13.864946457049461"><ele>5.0</ele><time>2026-05-01T13:33:36.999Z</time></trkpt><trkpt lat="44.86143119653234" lon="13.865079235198259"><ele>5.0</ele><time>2026-05-01T13:33:37.999Z</time></trkpt><trkpt lat="44.86146247657914" lon="13.865202146311296"><ele>5.0</ele><time>2026-05-01T13:33:38.999Z</time></trkpt><trkpt lat="44.8614858860869" lon="13.865327415915347"><ele>5.0</ele><time>2026-05-01T13:33:39.999Z</time></trkpt><trkpt lat="44.86149622261814" lon="13.865459702564882"><ele>5.0</ele><time>2026-05-01T13:33:40.999Z</time></trkpt><trkpt lat="44.86149582333202" lon="13.865606100480232"><ele>5.0</ele><time>2026-05-01T13:33:41.999Z</time></trkpt><trkpt lat="44.86148657582537" lon="13.865760908712609"><ele>5.0</ele><time>2026-05-01T13:33:42.999Z</time></trkpt><trkpt lat="44.86149087635572" lon="13.865923336792035"><ele>5.0</ele><time>2026-05-01T13:33:43.999Z</time></trkpt><trkpt lat="44.86146268939466" lon="13.866090156238881"><ele>5.75</ele><time>2026-05-01T13:33:44.999Z</time></trkpt><trkpt lat="44.86145931964497" lon="13.866261924176468"><ele>6.5</ele><time>2026-05-01T13:33:45.999Z</time></trkpt><trkpt lat="44.8614600102769" lon="13.86643476910615"><ele>7.25</ele><time>2026-05-01T13:33:46.999Z</time></trkpt><trkpt lat="44.8614556933724" lon="13.866605437021013"><ele>8.0</ele><time>2026-05-01T13:33:47.999Z</time></trkpt><trkpt lat="44.86143817840437" lon="13.866773467990752"><ele>8.25</ele><time>2026-05-01T13:33:48.999Z</time></trkpt><trkpt lat="44.861406322718885" lon="13.866935639412267"><ele>8.5</ele><time>2026-05-01T13:33:49.999Z</time></trkpt><trkpt lat="44.86134492838131" lon="13.867089140426351"><ele>8.75</ele><time>2026-05-01T13:33:50.999Z</time></trkpt><trkpt lat="44.86130333192476" lon="13.867258116332172"><ele>9.0</ele><time>2026-05-01T13:33:51.999Z</time></trkpt><trkpt lat="44.86124553883645" lon="13.867416391306396"><ele>9.0</ele><time>2026-05-01T13:33:52.999Z</time></trkpt><trkpt lat="44.86119785612969" lon="13.86757120020963"><ele>9.0</ele><time>2026-05-01T13:33:53.999Z</time></trkpt><trkpt lat="44.86115740253247" lon="13.86770850947683"><ele>9.0</ele><time>2026-05-01T13:33:55Z</time></trkpt><trkpt lat="44.86111677297192" lon="13.867848372922099"><ele>9.0</ele><time>2026-05-01T13:33:56Z</time></trkpt><trkpt lat="44.86107201482843" lon="13.867989865705857"><ele>9.0</ele><time>2026-05-01T13:33:57Z</time></trkpt><trkpt lat="44.861029690798176" lon="13.868136923138554"><ele>9.25</ele><time>2026-05-01T13:33:58Z</time></trkpt><trkpt lat="44.86098565320453" lon="13.868281748062719"><ele>9.5</ele><time>2026-05-01T13:33:59Z</time></trkpt><trkpt lat="44.86093761364984" lon="13.868424595755881"><ele>9.75</ele><time>2026-05-01T13:34:00Z</time></trkpt><trkpt lat="44.86088608110615" lon="13.868567455808877"><ele>10.0</ele><time>2026-05-01T13:34:01Z</time></trkpt><trkpt lat="44.86083103378945" lon="13.86870866548943"><ele>11.5</ele><time>2026-05-01T13:34:02Z</time></trkpt><trkpt lat="44.8607713940968" lon="13.868850915862401"><ele>13.0</ele><time>2026-05-01T13:34:03Z</time></trkpt><trkpt lat="44.86070839405758" lon="13.86898960584135"><ele>14.5</ele><time>2026-05-01T13:34:04Z</time></trkpt><trkpt lat="44.86063977998809" lon="13.869127314817426"><ele>16.0</ele><time>2026-05-01T13:34:05Z</time></trkpt><trkpt lat="44.86056783304923" lon="13.869263339576936"><ele>16.0</ele><time>2026-05-01T13:34:06Z</time></trkpt><trkpt lat="44.86050369742911" lon="13.86939631059618"><ele>16.0</ele><time>2026-05-01T13:34:07Z</time></trkpt><trkpt lat="44.86043478389757" lon="13.869523760947905"><ele>16.0</ele><time>2026-05-01T13:34:08Z</time></trkpt><trkpt lat="44.860362510121824" lon="13.869659246924366"><ele>16.0</ele><time>2026-05-01T13:34:09Z</time></trkpt><trkpt lat="44.86028850669534" lon="13.8697957681274"><ele>16.0</ele><time>2026-05-01T13:34:10Z</time></trkpt><trkpt lat="44.86021707863403" lon="13.869919797071141"><ele>16.0</ele><time>2026-05-01T13:34:11Z</time></trkpt><trkpt lat="44.86015209987264" lon="13.87004199080692"><ele>16.0</ele><time>2026-05-01T13:34:12Z</time></trkpt><trkpt lat="44.860085892085486" lon="13.87016824754467"><ele>16.0</ele><time>2026-05-01T13:34:13Z</time></trkpt><trkpt lat="44.86001967681645" lon="13.870287876504788"><ele>16.0</ele><time>2026-05-01T13:34:14Z</time></trkpt><trkpt lat="44.8599477070469" lon="13.870410636712649"><ele>16.8</ele><time>2026-05-01T13:34:15Z</time></trkpt><trkpt lat="44.85988748097266" lon="13.870526946277762"><ele>17.6</ele><time>2026-05-01T13:34:16Z</time></trkpt><trkpt lat="44.85982594204994" lon="13.87064270667087"><ele>18.4</ele><time>2026-05-01T13:34:17Z</time></trkpt><trkpt lat="44.859764625542894" lon="13.870757522464144"><ele>19.2</ele><time>2026-05-01T13:34:18Z</time></trkpt><trkpt lat="44.85971028700219" lon="13.870867559697524"><ele>20.0</ele><time>2026-05-01T13:34:19Z</time></trkpt><trkpt lat="44.859655064373214" lon="13.870984508916639"><ele>20.6</ele><time>2026-05-01T13:34:20Z</time></trkpt><trkpt lat="44.859596775316994" lon="13.87110050954267"><ele>21.2</ele><time>2026-05-01T13:34:21Z</time></trkpt><trkpt lat="44.85953556641162" lon="13.871216473503996"><ele>21.799999999999997</ele><time>2026-05-01T13:34:22Z</time></trkpt><trkpt lat="44.85947408243566" lon="13.871336269039551"><ele>22.4</ele><time>2026-05-01T13:34:23Z</time></trkpt><trkpt lat="44.85941413562152" lon="13.871460674257818"><ele>23.0</ele><time>2026-05-01T13:34:24Z</time></trkpt><trkpt lat="44.8593529975512" lon="13.871590683500672"><ele>23.0</ele><time>2026-05-01T13:34:25Z</time></trkpt><trkpt lat="44.85929011397828" lon="13.87172373523215"><ele>23.0</ele><time>2026-05-01T13:34:26Z</time></trkpt><trkpt lat="44.859226181744035" lon="13.871861241635262"><ele>23.0</ele><time>2026-05-01T13:34:27Z</time></trkpt><trkpt lat="44.85916358136872" lon="13.872001848291946"><ele>23.0</ele><time>2026-05-01T13:34:28Z</time></trkpt><trkpt lat="44.85910674290079" lon="13.872145445604266"><ele>23.0</ele><time>2026-05-01T13:34:29Z</time></trkpt><trkpt lat="44.859040829590654" lon="13.872268729728743"><ele>23.0</ele><time>2026-05-01T13:34:30Z</time></trkpt><trkpt lat="44.858973645693915" lon="13.872436064778698"><ele>23.0</ele><time>2026-05-01T13:34:31Z</time></trkpt><trkpt lat="44.85891409989607" lon="13.872586936660534"><ele>23.0</ele><time>2026-05-01T13:34:32Z</time></trkpt><trkpt lat="44.85885201564826" lon="13.872741733312708"><ele>23.0</ele><time>2026-05-01T13:34:33Z</time></trkpt><trkpt lat="44.858795226764904" lon="13.872891949381925"><ele>23.0</ele><time>2026-05-01T13:34:34Z</time></trkpt><trkpt lat="44.85872466816865" lon="13.87303584206914"><ele>23.0</ele><time>2026-05-01T13:34:35Z</time></trkpt><trkpt lat="44.85866342686346" lon="13.873194019412496"><ele>23.0</ele><time>2026-05-01T13:34:36Z</time></trkpt><trkpt lat="44.858614704208506" lon="13.873363060618548"><ele>23.5</ele><time>2026-05-01T13:34:37Z</time></trkpt><trkpt lat="44.85855001921211" lon="13.873524320063707"><ele>24.0</ele><time>2026-05-01T13:34:38Z</time></trkpt><trkpt lat="44.858488969740485" lon="13.873693463015544"><ele>24.5</ele><time>2026-05-01T13:34:39Z</time></trkpt><trkpt lat="44.85843100350245" lon="13.873865017849578"><ele>25.0</ele><time>2026-05-01T13:34:40Z</time></trkpt><trkpt lat="44.85836717468317" lon="13.874037098323374"><ele>24.0</ele><time>2026-05-01T13:34:41Z</time></trkpt><trkpt lat="44.85830490337902" lon="13.87420978666573"><ele>23.0</ele><time>2026-05-01T13:34:42Z</time></trkpt><trkpt lat="44.858243356755864" lon="13.874385052416125"><ele>22.0</ele><time>2026-05-01T13:34:43Z</time></trkpt><trkpt lat="44.858181443265785" lon="13.874561428558378"><ele>21.0</ele><time>2026-05-01T13:34:44Z</time></trkpt><trkpt lat="44.858120511243385" lon="13.874739073791996"><ele>21.0</ele><time>2026-05-01T13:34:45Z</time></trkpt><trkpt lat="44.858062207932576" lon="13.874911788595497"><ele>21.0</ele><time>2026-05-01T13:34:46Z</time></trkpt><trkpt lat="44.85800929157886" lon="13.875071917411566"><ele>21.0</ele><time>2026-05-01T13:34:47Z</time></trkpt><trkpt lat="44.8579589296924" lon="13.875222841697191"><ele>21.0</ele><time>2026-05-01T13:34:48Z</time></trkpt><trkpt lat="44.85790162936153" lon="13.875381942570488"><ele>21.0</ele><time>2026-05-01T13:34:49Z</time></trkpt><trkpt lat="44.857843690307476" lon="13.87554178059005"><ele>21.0</ele><time>2026-05-01T13:34:50Z</time></trkpt><trkpt lat="44.85778686486868" lon="13.87570175325363"><ele>21.0</ele><time>2026-05-01T13:34:51Z</time></trkpt><trkpt lat="44.85772914750046" lon="13.875862406964286"><ele>21.0</ele><time>2026-05-01T13:34:51.999Z</time></trkpt><trkpt lat="44.85767522044814" lon="13.876025865950298"><ele>21.0</ele><time>2026-05-01T13:34:52.999Z</time></trkpt><trkpt lat="44.85762127448361" lon="13.87618811668069"><ele>21.0</ele><time>2026-05-01T13:34:53.999Z</time></trkpt><trkpt lat="44.85756017199484" lon="13.876347513773608"><ele>21.0</ele><time>2026-05-01T13:34:54.999Z</time></trkpt><trkpt lat="44.85750521473054" lon="13.876511275803667"><ele>21.0</ele><time>2026-05-01T13:34:55.999Z</time></trkpt><trkpt lat="44.85743469218232" lon="13.876668425484645"><ele>20.25</ele><time>2026-05-01T13:34:56.999Z</time></trkpt><trkpt lat="44.85737705279258" lon="13.876831602621005"><ele>19.5</ele><time>2026-05-01T13:34:57.999Z</time></trkpt><trkpt lat="44.85733717566034" lon="13.87699657499447"><ele>18.75</ele><time>2026-05-01T13:34:58.999Z</time></trkpt><trkpt lat="44.85728531384477" lon="13.877125319993166"><ele>18.0</ele><time>2026-05-01T13:34:59.999Z</time></trkpt><trkpt lat="44.857250529767846" lon="13.877258133809486"><ele>18.0</ele><time>2026-05-01T13:35:00.999Z</time></trkpt><trkpt lat="44.85721121914489" lon="13.877385420613493"><ele>18.0</ele><time>2026-05-01T13:35:01.999Z</time></trkpt><trkpt lat="44.85716312702949" lon="13.877484827509633"><ele>18.0</ele><time>2026-05-01T13:35:02.999Z</time></trkpt><trkpt lat="44.857136874062725" lon="13.87757696437509"><ele>18.0</ele><time>2026-05-01T13:35:03.999Z</time></trkpt><trkpt lat="44.85710014321858" lon="13.877723498600217"><ele>18.0</ele><time>2026-05-01T13:35:05.999Z</time></trkpt><trkpt lat="44.8572784845505" lon="13.877768322884895"><ele>18.0</ele><time>2026-05-01T13:35:08.999Z</time></trkpt><trkpt lat="44.85733291652088" lon="13.877701120165439"><ele>18.0</ele><time>2026-05-01T13:35:10.999Z</time></trkpt><trkpt lat="44.857328310739284" lon="13.877605901859194"><ele>18.0</ele><time>2026-05-01T13:37:21.999Z</time></trkpt><trkpt lat="44.85733316536028" lon="13.87769758757675"><ele>18.0</ele><time>2026-05-01T13:42:35Z</time></trkpt><trkpt lat="44.85736323453907" lon="13.877511409531417"><ele>18.0</ele><time>2026-05-01T13:46:17.999Z</time></trkpt><trkpt lat="44.85739214248183" lon="13.877362964508954"><ele>18.0</ele><time>2026-05-01T13:46:19.999Z</time></trkpt><trkpt lat="44.85743693711263" lon="13.877295777409909"><ele>18.0</ele><time>2026-05-01T13:46:20.999Z</time></trkpt><trkpt lat="44.8574879280175" lon="13.877230774106696"><ele>18.0</ele><time>2026-05-01T13:46:21.999Z</time></trkpt><trkpt lat="44.85756036853813" lon="13.877098896167096"><ele>18.0</ele><time>2026-05-01T13:46:23.999Z</time></trkpt><trkpt lat="44.85751275883631" lon="13.877034982556362"><ele>18.0</ele><time>2026-05-01T13:46:29Z</time></trkpt><trkpt lat="44.857532649116756" lon="13.877131128871392"><ele>18.0</ele><time>2026-05-01T13:47:59.999Z</time></trkpt><trkpt lat="44.8574808056636" lon="13.877188563021893"><ele>18.0</ele><time>2026-05-01T13:48:02.999Z</time></trkpt><trkpt lat="44.857434606932024" lon="13.877252874162302"><ele>18.0</ele><time>2026-05-01T13:48:04.999Z</time></trkpt><trkpt lat="44.85736200734374" lon="13.877214247890144"><ele>18.0</ele><time>2026-05-01T13:48:06.999Z</time></trkpt><trkpt lat="44.857270059659726" lon="13.877187569536092"><ele>18.0</ele><time>2026-05-01T13:48:18.999Z</time></trkpt><trkpt lat="44.857208735706294" lon="13.877354210073554"><ele>18.0</ele><time>2026-05-01T13:48:20.999Z</time></trkpt><trkpt lat="44.857184851076305" lon="13.877448228630323"><ele>18.0</ele><time>2026-05-01T13:48:21.999Z</time></trkpt><trkpt lat="44.85713920356605" lon="13.877543274351504"><ele>18.8</ele><time>2026-05-01T13:48:22.999Z</time></trkpt><trkpt lat="44.8570898559377" lon="13.877660364813716"><ele>19.6</ele><time>2026-05-01T13:48:23.999Z</time></trkpt><trkpt lat="44.85706666952178" lon="13.877787305820036"><ele>20.400000000000002</ele><time>2026-05-01T13:48:24.999Z</time></trkpt><trkpt lat="44.857039276990804" lon="13.877914833633238"><ele>21.200000000000003</ele><time>2026-05-01T13:48:25.999Z</time></trkpt><trkpt lat="44.857029306176635" lon="13.878037663289534"><ele>22.0</ele><time>2026-05-01T13:48:26.999Z</time></trkpt><trkpt lat="44.85700176003502" lon="13.878186454361785"><ele>22.0</ele><time>2026-05-01T13:48:27.999Z</time></trkpt><trkpt lat="44.85698728449453" lon="13.878330000976787"><ele>22.0</ele><time>2026-05-01T13:48:28.999Z</time></trkpt><trkpt lat="44.85695036805869" lon="13.878476470671716"><ele>22.0</ele><time>2026-05-01T13:48:29.999Z</time></trkpt><trkpt lat="44.85692992192345" lon="13.878636149999501"><ele>22.0</ele><time>2026-05-01T13:48:30.999Z</time></trkpt><trkpt lat="44.85690894839924" lon="13.878801967394425"><ele>22.0</ele><time>2026-05-01T13:48:31.999Z</time></trkpt><trkpt lat="44.856877680734854" lon="13.878967837461431"><ele>22.25</ele><time>2026-05-01T13:48:33Z</time></trkpt><trkpt lat="44.85683193320216" lon="13.87913300870247"><ele>22.5</ele><time>2026-05-01T13:48:34Z</time></trkpt><trkpt lat="44.856814706968784" lon="13.879309965210808"><ele>22.75</ele><time>2026-05-01T13:48:35Z</time></trkpt><trkpt lat="44.856789006877136" lon="13.879479511236775"><ele>23.0</ele><time>2026-05-01T13:48:36Z</time></trkpt><trkpt lat="44.85676583203436" lon="13.879638702801884"><ele>23.5</ele><time>2026-05-01T13:48:37Z</time></trkpt><trkpt lat="44.856738352756665" lon="13.879796281450199"><ele>24.0</ele><time>2026-05-01T13:48:38Z</time></trkpt><trkpt lat="44.856731978561555" lon="13.879966258179342"><ele>24.5</ele><time>2026-05-01T13:48:39Z</time></trkpt><trkpt lat="44.85670155335171" lon="13.880138112659964"><ele>25.0</ele><time>2026-05-01T13:48:40Z</time></trkpt><trkpt lat="44.85667066387684" lon="13.880312908432941"><ele>25.25</ele><time>2026-05-01T13:48:41Z</time></trkpt><trkpt lat="44.85663180925937" lon="13.88048987211378"><ele>25.5</ele><time>2026-05-01T13:48:42Z</time></trkpt><trkpt lat="44.85659042925413" lon="13.88066451405141"><ele>25.75</ele><time>2026-05-01T13:48:43Z</time></trkpt><trkpt lat="44.85655672662069" lon="13.880852728663774"><ele>26.0</ele><time>2026-05-01T13:48:44Z</time></trkpt><trkpt lat="44.856502771424786" lon="13.881029172361458"><ele>26.0</ele><time>2026-05-01T13:48:45Z</time></trkpt><trkpt lat="44.85647572166951" lon="13.881220833798295"><ele>26.0</ele><time>2026-05-01T13:48:46Z</time></trkpt><trkpt lat="44.856422710092936" lon="13.88140998195238"><ele>26.0</ele><time>2026-05-01T13:48:47Z</time></trkpt><trkpt lat="44.8563839651478" lon="13.881598187626572"><ele>26.0</ele><time>2026-05-01T13:48:48Z</time></trkpt><trkpt lat="44.85635732996888" lon="13.881804077832557"><ele>25.666666666666664</ele><time>2026-05-01T13:48:49Z</time></trkpt><trkpt lat="44.856311022240654" lon="13.881999014165176"><ele>25.333333333333336</ele><time>2026-05-01T13:48:50Z</time></trkpt><trkpt lat="44.856269556838164" lon="13.882204627035996"><ele>25.0</ele><time>2026-05-01T13:48:51Z</time></trkpt><trkpt lat="44.856225163966855" lon="13.882413901628059"><ele>25.333333333333336</ele><time>2026-05-01T13:48:52Z</time></trkpt><trkpt lat="44.856175840421564" lon="13.882622927527477"><ele>25.666666666666664</ele><time>2026-05-01T13:48:53Z</time></trkpt><trkpt lat="44.85612078981284" lon="13.8828358983701"><ele>26.0</ele><time>2026-05-01T13:48:54Z</time></trkpt><trkpt lat="44.85606472876831" lon="13.883049475532966"><ele>26.0</ele><time>2026-05-01T13:48:55Z</time></trkpt><trkpt lat="44.856002516517684" lon="13.883261808990117"><ele>26.0</ele><time>2026-05-01T13:48:56Z</time></trkpt><trkpt lat="44.8559110350494" lon="13.883459216363192"><ele>26.0</ele><time>2026-05-01T13:48:57Z</time></trkpt><trkpt lat="44.855823839591935" lon="13.883651782259015"><ele>24.666666666666664</ele><time>2026-05-01T13:48:58Z</time></trkpt><trkpt lat="44.85574242384798" lon="13.883855648939171"><ele>23.333333333333332</ele><time>2026-05-01T13:48:59Z</time></trkpt><trkpt lat="44.85564538171861" lon="13.884043562294188"><ele>22.0</ele><time>2026-05-01T13:49:00Z</time></trkpt><trkpt lat="44.855547711393584" lon="13.884221417165607"><ele>21.666666666666664</ele><time>2026-05-01T13:49:01Z</time></trkpt><trkpt lat="44.85544833664845" lon="13.88439121779871"><ele>21.333333333333332</ele><time>2026-05-01T13:49:02Z</time></trkpt><trkpt lat="44.855346641729845" lon="13.884569296053623"><ele>21.0</ele><time>2026-05-01T13:49:03Z</time></trkpt><trkpt lat="44.85524575664284" lon="13.884747225709056"><ele>21.0</ele><time>2026-05-01T13:49:04Z</time></trkpt><trkpt lat="44.855149425554984" lon="13.884924560874802"><ele>21.0</ele><time>2026-05-01T13:49:05Z</time></trkpt><trkpt lat="44.855058865154625" lon="13.885112262830683"><ele>21.0</ele><time>2026-05-01T13:49:06Z</time></trkpt><trkpt lat="44.854972924310935" lon="13.885301072515334"><ele>21.666666666666668</ele><time>2026-05-01T13:49:07Z</time></trkpt><trkpt lat="44.85489046904076" lon="13.885490222532281"><ele>22.333333333333336</ele><time>2026-05-01T13:49:08Z</time></trkpt><trkpt lat="44.854821090496515" lon="13.885691101666612"><ele>23.0</ele><time>2026-05-01T13:49:09Z</time></trkpt><trkpt lat="44.85476056670363" lon="13.885901166287352"><ele>22.333333333333336</ele><time>2026-05-01T13:49:10Z</time></trkpt><trkpt lat="44.85471010333784" lon="13.886118930749035"><ele>21.666666666666668</ele><time>2026-05-01T13:49:11Z</time></trkpt><trkpt lat="44.85467013238711" lon="13.88634541278308"><ele>21.0</ele><time>2026-05-01T13:49:12Z</time></trkpt><trkpt lat="44.85463504961929" lon="13.886574970373001"><ele>20.333333333333332</ele><time>2026-05-01T13:49:13Z</time></trkpt><trkpt lat="44.85458038358409" lon="13.886795515457122"><ele>19.666666666666664</ele><time>2026-05-01T13:49:13.999Z</time></trkpt><trkpt lat="44.85455880511079" lon="13.887030129764366"><ele>19.0</ele><time>2026-05-01T13:49:14.999Z</time></trkpt><trkpt lat="44.85452102856552" lon="13.88725885028232"><ele>19.0</ele><time>2026-05-01T13:49:15.999Z</time></trkpt><trkpt lat="44.85448244100793" lon="13.887485316296418"><ele>19.0</ele><time>2026-05-01T13:49:16.999Z</time></trkpt><trkpt lat="44.854443494999614" lon="13.887716532978963"><ele>19.0</ele><time>2026-05-01T13:49:17.999Z</time></trkpt><trkpt lat="44.85440240020004" lon="13.887946463884106"><ele>19.333333333333332</ele><time>2026-05-01T13:49:18.999Z</time></trkpt><trkpt lat="44.85436482017676" lon="13.888178928075945"><ele>19.666666666666668</ele><time>2026-05-01T13:49:19.999Z</time></trkpt><trkpt lat="44.85432635381517" lon="13.888411437029784"><ele>20.0</ele><time>2026-05-01T13:49:20.999Z</time></trkpt><trkpt lat="44.85428920740062" lon="13.888644796211704"><ele>20.333333333333336</ele><time>2026-05-01T13:49:21.999Z</time></trkpt><trkpt lat="44.854229773437424" lon="13.888873665905438"><ele>20.666666666666668</ele><time>2026-05-01T13:49:22.999Z</time></trkpt><trkpt lat="44.85417548725396" lon="13.889100657100565"><ele>21.0</ele><time>2026-05-01T13:49:23.999Z</time></trkpt><trkpt lat="44.85411079465302" lon="13.889321848197502"><ele>21.0</ele><time>2026-05-01T13:49:24.999Z</time></trkpt><trkpt lat="44.85403478861109" lon="13.889533578356465"><ele>21.0</ele><time>2026-05-01T13:49:25.999Z</time></trkpt><trkpt lat="44.853948872599524" lon="13.88974574342487"><ele>21.0</ele><time>2026-05-01T13:49:26.999Z</time></trkpt><trkpt lat="44.85385928063434" lon="13.889953584357848"><ele>21.333333333333332</ele><time>2026-05-01T13:49:27.999Z</time></trkpt><trkpt lat="44.853768977132965" lon="13.890160523884454"><ele>21.666666666666664</ele><time>2026-05-01T13:49:28.999Z</time></trkpt><trkpt lat="44.85368099650975" lon="13.89036190301052"><ele>22.0</ele><time>2026-05-01T13:49:29.999Z</time></trkpt><trkpt lat="44.85359367698778" lon="13.890560290869658"><ele>22.0</ele><time>2026-05-01T13:49:30.999Z</time></trkpt><trkpt lat="44.85350595048916" lon="13.8907608633988"><ele>22.0</ele><time>2026-05-01T13:49:31.999Z</time></trkpt><trkpt lat="44.85341945419923" lon="13.890956837798845"><ele>22.0</ele><time>2026-05-01T13:49:32.999Z</time></trkpt><trkpt lat="44.85333933609405" lon="13.891137779326915"><ele>22.0</ele><time>2026-05-01T13:49:33.999Z</time></trkpt><trkpt lat="44.85326160018494" lon="13.891312353063844"><ele>22.0</ele><time>2026-05-01T13:49:34.999Z</time></trkpt><trkpt lat="44.85318282572074" lon="13.891487965958108"><ele>22.0</ele><time>2026-05-01T13:49:35.999Z</time></trkpt><trkpt lat="44.853109538582196" lon="13.891649046387586"><ele>22.0</ele><time>2026-05-01T13:49:36.999Z</time></trkpt><trkpt lat="44.853040757307156" lon="13.891800639552802"><ele>22.0</ele><time>2026-05-01T13:49:37.999Z</time></trkpt><trkpt lat="44.852988548475814" lon="13.891955911469529"><ele>22.0</ele><time>2026-05-01T13:49:38.999Z</time></trkpt><trkpt lat="44.85291286905176" lon="13.892080054579507"><ele>22.0</ele><time>2026-05-01T13:49:39.999Z</time></trkpt><trkpt lat="44.852863912572886" lon="13.892220608651794"><ele>22.0</ele><time>2026-05-01T13:49:40.999Z</time></trkpt><trkpt lat="44.85280540755932" lon="13.89234031814786"><ele>22.0</ele><time>2026-05-01T13:49:41.999Z</time></trkpt><trkpt lat="44.85273870181766" lon="13.892442734460237"><ele>22.0</ele><time>2026-05-01T13:49:42.999Z</time></trkpt><trkpt lat="44.85268177955486" lon="13.892533862667493"><ele>22.0</ele><time>2026-05-01T13:49:43.999Z</time></trkpt><trkpt lat="44.85263646966458" lon="13.892620762085436"><ele>22.0</ele><time>2026-05-01T13:49:44.999Z</time></trkpt><trkpt lat="44.85256857147996" lon="13.892665201536618"><ele>22.0</ele><time>2026-05-01T13:49:45.999Z</time></trkpt><trkpt lat="44.852490946789636" lon="13.892682054442812"><ele>22.0</ele><time>2026-05-01T13:49:46.999Z</time></trkpt><trkpt lat="44.852407085472805" lon="13.892682344105177"><ele>22.333333333333332</ele><time>2026-05-01T13:49:47.999Z</time></trkpt><trkpt lat="44.85232162735045" lon="13.892704730422196"><ele>22.666666666666664</ele><time>2026-05-01T13:49:48.999Z</time></trkpt><trkpt lat="44.852252349441144" lon="13.892778473029034"><ele>23.0</ele><time>2026-05-01T13:49:49.999Z</time></trkpt><trkpt lat="44.85222067905978" lon="13.892889769075918"><ele>23.333333333333332</ele><time>2026-05-01T13:49:50.999Z</time></trkpt><trkpt lat="44.85223006437743" lon="13.893013745881527"><ele>23.666666666666668</ele><time>2026-05-01T13:49:51.999Z</time></trkpt><trkpt lat="44.85225745689202" lon="13.893137223026951"><ele>24.0</ele><time>2026-05-01T13:49:52.999Z</time></trkpt><trkpt lat="44.85227005669243" lon="13.89327271540119"><ele>24.0</ele><time>2026-05-01T13:49:53.999Z</time></trkpt><trkpt lat="44.85225131206579" lon="13.89341895063423"><ele>24.0</ele><time>2026-05-01T13:49:54.999Z</time></trkpt><trkpt lat="44.85219539968475" lon="13.893563342277625"><ele>24.0</ele><time>2026-05-01T13:49:55.999Z</time></trkpt><trkpt lat="44.852149574154886" lon="13.89373268292665"><ele>24.0</ele><time>2026-05-01T13:49:56.999Z</time></trkpt><trkpt lat="44.85208610010687" lon="13.893892432083007"><ele>24.5</ele><time>2026-05-01T13:49:57.999Z</time></trkpt><trkpt lat="44.852004598979896" lon="13.894027832114785"><ele>25.0</ele><time>2026-05-01T13:49:58.999Z</time></trkpt><trkpt lat="44.85194266437608" lon="13.89417978830137"><ele>25.5</ele><time>2026-05-01T13:49:59.999Z</time></trkpt><trkpt lat="44.85187504209769" lon="13.894334153014515"><ele>26.0</ele><time>2026-05-01T13:50:00.999Z</time></trkpt><trkpt lat="44.851810044734265" lon="13.894487165614201"><ele>26.75</ele><time>2026-05-01T13:50:01.999Z</time></trkpt><trkpt lat="44.85174698274846" lon="13.89464732487834"><ele>27.5</ele><time>2026-05-01T13:50:02.999Z</time></trkpt><trkpt lat="44.851670669250495" lon="13.894800738681525"><ele>28.25</ele><time>2026-05-01T13:50:03.999Z</time></trkpt><trkpt lat="44.85160469298191" lon="13.89496283536929"><ele>29.0</ele><time>2026-05-01T13:50:04.999Z</time></trkpt><trkpt lat="44.85155095390762" lon="13.895139751466385"><ele>29.0</ele><time>2026-05-01T13:50:05.999Z</time></trkpt><trkpt lat="44.85147826787719" lon="13.89530497297069"><ele>29.0</ele><time>2026-05-01T13:50:06.999Z</time></trkpt><trkpt lat="44.85141049821928" lon="13.895471847626121"><ele>29.0</ele><time>2026-05-01T13:50:07.999Z</time></trkpt><trkpt lat="44.85133778687175" lon="13.895644185300053"><ele>29.0</ele><time>2026-05-01T13:50:08.999Z</time></trkpt><trkpt lat="44.85126839885297" lon="13.89581897076824"><ele>29.75</ele><time>2026-05-01T13:50:09.999Z</time></trkpt><trkpt lat="44.8512004922654" lon="13.895999486270911"><ele>30.5</ele><time>2026-05-01T13:50:10.999Z</time></trkpt><trkpt lat="44.85112996490323" lon="13.89617861526073"><ele>31.25</ele><time>2026-05-01T13:50:11.999Z</time></trkpt><trkpt lat="44.851057407048266" lon="13.896361254881517"><ele>32.0</ele><time>2026-05-01T13:50:12.999Z</time></trkpt><trkpt lat="44.85098308078215" lon="13.896547200296812"><ele>32.0</ele><time>2026-05-01T13:50:13.999Z</time></trkpt><trkpt lat="44.85090233812383" lon="13.896732994560553"><ele>32.0</ele><time>2026-05-01T13:50:14.999Z</time></trkpt><trkpt lat="44.850824007688395" lon="13.8969174511178"><ele>32.0</ele><time>2026-05-01T13:50:15.999Z</time></trkpt><trkpt lat="44.850745728388794" lon="13.89710722116457"><ele>33.0</ele><time>2026-05-01T13:50:16.999Z</time></trkpt><trkpt lat="44.850666030372395" lon="13.897297222411742"><ele>34.0</ele><time>2026-05-01T13:50:17.999Z</time></trkpt><trkpt lat="44.85058628544252" lon="13.897484551251491"><ele>35.0</ele><time>2026-05-01T13:50:18.999Z</time></trkpt><trkpt lat="44.850507204725375" lon="13.897671760664917"><ele>35.666666666666664</ele><time>2026-05-01T13:50:19.999Z</time></trkpt><trkpt lat="44.850429653396766" lon="13.897857160936399"><ele>36.333333333333336</ele><time>2026-05-01T13:50:20.999Z</time></trkpt><trkpt lat="44.85035216220293" lon="13.898042496376423"><ele>37.0</ele><time>2026-05-01T13:50:21.999Z</time></trkpt><trkpt lat="44.85027581823542" lon="13.89822436419027"><ele>37.0</ele><time>2026-05-01T13:50:22.999Z</time></trkpt><trkpt lat="44.85019758161858" lon="13.898406827548358"><ele>37.0</ele><time>2026-05-01T13:50:23.999Z</time></trkpt><trkpt lat="44.85011888339237" lon="13.898589810397656"><ele>37.0</ele><time>2026-05-01T13:50:24.999Z</time></trkpt><trkpt lat="44.85004343200288" lon="13.898770152389462"><ele>38.333333333333336</ele><time>2026-05-01T13:50:25.999Z</time></trkpt><trkpt lat="44.849965674444086" lon="13.898955574141164"><ele>39.666666666666664</ele><time>2026-05-01T13:50:26.999Z</time></trkpt><trkpt lat="44.8498899065753" lon="13.899140153964112"><ele>41.0</ele><time>2026-05-01T13:50:27.999Z</time></trkpt><trkpt lat="44.84981516968837" lon="13.899323501003114"><ele>41.0</ele><time>2026-05-01T13:50:28.998Z</time></trkpt><trkpt lat="44.84973727129794" lon="13.899505811798242"><ele>41.0</ele><time>2026-05-01T13:50:29.998Z</time></trkpt><trkpt lat="44.84965990522402" lon="13.89968127595345"><ele>41.0</ele><time>2026-05-01T13:50:30.998Z</time></trkpt><trkpt lat="44.8495813571847" lon="13.899864015833947"><ele>41.0</ele><time>2026-05-01T13:50:31.998Z</time></trkpt><trkpt lat="44.84950357121666" lon="13.90004151348179"><ele>41.0</ele><time>2026-05-01T13:50:32.998Z</time></trkpt><trkpt lat="44.8494260451124" lon="13.900222555677725"><ele>41.0</ele><time>2026-05-01T13:50:33.998Z</time></trkpt><trkpt lat="44.84935425626388" lon="13.900405786427553"><ele>41.0</ele><time>2026-05-01T13:50:34.998Z</time></trkpt><trkpt lat="44.84928490394972" lon="13.900596405605773"><ele>41.75</ele><time>2026-05-01T13:50:35.998Z</time></trkpt><trkpt lat="44.84922292096771" lon="13.900773763283558"><ele>42.5</ele><time>2026-05-01T13:50:36.998Z</time></trkpt><trkpt lat="44.84916635876667" lon="13.900947501919488"><ele>43.25</ele><time>2026-05-01T13:50:37.998Z</time></trkpt><trkpt lat="44.84911319374872" lon="13.901123271705352"><ele>44.0</ele><time>2026-05-01T13:50:38.999Z</time></trkpt><trkpt lat="44.849060768782834" lon="13.90128952446378"><ele>44.0</ele><time>2026-05-01T13:50:39.999Z</time></trkpt><trkpt lat="44.84901346618967" lon="13.901444471586482"><ele>44.0</ele><time>2026-05-01T13:50:40.999Z</time></trkpt><trkpt lat="44.848961690964586" lon="13.901582316643625"><ele>44.0</ele><time>2026-05-01T13:50:41.999Z</time></trkpt><trkpt lat="44.8489111100367" lon="13.901704441466268"><ele>44.0</ele><time>2026-05-01T13:50:42.999Z</time></trkpt><trkpt lat="44.8488551395466" lon="13.90180550965441"><ele>44.0</ele><time>2026-05-01T13:50:43.999Z</time></trkpt><trkpt lat="44.848779032260886" lon="13.901881312990357"><ele>43.800000000000004</ele><time>2026-05-01T13:50:44.999Z</time></trkpt><trkpt lat="44.84868179353468" lon="13.901937301741032"><ele>43.6</ele><time>2026-05-01T13:50:45.999Z</time></trkpt><trkpt lat="44.848590633664834" lon="13.902011159605705"><ele>43.4</ele><time>2026-05-01T13:50:46.999Z</time></trkpt><trkpt lat="44.84853302607672" lon="13.902128045049956"><ele>43.2</ele><time>2026-05-01T13:50:47.999Z</time></trkpt><trkpt lat="44.848509431407976" lon="13.902270853456235"><ele>43.0</ele><time>2026-05-01T13:50:48.999Z</time></trkpt><trkpt lat="44.84852477192818" lon="13.902407651099997"><ele>43.0</ele><time>2026-05-01T13:50:49.999Z</time></trkpt><trkpt lat="44.84856548291842" lon="13.902550057771496"><ele>43.0</ele><time>2026-05-01T13:50:50.999Z</time></trkpt><trkpt lat="44.848606316368645" lon="13.902696485682474"><ele>43.0</ele><time>2026-05-01T13:50:51.999Z</time></trkpt><trkpt lat="44.84860504818955" lon="13.902859660767334"><ele>43.0</ele><time>2026-05-01T13:50:52.999Z</time></trkpt><trkpt lat="44.84856446415682" lon="13.903032644160138"><ele>43.0</ele><time>2026-05-01T13:50:53.999Z</time></trkpt><trkpt lat="44.84850674404601" lon="13.90320827100011"><ele>43.0</ele><time>2026-05-01T13:50:54.999Z</time></trkpt><trkpt lat="44.8484550156117" lon="13.903382794884825"><ele>43.0</ele><time>2026-05-01T13:50:55.999Z</time></trkpt><trkpt lat="44.848410862277575" lon="13.90354864282785"><ele>43.0</ele><time>2026-05-01T13:50:56.999Z</time></trkpt><trkpt lat="44.84836432555838" lon="13.903722158641099"><ele>42.5</ele><time>2026-05-01T13:50:57.999Z</time></trkpt><trkpt lat="44.84831308889586" lon="13.903903084605432"><ele>42.0</ele><time>2026-05-01T13:50:58.999Z</time></trkpt><trkpt lat="44.8482617422074" lon="13.90409280824782"><ele>41.5</ele><time>2026-05-01T13:50:59.999Z</time></trkpt><trkpt lat="44.84820476429476" lon="13.904287412180919"><ele>41.0</ele><time>2026-05-01T13:51:00.999Z</time></trkpt><trkpt lat="44.84816070463517" lon="13.904493186374939"><ele>40.666666666666664</ele><time>2026-05-01T13:51:01.999Z</time></trkpt><trkpt lat="44.84810820038635" lon="13.904691278166798"><ele>40.333333333333336</ele><time>2026-05-01T13:51:02.999Z</time></trkpt><trkpt lat="44.84805526010884" lon="13.904903601371316"><ele>40.0</ele><time>2026-05-01T13:51:03.999Z</time></trkpt><trkpt lat="44.84800563846896" lon="13.905122255268584"><ele>39.333333333333336</ele><time>2026-05-01T13:51:04.999Z</time></trkpt><trkpt lat="44.84795704535596" lon="13.905342534090403"><ele>38.666666666666664</ele><time>2026-05-01T13:51:05.999Z</time></trkpt><trkpt lat="44.8479065738811" lon="13.905564897311393"><ele>38.0</ele><time>2026-05-01T13:51:06.999Z</time></trkpt><trkpt lat="44.84786021443754" lon="13.905793543076038"><ele>38.0</ele><time>2026-05-01T13:51:07.999Z</time></trkpt><trkpt lat="44.84781194359056" lon="13.906023501325457"><ele>38.0</ele><time>2026-05-01T13:51:08.999Z</time></trkpt><trkpt lat="44.84776103649757" lon="13.906254992540077"><ele>38.0</ele><time>2026-05-01T13:51:09.999Z</time></trkpt><trkpt lat="44.84771011810629" lon="13.906473956330144"><ele>38.0</ele><time>2026-05-01T13:51:10.999Z</time></trkpt><trkpt lat="44.84765910476471" lon="13.906701150737444"><ele>38.0</ele><time>2026-05-01T13:51:11.999Z</time></trkpt><trkpt lat="44.84761027410748" lon="13.906924318070873"><ele>38.0</ele><time>2026-05-01T13:51:12.999Z</time></trkpt><trkpt lat="44.84755957681378" lon="13.907156972386252"><ele>37.33333333333333</ele><time>2026-05-01T13:51:13.999Z</time></trkpt><trkpt lat="44.84751156760428" lon="13.907389861530836"><ele>36.666666666666664</ele><time>2026-05-01T13:51:14.999Z</time></trkpt><trkpt lat="44.84746031421492" lon="13.90762527534204"><ele>36.0</ele><time>2026-05-01T13:51:15.999Z</time></trkpt><trkpt lat="44.84740698897752" lon="13.90786321542718"><ele>36.0</ele><time>2026-05-01T13:51:16.999Z</time></trkpt><trkpt lat="44.847359666998265" lon="13.908101473478125"><ele>36.0</ele><time>2026-05-01T13:51:17.999Z</time></trkpt><trkpt lat="44.847306222911115" lon="13.90832154515101"><ele>36.0</ele><time>2026-05-01T13:51:18.999Z</time></trkpt><trkpt lat="44.84724692032366" lon="13.908534913740088"><ele>36.0</ele><time>2026-05-01T13:51:19.999Z</time></trkpt><trkpt lat="44.8471985606338" lon="13.90881882601979"><ele>36.0</ele><time>2026-05-01T13:51:20.999Z</time></trkpt><trkpt lat="44.84714595510781" lon="13.909060581485459"><ele>36.0</ele><time>2026-05-01T13:51:21.999Z</time></trkpt><trkpt lat="44.84709331177842" lon="13.909306255725813"><ele>36.666666666666664</ele><time>2026-05-01T13:51:22.999Z</time></trkpt><trkpt lat="44.84703707967669" lon="13.909546646495377"><ele>37.33333333333333</ele><time>2026-05-01T13:51:23.999Z</time></trkpt><trkpt lat="44.84697938299244" lon="13.909788976810054"><ele>38.0</ele><time>2026-05-01T13:51:24.999Z</time></trkpt><trkpt lat="44.84691254104922" lon="13.91002265205171"><ele>38.666666666666664</ele><time>2026-05-01T13:51:25.999Z</time></trkpt><trkpt lat="44.84683555688908" lon="13.910252815351509"><ele>39.333333333333336</ele><time>2026-05-01T13:51:26.999Z</time></trkpt><trkpt lat="44.846748386330326" lon="13.910481055693081"><ele>40.0</ele><time>2026-05-01T13:51:27.999Z</time></trkpt><trkpt lat="44.846657838343" lon="13.910701460063496"><ele>41.0</ele><time>2026-05-01T13:51:28.999Z</time></trkpt><trkpt lat="44.84656702387381" lon="13.910920696493434"><ele>42.0</ele><time>2026-05-01T13:51:29.999Z</time></trkpt><trkpt lat="44.846477488932145" lon="13.911138859836765"><ele>43.0</ele><time>2026-05-01T13:51:30.999Z</time></trkpt><trkpt lat="44.84638086528354" lon="13.91135454033107"><ele>43.0</ele><time>2026-05-01T13:51:31.999Z</time></trkpt><trkpt lat="44.84628600926873" lon="13.911568872860924"><ele>43.0</ele><time>2026-05-01T13:51:32.999Z</time></trkpt><trkpt lat="44.8461906238978" lon="13.91178096523276"><ele>43.0</ele><time>2026-05-01T13:51:33.999Z</time></trkpt><trkpt lat="44.84606278006172" lon="13.911964335417236"><ele>43.333333333333336</ele><time>2026-05-01T13:51:34.999Z</time></trkpt><trkpt lat="44.84593998911057" lon="13.9121501942706"><ele>43.666666666666664</ele><time>2026-05-01T13:51:35.999Z</time></trkpt><trkpt lat="44.84580120367719" lon="13.912323710179653"><ele>44.0</ele><time>2026-05-01T13:51:36.999Z</time></trkpt><trkpt lat="44.84565528066731" lon="13.912491887232553"><ele>43.33333333333333</ele><time>2026-05-01T13:51:37.999Z</time></trkpt><trkpt lat="44.84549955894621" lon="13.912644586164484"><ele>42.666666666666664</ele><time>2026-05-01T13:51:38.999Z</time></trkpt><trkpt lat="44.84533668274081" lon="13.9127940514461"><ele>42.0</ele><time>2026-05-01T13:51:39.999Z</time></trkpt><trkpt lat="44.84517346553114" lon="13.912937638196349"><ele>43.333333333333336</ele><time>2026-05-01T13:51:40.999Z</time></trkpt><trkpt lat="44.84501851534556" lon="13.913071224674448"><ele>44.66666666666667</ele><time>2026-05-01T13:51:41.999Z</time></trkpt><trkpt lat="44.844870429195204" lon="13.91322202855755"><ele>46.0</ele><time>2026-05-01T13:51:42.999Z</time></trkpt><trkpt lat="44.84471470707933" lon="13.913349693936912"><ele>44.66666666666667</ele><time>2026-05-01T13:51:43.999Z</time></trkpt><trkpt lat="44.84455972627754" lon="13.913488343028115"><ele>43.333333333333336</ele><time>2026-05-01T13:51:44.999Z</time></trkpt><trkpt lat="44.84440557921541" lon="13.913625407369016"><ele>42.0</ele><time>2026-05-01T13:51:45.999Z</time></trkpt><trkpt lat="44.844255217836384" lon="13.913763788639702"><ele>42.0</ele><time>2026-05-01T13:51:46.999Z</time></trkpt><trkpt lat="44.84410838876347" lon="13.913908241141268"><ele>42.0</ele><time>2026-05-01T13:51:47.999Z</time></trkpt><trkpt lat="44.84396230333922" lon="13.914058177598363"><ele>42.0</ele><time>2026-05-01T13:51:48.999Z</time></trkpt><trkpt lat="44.8438177314279" lon="13.914215556439554"><ele>40.0</ele><time>2026-05-01T13:51:49.999Z</time></trkpt><trkpt lat="44.84367026435781" lon="13.914371065946586"><ele>38.0</ele><time>2026-05-01T13:51:50.999Z</time></trkpt><trkpt lat="44.84352328471594" lon="13.914532188874528"><ele>36.0</ele><time>2026-05-01T13:51:51.999Z</time></trkpt><trkpt lat="44.84337838584748" lon="13.914695999686897"><ele>36.0</ele><time>2026-05-01T13:51:52.999Z</time></trkpt><trkpt lat="44.84322869701815" lon="13.914858628236715"><ele>36.0</ele><time>2026-05-01T13:51:53.999Z</time></trkpt><trkpt lat="44.84307815998419" lon="13.915019317575227"><ele>36.0</ele><time>2026-05-01T13:51:54.999Z</time></trkpt><trkpt lat="44.84293167613814" lon="13.915179392259931"><ele>36.0</ele><time>2026-05-01T13:51:55.999Z</time></trkpt><trkpt lat="44.842782577037674" lon="13.915343591506254"><ele>36.0</ele><time>2026-05-01T13:51:56.999Z</time></trkpt><trkpt lat="44.84263423226143" lon="13.91550599834568"><ele>36.0</ele><time>2026-05-01T13:51:57.999Z</time></trkpt><trkpt lat="44.842484464578966" lon="13.915665581886662"><ele>36.0</ele><time>2026-05-01T13:51:58.999Z</time></trkpt><trkpt lat="44.842333084673406" lon="13.915825515795653"><ele>36.0</ele><time>2026-05-01T13:51:59.999Z</time></trkpt><trkpt lat="44.84218321788024" lon="13.915989494828775"><ele>36.0</ele><time>2026-05-01T13:52:00.999Z</time></trkpt><trkpt lat="44.84203282254589" lon="13.916150367826605"><ele>35.0</ele><time>2026-05-01T13:52:01.999Z</time></trkpt><trkpt lat="44.84187841040614" lon="13.91631044973507"><ele>34.0</ele><time>2026-05-01T13:52:02.999Z</time></trkpt><trkpt lat="44.84172492894329" lon="13.916469301243307"><ele>33.0</ele><time>2026-05-01T13:52:03.999Z</time></trkpt><trkpt lat="44.8415705044704" lon="13.916624367530515"><ele>33.0</ele><time>2026-05-01T13:52:04.999Z</time></trkpt><trkpt lat="44.84141674021431" lon="13.916787207733556"><ele>33.0</ele><time>2026-05-01T13:52:05.999Z</time></trkpt><trkpt lat="44.84125903456866" lon="13.916943230701097"><ele>33.0</ele><time>2026-05-01T13:52:06.999Z</time></trkpt><trkpt lat="44.84110289875352" lon="13.917099865435915"><ele>31.666666666666664</ele><time>2026-05-01T13:52:07.999Z</time></trkpt><trkpt lat="44.84094588509213" lon="13.917256532317255"><ele>30.333333333333332</ele><time>2026-05-01T13:52:08.999Z</time></trkpt><trkpt lat="44.84078783626012" lon="13.917411264841347"><ele>29.0</ele><time>2026-05-01T13:52:09.999Z</time></trkpt><trkpt lat="44.840630402643995" lon="13.917567429693309"><ele>29.333333333333332</ele><time>2026-05-01T13:52:10.999Z</time></trkpt><trkpt lat="44.84047154750849" lon="13.917723236880919"><ele>29.666666666666664</ele><time>2026-05-01T13:52:11.999Z</time></trkpt><trkpt lat="44.84031400990192" lon="13.917882810848273"><ele>30.0</ele><time>2026-05-01T13:52:12.999Z</time></trkpt><trkpt lat="44.84015603283581" lon="13.918034002057391"><ele>30.0</ele><time>2026-05-01T13:52:13.999Z</time></trkpt><trkpt lat="44.839994971293514" lon="13.918193205551068"><ele>30.0</ele><time>2026-05-01T13:52:14.999Z</time></trkpt><trkpt lat="44.83983300720117" lon="13.918337667215887"><ele>30.0</ele><time>2026-05-01T13:52:15.999Z</time></trkpt><trkpt lat="44.83966799628058" lon="13.918478816629484"><ele>29.333333333333336</ele><time>2026-05-01T13:52:16.999Z</time></trkpt><trkpt lat="44.839497309568024" lon="13.91861499161226"><ele>28.666666666666668</ele><time>2026-05-01T13:52:17.998Z</time></trkpt><trkpt lat="44.83932623730455" lon="13.91874697674671"><ele>28.0</ele><time>2026-05-01T13:52:18.998Z</time></trkpt><trkpt lat="44.8391563997582" lon="13.918877561066807"><ele>26.666666666666668</ele><time>2026-05-01T13:52:19.998Z</time></trkpt><trkpt lat="44.83898761158952" lon="13.919007393399822"><ele>25.333333333333336</ele><time>2026-05-01T13:52:20.998Z</time></trkpt><trkpt lat="44.83882157899756" lon="13.91913923372216"><ele>24.0</ele><time>2026-05-01T13:52:21.998Z</time></trkpt><trkpt lat="44.83864841547692" lon="13.919267210893864"><ele>24.0</ele><time>2026-05-01T13:52:22.998Z</time></trkpt><trkpt lat="44.83847803796724" lon="13.919392013368823"><ele>24.0</ele><time>2026-05-01T13:52:23.998Z</time></trkpt><trkpt lat="44.8383082517636" lon="13.919518093916597"><ele>24.0</ele><time>2026-05-01T13:52:24.998Z</time></trkpt><trkpt lat="44.838143880499686" lon="13.9196400802122"><ele>24.666666666666664</ele><time>2026-05-01T13:52:25.998Z</time></trkpt><trkpt lat="44.8379849868367" lon="13.919765342381144"><ele>25.333333333333332</ele><time>2026-05-01T13:52:26.998Z</time></trkpt><trkpt lat="44.83783654784078" lon="13.919877838706926"><ele>26.0</ele><time>2026-05-01T13:52:27.998Z</time></trkpt><trkpt lat="44.837686156862155" lon="13.919991144769556"><ele>27.333333333333332</ele><time>2026-05-01T13:52:28.998Z</time></trkpt><trkpt lat="44.837535372481675" lon="13.920101907716171"><ele>28.666666666666664</ele><time>2026-05-01T13:52:29.998Z</time></trkpt><trkpt lat="44.837391990454165" lon="13.920211731688527"><ele>30.0</ele><time>2026-05-01T13:52:30.998Z</time></trkpt><trkpt lat="44.83725046624007" lon="13.920326809210149"><ele>30.0</ele><time>2026-05-01T13:52:31.998Z</time></trkpt><trkpt lat="44.8371009796039" lon="13.9204209960264"><ele>30.0</ele><time>2026-05-01T13:52:32.998Z</time></trkpt><trkpt lat="44.83696860630671" lon="13.92054867238504"><ele>30.0</ele><time>2026-05-01T13:52:33.998Z</time></trkpt><trkpt lat="44.836832476866306" lon="13.920652416864764"><ele>30.0</ele><time>2026-05-01T13:52:34.998Z</time></trkpt><trkpt lat="44.83670394122234" lon="13.920756917687369"><ele>30.0</ele><time>2026-05-01T13:52:35.998Z</time></trkpt><trkpt lat="44.83657689410421" lon="13.920859344044791"><ele>30.0</ele><time>2026-05-01T13:52:36.998Z</time></trkpt><trkpt lat="44.8364455982624" lon="13.920964367811706"><ele>30.0</ele><time>2026-05-01T13:52:37.998Z</time></trkpt><trkpt lat="44.83631576242273" lon="13.921066039097239"><ele>30.0</ele><time>2026-05-01T13:52:38.998Z</time></trkpt><trkpt lat="44.83618629452524" lon="13.92117205850777"><ele>30.0</ele><time>2026-05-01T13:52:39.998Z</time></trkpt><trkpt lat="44.83605608509036" lon="13.921277037328998"><ele>30.0</ele><time>2026-05-01T13:52:40.998Z</time></trkpt><trkpt lat="44.83592333027268" lon="13.921383335680096"><ele>29.75</ele><time>2026-05-01T13:52:41.998Z</time></trkpt><trkpt lat="44.83578851853252" lon="13.921488440837201"><ele>29.5</ele><time>2026-05-01T13:52:42.998Z</time></trkpt><trkpt lat="44.835659143467055" lon="13.921597304926298"><ele>29.25</ele><time>2026-05-01T13:52:43.998Z</time></trkpt><trkpt lat="44.83553322782569" lon="13.921694756901912"><ele>29.0</ele><time>2026-05-01T13:52:44.999Z</time></trkpt><trkpt lat="44.83540966406601" lon="13.921787772844066"><ele>29.0</ele><time>2026-05-01T13:52:45.999Z</time></trkpt><trkpt lat="44.83527757346564" lon="13.921879893885949"><ele>29.0</ele><time>2026-05-01T13:52:46.999Z</time></trkpt><trkpt lat="44.83514713772778" lon="13.921968080000333"><ele>29.0</ele><time>2026-05-01T13:52:47.999Z</time></trkpt><trkpt lat="44.83501880690691" lon="13.922054924410864"><ele>29.0</ele><time>2026-05-01T13:52:48.999Z</time></trkpt><trkpt lat="44.834894594212116" lon="13.92213000570831"><ele>28.75</ele><time>2026-05-01T13:52:49.999Z</time></trkpt><trkpt lat="44.83477237377536" lon="13.922213200585125"><ele>28.5</ele><time>2026-05-01T13:52:50.999Z</time></trkpt><trkpt lat="44.834641869969914" lon="13.922292186244261"><ele>28.25</ele><time>2026-05-01T13:52:51.999Z</time></trkpt><trkpt lat="44.834514353981234" lon="13.922376423749546"><ele>28.0</ele><time>2026-05-01T13:52:52.999Z</time></trkpt><trkpt lat="44.83438553258019" lon="13.922463295961562"><ele>28.0</ele><time>2026-05-01T13:52:53.999Z</time></trkpt><trkpt lat="44.83425749989054" lon="13.922554666406393"><ele>28.0</ele><time>2026-05-01T13:52:54.999Z</time></trkpt><trkpt lat="44.834129399314016" lon="13.922650826941776"><ele>28.0</ele><time>2026-05-01T13:52:55.999Z</time></trkpt><trkpt lat="44.834001529085405" lon="13.922749188473764"><ele>28.0</ele><time>2026-05-01T13:52:56.999Z</time></trkpt><trkpt lat="44.83387353273659" lon="13.922849761488424"><ele>28.0</ele><time>2026-05-01T13:52:57.999Z</time></trkpt><trkpt lat="44.83374369570731" lon="13.922948813743458"><ele>28.0</ele><time>2026-05-01T13:52:58.999Z</time></trkpt><trkpt lat="44.8336087377668" lon="13.923030126261283"><ele>28.0</ele><time>2026-05-01T13:52:59.999Z</time></trkpt><trkpt lat="44.833483572051676" lon="13.923133930712904"><ele>28.0</ele><time>2026-05-01T13:53:00.999Z</time></trkpt><trkpt lat="44.833369708490665" lon="13.923259794290956"><ele>27.5</ele><time>2026-05-01T13:53:01.999Z</time></trkpt><trkpt lat="44.83324467830337" lon="13.923364486836094"><ele>27.0</ele><time>2026-05-01T13:53:02.999Z</time></trkpt><trkpt lat="44.8331199247968" lon="13.923472232616849"><ele>26.5</ele><time>2026-05-01T13:53:03.999Z</time></trkpt><trkpt lat="44.83299547824829" lon="13.923583427682065"><ele>26.0</ele><time>2026-05-01T13:53:04.999Z</time></trkpt><trkpt lat="44.83287624280918" lon="13.923695973399475"><ele>26.0</ele><time>2026-05-01T13:53:05.999Z</time></trkpt><trkpt lat="44.83274269024609" lon="13.923822202294138"><ele>26.0</ele><time>2026-05-01T13:53:06.999Z</time></trkpt><trkpt lat="44.83261407088041" lon="13.923950304575534"><ele>26.0</ele><time>2026-05-01T13:53:07.999Z</time></trkpt><trkpt lat="44.83249049336904" lon="13.924087347462278"><ele>26.333333333333332</ele><time>2026-05-01T13:53:08.999Z</time></trkpt><trkpt lat="44.83237197671435" lon="13.924242358494203"><ele>26.666666666666664</ele><time>2026-05-01T13:53:09.999Z</time></trkpt><trkpt lat="44.83226151666441" lon="13.924408835938742"><ele>27.0</ele><time>2026-05-01T13:53:10.999Z</time></trkpt><trkpt lat="44.83215516472797" lon="13.924587242444538"><ele>27.0</ele><time>2026-05-01T13:53:11.999Z</time></trkpt><trkpt lat="44.83205720051931" lon="13.924773655484367"><ele>27.0</ele><time>2026-05-01T13:53:12.999Z</time></trkpt><trkpt lat="44.83196817640154" lon="13.924968961341742"><ele>27.0</ele><time>2026-05-01T13:53:13.999Z</time></trkpt><trkpt lat="44.83188894882109" lon="13.925161080016133"><ele>28.0</ele><time>2026-05-01T13:53:14.999Z</time></trkpt><trkpt lat="44.83182156309436" lon="13.925359690997796"><ele>29.0</ele><time>2026-05-01T13:53:15.999Z</time></trkpt><trkpt lat="44.831755568521075" lon="13.925567603006451"><ele>30.0</ele><time>2026-05-01T13:53:16.999Z</time></trkpt><trkpt lat="44.83168749643464" lon="13.92578162890075"><ele>27.666666666666668</ele><time>2026-05-01T13:53:17.999Z</time></trkpt><trkpt lat="44.8316155860994" lon="13.926000016492624"><ele>25.333333333333336</ele><time>2026-05-01T13:53:18.999Z</time></trkpt><trkpt lat="44.83154058269691" lon="13.926217232067348"><ele>23.0</ele><time>2026-05-01T13:53:19.999Z</time></trkpt><trkpt lat="44.83147092111826" lon="13.926445415312214"><ele>23.0</ele><time>2026-05-01T13:53:20.999Z</time></trkpt><trkpt lat="44.83137466907042" lon="13.926655252261723"><ele>23.0</ele><time>2026-05-01T13:53:21.999Z</time></trkpt><trkpt lat="44.831285756287244" lon="13.926875416173896"><ele>23.0</ele><time>2026-05-01T13:53:22.999Z</time></trkpt><trkpt lat="44.83119623779514" lon="13.927100573095302"><ele>22.666666666666668</ele><time>2026-05-01T13:53:23.999Z</time></trkpt><trkpt lat="44.83108120522661" lon="13.927301505664424"><ele>22.333333333333332</ele><time>2026-05-01T13:53:24.999Z</time></trkpt><trkpt lat="44.83095171081814" lon="13.927495239734325"><ele>22.0</ele><time>2026-05-01T13:53:25.999Z</time></trkpt><trkpt lat="44.83081470858785" lon="13.927671201996063"><ele>23.0</ele><time>2026-05-01T13:53:26.999Z</time></trkpt><trkpt lat="44.830666679813454" lon="13.927827560566564"><ele>24.0</ele><time>2026-05-01T13:53:27.999Z</time></trkpt><trkpt lat="44.83050106393279" lon="13.927948606636976"><ele>25.0</ele><time>2026-05-01T13:53:28.999Z</time></trkpt><trkpt lat="44.830339577678224" lon="13.92806208422053"><ele>25.0</ele><time>2026-05-01T13:53:29.999Z</time></trkpt><trkpt lat="44.83017187519455" lon="13.928158926293055"><ele>25.0</ele><time>2026-05-01T13:53:30.999Z</time></trkpt><trkpt lat="44.83001031117629" lon="13.928259827216209"><ele>25.0</ele><time>2026-05-01T13:53:31.999Z</time></trkpt><trkpt lat="44.82985220909439" lon="13.928325237392603"><ele>23.0</ele><time>2026-05-01T13:53:32.999Z</time></trkpt><trkpt lat="44.82970575367348" lon="13.92838481910829"><ele>21.0</ele><time>2026-05-01T13:53:33.999Z</time></trkpt><trkpt lat="44.82955566602955" lon="13.928443923693035"><ele>19.0</ele><time>2026-05-01T13:53:34.999Z</time></trkpt><trkpt lat="44.829401075121446" lon="13.92850568663484"><ele>19.0</ele><time>2026-05-01T13:53:35.999Z</time></trkpt><trkpt lat="44.82924365916215" lon="13.92856668396789"><ele>19.0</ele><time>2026-05-01T13:53:36.999Z</time></trkpt><trkpt lat="44.829086931293176" lon="13.928628827635746"><ele>19.0</ele><time>2026-05-01T13:53:37.999Z</time></trkpt><trkpt lat="44.82893238226842" lon="13.928686282880989"><ele>19.0</ele><time>2026-05-01T13:53:38.999Z</time></trkpt><trkpt lat="44.82878331816733" lon="13.928743179238648"><ele>19.0</ele><time>2026-05-01T13:53:39.999Z</time></trkpt><trkpt lat="44.8286370509478" lon="13.92879779520901"><ele>19.0</ele><time>2026-05-01T13:53:40.999Z</time></trkpt><trkpt lat="44.82849835988962" lon="13.928852418158039"><ele>19.75</ele><time>2026-05-01T13:53:41.999Z</time></trkpt><trkpt lat="44.828367977716816" lon="13.928905170405706"><ele>20.5</ele><time>2026-05-01T13:53:42.999Z</time></trkpt><trkpt lat="44.82824441616912" lon="13.928956118617744"><ele>21.25</ele><time>2026-05-01T13:53:43.999Z</time></trkpt><trkpt lat="44.8281207523265" lon="13.928984144041278"><ele>22.0</ele><time>2026-05-01T13:53:44.999Z</time></trkpt><trkpt lat="44.827999156676285" lon="13.929055778107138"><ele>22.0</ele><time>2026-05-01T13:53:45.999Z</time></trkpt><trkpt lat="44.827880584421095" lon="13.929102295899455"><ele>22.0</ele><time>2026-05-01T13:53:46.999Z</time></trkpt><trkpt lat="44.827759035543494" lon="13.929161271795367"><ele>22.0</ele><time>2026-05-01T13:53:47.999Z</time></trkpt><trkpt lat="44.82763679167161" lon="13.929230167855323"><ele>22.0</ele><time>2026-05-01T13:53:48.999Z</time></trkpt><trkpt lat="44.82751429628579" lon="13.929305752018639"><ele>21.0</ele><time>2026-05-01T13:53:49.999Z</time></trkpt><trkpt lat="44.82739639629455" lon="13.929391569699193"><ele>20.0</ele><time>2026-05-01T13:53:50.999Z</time></trkpt><trkpt lat="44.82728298225716" lon="13.929482433034439"><ele>19.0</ele><time>2026-05-01T13:53:51.999Z</time></trkpt><trkpt lat="44.827181699063374" lon="13.929575745393963"><ele>18.0</ele><time>2026-05-01T13:53:52.999Z</time></trkpt><trkpt lat="44.82709255108804" lon="13.929669381583711"><ele>18.0</ele><time>2026-05-01T13:53:53.999Z</time></trkpt><trkpt lat="44.82700567215944" lon="13.929764181757752"><ele>18.0</ele><time>2026-05-01T13:53:54.999Z</time></trkpt><trkpt lat="44.82691956491715" lon="13.929868217861483"><ele>18.0</ele><time>2026-05-01T13:53:55.999Z</time></trkpt><trkpt lat="44.82684252027357" lon="13.929965248719173"><ele>18.0</ele><time>2026-05-01T13:53:56.999Z</time></trkpt><trkpt lat="44.8267670415644" lon="13.930057916256331"><ele>18.0</ele><time>2026-05-01T13:53:57.999Z</time></trkpt><trkpt lat="44.82668992946132" lon="13.930152647636218"><ele>18.0</ele><time>2026-05-01T13:53:58.999Z</time></trkpt><trkpt lat="44.82661254210983" lon="13.930250624044515"><ele>18.0</ele><time>2026-05-01T13:53:59.999Z</time></trkpt><trkpt lat="44.826534710321624" lon="13.930347060475864"><ele>18.0</ele><time>2026-05-01T13:54:00.999Z</time></trkpt><trkpt lat="44.82646309077664" lon="13.930433245536083"><ele>18.0</ele><time>2026-05-01T13:54:01.999Z</time></trkpt><trkpt lat="44.826390227449984" lon="13.930516243067945"><ele>18.0</ele><time>2026-05-01T13:54:02.999Z</time></trkpt><trkpt lat="44.82634591557322" lon="13.930636613749627"><ele>18.0</ele><time>2026-05-01T13:54:03.999Z</time></trkpt><trkpt lat="44.82628144693742" lon="13.930726937741547"><ele>18.0</ele><time>2026-05-01T13:54:04.999Z</time></trkpt><trkpt lat="44.826207125143775" lon="13.93081180715167"><ele>18.0</ele><time>2026-05-01T13:54:05.999Z</time></trkpt><trkpt lat="44.826121808148926" lon="13.93089699459443"><ele>18.0</ele><time>2026-05-01T13:54:06.999Z</time></trkpt><trkpt lat="44.82604603192321" lon="13.930984554532209"><ele>18.0</ele><time>2026-05-01T13:54:07.999Z</time></trkpt><trkpt lat="44.82596852849405" lon="13.931089382949828"><ele>17.8</ele><time>2026-05-01T13:54:08.999Z</time></trkpt><trkpt lat="44.82591450976201" lon="13.931182770463145"><ele>17.6</ele><time>2026-05-01T13:54:09.999Z</time></trkpt><trkpt lat="44.825826590788694" lon="13.931255779751815"><ele>17.4</ele><time>2026-05-01T13:54:10.999Z</time></trkpt><trkpt lat="44.82573994395546" lon="13.931346145788496"><ele>17.2</ele><time>2026-05-01T13:54:11.999Z</time></trkpt><trkpt lat="44.825657021926" lon="13.931436542110548"><ele>17.0</ele><time>2026-05-01T13:54:12.999Z</time></trkpt><trkpt lat="44.82559069238244" lon="13.931534188372446"><ele>17.0</ele><time>2026-05-01T13:54:13.999Z</time></trkpt><trkpt lat="44.82551796942149" lon="13.931614321234987"><ele>17.0</ele><time>2026-05-01T13:54:14.999Z</time></trkpt><trkpt lat="44.825447935415376" lon="13.931697841185004"><ele>17.0</ele><time>2026-05-01T13:54:15.999Z</time></trkpt><trkpt lat="44.82537696030228" lon="13.931779924194384"><ele>17.0</ele><time>2026-05-01T13:54:16.999Z</time></trkpt><trkpt lat="44.82530295441654" lon="13.931855670841788"><ele>17.0</ele><time>2026-05-01T13:54:17.999Z</time></trkpt><trkpt lat="44.82523667810911" lon="13.931927506752883"><ele>16.833333333333336</ele><time>2026-05-01T13:54:18.999Z</time></trkpt><trkpt lat="44.82517428748828" lon="13.9320019644339"><ele>16.666666666666668</ele><time>2026-05-01T13:54:19.999Z</time></trkpt><trkpt lat="44.82510566805486" lon="13.932067583245038"><ele>16.5</ele><time>2026-05-01T13:54:20.998Z</time></trkpt><trkpt lat="44.825041807327445" lon="13.93213639948316"><ele>16.333333333333332</ele><time>2026-05-01T13:54:21.998Z</time></trkpt><trkpt lat="44.824976485717364" lon="13.932208364535157"><ele>16.166666666666664</ele><time>2026-05-01T13:54:22.998Z</time></trkpt><trkpt lat="44.824909921660925" lon="13.932279441925234"><ele>16.0</ele><time>2026-05-01T13:54:23.998Z</time></trkpt><trkpt lat="44.82484305049032" lon="13.932355328085626"><ele>16.0</ele><time>2026-05-01T13:54:24.998Z</time></trkpt><trkpt lat="44.82477949083869" lon="13.932424098867273"><ele>16.0</ele><time>2026-05-01T13:54:25.998Z</time></trkpt><trkpt lat="44.824714621610504" lon="13.932457929474094"><ele>16.0</ele><time>2026-05-01T13:54:26.998Z</time></trkpt><trkpt lat="44.824622236164366" lon="13.932539428555542"><ele>16.0</ele><time>2026-05-01T13:54:28.998Z</time></trkpt><trkpt lat="44.82454707519057" lon="13.932604333455068"><ele>16.0</ele><time>2026-05-01T13:54:38.998Z</time></trkpt><trkpt lat="44.8244488004599" lon="13.932696817081121"><ele>15.999999999999998</ele><time>2026-05-01T13:54:40.998Z</time></trkpt><trkpt lat="44.824401524718354" lon="13.9327648410687"><ele>16.0</ele><time>2026-05-01T13:54:41.998Z</time></trkpt><trkpt lat="44.82432749642985" lon="13.932812082100078"><ele>16.0</ele><time>2026-05-01T13:54:42.998Z</time></trkpt><trkpt lat="44.824260421962336" lon="13.932877063972033"><ele>16.0</ele><time>2026-05-01T13:54:43.998Z</time></trkpt><trkpt lat="44.82418742207801" lon="13.932948343144984"><ele>15.999999999999998</ele><time>2026-05-01T13:54:44.998Z</time></trkpt><trkpt lat="44.82412345193898" lon="13.933037163253278"><ele>16.0</ele><time>2026-05-01T13:54:45.998Z</time></trkpt><trkpt lat="44.824045985530574" lon="13.933087145414317"><ele>15.666666666666666</ele><time>2026-05-01T13:54:46.998Z</time></trkpt><trkpt lat="44.82398353929843" lon="13.93314830099375"><ele>15.333333333333332</ele><time>2026-05-01T13:54:47.998Z</time></trkpt><trkpt lat="44.82392490207761" lon="13.933222703024256"><ele>15.0</ele><time>2026-05-01T13:54:48.998Z</time></trkpt><trkpt lat="44.82388586678851" lon="13.93330695431797"><ele>14.666666666666668</ele><time>2026-05-01T13:54:49.998Z</time></trkpt><trkpt lat="44.82386083577841" lon="13.933410742015191"><ele>14.333333333333334</ele><time>2026-05-01T13:54:50.999Z</time></trkpt><trkpt lat="44.82385358846619" lon="13.933515504071048"><ele>14.0</ele><time>2026-05-01T13:54:51.999Z</time></trkpt><trkpt lat="44.823816657198506" lon="13.933603185505229"><ele>14.166666666666668</ele><time>2026-05-01T13:54:52.999Z</time></trkpt><trkpt lat="44.823795618934675" lon="13.933700161224072"><ele>14.333333333333334</ele><time>2026-05-01T13:54:53.999Z</time></trkpt><trkpt lat="44.82378080395209" lon="13.933806843844748"><ele>14.5</ele><time>2026-05-01T13:54:54.999Z</time></trkpt><trkpt lat="44.823773466844266" lon="13.933914175922936"><ele>14.666666666666668</ele><time>2026-05-01T13:54:55.999Z</time></trkpt><trkpt lat="44.82377175263181" lon="13.934026428513556"><ele>14.833333333333334</ele><time>2026-05-01T13:54:56.999Z</time></trkpt><trkpt lat="44.823773570141576" lon="13.934138632668455"><ele>15.0</ele><time>2026-05-01T13:54:57.999Z</time></trkpt><trkpt lat="44.82379102610617" lon="13.934246479781764"><ele>15.0</ele><time>2026-05-01T13:54:58.999Z</time></trkpt><trkpt lat="44.82379428691284" lon="13.93434835096875"><ele>15.0</ele><time>2026-05-01T13:54:59.999Z</time></trkpt><trkpt lat="44.8237953519269" lon="13.934502988309552"><ele>15.0</ele><time>2026-05-01T13:55:01.999Z</time></trkpt><trkpt lat="44.823797998021064" lon="13.934626830645568"><ele>15.0</ele><time>2026-05-01T13:55:03.999Z</time></trkpt><trkpt lat="44.823797156070285" lon="13.934761434694467"><ele>15.0</ele><time>2026-05-01T13:55:05.999Z</time></trkpt><trkpt lat="44.82376004452316" lon="13.934910492925493"><ele>15.5</ele><time>2026-05-01T13:55:07.999Z</time></trkpt><trkpt lat="44.82373464491055" lon="13.935072847929863"><ele>16.0</ele><time>2026-05-01T13:55:09.999Z</time></trkpt><trkpt lat="44.8237005365624" lon="13.935154910405917"><ele>16.5</ele><time>2026-05-01T13:55:10.999Z</time></trkpt><trkpt lat="44.82372158141865" lon="13.935269273982156"><ele>17.0</ele><time>2026-05-01T13:55:11.999Z</time></trkpt><trkpt lat="44.823703266470815" lon="13.935374448127265"><ele>17.5</ele><time>2026-05-01T13:55:12.999Z</time></trkpt><trkpt lat="44.82368827753332" lon="13.935486337506228"><ele>18.0</ele><time>2026-05-01T13:55:13.999Z</time></trkpt><trkpt lat="44.823674892612445" lon="13.935602260060481"><ele>18.0</ele><time>2026-05-01T13:55:14.999Z</time></trkpt><trkpt lat="44.82366193245279" lon="13.93571927224342"><ele>18.0</ele><time>2026-05-01T13:55:15.999Z</time></trkpt><trkpt lat="44.82364056182965" lon="13.935838425466539"><ele>18.0</ele><time>2026-05-01T13:55:16.999Z</time></trkpt><trkpt lat="44.823610297890816" lon="13.935951120857217"><ele>18.0</ele><time>2026-05-01T13:55:17.999Z</time></trkpt><trkpt lat="44.823580913537754" lon="13.936066434858507"><ele>18.0</ele><time>2026-05-01T13:55:18.999Z</time></trkpt><trkpt lat="44.823552101131604" lon="13.936178774627557"><ele>18.0</ele><time>2026-05-01T13:55:19.999Z</time></trkpt><trkpt lat="44.82351873155221" lon="13.936292098574466"><ele>18.666666666666668</ele><time>2026-05-01T13:55:20.999Z</time></trkpt><trkpt lat="44.82348529153938" lon="13.936404647856738"><ele>19.333333333333332</ele><time>2026-05-01T13:55:21.999Z</time></trkpt><trkpt lat="44.8234585834396" lon="13.936516013076314"><ele>20.0</ele><time>2026-05-01T13:55:22.999Z</time></trkpt><trkpt lat="44.82343934811317" lon="13.936634636296594"><ele>20.666666666666664</ele><time>2026-05-01T13:55:23.999Z</time></trkpt><trkpt lat="44.82342549002069" lon="13.936757619469072"><ele>21.333333333333332</ele><time>2026-05-01T13:55:24.999Z</time></trkpt><trkpt lat="44.82341186645419" lon="13.936883526234258"><ele>22.0</ele><time>2026-05-01T13:55:25.999Z</time></trkpt><trkpt lat="44.82339700200553" lon="13.937002801932628"><ele>23.5</ele><time>2026-05-01T13:55:26.999Z</time></trkpt><trkpt lat="44.823361260243644" lon="13.93711033823696"><ele>25.0</ele><time>2026-05-01T13:55:27.999Z</time></trkpt><trkpt lat="44.82334035572207" lon="13.937215318200604"><ele>26.5</ele><time>2026-05-01T13:55:28.999Z</time></trkpt><trkpt lat="44.82331399722383" lon="13.937328289840995"><ele>28.0</ele><time>2026-05-01T13:55:29.999Z</time></trkpt><trkpt lat="44.823281373880356" lon="13.937437143818414"><ele>29.500000000000004</ele><time>2026-05-01T13:55:30.999Z</time></trkpt><trkpt lat="44.82324850756742" lon="13.937537505383661"><ele>31.0</ele><time>2026-05-01T13:55:31.999Z</time></trkpt><trkpt lat="44.82322127101953" lon="13.937630294809177"><ele>31.4</ele><time>2026-05-01T13:55:32.999Z</time></trkpt><trkpt lat="44.823188535561435" lon="13.937718501970798"><ele>31.8</ele><time>2026-05-01T13:55:33.999Z</time></trkpt><trkpt lat="44.82311315010808" lon="13.937852278384124"><ele>32.199999999999996</ele><time>2026-05-01T13:55:35.999Z</time></trkpt><trkpt lat="44.82297320549878" lon="13.937900115734086"><ele>32.6</ele><time>2026-05-01T13:55:37.999Z</time></trkpt><trkpt lat="44.82289961149438" lon="13.93788076253365"><ele>33.0</ele><time>2026-05-01T13:55:38.999Z</time></trkpt><trkpt lat="44.822832568844554" lon="13.937864310037712"><ele>33.0</ele><time>2026-05-01T13:55:39.999Z</time></trkpt><trkpt lat="44.82272536835762" lon="13.93793686913972"><ele>33.0</ele><time>2026-05-01T13:55:41.999Z</time></trkpt><trkpt lat="44.82270037617605" lon="13.938041434182725"><ele>33.0</ele><time>2026-05-01T13:55:42.999Z</time></trkpt><trkpt lat="44.82269581107886" lon="13.938154027061472"><ele>33.0</ele><time>2026-05-01T13:55:43.999Z</time></trkpt><trkpt lat="44.822705141336264" lon="13.938262640325306"><ele>33.0</ele><time>2026-05-01T13:55:44.999Z</time></trkpt><trkpt lat="44.82273350553831" lon="13.93837746898065"><ele>33.0</ele><time>2026-05-01T13:55:45.999Z</time></trkpt><trkpt lat="44.82277889325845" lon="13.938486797845144"><ele>33.0</ele><time>2026-05-01T13:55:46.999Z</time></trkpt><trkpt lat="44.822822358301025" lon="13.93859232961171"><ele>33.0</ele><time>2026-05-01T13:55:47.999Z</time></trkpt><trkpt lat="44.82286324288251" lon="13.938677610073029"><ele>33.0</ele><time>2026-05-01T13:55:48.999Z</time></trkpt><trkpt lat="44.822941898647166" lon="13.938807519124321"><ele>33.0</ele><time>2026-05-01T13:55:50.999Z</time></trkpt><trkpt lat="44.823018737472566" lon="13.93893022318959"><ele>33.0</ele><time>2026-05-01T13:55:52.999Z</time></trkpt><trkpt lat="44.82302741955897" lon="13.939043031459125"><ele>33.0</ele><time>2026-05-01T13:55:55.999Z</time></trkpt><trkpt lat="44.823047808190864" lon="13.93917682513363"><ele>33.0</ele><time>2026-05-01T13:55:57.999Z</time></trkpt><trkpt lat="44.8230783516067" lon="13.939271437738"><ele>33.0</ele><time>2026-05-01T13:55:58.999Z</time></trkpt><trkpt lat="44.823116269016786" lon="13.93936695444232"><ele>33.0</ele><time>2026-05-01T13:55:59.999Z</time></trkpt><trkpt lat="44.823164765108075" lon="13.939540935953247"><ele>33.0</ele><time>2026-05-01T13:56:01.999Z</time></trkpt><trkpt lat="44.82318909339895" lon="13.939655896744188"><ele>33.199999999999996</ele><time>2026-05-01T13:56:02.999Z</time></trkpt><trkpt lat="44.82321710269536" lon="13.93978215860869"><ele>33.4</ele><time>2026-05-01T13:56:03.999Z</time></trkpt><trkpt lat="44.8232463047618" lon="13.93990950536061"><ele>33.599999999999994</ele><time>2026-05-01T13:56:04.999Z</time></trkpt><trkpt lat="44.82327242089179" lon="13.940038432124686"><ele>33.8</ele><time>2026-05-01T13:56:05.999Z</time></trkpt><trkpt lat="44.82329644477736" lon="13.940166431205622"><ele>34.0</ele><time>2026-05-01T13:56:06.999Z</time></trkpt><trkpt lat="44.82331662303854" lon="13.940291883527038"><ele>34.4</ele><time>2026-05-01T13:56:07.999Z</time></trkpt><trkpt lat="44.82333276472116" lon="13.94041743869652"><ele>34.8</ele><time>2026-05-01T13:56:08.999Z</time></trkpt><trkpt lat="44.823346324869725" lon="13.94054641303923"><ele>35.2</ele><time>2026-05-01T13:56:09.999Z</time></trkpt><trkpt lat="44.82336310624216" lon="13.940676816888276"><ele>35.6</ele><time>2026-05-01T13:56:10.999Z</time></trkpt><trkpt lat="44.82338000677486" lon="13.940806968649644"><ele>36.0</ele><time>2026-05-01T13:56:11.999Z</time></trkpt><trkpt lat="44.82339535923662" lon="13.940934544409773"><ele>36.0</ele><time>2026-05-01T13:56:12.999Z</time></trkpt><trkpt lat="44.82341317744047" lon="13.941060580797254"><ele>36.0</ele><time>2026-05-01T13:56:13.999Z</time></trkpt><trkpt lat="44.82343007856774" lon="13.941185527448534"><ele>36.0</ele><time>2026-05-01T13:56:14.999Z</time></trkpt><trkpt lat="44.823444160495264" lon="13.941308167866806"><ele>36.0</ele><time>2026-05-01T13:56:15.999Z</time></trkpt><trkpt lat="44.823459640816296" lon="13.941429101820114"><ele>36.0</ele><time>2026-05-01T13:56:16.999Z</time></trkpt><trkpt lat="44.823475919365606" lon="13.941542998274057"><ele>36.0</ele><time>2026-05-01T13:56:17.999Z</time></trkpt><trkpt lat="44.82349598500194" lon="13.941666204218093"><ele>36.6</ele><time>2026-05-01T13:56:18.999Z</time></trkpt><trkpt lat="44.82352149887901" lon="13.941791799422285"><ele>37.2</ele><time>2026-05-01T13:56:19.999Z</time></trkpt><trkpt lat="44.823543201864126" lon="13.94192706050147"><ele>37.8</ele><time>2026-05-01T13:56:20.999Z</time></trkpt><trkpt lat="44.82355961484713" lon="13.942061603520223"><ele>38.4</ele><time>2026-05-01T13:56:21.999Z</time></trkpt><trkpt lat="44.82357233125532" lon="13.942204022810953"><ele>39.0</ele><time>2026-05-01T13:56:22.999Z</time></trkpt><trkpt lat="44.823586001057485" lon="13.942344245222573"><ele>39.0</ele><time>2026-05-01T13:56:23.999Z</time></trkpt><trkpt lat="44.823603876169194" lon="13.942486658317074"><ele>39.0</ele><time>2026-05-01T13:56:24.999Z</time></trkpt><trkpt lat="44.82362755535062" lon="13.942627491011107"><ele>39.0</ele><time>2026-05-01T13:56:25.999Z</time></trkpt><trkpt lat="44.82365116028442" lon="13.942765920763255"><ele>39.0</ele><time>2026-05-01T13:56:26.999Z</time></trkpt><trkpt lat="44.82368337092077" lon="13.942901339131986"><ele>39.0</ele><time>2026-05-01T13:56:27.999Z</time></trkpt><trkpt lat="44.823729224675986" lon="13.943030683305942"><ele>38.6</ele><time>2026-05-01T13:56:28.999Z</time></trkpt><trkpt lat="44.82378644295534" lon="13.943155500179733"><ele>38.2</ele><time>2026-05-01T13:56:29.999Z</time></trkpt><trkpt lat="44.82384526792229" lon="13.943273442067591"><ele>37.800000000000004</ele><time>2026-05-01T13:56:30.999Z</time></trkpt><trkpt lat="44.823912557957385" lon="13.9433818675803"><ele>37.4</ele><time>2026-05-01T13:56:31.999Z</time></trkpt><trkpt lat="44.82397870637279" lon="13.943479232159174"><ele>37.0</ele><time>2026-05-01T13:56:32.999Z</time></trkpt><trkpt lat="44.82404532291289" lon="13.943571659123863"><ele>36.800000000000004</ele><time>2026-05-01T13:56:33.999Z</time></trkpt><trkpt lat="44.8241119514118" lon="13.943667991787908"><ele>36.6</ele><time>2026-05-01T13:56:34.999Z</time></trkpt><trkpt lat="44.824183011760645" lon="13.943771266309057"><ele>36.400000000000006</ele><time>2026-05-01T13:56:35.999Z</time></trkpt><trkpt lat="44.82425941719245" lon="13.943878073366601"><ele>36.2</ele><time>2026-05-01T13:56:36.998Z</time></trkpt><trkpt lat="44.82434059712008" lon="13.943982713603017"><ele>36.0</ele><time>2026-05-01T13:56:37.998Z</time></trkpt><trkpt lat="44.824420675506516" lon="13.9440869211072"><ele>36.6</ele><time>2026-05-01T13:56:38.998Z</time></trkpt><trkpt lat="44.82450136740019" lon="13.944191654354736"><ele>37.2</ele><time>2026-05-01T13:56:39.998Z</time></trkpt><trkpt lat="44.82458687323466" lon="13.944287865751592"><ele>37.8</ele><time>2026-05-01T13:56:40.998Z</time></trkpt><trkpt lat="44.82467469260069" lon="13.9443787473123"><ele>38.4</ele><time>2026-05-01T13:56:41.998Z</time></trkpt><trkpt lat="44.824764643616675" lon="13.944468797413695"><ele>39.0</ele><time>2026-05-01T13:56:42.998Z</time></trkpt><trkpt lat="44.82485375301272" lon="13.944558279457324"><ele>39.0</ele><time>2026-05-01T13:56:43.998Z</time></trkpt><trkpt lat="44.82494150894945" lon="13.944648744596371"><ele>39.0</ele><time>2026-05-01T13:56:44.998Z</time></trkpt><trkpt lat="44.82502929296298" lon="13.944739472843093"><ele>39.0</ele><time>2026-05-01T13:56:45.998Z</time></trkpt><trkpt lat="44.82511203204224" lon="13.944822309033682"><ele>39.0</ele><time>2026-05-01T13:56:46.998Z</time></trkpt><trkpt lat="44.82518705903431" lon="13.944898780546868"><ele>39.0</ele><time>2026-05-01T13:56:47.998Z</time></trkpt><trkpt lat="44.82525786959818" lon="13.944971316364429"><ele>39.333333333333336</ele><time>2026-05-01T13:56:48.998Z</time></trkpt><trkpt lat="44.8253223991233" lon="13.945039573675228"><ele>39.666666666666664</ele><time>2026-05-01T13:56:49.998Z</time></trkpt><trkpt lat="44.825380757819175" lon="13.94511331662014"><ele>40.0</ele><time>2026-05-01T13:56:50.998Z</time></trkpt><trkpt lat="44.82543320668929" lon="13.945187596168617"><ele>40.33333333333333</ele><time>2026-05-01T13:56:51.998Z</time></trkpt><trkpt lat="44.82548491640044" lon="13.945267759077572"><ele>40.666666666666664</ele><time>2026-05-01T13:56:52.998Z</time></trkpt><trkpt lat="44.8255379199784" lon="13.94534508575384"><ele>41.0</ele><time>2026-05-01T13:56:53.998Z</time></trkpt><trkpt lat="44.82558961518709" lon="13.94543252226206"><ele>41.0</ele><time>2026-05-01T13:56:54.998Z</time></trkpt><trkpt lat="44.82564639550372" lon="13.945518285767752"><ele>41.0</ele><time>2026-05-01T13:56:55.998Z</time></trkpt><trkpt lat="44.825701779997445" lon="13.945596869957024"><ele>41.0</ele><time>2026-05-01T13:56:56.999Z</time></trkpt><trkpt lat="44.825750124578086" lon="13.945681386206013"><ele>41.0</ele><time>2026-05-01T13:56:57.999Z</time></trkpt><trkpt lat="44.825792167060534" lon="13.945771465978341"><ele>41.0</ele><time>2026-05-01T13:56:58.999Z</time></trkpt><trkpt lat="44.825850337084525" lon="13.945841366995438"><ele>41.0</ele><time>2026-05-01T13:56:59.999Z</time></trkpt><trkpt lat="44.8258943691963" lon="13.945919936067732"><ele>40.4</ele><time>2026-05-01T13:57:00.999Z</time></trkpt><trkpt lat="44.82593773329675" lon="13.946001052760865"><ele>39.8</ele><time>2026-05-01T13:57:01.999Z</time></trkpt><trkpt lat="44.82598296705876" lon="13.94613180624324"><ele>39.199999999999996</ele><time>2026-05-01T13:57:03.999Z</time></trkpt><trkpt lat="44.82602392607854" lon="13.946232344566848"><ele>38.599999999999994</ele><time>2026-05-01T13:57:05.999Z</time></trkpt><trkpt lat="44.82607237524471" lon="13.946318155155929"><ele>38.0</ele><time>2026-05-01T13:57:08.999Z</time></trkpt><trkpt lat="44.8273193484027" lon="13.955953020767742"><ele>40.4</ele><time>2026-05-01T14:03:02.999Z</time></trkpt><trkpt lat="44.82731850211563" lon="13.956094340437843"><ele>42.8</ele><time>2026-05-01T14:03:03.999Z</time></trkpt><trkpt lat="44.82731606682447" lon="13.956241857465493"><ele>45.2</ele><time>2026-05-01T14:03:04.999Z</time></trkpt><trkpt lat="44.8273172579997" lon="13.956392300794066"><ele>47.6</ele><time>2026-05-01T14:03:05.999Z</time></trkpt><trkpt lat="44.82732417836724" lon="13.956543238880247"><ele>50.0</ele><time>2026-05-01T14:03:06.999Z</time></trkpt><trkpt lat="44.82733038850409" lon="13.95669753661553"><ele>50.0</ele><time>2026-05-01T14:03:07.999Z</time></trkpt><trkpt lat="44.82733274839872" lon="13.956854199695979"><ele>50.0</ele><time>2026-05-01T14:03:08.999Z</time></trkpt><trkpt lat="44.827333875405564" lon="13.9570020936067"><ele>50.0</ele><time>2026-05-01T14:03:09.999Z</time></trkpt><trkpt lat="44.82733993052131" lon="13.957135256695915"><ele>50.0</ele><time>2026-05-01T14:03:10.999Z</time></trkpt><trkpt lat="44.827353656004036" lon="13.957273747404011"><ele>50.0</ele><time>2026-05-01T14:03:11.999Z</time></trkpt><trkpt lat="44.82737760470794" lon="13.957398184742205"><ele>50.00000000000001</ele><time>2026-05-01T14:03:12.999Z</time></trkpt><trkpt lat="44.82740392844883" lon="13.957512102646659"><ele>50.0</ele><time>2026-05-01T14:03:13.999Z</time></trkpt><trkpt lat="44.827432592947844" lon="13.957625480613062"><ele>50.0</ele><time>2026-05-01T14:03:15Z</time></trkpt><trkpt lat="44.827458998015835" lon="13.957732487219792"><ele>50.0</ele><time>2026-05-01T14:03:16Z</time></trkpt><trkpt lat="44.827485058011014" lon="13.957845325566943"><ele>50.00000000000001</ele><time>2026-05-01T14:03:17Z</time></trkpt><trkpt lat="44.827511769830664" lon="13.957960154435732"><ele>50.0</ele><time>2026-05-01T14:03:18Z</time></trkpt><trkpt lat="44.82754087072342" lon="13.958060540522588"><ele>49.4</ele><time>2026-05-01T14:03:19Z</time></trkpt><trkpt lat="44.82757066852231" lon="13.95816022832569"><ele>48.8</ele><time>2026-05-01T14:03:20Z</time></trkpt><trkpt lat="44.82760575214723" lon="13.958320296152852"><ele>48.2</ele><time>2026-05-01T14:03:22Z</time></trkpt><trkpt lat="44.82761114660581" lon="13.958543901581885"><ele>47.6</ele><time>2026-05-01T14:03:26Z</time></trkpt><trkpt lat="44.82756996945534" lon="13.958648830192427"><ele>47.0</ele><time>2026-05-01T14:03:28Z</time></trkpt><trkpt lat="44.82749508672393" lon="13.958789967544908"><ele>46.400000000000006</ele><time>2026-05-01T14:03:30Z</time></trkpt><trkpt lat="44.82745293642134" lon="13.958883648503521"><ele>45.800000000000004</ele><time>2026-05-01T14:03:31Z</time></trkpt><trkpt lat="44.82740533227232" lon="13.958991076941228"><ele>45.2</ele><time>2026-05-01T14:03:32Z</time></trkpt><trkpt lat="44.8273609463271" lon="13.959090110008002"><ele>44.6</ele><time>2026-05-01T14:03:33Z</time></trkpt><trkpt lat="44.8272979717336" lon="13.959228351167516"><ele>44.0</ele><time>2026-05-01T14:03:35Z</time></trkpt><trkpt lat="44.82723974059785" lon="13.959335603778625"><ele>43.666666666666664</ele><time>2026-05-01T14:03:37Z</time></trkpt><trkpt lat="44.82717122555246" lon="13.959441936475578"><ele>43.33333333333333</ele><time>2026-05-01T14:03:39Z</time></trkpt><trkpt lat="44.82712300392795" lon="13.959501975790225"><ele>43.0</ele><time>2026-05-01T14:03:40Z</time></trkpt><trkpt lat="44.827061664086834" lon="13.959564207924556"><ele>42.666666666666664</ele><time>2026-05-01T14:03:41Z</time></trkpt><trkpt lat="44.82699634988584" lon="13.959625709894398"><ele>42.333333333333336</ele><time>2026-05-01T14:03:42Z</time></trkpt><trkpt lat="44.82692808075916" lon="13.95969014005167"><ele>42.0</ele><time>2026-05-01T14:03:43Z</time></trkpt><trkpt lat="44.82680929993236" lon="13.95981541982594"><ele>41.5</ele><time>2026-05-01T14:03:45Z</time></trkpt><trkpt lat="44.82675254660676" lon="13.959870330404085"><ele>41.0</ele><time>2026-05-01T14:03:46Z</time></trkpt><trkpt lat="44.82669924016299" lon="13.95992614654567"><ele>40.5</ele><time>2026-05-01T14:03:47Z</time></trkpt><trkpt lat="44.826614516343305" lon="13.960018857000337"><ele>40.0</ele><time>2026-05-01T14:03:49Z</time></trkpt><trkpt lat="44.82654133881814" lon="13.960111845335609"><ele>39.5</ele><time>2026-05-01T14:03:51Z</time></trkpt><trkpt lat="44.82646954470876" lon="13.960192732763685"><ele>39.0</ele><time>2026-05-01T14:03:53Z</time></trkpt><trkpt lat="44.82640373289893" lon="13.960311626195681"><ele>38.666666666666664</ele><time>2026-05-01T14:03:55Z</time></trkpt><trkpt lat="44.826368248804656" lon="13.960392399441954"><ele>38.333333333333336</ele><time>2026-05-01T14:03:56Z</time></trkpt><trkpt lat="44.82632823415224" lon="13.960491870402235"><ele>38.0</ele><time>2026-05-01T14:03:57Z</time></trkpt><trkpt lat="44.826292818500605" lon="13.960597801039313"><ele>37.66666666666667</ele><time>2026-05-01T14:03:58Z</time></trkpt><trkpt lat="44.82625274917337" lon="13.96071540900931"><ele>37.333333333333336</ele><time>2026-05-01T14:03:59Z</time></trkpt><trkpt lat="44.826207011811476" lon="13.96083223184962"><ele>37.0</ele><time>2026-05-01T14:04:00Z</time></trkpt><trkpt lat="44.82616486465839" lon="13.960958384312399"><ele>37.0</ele><time>2026-05-01T14:04:01Z</time></trkpt><trkpt lat="44.82611747135732" lon="13.96109560885614"><ele>37.0</ele><time>2026-05-01T14:04:02Z</time></trkpt><trkpt lat="44.826071859154325" lon="13.961222947790642"><ele>37.0</ele><time>2026-05-01T14:04:03Z</time></trkpt><trkpt lat="44.826035020952006" lon="13.961342056780095"><ele>37.0</ele><time>2026-05-01T14:04:04Z</time></trkpt><trkpt lat="44.825960690440496" lon="13.961567495994915"><ele>36.800000000000004</ele><time>2026-05-01T14:04:06Z</time></trkpt><trkpt lat="44.82591929139958" lon="13.96169626552207"><ele>36.6</ele><time>2026-05-01T14:04:07Z</time></trkpt><trkpt lat="44.8258740744764" lon="13.961820183423896"><ele>36.400000000000006</ele><time>2026-05-01T14:04:08Z</time></trkpt><trkpt lat="44.825827531957486" lon="13.961937868827233"><ele>36.2</ele><time>2026-05-01T14:04:08.999Z</time></trkpt><trkpt lat="44.82577583549068" lon="13.962055881970247"><ele>36.0</ele><time>2026-05-01T14:04:09.999Z</time></trkpt><trkpt lat="44.825716656324204" lon="13.962172908088386"><ele>35.2</ele><time>2026-05-01T14:04:10.999Z</time></trkpt><trkpt lat="44.82565464193605" lon="13.962290587619673"><ele>34.400000000000006</ele><time>2026-05-01T14:04:11.999Z</time></trkpt><trkpt lat="44.82558853245515" lon="13.962404650916897"><ele>33.6</ele><time>2026-05-01T14:04:12.999Z</time></trkpt><trkpt lat="44.8255116296597" lon="13.962510363034426"><ele>32.800000000000004</ele><time>2026-05-01T14:04:13.999Z</time></trkpt><trkpt lat="44.82542960561587" lon="13.962614221245712"><ele>32.0</ele><time>2026-05-01T14:04:14.999Z</time></trkpt><trkpt lat="44.825339465491794" lon="13.962716523743104"><ele>31.25</ele><time>2026-05-01T14:04:15.999Z</time></trkpt><trkpt lat="44.825241961863014" lon="13.962817378533979"><ele>30.5</ele><time>2026-05-01T14:04:16.999Z</time></trkpt><trkpt lat="44.825137263770316" lon="13.962914240491937"><ele>29.75</ele><time>2026-05-01T14:04:17.999Z</time></trkpt><trkpt lat="44.82503945464482" lon="13.963002773494718"><ele>29.0</ele><time>2026-05-01T14:04:18.999Z</time></trkpt><trkpt lat="44.82494305885673" lon="13.963081783788489"><ele>28.999999999999996</ele><time>2026-05-01T14:04:19.999Z</time></trkpt><trkpt lat="44.82485404079757" lon="13.963155792986546"><ele>29.0</ele><time>2026-05-01T14:04:20.999Z</time></trkpt><trkpt lat="44.82477161953781" lon="13.963226040427324"><ele>29.0</ele><time>2026-05-01T14:04:21.999Z</time></trkpt><trkpt lat="44.82469507580442" lon="13.963293462836765"><ele>29.0</ele><time>2026-05-01T14:04:22.999Z</time></trkpt><trkpt lat="44.82462486256735" lon="13.9633479077161"><ele>28.999999999999996</ele><time>2026-05-01T14:04:23.999Z</time></trkpt><trkpt lat="44.82456602864156" lon="13.963397287847485"><ele>29.0</ele><time>2026-05-01T14:04:24.999Z</time></trkpt><trkpt lat="44.824370972980724" lon="13.963560615736123"><ele>28.0</ele><time>2026-05-01T14:04:28.999Z</time></trkpt><trkpt lat="44.82426778092298" lon="13.963661937079888"><ele>27.0</ele><time>2026-05-01T14:04:30.999Z</time></trkpt><trkpt lat="44.82420172446436" lon="13.96371582502901"><ele>26.0</ele><time>2026-05-01T14:04:31.999Z</time></trkpt><trkpt lat="44.8241337974872" lon="13.963781584517687"><ele>25.0</ele><time>2026-05-01T14:04:32.999Z</time></trkpt><trkpt lat="44.82406020139471" lon="13.96384969427186"><ele>24.0</ele><time>2026-05-01T14:04:33.999Z</time></trkpt><trkpt lat="44.82399242982197" lon="13.963918904081053"><ele>24.0</ele><time>2026-05-01T14:04:34.999Z</time></trkpt><trkpt lat="44.823933099636314" lon="13.963985541586043"><ele>24.0</ele><time>2026-05-01T14:04:35.999Z</time></trkpt><trkpt lat="44.82386857846399" lon="13.964042664277242"><ele>24.0</ele><time>2026-05-01T14:04:36.999Z</time></trkpt><trkpt lat="44.82379429202329" lon="13.964112959745298"><ele>24.0</ele><time>2026-05-01T14:04:37.999Z</time></trkpt><trkpt lat="44.82371963987823" lon="13.964185947481312"><ele>24.0</ele><time>2026-05-01T14:04:38.999Z</time></trkpt><trkpt lat="44.82364002868487" lon="13.964251001267309"><ele>24.0</ele><time>2026-05-01T14:04:39.999Z</time></trkpt><trkpt lat="44.82356442381579" lon="13.96435338948944"><ele>23.2</ele><time>2026-05-01T14:04:40.999Z</time></trkpt><trkpt lat="44.82348706721437" lon="13.964431976535506"><ele>22.4</ele><time>2026-05-01T14:04:41.999Z</time></trkpt><trkpt lat="44.82341021249511" lon="13.964520899724246"><ele>21.6</ele><time>2026-05-01T14:04:42.999Z</time></trkpt><trkpt lat="44.82335079410326" lon="13.964621172639596"><ele>20.8</ele><time>2026-05-01T14:04:43.999Z</time></trkpt><trkpt lat="44.82330606779056" lon="13.964722433928632"><ele>20.0</ele><time>2026-05-01T14:04:44.999Z</time></trkpt><trkpt lat="44.82326346932998" lon="13.964827192075953"><ele>19.25</ele><time>2026-05-01T14:04:45.999Z</time></trkpt><trkpt lat="44.82317101744251" lon="13.965030519669885"><ele>18.5</ele><time>2026-05-01T14:04:47.999Z</time></trkpt><trkpt lat="44.82312265180443" lon="13.96514534452425"><ele>17.75</ele><time>2026-05-01T14:04:48.999Z</time></trkpt><trkpt lat="44.82307316937217" lon="13.965274535150227"><ele>17.0</ele><time>2026-05-01T14:04:49.999Z</time></trkpt><trkpt lat="44.82302235217745" lon="13.965410674718925"><ele>17.0</ele><time>2026-05-01T14:04:50.999Z</time></trkpt><trkpt lat="44.82298241794231" lon="13.96555785005095"><ele>17.0</ele><time>2026-05-01T14:04:51.999Z</time></trkpt><trkpt lat="44.82293429025117" lon="13.965709373087495"><ele>17.0</ele><time>2026-05-01T14:04:52.999Z</time></trkpt><trkpt lat="44.82289002295358" lon="13.965865904321657"><ele>17.0</ele><time>2026-05-01T14:04:53.999Z</time></trkpt><trkpt lat="44.82285064571439" lon="13.966044374955077"><ele>16.75</ele><time>2026-05-01T14:04:54.999Z</time></trkpt><trkpt lat="44.82281938331982" lon="13.966200936856726"><ele>16.5</ele><time>2026-05-01T14:04:55.999Z</time></trkpt><trkpt lat="44.822789053642296" lon="13.9663501828179"><ele>16.25</ele><time>2026-05-01T14:04:56.999Z</time></trkpt><trkpt lat="44.82275997812675" lon="13.966514769417516"><ele>16.0</ele><time>2026-05-01T14:04:57.999Z</time></trkpt><trkpt lat="44.8227261247921" lon="13.966687172696355"><ele>15.25</ele><time>2026-05-01T14:04:58.999Z</time></trkpt><trkpt lat="44.82270309898443" lon="13.966871757301314"><ele>14.5</ele><time>2026-05-01T14:04:59.999Z</time></trkpt><trkpt lat="44.82269632342674" lon="13.967048006009579"><ele>13.75</ele><time>2026-05-01T14:05:00.999Z</time></trkpt><trkpt lat="44.82269351883086" lon="13.967213833158297"><ele>13.0</ele><time>2026-05-01T14:05:01.999Z</time></trkpt><trkpt lat="44.822698366272405" lon="13.967379408490325"><ele>12.5</ele><time>2026-05-01T14:05:02.999Z</time></trkpt><trkpt lat="44.82267986105861" lon="13.967538988770729"><ele>12.0</ele><time>2026-05-01T14:05:03.999Z</time></trkpt><trkpt lat="44.822652252718676" lon="13.967690327217976"><ele>11.5</ele><time>2026-05-01T14:05:04.999Z</time></trkpt><trkpt lat="44.82261846533964" lon="13.96784158900012"><ele>11.0</ele><time>2026-05-01T14:05:05.999Z</time></trkpt><trkpt lat="44.822577245007054" lon="13.967991673694897"><ele>10.666666666666666</ele><time>2026-05-01T14:05:06.999Z</time></trkpt><trkpt lat="44.82247877156609" lon="13.968292533580957"><ele>10.333333333333334</ele><time>2026-05-01T14:05:08.999Z</time></trkpt><trkpt lat="44.822420127267456" lon="13.968443524791269"><ele>10.0</ele><time>2026-05-01T14:05:09.999Z</time></trkpt><trkpt lat="44.82236026146022" lon="13.96858641815355"><ele>8.75</ele><time>2026-05-01T14:05:10.999Z</time></trkpt><trkpt lat="44.82229825937563" lon="13.96872210307641"><ele>7.5</ele><time>2026-05-01T14:05:11.999Z</time></trkpt><trkpt lat="44.82224080585311" lon="13.968858595506934"><ele>6.25</ele><time>2026-05-01T14:05:12.999Z</time></trkpt><trkpt lat="44.82218830392635" lon="13.968996826710569"><ele>5.0</ele><time>2026-05-01T14:05:13.999Z</time></trkpt><trkpt lat="44.822127754068816" lon="13.96913205959655"><ele>4.75</ele><time>2026-05-01T14:05:14.999Z</time></trkpt><trkpt lat="44.822059380425614" lon="13.969253258336524"><ele>4.5</ele><time>2026-05-01T14:05:15.999Z</time></trkpt><trkpt lat="44.82197367967028" lon="13.969355950145887"><ele>4.25</ele><time>2026-05-01T14:05:16.999Z</time></trkpt><trkpt lat="44.82187463597844" lon="13.969439823718384"><ele>4.0</ele><time>2026-05-01T14:05:17.999Z</time></trkpt><trkpt lat="44.82176388831407" lon="13.96950766448282"><ele>3.75</ele><time>2026-05-01T14:05:18.999Z</time></trkpt><trkpt lat="44.82165509465863" lon="13.969584063138141"><ele>3.5</ele><time>2026-05-01T14:05:19.999Z</time></trkpt><trkpt lat="44.821556057076364" lon="13.969673401190274"><ele>3.25</ele><time>2026-05-01T14:05:21Z</time></trkpt><trkpt lat="44.82146990771863" lon="13.969767693255049"><ele>3.0</ele><time>2026-05-01T14:05:22Z</time></trkpt><trkpt lat="44.821395437578516" lon="13.969878893234545"><ele>3.0</ele><time>2026-05-01T14:05:23Z</time></trkpt><trkpt lat="44.821331028970235" lon="13.970007933326734"><ele>3.0</ele><time>2026-05-01T14:05:24Z</time></trkpt><trkpt lat="44.821264557871594" lon="13.970139734129797"><ele>3.0</ele><time>2026-05-01T14:05:25Z</time></trkpt><trkpt lat="44.82119808939295" lon="13.970264566097933"><ele>3.0</ele><time>2026-05-01T14:05:26Z</time></trkpt><trkpt lat="44.82113121144858" lon="13.97037605029815"><ele>3.0</ele><time>2026-05-01T14:05:27Z</time></trkpt><trkpt lat="44.821064949606836" lon="13.970479006869189"><ele>3.0</ele><time>2026-05-01T14:05:28Z</time></trkpt><trkpt lat="44.82093641566375" lon="13.97066282525119"><ele>3.0</ele><time>2026-05-01T14:05:30Z</time></trkpt><trkpt lat="44.820883165982266" lon="13.97074840729133"><ele>3.0</ele><time>2026-05-01T14:05:31Z</time></trkpt><trkpt lat="44.820836335898626" lon="13.97082037621135"><ele>3.0</ele><time>2026-05-01T14:05:32Z</time></trkpt><trkpt lat="44.82079998145324" lon="13.970893951207053"><ele>3.0</ele><time>2026-05-01T14:05:33Z</time></trkpt><trkpt lat="44.820800398392024" lon="13.970985237437276"><ele>3.0</ele><time>2026-05-01T14:05:34Z</time></trkpt><trkpt lat="44.820843379897944" lon="13.971061449251485"><ele>3.0</ele><time>2026-05-01T14:05:35Z</time></trkpt><trkpt lat="44.82089930420746" lon="13.971137064251609"><ele>3.0</ele><time>2026-05-01T14:05:36Z</time></trkpt><trkpt lat="44.82094244840942" lon="13.971228280985141"><ele>3.0</ele><time>2026-05-01T14:05:37Z</time></trkpt><trkpt lat="44.82098844793498" lon="13.971333605856998"><ele>3.0</ele><time>2026-05-01T14:05:38Z</time></trkpt><trkpt lat="44.821035844648875" lon="13.971443462643473"><ele>3.0</ele><time>2026-05-01T14:05:39Z</time></trkpt><trkpt lat="44.8210815587569" lon="13.971552061258611"><ele>3.0</ele><time>2026-05-01T14:05:40Z</time></trkpt><trkpt lat="44.821120600982084" lon="13.971651654271893"><ele>3.0</ele><time>2026-05-01T14:05:41Z</time></trkpt><trkpt lat="44.82116031047162" lon="13.971738500658313"><ele>3.0</ele><time>2026-05-01T14:05:42Z</time></trkpt><trkpt lat="44.821197604321746" lon="13.971819049015277"><ele>3.0</ele><time>2026-05-01T14:05:43Z</time></trkpt><trkpt lat="44.8212400772216" lon="13.971970986657379"><ele>3.0</ele><time>2026-05-01T14:05:45Z</time></trkpt><trkpt lat="44.821190861012845" lon="13.972099466159811"><ele>3.0</ele><time>2026-05-01T14:05:47Z</time></trkpt><trkpt lat="44.82112106698273" lon="13.972206511488208"><ele>3.0</ele><time>2026-05-01T14:05:49Z</time></trkpt><trkpt lat="44.82108579982032" lon="13.972406525932538"><ele>3.0</ele><time>2026-05-01T14:06:38.999Z</time></trkpt><trkpt lat="44.82106505794031" lon="13.972679281630965"><ele>3.0</ele><time>2026-05-01T14:06:42.999Z</time></trkpt><trkpt lat="44.821048056501056" lon="13.97281149005458"><ele>3.0</ele><time>2026-05-01T14:06:44.999Z</time></trkpt><trkpt lat="44.82102112552625" lon="13.972980972406617"><ele>2.9999999999999996</ele><time>2026-05-01T14:06:46.999Z</time></trkpt><trkpt lat="44.8210039908717" lon="13.973075593669021"><ele>3.0</ele><time>2026-05-01T14:06:47.999Z</time></trkpt><trkpt lat="44.82099156645381" lon="13.973172917413224"><ele>3.0</ele><time>2026-05-01T14:06:48.999Z</time></trkpt><trkpt lat="44.82098397345463" lon="13.973268892712547"><ele>3.0</ele><time>2026-05-01T14:06:49.999Z</time></trkpt><trkpt lat="44.82098520545557" lon="13.973359702926839"><ele>3.0</ele><time>2026-05-01T14:06:50.999Z</time></trkpt><trkpt lat="44.82099765453433" lon="13.973457394396439"><ele>2.9999999999999996</ele><time>2026-05-01T14:06:51.999Z</time></trkpt><trkpt lat="44.821012660710664" lon="13.973599638570866"><ele>3.0</ele><time>2026-05-01T14:06:53.999Z</time></trkpt><trkpt lat="44.821022341466005" lon="13.97374566589029"><ele>3.0</ele><time>2026-05-01T14:06:55.999Z</time></trkpt><trkpt lat="44.82102153728336" lon="13.973901221515295"><ele>3.0</ele><time>2026-05-01T14:06:57.999Z</time></trkpt><trkpt lat="44.820977489698805" lon="13.974039971675287"><ele>3.0</ele><time>2026-05-01T14:06:59.999Z</time></trkpt><trkpt lat="44.82091751506451" lon="13.974346775660612"><ele>3.0</ele><time>2026-05-01T14:07:03.999Z</time></trkpt><trkpt lat="44.820935248953965" lon="13.974488729502244"><ele>3.0</ele><time>2026-05-01T14:07:05.999Z</time></trkpt><trkpt lat="44.82095211559543" lon="13.974592692594817"><ele>3.0</ele><time>2026-05-01T14:07:07.999Z</time></trkpt><trkpt lat="44.82093824519713" lon="13.97469430270302"><ele>3.0</ele><time>2026-05-01T14:07:09.999Z</time></trkpt><trkpt lat="44.820935612874976" lon="13.974789122222658"><ele>3.0</ele><time>2026-05-01T14:07:13.999Z</time></trkpt><trkpt lat="44.82099269963509" lon="13.974729276535461"><ele>3.0</ele><time>2026-05-01T14:07:17.999Z</time></trkpt><trkpt lat="44.8209812383625" lon="13.974614571899167"><ele>3.0</ele><time>2026-05-01T14:07:20.999Z</time></trkpt><trkpt lat="44.82092268877019" lon="13.974433596470588"><ele>3.0</ele><time>2026-05-01T14:11:56Z</time></trkpt><trkpt lat="44.82091126172019" lon="13.974217068463663"><ele>3.0</ele><time>2026-05-01T14:12:00Z</time></trkpt><trkpt lat="44.820940294844966" lon="13.974106752989709"><ele>3.0</ele><time>2026-05-01T14:12:02Z</time></trkpt><trkpt lat="44.82099067056372" lon="13.973980632465517"><ele>3.0</ele><time>2026-05-01T14:12:04Z</time></trkpt><trkpt lat="44.82101978895666" lon="13.973847403271625"><ele>3.0</ele><time>2026-05-01T14:12:06Z</time></trkpt><trkpt lat="44.82102546981598" lon="13.973695014992233"><ele>3.0</ele><time>2026-05-01T14:12:08Z</time></trkpt><trkpt lat="44.82100349437019" lon="13.973531299389501"><ele>3.0</ele><time>2026-05-01T14:12:09.999Z</time></trkpt><trkpt lat="44.8209857977698" lon="13.973360809798624"><ele>3.0</ele><time>2026-05-01T14:12:11.999Z</time></trkpt><trkpt lat="44.8209783348649" lon="13.973266073569581"><ele>3.0</ele><time>2026-05-01T14:12:12.999Z</time></trkpt><trkpt lat="44.8209744745383" lon="13.973170766914803"><ele>3.0</ele><time>2026-05-01T14:12:13.999Z</time></trkpt><trkpt lat="44.82097080864008" lon="13.973071700943555"><ele>3.0</ele><time>2026-05-01T14:12:14.999Z</time></trkpt><trkpt lat="44.820987602336395" lon="13.972982900974765"><ele>3.0</ele><time>2026-05-01T14:12:15.999Z</time></trkpt><trkpt lat="44.821005323816834" lon="13.972887160488026"><ele>3.0</ele><time>2026-05-01T14:12:16.999Z</time></trkpt><trkpt lat="44.821047118181475" lon="13.972684835562628"><ele>3.0</ele><time>2026-05-01T14:12:18.999Z</time></trkpt><trkpt lat="44.821063551774216" lon="13.972573647249467"><ele>3.0</ele><time>2026-05-01T14:12:19.999Z</time></trkpt><trkpt lat="44.8210764722447" lon="13.972459134457862"><ele>3.0</ele><time>2026-05-01T14:12:20.999Z</time></trkpt><trkpt lat="44.82108397483187" lon="13.97235196371047"><ele>3.0</ele><time>2026-05-01T14:12:21.999Z</time></trkpt><trkpt lat="44.821112632222615" lon="13.972202363905014"><ele>3.0</ele><time>2026-05-01T14:12:23.999Z</time></trkpt><trkpt lat="44.82117669752536" lon="13.97208352036026"><ele>3.0</ele><time>2026-05-01T14:12:25.999Z</time></trkpt><trkpt lat="44.821233586326045" lon="13.972037358715555"><ele>3.0</ele><time>2026-05-01T14:12:27.999Z</time></trkpt><trkpt lat="44.82129890807277" lon="13.972054414388746"><ele>3.0</ele><time>2026-05-01T14:12:29.999Z</time></trkpt><trkpt lat="44.82138868700075" lon="13.972203261316103"><ele>3.0</ele><time>2026-05-01T14:12:31.999Z</time></trkpt><trkpt lat="44.82143615597128" lon="13.972280895905723"><ele>3.0</ele><time>2026-05-01T14:12:32.999Z</time></trkpt><trkpt lat="44.82149948861572" lon="13.97235233988592"><ele>3.0</ele><time>2026-05-01T14:12:33.999Z</time></trkpt><trkpt lat="44.82158358120528" lon="13.9724134517842"><ele>3.0</ele><time>2026-05-01T14:12:34.999Z</time></trkpt><trkpt lat="44.82166948667692" lon="13.97247635949723"><ele>3.0</ele><time>2026-05-01T14:12:35.999Z</time></trkpt><trkpt lat="44.821768328931284" lon="13.97250771403871"><ele>3.0</ele><time>2026-05-01T14:12:36.999Z</time></trkpt><trkpt lat="44.82186420091052" lon="13.972527502040045"><ele>3.5</ele><time>2026-05-01T14:12:37.999Z</time></trkpt><trkpt lat="44.822069424390406" lon="13.972615712646938"><ele>4.0</ele><time>2026-05-01T14:12:39.999Z</time></trkpt><trkpt lat="44.82217095142252" lon="13.972685543996072"><ele>4.5</ele><time>2026-05-01T14:12:40.999Z</time></trkpt><trkpt lat="44.82227399209498" lon="13.972763904338573"><ele>5.0</ele><time>2026-05-01T14:12:41.999Z</time></trkpt><trkpt lat="44.822379304469386" lon="13.9728466587315"><ele>5.0</ele><time>2026-05-01T14:12:42.999Z</time></trkpt><trkpt lat="44.82248047593706" lon="13.972928861247906"><ele>5.0</ele><time>2026-05-01T14:12:43.999Z</time></trkpt><trkpt lat="44.82258637679279" lon="13.97299570005514"><ele>5.0</ele><time>2026-05-01T14:12:44.999Z</time></trkpt><trkpt lat="44.82270101641539" lon="13.973053644046196"><ele>5.0</ele><time>2026-05-01T14:12:45.999Z</time></trkpt><trkpt lat="44.82281908385631" lon="13.973105111387229"><ele>5.75</ele><time>2026-05-01T14:12:46.999Z</time></trkpt><trkpt lat="44.82293598938472" lon="13.973165284586633"><ele>6.5</ele><time>2026-05-01T14:12:47.999Z</time></trkpt><trkpt lat="44.82305097556294" lon="13.973231954880045"><ele>7.25</ele><time>2026-05-01T14:12:48.999Z</time></trkpt><trkpt lat="44.823165075115696" lon="13.97330222581789"><ele>8.0</ele><time>2026-05-01T14:12:49.999Z</time></trkpt><trkpt lat="44.823270308558996" lon="13.973372138345903"><ele>8.0</ele><time>2026-05-01T14:12:50.999Z</time></trkpt><trkpt lat="44.823368358057294" lon="13.973435070242447"><ele>8.0</ele><time>2026-05-01T14:12:51.999Z</time></trkpt><trkpt lat="44.82347069491532" lon="13.973494435023813"><ele>8.0</ele><time>2026-05-01T14:12:52.999Z</time></trkpt><trkpt lat="44.82357815791686" lon="13.973539275901185"><ele>8.0</ele><time>2026-05-01T14:12:53.999Z</time></trkpt><trkpt lat="44.82368333827917" lon="13.973583420144392"><ele>8.0</ele><time>2026-05-01T14:12:54.999Z</time></trkpt><trkpt lat="44.82378289001206" lon="13.97363002800036"><ele>8.600000000000001</ele><time>2026-05-01T14:12:55.999Z</time></trkpt><trkpt lat="44.82387103274925" lon="13.973678144802355"><ele>9.200000000000001</ele><time>2026-05-01T14:12:56.999Z</time></trkpt><trkpt lat="44.82394800809963" lon="13.973724912197232"><ele>9.8</ele><time>2026-05-01T14:12:57.999Z</time></trkpt><trkpt lat="44.824018836498645" lon="13.97377284243015"><ele>10.4</ele><time>2026-05-01T14:12:58.999Z</time></trkpt><trkpt lat="44.824116482915215" lon="13.973939754803574"><ele>11.0</ele><time>2026-05-01T14:13:00.999Z</time></trkpt><trkpt lat="44.824145914948616" lon="13.974049457471684"><ele>11.0</ele><time>2026-05-01T14:13:01.999Z</time></trkpt><trkpt lat="44.824161151907916" lon="13.974177986291553"><ele>11.0</ele><time>2026-05-01T14:13:02.999Z</time></trkpt><trkpt lat="44.824161326245644" lon="13.974319084460511"><ele>11.0</ele><time>2026-05-01T14:13:03.999Z</time></trkpt><trkpt lat="44.82415551736051" lon="13.974468960627958"><ele>11.0</ele><time>2026-05-01T14:13:04.999Z</time></trkpt><trkpt lat="44.82415775498121" lon="13.97462619794498"><ele>11.0</ele><time>2026-05-01T14:13:05.999Z</time></trkpt><trkpt lat="44.82417972749013" lon="13.974781297928516"><ele>11.0</ele><time>2026-05-01T14:13:06.999Z</time></trkpt><trkpt lat="44.82421713555314" lon="13.97492206839309"><ele>11.0</ele><time>2026-05-01T14:13:07.999Z</time></trkpt><trkpt lat="44.82425971009737" lon="13.975060113404567"><ele>11.0</ele><time>2026-05-01T14:13:08.999Z</time></trkpt><trkpt lat="44.82429169310402" lon="13.97520417484999"><ele>11.0</ele><time>2026-05-01T14:13:09.999Z</time></trkpt><trkpt lat="44.82430178222198" lon="13.975355491826742"><ele>11.0</ele><time>2026-05-01T14:13:10.999Z</time></trkpt><trkpt lat="44.82428353182044" lon="13.975507718160085"><ele>10.4</ele><time>2026-05-01T14:13:11.999Z</time></trkpt><trkpt lat="44.82425808358417" lon="13.97566378971077"><ele>9.8</ele><time>2026-05-01T14:13:12.999Z</time></trkpt><trkpt lat="44.82422920295582" lon="13.975811414922932"><ele>9.200000000000001</ele><time>2026-05-01T14:13:13.999Z</time></trkpt><trkpt lat="44.82420208725869" lon="13.975955557462614"><ele>8.600000000000001</ele><time>2026-05-01T14:13:14.999Z</time></trkpt><trkpt lat="44.824174634565544" lon="13.976107024504266"><ele>8.0</ele><time>2026-05-01T14:13:15.999Z</time></trkpt><trkpt lat="44.824148660808234" lon="13.976258677562674"><ele>7.75</ele><time>2026-05-01T14:13:16.999Z</time></trkpt><trkpt lat="44.82412169631402" lon="13.97641093448719"><ele>7.5</ele><time>2026-05-01T14:13:17.999Z</time></trkpt><trkpt lat="44.82409136097167" lon="13.976564249251995"><ele>7.25</ele><time>2026-05-01T14:13:18.999Z</time></trkpt><trkpt lat="44.824061844558926" lon="13.976715133576993"><ele>7.0</ele><time>2026-05-01T14:13:19.999Z</time></trkpt><trkpt lat="44.824002816454524" lon="13.976994677297915"><ele>7.0</ele><time>2026-05-01T14:13:21.999Z</time></trkpt><trkpt lat="44.8239729452469" lon="13.977132620882752"><ele>6.999999999999999</ele><time>2026-05-01T14:13:22.999Z</time></trkpt><trkpt lat="44.82394528517569" lon="13.977268282844074"><ele>6.999999999999999</ele><time>2026-05-01T14:13:23.999Z</time></trkpt><trkpt lat="44.82392182931475" lon="13.977404554276575"><ele>7.0</ele><time>2026-05-01T14:13:24.999Z</time></trkpt><trkpt lat="44.8239016374857" lon="13.977542606680341"><ele>7.0</ele><time>2026-05-01T14:13:25.999Z</time></trkpt><trkpt lat="44.823887901776686" lon="13.977681721220769"><ele>6.8</ele><time>2026-05-01T14:13:26.999Z</time></trkpt><trkpt lat="44.82388212943635" lon="13.977818332663835"><ele>6.6</ele><time>2026-05-01T14:13:27.999Z</time></trkpt><trkpt lat="44.82387762073319" lon="13.97795326404061"><ele>6.3999999999999995</ele><time>2026-05-01T14:13:28.999Z</time></trkpt><trkpt lat="44.82386972018694" lon="13.978086740846761"><ele>6.199999999999999</ele><time>2026-05-01T14:13:29.999Z</time></trkpt><trkpt lat="44.82387480586311" lon="13.978226303080474"><ele>6.0</ele><time>2026-05-01T14:13:30.999Z</time></trkpt><trkpt lat="44.82374216798783" lon="13.978334742634777"><ele>5.666666666666667</ele><time>2026-05-01T14:13:31.999Z</time></trkpt><trkpt lat="44.82372101670621" lon="13.978451311452616"><ele>5.333333333333333</ele><time>2026-05-01T14:13:32.999Z</time></trkpt><trkpt lat="44.82370862638537" lon="13.978553348779425"><ele>5.0</ele><time>2026-05-01T14:13:33.999Z</time></trkpt><trkpt lat="44.82368992218843" lon="13.97871577340701"><ele>4.666666666666666</ele><time>2026-05-01T14:13:35.999Z</time></trkpt><trkpt lat="44.823651377772364" lon="13.978836517851283"><ele>4.333333333333333</ele><time>2026-05-01T14:13:37.999Z</time></trkpt><trkpt lat="44.82363066162946" lon="13.978931129928684"><ele>4.0</ele><time>2026-05-01T14:13:39.999Z</time></trkpt><trkpt lat="44.82376664367601" lon="13.978877856818599"><ele>3.9999999999999996</ele><time>2026-05-01T14:13:46Z</time></trkpt><trkpt lat="44.82374959274664" lon="13.978769657513116"><ele>4.0</ele><time>2026-05-01T14:13:48Z</time></trkpt><trkpt lat="44.823685146237075" lon="13.978731310260459"><ele>4.0</ele><time>2026-05-01T14:13:50Z</time></trkpt><trkpt lat="44.82363890926942" lon="13.978809837502448"><ele>4.0</ele><time>2026-05-01T14:13:52Z</time></trkpt><trkpt lat="44.82364291028874" lon="13.97891273759908"><ele>3.9999999999999996</ele><time>2026-05-01T14:13:54Z</time></trkpt><trkpt lat="44.823677085124636" lon="13.979011902024418"><ele>4.0</ele><time>2026-05-01T14:13:57Z</time></trkpt><trkpt lat="44.82369262933933" lon="13.979137358810764"><ele>3.75</ele><time>2026-05-01T14:14:00Z</time></trkpt><trkpt lat="44.823708006027424" lon="13.979232976461143"><ele>3.5</ele><time>2026-05-01T14:14:01Z</time></trkpt><trkpt lat="44.82384464619565" lon="13.979436009147213"><ele>3.25</ele><time>2026-05-01T14:14:04.999Z</time></trkpt><trkpt lat="44.82392419860911" lon="13.97951894159485"><ele>3.0</ele><time>2026-05-01T14:14:06.999Z</time></trkpt><trkpt lat="44.8240111742856" lon="13.979623488221574"><ele>3.0</ele><time>2026-05-01T14:14:08.999Z</time></trkpt><trkpt lat="44.82410531979205" lon="13.979740408534008"><ele>3.0</ele><time>2026-05-01T14:14:10.999Z</time></trkpt><trkpt lat="44.8241543542201" lon="13.979809029114236"><ele>3.0</ele><time>2026-05-01T14:14:11.999Z</time></trkpt><trkpt lat="44.82419694770531" lon="13.979875733879787"><ele>3.0</ele><time>2026-05-01T14:14:12.999Z</time></trkpt><trkpt lat="44.82428048540506" lon="13.979991251430128"><ele>3.0</ele><time>2026-05-01T14:14:14.999Z</time></trkpt><trkpt lat="44.824358553962526" lon="13.980111763711669"><ele>3.25</ele><time>2026-05-01T14:14:16.999Z</time></trkpt><trkpt lat="44.82442400863364" lon="13.980239785664006"><ele>3.5</ele><time>2026-05-01T14:14:18.999Z</time></trkpt><trkpt lat="44.8245097568809" lon="13.980354149310266"><ele>3.75</ele><time>2026-05-01T14:14:20.999Z</time></trkpt><trkpt lat="44.82460272464479" lon="13.980441696764412"><ele>4.0</ele><time>2026-05-01T14:14:22.999Z</time></trkpt><trkpt lat="44.82475592706121" lon="13.980559764617144"><ele>3.9999999999999996</ele><time>2026-05-01T14:14:26.999Z</time></trkpt><trkpt lat="44.82480480130881" lon="13.980650941542159"><ele>4.0</ele><time>2026-05-01T14:14:29.999Z</time></trkpt><trkpt lat="44.82486976979023" lon="13.980716801572331"><ele>4.0</ele><time>2026-05-01T14:14:31.999Z</time></trkpt><trkpt lat="44.824958187131415" lon="13.98077753459719"><ele>4.0</ele><time>2026-05-01T14:14:33.999Z</time></trkpt><trkpt lat="44.825009129260394" lon="13.980839766167271"><ele>3.9999999999999996</ele><time>2026-05-01T14:14:34.999Z</time></trkpt><trkpt lat="44.82505758823752" lon="13.980922330685594"><ele>4.0</ele><time>2026-05-01T14:14:35.999Z</time></trkpt><trkpt lat="44.82510259004668" lon="13.981003043297546"><ele>4.166666666666666</ele><time>2026-05-01T14:14:36.999Z</time></trkpt><trkpt lat="44.825159212404564" lon="13.981057321918843"><ele>4.333333333333333</ele><time>2026-05-01T14:14:37.999Z</time></trkpt><trkpt lat="44.82522737721833" lon="13.981091255039999"><ele>4.5</ele><time>2026-05-01T14:14:38.999Z</time></trkpt><trkpt lat="44.825298766509704" lon="13.98111233787646"><ele>4.666666666666667</ele><time>2026-05-01T14:14:39.999Z</time></trkpt><trkpt lat="44.82541297446691" lon="13.981138541111065"><ele>4.833333333333334</ele><time>2026-05-01T14:14:41.999Z</time></trkpt><trkpt lat="44.82549202255904" lon="13.981217594033357"><ele>5.0</ele><time>2026-05-01T14:14:43.999Z</time></trkpt><trkpt lat="44.825652325564484" lon="13.981379201004811"><ele>5.0</ele><time>2026-05-01T14:14:47.999Z</time></trkpt><trkpt lat="44.825684440030436" lon="13.981544138222679"><ele>5.0</ele><time>2026-05-01T14:14:49.999Z</time></trkpt><trkpt lat="44.82569573965914" lon="13.981635897765091"><ele>5.0</ele><time>2026-05-01T14:14:50.999Z</time></trkpt><trkpt lat="44.82569009815058" lon="13.981804450472778"><ele>5.0</ele><time>2026-05-01T14:14:52.999Z</time></trkpt><trkpt lat="44.82569951739994" lon="13.981942713443695"><ele>5.0</ele><time>2026-05-01T14:14:54.999Z</time></trkpt><trkpt lat="44.82573974820962" lon="13.982081844474767"><ele>4.4</ele><time>2026-05-01T14:14:56.999Z</time></trkpt><trkpt lat="44.82578065922388" lon="13.982230610183422"><ele>3.8</ele><time>2026-05-01T14:14:58.999Z</time></trkpt><trkpt lat="44.825795064774034" lon="13.982345616264753"><ele>3.2</ele><time>2026-05-01T14:15:00.999Z</time></trkpt><trkpt lat="44.82577649935077" lon="13.982449258029645"><ele>2.6</ele><time>2026-05-01T14:15:02.999Z</time></trkpt><trkpt lat="44.825720333118056" lon="13.982561083623816"><ele>2.0</ele><time>2026-05-01T14:15:04.999Z</time></trkpt><trkpt lat="44.82555594591846" lon="13.982764874713087"><ele>1.8</ele><time>2026-05-01T14:15:08.999Z</time></trkpt><trkpt lat="44.825481281292525" lon="13.982864213831107"><ele>1.6</ele><time>2026-05-01T14:15:10.999Z</time></trkpt><trkpt lat="44.825422550290135" lon="13.982984591483016"><ele>1.4000000000000001</ele><time>2026-05-01T14:15:12.999Z</time></trkpt><trkpt lat="44.825384360949165" lon="13.983103400997797"><ele>1.2000000000000002</ele><time>2026-05-01T14:15:14.999Z</time></trkpt><trkpt lat="44.825389100546126" lon="13.983247514437599"><ele>1.0</ele><time>2026-05-01T14:15:16.999Z</time></trkpt><trkpt lat="44.8254157932663" lon="13.983380092194446"><ele>1.2000000000000002</ele><time>2026-05-01T14:15:18.999Z</time></trkpt><trkpt lat="44.82543793517025" lon="13.983506963455914"><ele>1.4000000000000001</ele><time>2026-05-01T14:15:20.999Z</time></trkpt><trkpt lat="44.825460802524404" lon="13.983656227634565"><ele>1.6</ele><time>2026-05-01T14:15:22.999Z</time></trkpt><trkpt lat="44.82549049513687" lon="13.983820646966816"><ele>1.8</ele><time>2026-05-01T14:15:24.999Z</time></trkpt><trkpt lat="44.825515760968294" lon="13.983962334689846"><ele>2.0</ele><time>2026-05-01T14:15:26.999Z</time></trkpt><trkpt lat="44.82551668780471" lon="13.984227726288808"><ele>2.0</ele><time>2026-05-01T14:15:30.999Z</time></trkpt><trkpt lat="44.82545191771779" lon="13.984344613966963"><ele>2.0</ele><time>2026-05-01T14:15:32.999Z</time></trkpt><trkpt lat="44.82537036043577" lon="13.984425189134795"><ele>2.0</ele><time>2026-05-01T14:15:34.999Z</time></trkpt><trkpt lat="44.82531042710976" lon="13.984532865526948"><ele>2.0</ele><time>2026-05-01T14:15:36.999Z</time></trkpt><trkpt lat="44.82531159985941" lon="13.984678517558383"><ele>2.0</ele><time>2026-05-01T14:15:38.999Z</time></trkpt><trkpt lat="44.82532647762621" lon="13.984815599121573"><ele>2.0</ele><time>2026-05-01T14:15:40.999Z</time></trkpt><trkpt lat="44.82536463062932" lon="13.984938070611857"><ele>2.0</ele><time>2026-05-01T14:15:42.999Z</time></trkpt><trkpt lat="44.82544194160845" lon="13.985041401705073"><ele>2.0</ele><time>2026-05-01T14:15:44.999Z</time></trkpt><trkpt lat="44.825496843264425" lon="13.98519393012375"><ele>2.0</ele><time>2026-05-01T14:15:46.999Z</time></trkpt><trkpt lat="44.82556478770272" lon="13.985321079533545"><ele>2.0</ele><time>2026-05-01T14:15:48.999Z</time></trkpt><trkpt lat="44.82575238970085" lon="13.985508160439982"><ele>1.8</ele><time>2026-05-01T14:15:52.999Z</time></trkpt><trkpt lat="44.82583243653209" lon="13.985609414791549"><ele>1.6</ele><time>2026-05-01T14:15:54.999Z</time></trkpt><trkpt lat="44.825917912865975" lon="13.985698201016927"><ele>1.4000000000000001</ele><time>2026-05-01T14:15:56.999Z</time></trkpt><trkpt lat="44.826006166232766" lon="13.985769888760997"><ele>1.2000000000000002</ele><time>2026-05-01T14:15:58.999Z</time></trkpt><trkpt lat="44.8260892274804" lon="13.985847437140576"><ele>1.0</ele><time>2026-05-01T14:16:00.999Z</time></trkpt><trkpt lat="44.826167895593706" lon="13.985925748102225"><ele>0.8</ele><time>2026-05-01T14:16:02.999Z</time></trkpt><trkpt lat="44.826260990789976" lon="13.98597827691974"><ele>0.6000000000000001</ele><time>2026-05-01T14:16:04.999Z</time></trkpt><trkpt lat="44.826353513374166" lon="13.98602522194527"><ele>0.4</ele><time>2026-05-01T14:16:06.999Z</time></trkpt><trkpt lat="44.82644149732083" lon="13.98606146434457"><ele>0.2</ele><time>2026-05-01T14:16:08.999Z</time></trkpt><trkpt lat="44.826539922477274" lon="13.986057557045198"><ele>0.0</ele><time>2026-05-01T14:16:10.999Z</time></trkpt><trkpt lat="44.826748561787475" lon="13.985985791738447"><ele>0.0</ele><time>2026-05-01T14:16:14.999Z</time></trkpt><trkpt lat="44.82686265877437" lon="13.985941273207768"><ele>0.0</ele><time>2026-05-01T14:16:16.999Z</time></trkpt><trkpt lat="44.826966758636466" lon="13.985863487460287"><ele>0.0</ele><time>2026-05-01T14:16:18.999Z</time></trkpt><trkpt lat="44.82706968103033" lon="13.985765684955"><ele>0.0</ele><time>2026-05-01T14:16:20.999Z</time></trkpt><trkpt lat="44.827115931660394" lon="13.985699696682799"><ele>0.0</ele><time>2026-05-01T14:16:21.999Z</time></trkpt><trkpt lat="44.827199374181184" lon="13.985570153926915"><ele>0.0</ele><time>2026-05-01T14:16:23.999Z</time></trkpt><trkpt lat="44.82726842713838" lon="13.98545718842813"><ele>0.0</ele><time>2026-05-01T14:16:25.999Z</time></trkpt><trkpt lat="44.82733311055728" lon="13.985316300557473"><ele>0.0</ele><time>2026-05-01T14:16:27.999Z</time></trkpt><trkpt lat="44.82743361727076" lon="13.985248890325524"><ele>0.0</ele><time>2026-05-01T14:16:29.999Z</time></trkpt><trkpt lat="44.8275416315751" lon="13.98515265485041"><ele>0.25</ele><time>2026-05-01T14:16:31.999Z</time></trkpt><trkpt lat="44.827633469998304" lon="13.985003657564794"><ele>0.5</ele><time>2026-05-01T14:16:33.999Z</time></trkpt><trkpt lat="44.82771323541028" lon="13.984867358821068"><ele>0.75</ele><time>2026-05-01T14:16:35.999Z</time></trkpt><trkpt lat="44.82777625183519" lon="13.984747506193798"><ele>1.0</ele><time>2026-05-01T14:16:37.999Z</time></trkpt><trkpt lat="44.827830353630894" lon="13.984621301989678"><ele>1.2000000000000002</ele><time>2026-05-01T14:16:39.999Z</time></trkpt><trkpt lat="44.82792922061759" lon="13.984568588174502"><ele>1.4000000000000001</ele><time>2026-05-01T14:16:41.999Z</time></trkpt><trkpt lat="44.828035626944676" lon="13.984602276026418"><ele>1.6</ele><time>2026-05-01T14:16:43.999Z</time></trkpt><trkpt lat="44.82813389132646" lon="13.984676293312365"><ele>1.8</ele><time>2026-05-01T14:16:45.999Z</time></trkpt><trkpt lat="44.828232770856985" lon="13.984749171541424"><ele>2.0</ele><time>2026-05-01T14:16:47.999Z</time></trkpt><trkpt lat="44.828326314908274" lon="13.984807593103136"><ele>2.0</ele><time>2026-05-01T14:16:49.999Z</time></trkpt><trkpt lat="44.82841458163683" lon="13.984869338757665"><ele>2.0</ele><time>2026-05-01T14:16:51.999Z</time></trkpt><trkpt lat="44.82848158318658" lon="13.984952029440855"><ele>2.0</ele><time>2026-05-01T14:16:53.999Z</time></trkpt><trkpt lat="44.82861272389853" lon="13.985086151164175"><ele>2.0</ele><time>2026-05-01T14:16:59.999Z</time></trkpt><trkpt lat="44.82859098702101" lon="13.985244921811168"><ele>2.2</ele><time>2026-05-01T14:17:01.999Z</time></trkpt><trkpt lat="44.82856492497481" lon="13.985376684978489"><ele>2.4000000000000004</ele><time>2026-05-01T14:17:03.999Z</time></trkpt><trkpt lat="44.82853437470803" lon="13.98550822514453"><ele>2.5999999999999996</ele><time>2026-05-01T14:17:05.999Z</time></trkpt><trkpt lat="44.82849388070128" lon="13.98565346203097"><ele>2.8</ele><time>2026-05-01T14:17:07.999Z</time></trkpt><trkpt lat="44.82845910368345" lon="13.985806505976358"><ele>3.0</ele><time>2026-05-01T14:17:09.999Z</time></trkpt><trkpt lat="44.828468851787825" lon="13.985966799055475"><ele>3.0</ele><time>2026-05-01T14:17:11.999Z</time></trkpt><trkpt lat="44.82845716953527" lon="13.98612638630568"><ele>3.0</ele><time>2026-05-01T14:17:13.999Z</time></trkpt><trkpt lat="44.828426938742545" lon="13.98626965367919"><ele>3.0</ele><time>2026-05-01T14:17:15.999Z</time></trkpt><trkpt lat="44.82840648893408" lon="13.98660302496849"><ele>3.0</ele><time>2026-05-01T14:17:19.999Z</time></trkpt><trkpt lat="44.82839531838264" lon="13.986772673166696"><ele>3.0</ele><time>2026-05-01T14:17:21.999Z</time></trkpt><trkpt lat="44.8283870767543" lon="13.986922439270279"><ele>3.0</ele><time>2026-05-01T14:17:23.999Z</time></trkpt><trkpt lat="44.82838738259487" lon="13.987088247965788"><ele>3.0</ele><time>2026-05-01T14:17:25.999Z</time></trkpt><trkpt lat="44.828397299476855" lon="13.9872512404525"><ele>3.0</ele><time>2026-05-01T14:17:27.999Z</time></trkpt><trkpt lat="44.82839766789465" lon="13.987410593773228"><ele>3.0</ele><time>2026-05-01T14:17:29.999Z</time></trkpt><trkpt lat="44.82839344348722" lon="13.98755337178957"><ele>3.0</ele><time>2026-05-01T14:17:31.999Z</time></trkpt><trkpt lat="44.8283961834949" lon="13.987690763630079"><ele>3.0</ele><time>2026-05-01T14:17:33.999Z</time></trkpt><trkpt lat="44.82841206652484" lon="13.98781124030485"><ele>3.0</ele><time>2026-05-01T14:17:35.999Z</time></trkpt><trkpt lat="44.82844994559704" lon="13.987930605803072"><ele>2.75</ele><time>2026-05-01T14:17:37.999Z</time></trkpt><trkpt lat="44.82855911679081" lon="13.988147298890425"><ele>2.5</ele><time>2026-05-01T14:17:41.999Z</time></trkpt><trkpt lat="44.828637300128655" lon="13.988236158540293"><ele>2.25</ele><time>2026-05-01T14:17:43.999Z</time></trkpt><trkpt lat="44.82873913242685" lon="13.988307651430562"><ele>2.0</ele><time>2026-05-01T14:17:45.999Z</time></trkpt><trkpt lat="44.828841401115845" lon="13.988369469561604"><ele>1.8333333333333333</ele><time>2026-05-01T14:17:47.999Z</time></trkpt><trkpt lat="44.82895130696102" lon="13.988417151731486"><ele>1.6666666666666665</ele><time>2026-05-01T14:17:49.998Z</time></trkpt><trkpt lat="44.82906867442959" lon="13.988412722318847"><ele>1.5</ele><time>2026-05-01T14:17:51.998Z</time></trkpt><trkpt lat="44.829132851145324" lon="13.988399357183424"><ele>1.3333333333333333</ele><time>2026-05-01T14:17:52.998Z</time></trkpt><trkpt lat="44.8291972542269" lon="13.988389243954092"><ele>1.1666666666666665</ele><time>2026-05-01T14:17:53.998Z</time></trkpt><trkpt lat="44.82926167542664" lon="13.988366387790647"><ele>1.0</ele><time>2026-05-01T14:17:54.999Z</time></trkpt><trkpt lat="44.82932504948405" lon="13.988337289762924"><ele>1.0</ele><time>2026-05-01T14:17:55.999Z</time></trkpt><trkpt lat="44.829389363539164" lon="13.988321124692986"><ele>1.0</ele><time>2026-05-01T14:17:56.999Z</time></trkpt><trkpt lat="44.829460656737595" lon="13.988314145059043"><ele>1.0</ele><time>2026-05-01T14:17:57.999Z</time></trkpt><trkpt lat="44.82953806211078" lon="13.988322657518646"><ele>1.0</ele><time>2026-05-01T14:17:58.999Z</time></trkpt><trkpt lat="44.82968443287814" lon="13.98836091855326"><ele>1.0</ele><time>2026-05-01T14:18:00.999Z</time></trkpt><trkpt lat="44.82979935937581" lon="13.98835232742791"><ele>1.0</ele><time>2026-05-01T14:18:02.999Z</time></trkpt><trkpt lat="44.8299248426803" lon="13.988339457770222"><ele>1.0</ele><time>2026-05-01T14:18:04.999Z</time></trkpt><trkpt lat="44.83004297590372" lon="13.98833172506778"><ele>1.0</ele><time>2026-05-01T14:18:06.999Z</time></trkpt><trkpt lat="44.83016561708393" lon="13.988331929758884"><ele>1.0</ele><time>2026-05-01T14:18:08.999Z</time></trkpt><trkpt lat="44.83027252831415" lon="13.988368402849316"><ele>1.0</ele><time>2026-05-01T14:18:10.999Z</time></trkpt><trkpt lat="44.830381545372866" lon="13.988385455529976"><ele>1.0</ele><time>2026-05-01T14:18:12.999Z</time></trkpt><trkpt lat="44.83047932171097" lon="13.988384908955526"><ele>1.0</ele><time>2026-05-01T14:18:14.999Z</time></trkpt><trkpt lat="44.83057903877506" lon="13.988383186973264"><ele>1.0</ele><time>2026-05-01T14:18:16.999Z</time></trkpt><trkpt lat="44.83067486978069" lon="13.988389870933894"><ele>1.0</ele><time>2026-05-01T14:18:18.999Z</time></trkpt><trkpt lat="44.83077017684664" lon="13.988420950820135"><ele>0.75</ele><time>2026-05-01T14:18:20.999Z</time></trkpt><trkpt lat="44.83098293350456" lon="13.988394566534653"><ele>0.5</ele><time>2026-05-01T14:18:24.999Z</time></trkpt><trkpt lat="44.83109038907336" lon="13.988392761507757"><ele>0.25</ele><time>2026-05-01T14:18:26.999Z</time></trkpt><trkpt lat="44.8311880311074" lon="13.988376682892579"><ele>0.0</ele><time>2026-05-01T14:18:28.999Z</time></trkpt><trkpt lat="44.831309508136464" lon="13.988363348776268"><ele>0.0</ele><time>2026-05-01T14:18:30.999Z</time></trkpt><trkpt lat="44.83137324302892" lon="13.988332065685366"><ele>0.0</ele><time>2026-05-01T14:18:31.999Z</time></trkpt><trkpt lat="44.83142921218038" lon="13.988286307301856"><ele>0.0</ele><time>2026-05-01T14:18:32.999Z</time></trkpt><trkpt lat="44.83151425175236" lon="13.988180410540132"><ele>0.0</ele><time>2026-05-01T14:18:34.999Z</time></trkpt><trkpt lat="44.831561709517516" lon="13.988106610447499"><ele>0.0</ele><time>2026-05-01T14:18:35.999Z</time></trkpt><trkpt lat="44.8316111911728" lon="13.988036003601346"><ele>0.0</ele><time>2026-05-01T14:18:36.999Z</time></trkpt><trkpt lat="44.83165171936084" lon="13.987967988973827"><ele>0.0</ele><time>2026-05-01T14:18:37.999Z</time></trkpt><trkpt lat="44.831695696136414" lon="13.987903338204047"><ele>0.0</ele><time>2026-05-01T14:18:38.999Z</time></trkpt><trkpt lat="44.83173731331549" lon="13.987752644556393"><ele>0.0</ele><time>2026-05-01T14:18:40.999Z</time></trkpt><trkpt lat="44.83177339858578" lon="13.987587522149571"><ele>0.0</ele><time>2026-05-01T14:18:42.999Z</time></trkpt><trkpt lat="44.831852519610905" lon="13.987337377996866"><ele>0.0</ele><time>2026-05-01T14:18:45.999Z</time></trkpt><trkpt lat="44.83188854716267" lon="13.987168857072428"><ele>0.0</ele><time>2026-05-01T14:18:47.999Z</time></trkpt><trkpt lat="44.8319031561521" lon="13.987071169377511"><ele>0.0</ele><time>2026-05-01T14:18:48.999Z</time></trkpt><trkpt lat="44.83192011907813" lon="13.986971631283245"><ele>0.0</ele><time>2026-05-01T14:18:49.999Z</time></trkpt><trkpt lat="44.83193039769637" lon="13.986882325594024"><ele>0.0</ele><time>2026-05-01T14:18:50.999Z</time></trkpt><trkpt lat="44.831947403201944" lon="13.986717307988876"><ele>0.2</ele><time>2026-05-01T14:18:52.999Z</time></trkpt><trkpt lat="44.831950736264844" lon="13.986560229510582"><ele>0.4</ele><time>2026-05-01T14:18:54.999Z</time></trkpt><trkpt lat="44.831979852068606" lon="13.986408012503578"><ele>0.6000000000000001</ele><time>2026-05-01T14:18:56.999Z</time></trkpt><trkpt lat="44.83205800169303" lon="13.98629970956299"><ele>0.8</ele><time>2026-05-01T14:18:58.999Z</time></trkpt><trkpt lat="44.83215668211668" lon="13.986243166719168"><ele>1.0</ele><time>2026-05-01T14:19:00.999Z</time></trkpt><trkpt lat="44.832245219641976" lon="13.986233075861689"><ele>1.0</ele><time>2026-05-01T14:19:02.999Z</time></trkpt><trkpt lat="44.83233679925061" lon="13.986268556490883"><ele>1.0</ele><time>2026-05-01T14:19:04.999Z</time></trkpt><trkpt lat="44.83253453102925" lon="13.986364409027765"><ele>1.0</ele><time>2026-05-01T14:19:08.999Z</time></trkpt><trkpt lat="44.8326384650684" lon="13.986397433138755"><ele>1.0</ele><time>2026-05-01T14:19:10.999Z</time></trkpt><trkpt lat="44.83275223595817" lon="13.986410280597063"><ele>1.0</ele><time>2026-05-01T14:19:12.999Z</time></trkpt><trkpt lat="44.83286185697998" lon="13.986405004284652"><ele>1.0</ele><time>2026-05-01T14:19:14.999Z</time></trkpt><trkpt lat="44.83296819584164" lon="13.986374218288297"><ele>1.0</ele><time>2026-05-01T14:19:16.999Z</time></trkpt><trkpt lat="44.833079505326744" lon="13.986335659825775"><ele>1.0</ele><time>2026-05-01T14:19:18.999Z</time></trkpt><trkpt lat="44.83318764442435" lon="13.986307285530698"><ele>1.0</ele><time>2026-05-01T14:19:20.999Z</time></trkpt><trkpt lat="44.833297806519774" lon="13.986283390435961"><ele>1.0</ele><time>2026-05-01T14:19:22.999Z</time></trkpt><trkpt lat="44.83339242938792" lon="13.986261476834306"><ele>1.0</ele><time>2026-05-01T14:19:24.999Z</time></trkpt><trkpt lat="44.83355174661948" lon="13.986055324774163"><ele>1.0</ele><time>2026-05-01T14:19:28.999Z</time></trkpt><trkpt lat="44.83361635355688" lon="13.985909847644692"><ele>1.0</ele><time>2026-05-01T14:19:30.999Z</time></trkpt><trkpt lat="44.83367635009156" lon="13.985779569085404"><ele>1.0</ele><time>2026-05-01T14:19:32.999Z</time></trkpt><trkpt lat="44.833740293789" lon="13.985643919945495"><ele>1.0</ele><time>2026-05-01T14:19:34.999Z</time></trkpt><trkpt lat="44.83381569978606" lon="13.985535099407233"><ele>1.0</ele><time>2026-05-01T14:19:36.999Z</time></trkpt><trkpt lat="44.83387575715658" lon="13.98542409795152"><ele>1.0</ele><time>2026-05-01T14:19:38.999Z</time></trkpt><trkpt lat="44.83393447959591" lon="13.98528905205726"><ele>1.0</ele><time>2026-05-01T14:19:40.999Z</time></trkpt><trkpt lat="44.834016544797606" lon="13.985178821799915"><ele>1.0</ele><time>2026-05-01T14:19:42.999Z</time></trkpt><trkpt lat="44.83411042178816" lon="13.985083451157712"><ele>1.0</ele><time>2026-05-01T14:19:44.999Z</time></trkpt><trkpt lat="44.834211581184526" lon="13.985006028515528"><ele>1.0</ele><time>2026-05-01T14:19:46.999Z</time></trkpt><trkpt lat="44.83439044673113" lon="13.98493366277186"><ele>1.0</ele><time>2026-05-01T14:19:49.999Z</time></trkpt><trkpt lat="44.83450136852528" lon="13.984853509264733"><ele>1.0</ele><time>2026-05-01T14:19:51.999Z</time></trkpt><trkpt lat="44.834565980803106" lon="13.984830887335967"><ele>1.0</ele><time>2026-05-01T14:19:52.999Z</time></trkpt><trkpt lat="44.83462886908921" lon="13.984818592043036"><ele>1.0</ele><time>2026-05-01T14:19:53.999Z</time></trkpt><trkpt lat="44.834751082082164" lon="13.984798957132087"><ele>1.0</ele><time>2026-05-01T14:19:55.999Z</time></trkpt><trkpt lat="44.834870641683175" lon="13.984799609456825"><ele>1.0</ele><time>2026-05-01T14:19:57.999Z</time></trkpt><trkpt lat="44.834985820250516" lon="13.984830012507794"><ele>1.0</ele><time>2026-05-01T14:19:59.998Z</time></trkpt><trkpt lat="44.83508559558395" lon="13.984860815194688"><ele>1.0</ele><time>2026-05-01T14:20:01.999Z</time></trkpt><trkpt lat="44.83518400139318" lon="13.984826282371179"><ele>1.0</ele><time>2026-05-01T14:20:03.999Z</time></trkpt><trkpt lat="44.8352632072817" lon="13.98471961858313"><ele>1.0</ele><time>2026-05-01T14:20:05.999Z</time></trkpt><trkpt lat="44.835284535191136" lon="13.984562465468771"><ele>1.0</ele><time>2026-05-01T14:20:07.999Z</time></trkpt><trkpt lat="44.83528282466183" lon="13.984279288363465"><ele>0.9999999999999999</ele><time>2026-05-01T14:20:10.999Z</time></trkpt><trkpt lat="44.83528643482565" lon="13.984186602054235"><ele>1.0</ele><time>2026-05-01T14:20:11.999Z</time></trkpt><trkpt lat="44.83530575017723" lon="13.98410171234727"><ele>1.0</ele><time>2026-05-01T14:20:12.999Z</time></trkpt><trkpt lat="44.83534489906078" lon="13.984016071674496"><ele>1.0</ele><time>2026-05-01T14:20:13.999Z</time></trkpt><trkpt lat="44.83539012669938" lon="13.983934539115918"><ele>0.9999999999999999</ele><time>2026-05-01T14:20:14.999Z</time></trkpt><trkpt lat="44.83547631210601" lon="13.983830682948792"><ele>1.0</ele><time>2026-05-01T14:20:16.999Z</time></trkpt><trkpt lat="44.835587202799054" lon="13.98375809068812"><ele>1.0</ele><time>2026-05-01T14:20:18.999Z</time></trkpt><trkpt lat="44.835688299129245" lon="13.983662633104034"><ele>1.0</ele><time>2026-05-01T14:20:20.999Z</time></trkpt><trkpt lat="44.83576616007519" lon="13.983566500993067"><ele>1.0</ele><time>2026-05-01T14:20:22.999Z</time></trkpt><trkpt lat="44.835840390463034" lon="13.98346064942291"><ele>1.0</ele><time>2026-05-01T14:20:24.999Z</time></trkpt><trkpt lat="44.83588671782872" lon="13.98331205795485"><ele>1.0</ele><time>2026-05-01T14:20:26.999Z</time></trkpt><trkpt lat="44.8359079133446" lon="13.983223594158515"><ele>1.4</ele><time>2026-05-01T14:20:27.999Z</time></trkpt><trkpt lat="44.835915364877216" lon="13.983056531967986"><ele>1.8</ele><time>2026-05-01T14:20:29.999Z</time></trkpt><trkpt lat="44.835871604578806" lon="13.982802135813534"><ele>2.1999999999999997</ele><time>2026-05-01T14:20:32.999Z</time></trkpt><trkpt lat="44.83584555076584" lon="13.982715595581126"><ele>2.6</ele><time>2026-05-01T14:20:33.999Z</time></trkpt><trkpt lat="44.83581235431925" lon="13.982634028926787"><ele>3.0</ele><time>2026-05-01T14:20:34.999Z</time></trkpt><trkpt lat="44.835748619881215" lon="13.982492662535092"><ele>3.0</ele><time>2026-05-01T14:20:36.999Z</time></trkpt><trkpt lat="44.83571675305293" lon="13.982338091160806"><ele>3.0</ele><time>2026-05-01T14:20:38.999Z</time></trkpt><trkpt lat="44.83569821870503" lon="13.982174138381923"><ele>3.0</ele><time>2026-05-01T14:20:40.999Z</time></trkpt><trkpt lat="44.83569144294005" lon="13.982017916950724"><ele>3.0</ele><time>2026-05-01T14:20:42.999Z</time></trkpt><trkpt lat="44.83574250917933" lon="13.981893643836827"><ele>3.0</ele><time>2026-05-01T14:20:44.999Z</time></trkpt><trkpt lat="44.835854195186215" lon="13.981828699049487"><ele>3.0</ele><time>2026-05-01T14:20:46.999Z</time></trkpt><trkpt lat="44.835918575365916" lon="13.981824514072459"><ele>3.0</ele><time>2026-05-01T14:20:47.999Z</time></trkpt><trkpt lat="44.83603363416858" lon="13.981816823879837"><ele>3.0</ele><time>2026-05-01T14:20:49.999Z</time></trkpt><trkpt lat="44.83615045302935" lon="13.981821834742252"><ele>3.0</ele><time>2026-05-01T14:20:51.999Z</time></trkpt><trkpt lat="44.83629871335397" lon="13.981974764347573"><ele>2.4</ele><time>2026-05-01T14:20:55.999Z</time></trkpt><trkpt lat="44.83634608797243" lon="13.982039642970655"><ele>1.7999999999999998</ele><time>2026-05-01T14:20:58.999Z</time></trkpt><trkpt lat="44.83642673613522" lon="13.982067357350575"><ele>1.2</ele><time>2026-05-01T14:21:11.999Z</time></trkpt><trkpt lat="44.83650090588651" lon="13.98207561082831"><ele>0.6</ele><time>2026-05-01T14:21:14.999Z</time></trkpt><trkpt lat="44.83661392680536" lon="13.982310204970105"><ele>0.0</ele><time>2026-05-01T14:26:14.999Z</time></trkpt><trkpt lat="44.836577159181516" lon="13.982389978040427"><ele>0.0</ele><time>2026-05-01T14:26:23.999Z</time></trkpt><trkpt lat="44.83650245281234" lon="13.982154416403308"><ele>0.0</ele><time>2026-05-01T14:28:41.999Z</time></trkpt><trkpt lat="44.836405377258885" lon="13.982037683438959"><ele>0.0</ele><time>2026-05-01T14:29:41.999Z</time></trkpt><trkpt lat="44.83667482701543" lon="13.981939919249116"><ele>0.0</ele><time>2026-05-01T14:46:01.001Z</time></trkpt><trkpt lat="44.83670876125683" lon="13.981827182429615"><ele>0.0</ele><time>2026-05-01T14:46:03.001Z</time></trkpt><trkpt lat="44.836775979458075" lon="13.981709888554933"><ele>0.0</ele><time>2026-05-01T14:46:05.001Z</time></trkpt><trkpt lat="44.83686167634652" lon="13.981606683446849"><ele>0.0</ele><time>2026-05-01T14:46:07.001Z</time></trkpt><trkpt lat="44.83692111495915" lon="13.98154189701653"><ele>0.0</ele><time>2026-05-01T14:46:08.001Z</time></trkpt><trkpt lat="44.83697403860752" lon="13.981485144744443"><ele>0.0</ele><time>2026-05-01T14:46:09.001Z</time></trkpt><trkpt lat="44.837025793247285" lon="13.981417065393495"><ele>0.14285714285714285</ele><time>2026-05-01T14:46:10.001Z</time></trkpt><trkpt lat="44.83706507391568" lon="13.981335491055122"><ele>0.2857142857142857</ele><time>2026-05-01T14:46:11.001Z</time></trkpt><trkpt lat="44.837102759218816" lon="13.98124697233826"><ele>0.42857142857142855</ele><time>2026-05-01T14:46:12.001Z</time></trkpt><trkpt lat="44.83714583591534" lon="13.981164961138761"><ele>0.5714285714285714</ele><time>2026-05-01T14:46:13.001Z</time></trkpt><trkpt lat="44.83719309854412" lon="13.981075310466627"><ele>0.7142857142857142</ele><time>2026-05-01T14:46:14.001Z</time></trkpt><trkpt lat="44.837240914377176" lon="13.981000290350059"><ele>0.8571428571428571</ele><time>2026-05-01T14:46:15.001Z</time></trkpt><trkpt lat="44.8372897720855" lon="13.98092908994742"><ele>1.0</ele><time>2026-05-01T14:46:16.001Z</time></trkpt><trkpt lat="44.83740694977059" lon="13.98080742564707"><ele>1.0</ele><time>2026-05-01T14:46:18.001Z</time></trkpt><trkpt lat="44.83746262545489" lon="13.980746273074418"><ele>1.0</ele><time>2026-05-01T14:46:19.001Z</time></trkpt><trkpt lat="44.83750633548393" lon="13.980681867678223"><ele>1.0</ele><time>2026-05-01T14:46:20.001Z</time></trkpt><trkpt lat="44.83758396248852" lon="13.980563817234096"><ele>1.0</ele><time>2026-05-01T14:46:22.001Z</time></trkpt><trkpt lat="44.83763293399401" lon="13.980447884727216"><ele>1.0</ele><time>2026-05-01T14:46:24.001Z</time></trkpt><trkpt lat="44.83770318219842" lon="13.980330349018224"><ele>1.0</ele><time>2026-05-01T14:46:26.001Z</time></trkpt><trkpt lat="44.83776619209313" lon="13.98029440958702"><ele>0.9999999999999999</ele><time>2026-05-01T14:46:27.001Z</time></trkpt><trkpt lat="44.83783457119819" lon="13.980273180573532"><ele>1.0</ele><time>2026-05-01T14:46:28.001Z</time></trkpt><trkpt lat="44.837904837503515" lon="13.980261876179986"><ele>1.0</ele><time>2026-05-01T14:46:29.001Z</time></trkpt><trkpt lat="44.83797969394653" lon="13.980244464778838"><ele>0.9999999999999999</ele><time>2026-05-01T14:46:30.001Z</time></trkpt><trkpt lat="44.83804638259444" lon="13.980218011291377"><ele>1.0</ele><time>2026-05-01T14:46:31.001Z</time></trkpt><trkpt lat="44.83811569428497" lon="13.980181111023839"><ele>1.0</ele><time>2026-05-01T14:46:32.001Z</time></trkpt><trkpt lat="44.83819040049627" lon="13.98014060367628"><ele>1.0</ele><time>2026-05-01T14:46:33.001Z</time></trkpt><trkpt lat="44.83825733834495" lon="13.980113115362087"><ele>1.0</ele><time>2026-05-01T14:46:34.001Z</time></trkpt><trkpt lat="44.8383201885524" lon="13.980072094520681"><ele>1.0</ele><time>2026-05-01T14:46:35.001Z</time></trkpt><trkpt lat="44.8383832474528" lon="13.980017735024402"><ele>1.0</ele><time>2026-05-01T14:46:36.001Z</time></trkpt><trkpt lat="44.83844739433536" lon="13.979959617917414"><ele>1.0</ele><time>2026-05-01T14:46:37.001Z</time></trkpt><trkpt lat="44.83859037064231" lon="13.979825389390768"><ele>0.9999999999999999</ele><time>2026-05-01T14:46:39.001Z</time></trkpt><trkpt lat="44.83864863447609" lon="13.97976782136485"><ele>1.0</ele><time>2026-05-01T14:46:40.001Z</time></trkpt><trkpt lat="44.83870118730244" lon="13.979716890868483"><ele>1.0</ele><time>2026-05-01T14:46:41.001Z</time></trkpt><trkpt lat="44.83879577607727" lon="13.979659199666825"><ele>1.0</ele><time>2026-05-01T14:46:43.001Z</time></trkpt><trkpt lat="44.83888098747585" lon="13.979635988688617"><ele>0.9999999999999999</ele><time>2026-05-01T14:46:45.001Z</time></trkpt><trkpt lat="44.83895251791822" lon="13.979623156437334"><ele>1.0</ele><time>2026-05-01T14:46:47.001Z</time></trkpt><trkpt lat="44.839031887211554" lon="13.979619677950685"><ele>1.0</ele><time>2026-05-01T14:46:49.001Z</time></trkpt><trkpt lat="44.83910155464579" lon="13.979613762329759"><ele>1.0</ele><time>2026-05-01T14:46:51.001Z</time></trkpt><trkpt lat="44.8391917749402" lon="13.979602732904853"><ele>1.0</ele><time>2026-05-01T14:46:53.001Z</time></trkpt><trkpt lat="44.83930016905578" lon="13.979571487911835"><ele>1.0</ele><time>2026-05-01T14:46:55.001Z</time></trkpt><trkpt lat="44.839414943246865" lon="13.979506868041137"><ele>1.0</ele><time>2026-05-01T14:46:57.001Z</time></trkpt><trkpt lat="44.83952646164398" lon="13.979438744875063"><ele>0.8</ele><time>2026-05-01T14:46:59.001Z</time></trkpt><trkpt lat="44.839640047494186" lon="13.97931400674238"><ele>0.6000000000000001</ele><time>2026-05-01T14:47:01.001Z</time></trkpt><trkpt lat="44.83973622151511" lon="13.979205776690142"><ele>0.4</ele><time>2026-05-01T14:47:03.001Z</time></trkpt><trkpt lat="44.83978997367825" lon="13.979150366443342"><ele>0.2</ele><time>2026-05-01T14:47:04.001Z</time></trkpt><trkpt lat="44.8398816606948" lon="13.97905240046095"><ele>0.0</ele><time>2026-05-01T14:47:06.001Z</time></trkpt><trkpt lat="44.839954458675265" lon="13.978918596519092"><ele>0.6666666666666666</ele><time>2026-05-01T14:47:08.001Z</time></trkpt><trkpt lat="44.83998057896543" lon="13.97882681550816"><ele>1.3333333333333333</ele><time>2026-05-01T14:47:09.001Z</time></trkpt><trkpt lat="44.84000139720751" lon="13.978732441125102"><ele>2.0</ele><time>2026-05-01T14:47:10.001Z</time></trkpt><trkpt lat="44.84002186123473" lon="13.978632461916291"><ele>2.6666666666666665</ele><time>2026-05-01T14:47:11.001Z</time></trkpt><trkpt lat="44.84005241224317" lon="13.978492271846864"><ele>3.333333333333333</ele><time>2026-05-01T14:47:13.001Z</time></trkpt><trkpt lat="44.84007786314025" lon="13.978347658178917"><ele>4.0</ele><time>2026-05-01T14:47:15.001Z</time></trkpt><trkpt lat="44.84010671391847" lon="13.978197342048109"><ele>3.75</ele><time>2026-05-01T14:47:17.001Z</time></trkpt><trkpt lat="44.84016114103611" lon="13.97804709071484"><ele>3.5</ele><time>2026-05-01T14:47:19.001Z</time></trkpt><trkpt lat="44.84020047045005" lon="13.977902305845149"><ele>3.25</ele><time>2026-05-01T14:47:21.001Z</time></trkpt><trkpt lat="44.840359597291176" lon="13.977735055241528"><ele>3.0</ele><time>2026-05-01T14:47:25.001Z</time></trkpt><trkpt lat="44.84045788644231" lon="13.977780324916575"><ele>3.0</ele><time>2026-05-01T14:47:27.001Z</time></trkpt><trkpt lat="44.84055033517741" lon="13.97783383429023"><ele>3.0</ele><time>2026-05-01T14:47:29.001Z</time></trkpt><trkpt lat="44.84068592574262" lon="13.977866123757918"><ele>3.0</ele><time>2026-05-01T14:47:31.001Z</time></trkpt><trkpt lat="44.84078785559779" lon="13.977914248927048"><ele>3.0</ele><time>2026-05-01T14:47:33.001Z</time></trkpt><trkpt lat="44.84082879365673" lon="13.97800996764393"><ele>3.0</ele><time>2026-05-01T14:47:35.001Z</time></trkpt><trkpt lat="44.840856482751164" lon="13.97811875681503"><ele>3.0</ele><time>2026-05-01T14:47:37.001Z</time></trkpt><trkpt lat="44.84089313658741" lon="13.978219785582272"><ele>3.0</ele><time>2026-05-01T14:47:39.001Z</time></trkpt><trkpt lat="44.840933649746695" lon="13.978344971091907"><ele>3.0</ele><time>2026-05-01T14:47:41.001Z</time></trkpt><trkpt lat="44.8409813255921" lon="13.978457847293898"><ele>3.0</ele><time>2026-05-01T14:47:43.001Z</time></trkpt><trkpt lat="44.84116400519225" lon="13.97864688297591"><ele>2.8</ele><time>2026-05-01T14:47:47.001Z</time></trkpt><trkpt lat="44.841256774897275" lon="13.978698821512836"><ele>2.5999999999999996</ele><time>2026-05-01T14:47:48.001Z</time></trkpt><trkpt lat="44.84136320672021" lon="13.978761690721836"><ele>2.4000000000000004</ele><time>2026-05-01T14:47:49.001Z</time></trkpt><trkpt lat="44.841458029907706" lon="13.97881381050854"><ele>2.2</ele><time>2026-05-01T14:47:50.001Z</time></trkpt><trkpt lat="44.841546707841665" lon="13.978867793421664"><ele>2.0</ele><time>2026-05-01T14:47:51.001Z</time></trkpt><trkpt lat="44.8416313218156" lon="13.978922812339164"><ele>1.9999999999999998</ele><time>2026-05-01T14:47:52.001Z</time></trkpt><trkpt lat="44.841706984304636" lon="13.97897381446574"><ele>2.0</ele><time>2026-05-01T14:47:53.001Z</time></trkpt><trkpt lat="44.84177537028114" lon="13.97901906108655"><ele>2.0</ele><time>2026-05-01T14:47:54.001Z</time></trkpt><trkpt lat="44.841836353037756" lon="13.9790609879502"><ele>2.0</ele><time>2026-05-01T14:47:55.001Z</time></trkpt><trkpt lat="44.84190058266106" lon="13.979110984065821"><ele>1.9999999999999998</ele><time>2026-05-01T14:47:56.001Z</time></trkpt><trkpt lat="44.841972413371614" lon="13.979174147309624"><ele>2.0</ele><time>2026-05-01T14:47:57.001Z</time></trkpt><trkpt lat="44.84204413153224" lon="13.97923162847044"><ele>1.8333333333333333</ele><time>2026-05-01T14:47:58.001Z</time></trkpt><trkpt lat="44.842116203773614" lon="13.979259591210365"><ele>1.6666666666666665</ele><time>2026-05-01T14:47:59.001Z</time></trkpt><trkpt lat="44.84218903721923" lon="13.97926445471242"><ele>1.5</ele><time>2026-05-01T14:48:00.001Z</time></trkpt><trkpt lat="44.8422663769842" lon="13.97923487444707"><ele>1.3333333333333333</ele><time>2026-05-01T14:48:01.001Z</time></trkpt><trkpt lat="44.8423423582979" lon="13.979198707813326"><ele>1.1666666666666665</ele><time>2026-05-01T14:48:02.001Z</time></trkpt><trkpt lat="44.842407793871736" lon="13.979164102700638"><ele>1.0</ele><time>2026-05-01T14:48:03.001Z</time></trkpt><trkpt lat="44.842463799784454" lon="13.979098450180729"><ele>1.0</ele><time>2026-05-01T14:48:04.001Z</time></trkpt><trkpt lat="44.84255338234895" lon="13.978925884607099"><ele>1.0</ele><time>2026-05-01T14:48:06.001Z</time></trkpt><trkpt lat="44.842603012819346" lon="13.978841760072227"><ele>1.0</ele><time>2026-05-01T14:48:07.001Z</time></trkpt><trkpt lat="44.842643631906355" lon="13.978767462852684"><ele>1.0</ele><time>2026-05-01T14:48:08.001Z</time></trkpt><trkpt lat="44.84267113336219" lon="13.978613126040756"><ele>1.0</ele><time>2026-05-01T14:48:10.001Z</time></trkpt><trkpt lat="44.842749201543505" lon="13.97853194415166"><ele>1.4</ele><time>2026-05-01T14:48:12.001Z</time></trkpt><trkpt lat="44.84287199125067" lon="13.978538220694624"><ele>1.8</ele><time>2026-05-01T14:48:14.001Z</time></trkpt><trkpt lat="44.84294366842646" lon="13.978562504847934"><ele>2.1999999999999997</ele><time>2026-05-01T14:48:15.001Z</time></trkpt><trkpt lat="44.84301511798147" lon="13.978584944582108"><ele>2.6</ele><time>2026-05-01T14:48:16.001Z</time></trkpt><trkpt lat="44.843085822876134" lon="13.97860490796943"><ele>3.0</ele><time>2026-05-01T14:48:17.001Z</time></trkpt><trkpt lat="44.84318942555294" lon="13.978676823501266"><ele>2.9999999999999996</ele><time>2026-05-01T14:48:19.001Z</time></trkpt><trkpt lat="44.8432328747386" lon="13.978762109799368"><ele>3.0</ele><time>2026-05-01T14:48:20.001Z</time></trkpt><trkpt lat="44.84326560050248" lon="13.978857904649464"><ele>3.0</ele><time>2026-05-01T14:48:21.001Z</time></trkpt><trkpt lat="44.84330194189985" lon="13.978950631746402"><ele>3.0</ele><time>2026-05-01T14:48:22.001Z</time></trkpt><trkpt lat="44.84334490436305" lon="13.979019380876654"><ele>3.0</ele><time>2026-05-01T14:48:23.001Z</time></trkpt><trkpt lat="44.84339755877851" lon="13.979086368089598"><ele>2.9999999999999996</ele><time>2026-05-01T14:48:24.001Z</time></trkpt><trkpt lat="44.84345585186703" lon="13.97914946634839"><ele>3.0</ele><time>2026-05-01T14:48:25.001Z</time></trkpt><trkpt lat="44.84363330162464" lon="13.979299940775181"><ele>3.1666666666666665</ele><time>2026-05-01T14:48:28.001Z</time></trkpt><trkpt lat="44.84369961647539" lon="13.979355468742972"><ele>3.333333333333333</ele><time>2026-05-01T14:48:29.001Z</time></trkpt><trkpt lat="44.84376879605924" lon="13.979400172171298"><ele>3.5</ele><time>2026-05-01T14:48:30.001Z</time></trkpt><trkpt lat="44.84383537520457" lon="13.979451182928056"><ele>3.6666666666666665</ele><time>2026-05-01T14:48:31.001Z</time></trkpt><trkpt lat="44.84389360295613" lon="13.979498305331889"><ele>3.833333333333333</ele><time>2026-05-01T14:48:32.001Z</time></trkpt><trkpt lat="44.843980569057685" lon="13.979625708169433"><ele>4.0</ele><time>2026-05-01T14:48:34.001Z</time></trkpt><trkpt lat="44.84402007746603" lon="13.979703369145579"><ele>3.9999999999999996</ele><time>2026-05-01T14:48:35.001Z</time></trkpt><trkpt lat="44.844071922475905" lon="13.979766625162716"><ele>4.0</ele><time>2026-05-01T14:48:36.001Z</time></trkpt><trkpt lat="44.84413412625986" lon="13.979812031309674"><ele>4.0</ele><time>2026-05-01T14:48:37.001Z</time></trkpt><trkpt lat="44.84420388702517" lon="13.979845174971778"><ele>4.0</ele><time>2026-05-01T14:48:38.001Z</time></trkpt><trkpt lat="44.844272056015235" lon="13.979877926826102"><ele>3.9999999999999996</ele><time>2026-05-01T14:48:39.001Z</time></trkpt><trkpt lat="44.84435826356798" lon="13.979988954837793"><ele>4.0</ele><time>2026-05-01T14:48:41.001Z</time></trkpt><trkpt lat="44.84440556513888" lon="13.980067559410358"><ele>3.6</ele><time>2026-05-01T14:48:42.001Z</time></trkpt><trkpt lat="44.84444775473341" lon="13.98014460242735"><ele>3.2</ele><time>2026-05-01T14:48:43.001Z</time></trkpt><trkpt lat="44.84452640566154" lon="13.980282276767348"><ele>2.8000000000000003</ele><time>2026-05-01T14:48:45.001Z</time></trkpt><trkpt lat="44.84458262337939" lon="13.98034035195129"><ele>2.4000000000000004</ele><time>2026-05-01T14:48:46.001Z</time></trkpt><trkpt lat="44.844707723311885" lon="13.980424541312722"><ele>2.0</ele><time>2026-05-01T14:48:48.001Z</time></trkpt><trkpt lat="44.844775612344115" lon="13.980446430439395"><ele>1.9999999999999998</ele><time>2026-05-01T14:48:49.001Z</time></trkpt><trkpt lat="44.844841916253216" lon="13.980466599052976"><ele>2.0</ele><time>2026-05-01T14:48:50.001Z</time></trkpt><trkpt lat="44.844902180616174" lon="13.980501483018402"><ele>2.0</ele><time>2026-05-01T14:48:51.001Z</time></trkpt><trkpt lat="44.84495790506324" lon="13.9805603504595"><ele>2.0</ele><time>2026-05-01T14:48:52.001Z</time></trkpt><trkpt lat="44.84505474969056" lon="13.980681014106171"><ele>1.9999999999999998</ele><time>2026-05-01T14:48:54.001Z</time></trkpt><trkpt lat="44.845114884224856" lon="13.980727786906378"><ele>2.0</ele><time>2026-05-01T14:48:55.001Z</time></trkpt><trkpt lat="44.845179738206205" lon="13.980767878344928"><ele>1.8333333333333333</ele><time>2026-05-01T14:48:56.001Z</time></trkpt><trkpt lat="44.84524936316825" lon="13.98080222227562"><ele>1.6666666666666665</ele><time>2026-05-01T14:48:57.001Z</time></trkpt><trkpt lat="44.845323824607064" lon="13.980827787510345"><ele>1.5</ele><time>2026-05-01T14:48:58.001Z</time></trkpt><trkpt lat="44.84540852296829" lon="13.980850167046286"><ele>1.3333333333333333</ele><time>2026-05-01T14:48:59.001Z</time></trkpt><trkpt lat="44.84549622276257" lon="13.980879324818526"><ele>1.1666666666666665</ele><time>2026-05-01T14:49:00.001Z</time></trkpt><trkpt lat="44.845586875526884" lon="13.98090406053227"><ele>1.0</ele><time>2026-05-01T14:49:01.001Z</time></trkpt><trkpt lat="44.845672392978884" lon="13.98091520309123"><ele>0.9999999999999999</ele><time>2026-05-01T14:49:02.001Z</time></trkpt><trkpt lat="44.84575443763245" lon="13.980922316919253"><ele>1.0</ele><time>2026-05-01T14:49:03.001Z</time></trkpt><trkpt lat="44.845830486493774" lon="13.980923798267394"><ele>1.0</ele><time>2026-05-01T14:49:04.001Z</time></trkpt><trkpt lat="44.8459132344258" lon="13.980927527487616"><ele>1.0</ele><time>2026-05-01T14:49:05.001Z</time></trkpt><trkpt lat="44.84598639728791" lon="13.980930343583434"><ele>0.9999999999999999</ele><time>2026-05-01T14:49:06.001Z</time></trkpt><trkpt lat="44.846053108583135" lon="13.980932020246426"><ele>1.0</ele><time>2026-05-01T14:49:07.001Z</time></trkpt><trkpt lat="44.846183630027326" lon="13.98091467405934"><ele>1.0</ele><time>2026-05-01T14:49:09.001Z</time></trkpt><trkpt lat="44.8462934381357" lon="13.980881268692759"><ele>1.0</ele><time>2026-05-01T14:49:11.001Z</time></trkpt><trkpt lat="44.846423317273306" lon="13.980841923202338"><ele>1.0</ele><time>2026-05-01T14:49:13.001Z</time></trkpt><trkpt lat="44.84649976184525" lon="13.980847101962938"><ele>1.0</ele><time>2026-05-01T14:49:14.001Z</time></trkpt><trkpt lat="44.84656184786305" lon="13.980880141026299"><ele>1.0</ele><time>2026-05-01T14:49:15.001Z</time></trkpt><trkpt lat="44.846620830144325" lon="13.980931022875488"><ele>1.0</ele><time>2026-05-01T14:49:16.001Z</time></trkpt><trkpt lat="44.84668702216631" lon="13.98098097027915"><ele>0.9999999999999999</ele><time>2026-05-01T14:49:17.001Z</time></trkpt><trkpt lat="44.84675807896507" lon="13.981007655006678"><ele>1.0</ele><time>2026-05-01T14:49:18.001Z</time></trkpt><trkpt lat="44.846825397724345" lon="13.981017530956107"><ele>1.0</ele><time>2026-05-01T14:49:19.001Z</time></trkpt><trkpt lat="44.846899474354096" lon="13.98102053553717"><ele>0.9999999999999999</ele><time>2026-05-01T14:49:20.001Z</time></trkpt><trkpt lat="44.84698070621945" lon="13.981029288905962"><ele>1.0</ele><time>2026-05-01T14:49:21.001Z</time></trkpt><trkpt lat="44.84704825844672" lon="13.981047185087583"><ele>1.0</ele><time>2026-05-01T14:49:22.001Z</time></trkpt><trkpt lat="44.847115259828456" lon="13.98108562143268"><ele>1.2000000000000002</ele><time>2026-05-01T14:49:23.001Z</time></trkpt><trkpt lat="44.84718907168717" lon="13.981118256549722"><ele>1.4000000000000001</ele><time>2026-05-01T14:49:24.001Z</time></trkpt><trkpt lat="44.847270653588154" lon="13.98113520748045"><ele>1.6</ele><time>2026-05-01T14:49:25.001Z</time></trkpt><trkpt lat="44.84733887993804" lon="13.981135886843482"><ele>1.8</ele><time>2026-05-01T14:49:26.001Z</time></trkpt><trkpt lat="44.8474658868072" lon="13.981140574623623"><ele>2.0</ele><time>2026-05-01T14:49:28.001Z</time></trkpt><trkpt lat="44.8476147230495" lon="13.981206740044113"><ele>2.1666666666666665</ele><time>2026-05-01T14:49:30.001Z</time></trkpt><trkpt lat="44.847694803777415" lon="13.981241065026122"><ele>2.333333333333333</ele><time>2026-05-01T14:49:31.001Z</time></trkpt><trkpt lat="44.847779725851844" lon="13.98128381357153"><ele>2.5</ele><time>2026-05-01T14:49:32.001Z</time></trkpt><trkpt lat="44.847870146403075" lon="13.981334521871988"><ele>2.6666666666666665</ele><time>2026-05-01T14:49:33.001Z</time></trkpt><trkpt lat="44.847958264294974" lon="13.981376626284305"><ele>2.8333333333333335</ele><time>2026-05-01T14:49:34.001Z</time></trkpt><trkpt lat="44.8480308080621" lon="13.981413562166757"><ele>3.0</ele><time>2026-05-01T14:49:35.001Z</time></trkpt><trkpt lat="44.84810801610946" lon="13.98145392676093"><ele>3.0</ele><time>2026-05-01T14:49:36.001Z</time></trkpt><trkpt lat="44.84817902804562" lon="13.981498482852533"><ele>3.0</ele><time>2026-05-01T14:49:37.001Z</time></trkpt><trkpt lat="44.84824813443139" lon="13.981535888655348"><ele>3.0</ele><time>2026-05-01T14:49:38.001Z</time></trkpt><trkpt lat="44.84831471176309" lon="13.98157950605289"><ele>3.0</ele><time>2026-05-01T14:49:39.001Z</time></trkpt><trkpt lat="44.848370426294714" lon="13.981627126196493"><ele>3.0</ele><time>2026-05-01T14:49:40.001Z</time></trkpt><trkpt lat="44.84848145064905" lon="13.981680306645904"><ele>3.0</ele><time>2026-05-01T14:49:42.001Z</time></trkpt><trkpt lat="44.848545477952754" lon="13.981691579299161"><ele>2.6666666666666665</ele><time>2026-05-01T14:49:43.001Z</time></trkpt><trkpt lat="44.848611101697635" lon="13.981716947468215"><ele>2.3333333333333335</ele><time>2026-05-01T14:49:44.001Z</time></trkpt><trkpt lat="44.84872467026233" lon="13.981772242948372"><ele>2.0</ele><time>2026-05-01T14:49:46.001Z</time></trkpt><trkpt lat="44.84879382096518" lon="13.981779735345068"><ele>1.6666666666666665</ele><time>2026-05-01T14:49:47.001Z</time></trkpt><trkpt lat="44.848866437697296" lon="13.981769043360751"><ele>1.3333333333333333</ele><time>2026-05-01T14:49:48.001Z</time></trkpt><trkpt lat="44.84893680387195" lon="13.981747235949541"><ele>1.0</ele><time>2026-05-01T14:49:49.001Z</time></trkpt><trkpt lat="44.849151845917575" lon="13.981768697559609"><ele>1.0</ele><time>2026-05-01T14:49:53.001Z</time></trkpt><trkpt lat="44.84923671217179" lon="13.981729677790263"><ele>1.0</ele><time>2026-05-01T14:49:55.001Z</time></trkpt><trkpt lat="44.84932436099792" lon="13.981619173802116"><ele>1.0</ele><time>2026-05-01T14:49:57.001Z</time></trkpt><trkpt lat="44.849427816756204" lon="13.98151398434332"><ele>1.0</ele><time>2026-05-01T14:49:59.001Z</time></trkpt><trkpt lat="44.849498926341354" lon="13.981465871047766"><ele>1.0</ele><time>2026-05-01T14:50:00.001Z</time></trkpt><trkpt lat="44.84957246236121" lon="13.98141864571027"><ele>1.8</ele><time>2026-05-01T14:50:01.001Z</time></trkpt><trkpt lat="44.84969076809557" lon="13.981371425359942"><ele>2.6</ele><time>2026-05-01T14:50:03.001Z</time></trkpt><trkpt lat="44.84979631236899" lon="13.981321177815927"><ele>3.4</ele><time>2026-05-01T14:50:05.001Z</time></trkpt><trkpt lat="44.84986952215284" lon="13.981246058295028"><ele>4.2</ele><time>2026-05-01T14:50:07.001Z</time></trkpt><trkpt lat="44.84996242700705" lon="13.981236667070892"><ele>5.0</ele><time>2026-05-01T14:50:10.001Z</time></trkpt><trkpt lat="44.850076219326695" lon="13.981336977108407"><ele>4.8</ele><time>2026-05-01T14:50:12.001Z</time></trkpt><trkpt lat="44.85018085119047" lon="13.98140834538916"><ele>4.6</ele><time>2026-05-01T14:50:14.001Z</time></trkpt><trkpt lat="44.850255081086075" lon="13.981437366623323"><ele>4.4</ele><time>2026-05-01T14:50:15.001Z</time></trkpt><trkpt lat="44.85034696029641" lon="13.981454114375277"><ele>4.2</ele><time>2026-05-01T14:50:16.001Z</time></trkpt><trkpt lat="44.850438961373314" lon="13.981454892177545"><ele>4.0</ele><time>2026-05-01T14:50:17.001Z</time></trkpt><trkpt lat="44.85053245726907" lon="13.981441978461135"><ele>4.0</ele><time>2026-05-01T14:50:18.001Z</time></trkpt><trkpt lat="44.850625723532296" lon="13.981435145036585"><ele>4.0</ele><time>2026-05-01T14:50:19.001Z</time></trkpt><trkpt lat="44.85072252519089" lon="13.981435628918533"><ele>4.0</ele><time>2026-05-01T14:50:20.001Z</time></trkpt><trkpt lat="44.85081745640065" lon="13.981432500310442"><ele>4.0</ele><time>2026-05-01T14:50:21.001Z</time></trkpt><trkpt lat="44.85090875908929" lon="13.981412226883068"><ele>4.0</ele><time>2026-05-01T14:50:22.001Z</time></trkpt><trkpt lat="44.850986835843464" lon="13.98136895316564"><ele>3.833333333333333</ele><time>2026-05-01T14:50:23.001Z</time></trkpt><trkpt lat="44.851063752455815" lon="13.981317766513742"><ele>3.6666666666666665</ele><time>2026-05-01T14:50:24.001Z</time></trkpt><trkpt lat="44.85115088647852" lon="13.981272443867812"><ele>3.5</ele><time>2026-05-01T14:50:25.001Z</time></trkpt><trkpt lat="44.85123385964194" lon="13.981241088946303"><ele>3.333333333333333</ele><time>2026-05-01T14:50:26.001Z</time></trkpt><trkpt lat="44.851312435046644" lon="13.981206018619138"><ele>3.1666666666666665</ele><time>2026-05-01T14:50:27.001Z</time></trkpt><trkpt lat="44.851384692302695" lon="13.98116256466839"><ele>3.0</ele><time>2026-05-01T14:50:28.001Z</time></trkpt><trkpt lat="44.85145400706877" lon="13.981126980106747"><ele>3.0</ele><time>2026-05-01T14:50:29.001Z</time></trkpt><trkpt lat="44.85152618166003" lon="13.98110849628797"><ele>3.0</ele><time>2026-05-01T14:50:30.001Z</time></trkpt><trkpt lat="44.851597137331126" lon="13.981104735794416"><ele>3.0</ele><time>2026-05-01T14:50:31.001Z</time></trkpt><trkpt lat="44.8517231548877" lon="13.981075822714214"><ele>3.0</ele><time>2026-05-01T14:50:33.001Z</time></trkpt><trkpt lat="44.851791670336404" lon="13.981057070909293"><ele>3.0</ele><time>2026-05-01T14:50:34.001Z</time></trkpt><trkpt lat="44.85186074047019" lon="13.981048225922683"><ele>3.0</ele><time>2026-05-01T14:50:35.001Z</time></trkpt><trkpt lat="44.85198302994984" lon="13.981070414473516"><ele>2.8333333333333335</ele><time>2026-05-01T14:50:37.001Z</time></trkpt><trkpt lat="44.85204875252746" lon="13.981074960753105"><ele>2.6666666666666665</ele><time>2026-05-01T14:50:38.001Z</time></trkpt><trkpt lat="44.85211406777553" lon="13.98105919032614"><ele>2.5</ele><time>2026-05-01T14:50:39.001Z</time></trkpt><trkpt lat="44.8521806028349" lon="13.981027407584888"><ele>2.333333333333333</ele><time>2026-05-01T14:50:40.001Z</time></trkpt><trkpt lat="44.8522451277175" lon="13.980995410910676"><ele>2.1666666666666665</ele><time>2026-05-01T14:50:41.001Z</time></trkpt><trkpt lat="44.85236339335519" lon="13.980955038873882"><ele>2.0</ele><time>2026-05-01T14:50:43.001Z</time></trkpt><trkpt lat="44.85244808451429" lon="13.980870962819294"><ele>2.0</ele><time>2026-05-01T14:50:45.001Z</time></trkpt><trkpt lat="44.852525936289474" lon="13.980812013259374"><ele>2.0</ele><time>2026-05-01T14:50:47.001Z</time></trkpt><trkpt lat="44.852643805340016" lon="13.980773541408688"><ele>2.0</ele><time>2026-05-01T14:50:49.001Z</time></trkpt><trkpt lat="44.852702667855944" lon="13.980724140882911"><ele>2.0</ele><time>2026-05-01T14:50:50.001Z</time></trkpt><trkpt lat="44.85275805413956" lon="13.980675845138292"><ele>2.0</ele><time>2026-05-01T14:50:51.001Z</time></trkpt><trkpt lat="44.852869708137696" lon="13.980630363465169"><ele>2.0</ele><time>2026-05-01T14:50:53.001Z</time></trkpt><trkpt lat="44.853079937479976" lon="13.980494090852494"><ele>2.0</ele><time>2026-05-01T14:50:57.001Z</time></trkpt><trkpt lat="44.853159442374356" lon="13.980409487121749"><ele>2.0</ele><time>2026-05-01T14:50:59.001Z</time></trkpt><trkpt lat="44.853257694632084" lon="13.980361013118946"><ele>2.0</ele><time>2026-05-01T14:51:01.001Z</time></trkpt><trkpt lat="44.853321503094634" lon="13.980342841476366"><ele>1.9999999999999998</ele><time>2026-05-01T14:51:02.001Z</time></trkpt><trkpt lat="44.85338924877971" lon="13.980340922131834"><ele>2.0</ele><time>2026-05-01T14:51:03.001Z</time></trkpt><trkpt lat="44.85345282125262" lon="13.980354427028496"><ele>2.0</ele><time>2026-05-01T14:51:04.001Z</time></trkpt><trkpt lat="44.853519647149376" lon="13.98037472820738"><ele>2.0</ele><time>2026-05-01T14:51:05.001Z</time></trkpt><trkpt lat="44.853586475344606" lon="13.98040038540033"><ele>1.9999999999999998</ele><time>2026-05-01T14:51:06.001Z</time></trkpt><trkpt lat="44.85369412232561" lon="13.980424570693378"><ele>2.0</ele><time>2026-05-01T14:51:08.001Z</time></trkpt><trkpt lat="44.85378357425566" lon="13.980467036921727"><ele>4.0</ele><time>2026-05-01T14:51:10.001Z</time></trkpt><trkpt lat="44.85389017908074" lon="13.98051182628713"><ele>6.0</ele><time>2026-05-01T14:51:12.001Z</time></trkpt><trkpt lat="44.85399679975293" lon="13.980533914599235"><ele>8.0</ele><time>2026-05-01T14:51:14.001Z</time></trkpt><trkpt lat="44.85407024396617" lon="13.980784413323718"><ele>10.0</ele><time>2026-05-01T14:51:18.001Z</time></trkpt><trkpt lat="44.85403200082423" lon="13.980905245799322"><ele>10.75</ele><time>2026-05-01T14:51:20.001Z</time></trkpt><trkpt lat="44.85400699558133" lon="13.981073364010177"><ele>11.5</ele><time>2026-05-01T14:51:22.001Z</time></trkpt><trkpt lat="44.85400653678718" lon="13.981230534393204"><ele>12.25</ele><time>2026-05-01T14:51:24.001Z</time></trkpt><trkpt lat="44.853971341302405" lon="13.981350430980049"><ele>13.0</ele><time>2026-05-01T14:51:26.001Z</time></trkpt><trkpt lat="44.85385285174195" lon="13.981441398259358"><ele>12.999999999999998</ele><time>2026-05-01T14:51:28.001Z</time></trkpt><trkpt lat="44.85377485024994" lon="13.981489531259365"><ele>13.0</ele><time>2026-05-01T14:51:29.001Z</time></trkpt><trkpt lat="44.853688061166196" lon="13.981535856328184"><ele>13.0</ele><time>2026-05-01T14:51:30.001Z</time></trkpt><trkpt lat="44.85359849851292" lon="13.981574724959353"><ele>13.0</ele><time>2026-05-01T14:51:31.001Z</time></trkpt><trkpt lat="44.853520610042224" lon="13.981621994026332"><ele>12.999999999999998</ele><time>2026-05-01T14:51:32.001Z</time></trkpt><trkpt lat="44.85345002862988" lon="13.981698535450956"><ele>13.0</ele><time>2026-05-01T14:51:33.001Z</time></trkpt><trkpt lat="44.853394540362686" lon="13.981775539390268"><ele>12.0</ele><time>2026-05-01T14:51:34.001Z</time></trkpt><trkpt lat="44.85335750360375" lon="13.981856923229309"><ele>11.0</ele><time>2026-05-01T14:51:35.001Z</time></trkpt><trkpt lat="44.85327362510928" lon="13.982010212525287"><ele>10.0</ele><time>2026-05-01T14:51:37.001Z</time></trkpt><trkpt lat="44.85322424292842" lon="13.982071381973281"><ele>9.0</ele><time>2026-05-01T14:51:38.001Z</time></trkpt><trkpt lat="44.8531489180904" lon="13.982205292250764"><ele>8.0</ele><time>2026-05-01T14:51:40.001Z</time></trkpt><trkpt lat="44.853104208460536" lon="13.982316867504856"><ele>8.0</ele><time>2026-05-01T14:51:42.001Z</time></trkpt><trkpt lat="44.85302598869146" lon="13.982440223155091"><ele>8.0</ele><time>2026-05-01T14:51:44.001Z</time></trkpt><trkpt lat="44.852952463600545" lon="13.982542096127245"><ele>8.0</ele><time>2026-05-01T14:51:46.001Z</time></trkpt><trkpt lat="44.85288658055751" lon="13.982634905353633"><ele>8.0</ele><time>2026-05-01T14:51:48.001Z</time></trkpt><trkpt lat="44.852829945757875" lon="13.982764641567373"><ele>8.0</ele><time>2026-05-01T14:51:50.001Z</time></trkpt><trkpt lat="44.852846982108915" lon="13.982935706000083"><ele>7.0</ele><time>2026-05-01T14:51:52.001Z</time></trkpt><trkpt lat="44.852863443080125" lon="13.983026932140474"><ele>6.0</ele><time>2026-05-01T14:51:53.001Z</time></trkpt><trkpt lat="44.85291657858484" lon="13.983170923012601"><ele>5.0</ele><time>2026-05-01T14:51:55.001Z</time></trkpt><trkpt lat="44.85298638339351" lon="13.983232478791694"><ele>4.0</ele><time>2026-05-01T14:51:56.001Z</time></trkpt><trkpt lat="44.85313310153136" lon="13.983412481143935"><ele>3.4000000000000004</ele><time>2026-05-01T14:51:58.001Z</time></trkpt><trkpt lat="44.85320399317078" lon="13.983549492802524"><ele>2.8000000000000003</ele><time>2026-05-01T14:52:00.001Z</time></trkpt><trkpt lat="44.85322244025175" lon="13.983638748586905"><ele>2.2</ele><time>2026-05-01T14:52:01.001Z</time></trkpt><trkpt lat="44.85325279466867" lon="13.98371812508674"><ele>1.6</ele><time>2026-05-01T14:52:02.001Z</time></trkpt><trkpt lat="44.85336992370878" lon="13.983803657583723"><ele>1.0</ele><time>2026-05-01T14:52:04.001Z</time></trkpt><trkpt lat="44.85344517781786" lon="13.983824155187692"><ele>1.6</ele><time>2026-05-01T14:52:05.001Z</time></trkpt><trkpt lat="44.85351360035652" lon="13.983843900309143"><ele>2.2</ele><time>2026-05-01T14:52:06.001Z</time></trkpt><trkpt lat="44.8536164697246" lon="13.983884918115313"><ele>2.8000000000000003</ele><time>2026-05-01T14:52:08.001Z</time></trkpt><trkpt lat="44.853724116462146" lon="13.983823936476863"><ele>3.4000000000000004</ele><time>2026-05-01T14:52:10.001Z</time></trkpt><trkpt lat="44.853793438721745" lon="13.983777398036935"><ele>4.0</ele><time>2026-05-01T14:52:11.001Z</time></trkpt><trkpt lat="44.8538745317778" lon="13.983762565376752"><ele>3.9999999999999996</ele><time>2026-05-01T14:52:12.001Z</time></trkpt><trkpt lat="44.85395802509322" lon="13.983770446226234"><ele>4.0</ele><time>2026-05-01T14:52:13.001Z</time></trkpt><trkpt lat="44.85403534938029" lon="13.98380095237274"><ele>4.0</ele><time>2026-05-01T14:52:14.001Z</time></trkpt><trkpt lat="44.854111777918874" lon="13.983849388686638"><ele>4.0</ele><time>2026-05-01T14:52:15.001Z</time></trkpt><trkpt lat="44.854190009537874" lon="13.983906470654347"><ele>3.9999999999999996</ele><time>2026-05-01T14:52:16.001Z</time></trkpt><trkpt lat="44.85425999041981" lon="13.983955483021013"><ele>4.0</ele><time>2026-05-01T14:52:17.001Z</time></trkpt><trkpt lat="44.85440522582655" lon="13.984041544828074"><ele>5.0</ele><time>2026-05-01T14:52:19.001Z</time></trkpt><trkpt lat="44.854527900265666" lon="13.984122430007194"><ele>6.0</ele><time>2026-05-01T14:52:21.001Z</time></trkpt><trkpt lat="44.85458589087813" lon="13.984197240094662"><ele>7.0</ele><time>2026-05-01T14:52:22.001Z</time></trkpt><trkpt lat="44.85463875986071" lon="13.984265454577812"><ele>8.0</ele><time>2026-05-01T14:52:23.001Z</time></trkpt><trkpt lat="44.854684566686124" lon="13.984343538232743"><ele>9.0</ele><time>2026-05-01T14:52:24.001Z</time></trkpt><trkpt lat="44.85471906794345" lon="13.984438229011499"><ele>10.0</ele><time>2026-05-01T14:52:25.001Z</time></trkpt><trkpt lat="44.85473385599979" lon="13.984550345559427"><ele>10.0</ele><time>2026-05-01T14:52:26.001Z</time></trkpt><trkpt lat="44.85473314219616" lon="13.98466976473467"><ele>10.0</ele><time>2026-05-01T14:52:27.001Z</time></trkpt><trkpt lat="44.85473461711898" lon="13.984789970327308"><ele>10.0</ele><time>2026-05-01T14:52:28.001Z</time></trkpt><trkpt lat="44.85473556672686" lon="13.984899251988343"><ele>10.0</ele><time>2026-05-01T14:52:29.001Z</time></trkpt><trkpt lat="44.854739327325404" lon="13.985011300633031"><ele>10.0</ele><time>2026-05-01T14:52:30.001Z</time></trkpt><trkpt lat="44.85474180384677" lon="13.985122573710205"><ele>10.0</ele><time>2026-05-01T14:52:31.001Z</time></trkpt><trkpt lat="44.85473718844253" lon="13.985211316905856"><ele>9.4</ele><time>2026-05-01T14:52:32.001Z</time></trkpt><trkpt lat="44.85472543588492" lon="13.985366972306627"><ele>8.8</ele><time>2026-05-01T14:52:34.001Z</time></trkpt><trkpt lat="44.85473989785093" lon="13.985520347852312"><ele>8.2</ele><time>2026-05-01T14:52:36.001Z</time></trkpt><trkpt lat="44.85475643806928" lon="13.98560759229407"><ele>7.6</ele><time>2026-05-01T14:52:37.001Z</time></trkpt><trkpt lat="44.854771735792674" lon="13.985699635284936"><ele>7.0</ele><time>2026-05-01T14:52:38.001Z</time></trkpt><trkpt lat="44.85487319224851" lon="13.985925592810425"><ele>6.8</ele><time>2026-05-01T14:52:41Z</time></trkpt><trkpt lat="44.85493053304095" lon="13.98598791852667"><ele>6.6</ele><time>2026-05-01T14:52:42Z</time></trkpt><trkpt lat="44.85498753881787" lon="13.986039495756291"><ele>6.3999999999999995</ele><time>2026-05-01T14:52:43Z</time></trkpt><trkpt lat="44.85508388183285" lon="13.986128535748874"><ele>6.199999999999999</ele><time>2026-05-01T14:52:45Z</time></trkpt><trkpt lat="44.85513843427247" lon="13.986282842136681"><ele>6.0</ele><time>2026-05-01T14:52:47Z</time></trkpt><trkpt lat="44.85512996756652" lon="13.986449844255013"><ele>6.0</ele><time>2026-05-01T14:52:49Z</time></trkpt><trkpt lat="44.855113483599936" lon="13.98661452573802"><ele>6.0</ele><time>2026-05-01T14:52:51Z</time></trkpt><trkpt lat="44.85507501684753" lon="13.986788204259309"><ele>6.0</ele><time>2026-05-01T14:52:53Z</time></trkpt><trkpt lat="44.85503012488966" lon="13.986865012874247"><ele>6.0</ele><time>2026-05-01T14:52:54Z</time></trkpt><trkpt lat="44.85499409631991" lon="13.986955046028571"><ele>6.0</ele><time>2026-05-01T14:52:55Z</time></trkpt><trkpt lat="44.85497225696423" lon="13.987060167408245"><ele>5.666666666666667</ele><time>2026-05-01T14:52:56Z</time></trkpt><trkpt lat="44.854968547626875" lon="13.987151002582255"><ele>5.333333333333333</ele><time>2026-05-01T14:52:57Z</time></trkpt><trkpt lat="44.85497856557786" lon="13.987246606347506"><ele>5.0</ele><time>2026-05-01T14:52:58Z</time></trkpt><trkpt lat="44.85499134157374" lon="13.98734962368433"><ele>4.666666666666666</ele><time>2026-05-01T14:52:59Z</time></trkpt><trkpt lat="44.8550281981077" lon="13.987561406112201"><ele>4.333333333333333</ele><time>2026-05-01T14:53:01Z</time></trkpt><trkpt lat="44.855045766541515" lon="13.987661597337917"><ele>4.0</ele><time>2026-05-01T14:53:02Z</time></trkpt><trkpt lat="44.85506879472378" lon="13.987762153748934"><ele>4.0</ele><time>2026-05-01T14:53:03Z</time></trkpt><trkpt lat="44.85509704579001" lon="13.987849021236116"><ele>3.9999999999999996</ele><time>2026-05-01T14:53:04Z</time></trkpt><trkpt lat="44.85511821808442" lon="13.987939613514438"><ele>4.0</ele><time>2026-05-01T14:53:05Z</time></trkpt><trkpt lat="44.8551275536124" lon="13.98804027783251"><ele>4.0</ele><time>2026-05-01T14:53:06Z</time></trkpt><trkpt lat="44.85512804962854" lon="13.98814506581612"><ele>3.9999999999999996</ele><time>2026-05-01T14:53:07Z</time></trkpt><trkpt lat="44.855131087274735" lon="13.988261104667693"><ele>4.0</ele><time>2026-05-01T14:53:08Z</time></trkpt><trkpt lat="44.855139329287354" lon="13.98837641812528"><ele>4.0</ele><time>2026-05-01T14:53:09Z</time></trkpt><trkpt lat="44.855157473540345" lon="13.988478949770872"><ele>5.333333333333333</ele><time>2026-05-01T14:53:10Z</time></trkpt><trkpt lat="44.855180492589774" lon="13.988582194001493"><ele>6.666666666666666</ele><time>2026-05-01T14:53:11Z</time></trkpt><trkpt lat="44.855218677991395" lon="13.988680465054577"><ele>8.0</ele><time>2026-05-01T14:53:12Z</time></trkpt><trkpt lat="44.85525888399106" lon="13.988781332282871"><ele>9.333333333333334</ele><time>2026-05-01T14:53:13Z</time></trkpt><trkpt lat="44.85529815043241" lon="13.988878960201264"><ele>10.666666666666666</ele><time>2026-05-01T14:53:14Z</time></trkpt><trkpt lat="44.8553438212952" lon="13.9889629003592"><ele>12.0</ele><time>2026-05-01T14:53:15Z</time></trkpt><trkpt lat="44.85538584930301" lon="13.989043833140178"><ele>12.0</ele><time>2026-05-01T14:53:16Z</time></trkpt><trkpt lat="44.85543836386003" lon="13.989128403871748"><ele>12.0</ele><time>2026-05-01T14:53:17Z</time></trkpt><trkpt lat="44.855503126414874" lon="13.989236320841217"><ele>12.0</ele><time>2026-05-01T14:53:18Z</time></trkpt><trkpt lat="44.85557849758137" lon="13.989329360672336"><ele>12.0</ele><time>2026-05-01T14:53:19Z</time></trkpt><trkpt lat="44.855643942757105" lon="13.989411857129504"><ele>12.0</ele><time>2026-05-01T14:53:20Z</time></trkpt><trkpt lat="44.85576454810414" lon="13.989586643147751"><ele>12.166666666666666</ele><time>2026-05-01T14:53:22Z</time></trkpt><trkpt lat="44.85582151078169" lon="13.989690391449496"><ele>12.333333333333332</ele><time>2026-05-01T14:53:23Z</time></trkpt><trkpt lat="44.855877818272134" lon="13.989794992595286"><ele>12.5</ele><time>2026-05-01T14:53:24Z</time></trkpt><trkpt lat="44.855927879832485" lon="13.989896395717361"><ele>12.666666666666666</ele><time>2026-05-01T14:53:25Z</time></trkpt><trkpt lat="44.855976259178256" lon="13.989984231443632"><ele>12.833333333333332</ele><time>2026-05-01T14:53:26Z</time></trkpt><trkpt lat="44.856022994496726" lon="13.990069145887164"><ele>13.0</ele><time>2026-05-01T14:53:27Z</time></trkpt><trkpt lat="44.856067980866555" lon="13.990158163987294"><ele>11.666666666666666</ele><time>2026-05-01T14:53:28Z</time></trkpt><trkpt lat="44.85610268716756" lon="13.990244446024622"><ele>10.333333333333332</ele><time>2026-05-01T14:53:29Z</time></trkpt><trkpt lat="44.85613040262483" lon="13.990329590593252"><ele>9.0</ele><time>2026-05-01T14:53:30Z</time></trkpt><trkpt lat="44.856193708381554" lon="13.990469523190704"><ele>7.666666666666666</ele><time>2026-05-01T14:53:32.001Z</time></trkpt><trkpt lat="44.856296874547674" lon="13.990559475745961"><ele>6.333333333333334</ele><time>2026-05-01T14:53:34.001Z</time></trkpt><trkpt lat="44.856364179584304" lon="13.990593213810604"><ele>5.0</ele><time>2026-05-01T14:53:35.001Z</time></trkpt><trkpt lat="44.856435244212534" lon="13.99063248579906"><ele>5.0</ele><time>2026-05-01T14:53:36.001Z</time></trkpt><trkpt lat="44.85650189207339" lon="13.990682538865393"><ele>5.0</ele><time>2026-05-01T14:53:37.001Z</time></trkpt><trkpt lat="44.85656273238222" lon="13.990747010042353"><ele>5.0</ele><time>2026-05-01T14:53:38.001Z</time></trkpt><trkpt lat="44.85662189706051" lon="13.99083365097324"><ele>5.0</ele><time>2026-05-01T14:53:39.001Z</time></trkpt><trkpt lat="44.856685649435825" lon="13.990919028676576"><ele>5.0</ele><time>2026-05-01T14:53:40.001Z</time></trkpt><trkpt lat="44.85674237978029" lon="13.99098818872517"><ele>5.0</ele><time>2026-05-01T14:53:41.001Z</time></trkpt><trkpt lat="44.856852570294784" lon="13.991097903969152"><ele>4.666666666666667</ele><time>2026-05-01T14:53:43.001Z</time></trkpt><trkpt lat="44.85691279902368" lon="13.991135971169811"><ele>4.333333333333334</ele><time>2026-05-01T14:53:44.001Z</time></trkpt><trkpt lat="44.85699097152628" lon="13.991153986646754"><ele>4.0</ele><time>2026-05-01T14:53:45.001Z</time></trkpt><trkpt lat="44.85706880197993" lon="13.991161242306323"><ele>3.666666666666667</ele><time>2026-05-01T14:53:46.001Z</time></trkpt><trkpt lat="44.85715317314879" lon="13.991182193801619"><ele>3.3333333333333335</ele><time>2026-05-01T14:53:47.001Z</time></trkpt><trkpt lat="44.85724632224146" lon="13.991213890927119"><ele>3.0</ele><time>2026-05-01T14:53:48.001Z</time></trkpt><trkpt lat="44.857343843419066" lon="13.991241051201332"><ele>3.0</ele><time>2026-05-01T14:53:49.001Z</time></trkpt><trkpt lat="44.85744572157485" lon="13.991261713739094"><ele>3.0</ele><time>2026-05-01T14:53:50.001Z</time></trkpt><trkpt lat="44.857557996806186" lon="13.99127668577533"><ele>3.0</ele><time>2026-05-01T14:53:51.001Z</time></trkpt><trkpt lat="44.85767086620615" lon="13.991288564566343"><ele>3.0</ele><time>2026-05-01T14:53:52.001Z</time></trkpt><trkpt lat="44.85777105256302" lon="13.991295166701521"><ele>3.0</ele><time>2026-05-01T14:53:53.001Z</time></trkpt><trkpt lat="44.85786019760582" lon="13.991300464891074"><ele>2.8</ele><time>2026-05-01T14:53:54.001Z</time></trkpt><trkpt lat="44.85794504996353" lon="13.991304143709149"><ele>2.5999999999999996</ele><time>2026-05-01T14:53:55.001Z</time></trkpt><trkpt lat="44.85803735222766" lon="13.99132638492693"><ele>2.4000000000000004</ele><time>2026-05-01T14:53:56.001Z</time></trkpt><trkpt lat="44.85812952283043" lon="13.99135723630363"><ele>2.2</ele><time>2026-05-01T14:53:57.001Z</time></trkpt><trkpt lat="44.85822356823617" lon="13.991398788912571"><ele>2.0</ele><time>2026-05-01T14:53:58.001Z</time></trkpt><trkpt lat="44.85830686664025" lon="13.991431100598358"><ele>1.9999999999999998</ele><time>2026-05-01T14:53:59.001Z</time></trkpt><trkpt lat="44.858383519391694" lon="13.9914556170498"><ele>2.0</ele><time>2026-05-01T14:54:00.001Z</time></trkpt><trkpt lat="44.858452675504594" lon="13.991463589769253"><ele>2.0</ele><time>2026-05-01T14:54:01.001Z</time></trkpt><trkpt lat="44.858523011739784" lon="13.991455341621384"><ele>2.0</ele><time>2026-05-01T14:54:02.001Z</time></trkpt><trkpt lat="44.85866377888778" lon="13.991415534147686"><ele>1.9999999999999998</ele><time>2026-05-01T14:54:04.001Z</time></trkpt><trkpt lat="44.858742697887934" lon="13.991408541805827"><ele>2.0</ele><time>2026-05-01T14:54:05.001Z</time></trkpt><trkpt lat="44.858820728488226" lon="13.991397915562723"><ele>2.2</ele><time>2026-05-01T14:54:06.001Z</time></trkpt><trkpt lat="44.858904518691254" lon="13.991386181743307"><ele>2.4000000000000004</ele><time>2026-05-01T14:54:07.001Z</time></trkpt><trkpt lat="44.85899573949733" lon="13.99138159099835"><ele>2.5999999999999996</ele><time>2026-05-01T14:54:08.001Z</time></trkpt><trkpt lat="44.85908816331199" lon="13.991381749718869"><ele>2.8</ele><time>2026-05-01T14:54:09.001Z</time></trkpt><trkpt lat="44.859181026772404" lon="13.991384992457766"><ele>3.0</ele><time>2026-05-01T14:54:10.001Z</time></trkpt><trkpt lat="44.859270153550376" lon="13.991390202904002"><ele>3.0</ele><time>2026-05-01T14:54:11.001Z</time></trkpt><trkpt lat="44.85935384287461" lon="13.991400658839646"><ele>3.0</ele><time>2026-05-01T14:54:12.001Z</time></trkpt><trkpt lat="44.859440843674385" lon="13.99140909299149"><ele>3.0</ele><time>2026-05-01T14:54:13.001Z</time></trkpt><trkpt lat="44.85952746829799" lon="13.99141569164341"><ele>3.0</ele><time>2026-05-01T14:54:14.001Z</time></trkpt><trkpt lat="44.859600624658704" lon="13.991436249124057"><ele>3.0</ele><time>2026-05-01T14:54:15.001Z</time></trkpt><trkpt lat="44.85967517681235" lon="13.991452146945822"><ele>3.0</ele><time>2026-05-01T14:54:16.001Z</time></trkpt><trkpt lat="44.85975706544037" lon="13.99144262721142"><ele>3.0</ele><time>2026-05-01T14:54:17.001Z</time></trkpt><trkpt lat="44.85983846830394" lon="13.991420290275002"><ele>3.0</ele><time>2026-05-01T14:54:18.001Z</time></trkpt><trkpt lat="44.85991931897242" lon="13.991387433258716"><ele>3.0</ele><time>2026-05-01T14:54:19.001Z</time></trkpt><trkpt lat="44.85999215293995" lon="13.991372029827128"><ele>3.0</ele><time>2026-05-01T14:54:20.001Z</time></trkpt><trkpt lat="44.860062200861" lon="13.991357541457765"><ele>3.0</ele><time>2026-05-01T14:54:21.001Z</time></trkpt><trkpt lat="44.860129897027655" lon="13.991337733885018"><ele>3.0</ele><time>2026-05-01T14:54:22.001Z</time></trkpt><trkpt lat="44.86019946446074" lon="13.991324217308385"><ele>3.4</ele><time>2026-05-01T14:54:23.001Z</time></trkpt><trkpt lat="44.86033665948161" lon="13.991318898964087"><ele>3.8</ele><time>2026-05-01T14:54:25.001Z</time></trkpt><trkpt lat="44.86045557456116" lon="13.991334400362197"><ele>4.2</ele><time>2026-05-01T14:54:27.001Z</time></trkpt><trkpt lat="44.860545249158214" lon="13.991366403418343"><ele>4.6</ele><time>2026-05-01T14:54:29.001Z</time></trkpt><trkpt lat="44.86060016959655" lon="13.99143450258053"><ele>5.0</ele><time>2026-05-01T14:54:31.001Z</time></trkpt><trkpt lat="44.860667646016275" lon="13.991560574437806"><ele>5.0</ele><time>2026-05-01T14:54:33.001Z</time></trkpt><trkpt lat="44.86071918221953" lon="13.991624895485652"><ele>5.0</ele><time>2026-05-01T14:54:34.001Z</time></trkpt><trkpt lat="44.86076387098109" lon="13.991687516509153"><ele>5.0</ele><time>2026-05-01T14:54:35.001Z</time></trkpt><trkpt lat="44.86081681486936" lon="13.991824778424004"><ele>5.0</ele><time>2026-05-01T14:54:37.001Z</time></trkpt><trkpt lat="44.86085123266159" lon="13.991907972336692"><ele>5.0</ele><time>2026-05-01T14:54:38.001Z</time></trkpt><trkpt lat="44.860898982631035" lon="13.991980742813947"><ele>5.0</ele><time>2026-05-01T14:54:39.001Z</time></trkpt><trkpt lat="44.86101992697168" lon="13.992060703751148"><ele>5.333333333333334</ele><time>2026-05-01T14:54:41.001Z</time></trkpt><trkpt lat="44.861091822289715" lon="13.992094774720814"><ele>5.666666666666667</ele><time>2026-05-01T14:54:42.001Z</time></trkpt><trkpt lat="44.86115658833451" lon="13.992140917479485"><ele>6.0</ele><time>2026-05-01T14:54:43.001Z</time></trkpt><trkpt lat="44.8612197760611" lon="13.992197957866612"><ele>6.333333333333334</ele><time>2026-05-01T14:54:44.001Z</time></trkpt><trkpt lat="44.86135209629662" lon="13.992302781873898"><ele>6.666666666666667</ele><time>2026-05-01T14:54:46.001Z</time></trkpt><trkpt lat="44.86140534074268" lon="13.992361940269092"><ele>7.0</ele><time>2026-05-01T14:54:47.001Z</time></trkpt><trkpt lat="44.861450503309364" lon="13.992432694438191"><ele>6.142857142857143</ele><time>2026-05-01T14:54:48.001Z</time></trkpt><trkpt lat="44.86149167182521" lon="13.99251293595966"><ele>5.285714285714286</ele><time>2026-05-01T14:54:49Z</time></trkpt><trkpt lat="44.86153313916882" lon="13.99259525786213"><ele>4.428571428571429</ele><time>2026-05-01T14:54:50Z</time></trkpt><trkpt lat="44.861573379593764" lon="13.992679569154197"><ele>3.571428571428571</ele><time>2026-05-01T14:54:51Z</time></trkpt><trkpt lat="44.861615098545755" lon="13.99275811758404"><ele>2.7142857142857144</ele><time>2026-05-01T14:54:52Z</time></trkpt><trkpt lat="44.861660575809424" lon="13.99283842067279"><ele>1.8571428571428572</ele><time>2026-05-01T14:54:53Z</time></trkpt><trkpt lat="44.861708725760714" lon="13.992933064543069"><ele>1.0</ele><time>2026-05-01T14:54:54Z</time></trkpt><trkpt lat="44.8617606525412" lon="13.99301493022981"><ele>2.5</ele><time>2026-05-01T14:54:55Z</time></trkpt><trkpt lat="44.86181739594111" lon="13.993071569418357"><ele>4.0</ele><time>2026-05-01T14:54:56Z</time></trkpt><trkpt lat="44.861886804594775" lon="13.993107868595034"><ele>5.5</ele><time>2026-05-01T14:54:57Z</time></trkpt><trkpt lat="44.86195590395786" lon="13.993151788381686"><ele>7.0</ele><time>2026-05-01T14:54:58Z</time></trkpt><trkpt lat="44.86204228476543" lon="13.99325186643426"><ele>8.5</ele><time>2026-05-01T14:55:00Z</time></trkpt><trkpt lat="44.86208252249037" lon="13.993363880014478"><ele>10.0</ele><time>2026-05-01T14:55:02Z</time></trkpt><trkpt lat="44.862108778615095" lon="13.993492512954324"><ele>10.0</ele><time>2026-05-01T14:55:04Z</time></trkpt><trkpt lat="44.86216229244851" lon="13.993621726969446"><ele>10.0</ele><time>2026-05-01T14:55:06Z</time></trkpt><trkpt lat="44.862244100506125" lon="13.99382474592951"><ele>10.0</ele><time>2026-05-01T14:55:10Z</time></trkpt><trkpt lat="44.86224404291811" lon="13.993950432609017"><ele>10.0</ele><time>2026-05-01T14:55:12Z</time></trkpt><trkpt lat="44.86224527527379" lon="13.99409660954633"><ele>9.333333333333334</ele><time>2026-05-01T14:55:14Z</time></trkpt><trkpt lat="44.86225870858322" lon="13.994227319497183"><ele>8.666666666666668</ele><time>2026-05-01T14:55:16Z</time></trkpt><trkpt lat="44.862248045877095" lon="13.994357570699961"><ele>8.0</ele><time>2026-05-01T14:55:18Z</time></trkpt><trkpt lat="44.862244786662316" lon="13.994475445503848"><ele>7.333333333333334</ele><time>2026-05-01T14:55:21Z</time></trkpt><trkpt lat="44.86226457135416" lon="13.994578756344893"><ele>6.666666666666667</ele><time>2026-05-01T14:55:24Z</time></trkpt><trkpt lat="44.86228597184694" lon="13.994696274368641"><ele>6.0</ele><time>2026-05-01T14:55:26Z</time></trkpt><trkpt lat="44.862296490795245" lon="13.994783852756095"><ele>4.666666666666667</ele><time>2026-05-01T14:55:27Z</time></trkpt><trkpt lat="44.86235184627056" lon="13.995087789541873"><ele>3.333333333333333</ele><time>2026-05-01T14:55:31Z</time></trkpt><trkpt lat="44.86239868052876" lon="13.995238228486517"><ele>2.0</ele><time>2026-05-01T14:55:33Z</time></trkpt><trkpt lat="44.8624578916398" lon="13.995385673984405"><ele>2.0</ele><time>2026-05-01T14:55:35Z</time></trkpt><trkpt lat="44.86252876171884" lon="13.995530284695347"><ele>2.0</ele><time>2026-05-01T14:55:37Z</time></trkpt><trkpt lat="44.86257665262287" lon="13.995602889226308"><ele>2.0</ele><time>2026-05-01T14:55:38.001Z</time></trkpt><trkpt lat="44.862636135911444" lon="13.995676476997392"><ele>2.0</ele><time>2026-05-01T14:55:39.001Z</time></trkpt><trkpt lat="44.862701951296856" lon="13.995748917084"><ele>2.0</ele><time>2026-05-01T14:55:40.001Z</time></trkpt><trkpt lat="44.86276721985083" lon="13.995904082642511"><ele>2.8</ele><time>2026-05-01T14:55:42.001Z</time></trkpt><trkpt lat="44.86284982598206" lon="13.996034469926927"><ele>3.6</ele><time>2026-05-01T14:55:44.001Z</time></trkpt><trkpt lat="44.86292073952383" lon="13.996183155400212"><ele>4.3999999999999995</ele><time>2026-05-01T14:55:46.001Z</time></trkpt><trkpt lat="44.862951196356356" lon="13.996272809986982"><ele>5.2</ele><time>2026-05-01T14:55:47.001Z</time></trkpt><trkpt lat="44.86297928311349" lon="13.996436343855141"><ele>6.0</ele><time>2026-05-01T14:55:49.001Z</time></trkpt><trkpt lat="44.86301168843772" lon="13.996720435203699"><ele>6.0</ele><time>2026-05-01T14:55:52.001Z</time></trkpt><trkpt lat="44.86304541785729" lon="13.996813092878583"><ele>6.0</ele><time>2026-05-01T14:55:53.001Z</time></trkpt><trkpt lat="44.863086135483606" lon="13.996897812810284"><ele>6.0</ele><time>2026-05-01T14:55:54.001Z</time></trkpt><trkpt lat="44.8631221222246" lon="13.996972776854513"><ele>6.0</ele><time>2026-05-01T14:55:55.001Z</time></trkpt><trkpt lat="44.8631587177308" lon="13.997052071962763"><ele>6.0</ele><time>2026-05-01T14:55:56.001Z</time></trkpt><trkpt lat="44.86318898295792" lon="13.997134514248327"><ele>6.0</ele><time>2026-05-01T14:55:57.001Z</time></trkpt><trkpt lat="44.863233436452646" lon="13.997286449294954"><ele>5.999999999999999</ele><time>2026-05-01T14:55:59.001Z</time></trkpt><trkpt lat="44.863266523666795" lon="13.99744464522111"><ele>6.0</ele><time>2026-05-01T14:56:01.001Z</time></trkpt><trkpt lat="44.86328638734938" lon="13.99753431217597"><ele>6.0</ele><time>2026-05-01T14:56:02.001Z</time></trkpt><trkpt lat="44.863291824598086" lon="13.99762935371861"><ele>6.0</ele><time>2026-05-01T14:56:03.001Z</time></trkpt><trkpt lat="44.86328348112623" lon="13.997718220147323"><ele>6.0</ele><time>2026-05-01T14:56:04.001Z</time></trkpt><trkpt lat="44.86326633469272" lon="13.997804556181286"><ele>5.999999999999999</ele><time>2026-05-01T14:56:05.001Z</time></trkpt><trkpt lat="44.8632471479506" lon="13.997896712090148"><ele>6.0</ele><time>2026-05-01T14:56:06.001Z</time></trkpt><trkpt lat="44.86322336807153" lon="13.997986561862236"><ele>6.166666666666667</ele><time>2026-05-01T14:56:07.001Z</time></trkpt><trkpt lat="44.86319692151525" lon="13.998069361217262"><ele>6.333333333333334</ele><time>2026-05-01T14:56:08.001Z</time></trkpt><trkpt lat="44.863180735033" lon="13.998167100589185"><ele>6.5</ele><time>2026-05-01T14:56:09.001Z</time></trkpt><trkpt lat="44.863174438567945" lon="13.99826533474966"><ele>6.666666666666667</ele><time>2026-05-01T14:56:10.001Z</time></trkpt><trkpt lat="44.86318429223581" lon="13.998464999099864"><ele>6.833333333333334</ele><time>2026-05-01T14:56:12.001Z</time></trkpt><trkpt lat="44.86316859030179" lon="13.998553581677669"><ele>7.0</ele><time>2026-05-01T14:56:13.001Z</time></trkpt><trkpt lat="44.863132792881814" lon="13.99864131026153"><ele>7.0</ele><time>2026-05-01T14:56:14.001Z</time></trkpt><trkpt lat="44.863096386986854" lon="13.998723294135914"><ele>6.999999999999999</ele><time>2026-05-01T14:56:15.001Z</time></trkpt><trkpt lat="44.86307644758912" lon="13.998889461851455"><ele>6.999999999999999</ele><time>2026-05-01T14:56:17.001Z</time></trkpt><trkpt lat="44.863087304784464" lon="13.999044096443994"><ele>7.0</ele><time>2026-05-01T14:56:19.001Z</time></trkpt><trkpt lat="44.86311354963066" lon="13.99916272742632"><ele>7.0</ele><time>2026-05-01T14:56:21.001Z</time></trkpt><trkpt lat="44.86320326841241" lon="13.99925982287932"><ele>6.833333333333334</ele><time>2026-05-01T14:56:23.001Z</time></trkpt><trkpt lat="44.86326413837638" lon="13.99932007926955"><ele>6.666666666666667</ele><time>2026-05-01T14:56:24.001Z</time></trkpt><trkpt lat="44.863310772031674" lon="13.999394428895101"><ele>6.5</ele><time>2026-05-01T14:56:25.001Z</time></trkpt><trkpt lat="44.86336643672611" lon="13.999469314292941"><ele>6.333333333333334</ele><time>2026-05-01T14:56:26.001Z</time></trkpt><trkpt lat="44.863418963270625" lon="13.999529292865185"><ele>6.166666666666667</ele><time>2026-05-01T14:56:27.001Z</time></trkpt><trkpt lat="44.86351727189729" lon="13.999580445020458"><ele>6.0</ele><time>2026-05-01T14:56:29.001Z</time></trkpt><trkpt lat="44.86363478000036" lon="13.999571469020555"><ele>6.0</ele><time>2026-05-01T14:56:31.001Z</time></trkpt><trkpt lat="44.86379440760776" lon="13.999590688616632"><ele>6.0</ele><time>2026-05-01T14:56:34.001Z</time></trkpt><trkpt lat="44.86386682116331" lon="13.999719766755444"><ele>6.0</ele><time>2026-05-01T14:56:36.001Z</time></trkpt><trkpt lat="44.86397040803315" lon="13.999771827435811"><ele>6.0</ele><time>2026-05-01T14:56:38.001Z</time></trkpt><trkpt lat="44.864038268741126" lon="13.999766322481326"><ele>5.999999999999999</ele><time>2026-05-01T14:56:39.001Z</time></trkpt><trkpt lat="44.864107982447386" lon="13.99975177234096"><ele>6.0</ele><time>2026-05-01T14:56:40.001Z</time></trkpt><trkpt lat="44.864180379687774" lon="13.999761186243115"><ele>6.0</ele><time>2026-05-01T14:56:41.001Z</time></trkpt><trkpt lat="44.86425357876514" lon="13.99976705167693"><ele>6.0</ele><time>2026-05-01T14:56:42.001Z</time></trkpt><trkpt lat="44.86432359054563" lon="13.999754418722366"><ele>6.0</ele><time>2026-05-01T14:56:43.001Z</time></trkpt><trkpt lat="44.86438300628497" lon="13.999717444944697"><ele>5.999999999999999</ele><time>2026-05-01T14:56:44Z</time></trkpt><trkpt lat="44.864440826300616" lon="13.999681334599531"><ele>6.0</ele><time>2026-05-01T14:56:45Z</time></trkpt><trkpt lat="44.86450593290737" lon="13.999664677399645"><ele>5.3999999999999995</ele><time>2026-05-01T14:56:46Z</time></trkpt><trkpt lat="44.864573017647196" lon="13.999683531934267"><ele>4.8</ele><time>2026-05-01T14:56:47Z</time></trkpt><trkpt lat="44.864678043272974" lon="13.999715645421995"><ele>4.199999999999999</ele><time>2026-05-01T14:56:49Z</time></trkpt><trkpt lat="44.86474553337612" lon="13.999637145730778"><ele>3.5999999999999996</ele><time>2026-05-01T14:56:51Z</time></trkpt><trkpt lat="44.86477850985526" lon="13.999489734120582"><ele>3.0</ele><time>2026-05-01T14:56:53Z</time></trkpt><trkpt lat="44.86477819175217" lon="13.999303988771388"><ele>3.0</ele><time>2026-05-01T14:56:55Z</time></trkpt><trkpt lat="44.86477352641902" lon="13.99918831052355"><ele>3.0</ele><time>2026-05-01T14:56:56Z</time></trkpt><trkpt lat="44.8647766943844" lon="13.999071217661676"><ele>3.0</ele><time>2026-05-01T14:56:57Z</time></trkpt><trkpt lat="44.86478354065887" lon="13.998976350042051"><ele>3.0</ele><time>2026-05-01T14:56:58Z</time></trkpt><trkpt lat="44.864800575165695" lon="13.998879228123306"><ele>3.0</ele><time>2026-05-01T14:56:59Z</time></trkpt><trkpt lat="44.86484759188551" lon="13.998723729722244"><ele>3.0</ele><time>2026-05-01T14:57:01Z</time></trkpt><trkpt lat="44.864888946768104" lon="13.998640585631719"><ele>3.2</ele><time>2026-05-01T14:57:02Z</time></trkpt><trkpt lat="44.864928502169825" lon="13.998565208271284"><ele>3.4</ele><time>2026-05-01T14:57:03Z</time></trkpt><trkpt lat="44.864989686949215" lon="13.998405926096936"><ele>3.6000000000000005</ele><time>2026-05-01T14:57:05Z</time></trkpt><trkpt lat="44.8650081942741" lon="13.998312331971345"><ele>3.8000000000000003</ele><time>2026-05-01T14:57:06Z</time></trkpt><trkpt lat="44.86501929192829" lon="13.99813907420924"><ele>4.0</ele><time>2026-05-01T14:57:08Z</time></trkpt><trkpt lat="44.86501846377938" lon="13.998042260885882"><ele>4.166666666666666</ele><time>2026-05-01T14:57:09Z</time></trkpt><trkpt lat="44.8650160389779" lon="13.997946332883128"><ele>4.333333333333333</ele><time>2026-05-01T14:57:10Z</time></trkpt><trkpt lat="44.86502207602792" lon="13.997847417370581"><ele>4.5</ele><time>2026-05-01T14:57:11Z</time></trkpt><trkpt lat="44.86503569066983" lon="13.99775136115602"><ele>4.666666666666667</ele><time>2026-05-01T14:57:12Z</time></trkpt><trkpt lat="44.865056379629564" lon="13.997652283286062"><ele>4.833333333333334</ele><time>2026-05-01T14:57:13Z</time></trkpt><trkpt lat="44.86507955514814" lon="13.997546614863863"><ele>5.0</ele><time>2026-05-01T14:57:14Z</time></trkpt><trkpt lat="44.8651367830883" lon="13.997314343066265"><ele>4.333333333333334</ele><time>2026-05-01T14:57:16Z</time></trkpt><trkpt lat="44.865169370417995" lon="13.997206855086521"><ele>3.666666666666667</ele><time>2026-05-01T14:57:17Z</time></trkpt><trkpt lat="44.86520419058084" lon="13.997113900581724"><ele>3.0</ele><time>2026-05-01T14:57:18Z</time></trkpt><trkpt lat="44.8652332189117" lon="13.997028818058356"><ele>2.3333333333333335</ele><time>2026-05-01T14:57:19Z</time></trkpt><trkpt lat="44.86526682128715" lon="13.996933917814342"><ele>1.6666666666666665</ele><time>2026-05-01T14:57:20Z</time></trkpt><trkpt lat="44.865304832016406" lon="13.996836437925468"><ele>1.0</ele><time>2026-05-01T14:57:21Z</time></trkpt><trkpt lat="44.865343002263444" lon="13.99674747453559"><ele>1.1666666666666665</ele><time>2026-05-01T14:57:22Z</time></trkpt><trkpt lat="44.86537982172527" lon="13.99666673587915"><ele>1.3333333333333333</ele><time>2026-05-01T14:57:23Z</time></trkpt><trkpt lat="44.8654593544633" lon="13.99651681875484"><ele>1.5</ele><time>2026-05-01T14:57:25Z</time></trkpt><trkpt lat="44.8655096832465" lon="13.996427022715027"><ele>1.6666666666666665</ele><time>2026-05-01T14:57:26Z</time></trkpt><trkpt lat="44.865556718126314" lon="13.99633116379685"><ele>1.8333333333333333</ele><time>2026-05-01T14:57:27Z</time></trkpt><trkpt lat="44.865596990975064" lon="13.996240271865982"><ele>2.0</ele><time>2026-05-01T14:57:28Z</time></trkpt><trkpt lat="44.865641160548954" lon="13.996169236747889"><ele>2.0</ele><time>2026-05-01T14:57:29Z</time></trkpt><trkpt lat="44.865729091434844" lon="13.996045870151251"><ele>2.0</ele><time>2026-05-01T14:57:31Z</time></trkpt><trkpt lat="44.86578621148484" lon="13.99600601371368"><ele>2.0</ele><time>2026-05-01T14:57:32Z</time></trkpt><trkpt lat="44.865861280939896" lon="13.995968373209644"><ele>2.0</ele><time>2026-05-01T14:57:33Z</time></trkpt><trkpt lat="44.865938979689076" lon="13.9959374566775"><ele>2.0</ele><time>2026-05-01T14:57:34Z</time></trkpt><trkpt lat="44.866031552411066" lon="13.995861103839902"><ele>1.6666666666666665</ele><time>2026-05-01T14:57:36Z</time></trkpt><trkpt lat="44.86610567873417" lon="13.99553204003816"><ele>1.3333333333333333</ele><time>2026-05-01T14:57:40Z</time></trkpt><trkpt lat="44.86613687511882" lon="13.995382477488318"><ele>1.0</ele><time>2026-05-01T14:57:42Z</time></trkpt><trkpt lat="44.866185766175576" lon="13.995246985885709"><ele>0.9999999999999999</ele><time>2026-05-01T14:57:44.001Z</time></trkpt><trkpt lat="44.8662292877862" lon="13.995176090841262"><ele>1.0</ele><time>2026-05-01T14:57:45.001Z</time></trkpt><trkpt lat="44.866275749938985" lon="13.995098783993274"><ele>1.0</ele><time>2026-05-01T14:57:46.001Z</time></trkpt><trkpt lat="44.866324634975136" lon="13.995021339908849"><ele>1.0</ele><time>2026-05-01T14:57:47.001Z</time></trkpt><trkpt lat="44.866371815447245" lon="13.994951692414752"><ele>0.9999999999999999</ele><time>2026-05-01T14:57:48.001Z</time></trkpt><trkpt lat="44.86646984379017" lon="13.994845498405066"><ele>1.0</ele><time>2026-05-01T14:57:50.001Z</time></trkpt><trkpt lat="44.86652395911304" lon="13.994796068506089"><ele>0.9999999999999999</ele><time>2026-05-01T14:57:51.001Z</time></trkpt><trkpt lat="44.866581444957916" lon="13.994746919473458"><ele>1.0</ele><time>2026-05-01T14:57:52.001Z</time></trkpt><trkpt lat="44.86664117143277" lon="13.994699660247564"><ele>1.0</ele><time>2026-05-01T14:57:53.001Z</time></trkpt><trkpt lat="44.866710302999905" lon="13.994656095002687"><ele>1.0</ele><time>2026-05-01T14:57:54.001Z</time></trkpt><trkpt lat="44.86677562032281" lon="13.994633908231517"><ele>0.9999999999999999</ele><time>2026-05-01T14:57:55.001Z</time></trkpt><trkpt lat="44.86689188820301" lon="13.994585437317406"><ele>1.0</ele><time>2026-05-01T14:57:57.001Z</time></trkpt><trkpt lat="44.867093391905804" lon="13.994444351818705"><ele>0.9999999999999999</ele><time>2026-05-01T14:58:01.001Z</time></trkpt><trkpt lat="44.86722286141307" lon="13.994417477580738"><ele>1.0</ele><time>2026-05-01T14:58:03.001Z</time></trkpt><trkpt lat="44.86728964865222" lon="13.994412741354"><ele>1.0</ele><time>2026-05-01T14:58:04.001Z</time></trkpt><trkpt lat="44.86735823274351" lon="13.994410403597755"><ele>1.0</ele><time>2026-05-01T14:58:05.001Z</time></trkpt><trkpt lat="44.867422723673045" lon="13.99443342209897"><ele>0.9999999999999999</ele><time>2026-05-01T14:58:06.001Z</time></trkpt><trkpt lat="44.86747769240621" lon="13.994486008713269"><ele>1.0</ele><time>2026-05-01T14:58:07.001Z</time></trkpt><trkpt lat="44.86757017435821" lon="13.994595632629123"><ele>2.0</ele><time>2026-05-01T14:58:09.001Z</time></trkpt><trkpt lat="44.867662777715914" lon="13.994659374567556"><ele>3.0</ele><time>2026-05-01T14:58:11.001Z</time></trkpt><trkpt lat="44.86777573246349" lon="13.99471036827533"><ele>3.9999999999999996</ele><time>2026-05-01T14:58:13.001Z</time></trkpt><trkpt lat="44.86789360891758" lon="13.994782199057356"><ele>5.0</ele><time>2026-05-01T14:58:15.001Z</time></trkpt><trkpt lat="44.86795092576622" lon="13.994828863383354"><ele>6.0</ele><time>2026-05-01T14:58:16.001Z</time></trkpt><trkpt lat="44.868012069259215" lon="13.994869396787335"><ele>6.0</ele><time>2026-05-01T14:58:17.001Z</time></trkpt><trkpt lat="44.868081587232645" lon="13.994902382076681"><ele>6.0</ele><time>2026-05-01T14:58:18.001Z</time></trkpt><trkpt lat="44.86823102310033" lon="13.994977513372335"><ele>6.0</ele><time>2026-05-01T14:58:20.001Z</time></trkpt><trkpt lat="44.868292171100066" lon="13.995019723279507"><ele>6.0</ele><time>2026-05-01T14:58:21.001Z</time></trkpt><trkpt lat="44.86834909588308" lon="13.995070049060933"><ele>6.0</ele><time>2026-05-01T14:58:22.001Z</time></trkpt><trkpt lat="44.86840477538705" lon="13.995117564669702"><ele>6.0</ele><time>2026-05-01T14:58:23.001Z</time></trkpt><trkpt lat="44.86850375376416" lon="13.99519870615101"><ele>5.3999999999999995</ele><time>2026-05-01T14:58:25.001Z</time></trkpt><trkpt lat="44.868607520915106" lon="13.99523179143744"><ele>4.8</ele><time>2026-05-01T14:58:27.001Z</time></trkpt><trkpt lat="44.86871269720758" lon="13.995266439699092"><ele>4.199999999999999</ele><time>2026-05-01T14:58:29.001Z</time></trkpt><trkpt lat="44.86879459465405" lon="13.995362534551239"><ele>3.5999999999999996</ele><time>2026-05-01T14:58:31.001Z</time></trkpt><trkpt lat="44.86888999468945" lon="13.995451953309992"><ele>3.0</ele><time>2026-05-01T14:58:33.001Z</time></trkpt><trkpt lat="44.868985591221204" lon="13.995544919092588"><ele>3.0</ele><time>2026-05-01T14:58:35Z</time></trkpt><trkpt lat="44.869043517502405" lon="13.995599366722463"><ele>3.0</ele><time>2026-05-01T14:58:36Z</time></trkpt><trkpt lat="44.86913600041909" lon="13.995707496577635"><ele>3.0</ele><time>2026-05-01T14:58:38Z</time></trkpt><trkpt lat="44.869223170346004" lon="13.995802650295525"><ele>3.0</ele><time>2026-05-01T14:58:40Z</time></trkpt><trkpt lat="44.86936424838393" lon="13.995988861009362"><ele>2.8</ele><time>2026-05-01T14:58:43Z</time></trkpt><trkpt lat="44.86941973025112" lon="13.996045414745572"><ele>2.5999999999999996</ele><time>2026-05-01T14:58:44Z</time></trkpt><trkpt lat="44.86947288844823" lon="13.996097382355545"><ele>2.4000000000000004</ele><time>2026-05-01T14:58:45Z</time></trkpt><trkpt lat="44.869571099180185" lon="13.99620582299286"><ele>2.2</ele><time>2026-05-01T14:58:47Z</time></trkpt><trkpt lat="44.86967168984972" lon="13.99629156982825"><ele>2.0</ele><time>2026-05-01T14:58:49Z</time></trkpt><trkpt lat="44.869768455765985" lon="13.996370224271734"><ele>2.0</ele><time>2026-05-01T14:58:51Z</time></trkpt><trkpt lat="44.86985832641692" lon="13.99645708075717"><ele>2.0</ele><time>2026-05-01T14:58:53Z</time></trkpt><trkpt lat="44.86993473561048" lon="13.996549055393185"><ele>2.0</ele><time>2026-05-01T14:58:55Z</time></trkpt><trkpt lat="44.87001374657071" lon="13.996619716789029"><ele>2.0</ele><time>2026-05-01T14:58:57Z</time></trkpt><trkpt lat="44.87011719787521" lon="13.996655845985336"><ele>2.0</ele><time>2026-05-01T14:58:59Z</time></trkpt><trkpt lat="44.870235933838664" lon="13.996651243159983"><ele>1.75</ele><time>2026-05-01T14:59:01Z</time></trkpt><trkpt lat="44.87038357075309" lon="13.996485372335062"><ele>1.5</ele><time>2026-05-01T14:59:05Z</time></trkpt><trkpt lat="44.87042639520408" lon="13.996332510674407"><ele>1.25</ele><time>2026-05-01T14:59:07Z</time></trkpt><trkpt lat="44.87046878124553" lon="13.996256223447107"><ele>1.0</ele><time>2026-05-01T14:59:08Z</time></trkpt><trkpt lat="44.870520917751776" lon="13.996178648766861"><ele>0.9999999999999999</ele><time>2026-05-01T14:59:09Z</time></trkpt><trkpt lat="44.87057429565644" lon="13.996112262428747"><ele>1.0</ele><time>2026-05-01T14:59:10Z</time></trkpt><trkpt lat="44.87067810769602" lon="13.996029293952548"><ele>1.0</ele><time>2026-05-01T14:59:12Z</time></trkpt><trkpt lat="44.870726496171116" lon="13.995957186670434"><ele>1.0</ele><time>2026-05-01T14:59:13Z</time></trkpt><trkpt lat="44.870780165856424" lon="13.99588624383376"><ele>0.9999999999999999</ele><time>2026-05-01T14:59:14Z</time></trkpt><trkpt lat="44.87087124464964" lon="13.995811012615155"><ele>1.0</ele><time>2026-05-01T14:59:16Z</time></trkpt><trkpt lat="44.87095220740655" lon="13.995714649736419"><ele>1.0</ele><time>2026-05-01T14:59:18Z</time></trkpt><trkpt lat="44.871014422750136" lon="13.995623072439452"><ele>1.0</ele><time>2026-05-01T14:59:20Z</time></trkpt><trkpt lat="44.8710480725859" lon="13.99551790764697"><ele>1.0</ele><time>2026-05-01T14:59:22Z</time></trkpt><trkpt lat="44.871053836402076" lon="13.995290618784201"><ele>1.0</ele><time>2026-05-01T14:59:27Z</time></trkpt><trkpt lat="44.871025501016625" lon="13.995200340243384"><ele>1.0</ele><time>2026-05-01T14:59:29Z</time></trkpt><trkpt lat="44.87097811025511" lon="13.99510049414746"><ele>1.4</ele><time>2026-05-01T14:59:32Z</time></trkpt><trkpt lat="44.8709297871982" lon="13.994998582760854"><ele>1.8</ele><time>2026-05-01T14:59:34Z</time></trkpt><trkpt lat="44.870894029127726" lon="13.994922702222528"><ele>2.1999999999999997</ele><time>2026-05-01T14:59:38Z</time></trkpt><trkpt lat="44.87093088755934" lon="13.994846659631373"><ele>2.6</ele><time>2026-05-01T14:59:42Z</time></trkpt><trkpt lat="44.870968869485566" lon="13.994773830068377"><ele>3.0</ele><time>2026-05-01T15:00:15.001Z</time></trkpt><trkpt lat="44.87119627560586" lon="13.994540565655097"><ele>3.0</ele><time>2026-05-01T15:06:11.001Z</time></trkpt><trkpt lat="44.87135126532954" lon="13.994445252558672"><ele>3.0</ele><time>2026-05-01T15:06:17.001Z</time></trkpt><trkpt lat="44.871419443571476" lon="13.994462595662679"><ele>3.0</ele><time>2026-05-01T15:06:19.001Z</time></trkpt><trkpt lat="44.87149498530061" lon="13.994534072294712"><ele>3.0</ele><time>2026-05-01T15:06:21.001Z</time></trkpt><trkpt lat="44.8715460982314" lon="13.994614474164909"><ele>3.0</ele><time>2026-05-01T15:06:23.001Z</time></trkpt><trkpt lat="44.87160543552813" lon="13.994683801390467"><ele>3.0</ele><time>2026-05-01T15:06:25.001Z</time></trkpt><trkpt lat="44.871662414870585" lon="13.994724787521653"><ele>3.0</ele><time>2026-05-01T15:06:27.001Z</time></trkpt><trkpt lat="44.87177437435684" lon="13.99477547179425"><ele>3.0</ele><time>2026-05-01T15:06:29.001Z</time></trkpt><trkpt lat="44.87188156607963" lon="13.994786556286975"><ele>3.0</ele><time>2026-05-01T15:06:31.001Z</time></trkpt><trkpt lat="44.871983413239455" lon="13.994770325747494"><ele>3.0</ele><time>2026-05-01T15:06:33.001Z</time></trkpt><trkpt lat="44.87215106272463" lon="13.994752889419"><ele>3.0</ele><time>2026-05-01T15:06:37.001Z</time></trkpt><trkpt lat="44.872255200580966" lon="13.994845734036048"><ele>3.0</ele><time>2026-05-01T15:06:39.001Z</time></trkpt><trkpt lat="44.87234084608105" lon="13.99491246438993"><ele>3.0</ele><time>2026-05-01T15:06:41.001Z</time></trkpt><trkpt lat="44.87242758084881" lon="13.994943233176015"><ele>3.0</ele><time>2026-05-01T15:06:43.001Z</time></trkpt><trkpt lat="44.87253745617708" lon="13.994960554702264"><ele>3.0</ele><time>2026-05-01T15:06:45.001Z</time></trkpt><trkpt lat="44.87260776023057" lon="13.994972779270157"><ele>2.6</ele><time>2026-05-01T15:06:46.001Z</time></trkpt><trkpt lat="44.872676803304095" lon="13.994995508700406"><ele>2.1999999999999997</ele><time>2026-05-01T15:06:47.001Z</time></trkpt><trkpt lat="44.872777549455805" lon="13.995055729745188"><ele>1.8</ele><time>2026-05-01T15:06:49.001Z</time></trkpt><trkpt lat="44.87287829647562" lon="13.99509966557629"><ele>1.4</ele><time>2026-05-01T15:06:51.001Z</time></trkpt><trkpt lat="44.87297498037" lon="13.995068493044476"><ele>1.0</ele><time>2026-05-01T15:06:53.001Z</time></trkpt><trkpt lat="44.8730695185029" lon="13.995015724568471"><ele>1.0</ele><time>2026-05-01T15:06:55.001Z</time></trkpt><trkpt lat="44.87314756155165" lon="13.994858966440143"><ele>1.0</ele><time>2026-05-01T15:06:59Z</time></trkpt><trkpt lat="44.873160175300676" lon="13.994725117976191"><ele>1.0</ele><time>2026-05-01T15:07:01Z</time></trkpt><trkpt lat="44.87316052814295" lon="13.994599410077777"><ele>1.0</ele><time>2026-05-01T15:07:03Z</time></trkpt><trkpt lat="44.87317056991674" lon="13.994471781683112"><ele>1.0</ele><time>2026-05-01T15:07:05Z</time></trkpt><trkpt lat="44.87319059220644" lon="13.994362922388294"><ele>1.0</ele><time>2026-05-01T15:07:07Z</time></trkpt><trkpt lat="44.873213300367865" lon="13.99425421432024"><ele>1.0</ele><time>2026-05-01T15:07:10Z</time></trkpt><trkpt lat="44.87326073440255" lon="13.994179920443981"><ele>1.0</ele><time>2026-05-01T15:07:12Z</time></trkpt><trkpt lat="44.8732880186576" lon="13.994017660369954"><ele>1.0</ele><time>2026-05-01T15:07:14Z</time></trkpt><trkpt lat="44.87331650623314" lon="13.993860620591088"><ele>1.0</ele><time>2026-05-01T15:07:16Z</time></trkpt><trkpt lat="44.87338181424866" lon="13.993569071998973"><ele>0.8</ele><time>2026-05-01T15:07:20Z</time></trkpt><trkpt lat="44.8734105245838" lon="13.993431764597515"><ele>0.6000000000000001</ele><time>2026-05-01T15:07:22Z</time></trkpt><trkpt lat="44.87343878206858" lon="13.993280640470807"><ele>0.4</ele><time>2026-05-01T15:07:24Z</time></trkpt><trkpt lat="44.8734588394005" lon="13.993111245139414"><ele>0.2</ele><time>2026-05-01T15:07:26Z</time></trkpt><trkpt lat="44.87349252295899" lon="13.99297128719224"><ele>0.0</ele><time>2026-05-01T15:07:28Z</time></trkpt><trkpt lat="44.8735083430766" lon="13.9928294086064"><ele>0.0</ele><time>2026-05-01T15:07:30Z</time></trkpt><trkpt lat="44.873483597258094" lon="13.992686798140065"><ele>0.0</ele><time>2026-05-01T15:07:32Z</time></trkpt><trkpt lat="44.87343480900065" lon="13.992590813707249"><ele>0.0</ele><time>2026-05-01T15:07:34Z</time></trkpt><trkpt lat="44.87337167207741" lon="13.992526571920308"><ele>0.0</ele><time>2026-05-01T15:07:36Z</time></trkpt><trkpt lat="44.87331434110597" lon="13.992452476534314"><ele>0.0</ele><time>2026-05-01T15:07:39Z</time></trkpt><trkpt lat="44.873413502772564" lon="13.992261319749826"><ele>0.0</ele><time>2026-05-01T15:07:43Z</time></trkpt><trkpt lat="44.873435460588645" lon="13.992115668513476"><ele>0.0</ele><time>2026-05-01T15:07:45Z</time></trkpt><trkpt lat="44.87342965358859" lon="13.991982055557141"><ele>0.0</ele><time>2026-05-01T15:07:47Z</time></trkpt><trkpt lat="44.873432137287686" lon="13.991857581507103"><ele>0.0</ele><time>2026-05-01T15:07:49Z</time></trkpt><trkpt lat="44.8734427610411" lon="13.991727152383952"><ele>0.0</ele><time>2026-05-01T15:07:51Z</time></trkpt><trkpt lat="44.87347583197332" lon="13.991573137224393"><ele>0.6</ele><time>2026-05-01T15:07:53Z</time></trkpt><trkpt lat="44.87347085703523" lon="13.991434055812267"><ele>1.2</ele><time>2026-05-01T15:07:55Z</time></trkpt><trkpt lat="44.87345285845174" lon="13.99129522864671"><ele>1.7999999999999998</ele><time>2026-05-01T15:07:57Z</time></trkpt><trkpt lat="44.87343416191023" lon="13.991172421406175"><ele>2.4</ele><time>2026-05-01T15:07:59Z</time></trkpt><trkpt lat="44.87342085155247" lon="13.991065258827119"><ele>3.0</ele><time>2026-05-01T15:08:01Z</time></trkpt><trkpt lat="44.87342153595865" lon="13.990840443882924"><ele>3.833333333333333</ele><time>2026-05-01T15:08:05Z</time></trkpt><trkpt lat="44.873424895627224" lon="13.990698670957512"><ele>4.666666666666666</ele><time>2026-05-01T15:08:07Z</time></trkpt><trkpt lat="44.873448980596805" lon="13.99058868806839"><ele>5.5</ele><time>2026-05-01T15:08:09Z</time></trkpt><trkpt lat="44.87347104916372" lon="13.990487162034409"><ele>6.333333333333333</ele><time>2026-05-01T15:08:11Z</time></trkpt><trkpt lat="44.87350784175317" lon="13.990404127387992"><ele>7.166666666666666</ele><time>2026-05-01T15:08:13.001Z</time></trkpt><trkpt lat="44.873547115499065" lon="13.990312297957656"><ele>8.0</ele><time>2026-05-01T15:08:15.001Z</time></trkpt><trkpt lat="44.8736277026681" lon="13.990311039053678"><ele>8.0</ele><time>2026-05-01T15:08:18.001Z</time></trkpt><trkpt lat="44.87371183217056" lon="13.990377187825633"><ele>8.0</ele><time>2026-05-01T15:08:21.001Z</time></trkpt><trkpt lat="44.8737980135325" lon="13.990396745242132"><ele>8.0</ele><time>2026-05-01T15:08:23.001Z</time></trkpt><trkpt lat="44.87393574096467" lon="13.990475100369398"><ele>8.0</ele><time>2026-05-01T15:08:28.001Z</time></trkpt><trkpt lat="44.87398968811277" lon="13.990535796765336"><ele>8.0</ele><time>2026-05-01T15:08:30Z</time></trkpt><trkpt lat="44.87404509569213" lon="13.990620088024436"><ele>7.999999999999999</ele><time>2026-05-01T15:08:32Z</time></trkpt><trkpt lat="44.87411219386568" lon="13.990689781313426"><ele>8.0</ele><time>2026-05-01T15:08:34Z</time></trkpt><trkpt lat="44.87419038973695" lon="13.990739366790896"><ele>8.0</ele><time>2026-05-01T15:08:37Z</time></trkpt><trkpt lat="44.87425073984513" lon="13.990801688927183"><ele>8.0</ele><time>2026-05-01T15:08:39Z</time></trkpt><trkpt lat="44.874312483988206" lon="13.990851399470015"><ele>7.999999999999999</ele><time>2026-05-01T15:08:41Z</time></trkpt><trkpt lat="44.874372032446686" lon="13.990901297130337"><ele>8.0</ele><time>2026-05-01T15:08:43Z</time></trkpt><trkpt lat="44.87447143429036" lon="13.990920304870158"><ele>8.200000000000001</ele><time>2026-05-01T15:08:45Z</time></trkpt><trkpt lat="44.87463445069873" lon="13.990867134035291"><ele>8.4</ele><time>2026-05-01T15:08:49Z</time></trkpt><trkpt lat="44.87470021388787" lon="13.990772730397596"><ele>8.600000000000001</ele><time>2026-05-01T15:08:51Z</time></trkpt><trkpt lat="44.87475775894699" lon="13.990704086337734"><ele>8.8</ele><time>2026-05-01T15:08:53Z</time></trkpt><trkpt lat="44.87483184395649" lon="13.990688096895617"><ele>9.0</ele><time>2026-05-01T15:08:55Z</time></trkpt><trkpt lat="44.874902869051866" lon="13.990672690524635"><ele>9.0</ele><time>2026-05-01T15:08:57Z</time></trkpt><trkpt lat="44.87497199613943" lon="13.990681354412027"><ele>9.0</ele><time>2026-05-01T15:08:59Z</time></trkpt><trkpt lat="44.87502369433144" lon="13.990745320211996"><ele>9.0</ele><time>2026-05-01T15:09:01Z</time></trkpt><trkpt lat="44.875067269762894" lon="13.99082254451089"><ele>9.0</ele><time>2026-05-01T15:09:03Z</time></trkpt><trkpt lat="44.87508908026482" lon="13.99095224894601"><ele>9.0</ele><time>2026-05-01T15:09:05Z</time></trkpt><trkpt lat="44.87515626597436" lon="13.99105326180267"><ele>9.0</ele><time>2026-05-01T15:09:07Z</time></trkpt><trkpt lat="44.87527598535081" lon="13.991177118967865"><ele>8.5</ele><time>2026-05-01T15:09:11Z</time></trkpt><trkpt lat="44.87534228428126" lon="13.991282989218293"><ele>8.0</ele><time>2026-05-01T15:09:13Z</time></trkpt><trkpt lat="44.875392210280864" lon="13.991342093089537"><ele>7.5</ele><time>2026-05-01T15:09:14Z</time></trkpt><trkpt lat="44.87546101368307" lon="13.991445437945497"><ele>7.0</ele><time>2026-05-01T15:09:16Z</time></trkpt><trkpt lat="44.87551591321129" lon="13.991551612290017"><ele>6.5</ele><time>2026-05-01T15:09:18Z</time></trkpt><trkpt lat="44.87556872120353" lon="13.9916417567834"><ele>6.0</ele><time>2026-05-01T15:09:20Z</time></trkpt><trkpt lat="44.875633098475284" lon="13.991697450808767"><ele>5.2</ele><time>2026-05-01T15:09:22Z</time></trkpt><trkpt lat="44.87569833968416" lon="13.9917165056799"><ele>4.3999999999999995</ele><time>2026-05-01T15:09:24Z</time></trkpt><trkpt lat="44.87577061529545" lon="13.991775062100272"><ele>3.6</ele><time>2026-05-01T15:09:27Z</time></trkpt><trkpt lat="44.87583588906554" lon="13.991845304269678"><ele>2.8</ele><time>2026-05-01T15:09:29Z</time></trkpt><trkpt lat="44.87595623120448" lon="13.991968580876813"><ele>2.0</ele><time>2026-05-01T15:09:33Z</time></trkpt><trkpt lat="44.87600634254637" lon="13.992037365521252"><ele>1.9999999999999998</ele><time>2026-05-01T15:09:35Z</time></trkpt><trkpt lat="44.876057996165805" lon="13.992105576273769"><ele>2.0</ele><time>2026-05-01T15:09:37Z</time></trkpt><trkpt lat="44.87614265228106" lon="13.992152626398966"><ele>2.0</ele><time>2026-05-01T15:09:39Z</time></trkpt><trkpt lat="44.876214939065775" lon="13.9921914512053"><ele>2.0</ele><time>2026-05-01T15:09:41Z</time></trkpt><trkpt lat="44.87627681837713" lon="13.992221818657951"><ele>1.9999999999999998</ele><time>2026-05-01T15:09:43Z</time></trkpt><trkpt lat="44.87635788532294" lon="13.992258091947127"><ele>2.0</ele><time>2026-05-01T15:09:45Z</time></trkpt><trkpt lat="44.876452133510305" lon="13.992259652646931"><ele>2.0</ele><time>2026-05-01T15:09:47Z</time></trkpt><trkpt lat="44.876532146906555" lon="13.992234613322026"><ele>2.0</ele><time>2026-05-01T15:09:49Z</time></trkpt><trkpt lat="44.87661198411316" lon="13.992232307009814"><ele>2.0</ele><time>2026-05-01T15:09:51Z</time></trkpt><trkpt lat="44.876744524837484" lon="13.992187929763665"><ele>2.0</ele><time>2026-05-01T15:09:55Z</time></trkpt><trkpt lat="44.876822158351956" lon="13.99210439777908"><ele>2.0</ele><time>2026-05-01T15:09:57Z</time></trkpt><trkpt lat="44.876911893602625" lon="13.99205072247989"><ele>1.4999999999999998</ele><time>2026-05-01T15:09:59Z</time></trkpt><trkpt lat="44.87698206347717" lon="13.991986739913036"><ele>1.0</ele><time>2026-05-01T15:10:02Z</time></trkpt><trkpt lat="44.877035864814225" lon="13.99193054055593"><ele>0.5</ele><time>2026-05-01T15:10:03.999Z</time></trkpt><trkpt lat="44.877070174449024" lon="13.991823715539264"><ele>0.0</ele><time>2026-05-01T15:10:05.999Z</time></trkpt><trkpt lat="44.87711614105261" lon="13.991716929486183"><ele>-0.49999999999999994</ele><time>2026-05-01T15:10:08.999Z</time></trkpt><trkpt lat="44.877178479034185" lon="13.991606073416461"><ele>-1.0</ele><time>2026-05-01T15:10:11.999Z</time></trkpt><trkpt lat="44.877246839168826" lon="13.991406352264864"><ele>-0.9999999999999999</ele><time>2026-05-01T15:10:16.999Z</time></trkpt><trkpt lat="44.87728072090731" lon="13.991303820425218"><ele>-1.0</ele><time>2026-05-01T15:10:20Z</time></trkpt><trkpt lat="44.87727872150541" lon="13.991197677428044"><ele>-1.0</ele><time>2026-05-01T15:10:23Z</time></trkpt><trkpt lat="44.87727140451076" lon="13.99108434171467"><ele>-1.0</ele><time>2026-05-01T15:10:26Z</time></trkpt><trkpt lat="44.877293973475524" lon="13.990959387229415"><ele>-0.9999999999999999</ele><time>2026-05-01T15:10:29Z</time></trkpt><trkpt lat="44.87730299746764" lon="13.990862560405125"><ele>-1.0</ele><time>2026-05-01T15:10:31Z</time></trkpt><trkpt lat="44.87731267734942" lon="13.990771669714265"><ele>0.5999999999999999</ele><time>2026-05-01T15:10:33Z</time></trkpt><trkpt lat="44.87725530740907" lon="13.990571338335393"><ele>2.1999999999999997</ele><time>2026-05-01T15:10:38Z</time></trkpt><trkpt lat="44.87720017998426" lon="13.990526405840624"><ele>3.7999999999999994</ele><time>2026-05-01T15:10:39.999Z</time></trkpt><trkpt lat="44.87712244044143" lon="13.990469166931275"><ele>5.3999999999999995</ele><time>2026-05-01T15:10:42.999Z</time></trkpt><trkpt lat="44.87705785129464" lon="13.990413423574209"><ele>7.0</ele><time>2026-05-01T15:10:45.999Z</time></trkpt><trkpt lat="44.87699249734794" lon="13.990337525169739"><ele>7.0</ele><time>2026-05-01T15:10:48.999Z</time></trkpt><trkpt lat="44.876920887129934" lon="13.990274910075014"><ele>6.999999999999999</ele><time>2026-05-01T15:10:51.999Z</time></trkpt><trkpt lat="44.87684635514999" lon="13.990212185006289"><ele>6.999999999999999</ele><time>2026-05-01T15:10:54.999Z</time></trkpt><trkpt lat="44.87680447954831" lon="13.990036789638538"><ele>7.0</ele><time>2026-05-01T15:11:00.999Z</time></trkpt><trkpt lat="44.87678597040062" lon="13.989950825686838"><ele>7.0</ele><time>2026-05-01T15:11:22.998Z</time></trkpt><trkpt lat="44.876771302495605" lon="13.989457358244133"><ele>9.0</ele><time>2026-05-01T15:18:12Z</time></trkpt><trkpt lat="44.87676324644043" lon="13.989347144020407"><ele>11.0</ele><time>2026-05-01T15:18:14Z</time></trkpt><trkpt lat="44.87675571960142" lon="13.9892455490265"><ele>13.0</ele><time>2026-05-01T15:18:16Z</time></trkpt><trkpt lat="44.87674849773024" lon="13.9891522733377"><ele>15.0</ele><time>2026-05-01T15:18:18Z</time></trkpt><trkpt lat="44.87673790528501" lon="13.989045433325169"><ele>17.0</ele><time>2026-05-01T15:18:20Z</time></trkpt><trkpt lat="44.87674149682202" lon="13.988949248600074"><ele>19.0</ele><time>2026-05-01T15:18:22Z</time></trkpt><trkpt lat="44.876749763831214" lon="13.988844616688883"><ele>21.0</ele><time>2026-05-01T15:18:24Z</time></trkpt><trkpt lat="44.876752782021796" lon="13.98874560656031"><ele>22.0</ele><time>2026-05-01T15:18:26Z</time></trkpt><trkpt lat="44.876730119621364" lon="13.988654058577083"><ele>23.0</ele><time>2026-05-01T15:18:28Z</time></trkpt><trkpt lat="44.876687811364924" lon="13.988450094396406"><ele>24.0</ele><time>2026-05-01T15:18:32Z</time></trkpt><trkpt lat="44.87665392214519" lon="13.988351556420941"><ele>25.0</ele><time>2026-05-01T15:18:33.999Z</time></trkpt><trkpt lat="44.87664970643841" lon="13.988250194947808"><ele>26.0</ele><time>2026-05-01T15:18:35.999Z</time></trkpt><trkpt lat="44.876646138618014" lon="13.988144596683322"><ele>27.0</ele><time>2026-05-01T15:18:37.999Z</time></trkpt><trkpt lat="44.87665152287302" lon="13.988029993829628"><ele>28.400000000000002</ele><time>2026-05-01T15:18:39.999Z</time></trkpt><trkpt lat="44.87665432674269" lon="13.987930833126933"><ele>29.800000000000004</ele><time>2026-05-01T15:18:42.001Z</time></trkpt><trkpt lat="44.87662173915367" lon="13.987810261797563"><ele>31.2</ele><time>2026-05-01T15:18:45.001Z</time></trkpt><trkpt lat="44.87660269397662" lon="13.987705321116172"><ele>32.6</ele><time>2026-05-01T15:18:47.001Z</time></trkpt><trkpt lat="44.87660931284855" lon="13.98761387431795"><ele>34.0</ele><time>2026-05-01T15:18:49.001Z</time></trkpt><trkpt lat="44.87660621589971" lon="13.987387680219493"><ele>34.833333333333336</ele><time>2026-05-01T15:18:53.001Z</time></trkpt><trkpt lat="44.8765869345948" lon="13.987265802227087"><ele>35.66666666666667</ele><time>2026-05-01T15:18:55.001Z</time></trkpt><trkpt lat="44.87657039605497" lon="13.987154531633967"><ele>36.5</ele><time>2026-05-01T15:18:57.001Z</time></trkpt><trkpt lat="44.876562121182836" lon="13.987032685094118"><ele>37.333333333333336</ele><time>2026-05-01T15:18:59.001Z</time></trkpt><trkpt lat="44.87657769261745" lon="13.986910737645681"><ele>38.166666666666664</ele><time>2026-05-01T15:19:01.001Z</time></trkpt><trkpt lat="44.8765893953878" lon="13.98680479516956"><ele>39.0</ele><time>2026-05-01T15:19:03.001Z</time></trkpt><trkpt lat="44.87658781760434" lon="13.986701975726982"><ele>39.8</ele><time>2026-05-01T15:19:05Z</time></trkpt><trkpt lat="44.87660302681544" lon="13.986543411880563"><ele>40.599999999999994</ele><time>2026-05-01T15:19:08Z</time></trkpt><trkpt lat="44.87662650080233" lon="13.986433274467641"><ele>41.4</ele><time>2026-05-01T15:19:10Z</time></trkpt><trkpt lat="44.876695128356474" lon="13.986209872712411"><ele>42.199999999999996</ele><time>2026-05-01T15:19:14Z</time></trkpt><trkpt lat="44.876730330158395" lon="13.986110273170173"><ele>43.0</ele><time>2026-05-01T15:19:16Z</time></trkpt><trkpt lat="44.876782906911174" lon="13.986035855697699"><ele>43.0</ele><time>2026-05-01T15:19:18Z</time></trkpt><trkpt lat="44.87683848494347" lon="13.985951782681989"><ele>43.0</ele><time>2026-05-01T15:19:21Z</time></trkpt><trkpt lat="44.876893093418495" lon="13.985857286180241"><ele>43.0</ele><time>2026-05-01T15:19:24Z</time></trkpt><trkpt lat="44.876918230848794" lon="13.985745208612657"><ele>43.0</ele><time>2026-05-01T15:19:27Z</time></trkpt><trkpt lat="44.87694799063079" lon="13.985661488817776"><ele>43.0</ele><time>2026-05-01T15:19:29Z</time></trkpt><trkpt lat="44.87698757679309" lon="13.985590430899581"><ele>43.0</ele><time>2026-05-01T15:19:31Z</time></trkpt><trkpt lat="44.87709956298419" lon="13.985461875051389"><ele>43.333333333333336</ele><time>2026-05-01T15:19:36Z</time></trkpt><trkpt lat="44.87717642476937" lon="13.985382707643737"><ele>43.66666666666667</ele><time>2026-05-01T15:19:38Z</time></trkpt><trkpt lat="44.87724643890682" lon="13.985319184492091"><ele>44.0</ele><time>2026-05-01T15:19:40Z</time></trkpt><trkpt lat="44.87731086910405" lon="13.98526603992778"><ele>44.333333333333336</ele><time>2026-05-01T15:19:42Z</time></trkpt><trkpt lat="44.877375270864604" lon="13.985213837920075"><ele>44.666666666666664</ele><time>2026-05-01T15:19:44Z</time></trkpt><trkpt lat="44.87741006286718" lon="13.985123081537774"><ele>45.0</ele><time>2026-05-01T15:19:46Z</time></trkpt><trkpt lat="44.87741871190253" lon="13.985008239201576"><ele>45.0</ele><time>2026-05-01T15:19:48Z</time></trkpt><trkpt lat="44.87747734533727" lon="13.984871194082999"><ele>45.0</ele><time>2026-05-01T15:19:51Z</time></trkpt><trkpt lat="44.87752781497893" lon="13.984771960101366"><ele>45.0</ele><time>2026-05-01T15:19:53Z</time></trkpt><trkpt lat="44.87762930435007" lon="13.984545679160885"><ele>45.0</ele><time>2026-05-01T15:19:57Z</time></trkpt><trkpt lat="44.87769289000634" lon="13.984422450900736"><ele>45.5</ele><time>2026-05-01T15:19:59Z</time></trkpt><trkpt lat="44.877752371719446" lon="13.984322934907064"><ele>46.0</ele><time>2026-05-01T15:20:01Z</time></trkpt><trkpt lat="44.87778264153183" lon="13.984222334658567"><ele>46.5</ele><time>2026-05-01T15:20:03Z</time></trkpt><trkpt lat="44.877822295716264" lon="13.984125885065769"><ele>47.0</ele><time>2026-05-01T15:20:05Z</time></trkpt><trkpt lat="44.8778325065925" lon="13.98402226649792"><ele>47.5</ele><time>2026-05-01T15:20:07Z</time></trkpt><trkpt lat="44.87785192481756" lon="13.983927980673071"><ele>48.0</ele><time>2026-05-01T15:20:09Z</time></trkpt><trkpt lat="44.87785881072598" lon="13.983791566792634"><ele>48.333333333333336</ele><time>2026-05-01T15:20:11Z</time></trkpt><trkpt lat="44.87787856919372" lon="13.983680367225736"><ele>48.66666666666667</ele><time>2026-05-01T15:20:13Z</time></trkpt><trkpt lat="44.87789857365227" lon="13.98359149013695"><ele>49.0</ele><time>2026-05-01T15:20:15Z</time></trkpt><trkpt lat="44.87787658604266" lon="13.983399999031876"><ele>49.333333333333336</ele><time>2026-05-01T15:20:20Z</time></trkpt><trkpt lat="44.877902845071766" lon="13.983308550085857"><ele>49.66666666666667</ele><time>2026-05-01T15:20:22Z</time></trkpt><trkpt lat="44.87791227882651" lon="13.983191439700947"><ele>50.0</ele><time>2026-05-01T15:20:24Z</time></trkpt><trkpt lat="44.877956888835904" lon="13.983114323891144"><ele>50.16666666666667</ele><time>2026-05-01T15:20:26Z</time></trkpt><trkpt lat="44.87800839433514" lon="13.983060404366043"><ele>50.333333333333336</ele><time>2026-05-01T15:20:27.999Z</time></trkpt><trkpt lat="44.87808169002211" lon="13.98301501636133"><ele>50.5</ele><time>2026-05-01T15:20:29.999Z</time></trkpt><trkpt lat="44.87816079967499" lon="13.982949600261566"><ele>50.66666666666667</ele><time>2026-05-01T15:20:31.999Z</time></trkpt><trkpt lat="44.87822098917033" lon="13.982880563234279"><ele>50.833333333333336</ele><time>2026-05-01T15:20:33.999Z</time></trkpt><trkpt lat="44.87828917338223" lon="13.98280265905054"><ele>51.0</ele><time>2026-05-01T15:20:35.999Z</time></trkpt><trkpt lat="44.87840928958353" lon="13.982666791811686"><ele>51.0</ele><time>2026-05-01T15:20:39.999Z</time></trkpt><trkpt lat="44.87844300372725" lon="13.982580474347632"><ele>51.0</ele><time>2026-05-01T15:20:55Z</time></trkpt><trkpt lat="44.878518741068106" lon="13.982595240051362"><ele>51.0</ele><time>2026-05-01T15:21:21Z</time></trkpt><trkpt lat="44.8785433740539" lon="13.982307415780715"><ele>51.0</ele><time>2026-05-01T15:22:49.999Z</time></trkpt><trkpt lat="44.878440904219374" lon="13.982057941540434"><ele>51.0</ele><time>2026-05-01T15:28:09Z</time></trkpt><trkpt lat="44.87844605390121" lon="13.981968794933232"><ele>51.0</ele><time>2026-05-01T15:28:21Z</time></trkpt><trkpt lat="44.878443082580176" lon="13.981777820604838"><ele>51.0</ele><time>2026-05-01T15:29:21Z</time></trkpt><trkpt lat="44.8784357806186" lon="13.981649826198565"><ele>51.0</ele><time>2026-05-01T15:29:41Z</time></trkpt><trkpt lat="44.87838557349928" lon="13.98146842298197"><ele>51.0</ele><time>2026-05-01T15:29:54Z</time></trkpt><trkpt lat="44.878354661564146" lon="13.98136782180459"><ele>51.25</ele><time>2026-05-01T15:30:20Z</time></trkpt><trkpt lat="44.878276809354844" lon="13.981166865932488"><ele>51.5</ele><time>2026-05-01T15:30:37Z</time></trkpt><trkpt lat="44.87825640888658" lon="13.981079732291432"><ele>51.75</ele><time>2026-05-01T15:30:39Z</time></trkpt><trkpt lat="44.878212180817975" lon="13.980926742041754"><ele>52.0</ele><time>2026-05-01T15:30:41Z</time></trkpt><trkpt lat="44.87813563008824" lon="13.980753572714569"><ele>52.33333333333333</ele><time>2026-05-01T15:30:44.999Z</time></trkpt><trkpt lat="44.87810118667876" lon="13.980650105071978"><ele>52.666666666666664</ele><time>2026-05-01T15:30:47.999Z</time></trkpt><trkpt lat="44.87805516942708" lon="13.98053296267278"><ele>53.0</ele><time>2026-05-01T15:30:50.999Z</time></trkpt><trkpt lat="44.878008288168814" lon="13.980432836130975"><ele>53.33333333333333</ele><time>2026-05-01T15:30:53.999Z</time></trkpt><trkpt lat="44.877940665538965" lon="13.980356799064017"><ele>53.666666666666664</ele><time>2026-05-01T15:30:55.999Z</time></trkpt><trkpt lat="44.87789731393663" lon="13.980283350545854"><ele>54.0</ele><time>2026-05-01T15:30:57.999Z</time></trkpt><trkpt lat="44.87785128411241" lon="13.980212177386573"><ele>54.0</ele><time>2026-05-01T15:30:59.999Z</time></trkpt><trkpt lat="44.87780990143318" lon="13.98013969238375"><ele>54.00000000000001</ele><time>2026-05-01T15:31:01.999Z</time></trkpt><trkpt lat="44.87770120706337" lon="13.979947141766266"><ele>54.00000000000001</ele><time>2026-05-01T15:31:07.999Z</time></trkpt><trkpt lat="44.877655217422195" lon="13.979861930875037"><ele>54.0</ele><time>2026-05-01T15:31:09.999Z</time></trkpt><trkpt lat="44.8776090509544" lon="13.979765155493396"><ele>54.0</ele><time>2026-05-01T15:31:12.999Z</time></trkpt><trkpt lat="44.87757061898168" lon="13.979681157873193"><ele>54.2</ele><time>2026-05-01T15:31:16Z</time></trkpt><trkpt lat="44.87752234410202" lon="13.97959541848288"><ele>54.400000000000006</ele><time>2026-05-01T15:31:25Z</time></trkpt><trkpt lat="44.87741696153446" lon="13.979440597363894"><ele>54.6</ele><time>2026-05-01T15:31:31Z</time></trkpt><trkpt lat="44.877368951170126" lon="13.979379589809986"><ele>54.8</ele><time>2026-05-01T15:31:33Z</time></trkpt><trkpt lat="44.877275649709134" lon="13.97933466220079"><ele>55.0</ele><time>2026-05-01T15:31:36Z</time></trkpt><trkpt lat="44.87721172014655" lon="13.979298589063909"><ele>55.0</ele><time>2026-05-01T15:31:38Z</time></trkpt><trkpt lat="44.877151055188264" lon="13.979262340229079"><ele>55.0</ele><time>2026-05-01T15:31:41Z</time></trkpt><trkpt lat="44.877059833074895" lon="13.979188858270916"><ele>55.0</ele><time>2026-05-01T15:32:02Z</time></trkpt><trkpt lat="44.876961271839654" lon="13.978994850524893"><ele>55.0</ele><time>2026-05-01T15:32:07Z</time></trkpt><trkpt lat="44.87692436278471" lon="13.97892287329115"><ele>55.0</ele><time>2026-05-01T15:32:09Z</time></trkpt><trkpt lat="44.87688556487002" lon="13.97884785470858"><ele>55.166666666666664</ele><time>2026-05-01T15:32:11Z</time></trkpt><trkpt lat="44.87684174368314" lon="13.978767996627747"><ele>55.33333333333333</ele><time>2026-05-01T15:32:13Z</time></trkpt><trkpt lat="44.87679019627355" lon="13.978692369460651"><ele>55.5</ele><time>2026-05-01T15:32:15Z</time></trkpt><trkpt lat="44.876730307781884" lon="13.978596871117004"><ele>55.66666666666667</ele><time>2026-05-01T15:32:18Z</time></trkpt><trkpt lat="44.87669803352087" lon="13.97849071262194"><ele>55.833333333333336</ele><time>2026-05-01T15:32:20Z</time></trkpt><trkpt lat="44.87666255342852" lon="13.978396645983548"><ele>56.0</ele><time>2026-05-01T15:32:22Z</time></trkpt><trkpt lat="44.876606016621245" lon="13.978299081602712"><ele>57.0</ele><time>2026-05-01T15:32:24Z</time></trkpt><trkpt lat="44.87646258181091" lon="13.978127863267826"><ele>58.0</ele><time>2026-05-01T15:32:28Z</time></trkpt><trkpt lat="44.876375553976544" lon="13.97807230425849"><ele>59.0</ele><time>2026-05-01T15:32:30Z</time></trkpt><trkpt lat="44.87629606373879" lon="13.97801298460166"><ele>60.0</ele><time>2026-05-01T15:32:32Z</time></trkpt><trkpt lat="44.87622812573333" lon="13.977924599627615"><ele>60.0</ele><time>2026-05-01T15:32:34Z</time></trkpt><trkpt lat="44.876187781902686" lon="13.977798718661523"><ele>60.0</ele><time>2026-05-01T15:32:36Z</time></trkpt><trkpt lat="44.87616381341785" lon="13.977688733237159"><ele>60.0</ele><time>2026-05-01T15:32:37.999Z</time></trkpt><trkpt lat="44.87615038906424" lon="13.977586040365397"><ele>60.0</ele><time>2026-05-01T15:32:39.999Z</time></trkpt><trkpt lat="44.876141213125386" lon="13.97749627781526"><ele>60.0</ele><time>2026-05-01T15:32:41.999Z</time></trkpt><trkpt lat="44.87613813904151" lon="13.977394401891523"><ele>60.0</ele><time>2026-05-01T15:32:43.999Z</time></trkpt><trkpt lat="44.876147009144304" lon="13.977305129571072"><ele>60.2</ele><time>2026-05-01T15:32:45.999Z</time></trkpt><trkpt lat="44.876129382692035" lon="13.977071008031391"><ele>60.4</ele><time>2026-05-01T15:32:50.999Z</time></trkpt><trkpt lat="44.87611622281495" lon="13.976978296820763"><ele>60.599999999999994</ele><time>2026-05-01T15:32:52.999Z</time></trkpt><trkpt lat="44.87612175624682" lon="13.976880925661668"><ele>60.8</ele><time>2026-05-01T15:32:55.999Z</time></trkpt><trkpt lat="44.8761172041002" lon="13.976767615685862"><ele>61.0</ele><time>2026-05-01T15:33:29Z</time></trkpt><trkpt lat="44.87605998998027" lon="13.976525341480244"><ele>60.99999999999999</ele><time>2026-05-01T15:33:33Z</time></trkpt><trkpt lat="44.87602170087094" lon="13.976418268358978"><ele>61.0</ele><time>2026-05-01T15:33:35Z</time></trkpt><trkpt lat="44.87599413490941" lon="13.976300816218314"><ele>61.0</ele><time>2026-05-01T15:33:37Z</time></trkpt><trkpt lat="44.8759538940366" lon="13.976205503003023"><ele>61.0</ele><time>2026-05-01T15:33:39Z</time></trkpt><trkpt lat="44.875934529029394" lon="13.976094627485823"><ele>60.99999999999999</ele><time>2026-05-01T15:33:41Z</time></trkpt><trkpt lat="44.87592441073572" lon="13.975974504629203"><ele>61.0</ele><time>2026-05-01T15:33:43Z</time></trkpt><trkpt lat="44.87591951161216" lon="13.975865341702857"><ele>61.8</ele><time>2026-05-01T15:33:45Z</time></trkpt><trkpt lat="44.875909660711606" lon="13.975771975743328"><ele>62.599999999999994</ele><time>2026-05-01T15:33:47Z</time></trkpt><trkpt lat="44.87588507723415" lon="13.975676035600562"><ele>63.4</ele><time>2026-05-01T15:33:49Z</time></trkpt><trkpt lat="44.87586215722604" lon="13.975574955862648"><ele>64.2</ele><time>2026-05-01T15:33:51Z</time></trkpt><trkpt lat="44.87577519541401" lon="13.975344898671562"><ele>65.0</ele><time>2026-05-01T15:33:55Z</time></trkpt><trkpt lat="44.87572203491274" lon="13.975222235690481"><ele>65.0</ele><time>2026-05-01T15:33:57Z</time></trkpt><trkpt lat="44.875670764430204" lon="13.975100931838087"><ele>65.0</ele><time>2026-05-01T15:33:59Z</time></trkpt><trkpt lat="44.87561847620946" lon="13.974993568572222"><ele>65.0</ele><time>2026-05-01T15:34:01Z</time></trkpt><trkpt lat="44.87556025880242" lon="13.97488670566184"><ele>65.0</ele><time>2026-05-01T15:34:03Z</time></trkpt><trkpt lat="44.87549705490457" lon="13.974779365620343"><ele>65.0</ele><time>2026-05-01T15:34:05Z</time></trkpt><trkpt lat="44.875451947394566" lon="13.974657911134875"><ele>65.25</ele><time>2026-05-01T15:34:07Z</time></trkpt><trkpt lat="44.87541954207081" lon="13.974529055978596"><ele>65.5</ele><time>2026-05-01T15:34:09Z</time></trkpt><trkpt lat="44.87537682865254" lon="13.974408505627984"><ele>65.75</ele><time>2026-05-01T15:34:11Z</time></trkpt><trkpt lat="44.87533248079822" lon="13.974281808387174"><ele>66.0</ele><time>2026-05-01T15:34:13Z</time></trkpt><trkpt lat="44.875260923191576" lon="13.974006148812832"><ele>66.0</ele><time>2026-05-01T15:34:17Z</time></trkpt><trkpt lat="44.875242977654985" lon="13.973879793622059"><ele>66.0</ele><time>2026-05-01T15:34:19Z</time></trkpt><trkpt lat="44.8752312896567" lon="13.973739215414312"><ele>66.0</ele><time>2026-05-01T15:34:21Z</time></trkpt><trkpt lat="44.87519477081186" lon="13.973593029823412"><ele>66.0</ele><time>2026-05-01T15:34:23Z</time></trkpt><trkpt lat="44.87517175931603" lon="13.973452471423194"><ele>66.0</ele><time>2026-05-01T15:34:25Z</time></trkpt><trkpt lat="44.87515367857203" lon="13.973324654068689"><ele>65.2</ele><time>2026-05-01T15:34:27Z</time></trkpt><trkpt lat="44.8751598718452" lon="13.973184239095332"><ele>64.39999999999999</ele><time>2026-05-01T15:34:29Z</time></trkpt><trkpt lat="44.8751862236871" lon="13.973052716356804"><ele>63.6</ele><time>2026-05-01T15:34:31Z</time></trkpt><trkpt lat="44.875193892124244" lon="13.972915117979463"><ele>62.8</ele><time>2026-05-01T15:34:33Z</time></trkpt><trkpt lat="44.875174872898114" lon="13.972795163448005"><ele>62.0</ele><time>2026-05-01T15:34:35Z</time></trkpt><trkpt lat="44.87510445686775" lon="13.97257886519433"><ele>62.00000000000001</ele><time>2026-05-01T15:34:41Z</time></trkpt><trkpt lat="44.87511759622657" lon="13.972478143372411"><ele>62.0</ele><time>2026-05-01T15:34:44.999Z</time></trkpt><trkpt lat="44.87509517115133" lon="13.97236886508128"><ele>62.0</ele><time>2026-05-01T15:34:47.999Z</time></trkpt><trkpt lat="44.87509670305262" lon="13.97227524535467"><ele>62.0</ele><time>2026-05-01T15:34:49.999Z</time></trkpt><trkpt lat="44.87511399626974" lon="13.972186704134417"><ele>62.00000000000001</ele><time>2026-05-01T15:34:51.999Z</time></trkpt><trkpt lat="44.87509665704684" lon="13.972061590692425"><ele>62.0</ele><time>2026-05-01T15:34:54.999Z</time></trkpt><trkpt lat="44.87510970429115" lon="13.97193021138115"><ele>62.0</ele><time>2026-05-01T15:34:56.999Z</time></trkpt><trkpt lat="44.87509148202893" lon="13.971632732888203"><ele>62.0</ele><time>2026-05-01T15:35:00.999Z</time></trkpt><trkpt lat="44.87508634246268" lon="13.97149997161235"><ele>62.0</ele><time>2026-05-01T15:35:02.999Z</time></trkpt><trkpt lat="44.87510182401935" lon="13.971385840819691"><ele>62.0</ele><time>2026-05-01T15:35:04.999Z</time></trkpt><trkpt lat="44.87510281583585" lon="13.971271221341578"><ele>62.00000000000001</ele><time>2026-05-01T15:35:06.999Z</time></trkpt><trkpt lat="44.875109032594004" lon="13.971129152609524"><ele>62.0</ele><time>2026-05-01T15:35:08.999Z</time></trkpt><trkpt lat="44.87512221356463" lon="13.971010241277664"><ele>62.0</ele><time>2026-05-01T15:35:10.999Z</time></trkpt><trkpt lat="44.87513807356934" lon="13.970923838843417"><ele>62.0</ele><time>2026-05-01T15:35:12.999Z</time></trkpt><trkpt lat="44.87514790967769" lon="13.97083082487446"><ele>62.00000000000001</ele><time>2026-05-01T15:35:23.999Z</time></trkpt><trkpt lat="44.875184693351464" lon="13.970650025675212"><ele>62.0</ele><time>2026-05-01T15:35:40Z</time></trkpt><trkpt lat="44.875207205261376" lon="13.97056205984076"><ele>61.75</ele><time>2026-05-01T15:35:53Z</time></trkpt><trkpt lat="44.875251686072495" lon="13.970393191606858"><ele>61.5</ele><time>2026-05-01T15:36:22Z</time></trkpt><trkpt lat="44.87529606704678" lon="13.970209423806216"><ele>61.25</ele><time>2026-05-01T15:36:44.999Z</time></trkpt><trkpt lat="44.87539254263668" lon="13.970027260393973"><ele>61.0</ele><time>2026-05-01T15:36:54.999Z</time></trkpt><trkpt lat="44.87544376458198" lon="13.96995513879044"><ele>61.0</ele><time>2026-05-01T15:36:57.999Z</time></trkpt><trkpt lat="44.875400111936806" lon="13.970043137515473"><ele>61.0</ele><time>2026-05-01T15:37:15.999Z</time></trkpt><trkpt lat="44.875419430889444" lon="13.969972181848258"><ele>61.0</ele><time>2026-05-01T15:38:23Z</time></trkpt><trkpt lat="44.875560000400284" lon="13.96975921088182"><ele>61.0</ele><time>2026-05-01T15:38:52Z</time></trkpt><trkpt lat="44.87566300443557" lon="13.969548299853479"><ele>60.8</ele><time>2026-05-01T15:38:55.999Z</time></trkpt><trkpt lat="44.87570839056342" lon="13.969438165926913"><ele>60.599999999999994</ele><time>2026-05-01T15:38:57.999Z</time></trkpt><trkpt lat="44.87575703787699" lon="13.969308911299647"><ele>60.4</ele><time>2026-05-01T15:38:59.999Z</time></trkpt><trkpt lat="44.87580612639813" lon="13.96919975787214"><ele>60.2</ele><time>2026-05-01T15:39:01.999Z</time></trkpt><trkpt lat="44.87583777690936" lon="13.969091065975388"><ele>60.0</ele><time>2026-05-01T15:39:03.999Z</time></trkpt><trkpt lat="44.8758772652311" lon="13.96898515402197"><ele>60.6</ele><time>2026-05-01T15:39:05.999Z</time></trkpt><trkpt lat="44.87592910309094" lon="13.968875398729628"><ele>61.2</ele><time>2026-05-01T15:39:07.999Z</time></trkpt><trkpt lat="44.87594201138761" lon="13.968781047413714"><ele>61.8</ele><time>2026-05-01T15:39:09.999Z</time></trkpt><trkpt lat="44.875933331066335" lon="13.968660703289775"><ele>62.4</ele><time>2026-05-01T15:39:12.999Z</time></trkpt><trkpt lat="44.875905026170884" lon="13.968540280564229"><ele>63.0</ele><time>2026-05-01T15:39:14.999Z</time></trkpt><trkpt lat="44.87592413476336" lon="13.968307236587057"><ele>63.2</ele><time>2026-05-01T15:39:18.999Z</time></trkpt><trkpt lat="44.875953675336405" lon="13.968178210823117"><ele>63.4</ele><time>2026-05-01T15:39:20.999Z</time></trkpt><trkpt lat="44.87597814916734" lon="13.968052837740439"><ele>63.60000000000001</ele><time>2026-05-01T15:39:22.999Z</time></trkpt><trkpt lat="44.876002942626656" lon="13.967919236174712"><ele>63.800000000000004</ele><time>2026-05-01T15:39:24.999Z</time></trkpt><trkpt lat="44.87601893339476" lon="13.967755913852187"><ele>64.0</ele><time>2026-05-01T15:39:26.999Z</time></trkpt><trkpt lat="44.876032411741555" lon="13.96761877792392"><ele>64.4</ele><time>2026-05-01T15:39:28.999Z</time></trkpt><trkpt lat="44.87605987811977" lon="13.96748641971509"><ele>64.80000000000001</ele><time>2026-05-01T15:39:30.999Z</time></trkpt><trkpt lat="44.87610335156135" lon="13.967363235629238"><ele>65.19999999999999</ele><time>2026-05-01T15:39:32.999Z</time></trkpt><trkpt lat="44.87614702353726" lon="13.967231099246492"><ele>65.6</ele><time>2026-05-01T15:39:34.999Z</time></trkpt><trkpt lat="44.87620719863198" lon="13.967125469277702"><ele>66.0</ele><time>2026-05-01T15:39:36.999Z</time></trkpt><trkpt lat="44.87630342681621" lon="13.966944674691586"><ele>66.0</ele><time>2026-05-01T15:39:41Z</time></trkpt><trkpt lat="44.87631857340373" lon="13.966800085426952"><ele>66.0</ele><time>2026-05-01T15:39:43Z</time></trkpt><trkpt lat="44.87629509166471" lon="13.96668771808491"><ele>66.0</ele><time>2026-05-01T15:39:45Z</time></trkpt><trkpt lat="44.876278744170584" lon="13.9665608216973"><ele>66.0</ele><time>2026-05-01T15:39:47Z</time></trkpt><trkpt lat="44.87627845632349" lon="13.966438316393718"><ele>66.0</ele><time>2026-05-01T15:39:49Z</time></trkpt><trkpt lat="44.876253224498726" lon="13.966312905377755"><ele>65.8</ele><time>2026-05-01T15:39:51Z</time></trkpt><trkpt lat="44.87625272919101" lon="13.966178939883275"><ele>65.6</ele><time>2026-05-01T15:39:53Z</time></trkpt><trkpt lat="44.876253773822825" lon="13.966046312739422"><ele>65.4</ele><time>2026-05-01T15:39:55Z</time></trkpt><trkpt lat="44.876283043521184" lon="13.965900252858226"><ele>65.2</ele><time>2026-05-01T15:39:57Z</time></trkpt><trkpt lat="44.87632170280354" lon="13.96577059970666"><ele>65.0</ele><time>2026-05-01T15:39:59Z</time></trkpt><trkpt lat="44.87638436803402" lon="13.965503314343962"><ele>65.0</ele><time>2026-05-01T15:40:03Z</time></trkpt><trkpt lat="44.87639800398154" lon="13.965362651637982"><ele>65.0</ele><time>2026-05-01T15:40:05Z</time></trkpt><trkpt lat="44.876415467032615" lon="13.965221155640274"><ele>65.0</ele><time>2026-05-01T15:40:07Z</time></trkpt><trkpt lat="44.87643236595966" lon="13.965077645394258"><ele>65.0</ele><time>2026-05-01T15:40:09Z</time></trkpt><trkpt lat="44.87645180412912" lon="13.964935418906123"><ele>65.0</ele><time>2026-05-01T15:40:11Z</time></trkpt><trkpt lat="44.876475498357564" lon="13.964800977556276"><ele>65.0</ele><time>2026-05-01T15:40:13Z</time></trkpt><trkpt lat="44.87650382654701" lon="13.964668421143804"><ele>65.0</ele><time>2026-05-01T15:40:15Z</time></trkpt><trkpt lat="44.876536915233075" lon="13.964533715123848"><ele>65.0</ele><time>2026-05-01T15:40:17Z</time></trkpt><trkpt lat="44.876570637859395" lon="13.964376969600723"><ele>65.0</ele><time>2026-05-01T15:40:19Z</time></trkpt><trkpt lat="44.87659115053555" lon="13.964226240352343"><ele>65.0</ele><time>2026-05-01T15:40:21Z</time></trkpt><trkpt lat="44.87663651889961" lon="13.963998714633059"><ele>65.0</ele><time>2026-05-01T15:40:25Z</time></trkpt><trkpt lat="44.876711655882055" lon="13.96393398419393"><ele>65.0</ele><time>2026-05-01T15:40:27Z</time></trkpt><trkpt lat="44.87681979589848" lon="13.96388671430492"><ele>65.0</ele><time>2026-05-01T15:40:29Z</time></trkpt><trkpt lat="44.87693672010383" lon="13.963855692969734"><ele>65.0</ele><time>2026-05-01T15:40:31Z</time></trkpt><trkpt lat="44.87706060994226" lon="13.96385282519289"><ele>65.0</ele><time>2026-05-01T15:40:33Z</time></trkpt><trkpt lat="44.87718107595132" lon="13.963844965607835"><ele>65.6</ele><time>2026-05-01T15:40:35Z</time></trkpt><trkpt lat="44.87728879836024" lon="13.963844703003133"><ele>66.2</ele><time>2026-05-01T15:40:37Z</time></trkpt><trkpt lat="44.87737581369166" lon="13.963840594721313"><ele>66.8</ele><time>2026-05-01T15:40:39Z</time></trkpt><trkpt lat="44.87747492007886" lon="13.963857486322146"><ele>67.4</ele><time>2026-05-01T15:40:41Z</time></trkpt><trkpt lat="44.87756840136255" lon="13.963845271603175"><ele>68.0</ele><time>2026-05-01T15:40:43Z</time></trkpt><trkpt lat="44.87773849257281" lon="13.963849503829689"><ele>68.2</ele><time>2026-05-01T15:40:47Z</time></trkpt><trkpt lat="44.877830484696446" lon="13.963870885354451"><ele>68.4</ele><time>2026-05-01T15:40:48.999Z</time></trkpt><trkpt lat="44.877938714245644" lon="13.963858188863753"><ele>68.60000000000001</ele><time>2026-05-01T15:40:50.999Z</time></trkpt><trkpt lat="44.87805436373467" lon="13.963829852332221"><ele>68.8</ele><time>2026-05-01T15:40:52.999Z</time></trkpt><trkpt lat="44.87814789216863" lon="13.963772284283168"><ele>69.0</ele><time>2026-05-01T15:40:54.999Z</time></trkpt><trkpt lat="44.87823111223525" lon="13.963685605063409"><ele>69.0</ele><time>2026-05-01T15:40:56.999Z</time></trkpt><trkpt lat="44.87829712586381" lon="13.963585247207906"><ele>69.0</ele><time>2026-05-01T15:40:58.999Z</time></trkpt><trkpt lat="44.87838501419484" lon="13.963477932474502"><ele>69.0</ele><time>2026-05-01T15:41:00.999Z</time></trkpt><trkpt lat="44.878476272802246" lon="13.963382194152821"><ele>69.0</ele><time>2026-05-01T15:41:02.999Z</time></trkpt><trkpt lat="44.87854715363193" lon="13.96329654180059"><ele>69.0</ele><time>2026-05-01T15:41:04.999Z</time></trkpt><trkpt lat="44.87872693270799" lon="13.963158591108058"><ele>69.0</ele><time>2026-05-01T15:41:08.999Z</time></trkpt><trkpt lat="44.87881551697162" lon="13.96312464694598"><ele>69.0</ele><time>2026-05-01T15:41:10.999Z</time></trkpt><trkpt lat="44.87892373100624" lon="13.963141108776737"><ele>69.0</ele><time>2026-05-01T15:41:12.999Z</time></trkpt><trkpt lat="44.87899024667732" lon="13.963166019462241"><ele>69.0</ele><time>2026-05-01T15:41:13.999Z</time></trkpt><trkpt lat="44.879062656899364" lon="13.963194478130475"><ele>69.0</ele><time>2026-05-01T15:41:14.999Z</time></trkpt><trkpt lat="44.87914302256523" lon="13.963223642226527"><ele>69.0</ele><time>2026-05-01T15:41:15.999Z</time></trkpt><trkpt lat="44.87922597653777" lon="13.963250245307927"><ele>69.5</ele><time>2026-05-01T15:41:16.999Z</time></trkpt><trkpt lat="44.87930116542426" lon="13.963275921108862"><ele>70.0</ele><time>2026-05-01T15:41:17.999Z</time></trkpt><trkpt lat="44.87937481736769" lon="13.963301929758412"><ele>70.5</ele><time>2026-05-01T15:41:18.999Z</time></trkpt><trkpt lat="44.87945652404759" lon="13.963332202161274"><ele>71.0</ele><time>2026-05-01T15:41:19.999Z</time></trkpt><trkpt lat="44.87954303833098" lon="13.963365888482034"><ele>71.5</ele><time>2026-05-01T15:41:20.999Z</time></trkpt><trkpt lat="44.87963128964136" lon="13.963404097632939"><ele>72.0</ele><time>2026-05-01T15:41:21.999Z</time></trkpt><trkpt lat="44.879721821324374" lon="13.96344094999766"><ele>72.0</ele><time>2026-05-01T15:41:22.999Z</time></trkpt><trkpt lat="44.87981095247739" lon="13.963477800756554"><ele>72.0</ele><time>2026-05-01T15:41:23.999Z</time></trkpt><trkpt lat="44.879905616370294" lon="13.963517084331217"><ele>72.0</ele><time>2026-05-01T15:41:24.999Z</time></trkpt><trkpt lat="44.88000137398934" lon="13.96355734673"><ele>72.0</ele><time>2026-05-01T15:41:25.999Z</time></trkpt><trkpt lat="44.88019737041837" lon="13.963602918714475"><ele>72.5</ele><time>2026-05-01T15:41:27.999Z</time></trkpt><trkpt lat="44.880298619822454" lon="13.963598147858098"><ele>73.0</ele><time>2026-05-01T15:41:28.999Z</time></trkpt><trkpt lat="44.880390022135074" lon="13.963591659215226"><ele>73.5</ele><time>2026-05-01T15:41:29.999Z</time></trkpt><trkpt lat="44.88047484154769" lon="13.963590410732866"><ele>74.0</ele><time>2026-05-01T15:41:30.999Z</time></trkpt><trkpt lat="44.88055531448414" lon="13.963590261265772"><ele>74.5</ele><time>2026-05-01T15:41:31.999Z</time></trkpt><trkpt lat="44.88064223083113" lon="13.963589152541385"><ele>75.0</ele><time>2026-05-01T15:41:32.999Z</time></trkpt><trkpt lat="44.88072913943299" lon="13.963589154254755"><ele>75.0</ele><time>2026-05-01T15:41:33.999Z</time></trkpt><trkpt lat="44.88081479234409" lon="13.963594769846921"><ele>75.0</ele><time>2026-05-01T15:41:34.999Z</time></trkpt><trkpt lat="44.88089760982259" lon="13.963597822057077"><ele>75.0</ele><time>2026-05-01T15:41:35.999Z</time></trkpt><trkpt lat="44.88098343378145" lon="13.963605060610604"><ele>75.0</ele><time>2026-05-01T15:41:36.999Z</time></trkpt><trkpt lat="44.88106938739184" lon="13.963617056901318"><ele>75.0</ele><time>2026-05-01T15:41:37.999Z</time></trkpt><trkpt lat="44.88115332911643" lon="13.963631668112392"><ele>75.0</ele><time>2026-05-01T15:41:38.999Z</time></trkpt><trkpt lat="44.88123260914188" lon="13.963656648328483"><ele>75.16666666666667</ele><time>2026-05-01T15:41:39.999Z</time></trkpt><trkpt lat="44.881317223835225" lon="13.963690677212087"><ele>75.33333333333333</ele><time>2026-05-01T15:41:40.999Z</time></trkpt><trkpt lat="44.881394628381" lon="13.96372603826809"><ele>75.5</ele><time>2026-05-01T15:41:41.999Z</time></trkpt><trkpt lat="44.88148250429707" lon="13.963751464498465"><ele>75.66666666666666</ele><time>2026-05-01T15:41:42.999Z</time></trkpt><trkpt lat="44.88157077898748" lon="13.963760103269264"><ele>75.83333333333333</ele><time>2026-05-01T15:41:44Z</time></trkpt><trkpt lat="44.881658197299735" lon="13.963754413417648"><ele>76.0</ele><time>2026-05-01T15:41:45Z</time></trkpt><trkpt lat="44.881750202372345" lon="13.963746038720606"><ele>76.25</ele><time>2026-05-01T15:41:46Z</time></trkpt><trkpt lat="44.88184025486074" lon="13.963736865192544"><ele>76.5</ele><time>2026-05-01T15:41:47Z</time></trkpt><trkpt lat="44.88203151963306" lon="13.963719934105454"><ele>76.75</ele><time>2026-05-01T15:41:49Z</time></trkpt><trkpt lat="44.88212653606398" lon="13.963725287328781"><ele>77.0</ele><time>2026-05-01T15:41:50Z</time></trkpt><trkpt lat="44.88222413183513" lon="13.963744950126364"><ele>77.0</ele><time>2026-05-01T15:41:51Z</time></trkpt><trkpt lat="44.88232228653459" lon="13.96378197056109"><ele>77.0</ele><time>2026-05-01T15:41:52Z</time></trkpt><trkpt lat="44.88242917598356" lon="13.963813673223198"><ele>77.0</ele><time>2026-05-01T15:41:53Z</time></trkpt><trkpt lat="44.88253606123079" lon="13.963857659802514"><ele>77.0</ele><time>2026-05-01T15:41:54Z</time></trkpt><trkpt lat="44.88264453416058" lon="13.963893227222972"><ele>77.0</ele><time>2026-05-01T15:41:55Z</time></trkpt><trkpt lat="44.88274814282527" lon="13.963923800799769"><ele>78.0</ele><time>2026-05-01T15:41:56Z</time></trkpt><trkpt lat="44.88285930374849" lon="13.963942843307816"><ele>79.0</ele><time>2026-05-01T15:41:57Z</time></trkpt><trkpt lat="44.88296439585031" lon="13.96396384107389"><ele>80.0</ele><time>2026-05-01T15:41:58Z</time></trkpt><trkpt lat="44.883070862072856" lon="13.963982744682383"><ele>81.0</ele><time>2026-05-01T15:41:59Z</time></trkpt><trkpt lat="44.8831810079797" lon="13.963997954433808"><ele>82.0</ele><time>2026-05-01T15:42:00Z</time></trkpt><trkpt lat="44.88329046600947" lon="13.964012311446151"><ele>82.0</ele><time>2026-05-01T15:42:01Z</time></trkpt><trkpt lat="44.883398052185754" lon="13.964027867676032"><ele>82.0</ele><time>2026-05-01T15:42:02Z</time></trkpt><trkpt lat="44.88350530054874" lon="13.96406437394753"><ele>82.0</ele><time>2026-05-01T15:42:03Z</time></trkpt><trkpt lat="44.88360837233631" lon="13.964115218748"><ele>82.0</ele><time>2026-05-01T15:42:04Z</time></trkpt><trkpt lat="44.88371130483274" lon="13.96418241364894"><ele>82.0</ele><time>2026-05-01T15:42:05Z</time></trkpt><trkpt lat="44.883813014202346" lon="13.964264030082141"><ele>83.0</ele><time>2026-05-01T15:42:06Z</time></trkpt><trkpt lat="44.88391549399309" lon="13.964342379065355"><ele>84.0</ele><time>2026-05-01T15:42:07Z</time></trkpt><trkpt lat="44.884014210185626" lon="13.964424192007966"><ele>85.0</ele><time>2026-05-01T15:42:08Z</time></trkpt><trkpt lat="44.884211343159485" lon="13.964589279143654"><ele>85.2</ele><time>2026-05-01T15:42:10Z</time></trkpt><trkpt lat="44.884313566194244" lon="13.964667112825905"><ele>85.4</ele><time>2026-05-01T15:42:11Z</time></trkpt><trkpt lat="44.88439756523902" lon="13.964739571541262"><ele>85.6</ele><time>2026-05-01T15:42:12Z</time></trkpt><trkpt lat="44.88447771675749" lon="13.964840287889755"><ele>85.8</ele><time>2026-05-01T15:42:13Z</time></trkpt><trkpt lat="44.88455084791999" lon="13.964937662930897"><ele>86.0</ele><time>2026-05-01T15:42:14Z</time></trkpt><trkpt lat="44.88462125403711" lon="13.965033046678007"><ele>86.0</ele><time>2026-05-01T15:42:15Z</time></trkpt><trkpt lat="44.884689632651366" lon="13.965122362831858"><ele>86.0</ele><time>2026-05-01T15:42:16Z</time></trkpt><trkpt lat="44.88476996560062" lon="13.965214674733003"><ele>86.0</ele><time>2026-05-01T15:42:17Z</time></trkpt><trkpt lat="44.88484965955533" lon="13.96530018146263"><ele>86.0</ele><time>2026-05-01T15:42:18Z</time></trkpt><trkpt lat="44.88492403489043" lon="13.965384016211097"><ele>86.0</ele><time>2026-05-01T15:42:19Z</time></trkpt><trkpt lat="44.88500709923693" lon="13.965477889343704"><ele>86.0</ele><time>2026-05-01T15:42:20Z</time></trkpt><trkpt lat="44.88508131609269" lon="13.965554992914656"><ele>86.0</ele><time>2026-05-01T15:42:21Z</time></trkpt><trkpt lat="44.885145033371224" lon="13.9656330682585"><ele>86.0</ele><time>2026-05-01T15:42:22Z</time></trkpt><trkpt lat="44.885200720751676" lon="13.965697401047"><ele>86.0</ele><time>2026-05-01T15:42:23Z</time></trkpt><trkpt lat="44.88525635416602" lon="13.965752655216756"><ele>86.0</ele><time>2026-05-01T15:42:24Z</time></trkpt><trkpt lat="44.885364976347994" lon="13.965824920150315"><ele>86.0</ele><time>2026-05-01T15:42:26Z</time></trkpt><trkpt lat="44.885453106336065" lon="13.965877948532414"><ele>85.0</ele><time>2026-05-01T15:42:28Z</time></trkpt><trkpt lat="44.885528209181544" lon="13.965908757738308"><ele>85.0</ele><time>2026-05-01T15:42:30Z</time></trkpt></trkseg></trk></gpx>